<?xml version='1.0' encoding='UTF-8'?><gpx version="1.1" creator="JPX - https://github.com/jenetics/jpx" xmlns="http://www.topografix.com/GPX/1/1"><trk><trkseg><trkpt lat="45.7633125" lon="11.7168357"><ele>111.0</ele><time>2026-04-07T12:51:24.46Z</time></trkpt><trkpt lat="45.7630278" lon="11.7168399"><ele>111.0</ele><time>2026-04-07T12:51:30.529Z</time></trkpt><trkpt lat="45.7626449" lon="11.7168646"><ele>110.0</ele><time>2026-04-07T12:51:36.467Z</time></trkpt><trkpt lat="45.7621127" lon="11.7167949"><ele>110.0</ele><time>2026-04-07T12:51:42.23Z</time></trkpt><trkpt lat="45.7615123" lon="11.7165268"><ele>110.0</ele><time>2026-04-07T12:51:48.255Z</time></trkpt><trkpt lat="45.7610861" lon="11.7164344"><ele>110.0</ele><time>2026-04-07T12:51:54.672Z</time></trkpt><trkpt lat="45.7609957" lon="11.7165987"><ele>109.99999999999999</ele><time>2026-04-07T12:51:57.51Z</time></trkpt><trkpt lat="45.7609541" lon="11.7166674"><ele>110.0</ele><time>2026-04-07T12:51:58.506Z</time></trkpt><trkpt lat="45.7609504" lon="11.7168097"><ele>110.0</ele><time>2026-04-07T12:52:00.569Z</time></trkpt><trkpt lat="45.7609618" lon="11.7169405"><ele>110.0</ele><time>2026-04-07T12:52:02.507Z</time></trkpt><trkpt lat="45.76092" lon="11.7170225"><ele>109.99999999999999</ele><time>2026-04-07T12:52:04.538Z</time></trkpt><trkpt lat="45.760847" lon="11.7170504"><ele>110.0</ele><time>2026-04-07T12:52:06.531Z</time></trkpt><trkpt lat="45.7607542" lon="11.7169575"><ele>110.0</ele><time>2026-04-07T12:52:08.529Z</time></trkpt><trkpt lat="45.7606354" lon="11.7168517"><ele>110.0</ele><time>2026-04-07T12:52:09.524Z</time></trkpt><trkpt lat="45.7605571" lon="11.7167244"><ele>110.0</ele><time>2026-04-07T12:52:10.531Z</time></trkpt><trkpt lat="45.7604998" lon="11.7166154"><ele>110.0</ele><time>2026-04-07T12:52:11.526Z</time></trkpt><trkpt lat="45.7604038" lon="11.7165436"><ele>109.99999999999999</ele><time>2026-04-07T12:52:12.524Z</time></trkpt><trkpt lat="45.7603218" lon="11.7164743"><ele>110.0</ele><time>2026-04-07T12:52:13.535Z</time></trkpt><trkpt lat="45.7602487" lon="11.7164129"><ele>110.0</ele><time>2026-04-07T12:52:14.559Z</time></trkpt><trkpt lat="45.7601892" lon="11.7163688"><ele>110.0</ele><time>2026-04-07T12:52:15.533Z</time></trkpt><trkpt lat="45.7601307" lon="11.7163332"><ele>109.99999999999999</ele><time>2026-04-07T12:52:16.535Z</time></trkpt><trkpt lat="45.7600687" lon="11.7163052"><ele>110.0</ele><time>2026-04-07T12:52:17.534Z</time></trkpt><trkpt lat="45.7599498" lon="11.7162639"><ele>109.83333333333333</ele><time>2026-04-07T12:52:19.533Z</time></trkpt><trkpt lat="45.7598886" lon="11.716239"><ele>109.66666666666666</ele><time>2026-04-07T12:52:20.536Z</time></trkpt><trkpt lat="45.759833" lon="11.7161912"><ele>109.5</ele><time>2026-04-07T12:52:21.531Z</time></trkpt><trkpt lat="45.7597892" lon="11.7161242"><ele>109.33333333333334</ele><time>2026-04-07T12:52:22.532Z</time></trkpt><trkpt lat="45.7597292" lon="11.7160038"><ele>109.16666666666667</ele><time>2026-04-07T12:52:24.531Z</time></trkpt><trkpt lat="45.7596602" lon="11.7159214"><ele>109.0</ele><time>2026-04-07T12:52:26.537Z</time></trkpt><trkpt lat="45.7595303" lon="11.7159059"><ele>109.0</ele><time>2026-04-07T12:52:28.535Z</time></trkpt><trkpt lat="45.759441" lon="11.7159373"><ele>109.0</ele><time>2026-04-07T12:52:29.544Z</time></trkpt><trkpt lat="45.7593364" lon="11.7160029"><ele>109.0</ele><time>2026-04-07T12:52:30.534Z</time></trkpt><trkpt lat="45.7592231" lon="11.7160819"><ele>109.0</ele><time>2026-04-07T12:52:31.53Z</time></trkpt><trkpt lat="45.7591019" lon="11.7161724"><ele>108.25</ele><time>2026-04-07T12:52:32.522Z</time></trkpt><trkpt lat="45.7589732" lon="11.7162641"><ele>107.5</ele><time>2026-04-07T12:52:33.523Z</time></trkpt><trkpt lat="45.7588416" lon="11.7163562"><ele>106.75</ele><time>2026-04-07T12:52:34.532Z</time></trkpt><trkpt lat="45.7587084" lon="11.7164502"><ele>106.0</ele><time>2026-04-07T12:52:35.535Z</time></trkpt><trkpt lat="45.7585684" lon="11.7165556"><ele>105.33333333333334</ele><time>2026-04-07T12:52:36.535Z</time></trkpt><trkpt lat="45.7584195" lon="11.7166723"><ele>104.66666666666666</ele><time>2026-04-07T12:52:37.534Z</time></trkpt><trkpt lat="45.7582568" lon="11.7168075"><ele>104.0</ele><time>2026-04-07T12:52:38.535Z</time></trkpt><trkpt lat="45.7580975" lon="11.7169384"><ele>103.66666666666666</ele><time>2026-04-07T12:52:39.536Z</time></trkpt><trkpt lat="45.7579362" lon="11.7170736"><ele>103.33333333333334</ele><time>2026-04-07T12:52:40.536Z</time></trkpt><trkpt lat="45.7577783" lon="11.7172021"><ele>103.0</ele><time>2026-04-07T12:52:41.531Z</time></trkpt><trkpt lat="45.7576303" lon="11.7173218"><ele>102.33333333333334</ele><time>2026-04-07T12:52:42.534Z</time></trkpt><trkpt lat="45.7574792" lon="11.7174636"><ele>101.66666666666666</ele><time>2026-04-07T12:52:43.535Z</time></trkpt><trkpt lat="45.757332" lon="11.7175984"><ele>101.0</ele><time>2026-04-07T12:52:44.534Z</time></trkpt><trkpt lat="45.757192" lon="11.7177113"><ele>101.66666666666666</ele><time>2026-04-07T12:52:45.535Z</time></trkpt><trkpt lat="45.7570516" lon="11.7178084"><ele>102.33333333333334</ele><time>2026-04-07T12:52:46.543Z</time></trkpt><trkpt lat="45.756917" lon="11.7179016"><ele>103.0</ele><time>2026-04-07T12:52:47.533Z</time></trkpt><trkpt lat="45.7567854" lon="11.718001"><ele>103.25</ele><time>2026-04-07T12:52:48.536Z</time></trkpt><trkpt lat="45.756654" lon="11.7180919"><ele>103.5</ele><time>2026-04-07T12:52:49.556Z</time></trkpt><trkpt lat="45.7565287" lon="11.7181758"><ele>103.75</ele><time>2026-04-07T12:52:50.53Z</time></trkpt><trkpt lat="45.7563934" lon="11.718273"><ele>104.0</ele><time>2026-04-07T12:52:51.537Z</time></trkpt><trkpt lat="45.7562526" lon="11.7183822"><ele>104.0</ele><time>2026-04-07T12:52:52.531Z</time></trkpt><trkpt lat="45.7561078" lon="11.7184978"><ele>104.0</ele><time>2026-04-07T12:52:53.532Z</time></trkpt><trkpt lat="45.7559644" lon="11.718613"><ele>104.0</ele><time>2026-04-07T12:52:54.534Z</time></trkpt><trkpt lat="45.7558314" lon="11.7187131"><ele>104.25</ele><time>2026-04-07T12:52:55.54Z</time></trkpt><trkpt lat="45.7557125" lon="11.7187949"><ele>104.5</ele><time>2026-04-07T12:52:56.531Z</time></trkpt><trkpt lat="45.7555937" lon="11.7188805"><ele>104.75</ele><time>2026-04-07T12:52:57.534Z</time></trkpt><trkpt lat="45.7554766" lon="11.7189617"><ele>105.0</ele><time>2026-04-07T12:52:58.531Z</time></trkpt><trkpt lat="45.755376" lon="11.7190244"><ele>105.0</ele><time>2026-04-07T12:52:59.533Z</time></trkpt><trkpt lat="45.755281" lon="11.7190806"><ele>105.0</ele><time>2026-04-07T12:53:00.532Z</time></trkpt><trkpt lat="45.7551881" lon="11.7191367"><ele>105.0</ele><time>2026-04-07T12:53:01.54Z</time></trkpt><trkpt lat="45.7550885" lon="11.7191815"><ele>105.0</ele><time>2026-04-07T12:53:02.538Z</time></trkpt><trkpt lat="45.7549918" lon="11.7192139"><ele>105.0</ele><time>2026-04-07T12:53:03.536Z</time></trkpt><trkpt lat="45.7548961" lon="11.7192461"><ele>104.5</ele><time>2026-04-07T12:53:04.537Z</time></trkpt><trkpt lat="45.7547924" lon="11.7192835"><ele>104.0</ele><time>2026-04-07T12:53:05.628Z</time></trkpt><trkpt lat="45.7546918" lon="11.7193292"><ele>103.5</ele><time>2026-04-07T12:53:06.541Z</time></trkpt><trkpt lat="45.7545645" lon="11.7194035"><ele>103.0</ele><time>2026-04-07T12:53:07.56Z</time></trkpt><trkpt lat="45.7544332" lon="11.7194819"><ele>102.0</ele><time>2026-04-07T12:53:08.535Z</time></trkpt><trkpt lat="45.7542998" lon="11.7195549"><ele>101.0</ele><time>2026-04-07T12:53:09.539Z</time></trkpt><trkpt lat="45.7541603" lon="11.719637"><ele>100.0</ele><time>2026-04-07T12:53:10.538Z</time></trkpt><trkpt lat="45.7540131" lon="11.7197296"><ele>100.0</ele><time>2026-04-07T12:53:11.536Z</time></trkpt><trkpt lat="45.7538557" lon="11.7198435"><ele>100.0</ele><time>2026-04-07T12:53:12.539Z</time></trkpt><trkpt lat="45.7536978" lon="11.7199924"><ele>100.0</ele><time>2026-04-07T12:53:13.557Z</time></trkpt><trkpt lat="45.7535663" lon="11.7201419"><ele>99.66666666666667</ele><time>2026-04-07T12:53:14.539Z</time></trkpt><trkpt lat="45.7534515" lon="11.7202979"><ele>99.33333333333334</ele><time>2026-04-07T12:53:15.537Z</time></trkpt><trkpt lat="45.7533409" lon="11.7204547"><ele>99.0</ele><time>2026-04-07T12:53:16.535Z</time></trkpt><trkpt lat="45.7532509" lon="11.7206151"><ele>99.0</ele><time>2026-04-07T12:53:17.536Z</time></trkpt><trkpt lat="45.7531698" lon="11.7207834"><ele>99.0</ele><time>2026-04-07T12:53:18.543Z</time></trkpt><trkpt lat="45.7530944" lon="11.7209566"><ele>99.0</ele><time>2026-04-07T12:53:19.535Z</time></trkpt><trkpt lat="45.7530231" lon="11.7211314"><ele>99.0</ele><time>2026-04-07T12:53:20.538Z</time></trkpt><trkpt lat="45.7529838" lon="11.7212836"><ele>99.4</ele><time>2026-04-07T12:53:21.541Z</time></trkpt><trkpt lat="45.7529381" lon="11.7214181"><ele>99.80000000000001</ele><time>2026-04-07T12:53:22.537Z</time></trkpt><trkpt lat="45.752896" lon="11.7215273"><ele>100.19999999999999</ele><time>2026-04-07T12:53:23.537Z</time></trkpt><trkpt lat="45.752851" lon="11.7216006"><ele>100.6</ele><time>2026-04-07T12:53:24.535Z</time></trkpt><trkpt lat="45.7527049" lon="11.7215892"><ele>101.0</ele><time>2026-04-07T12:53:26.533Z</time></trkpt><trkpt lat="45.7526139" lon="11.7215417"><ele>100.75</ele><time>2026-04-07T12:53:27.56Z</time></trkpt><trkpt lat="45.7525268" lon="11.7214607"><ele>100.5</ele><time>2026-04-07T12:53:28.534Z</time></trkpt><trkpt lat="45.7524432" lon="11.7213387"><ele>100.25</ele><time>2026-04-07T12:53:29.556Z</time></trkpt><trkpt lat="45.7523688" lon="11.7211982"><ele>100.0</ele><time>2026-04-07T12:53:30.558Z</time></trkpt><trkpt lat="45.7523074" lon="11.7210566"><ele>100.0</ele><time>2026-04-07T12:53:31.536Z</time></trkpt><trkpt lat="45.7522611" lon="11.7208979"><ele>100.0</ele><time>2026-04-07T12:53:32.533Z</time></trkpt><trkpt lat="45.75221" lon="11.7207554"><ele>100.0</ele><time>2026-04-07T12:53:33.536Z</time></trkpt><trkpt lat="45.7521652" lon="11.7206168"><ele>100.0</ele><time>2026-04-07T12:53:34.533Z</time></trkpt><trkpt lat="45.7521201" lon="11.7205078"><ele>100.0</ele><time>2026-04-07T12:53:35.537Z</time></trkpt><trkpt lat="45.752076" lon="11.7204066"><ele>100.0</ele><time>2026-04-07T12:53:36.536Z</time></trkpt><trkpt lat="45.7520358" lon="11.7203069"><ele>100.0</ele><time>2026-04-07T12:53:37.534Z</time></trkpt><trkpt lat="45.7519421" lon="11.7201929"><ele>100.0</ele><time>2026-04-07T12:54:14.573Z</time></trkpt><trkpt lat="45.7518897" lon="11.7201113"><ele>100.0</ele><time>2026-04-07T12:54:15.549Z</time></trkpt><trkpt lat="45.7518142" lon="11.719989"><ele>100.0</ele><time>2026-04-07T12:54:16.547Z</time></trkpt><trkpt lat="45.7517191" lon="11.7198508"><ele>100.25</ele><time>2026-04-07T12:54:17.634Z</time></trkpt><trkpt lat="45.7516209" lon="11.7197142"><ele>100.5</ele><time>2026-04-07T12:54:18.572Z</time></trkpt><trkpt lat="45.7515306" lon="11.7195673"><ele>100.75</ele><time>2026-04-07T12:54:19.548Z</time></trkpt><trkpt lat="45.7514406" lon="11.7194112"><ele>101.0</ele><time>2026-04-07T12:54:20.565Z</time></trkpt><trkpt lat="45.7513501" lon="11.7192498"><ele>101.0</ele><time>2026-04-07T12:54:21.549Z</time></trkpt><trkpt lat="45.7512496" lon="11.719091"><ele>101.0</ele><time>2026-04-07T12:54:22.544Z</time></trkpt><trkpt lat="45.7511378" lon="11.7189104"><ele>101.0</ele><time>2026-04-07T12:54:23.548Z</time></trkpt><trkpt lat="45.7510219" lon="11.7187366"><ele>101.0</ele><time>2026-04-07T12:54:24.548Z</time></trkpt><trkpt lat="45.7509261" lon="11.7185614"><ele>101.0</ele><time>2026-04-07T12:54:25.55Z</time></trkpt><trkpt lat="45.7508306" lon="11.7183618"><ele>101.0</ele><time>2026-04-07T12:54:26.555Z</time></trkpt><trkpt lat="45.7507407" lon="11.7181524"><ele>101.0</ele><time>2026-04-07T12:54:27.554Z</time></trkpt><trkpt lat="45.7506286" lon="11.7179432"><ele>101.0</ele><time>2026-04-07T12:54:28.546Z</time></trkpt><trkpt lat="45.7505474" lon="11.7176827"><ele>101.0</ele><time>2026-04-07T12:54:29.538Z</time></trkpt><trkpt lat="45.7504544" lon="11.7174598"><ele>100.66666666666666</ele><time>2026-04-07T12:54:30.545Z</time></trkpt><trkpt lat="45.7503622" lon="11.7172225"><ele>100.33333333333334</ele><time>2026-04-07T12:54:31.543Z</time></trkpt><trkpt lat="45.7502538" lon="11.7170148"><ele>100.0</ele><time>2026-04-07T12:54:32.541Z</time></trkpt><trkpt lat="45.7501538" lon="11.7167893"><ele>100.0</ele><time>2026-04-07T12:54:33.545Z</time></trkpt><trkpt lat="45.7500554" lon="11.716521"><ele>100.0</ele><time>2026-04-07T12:54:34.55Z</time></trkpt><trkpt lat="45.7499619" lon="11.7162636"><ele>100.0</ele><time>2026-04-07T12:54:35.549Z</time></trkpt><trkpt lat="45.7498724" lon="11.7160328"><ele>99.66666666666667</ele><time>2026-04-07T12:54:36.552Z</time></trkpt><trkpt lat="45.7497933" lon="11.7158122"><ele>99.33333333333334</ele><time>2026-04-07T12:54:37.572Z</time></trkpt><trkpt lat="45.7497165" lon="11.7156101"><ele>99.0</ele><time>2026-04-07T12:54:38.546Z</time></trkpt><trkpt lat="45.7496487" lon="11.7154212"><ele>99.0</ele><time>2026-04-07T12:54:39.547Z</time></trkpt><trkpt lat="45.7495805" lon="11.7152239"><ele>99.0</ele><time>2026-04-07T12:54:40.569Z</time></trkpt><trkpt lat="45.7495095" lon="11.7150328"><ele>99.0</ele><time>2026-04-07T12:54:41.545Z</time></trkpt><trkpt lat="45.7494315" lon="11.7148488"><ele>98.5</ele><time>2026-04-07T12:54:42.54Z</time></trkpt><trkpt lat="45.7493464" lon="11.7146313"><ele>98.0</ele><time>2026-04-07T12:54:43.544Z</time></trkpt><trkpt lat="45.7493003" lon="11.7144495"><ele>97.5</ele><time>2026-04-07T12:54:44.548Z</time></trkpt><trkpt lat="45.7492401" lon="11.714281"><ele>97.0</ele><time>2026-04-07T12:54:45.551Z</time></trkpt><trkpt lat="45.7491615" lon="11.7141329"><ele>97.0</ele><time>2026-04-07T12:54:46.552Z</time></trkpt><trkpt lat="45.7490803" lon="11.7139515"><ele>97.0</ele><time>2026-04-07T12:54:47.55Z</time></trkpt><trkpt lat="45.7489887" lon="11.7138063"><ele>97.0</ele><time>2026-04-07T12:54:48.573Z</time></trkpt><trkpt lat="45.7488975" lon="11.7136518"><ele>97.0</ele><time>2026-04-07T12:54:49.548Z</time></trkpt><trkpt lat="45.7487521" lon="11.7135262"><ele>96.75</ele><time>2026-04-07T12:54:50.548Z</time></trkpt><trkpt lat="45.7486428" lon="11.713387"><ele>96.5</ele><time>2026-04-07T12:54:51.552Z</time></trkpt><trkpt lat="45.7485346" lon="11.7133026"><ele>96.25</ele><time>2026-04-07T12:54:52.554Z</time></trkpt><trkpt lat="45.7484503" lon="11.7132253"><ele>96.0</ele><time>2026-04-07T12:54:53.553Z</time></trkpt><trkpt lat="45.7483594" lon="11.7131473"><ele>96.33333333333333</ele><time>2026-04-07T12:54:54.569Z</time></trkpt><trkpt lat="45.748266" lon="11.713077"><ele>96.66666666666666</ele><time>2026-04-07T12:54:55.551Z</time></trkpt><trkpt lat="45.7481947" lon="11.7130215"><ele>97.0</ele><time>2026-04-07T12:54:56.579Z</time></trkpt><trkpt lat="45.748135" lon="11.7129786"><ele>97.33333333333333</ele><time>2026-04-07T12:54:57.551Z</time></trkpt><trkpt lat="45.7480636" lon="11.7129344"><ele>97.66666666666666</ele><time>2026-04-07T12:54:59.571Z</time></trkpt><trkpt lat="45.7479958" lon="11.712854"><ele>98.0</ele><time>2026-04-07T12:55:02.545Z</time></trkpt><trkpt lat="45.747941" lon="11.7128076"><ele>97.99999999999999</ele><time>2026-04-07T12:55:04.551Z</time></trkpt><trkpt lat="45.7478853" lon="11.7127561"><ele>98.0</ele><time>2026-04-07T12:55:05.547Z</time></trkpt><trkpt lat="45.7478326" lon="11.7126869"><ele>98.0</ele><time>2026-04-07T12:55:06.554Z</time></trkpt><trkpt lat="45.7477679" lon="11.7126157"><ele>98.0</ele><time>2026-04-07T12:55:07.548Z</time></trkpt><trkpt lat="45.7476901" lon="11.7125558"><ele>97.99999999999999</ele><time>2026-04-07T12:55:08.547Z</time></trkpt><trkpt lat="45.7475731" lon="11.7125138"><ele>98.0</ele><time>2026-04-07T12:55:09.549Z</time></trkpt><trkpt lat="45.747445" lon="11.7124733"><ele>98.5</ele><time>2026-04-07T12:55:10.557Z</time></trkpt><trkpt lat="45.747332" lon="11.712434"><ele>99.0</ele><time>2026-04-07T12:55:11.55Z</time></trkpt><trkpt lat="45.7472298" lon="11.7123866"><ele>99.5</ele><time>2026-04-07T12:55:12.548Z</time></trkpt><trkpt lat="45.7471152" lon="11.7123382"><ele>100.0</ele><time>2026-04-07T12:55:13.573Z</time></trkpt><trkpt lat="45.7469961" lon="11.7122882"><ele>99.75</ele><time>2026-04-07T12:55:14.549Z</time></trkpt><trkpt lat="45.7468724" lon="11.7122375"><ele>99.5</ele><time>2026-04-07T12:55:15.554Z</time></trkpt><trkpt lat="45.7467431" lon="11.7121925"><ele>99.25</ele><time>2026-04-07T12:55:16.593Z</time></trkpt><trkpt lat="45.7466032" lon="11.7121491"><ele>99.0</ele><time>2026-04-07T12:55:17.578Z</time></trkpt><trkpt lat="45.7464196" lon="11.7120956"><ele>99.0</ele><time>2026-04-07T12:55:18.548Z</time></trkpt><trkpt lat="45.746266" lon="11.7120074"><ele>99.0</ele><time>2026-04-07T12:55:19.553Z</time></trkpt><trkpt lat="45.7461217" lon="11.7119266"><ele>99.0</ele><time>2026-04-07T12:55:20.57Z</time></trkpt><trkpt lat="45.7459896" lon="11.711845"><ele>99.0</ele><time>2026-04-07T12:55:21.548Z</time></trkpt><trkpt lat="45.7458688" lon="11.7117689"><ele>99.0</ele><time>2026-04-07T12:55:22.548Z</time></trkpt><trkpt lat="45.7457637" lon="11.7117293"><ele>99.0</ele><time>2026-04-07T12:55:23.548Z</time></trkpt><trkpt lat="45.7456577" lon="11.7117199"><ele>99.0</ele><time>2026-04-07T12:55:24.547Z</time></trkpt><trkpt lat="45.7455541" lon="11.7117114"><ele>99.0</ele><time>2026-04-07T12:55:25.557Z</time></trkpt><trkpt lat="45.7454539" lon="11.7117007"><ele>99.0</ele><time>2026-04-07T12:55:26.558Z</time></trkpt><trkpt lat="45.745357" lon="11.7116938"><ele>99.0</ele><time>2026-04-07T12:55:27.576Z</time></trkpt><trkpt lat="45.7452532" lon="11.7116826"><ele>99.0</ele><time>2026-04-07T12:55:28.562Z</time></trkpt><trkpt lat="45.7451606" lon="11.7116669"><ele>99.0</ele><time>2026-04-07T12:55:29.551Z</time></trkpt><trkpt lat="45.745068" lon="11.7116449"><ele>98.4</ele><time>2026-04-07T12:55:30.552Z</time></trkpt><trkpt lat="45.7449779" lon="11.7116137"><ele>97.80000000000001</ele><time>2026-04-07T12:55:31.555Z</time></trkpt><trkpt lat="45.7448724" lon="11.7115883"><ele>97.19999999999999</ele><time>2026-04-07T12:55:32.555Z</time></trkpt><trkpt lat="45.7447692" lon="11.7115614"><ele>96.6</ele><time>2026-04-07T12:55:33.557Z</time></trkpt><trkpt lat="45.7446615" lon="11.7115344"><ele>96.0</ele><time>2026-04-07T12:55:34.556Z</time></trkpt><trkpt lat="45.744549" lon="11.7115094"><ele>96.0</ele><time>2026-04-07T12:55:35.552Z</time></trkpt><trkpt lat="45.744431" lon="11.7114813"><ele>96.0</ele><time>2026-04-07T12:55:36.558Z</time></trkpt><trkpt lat="45.7443059" lon="11.7114499"><ele>96.0</ele><time>2026-04-07T12:55:37.555Z</time></trkpt><trkpt lat="45.7441614" lon="11.7114242"><ele>96.0</ele><time>2026-04-07T12:55:38.554Z</time></trkpt><trkpt lat="45.7440154" lon="11.7114172"><ele>96.0</ele><time>2026-04-07T12:55:39.549Z</time></trkpt><trkpt lat="45.7438583" lon="11.7114006"><ele>96.0</ele><time>2026-04-07T12:55:40.547Z</time></trkpt><trkpt lat="45.7437017" lon="11.7113671"><ele>96.0</ele><time>2026-04-07T12:55:41.551Z</time></trkpt><trkpt lat="45.7435685" lon="11.7113397"><ele>95.25</ele><time>2026-04-07T12:55:42.553Z</time></trkpt><trkpt lat="45.7434378" lon="11.711315"><ele>94.5</ele><time>2026-04-07T12:55:43.548Z</time></trkpt><trkpt lat="45.7433123" lon="11.7112928"><ele>93.75</ele><time>2026-04-07T12:55:44.552Z</time></trkpt><trkpt lat="45.7431715" lon="11.7112649"><ele>93.0</ele><time>2026-04-07T12:55:45.56Z</time></trkpt><trkpt lat="45.7430375" lon="11.7112232"><ele>93.0</ele><time>2026-04-07T12:55:46.553Z</time></trkpt><trkpt lat="45.7428807" lon="11.7111779"><ele>93.0</ele><time>2026-04-07T12:55:47.556Z</time></trkpt><trkpt lat="45.7427288" lon="11.7111417"><ele>93.0</ele><time>2026-04-07T12:55:48.575Z</time></trkpt><trkpt lat="45.7425503" lon="11.711097"><ele>93.33333333333333</ele><time>2026-04-07T12:55:49.573Z</time></trkpt><trkpt lat="45.7423872" lon="11.7110692"><ele>93.66666666666666</ele><time>2026-04-07T12:55:50.55Z</time></trkpt><trkpt lat="45.742215" lon="11.7110592"><ele>94.0</ele><time>2026-04-07T12:55:51.576Z</time></trkpt><trkpt lat="45.7420433" lon="11.7110476"><ele>93.66666666666666</ele><time>2026-04-07T12:55:52.574Z</time></trkpt><trkpt lat="45.7418765" lon="11.7110427"><ele>93.33333333333333</ele><time>2026-04-07T12:55:53.55Z</time></trkpt><trkpt lat="45.7417252" lon="11.7110381"><ele>93.0</ele><time>2026-04-07T12:55:54.552Z</time></trkpt><trkpt lat="45.7415829" lon="11.7110277"><ele>93.0</ele><time>2026-04-07T12:55:55.549Z</time></trkpt><trkpt lat="45.7414616" lon="11.7110208"><ele>93.0</ele><time>2026-04-07T12:55:56.552Z</time></trkpt><trkpt lat="45.7413382" lon="11.7110221"><ele>93.0</ele><time>2026-04-07T12:55:57.549Z</time></trkpt><trkpt lat="45.7412231" lon="11.7110512"><ele>93.0</ele><time>2026-04-07T12:55:58.551Z</time></trkpt><trkpt lat="45.7411161" lon="11.7110873"><ele>93.16666666666667</ele><time>2026-04-07T12:55:59.55Z</time></trkpt><trkpt lat="45.7410267" lon="11.7111045"><ele>93.33333333333333</ele><time>2026-04-07T12:56:00.55Z</time></trkpt><trkpt lat="45.740943" lon="11.7111561"><ele>93.5</ele><time>2026-04-07T12:56:01.549Z</time></trkpt><trkpt lat="45.7408561" lon="11.7111381"><ele>93.66666666666666</ele><time>2026-04-07T12:56:02.545Z</time></trkpt><trkpt lat="45.7407996" lon="11.7110952"><ele>93.83333333333333</ele><time>2026-04-07T12:56:03.547Z</time></trkpt><trkpt lat="45.7407491" lon="11.7110372"><ele>94.0</ele><time>2026-04-07T12:56:04.551Z</time></trkpt><trkpt lat="45.7406906" lon="11.7109497"><ele>94.2</ele><time>2026-04-07T12:56:05.569Z</time></trkpt><trkpt lat="45.7406327" lon="11.7108323"><ele>94.4</ele><time>2026-04-07T12:56:06.575Z</time></trkpt><trkpt lat="45.7405741" lon="11.7107033"><ele>94.6</ele><time>2026-04-07T12:56:07.549Z</time></trkpt><trkpt lat="45.74051" lon="11.7105678"><ele>94.8</ele><time>2026-04-07T12:56:08.55Z</time></trkpt><trkpt lat="45.7404424" lon="11.7104287"><ele>95.0</ele><time>2026-04-07T12:56:09.546Z</time></trkpt><trkpt lat="45.7403703" lon="11.7102813"><ele>95.0</ele><time>2026-04-07T12:56:10.548Z</time></trkpt><trkpt lat="45.7402847" lon="11.710134"><ele>95.0</ele><time>2026-04-07T12:56:11.55Z</time></trkpt><trkpt lat="45.7401965" lon="11.7099931"><ele>95.0</ele><time>2026-04-07T12:56:12.554Z</time></trkpt><trkpt lat="45.7401226" lon="11.7098366"><ele>95.0</ele><time>2026-04-07T12:56:13.552Z</time></trkpt><trkpt lat="45.7400358" lon="11.709683"><ele>95.0</ele><time>2026-04-07T12:56:14.552Z</time></trkpt><trkpt lat="45.7399357" lon="11.709514"><ele>95.0</ele><time>2026-04-07T12:56:15.558Z</time></trkpt><trkpt lat="45.7398186" lon="11.7093162"><ele>95.0</ele><time>2026-04-07T12:56:16.551Z</time></trkpt><trkpt lat="45.7396974" lon="11.7091483"><ele>94.66666666666667</ele><time>2026-04-07T12:56:17.555Z</time></trkpt><trkpt lat="45.7395823" lon="11.7089946"><ele>94.33333333333333</ele><time>2026-04-07T12:56:18.552Z</time></trkpt><trkpt lat="45.7394749" lon="11.7088132"><ele>94.0</ele><time>2026-04-07T12:56:19.556Z</time></trkpt><trkpt lat="45.7393557" lon="11.7086488"><ele>92.66666666666666</ele><time>2026-04-07T12:56:20.554Z</time></trkpt><trkpt lat="45.7392404" lon="11.7084963"><ele>91.33333333333333</ele><time>2026-04-07T12:56:21.558Z</time></trkpt><trkpt lat="45.7390985" lon="11.7083437"><ele>90.0</ele><time>2026-04-07T12:56:22.559Z</time></trkpt><trkpt lat="45.738951" lon="11.7081792"><ele>90.0</ele><time>2026-04-07T12:56:23.557Z</time></trkpt><trkpt lat="45.7388077" lon="11.708022"><ele>90.0</ele><time>2026-04-07T12:56:24.553Z</time></trkpt><trkpt lat="45.7386516" lon="11.7078917"><ele>90.0</ele><time>2026-04-07T12:56:25.543Z</time></trkpt><trkpt lat="45.7385034" lon="11.7077856"><ele>90.5</ele><time>2026-04-07T12:56:26.547Z</time></trkpt><trkpt lat="45.7383562" lon="11.7077082"><ele>91.0</ele><time>2026-04-07T12:56:27.546Z</time></trkpt><trkpt lat="45.7382253" lon="11.7076636"><ele>91.5</ele><time>2026-04-07T12:56:28.548Z</time></trkpt><trkpt lat="45.7381015" lon="11.7076263"><ele>92.0</ele><time>2026-04-07T12:56:29.55Z</time></trkpt><trkpt lat="45.737984" lon="11.7076118"><ele>92.0</ele><time>2026-04-07T12:56:30.543Z</time></trkpt><trkpt lat="45.7378741" lon="11.7076239"><ele>92.0</ele><time>2026-04-07T12:56:31.564Z</time></trkpt><trkpt lat="45.7377873" lon="11.7076029"><ele>92.0</ele><time>2026-04-07T12:56:32.536Z</time></trkpt><trkpt lat="45.7376248" lon="11.7075707"><ele>92.0</ele><time>2026-04-07T12:56:33.537Z</time></trkpt><trkpt lat="45.7375554" lon="11.7075375"><ele>92.0</ele><time>2026-04-07T12:56:34.542Z</time></trkpt><trkpt lat="45.7374945" lon="11.7073867"><ele>92.16666666666667</ele><time>2026-04-07T12:56:36.535Z</time></trkpt><trkpt lat="45.737454" lon="11.7072988"><ele>92.33333333333334</ele><time>2026-04-07T12:56:38.544Z</time></trkpt><trkpt lat="45.7373862" lon="11.7072846"><ele>92.5</ele><time>2026-04-07T12:56:40.543Z</time></trkpt><trkpt lat="45.7372712" lon="11.7073037"><ele>92.66666666666667</ele><time>2026-04-07T12:56:42.541Z</time></trkpt><trkpt lat="45.7371893" lon="11.7073159"><ele>92.83333333333333</ele><time>2026-04-07T12:56:43.54Z</time></trkpt><trkpt lat="45.737094" lon="11.707315"><ele>93.0</ele><time>2026-04-07T12:56:44.531Z</time></trkpt><trkpt lat="45.7369926" lon="11.7072796"><ele>93.0</ele><time>2026-04-07T12:56:45.541Z</time></trkpt><trkpt lat="45.7369038" lon="11.7072228"><ele>93.0</ele><time>2026-04-07T12:56:46.544Z</time></trkpt><trkpt lat="45.736793" lon="11.7071551"><ele>93.0</ele><time>2026-04-07T12:56:47.536Z</time></trkpt><trkpt lat="45.7366751" lon="11.7070921"><ele>93.0</ele><time>2026-04-07T12:56:48.548Z</time></trkpt><trkpt lat="45.7365486" lon="11.7070335"><ele>93.0</ele><time>2026-04-07T12:56:49.541Z</time></trkpt><trkpt lat="45.7364242" lon="11.7069652"><ele>93.0</ele><time>2026-04-07T12:56:50.572Z</time></trkpt><trkpt lat="45.7362861" lon="11.7068897"><ele>93.0</ele><time>2026-04-07T12:56:51.545Z</time></trkpt><trkpt lat="45.7361332" lon="11.7068234"><ele>93.0</ele><time>2026-04-07T12:56:52.551Z</time></trkpt><trkpt lat="45.7359605" lon="11.706774"><ele>91.33333333333333</ele><time>2026-04-07T12:56:53.551Z</time></trkpt><trkpt lat="45.7357781" lon="11.7067385"><ele>89.66666666666666</ele><time>2026-04-07T12:56:54.546Z</time></trkpt><trkpt lat="45.7356106" lon="11.706703"><ele>88.0</ele><time>2026-04-07T12:56:55.548Z</time></trkpt><trkpt lat="45.7354344" lon="11.7066801"><ele>88.0</ele><time>2026-04-07T12:56:56.55Z</time></trkpt><trkpt lat="45.7352549" lon="11.7066449"><ele>88.0</ele><time>2026-04-07T12:56:57.55Z</time></trkpt><trkpt lat="45.7350652" lon="11.7066102"><ele>88.0</ele><time>2026-04-07T12:56:58.554Z</time></trkpt><trkpt lat="45.7348697" lon="11.706559"><ele>88.0</ele><time>2026-04-07T12:56:59.555Z</time></trkpt><trkpt lat="45.7346994" lon="11.7064989"><ele>88.0</ele><time>2026-04-07T12:57:00.544Z</time></trkpt><trkpt lat="45.7343349" lon="11.7063711"><ele>88.0</ele><time>2026-04-07T12:57:02.546Z</time></trkpt><trkpt lat="45.7341554" lon="11.7063131"><ele>88.0</ele><time>2026-04-07T12:57:03.553Z</time></trkpt><trkpt lat="45.7340029" lon="11.7062235"><ele>88.0</ele><time>2026-04-07T12:57:04.547Z</time></trkpt><trkpt lat="45.7338706" lon="11.7061203"><ele>87.5</ele><time>2026-04-07T12:57:05.546Z</time></trkpt><trkpt lat="45.7337355" lon="11.7059882"><ele>87.0</ele><time>2026-04-07T12:57:06.554Z</time></trkpt><trkpt lat="45.7336119" lon="11.705901"><ele>86.5</ele><time>2026-04-07T12:57:07.548Z</time></trkpt><trkpt lat="45.7335034" lon="11.705781"><ele>86.0</ele><time>2026-04-07T12:57:08.567Z</time></trkpt><trkpt lat="45.7333855" lon="11.7056536"><ele>86.0</ele><time>2026-04-07T12:57:09.55Z</time></trkpt><trkpt lat="45.7332837" lon="11.7055413"><ele>86.0</ele><time>2026-04-07T12:57:10.551Z</time></trkpt><trkpt lat="45.7332074" lon="11.7054149"><ele>86.0</ele><time>2026-04-07T12:57:11.566Z</time></trkpt><trkpt lat="45.733136" lon="11.7052839"><ele>86.0</ele><time>2026-04-07T12:57:12.555Z</time></trkpt><trkpt lat="45.7330641" lon="11.7051452"><ele>86.25</ele><time>2026-04-07T12:57:13.544Z</time></trkpt><trkpt lat="45.7329966" lon="11.7049861"><ele>86.5</ele><time>2026-04-07T12:57:14.553Z</time></trkpt><trkpt lat="45.732924" lon="11.7048037"><ele>86.75</ele><time>2026-04-07T12:57:15.55Z</time></trkpt><trkpt lat="45.7328364" lon="11.7046183"><ele>87.0</ele><time>2026-04-07T12:57:16.551Z</time></trkpt><trkpt lat="45.7327425" lon="11.7043832"><ele>87.66666666666667</ele><time>2026-04-07T12:57:17.55Z</time></trkpt><trkpt lat="45.7326122" lon="11.7041781"><ele>88.33333333333334</ele><time>2026-04-07T12:57:18.543Z</time></trkpt><trkpt lat="45.7324812" lon="11.7039701"><ele>89.0</ele><time>2026-04-07T12:57:19.553Z</time></trkpt><trkpt lat="45.7323526" lon="11.7037679"><ele>88.66666666666667</ele><time>2026-04-07T12:57:20.55Z</time></trkpt><trkpt lat="45.7322225" lon="11.7035611"><ele>88.33333333333333</ele><time>2026-04-07T12:57:21.546Z</time></trkpt><trkpt lat="45.7320699" lon="11.703366"><ele>88.0</ele><time>2026-04-07T12:57:22.546Z</time></trkpt><trkpt lat="45.7319125" lon="11.7031344"><ele>88.33333333333333</ele><time>2026-04-07T12:57:23.547Z</time></trkpt><trkpt lat="45.731776" lon="11.7029108"><ele>88.66666666666667</ele><time>2026-04-07T12:57:24.54Z</time></trkpt><trkpt lat="45.7316562" lon="11.7027557"><ele>89.0</ele><time>2026-04-07T12:57:25.551Z</time></trkpt><trkpt lat="45.7314577" lon="11.7026514"><ele>89.0</ele><time>2026-04-07T12:57:26.548Z</time></trkpt><trkpt lat="45.731305" lon="11.7025147"><ele>89.0</ele><time>2026-04-07T12:57:27.547Z</time></trkpt><trkpt lat="45.7311469" lon="11.7023689"><ele>89.0</ele><time>2026-04-07T12:57:28.545Z</time></trkpt><trkpt lat="45.7309674" lon="11.7022525"><ele>89.33333333333334</ele><time>2026-04-07T12:57:29.545Z</time></trkpt><trkpt lat="45.7307602" lon="11.7021637"><ele>89.66666666666667</ele><time>2026-04-07T12:57:30.549Z</time></trkpt><trkpt lat="45.730579" lon="11.7020637"><ele>90.0</ele><time>2026-04-07T12:57:31.543Z</time></trkpt><trkpt lat="45.7304088" lon="11.7019848"><ele>90.0</ele><time>2026-04-07T12:57:32.576Z</time></trkpt><trkpt lat="45.7302571" lon="11.701931"><ele>90.0</ele><time>2026-04-07T12:57:33.547Z</time></trkpt><trkpt lat="45.7301197" lon="11.7018968"><ele>90.0</ele><time>2026-04-07T12:57:34.543Z</time></trkpt><trkpt lat="45.7299937" lon="11.70184"><ele>90.0</ele><time>2026-04-07T12:57:35.553Z</time></trkpt><trkpt lat="45.729856" lon="11.7017696"><ele>89.5</ele><time>2026-04-07T12:57:36.555Z</time></trkpt><trkpt lat="45.7297133" lon="11.7017179"><ele>89.0</ele><time>2026-04-07T12:57:37.552Z</time></trkpt><trkpt lat="45.7295695" lon="11.7016606"><ele>88.5</ele><time>2026-04-07T12:57:38.548Z</time></trkpt><trkpt lat="45.7294513" lon="11.7016151"><ele>88.0</ele><time>2026-04-07T12:57:39.573Z</time></trkpt><trkpt lat="45.7293563" lon="11.7015766"><ele>88.0</ele><time>2026-04-07T12:57:40.548Z</time></trkpt><trkpt lat="45.729248" lon="11.7015287"><ele>88.0</ele><time>2026-04-07T12:57:41.552Z</time></trkpt><trkpt lat="45.7291351" lon="11.7014822"><ele>88.0</ele><time>2026-04-07T12:57:42.546Z</time></trkpt><trkpt lat="45.729049" lon="11.7014162"><ele>88.0</ele><time>2026-04-07T12:57:43.548Z</time></trkpt><trkpt lat="45.7289335" lon="11.7013328"><ele>88.0</ele><time>2026-04-07T12:57:44.548Z</time></trkpt><trkpt lat="45.7288389" lon="11.7012499"><ele>88.0</ele><time>2026-04-07T12:57:45.553Z</time></trkpt><trkpt lat="45.7287505" lon="11.7011582"><ele>88.0</ele><time>2026-04-07T12:57:46.55Z</time></trkpt><trkpt lat="45.728663" lon="11.7010682"><ele>88.0</ele><time>2026-04-07T12:57:47.547Z</time></trkpt><trkpt lat="45.7285873" lon="11.7009972"><ele>88.0</ele><time>2026-04-07T12:57:48.55Z</time></trkpt><trkpt lat="45.7285115" lon="11.7009322"><ele>88.16666666666666</ele><time>2026-04-07T12:57:49.554Z</time></trkpt><trkpt lat="45.7284459" lon="11.7008696"><ele>88.33333333333333</ele><time>2026-04-07T12:57:50.552Z</time></trkpt><trkpt lat="45.7283886" lon="11.7008029"><ele>88.5</ele><time>2026-04-07T12:57:51.546Z</time></trkpt><trkpt lat="45.7283253" lon="11.7007423"><ele>88.66666666666667</ele><time>2026-04-07T12:57:52.559Z</time></trkpt><trkpt lat="45.728245" lon="11.7006919"><ele>88.83333333333334</ele><time>2026-04-07T12:57:53.548Z</time></trkpt><trkpt lat="45.7281564" lon="11.7006659"><ele>89.0</ele><time>2026-04-07T12:57:54.565Z</time></trkpt><trkpt lat="45.7280584" lon="11.7006602"><ele>89.0</ele><time>2026-04-07T12:57:55.553Z</time></trkpt><trkpt lat="45.7279491" lon="11.7006724"><ele>89.0</ele><time>2026-04-07T12:57:56.546Z</time></trkpt><trkpt lat="45.7278241" lon="11.7007103"><ele>89.0</ele><time>2026-04-07T12:57:57.549Z</time></trkpt><trkpt lat="45.7276843" lon="11.7007437"><ele>89.0</ele><time>2026-04-07T12:57:58.546Z</time></trkpt><trkpt lat="45.7274993" lon="11.7007993"><ele>88.66666666666667</ele><time>2026-04-07T12:57:59.551Z</time></trkpt><trkpt lat="45.7272827" lon="11.7008335"><ele>88.33333333333333</ele><time>2026-04-07T12:58:00.548Z</time></trkpt><trkpt lat="45.7270734" lon="11.7008279"><ele>88.0</ele><time>2026-04-07T12:58:01.571Z</time></trkpt><trkpt lat="45.7268791" lon="11.7007828"><ele>87.66666666666666</ele><time>2026-04-07T12:58:02.545Z</time></trkpt><trkpt lat="45.7267225" lon="11.7007216"><ele>87.33333333333333</ele><time>2026-04-07T12:58:03.543Z</time></trkpt><trkpt lat="45.7265668" lon="11.7006569"><ele>87.0</ele><time>2026-04-07T12:58:04.549Z</time></trkpt><trkpt lat="45.7264209" lon="11.7005825"><ele>87.0</ele><time>2026-04-07T12:58:05.539Z</time></trkpt><trkpt lat="45.7262851" lon="11.7005065"><ele>87.0</ele><time>2026-04-07T12:58:06.547Z</time></trkpt><trkpt lat="45.7261947" lon="11.7004751"><ele>87.0</ele><time>2026-04-07T12:58:07.536Z</time></trkpt><trkpt lat="45.7260973" lon="11.7004366"><ele>87.0</ele><time>2026-04-07T12:58:08.54Z</time></trkpt><trkpt lat="45.7260952" lon="11.7003435"><ele>87.0</ele><time>2026-04-07T12:58:27.542Z</time></trkpt><trkpt lat="45.7259951" lon="11.700303"><ele>87.66666666666667</ele><time>2026-04-07T12:58:29.712Z</time></trkpt><trkpt lat="45.7258997" lon="11.7002471"><ele>88.33333333333334</ele><time>2026-04-07T12:58:30.704Z</time></trkpt><trkpt lat="45.7256729" lon="11.700095"><ele>89.0</ele><time>2026-04-07T12:58:32.628Z</time></trkpt><trkpt lat="45.7255387" lon="11.7000067"><ele>89.0</ele><time>2026-04-07T12:58:33.618Z</time></trkpt><trkpt lat="45.7254057" lon="11.6999165"><ele>89.0</ele><time>2026-04-07T12:58:34.57Z</time></trkpt><trkpt lat="45.7252731" lon="11.6998221"><ele>89.0</ele><time>2026-04-07T12:58:35.553Z</time></trkpt><trkpt lat="45.7251349" lon="11.6997302"><ele>89.0</ele><time>2026-04-07T12:58:36.555Z</time></trkpt><trkpt lat="45.7249929" lon="11.6996283"><ele>89.33333333333334</ele><time>2026-04-07T12:58:37.547Z</time></trkpt><trkpt lat="45.7248442" lon="11.6995158"><ele>89.66666666666667</ele><time>2026-04-07T12:58:38.553Z</time></trkpt><trkpt lat="45.7246891" lon="11.6994121"><ele>90.0</ele><time>2026-04-07T12:58:39.553Z</time></trkpt><trkpt lat="45.724529" lon="11.6992981"><ele>89.66666666666667</ele><time>2026-04-07T12:58:40.554Z</time></trkpt><trkpt lat="45.7243825" lon="11.699186"><ele>89.33333333333334</ele><time>2026-04-07T12:58:41.549Z</time></trkpt><trkpt lat="45.7242379" lon="11.6991002"><ele>89.0</ele><time>2026-04-07T12:58:42.555Z</time></trkpt><trkpt lat="45.7240939" lon="11.6990138"><ele>89.0</ele><time>2026-04-07T12:58:43.553Z</time></trkpt><trkpt lat="45.723948" lon="11.6989132"><ele>89.0</ele><time>2026-04-07T12:58:44.556Z</time></trkpt><trkpt lat="45.7238007" lon="11.6987993"><ele>89.0</ele><time>2026-04-07T12:58:45.549Z</time></trkpt><trkpt lat="45.723651" lon="11.6986869"><ele>88.33333333333334</ele><time>2026-04-07T12:58:46.555Z</time></trkpt><trkpt lat="45.7235032" lon="11.6985542"><ele>87.66666666666667</ele><time>2026-04-07T12:58:47.555Z</time></trkpt><trkpt lat="45.7233308" lon="11.6984518"><ele>87.0</ele><time>2026-04-07T12:58:48.549Z</time></trkpt><trkpt lat="45.7231759" lon="11.6983673"><ele>87.0</ele><time>2026-04-07T12:58:49.547Z</time></trkpt><trkpt lat="45.7230259" lon="11.6982932"><ele>87.0</ele><time>2026-04-07T12:58:50.551Z</time></trkpt><trkpt lat="45.7229026" lon="11.6981977"><ele>87.0</ele><time>2026-04-07T12:58:51.548Z</time></trkpt><trkpt lat="45.7227932" lon="11.698081"><ele>87.0</ele><time>2026-04-07T12:58:52.549Z</time></trkpt><trkpt lat="45.7226887" lon="11.697974"><ele>87.33333333333333</ele><time>2026-04-07T12:58:53.548Z</time></trkpt><trkpt lat="45.7226064" lon="11.6978911"><ele>87.66666666666667</ele><time>2026-04-07T12:58:54.55Z</time></trkpt><trkpt lat="45.7225176" lon="11.6978443"><ele>88.0</ele><time>2026-04-07T12:58:55.555Z</time></trkpt><trkpt lat="45.7224303" lon="11.6977711"><ele>88.33333333333334</ele><time>2026-04-07T12:58:56.556Z</time></trkpt><trkpt lat="45.7223748" lon="11.697705"><ele>88.66666666666667</ele><time>2026-04-07T12:58:57.557Z</time></trkpt><trkpt lat="45.7223334" lon="11.6976118"><ele>89.0</ele><time>2026-04-07T12:58:58.553Z</time></trkpt><trkpt lat="45.7222814" lon="11.6975442"><ele>89.0</ele><time>2026-04-07T12:58:59.559Z</time></trkpt><trkpt lat="45.7222" lon="11.6975036"><ele>89.0</ele><time>2026-04-07T12:59:00.55Z</time></trkpt><trkpt lat="45.7220935" lon="11.6975016"><ele>89.0</ele><time>2026-04-07T12:59:01.549Z</time></trkpt><trkpt lat="45.7219743" lon="11.6975169"><ele>89.0</ele><time>2026-04-07T12:59:02.549Z</time></trkpt><trkpt lat="45.7218456" lon="11.6975354"><ele>89.0</ele><time>2026-04-07T12:59:03.548Z</time></trkpt><trkpt lat="45.7217154" lon="11.6975302"><ele>88.66666666666667</ele><time>2026-04-07T12:59:04.547Z</time></trkpt><trkpt lat="45.7215815" lon="11.697501"><ele>88.33333333333333</ele><time>2026-04-07T12:59:05.564Z</time></trkpt><trkpt lat="45.7214357" lon="11.69746"><ele>88.0</ele><time>2026-04-07T12:59:06.567Z</time></trkpt><trkpt lat="45.7212564" lon="11.6974006"><ele>88.0</ele><time>2026-04-07T12:59:07.569Z</time></trkpt><trkpt lat="45.7211122" lon="11.6972923"><ele>88.0</ele><time>2026-04-07T12:59:08.545Z</time></trkpt><trkpt lat="45.7209554" lon="11.6972257"><ele>88.0</ele><time>2026-04-07T12:59:09.549Z</time></trkpt><trkpt lat="45.7207949" lon="11.6971413"><ele>88.0</ele><time>2026-04-07T12:59:10.546Z</time></trkpt><trkpt lat="45.7206436" lon="11.6970287"><ele>88.0</ele><time>2026-04-07T12:59:11.542Z</time></trkpt><trkpt lat="45.7204841" lon="11.6968646"><ele>88.0</ele><time>2026-04-07T12:59:12.552Z</time></trkpt><trkpt lat="45.7202894" lon="11.6967306"><ele>87.66666666666666</ele><time>2026-04-07T12:59:13.576Z</time></trkpt><trkpt lat="45.7201458" lon="11.6965567"><ele>87.33333333333333</ele><time>2026-04-07T12:59:14.551Z</time></trkpt><trkpt lat="45.7200114" lon="11.6964188"><ele>87.0</ele><time>2026-04-07T12:59:15.551Z</time></trkpt><trkpt lat="45.7198849" lon="11.6962492"><ele>87.0</ele><time>2026-04-07T12:59:16.55Z</time></trkpt><trkpt lat="45.7197509" lon="11.6961055"><ele>87.0</ele><time>2026-04-07T12:59:17.555Z</time></trkpt><trkpt lat="45.7196371" lon="11.6959279"><ele>87.0</ele><time>2026-04-07T12:59:18.552Z</time></trkpt><trkpt lat="45.7195209" lon="11.6957678"><ele>87.0</ele><time>2026-04-07T12:59:19.556Z</time></trkpt><trkpt lat="45.7193989" lon="11.6956623"><ele>87.0</ele><time>2026-04-07T12:59:20.554Z</time></trkpt><trkpt lat="45.7192923" lon="11.695553"><ele>87.0</ele><time>2026-04-07T12:59:21.555Z</time></trkpt><trkpt lat="45.7191923" lon="11.695442"><ele>87.0</ele><time>2026-04-07T12:59:22.563Z</time></trkpt><trkpt lat="45.719075" lon="11.6953462"><ele>87.0</ele><time>2026-04-07T12:59:23.557Z</time></trkpt><trkpt lat="45.7189302" lon="11.6953096"><ele>87.0</ele><time>2026-04-07T12:59:24.574Z</time></trkpt><trkpt lat="45.7187615" lon="11.6952798"><ele>87.0</ele><time>2026-04-07T12:59:25.547Z</time></trkpt><trkpt lat="45.71858" lon="11.695269"><ele>86.33333333333333</ele><time>2026-04-07T12:59:26.55Z</time></trkpt><trkpt lat="45.7183926" lon="11.695251"><ele>85.66666666666666</ele><time>2026-04-07T12:59:27.554Z</time></trkpt><trkpt lat="45.7182171" lon="11.6952117"><ele>85.0</ele><time>2026-04-07T12:59:28.555Z</time></trkpt><trkpt lat="45.7180539" lon="11.6951856"><ele>85.0</ele><time>2026-04-07T12:59:29.552Z</time></trkpt><trkpt lat="45.7179015" lon="11.6951619"><ele>85.0</ele><time>2026-04-07T12:59:30.548Z</time></trkpt><trkpt lat="45.7177371" lon="11.6951333"><ele>85.0</ele><time>2026-04-07T12:59:31.556Z</time></trkpt><trkpt lat="45.717585" lon="11.6951167"><ele>85.66666666666666</ele><time>2026-04-07T12:59:32.552Z</time></trkpt><trkpt lat="45.7174387" lon="11.6950959"><ele>86.33333333333333</ele><time>2026-04-07T12:59:33.558Z</time></trkpt><trkpt lat="45.7172759" lon="11.6951098"><ele>87.0</ele><time>2026-04-07T12:59:34.552Z</time></trkpt><trkpt lat="45.7171063" lon="11.6950909"><ele>87.0</ele><time>2026-04-07T12:59:35.549Z</time></trkpt><trkpt lat="45.7169647" lon="11.6950861"><ele>87.0</ele><time>2026-04-07T12:59:36.558Z</time></trkpt><trkpt lat="45.7168331" lon="11.6950689"><ele>87.0</ele><time>2026-04-07T12:59:37.55Z</time></trkpt><trkpt lat="45.7166923" lon="11.6950472"><ele>87.0</ele><time>2026-04-07T12:59:38.548Z</time></trkpt><trkpt lat="45.716557" lon="11.6950247"><ele>87.0</ele><time>2026-04-07T12:59:39.556Z</time></trkpt><trkpt lat="45.7164089" lon="11.6950091"><ele>87.0</ele><time>2026-04-07T12:59:40.546Z</time></trkpt><trkpt lat="45.7162696" lon="11.6949884"><ele>87.0</ele><time>2026-04-07T12:59:41.557Z</time></trkpt><trkpt lat="45.7161373" lon="11.6949559"><ele>87.0</ele><time>2026-04-07T12:59:42.551Z</time></trkpt><trkpt lat="45.7159891" lon="11.6949126"><ele>86.8</ele><time>2026-04-07T12:59:43.544Z</time></trkpt><trkpt lat="45.7158528" lon="11.6948539"><ele>86.6</ele><time>2026-04-07T12:59:44.556Z</time></trkpt><trkpt lat="45.71575" lon="11.6947776"><ele>86.39999999999999</ele><time>2026-04-07T12:59:45.544Z</time></trkpt><trkpt lat="45.7156688" lon="11.6947294"><ele>86.19999999999999</ele><time>2026-04-07T12:59:46.546Z</time></trkpt><trkpt lat="45.715588" lon="11.6946904"><ele>86.0</ele><time>2026-04-07T12:59:47.553Z</time></trkpt><trkpt lat="45.7155232" lon="11.6946545"><ele>86.0</ele><time>2026-04-07T12:59:48.548Z</time></trkpt><trkpt lat="45.7154095" lon="11.694633"><ele>86.0</ele><time>2026-04-07T12:59:50.551Z</time></trkpt><trkpt lat="45.7153133" lon="11.6946254"><ele>86.0</ele><time>2026-04-07T12:59:52.547Z</time></trkpt><trkpt lat="45.7152315" lon="11.6945965"><ele>86.0</ele><time>2026-04-07T12:59:54.549Z</time></trkpt><trkpt lat="45.7151534" lon="11.6945513"><ele>86.0</ele><time>2026-04-07T12:59:56.547Z</time></trkpt><trkpt lat="45.715061" lon="11.6946444"><ele>86.19999999999999</ele><time>2026-04-07T12:59:58.553Z</time></trkpt><trkpt lat="45.7149981" lon="11.6947099"><ele>86.39999999999999</ele><time>2026-04-07T12:59:59.54Z</time></trkpt><trkpt lat="45.7149169" lon="11.69475"><ele>86.6</ele><time>2026-04-07T13:00:00.547Z</time></trkpt><trkpt lat="45.7148208" lon="11.6947867"><ele>86.8</ele><time>2026-04-07T13:00:01.539Z</time></trkpt><trkpt lat="45.7146887" lon="11.6948022"><ele>87.0</ele><time>2026-04-07T13:00:02.541Z</time></trkpt><trkpt lat="45.7145503" lon="11.6948093"><ele>86.66666666666667</ele><time>2026-04-07T13:00:03.543Z</time></trkpt><trkpt lat="45.7143911" lon="11.6947935"><ele>86.33333333333334</ele><time>2026-04-07T13:00:04.548Z</time></trkpt><trkpt lat="45.7141997" lon="11.6947872"><ele>86.0</ele><time>2026-04-07T13:00:05.541Z</time></trkpt><trkpt lat="45.7139697" lon="11.6947819"><ele>86.0</ele><time>2026-04-07T13:00:06.549Z</time></trkpt><trkpt lat="45.7137986" lon="11.694761"><ele>86.0</ele><time>2026-04-07T13:00:07.55Z</time></trkpt><trkpt lat="45.7136545" lon="11.6947516"><ele>86.0</ele><time>2026-04-07T13:00:08.548Z</time></trkpt><trkpt lat="45.7135143" lon="11.6947364"><ele>85.75</ele><time>2026-04-07T13:00:09.544Z</time></trkpt><trkpt lat="45.7133962" lon="11.6947448"><ele>85.5</ele><time>2026-04-07T13:00:10.542Z</time></trkpt><trkpt lat="45.7132764" lon="11.6947286"><ele>85.25</ele><time>2026-04-07T13:00:11.551Z</time></trkpt><trkpt lat="45.7131786" lon="11.6946862"><ele>85.0</ele><time>2026-04-07T13:00:12.544Z</time></trkpt><trkpt lat="45.7130718" lon="11.6946174"><ele>85.0</ele><time>2026-04-07T13:00:17.698Z</time></trkpt><trkpt lat="45.713083" lon="11.6945216"><ele>85.0</ele><time>2026-04-07T13:00:18.71Z</time></trkpt><trkpt lat="45.7130319" lon="11.6942985"><ele>85.0</ele><time>2026-04-07T13:00:20.545Z</time></trkpt><trkpt lat="45.7130077" lon="11.6941668"><ele>85.0</ele><time>2026-04-07T13:00:21.544Z</time></trkpt><trkpt lat="45.7129919" lon="11.6940418"><ele>85.0</ele><time>2026-04-07T13:00:22.542Z</time></trkpt><trkpt lat="45.7129613" lon="11.6939469"><ele>85.0</ele><time>2026-04-07T13:00:23.545Z</time></trkpt><trkpt lat="45.7129165" lon="11.6938649"><ele>85.0</ele><time>2026-04-07T13:00:24.542Z</time></trkpt><trkpt lat="45.7128343" lon="11.6938083"><ele>85.0</ele><time>2026-04-07T13:00:25.565Z</time></trkpt><trkpt lat="45.7127307" lon="11.6937519"><ele>85.0</ele><time>2026-04-07T13:00:26.538Z</time></trkpt><trkpt lat="45.7126138" lon="11.6936886"><ele>85.0</ele><time>2026-04-07T13:00:27.54Z</time></trkpt><trkpt lat="45.7124813" lon="11.6936359"><ele>84.66666666666666</ele><time>2026-04-07T13:00:28.544Z</time></trkpt><trkpt lat="45.7123314" lon="11.6936061"><ele>84.33333333333333</ele><time>2026-04-07T13:00:29.54Z</time></trkpt><trkpt lat="45.712176" lon="11.6936081"><ele>84.0</ele><time>2026-04-07T13:00:30.538Z</time></trkpt><trkpt lat="45.7119947" lon="11.6936598"><ele>84.33333333333333</ele><time>2026-04-07T13:00:31.565Z</time></trkpt><trkpt lat="45.7117999" lon="11.6937055"><ele>84.66666666666666</ele><time>2026-04-07T13:00:32.541Z</time></trkpt><trkpt lat="45.7116229" lon="11.69375"><ele>85.0</ele><time>2026-04-07T13:00:33.54Z</time></trkpt><trkpt lat="45.7114621" lon="11.6938161"><ele>85.0</ele><time>2026-04-07T13:00:34.547Z</time></trkpt><trkpt lat="45.7113102" lon="11.6938796"><ele>85.0</ele><time>2026-04-07T13:00:35.541Z</time></trkpt><trkpt lat="45.7111659" lon="11.6939261"><ele>85.0</ele><time>2026-04-07T13:00:36.549Z</time></trkpt><trkpt lat="45.7110191" lon="11.6939533"><ele>84.25</ele><time>2026-04-07T13:00:37.542Z</time></trkpt><trkpt lat="45.7108822" lon="11.6940149"><ele>83.5</ele><time>2026-04-07T13:00:38.568Z</time></trkpt><trkpt lat="45.7107433" lon="11.6940792"><ele>82.75</ele><time>2026-04-07T13:00:39.546Z</time></trkpt><trkpt lat="45.710622" lon="11.694126"><ele>82.0</ele><time>2026-04-07T13:00:40.548Z</time></trkpt><trkpt lat="45.7104965" lon="11.6941689"><ele>82.0</ele><time>2026-04-07T13:00:41.549Z</time></trkpt><trkpt lat="45.7103718" lon="11.6941784"><ele>82.0</ele><time>2026-04-07T13:00:42.544Z</time></trkpt><trkpt lat="45.7102275" lon="11.6941618"><ele>82.0</ele><time>2026-04-07T13:00:43.567Z</time></trkpt><trkpt lat="45.710071" lon="11.694136"><ele>82.0</ele><time>2026-04-07T13:00:44.571Z</time></trkpt><trkpt lat="45.7099352" lon="11.6940866"><ele>81.66666666666666</ele><time>2026-04-07T13:00:45.548Z</time></trkpt><trkpt lat="45.709792" lon="11.6940567"><ele>81.33333333333333</ele><time>2026-04-07T13:00:46.545Z</time></trkpt><trkpt lat="45.7096299" lon="11.6940412"><ele>81.0</ele><time>2026-04-07T13:00:47.569Z</time></trkpt><trkpt lat="45.7094647" lon="11.6940074"><ele>81.0</ele><time>2026-04-07T13:00:48.564Z</time></trkpt><trkpt lat="45.7092783" lon="11.6940156"><ele>81.0</ele><time>2026-04-07T13:00:49.547Z</time></trkpt><trkpt lat="45.7091016" lon="11.6940231"><ele>81.0</ele><time>2026-04-07T13:00:50.539Z</time></trkpt><trkpt lat="45.7089194" lon="11.6940515"><ele>81.0</ele><time>2026-04-07T13:00:51.545Z</time></trkpt><trkpt lat="45.7087318" lon="11.6940666"><ele>81.0</ele><time>2026-04-07T13:00:52.541Z</time></trkpt><trkpt lat="45.7085491" lon="11.694112"><ele>81.0</ele><time>2026-04-07T13:00:53.541Z</time></trkpt><trkpt lat="45.7083934" lon="11.6941744"><ele>80.66666666666667</ele><time>2026-04-07T13:00:54.539Z</time></trkpt><trkpt lat="45.708226" lon="11.6942267"><ele>80.33333333333334</ele><time>2026-04-07T13:00:55.542Z</time></trkpt><trkpt lat="45.7080646" lon="11.6942164"><ele>80.0</ele><time>2026-04-07T13:00:56.547Z</time></trkpt><trkpt lat="45.7079102" lon="11.6942277"><ele>80.0</ele><time>2026-04-07T13:00:57.549Z</time></trkpt><trkpt lat="45.7077748" lon="11.6941958"><ele>80.0</ele><time>2026-04-07T13:00:58.545Z</time></trkpt><trkpt lat="45.7076572" lon="11.6941243"><ele>80.0</ele><time>2026-04-07T13:00:59.54Z</time></trkpt><trkpt lat="45.7075407" lon="11.6940299"><ele>80.0</ele><time>2026-04-07T13:01:00.544Z</time></trkpt><trkpt lat="45.7074217" lon="11.6939366"><ele>80.33333333333334</ele><time>2026-04-07T13:01:01.545Z</time></trkpt><trkpt lat="45.7072925" lon="11.6938224"><ele>80.66666666666667</ele><time>2026-04-07T13:01:02.545Z</time></trkpt><trkpt lat="45.7071418" lon="11.6936828"><ele>81.0</ele><time>2026-04-07T13:01:03.549Z</time></trkpt><trkpt lat="45.7070034" lon="11.6935789"><ele>81.0</ele><time>2026-04-07T13:01:04.57Z</time></trkpt><trkpt lat="45.7068602" lon="11.6935029"><ele>81.0</ele><time>2026-04-07T13:01:05.543Z</time></trkpt><trkpt lat="45.7067013" lon="11.6934324"><ele>81.0</ele><time>2026-04-07T13:01:06.552Z</time></trkpt><trkpt lat="45.7065232" lon="11.6933913"><ele>81.0</ele><time>2026-04-07T13:01:07.538Z</time></trkpt><trkpt lat="45.7063179" lon="11.693427"><ele>81.0</ele><time>2026-04-07T13:01:08.543Z</time></trkpt><trkpt lat="45.7061467" lon="11.6933735"><ele>81.0</ele><time>2026-04-07T13:01:09.548Z</time></trkpt><trkpt lat="45.7060112" lon="11.6933169"><ele>80.66666666666667</ele><time>2026-04-07T13:01:10.548Z</time></trkpt><trkpt lat="45.705884" lon="11.6933227"><ele>80.33333333333334</ele><time>2026-04-07T13:01:11.791Z</time></trkpt><trkpt lat="45.7056102" lon="11.6934886"><ele>80.0</ele><time>2026-04-07T13:01:13.593Z</time></trkpt><trkpt lat="45.7054599" lon="11.6936038"><ele>80.0</ele><time>2026-04-07T13:01:14.542Z</time></trkpt><trkpt lat="45.7053055" lon="11.6937265"><ele>80.0</ele><time>2026-04-07T13:01:15.545Z</time></trkpt><trkpt lat="45.7051595" lon="11.6938303"><ele>80.0</ele><time>2026-04-07T13:01:16.57Z</time></trkpt><trkpt lat="45.7050049" lon="11.6939035"><ele>80.0</ele><time>2026-04-07T13:01:17.545Z</time></trkpt><trkpt lat="45.7048474" lon="11.6939507"><ele>80.0</ele><time>2026-04-07T13:01:18.542Z</time></trkpt><trkpt lat="45.7047074" lon="11.6939969"><ele>80.0</ele><time>2026-04-07T13:01:19.548Z</time></trkpt><trkpt lat="45.7046058" lon="11.6940726"><ele>80.0</ele><time>2026-04-07T13:01:20.569Z</time></trkpt><trkpt lat="45.704481" lon="11.6941341"><ele>79.5</ele><time>2026-04-07T13:01:21.539Z</time></trkpt><trkpt lat="45.7043728" lon="11.6942173"><ele>79.0</ele><time>2026-04-07T13:01:22.543Z</time></trkpt><trkpt lat="45.7042628" lon="11.6943268"><ele>78.5</ele><time>2026-04-07T13:01:23.547Z</time></trkpt><trkpt lat="45.704138" lon="11.6944065"><ele>78.0</ele><time>2026-04-07T13:01:24.545Z</time></trkpt><trkpt lat="45.7039953" lon="11.6944792"><ele>78.0</ele><time>2026-04-07T13:01:25.543Z</time></trkpt><trkpt lat="45.7038422" lon="11.6945213"><ele>78.0</ele><time>2026-04-07T13:01:26.553Z</time></trkpt><trkpt lat="45.7036832" lon="11.6945799"><ele>78.0</ele><time>2026-04-07T13:01:27.537Z</time></trkpt><trkpt lat="45.7035373" lon="11.6946184"><ele>78.66666666666667</ele><time>2026-04-07T13:01:28.549Z</time></trkpt><trkpt lat="45.7033871" lon="11.6946385"><ele>79.33333333333334</ele><time>2026-04-07T13:01:29.549Z</time></trkpt><trkpt lat="45.7032516" lon="11.694659"><ele>80.0</ele><time>2026-04-07T13:01:30.567Z</time></trkpt><trkpt lat="45.7030868" lon="11.6946664"><ele>80.0</ele><time>2026-04-07T13:01:31.551Z</time></trkpt><trkpt lat="45.7029304" lon="11.6947255"><ele>80.0</ele><time>2026-04-07T13:01:32.567Z</time></trkpt><trkpt lat="45.7027716" lon="11.6947916"><ele>80.0</ele><time>2026-04-07T13:01:33.537Z</time></trkpt><trkpt lat="45.7026114" lon="11.6948991"><ele>79.33333333333334</ele><time>2026-04-07T13:01:34.546Z</time></trkpt><trkpt lat="45.7024652" lon="11.6949512"><ele>78.66666666666667</ele><time>2026-04-07T13:01:35.544Z</time></trkpt><trkpt lat="45.7023117" lon="11.6949922"><ele>78.0</ele><time>2026-04-07T13:01:36.543Z</time></trkpt><trkpt lat="45.7021663" lon="11.6950278"><ele>78.0</ele><time>2026-04-07T13:01:37.549Z</time></trkpt><trkpt lat="45.7020246" lon="11.6950816"><ele>78.0</ele><time>2026-04-07T13:01:38.542Z</time></trkpt><trkpt lat="45.7018821" lon="11.6951304"><ele>78.0</ele><time>2026-04-07T13:01:39.552Z</time></trkpt><trkpt lat="45.7017496" lon="11.6951839"><ele>78.0</ele><time>2026-04-07T13:01:40.55Z</time></trkpt><trkpt lat="45.7016209" lon="11.6952337"><ele>78.0</ele><time>2026-04-07T13:01:41.544Z</time></trkpt><trkpt lat="45.7014989" lon="11.6952863"><ele>78.0</ele><time>2026-04-07T13:01:42.548Z</time></trkpt><trkpt lat="45.701371" lon="11.6953411"><ele>78.0</ele><time>2026-04-07T13:01:43.545Z</time></trkpt><trkpt lat="45.7012588" lon="11.6953926"><ele>78.0</ele><time>2026-04-07T13:01:44.548Z</time></trkpt><trkpt lat="45.7011531" lon="11.6954281"><ele>78.25</ele><time>2026-04-07T13:01:45.548Z</time></trkpt><trkpt lat="45.7010414" lon="11.6954688"><ele>78.5</ele><time>2026-04-07T13:01:46.549Z</time></trkpt><trkpt lat="45.7009146" lon="11.6955306"><ele>78.75</ele><time>2026-04-07T13:01:47.545Z</time></trkpt><trkpt lat="45.7008014" lon="11.6955774"><ele>79.0</ele><time>2026-04-07T13:01:48.549Z</time></trkpt><trkpt lat="45.7006875" lon="11.6956274"><ele>79.0</ele><time>2026-04-07T13:01:49.55Z</time></trkpt><trkpt lat="45.7005671" lon="11.6956794"><ele>79.0</ele><time>2026-04-07T13:01:50.548Z</time></trkpt><trkpt lat="45.7004528" lon="11.6957269"><ele>79.0</ele><time>2026-04-07T13:01:51.573Z</time></trkpt><trkpt lat="45.7003423" lon="11.6957574"><ele>79.0</ele><time>2026-04-07T13:01:52.563Z</time></trkpt><trkpt lat="45.7002372" lon="11.6957975"><ele>78.75</ele><time>2026-04-07T13:01:53.544Z</time></trkpt><trkpt lat="45.7001245" lon="11.6958447"><ele>78.5</ele><time>2026-04-07T13:01:54.548Z</time></trkpt><trkpt lat="45.7000039" lon="11.6959001"><ele>78.25</ele><time>2026-04-07T13:01:55.552Z</time></trkpt><trkpt lat="45.6998759" lon="11.6959552"><ele>78.0</ele><time>2026-04-07T13:01:56.55Z</time></trkpt><trkpt lat="45.6997522" lon="11.6960022"><ele>78.0</ele><time>2026-04-07T13:01:57.552Z</time></trkpt><trkpt lat="45.6996384" lon="11.6960405"><ele>78.0</ele><time>2026-04-07T13:01:58.55Z</time></trkpt><trkpt lat="45.6995305" lon="11.6960763"><ele>78.0</ele><time>2026-04-07T13:01:59.547Z</time></trkpt><trkpt lat="45.6994211" lon="11.6961188"><ele>78.0</ele><time>2026-04-07T13:02:00.55Z</time></trkpt><trkpt lat="45.6993026" lon="11.6961575"><ele>77.75</ele><time>2026-04-07T13:02:01.548Z</time></trkpt><trkpt lat="45.6991723" lon="11.6961934"><ele>77.5</ele><time>2026-04-07T13:02:02.57Z</time></trkpt><trkpt lat="45.6990297" lon="11.696225"><ele>77.25</ele><time>2026-04-07T13:02:03.574Z</time></trkpt><trkpt lat="45.6988623" lon="11.6962576"><ele>77.0</ele><time>2026-04-07T13:02:04.557Z</time></trkpt><trkpt lat="45.6986953" lon="11.6962885"><ele>76.33333333333334</ele><time>2026-04-07T13:02:05.548Z</time></trkpt><trkpt lat="45.6985296" lon="11.6962977"><ele>75.66666666666667</ele><time>2026-04-07T13:02:06.572Z</time></trkpt><trkpt lat="45.6983515" lon="11.6963189"><ele>75.0</ele><time>2026-04-07T13:02:07.552Z</time></trkpt><trkpt lat="45.6981465" lon="11.6963465"><ele>75.0</ele><time>2026-04-07T13:02:08.576Z</time></trkpt><trkpt lat="45.697968" lon="11.6963547"><ele>75.0</ele><time>2026-04-07T13:02:09.55Z</time></trkpt><trkpt lat="45.6977783" lon="11.6963929"><ele>75.0</ele><time>2026-04-07T13:02:10.548Z</time></trkpt><trkpt lat="45.6976033" lon="11.6964343"><ele>75.66666666666667</ele><time>2026-04-07T13:02:11.545Z</time></trkpt><trkpt lat="45.6974314" lon="11.6964861"><ele>76.33333333333334</ele><time>2026-04-07T13:02:12.546Z</time></trkpt><trkpt lat="45.6972369" lon="11.6965612"><ele>77.0</ele><time>2026-04-07T13:02:13.546Z</time></trkpt><trkpt lat="45.6970403" lon="11.6966194"><ele>76.66666666666667</ele><time>2026-04-07T13:02:14.548Z</time></trkpt><trkpt lat="45.6968453" lon="11.6966729"><ele>76.33333333333333</ele><time>2026-04-07T13:02:15.549Z</time></trkpt><trkpt lat="45.6966297" lon="11.6967376"><ele>76.0</ele><time>2026-04-07T13:02:16.545Z</time></trkpt><trkpt lat="45.6964123" lon="11.6968282"><ele>76.0</ele><time>2026-04-07T13:02:17.545Z</time></trkpt><trkpt lat="45.696193" lon="11.6969055"><ele>76.0</ele><time>2026-04-07T13:02:18.553Z</time></trkpt><trkpt lat="45.6959735" lon="11.6969799"><ele>76.0</ele><time>2026-04-07T13:02:19.548Z</time></trkpt><trkpt lat="45.6957761" lon="11.6970717"><ele>76.0</ele><time>2026-04-07T13:02:20.548Z</time></trkpt><trkpt lat="45.6955982" lon="11.6971758"><ele>76.0</ele><time>2026-04-07T13:02:21.547Z</time></trkpt><trkpt lat="45.6954371" lon="11.6972326"><ele>76.0</ele><time>2026-04-07T13:02:22.552Z</time></trkpt><trkpt lat="45.6952586" lon="11.6973197"><ele>76.0</ele><time>2026-04-07T13:02:23.551Z</time></trkpt><trkpt lat="45.6950898" lon="11.6973898"><ele>76.0</ele><time>2026-04-07T13:02:24.545Z</time></trkpt><trkpt lat="45.6949166" lon="11.6974473"><ele>75.66666666666666</ele><time>2026-04-07T13:02:25.548Z</time></trkpt><trkpt lat="45.6947413" lon="11.6975295"><ele>75.33333333333333</ele><time>2026-04-07T13:02:26.553Z</time></trkpt><trkpt lat="45.6945557" lon="11.6976043"><ele>75.0</ele><time>2026-04-07T13:02:27.55Z</time></trkpt><trkpt lat="45.6943626" lon="11.6976767"><ele>74.33333333333333</ele><time>2026-04-07T13:02:28.546Z</time></trkpt><trkpt lat="45.694166" lon="11.6977601"><ele>73.66666666666666</ele><time>2026-04-07T13:02:29.545Z</time></trkpt><trkpt lat="45.6939542" lon="11.6978546"><ele>73.0</ele><time>2026-04-07T13:02:30.554Z</time></trkpt><trkpt lat="45.6937479" lon="11.6979311"><ele>73.33333333333333</ele><time>2026-04-07T13:02:31.554Z</time></trkpt><trkpt lat="45.6935455" lon="11.6980016"><ele>73.66666666666667</ele><time>2026-04-07T13:02:32.575Z</time></trkpt><trkpt lat="45.6933411" lon="11.6980747"><ele>74.0</ele><time>2026-04-07T13:02:33.548Z</time></trkpt><trkpt lat="45.6931401" lon="11.6981459"><ele>74.0</ele><time>2026-04-07T13:02:34.552Z</time></trkpt><trkpt lat="45.6929311" lon="11.6982373"><ele>74.0</ele><time>2026-04-07T13:02:35.554Z</time></trkpt><trkpt lat="45.6927405" lon="11.698304"><ele>74.0</ele><time>2026-04-07T13:02:36.556Z</time></trkpt><trkpt lat="45.6925486" lon="11.6983876"><ele>73.33333333333334</ele><time>2026-04-07T13:02:37.553Z</time></trkpt><trkpt lat="45.6923539" lon="11.698476"><ele>72.66666666666667</ele><time>2026-04-07T13:02:38.556Z</time></trkpt><trkpt lat="45.6921639" lon="11.698556"><ele>72.0</ele><time>2026-04-07T13:02:39.566Z</time></trkpt><trkpt lat="45.691966" lon="11.6986463"><ele>72.0</ele><time>2026-04-07T13:02:40.556Z</time></trkpt><trkpt lat="45.6917733" lon="11.6987099"><ele>72.0</ele><time>2026-04-07T13:02:41.558Z</time></trkpt><trkpt lat="45.6915825" lon="11.6987644"><ele>72.0</ele><time>2026-04-07T13:02:42.555Z</time></trkpt><trkpt lat="45.6913785" lon="11.6988439"><ele>72.0</ele><time>2026-04-07T13:02:43.553Z</time></trkpt><trkpt lat="45.69119" lon="11.6989047"><ele>72.0</ele><time>2026-04-07T13:02:44.584Z</time></trkpt><trkpt lat="45.6910241" lon="11.6989513"><ele>72.0</ele><time>2026-04-07T13:02:45.552Z</time></trkpt><trkpt lat="45.6908908" lon="11.6989938"><ele>71.75</ele><time>2026-04-07T13:02:46.557Z</time></trkpt><trkpt lat="45.6907573" lon="11.6990616"><ele>71.5</ele><time>2026-04-07T13:02:47.549Z</time></trkpt><trkpt lat="45.6906381" lon="11.699124"><ele>71.25</ele><time>2026-04-07T13:02:48.552Z</time></trkpt><trkpt lat="45.6905222" lon="11.6991877"><ele>71.0</ele><time>2026-04-07T13:02:49.549Z</time></trkpt><trkpt lat="45.6904272" lon="11.6992451"><ele>71.0</ele><time>2026-04-07T13:02:50.554Z</time></trkpt><trkpt lat="45.6903487" lon="11.6992046"><ele>71.0</ele><time>2026-04-07T13:02:52.548Z</time></trkpt><trkpt lat="45.690288" lon="11.699132"><ele>71.0</ele><time>2026-04-07T13:02:53.554Z</time></trkpt><trkpt lat="45.6902202" lon="11.6990238"><ele>71.0</ele><time>2026-04-07T13:02:54.575Z</time></trkpt><trkpt lat="45.6901503" lon="11.6989035"><ele>71.0</ele><time>2026-04-07T13:02:55.547Z</time></trkpt><trkpt lat="45.6900795" lon="11.6987793"><ele>71.16666666666667</ele><time>2026-04-07T13:02:56.558Z</time></trkpt><trkpt lat="45.6900144" lon="11.6986759"><ele>71.33333333333334</ele><time>2026-04-07T13:02:57.556Z</time></trkpt><trkpt lat="45.6899646" lon="11.6985837"><ele>71.5</ele><time>2026-04-07T13:02:58.561Z</time></trkpt><trkpt lat="45.6899163" lon="11.6985017"><ele>71.66666666666667</ele><time>2026-04-07T13:02:59.556Z</time></trkpt><trkpt lat="45.6898565" lon="11.6984266"><ele>71.83333333333333</ele><time>2026-04-07T13:03:00.557Z</time></trkpt><trkpt lat="45.6897888" lon="11.698371"><ele>72.0</ele><time>2026-04-07T13:03:01.555Z</time></trkpt><trkpt lat="45.68972" lon="11.6983333"><ele>71.6</ele><time>2026-04-07T13:03:02.559Z</time></trkpt><trkpt lat="45.6896553" lon="11.6982981"><ele>71.2</ele><time>2026-04-07T13:03:03.557Z</time></trkpt><trkpt lat="45.6895947" lon="11.6982622"><ele>70.8</ele><time>2026-04-07T13:03:04.577Z</time></trkpt><trkpt lat="45.6894818" lon="11.6981947"><ele>70.4</ele><time>2026-04-07T13:03:06.583Z</time></trkpt><trkpt lat="45.6893922" lon="11.6980784"><ele>70.0</ele><time>2026-04-07T13:03:08.556Z</time></trkpt><trkpt lat="45.6893437" lon="11.6979971"><ele>69.6</ele><time>2026-04-07T13:03:09.555Z</time></trkpt><trkpt lat="45.6892838" lon="11.6979176"><ele>69.2</ele><time>2026-04-07T13:03:10.559Z</time></trkpt><trkpt lat="45.6892097" lon="11.6978388"><ele>68.8</ele><time>2026-04-07T13:03:11.554Z</time></trkpt><trkpt lat="45.6891395" lon="11.6977568"><ele>68.4</ele><time>2026-04-07T13:03:12.557Z</time></trkpt><trkpt lat="45.6890758" lon="11.6976718"><ele>68.0</ele><time>2026-04-07T13:03:13.558Z</time></trkpt><trkpt lat="45.6890184" lon="11.697548"><ele>67.83333333333334</ele><time>2026-04-07T13:03:14.556Z</time></trkpt><trkpt lat="45.6889686" lon="11.6974409"><ele>67.66666666666667</ele><time>2026-04-07T13:03:15.554Z</time></trkpt><trkpt lat="45.6889309" lon="11.6973399"><ele>67.5</ele><time>2026-04-07T13:03:16.556Z</time></trkpt><trkpt lat="45.6889033" lon="11.6972395"><ele>67.33333333333333</ele><time>2026-04-07T13:03:17.55Z</time></trkpt><trkpt lat="45.6888736" lon="11.6971308"><ele>67.16666666666666</ele><time>2026-04-07T13:03:18.549Z</time></trkpt><trkpt lat="45.6888445" lon="11.697018"><ele>67.0</ele><time>2026-04-07T13:03:19.606Z</time></trkpt><trkpt lat="45.688813" lon="11.6969221"><ele>67.0</ele><time>2026-04-07T13:03:20.556Z</time></trkpt><trkpt lat="45.6887809" lon="11.6968271"><ele>67.0</ele><time>2026-04-07T13:03:21.558Z</time></trkpt><trkpt lat="45.6887404" lon="11.6967403"><ele>67.0</ele><time>2026-04-07T13:03:22.556Z</time></trkpt><trkpt lat="45.6886956" lon="11.6966549"><ele>67.0</ele><time>2026-04-07T13:03:23.561Z</time></trkpt><trkpt lat="45.6886515" lon="11.6965674"><ele>67.0</ele><time>2026-04-07T13:03:24.557Z</time></trkpt><trkpt lat="45.6886163" lon="11.6964837"><ele>67.0</ele><time>2026-04-07T13:03:25.552Z</time></trkpt><trkpt lat="45.6885849" lon="11.6964017"><ele>67.0</ele><time>2026-04-07T13:03:26.558Z</time></trkpt><trkpt lat="45.688554" lon="11.6963183"><ele>67.0</ele><time>2026-04-07T13:03:27.554Z</time></trkpt><trkpt lat="45.6885092" lon="11.6961549"><ele>67.0</ele><time>2026-04-07T13:03:29.548Z</time></trkpt><trkpt lat="45.6884786" lon="11.6960386"><ele>67.0</ele><time>2026-04-07T13:03:31.552Z</time></trkpt><trkpt lat="45.688463" lon="11.6959228"><ele>67.0</ele><time>2026-04-07T13:03:33.547Z</time></trkpt><trkpt lat="45.6884271" lon="11.6957938"><ele>67.0</ele><time>2026-04-07T13:03:35.625Z</time></trkpt><trkpt lat="45.6883845" lon="11.6956343"><ele>67.16666666666666</ele><time>2026-04-07T13:03:37.696Z</time></trkpt><trkpt lat="45.6883509" lon="11.6955387"><ele>67.33333333333333</ele><time>2026-04-07T13:03:38.706Z</time></trkpt><trkpt lat="45.688317" lon="11.6954373"><ele>67.5</ele><time>2026-04-07T13:03:39.706Z</time></trkpt><trkpt lat="45.6882828" lon="11.6953272"><ele>67.66666666666667</ele><time>2026-04-07T13:03:40.706Z</time></trkpt><trkpt lat="45.6882453" lon="11.695214"><ele>67.83333333333334</ele><time>2026-04-07T13:03:41.629Z</time></trkpt><trkpt lat="45.6882067" lon="11.69509"><ele>68.0</ele><time>2026-04-07T13:03:42.785Z</time></trkpt><trkpt lat="45.6881624" lon="11.6949691"><ele>67.0</ele><time>2026-04-07T13:03:43.869Z</time></trkpt><trkpt lat="45.6880595" lon="11.6946752"><ele>66.0</ele><time>2026-04-07T13:03:45.709Z</time></trkpt><trkpt lat="45.6879441" lon="11.694378"><ele>66.0</ele><time>2026-04-07T13:03:47.546Z</time></trkpt><trkpt lat="45.6878927" lon="11.6942223"><ele>66.0</ele><time>2026-04-07T13:03:48.552Z</time></trkpt><trkpt lat="45.687844" lon="11.6940638"><ele>66.0</ele><time>2026-04-07T13:03:49.704Z</time></trkpt><trkpt lat="45.6877972" lon="11.69391"><ele>66.0</ele><time>2026-04-07T13:03:50.701Z</time></trkpt><trkpt lat="45.6877333" lon="11.6936691"><ele>66.0</ele><time>2026-04-07T13:03:52.699Z</time></trkpt><trkpt lat="45.6877108" lon="11.6935659"><ele>66.0</ele><time>2026-04-07T13:03:53.865Z</time></trkpt><trkpt lat="45.6876553" lon="11.6933744"><ele>66.0</ele><time>2026-04-07T13:03:55.544Z</time></trkpt><trkpt lat="45.6876167" lon="11.6932482"><ele>66.0</ele><time>2026-04-07T13:03:57.696Z</time></trkpt><trkpt lat="45.68757" lon="11.6930718"><ele>66.0</ele><time>2026-04-07T13:04:03.706Z</time></trkpt><trkpt lat="45.6875057" lon="11.6929165"><ele>66.0</ele><time>2026-04-07T13:04:06.658Z</time></trkpt><trkpt lat="45.6874371" lon="11.6928704"><ele>66.0</ele><time>2026-04-07T13:04:08.553Z</time></trkpt><trkpt lat="45.6873762" lon="11.6928111"><ele>66.0</ele><time>2026-04-07T13:04:11.579Z</time></trkpt><trkpt lat="45.6873241" lon="11.6927603"><ele>66.0</ele><time>2026-04-07T13:04:13.6Z</time></trkpt><trkpt lat="45.6872566" lon="11.692757"><ele>66.0</ele><time>2026-04-07T13:04:15.596Z</time></trkpt><trkpt lat="45.6871989" lon="11.6928213"><ele>66.0</ele><time>2026-04-07T13:04:16.573Z</time></trkpt><trkpt lat="45.687123" lon="11.6928813"><ele>66.0</ele><time>2026-04-07T13:04:17.595Z</time></trkpt><trkpt lat="45.6870413" lon="11.692929"><ele>66.0</ele><time>2026-04-07T13:04:18.574Z</time></trkpt><trkpt lat="45.6869668" lon="11.6929564"><ele>66.0</ele><time>2026-04-07T13:04:19.596Z</time></trkpt><trkpt lat="45.6868568" lon="11.693009"><ele>66.0</ele><time>2026-04-07T13:04:21.761Z</time></trkpt><trkpt lat="45.6867287" lon="11.6930327"><ele>66.0</ele><time>2026-04-07T13:04:23.556Z</time></trkpt><trkpt lat="45.6866203" lon="11.6930704"><ele>66.0</ele><time>2026-04-07T13:04:25.551Z</time></trkpt><trkpt lat="45.6865047" lon="11.6931087"><ele>65.8</ele><time>2026-04-07T13:04:27.55Z</time></trkpt><trkpt lat="45.6864278" lon="11.6931254"><ele>65.6</ele><time>2026-04-07T13:04:28.559Z</time></trkpt><trkpt lat="45.6863277" lon="11.6931478"><ele>65.4</ele><time>2026-04-07T13:04:29.553Z</time></trkpt><trkpt lat="45.686221" lon="11.6931833"><ele>65.2</ele><time>2026-04-07T13:04:30.595Z</time></trkpt><trkpt lat="45.6861282" lon="11.6932328"><ele>65.0</ele><time>2026-04-07T13:04:31.572Z</time></trkpt><trkpt lat="45.6860521" lon="11.6932844"><ele>64.5</ele><time>2026-04-07T13:04:32.549Z</time></trkpt><trkpt lat="45.6859861" lon="11.6933422"><ele>64.0</ele><time>2026-04-07T13:04:33.552Z</time></trkpt><trkpt lat="45.6859247" lon="11.6934034"><ele>63.5</ele><time>2026-04-07T13:04:34.549Z</time></trkpt><trkpt lat="45.6858646" lon="11.6934796"><ele>63.0</ele><time>2026-04-07T13:04:35.544Z</time></trkpt><trkpt lat="45.685805" lon="11.6935729"><ele>62.50000000000001</ele><time>2026-04-07T13:04:36.551Z</time></trkpt><trkpt lat="45.6857396" lon="11.6936649"><ele>62.0</ele><time>2026-04-07T13:04:37.547Z</time></trkpt><trkpt lat="45.6856736" lon="11.6937491"><ele>62.00000000000001</ele><time>2026-04-07T13:04:38.547Z</time></trkpt><trkpt lat="45.6856132" lon="11.6938066"><ele>62.0</ele><time>2026-04-07T13:04:39.571Z</time></trkpt><trkpt lat="45.6855554" lon="11.6938613"><ele>62.0</ele><time>2026-04-07T13:04:40.547Z</time></trkpt><trkpt lat="45.6854663" lon="11.6939515"><ele>62.0</ele><time>2026-04-07T13:04:42.548Z</time></trkpt><trkpt lat="45.6854175" lon="11.6940412"><ele>62.00000000000001</ele><time>2026-04-07T13:04:45.552Z</time></trkpt><trkpt lat="45.68545" lon="11.6941446"><ele>62.0</ele><time>2026-04-07T13:04:47.559Z</time></trkpt><trkpt lat="45.6855263" lon="11.69426"><ele>62.0</ele><time>2026-04-07T13:04:49.547Z</time></trkpt><trkpt lat="45.6855662" lon="11.6943352"><ele>62.0</ele><time>2026-04-07T13:04:50.551Z</time></trkpt><trkpt lat="45.6856089" lon="11.6944131"><ele>62.0</ele><time>2026-04-07T13:04:51.557Z</time></trkpt><trkpt lat="45.6856796" lon="11.6945254"><ele>62.0</ele><time>2026-04-07T13:04:53.547Z</time></trkpt><trkpt lat="45.6857507" lon="11.6946335"><ele>62.0</ele><time>2026-04-07T13:04:55.551Z</time></trkpt><trkpt lat="45.6858083" lon="11.6947608"><ele>62.16666666666667</ele><time>2026-04-07T13:04:57.559Z</time></trkpt><trkpt lat="45.6858709" lon="11.6949137"><ele>62.333333333333336</ele><time>2026-04-07T13:04:59.555Z</time></trkpt><trkpt lat="45.6859076" lon="11.695007"><ele>62.5</ele><time>2026-04-07T13:05:00.585Z</time></trkpt><trkpt lat="45.685951" lon="11.6951062"><ele>62.66666666666667</ele><time>2026-04-07T13:05:01.56Z</time></trkpt><trkpt lat="45.6859931" lon="11.6952"><ele>62.833333333333336</ele><time>2026-04-07T13:05:02.564Z</time></trkpt><trkpt lat="45.6860401" lon="11.6952975"><ele>63.0</ele><time>2026-04-07T13:05:03.56Z</time></trkpt><trkpt lat="45.6860911" lon="11.6954121"><ele>63.4</ele><time>2026-04-07T13:05:04.581Z</time></trkpt><trkpt lat="45.6861493" lon="11.6955381"><ele>63.8</ele><time>2026-04-07T13:05:05.559Z</time></trkpt><trkpt lat="45.6862063" lon="11.6956788"><ele>64.2</ele><time>2026-04-07T13:05:06.582Z</time></trkpt><trkpt lat="45.686261" lon="11.6958212"><ele>64.6</ele><time>2026-04-07T13:05:07.595Z</time></trkpt><trkpt lat="45.6863236" lon="11.6959418"><ele>65.0</ele><time>2026-04-07T13:05:08.577Z</time></trkpt><trkpt lat="45.6863895" lon="11.69605"><ele>65.16666666666667</ele><time>2026-04-07T13:05:09.578Z</time></trkpt><trkpt lat="45.6864543" lon="11.6961466"><ele>65.33333333333334</ele><time>2026-04-07T13:05:10.555Z</time></trkpt><trkpt lat="45.6865115" lon="11.6962387"><ele>65.5</ele><time>2026-04-07T13:05:11.556Z</time></trkpt><trkpt lat="45.6865539" lon="11.6963209"><ele>65.66666666666667</ele><time>2026-04-07T13:05:12.55Z</time></trkpt><trkpt lat="45.6865926" lon="11.6963959"><ele>65.83333333333333</ele><time>2026-04-07T13:05:13.557Z</time></trkpt><trkpt lat="45.6866399" lon="11.6965417"><ele>66.0</ele><time>2026-04-07T13:05:15.548Z</time></trkpt><trkpt lat="45.6866641" lon="11.6966372"><ele>66.0</ele><time>2026-04-07T13:05:16.553Z</time></trkpt><trkpt lat="45.6866754" lon="11.6967602"><ele>66.0</ele><time>2026-04-07T13:05:17.547Z</time></trkpt><trkpt lat="45.6866998" lon="11.6969175"><ele>66.0</ele><time>2026-04-07T13:05:18.572Z</time></trkpt><trkpt lat="45.6867207" lon="11.6970874"><ele>66.0</ele><time>2026-04-07T13:05:19.551Z</time></trkpt><trkpt lat="45.6867537" lon="11.6972483"><ele>66.0</ele><time>2026-04-07T13:05:20.552Z</time></trkpt><trkpt lat="45.6867887" lon="11.6974192"><ele>66.0</ele><time>2026-04-07T13:05:21.576Z</time></trkpt><trkpt lat="45.6868217" lon="11.6976041"><ele>66.0</ele><time>2026-04-07T13:05:22.568Z</time></trkpt><trkpt lat="45.6868548" lon="11.6977963"><ele>66.0</ele><time>2026-04-07T13:05:23.56Z</time></trkpt><trkpt lat="45.6868941" lon="11.6979822"><ele>66.0</ele><time>2026-04-07T13:05:24.563Z</time></trkpt><trkpt lat="45.6869291" lon="11.6981716"><ele>66.0</ele><time>2026-04-07T13:05:25.552Z</time></trkpt><trkpt lat="45.686963" lon="11.698349"><ele>66.0</ele><time>2026-04-07T13:05:26.554Z</time></trkpt><trkpt lat="45.6869988" lon="11.6985259"><ele>66.0</ele><time>2026-04-07T13:05:27.549Z</time></trkpt><trkpt lat="45.6870302" lon="11.6986946"><ele>66.0</ele><time>2026-04-07T13:05:28.548Z</time></trkpt><trkpt lat="45.6870553" lon="11.6988406"><ele>66.2</ele><time>2026-04-07T13:05:29.547Z</time></trkpt><trkpt lat="45.6870774" lon="11.6989659"><ele>66.39999999999999</ele><time>2026-04-07T13:05:30.557Z</time></trkpt><trkpt lat="45.6870896" lon="11.6990663"><ele>66.6</ele><time>2026-04-07T13:05:31.577Z</time></trkpt><trkpt lat="45.6870621" lon="11.6992273"><ele>66.8</ele><time>2026-04-07T13:05:33.548Z</time></trkpt><trkpt lat="45.6869535" lon="11.6993428"><ele>67.0</ele><time>2026-04-07T13:05:35.544Z</time></trkpt><trkpt lat="45.686879" lon="11.6993801"><ele>66.4</ele><time>2026-04-07T13:05:36.577Z</time></trkpt><trkpt lat="45.6868062" lon="11.6994083"><ele>65.80000000000001</ele><time>2026-04-07T13:05:37.55Z</time></trkpt><trkpt lat="45.6867157" lon="11.6994381"><ele>65.2</ele><time>2026-04-07T13:05:38.552Z</time></trkpt><trkpt lat="45.6866102" lon="11.6994518"><ele>64.60000000000001</ele><time>2026-04-07T13:05:39.547Z</time></trkpt><trkpt lat="45.6864988" lon="11.699463"><ele>64.0</ele><time>2026-04-07T13:05:40.558Z</time></trkpt><trkpt lat="45.6863767" lon="11.6994773"><ele>63.75</ele><time>2026-04-07T13:05:41.552Z</time></trkpt><trkpt lat="45.6862514" lon="11.6994879"><ele>63.5</ele><time>2026-04-07T13:05:42.549Z</time></trkpt><trkpt lat="45.6861284" lon="11.6994856"><ele>63.25</ele><time>2026-04-07T13:05:43.547Z</time></trkpt><trkpt lat="45.6860091" lon="11.6994777"><ele>63.0</ele><time>2026-04-07T13:05:44.548Z</time></trkpt><trkpt lat="45.6858845" lon="11.6994753"><ele>63.0</ele><time>2026-04-07T13:05:45.548Z</time></trkpt><trkpt lat="45.6857556" lon="11.6994702"><ele>63.0</ele><time>2026-04-07T13:05:46.555Z</time></trkpt><trkpt lat="45.6856373" lon="11.6994609"><ele>63.0</ele><time>2026-04-07T13:05:47.546Z</time></trkpt><trkpt lat="45.685523" lon="11.6994538"><ele>63.0</ele><time>2026-04-07T13:05:48.544Z</time></trkpt><trkpt lat="45.6854175" lon="11.6994501"><ele>63.0</ele><time>2026-04-07T13:05:49.547Z</time></trkpt><trkpt lat="45.685318" lon="11.6994431"><ele>63.0</ele><time>2026-04-07T13:05:50.544Z</time></trkpt><trkpt lat="45.6852217" lon="11.6994317"><ele>63.0</ele><time>2026-04-07T13:05:51.548Z</time></trkpt><trkpt lat="45.6851313" lon="11.6994235"><ele>63.0</ele><time>2026-04-07T13:05:52.543Z</time></trkpt><trkpt lat="45.685054" lon="11.6994205"><ele>63.0</ele><time>2026-04-07T13:05:53.545Z</time></trkpt><trkpt lat="45.6849629" lon="11.6994292"><ele>63.166666666666664</ele><time>2026-04-07T13:05:55.547Z</time></trkpt><trkpt lat="45.6849602" lon="11.6995502"><ele>63.33333333333333</ele><time>2026-04-07T13:05:59.558Z</time></trkpt><trkpt lat="45.6850343" lon="11.6996412"><ele>63.5</ele><time>2026-04-07T13:06:07.551Z</time></trkpt><trkpt lat="45.6850555" lon="11.6997308"><ele>63.666666666666664</ele><time>2026-04-07T13:06:08.551Z</time></trkpt><trkpt lat="45.6850864" lon="11.6998476"><ele>63.83333333333333</ele><time>2026-04-07T13:06:09.556Z</time></trkpt><trkpt lat="45.685119" lon="11.6999944"><ele>64.0</ele><time>2026-04-07T13:06:10.548Z</time></trkpt><trkpt lat="45.6851555" lon="11.7001459"><ele>63.800000000000004</ele><time>2026-04-07T13:06:11.546Z</time></trkpt><trkpt lat="45.6851875" lon="11.7003288"><ele>63.60000000000001</ele><time>2026-04-07T13:06:12.557Z</time></trkpt><trkpt lat="45.6852106" lon="11.7004958"><ele>63.4</ele><time>2026-04-07T13:06:13.555Z</time></trkpt><trkpt lat="45.685225" lon="11.700633"><ele>63.2</ele><time>2026-04-07T13:06:14.552Z</time></trkpt><trkpt lat="45.6852375" lon="11.7007728"><ele>63.0</ele><time>2026-04-07T13:06:15.556Z</time></trkpt><trkpt lat="45.6852417" lon="11.7009227"><ele>63.0</ele><time>2026-04-07T13:06:16.553Z</time></trkpt><trkpt lat="45.6852471" lon="11.7010536"><ele>63.0</ele><time>2026-04-07T13:06:17.549Z</time></trkpt><trkpt lat="45.685247" lon="11.7011539"><ele>63.0</ele><time>2026-04-07T13:06:18.556Z</time></trkpt><trkpt lat="45.6852293" lon="11.7013155"><ele>63.0</ele><time>2026-04-07T13:06:20.601Z</time></trkpt><trkpt lat="45.6851777" lon="11.7013997"><ele>63.0</ele><time>2026-04-07T13:06:21.593Z</time></trkpt><trkpt lat="45.685093" lon="11.7014928"><ele>63.75</ele><time>2026-04-07T13:06:22.569Z</time></trkpt><trkpt lat="45.6849939" lon="11.7015864"><ele>64.5</ele><time>2026-04-07T13:06:23.542Z</time></trkpt><trkpt lat="45.6848857" lon="11.7016828"><ele>65.25</ele><time>2026-04-07T13:06:24.573Z</time></trkpt><trkpt lat="45.6847777" lon="11.7017912"><ele>66.0</ele><time>2026-04-07T13:06:25.554Z</time></trkpt><trkpt lat="45.6846881" lon="11.7018905"><ele>66.2</ele><time>2026-04-07T13:06:26.554Z</time></trkpt><trkpt lat="45.6846142" lon="11.7019939"><ele>66.39999999999999</ele><time>2026-04-07T13:06:27.552Z</time></trkpt><trkpt lat="45.6845445" lon="11.7020854"><ele>66.6</ele><time>2026-04-07T13:06:28.55Z</time></trkpt><trkpt lat="45.6844757" lon="11.7021927"><ele>66.8</ele><time>2026-04-07T13:06:29.553Z</time></trkpt><trkpt lat="45.6844196" lon="11.7023016"><ele>67.0</ele><time>2026-04-07T13:06:30.597Z</time></trkpt><trkpt lat="45.6843993" lon="11.7024699"><ele>67.0</ele><time>2026-04-07T13:06:32.553Z</time></trkpt><trkpt lat="45.6843522" lon="11.7025894"><ele>67.0</ele><time>2026-04-07T13:06:34.556Z</time></trkpt><trkpt lat="45.6842406" lon="11.7026936"><ele>67.0</ele><time>2026-04-07T13:06:36.553Z</time></trkpt><trkpt lat="45.6841477" lon="11.7027573"><ele>67.0</ele><time>2026-04-07T13:06:37.573Z</time></trkpt><trkpt lat="45.6840385" lon="11.7028245"><ele>67.75</ele><time>2026-04-07T13:06:38.554Z</time></trkpt><trkpt lat="45.6839251" lon="11.7028825"><ele>68.5</ele><time>2026-04-07T13:06:39.551Z</time></trkpt><trkpt lat="45.6838183" lon="11.7029381"><ele>69.25</ele><time>2026-04-07T13:06:40.554Z</time></trkpt><trkpt lat="45.6836833" lon="11.7029762"><ele>70.0</ele><time>2026-04-07T13:06:41.554Z</time></trkpt><trkpt lat="45.6835646" lon="11.7030097"><ele>70.0</ele><time>2026-04-07T13:06:42.553Z</time></trkpt><trkpt lat="45.683447" lon="11.7030317"><ele>70.0</ele><time>2026-04-07T13:06:43.556Z</time></trkpt><trkpt lat="45.6833362" lon="11.7030237"><ele>70.0</ele><time>2026-04-07T13:06:44.558Z</time></trkpt><trkpt lat="45.6832357" lon="11.7030003"><ele>70.0</ele><time>2026-04-07T13:06:45.552Z</time></trkpt><trkpt lat="45.6831425" lon="11.7029773"><ele>70.0</ele><time>2026-04-07T13:06:46.56Z</time></trkpt><trkpt lat="45.6830342" lon="11.7028868"><ele>70.0</ele><time>2026-04-07T13:06:48.56Z</time></trkpt><trkpt lat="45.6829835" lon="11.7028169"><ele>70.0</ele><time>2026-04-07T13:06:49.601Z</time></trkpt><trkpt lat="45.6829238" lon="11.7027232"><ele>70.0</ele><time>2026-04-07T13:06:50.558Z</time></trkpt><trkpt lat="45.6828579" lon="11.7025946"><ele>70.0</ele><time>2026-04-07T13:06:51.554Z</time></trkpt><trkpt lat="45.6827773" lon="11.7024463"><ele>70.0</ele><time>2026-04-07T13:06:52.556Z</time></trkpt><trkpt lat="45.6826856" lon="11.7022765"><ele>68.33333333333333</ele><time>2026-04-07T13:06:53.555Z</time></trkpt><trkpt lat="45.6825881" lon="11.7020831"><ele>66.66666666666667</ele><time>2026-04-07T13:06:54.558Z</time></trkpt><trkpt lat="45.6824849" lon="11.7018933"><ele>65.0</ele><time>2026-04-07T13:06:55.549Z</time></trkpt><trkpt lat="45.6823671" lon="11.7016837"><ele>64.33333333333334</ele><time>2026-04-07T13:06:56.551Z</time></trkpt><trkpt lat="45.6822652" lon="11.7014566"><ele>63.66666666666667</ele><time>2026-04-07T13:06:57.559Z</time></trkpt><trkpt lat="45.6821849" lon="11.7012209"><ele>63.0</ele><time>2026-04-07T13:06:58.555Z</time></trkpt><trkpt lat="45.6820862" lon="11.7010091"><ele>62.75</ele><time>2026-04-07T13:06:59.557Z</time></trkpt><trkpt lat="45.681998" lon="11.7008293"><ele>62.5</ele><time>2026-04-07T13:07:00.563Z</time></trkpt><trkpt lat="45.6819324" lon="11.7006623"><ele>62.25</ele><time>2026-04-07T13:07:01.564Z</time></trkpt><trkpt lat="45.6818426" lon="11.7004894"><ele>62.0</ele><time>2026-04-07T13:07:02.565Z</time></trkpt><trkpt lat="45.6817512" lon="11.7003516"><ele>61.5</ele><time>2026-04-07T13:07:03.561Z</time></trkpt><trkpt lat="45.6816491" lon="11.7002105"><ele>61.0</ele><time>2026-04-07T13:07:04.568Z</time></trkpt><trkpt lat="45.6815451" lon="11.7000994"><ele>60.5</ele><time>2026-04-07T13:07:05.564Z</time></trkpt><trkpt lat="45.6814461" lon="11.6999669"><ele>60.0</ele><time>2026-04-07T13:07:06.569Z</time></trkpt><trkpt lat="45.6813521" lon="11.6998125"><ele>60.0</ele><time>2026-04-07T13:07:07.581Z</time></trkpt><trkpt lat="45.6812646" lon="11.699684"><ele>60.0</ele><time>2026-04-07T13:07:08.583Z</time></trkpt><trkpt lat="45.6812159" lon="11.6995349"><ele>60.0</ele><time>2026-04-07T13:07:09.566Z</time></trkpt><trkpt lat="45.6811468" lon="11.6993864"><ele>60.0</ele><time>2026-04-07T13:07:10.574Z</time></trkpt><trkpt lat="45.6810738" lon="11.6992642"><ele>60.33333333333333</ele><time>2026-04-07T13:07:11.56Z</time></trkpt><trkpt lat="45.6809726" lon="11.6991393"><ele>60.666666666666664</ele><time>2026-04-07T13:07:12.566Z</time></trkpt><trkpt lat="45.6808988" lon="11.6989393"><ele>61.0</ele><time>2026-04-07T13:07:13.557Z</time></trkpt><trkpt lat="45.680811" lon="11.6987304"><ele>61.33333333333333</ele><time>2026-04-07T13:07:14.558Z</time></trkpt><trkpt lat="45.6806899" lon="11.6985153"><ele>61.66666666666667</ele><time>2026-04-07T13:07:15.556Z</time></trkpt><trkpt lat="45.68056" lon="11.6982831"><ele>62.0</ele><time>2026-04-07T13:07:16.556Z</time></trkpt><trkpt lat="45.680436" lon="11.6980513"><ele>62.0</ele><time>2026-04-07T13:07:17.546Z</time></trkpt><trkpt lat="45.6803465" lon="11.6978175"><ele>62.0</ele><time>2026-04-07T13:07:18.563Z</time></trkpt><trkpt lat="45.6802636" lon="11.6975876"><ele>62.0</ele><time>2026-04-07T13:07:19.549Z</time></trkpt><trkpt lat="45.6801523" lon="11.6973502"><ele>62.333333333333336</ele><time>2026-04-07T13:07:20.549Z</time></trkpt><trkpt lat="45.6800403" lon="11.6970938"><ele>62.66666666666667</ele><time>2026-04-07T13:07:21.558Z</time></trkpt><trkpt lat="45.6799213" lon="11.6968336"><ele>63.0</ele><time>2026-04-07T13:07:22.555Z</time></trkpt><trkpt lat="45.6798047" lon="11.6965619"><ele>63.0</ele><time>2026-04-07T13:07:23.557Z</time></trkpt><trkpt lat="45.6796929" lon="11.6963189"><ele>63.0</ele><time>2026-04-07T13:07:24.566Z</time></trkpt><trkpt lat="45.6795976" lon="11.6961338"><ele>63.0</ele><time>2026-04-07T13:07:25.564Z</time></trkpt><trkpt lat="45.6794949" lon="11.6959336"><ele>63.0</ele><time>2026-04-07T13:07:26.564Z</time></trkpt><trkpt lat="45.679425" lon="11.6957264"><ele>63.0</ele><time>2026-04-07T13:07:27.566Z</time></trkpt><trkpt lat="45.6793499" lon="11.6955297"><ele>63.0</ele><time>2026-04-07T13:07:28.57Z</time></trkpt><trkpt lat="45.6792457" lon="11.695309"><ele>63.0</ele><time>2026-04-07T13:07:29.564Z</time></trkpt><trkpt lat="45.6791334" lon="11.6950786"><ele>63.0</ele><time>2026-04-07T13:07:30.562Z</time></trkpt><trkpt lat="45.6790146" lon="11.6948226"><ele>63.0</ele><time>2026-04-07T13:07:31.554Z</time></trkpt><trkpt lat="45.6788815" lon="11.6945526"><ele>62.5</ele><time>2026-04-07T13:07:32.558Z</time></trkpt><trkpt lat="45.6787509" lon="11.6942796"><ele>62.0</ele><time>2026-04-07T13:07:33.557Z</time></trkpt><trkpt lat="45.6786176" lon="11.6939921"><ele>62.5</ele><time>2026-04-07T13:07:34.555Z</time></trkpt><trkpt lat="45.6784948" lon="11.6937299"><ele>63.0</ele><time>2026-04-07T13:07:35.581Z</time></trkpt><trkpt lat="45.6783776" lon="11.6934448"><ele>63.0</ele><time>2026-04-07T13:07:36.554Z</time></trkpt><trkpt lat="45.6782758" lon="11.6931697"><ele>63.0</ele><time>2026-04-07T13:07:37.556Z</time></trkpt><trkpt lat="45.6781487" lon="11.6928904"><ele>63.33333333333333</ele><time>2026-04-07T13:07:38.56Z</time></trkpt><trkpt lat="45.6780432" lon="11.6926399"><ele>63.666666666666664</ele><time>2026-04-07T13:07:39.557Z</time></trkpt><trkpt lat="45.6779463" lon="11.6924371"><ele>64.0</ele><time>2026-04-07T13:07:40.56Z</time></trkpt><trkpt lat="45.6778335" lon="11.6922455"><ele>63.33333333333333</ele><time>2026-04-07T13:07:41.561Z</time></trkpt><trkpt lat="45.6777304" lon="11.6920436"><ele>62.66666666666667</ele><time>2026-04-07T13:07:42.556Z</time></trkpt><trkpt lat="45.6776331" lon="11.6918236"><ele>62.0</ele><time>2026-04-07T13:07:43.561Z</time></trkpt><trkpt lat="45.6775764" lon="11.6916128"><ele>61.75</ele><time>2026-04-07T13:07:44.562Z</time></trkpt><trkpt lat="45.677534" lon="11.6914129"><ele>61.5</ele><time>2026-04-07T13:07:45.56Z</time></trkpt><trkpt lat="45.6774955" lon="11.6912139"><ele>61.25</ele><time>2026-04-07T13:07:46.56Z</time></trkpt><trkpt lat="45.6774721" lon="11.6910121"><ele>61.0</ele><time>2026-04-07T13:07:47.557Z</time></trkpt><trkpt lat="45.6774288" lon="11.690783"><ele>61.0</ele><time>2026-04-07T13:07:48.562Z</time></trkpt><trkpt lat="45.6773716" lon="11.6905581"><ele>61.0</ele><time>2026-04-07T13:07:49.598Z</time></trkpt><trkpt lat="45.6773056" lon="11.6903321"><ele>61.0</ele><time>2026-04-07T13:07:50.56Z</time></trkpt><trkpt lat="45.6771887" lon="11.6898237"><ele>60.666666666666664</ele><time>2026-04-07T13:07:52.586Z</time></trkpt><trkpt lat="45.6771263" lon="11.689558"><ele>60.33333333333333</ele><time>2026-04-07T13:07:53.563Z</time></trkpt><trkpt lat="45.677069" lon="11.6892764"><ele>60.0</ele><time>2026-04-07T13:07:54.568Z</time></trkpt><trkpt lat="45.6770168" lon="11.6889939"><ele>59.0</ele><time>2026-04-07T13:07:55.565Z</time></trkpt><trkpt lat="45.6769568" lon="11.6887004"><ele>58.0</ele><time>2026-04-07T13:07:56.566Z</time></trkpt><trkpt lat="45.6769042" lon="11.6884154"><ele>57.0</ele><time>2026-04-07T13:07:57.563Z</time></trkpt><trkpt lat="45.6768448" lon="11.6881536"><ele>56.0</ele><time>2026-04-07T13:07:58.563Z</time></trkpt><trkpt lat="45.6768061" lon="11.6879082"><ele>55.0</ele><time>2026-04-07T13:07:59.561Z</time></trkpt><trkpt lat="45.6767621" lon="11.6876699"><ele>54.0</ele><time>2026-04-07T13:08:00.56Z</time></trkpt><trkpt lat="45.6767154" lon="11.6874355"><ele>54.0</ele><time>2026-04-07T13:08:01.569Z</time></trkpt><trkpt lat="45.6766624" lon="11.6872024"><ele>54.0</ele><time>2026-04-07T13:08:02.566Z</time></trkpt><trkpt lat="45.6766181" lon="11.6869735"><ele>54.0</ele><time>2026-04-07T13:08:03.563Z</time></trkpt><trkpt lat="45.6765723" lon="11.6867701"><ele>54.5</ele><time>2026-04-07T13:08:04.57Z</time></trkpt><trkpt lat="45.6765398" lon="11.6865701"><ele>55.0</ele><time>2026-04-07T13:08:05.562Z</time></trkpt><trkpt lat="45.6765128" lon="11.6863908"><ele>55.5</ele><time>2026-04-07T13:08:06.56Z</time></trkpt><trkpt lat="45.6764634" lon="11.6861996"><ele>56.0</ele><time>2026-04-07T13:08:07.566Z</time></trkpt><trkpt lat="45.676437" lon="11.6860269"><ele>56.75</ele><time>2026-04-07T13:08:08.558Z</time></trkpt><trkpt lat="45.6764146" lon="11.6858224"><ele>57.5</ele><time>2026-04-07T13:08:09.581Z</time></trkpt><trkpt lat="45.6764001" lon="11.6856184"><ele>58.25</ele><time>2026-04-07T13:08:10.575Z</time></trkpt><trkpt lat="45.6763628" lon="11.6854164"><ele>59.0</ele><time>2026-04-07T13:08:11.565Z</time></trkpt><trkpt lat="45.6763158" lon="11.6852298"><ele>60.0</ele><time>2026-04-07T13:08:12.566Z</time></trkpt><trkpt lat="45.6762656" lon="11.6850442"><ele>61.0</ele><time>2026-04-07T13:08:13.566Z</time></trkpt><trkpt lat="45.6762433" lon="11.6848506"><ele>62.0</ele><time>2026-04-07T13:08:14.567Z</time></trkpt><trkpt lat="45.6762227" lon="11.684649"><ele>63.0</ele><time>2026-04-07T13:08:15.566Z</time></trkpt><trkpt lat="45.6761991" lon="11.6844589"><ele>62.75</ele><time>2026-04-07T13:08:16.56Z</time></trkpt><trkpt lat="45.6761901" lon="11.6842513"><ele>62.5</ele><time>2026-04-07T13:08:17.569Z</time></trkpt><trkpt lat="45.6761559" lon="11.6840356"><ele>62.25</ele><time>2026-04-07T13:08:18.564Z</time></trkpt><trkpt lat="45.6761448" lon="11.6838472"><ele>62.0</ele><time>2026-04-07T13:08:19.565Z</time></trkpt><trkpt lat="45.6761413" lon="11.6836591"><ele>62.0</ele><time>2026-04-07T13:08:20.567Z</time></trkpt><trkpt lat="45.676094" lon="11.683452"><ele>62.0</ele><time>2026-04-07T13:08:21.562Z</time></trkpt><trkpt lat="45.6760515" lon="11.6832712"><ele>62.0</ele><time>2026-04-07T13:08:22.568Z</time></trkpt><trkpt lat="45.6760243" lon="11.6831173"><ele>62.0</ele><time>2026-04-07T13:08:23.573Z</time></trkpt><trkpt lat="45.6760046" lon="11.682945"><ele>62.00000000000001</ele><time>2026-04-07T13:08:24.566Z</time></trkpt><trkpt lat="45.6760047" lon="11.6828108"><ele>62.0</ele><time>2026-04-07T13:08:25.561Z</time></trkpt><trkpt lat="45.6760108" lon="11.6826873"><ele>62.0</ele><time>2026-04-07T13:08:26.563Z</time></trkpt><trkpt lat="45.6760052" lon="11.6825621"><ele>62.0</ele><time>2026-04-07T13:08:27.569Z</time></trkpt><trkpt lat="45.6760131" lon="11.6824557"><ele>62.00000000000001</ele><time>2026-04-07T13:08:28.562Z</time></trkpt><trkpt lat="45.6760194" lon="11.6823419"><ele>62.0</ele><time>2026-04-07T13:08:29.589Z</time></trkpt><trkpt lat="45.676038" lon="11.6821932"><ele>62.0</ele><time>2026-04-07T13:08:31.572Z</time></trkpt><trkpt lat="45.6759567" lon="11.6821078"><ele>62.0</ele><time>2026-04-07T13:08:33.571Z</time></trkpt><trkpt lat="45.6758772" lon="11.6821158"><ele>62.0</ele><time>2026-04-07T13:08:34.589Z</time></trkpt><trkpt lat="45.6757564" lon="11.6821491"><ele>62.0</ele><time>2026-04-07T13:08:35.568Z</time></trkpt><trkpt lat="45.6756147" lon="11.6821723"><ele>62.0</ele><time>2026-04-07T13:08:36.59Z</time></trkpt><trkpt lat="45.675465" lon="11.6821859"><ele>62.0</ele><time>2026-04-07T13:08:37.586Z</time></trkpt><trkpt lat="45.6753149" lon="11.6822024"><ele>62.0</ele><time>2026-04-07T13:08:38.593Z</time></trkpt><trkpt lat="45.6751309" lon="11.6822281"><ele>62.0</ele><time>2026-04-07T13:08:39.569Z</time></trkpt><trkpt lat="45.674973" lon="11.6822699"><ele>62.25</ele><time>2026-04-07T13:08:40.58Z</time></trkpt><trkpt lat="45.674842" lon="11.6822973"><ele>62.5</ele><time>2026-04-07T13:08:41.57Z</time></trkpt><trkpt lat="45.6747277" lon="11.6823224"><ele>62.75</ele><time>2026-04-07T13:08:42.575Z</time></trkpt><trkpt lat="45.6746061" lon="11.6823098"><ele>63.0</ele><time>2026-04-07T13:08:43.574Z</time></trkpt><trkpt lat="45.674482" lon="11.6823196"><ele>62.66666666666667</ele><time>2026-04-07T13:08:44.568Z</time></trkpt><trkpt lat="45.6743319" lon="11.6823049"><ele>62.333333333333336</ele><time>2026-04-07T13:08:45.577Z</time></trkpt><trkpt lat="45.6741774" lon="11.6823175"><ele>62.0</ele><time>2026-04-07T13:08:46.568Z</time></trkpt><trkpt lat="45.6740052" lon="11.6823345"><ele>62.0</ele><time>2026-04-07T13:08:47.57Z</time></trkpt><trkpt lat="45.6738214" lon="11.6823549"><ele>62.0</ele><time>2026-04-07T13:08:48.576Z</time></trkpt><trkpt lat="45.673645" lon="11.6823672"><ele>62.0</ele><time>2026-04-07T13:08:49.572Z</time></trkpt><trkpt lat="45.6734601" lon="11.6823911"><ele>61.333333333333336</ele><time>2026-04-07T13:08:50.573Z</time></trkpt><trkpt lat="45.6732862" lon="11.6824317"><ele>60.66666666666667</ele><time>2026-04-07T13:08:51.575Z</time></trkpt><trkpt lat="45.6731154" lon="11.6824677"><ele>60.0</ele><time>2026-04-07T13:08:52.572Z</time></trkpt><trkpt lat="45.6729935" lon="11.6824708"><ele>60.0</ele><time>2026-04-07T13:08:53.576Z</time></trkpt><trkpt lat="45.6728612" lon="11.6824872"><ele>60.0</ele><time>2026-04-07T13:08:54.575Z</time></trkpt><trkpt lat="45.6727339" lon="11.6825049"><ele>60.0</ele><time>2026-04-07T13:08:55.571Z</time></trkpt><trkpt lat="45.6725894" lon="11.6825166"><ele>60.0</ele><time>2026-04-07T13:08:56.571Z</time></trkpt><trkpt lat="45.6723934" lon="11.6825538"><ele>59.66666666666667</ele><time>2026-04-07T13:08:57.575Z</time></trkpt><trkpt lat="45.6722059" lon="11.6825809"><ele>59.333333333333336</ele><time>2026-04-07T13:08:58.573Z</time></trkpt><trkpt lat="45.6720343" lon="11.6826094"><ele>59.0</ele><time>2026-04-07T13:08:59.581Z</time></trkpt><trkpt lat="45.6718552" lon="11.6826587"><ele>59.66666666666667</ele><time>2026-04-07T13:09:00.597Z</time></trkpt><trkpt lat="45.6717017" lon="11.6826855"><ele>60.33333333333333</ele><time>2026-04-07T13:09:01.597Z</time></trkpt><trkpt lat="45.6715426" lon="11.6827078"><ele>61.0</ele><time>2026-04-07T13:09:02.601Z</time></trkpt><trkpt lat="45.6713607" lon="11.6827503"><ele>61.0</ele><time>2026-04-07T13:09:03.575Z</time></trkpt><trkpt lat="45.6711652" lon="11.6828099"><ele>61.0</ele><time>2026-04-07T13:09:04.569Z</time></trkpt><trkpt lat="45.6710046" lon="11.6828629"><ele>61.0</ele><time>2026-04-07T13:09:05.59Z</time></trkpt><trkpt lat="45.6708545" lon="11.6829117"><ele>61.0</ele><time>2026-04-07T13:09:06.577Z</time></trkpt><trkpt lat="45.6706965" lon="11.6829483"><ele>61.0</ele><time>2026-04-07T13:09:07.566Z</time></trkpt><trkpt lat="45.6705172" lon="11.6829933"><ele>61.0</ele><time>2026-04-07T13:09:08.567Z</time></trkpt><trkpt lat="45.6703449" lon="11.6830689"><ele>60.33333333333333</ele><time>2026-04-07T13:09:09.573Z</time></trkpt><trkpt lat="45.6701729" lon="11.6831259"><ele>59.66666666666667</ele><time>2026-04-07T13:09:10.568Z</time></trkpt><trkpt lat="45.669995" lon="11.6831526"><ele>59.0</ele><time>2026-04-07T13:09:11.574Z</time></trkpt><trkpt lat="45.6698092" lon="11.6831888"><ele>59.0</ele><time>2026-04-07T13:09:12.568Z</time></trkpt><trkpt lat="45.6696279" lon="11.6832103"><ele>59.0</ele><time>2026-04-07T13:09:13.573Z</time></trkpt><trkpt lat="45.6694583" lon="11.6832007"><ele>59.0</ele><time>2026-04-07T13:09:14.577Z</time></trkpt><trkpt lat="45.669318" lon="11.6831947"><ele>58.66666666666667</ele><time>2026-04-07T13:09:15.573Z</time></trkpt><trkpt lat="45.6691576" lon="11.6831843"><ele>58.33333333333333</ele><time>2026-04-07T13:09:16.576Z</time></trkpt><trkpt lat="45.6689786" lon="11.683153"><ele>58.0</ele><time>2026-04-07T13:09:17.571Z</time></trkpt><trkpt lat="45.6687813" lon="11.6831443"><ele>58.666666666666664</ele><time>2026-04-07T13:09:18.575Z</time></trkpt><trkpt lat="45.6686066" lon="11.6831592"><ele>59.33333333333333</ele><time>2026-04-07T13:09:19.571Z</time></trkpt><trkpt lat="45.6684258" lon="11.6831783"><ele>60.0</ele><time>2026-04-07T13:09:20.57Z</time></trkpt><trkpt lat="45.6682787" lon="11.6831892"><ele>60.0</ele><time>2026-04-07T13:09:21.57Z</time></trkpt><trkpt lat="45.6681222" lon="11.6831887"><ele>60.0</ele><time>2026-04-07T13:09:22.564Z</time></trkpt><trkpt lat="45.667975" lon="11.6831711"><ele>60.0</ele><time>2026-04-07T13:09:23.567Z</time></trkpt><trkpt lat="45.6678074" lon="11.683142"><ele>59.66666666666667</ele><time>2026-04-07T13:09:24.567Z</time></trkpt><trkpt lat="45.6676451" lon="11.6831248"><ele>59.333333333333336</ele><time>2026-04-07T13:09:25.571Z</time></trkpt><trkpt lat="45.6674813" lon="11.683121"><ele>59.0</ele><time>2026-04-07T13:09:26.57Z</time></trkpt><trkpt lat="45.6673268" lon="11.6831094"><ele>59.0</ele><time>2026-04-07T13:09:27.57Z</time></trkpt><trkpt lat="45.6671638" lon="11.6831135"><ele>59.0</ele><time>2026-04-07T13:09:28.577Z</time></trkpt><trkpt lat="45.6669994" lon="11.6831045"><ele>59.0</ele><time>2026-04-07T13:09:29.58Z</time></trkpt><trkpt lat="45.6668297" lon="11.6830801"><ele>58.66666666666667</ele><time>2026-04-07T13:09:30.569Z</time></trkpt><trkpt lat="45.6666486" lon="11.6830791"><ele>58.33333333333333</ele><time>2026-04-07T13:09:31.567Z</time></trkpt><trkpt lat="45.6664865" lon="11.6830651"><ele>58.0</ele><time>2026-04-07T13:09:32.568Z</time></trkpt><trkpt lat="45.6663383" lon="11.6830498"><ele>58.0</ele><time>2026-04-07T13:09:33.576Z</time></trkpt><trkpt lat="45.6662011" lon="11.6830432"><ele>58.0</ele><time>2026-04-07T13:09:34.571Z</time></trkpt><trkpt lat="45.6660764" lon="11.6830351"><ele>58.0</ele><time>2026-04-07T13:09:35.575Z</time></trkpt><trkpt lat="45.6659429" lon="11.6830247"><ele>58.0</ele><time>2026-04-07T13:09:36.578Z</time></trkpt><trkpt lat="45.6658406" lon="11.6830131"><ele>57.8</ele><time>2026-04-07T13:09:37.569Z</time></trkpt><trkpt lat="45.6657502" lon="11.6830056"><ele>57.599999999999994</ele><time>2026-04-07T13:09:38.571Z</time></trkpt><trkpt lat="45.6656381" lon="11.6830012"><ele>57.400000000000006</ele><time>2026-04-07T13:09:39.564Z</time></trkpt><trkpt lat="45.6655405" lon="11.6829947"><ele>57.2</ele><time>2026-04-07T13:09:40.561Z</time></trkpt><trkpt lat="45.6654715" lon="11.6829781"><ele>57.0</ele><time>2026-04-07T13:09:41.558Z</time></trkpt><trkpt lat="45.665344" lon="11.6830346"><ele>56.833333333333336</ele><time>2026-04-07T13:09:47.566Z</time></trkpt><trkpt lat="45.6652555" lon="11.6830579"><ele>56.66666666666667</ele><time>2026-04-07T13:09:50.589Z</time></trkpt><trkpt lat="45.6651894" lon="11.6830541"><ele>56.5</ele><time>2026-04-07T13:09:51.593Z</time></trkpt><trkpt lat="45.6651063" lon="11.6830484"><ele>56.333333333333336</ele><time>2026-04-07T13:09:52.577Z</time></trkpt><trkpt lat="45.665015" lon="11.6830493"><ele>56.16666666666667</ele><time>2026-04-07T13:09:53.572Z</time></trkpt><trkpt lat="45.6649127" lon="11.6830453"><ele>56.0</ele><time>2026-04-07T13:09:54.614Z</time></trkpt><trkpt lat="45.6648157" lon="11.6830311"><ele>56.0</ele><time>2026-04-07T13:09:55.614Z</time></trkpt><trkpt lat="45.6647235" lon="11.6830101"><ele>55.99999999999999</ele><time>2026-04-07T13:09:56.571Z</time></trkpt><trkpt lat="45.6646288" lon="11.682982"><ele>55.99999999999999</ele><time>2026-04-07T13:09:57.57Z</time></trkpt><trkpt lat="45.6645306" lon="11.6829567"><ele>56.0</ele><time>2026-04-07T13:09:58.568Z</time></trkpt><trkpt lat="45.6644347" lon="11.6829335"><ele>56.0</ele><time>2026-04-07T13:09:59.597Z</time></trkpt><trkpt lat="45.6643447" lon="11.6829158"><ele>55.8</ele><time>2026-04-07T13:10:00.564Z</time></trkpt><trkpt lat="45.6642489" lon="11.682908"><ele>55.599999999999994</ele><time>2026-04-07T13:10:01.571Z</time></trkpt><trkpt lat="45.6641423" lon="11.6828916"><ele>55.4</ele><time>2026-04-07T13:10:02.586Z</time></trkpt><trkpt lat="45.6640307" lon="11.6828616"><ele>55.2</ele><time>2026-04-07T13:10:03.571Z</time></trkpt><trkpt lat="45.663913" lon="11.6828312"><ele>55.0</ele><time>2026-04-07T13:10:04.567Z</time></trkpt><trkpt lat="45.6637933" lon="11.6828028"><ele>55.0</ele><time>2026-04-07T13:10:05.568Z</time></trkpt><trkpt lat="45.6636647" lon="11.6827822"><ele>55.0</ele><time>2026-04-07T13:10:06.571Z</time></trkpt><trkpt lat="45.6635296" lon="11.682767"><ele>55.0</ele><time>2026-04-07T13:10:07.573Z</time></trkpt><trkpt lat="45.663409" lon="11.6827675"><ele>55.0</ele><time>2026-04-07T13:10:08.566Z</time></trkpt><trkpt lat="45.6632766" lon="11.6827636"><ele>55.666666666666664</ele><time>2026-04-07T13:10:09.591Z</time></trkpt><trkpt lat="45.6631329" lon="11.682825"><ele>56.33333333333333</ele><time>2026-04-07T13:10:10.575Z</time></trkpt><trkpt lat="45.6629501" lon="11.6828727"><ele>57.0</ele><time>2026-04-07T13:10:11.568Z</time></trkpt><trkpt lat="45.6628008" lon="11.6829327"><ele>56.66666666666667</ele><time>2026-04-07T13:10:12.572Z</time></trkpt><trkpt lat="45.6626377" lon="11.6830224"><ele>56.333333333333336</ele><time>2026-04-07T13:10:13.566Z</time></trkpt><trkpt lat="45.6624578" lon="11.6831133"><ele>56.0</ele><time>2026-04-07T13:10:14.566Z</time></trkpt><trkpt lat="45.662273" lon="11.6832149"><ele>56.0</ele><time>2026-04-07T13:10:15.571Z</time></trkpt><trkpt lat="45.662097" lon="11.6832838"><ele>56.0</ele><time>2026-04-07T13:10:16.57Z</time></trkpt><trkpt lat="45.6619137" lon="11.6833478"><ele>56.0</ele><time>2026-04-07T13:10:17.566Z</time></trkpt><trkpt lat="45.6617095" lon="11.6834361"><ele>56.0</ele><time>2026-04-07T13:10:18.572Z</time></trkpt><trkpt lat="45.6615135" lon="11.6835211"><ele>56.0</ele><time>2026-04-07T13:10:19.568Z</time></trkpt><trkpt lat="45.6613199" lon="11.6835967"><ele>56.0</ele><time>2026-04-07T13:10:20.566Z</time></trkpt><trkpt lat="45.6611165" lon="11.6836728"><ele>56.0</ele><time>2026-04-07T13:10:21.567Z</time></trkpt><trkpt lat="45.6609092" lon="11.683739"><ele>56.0</ele><time>2026-04-07T13:10:22.56Z</time></trkpt><trkpt lat="45.6607111" lon="11.6838144"><ele>56.0</ele><time>2026-04-07T13:10:23.592Z</time></trkpt><trkpt lat="45.6605203" lon="11.6839088"><ele>56.5</ele><time>2026-04-07T13:10:24.565Z</time></trkpt><trkpt lat="45.6602822" lon="11.6840228"><ele>57.0</ele><time>2026-04-07T13:10:25.564Z</time></trkpt><trkpt lat="45.6600495" lon="11.6841241"><ele>57.0</ele><time>2026-04-07T13:10:26.596Z</time></trkpt><trkpt lat="45.6598384" lon="11.6842366"><ele>57.0</ele><time>2026-04-07T13:10:27.596Z</time></trkpt><trkpt lat="45.6596317" lon="11.6843303"><ele>57.0</ele><time>2026-04-07T13:10:28.575Z</time></trkpt><trkpt lat="45.6594336" lon="11.6844095"><ele>56.66666666666667</ele><time>2026-04-07T13:10:29.577Z</time></trkpt><trkpt lat="45.6592549" lon="11.6845"><ele>56.333333333333336</ele><time>2026-04-07T13:10:30.575Z</time></trkpt><trkpt lat="45.6590775" lon="11.6846123"><ele>56.0</ele><time>2026-04-07T13:10:31.572Z</time></trkpt><trkpt lat="45.6589158" lon="11.6847357"><ele>56.0</ele><time>2026-04-07T13:10:32.572Z</time></trkpt><trkpt lat="45.6587835" lon="11.6848861"><ele>56.0</ele><time>2026-04-07T13:10:33.57Z</time></trkpt><trkpt lat="45.6586497" lon="11.6850553"><ele>56.0</ele><time>2026-04-07T13:10:34.571Z</time></trkpt><trkpt lat="45.6585078" lon="11.6851958"><ele>55.333333333333336</ele><time>2026-04-07T13:10:35.571Z</time></trkpt><trkpt lat="45.6583465" lon="11.6853185"><ele>54.66666666666667</ele><time>2026-04-07T13:10:36.564Z</time></trkpt><trkpt lat="45.6581658" lon="11.6854093"><ele>54.0</ele><time>2026-04-07T13:10:37.572Z</time></trkpt><trkpt lat="45.6580012" lon="11.6854442"><ele>54.0</ele><time>2026-04-07T13:10:38.564Z</time></trkpt><trkpt lat="45.6578572" lon="11.6854946"><ele>54.0</ele><time>2026-04-07T13:10:39.568Z</time></trkpt><trkpt lat="45.6577103" lon="11.6855845"><ele>54.0</ele><time>2026-04-07T13:10:40.569Z</time></trkpt><trkpt lat="45.6575099" lon="11.6857"><ele>54.5</ele><time>2026-04-07T13:10:41.572Z</time></trkpt><trkpt lat="45.6572868" lon="11.6857919"><ele>55.0</ele><time>2026-04-07T13:10:42.569Z</time></trkpt><trkpt lat="45.6570742" lon="11.685911"><ele>54.666666666666664</ele><time>2026-04-07T13:10:43.568Z</time></trkpt><trkpt lat="45.6568707" lon="11.6860259"><ele>54.33333333333333</ele><time>2026-04-07T13:10:44.569Z</time></trkpt><trkpt lat="45.6566939" lon="11.6861764"><ele>54.0</ele><time>2026-04-07T13:10:45.563Z</time></trkpt><trkpt lat="45.6565427" lon="11.6863496"><ele>53.66666666666667</ele><time>2026-04-07T13:10:46.567Z</time></trkpt><trkpt lat="45.6563796" lon="11.6865453"><ele>53.333333333333336</ele><time>2026-04-07T13:10:47.561Z</time></trkpt><trkpt lat="45.6562415" lon="11.6867467"><ele>53.0</ele><time>2026-04-07T13:10:48.557Z</time></trkpt><trkpt lat="45.6560846" lon="11.6869722"><ele>53.0</ele><time>2026-04-07T13:10:49.558Z</time></trkpt><trkpt lat="45.6559567" lon="11.6871497"><ele>53.0</ele><time>2026-04-07T13:10:50.558Z</time></trkpt><trkpt lat="45.655827" lon="11.6873085"><ele>53.0</ele><time>2026-04-07T13:10:51.556Z</time></trkpt><trkpt lat="45.6557146" lon="11.6874562"><ele>53.0</ele><time>2026-04-07T13:10:52.559Z</time></trkpt><trkpt lat="45.6555975" lon="11.6875942"><ele>53.0</ele><time>2026-04-07T13:10:53.56Z</time></trkpt><trkpt lat="45.655508" lon="11.68775"><ele>53.0</ele><time>2026-04-07T13:10:54.561Z</time></trkpt><trkpt lat="45.6554072" lon="11.6878143"><ele>53.0</ele><time>2026-04-07T13:10:55.581Z</time></trkpt><trkpt lat="45.6553456" lon="11.687854"><ele>53.2</ele><time>2026-04-07T13:10:56.558Z</time></trkpt><trkpt lat="45.6552719" lon="11.6878968"><ele>53.4</ele><time>2026-04-07T13:10:57.558Z</time></trkpt><trkpt lat="45.6551537" lon="11.687924"><ele>53.60000000000001</ele><time>2026-04-07T13:10:58.57Z</time></trkpt><trkpt lat="45.6550489" lon="11.6879331"><ele>53.800000000000004</ele><time>2026-04-07T13:10:59.564Z</time></trkpt><trkpt lat="45.6549483" lon="11.6879409"><ele>54.0</ele><time>2026-04-07T13:11:00.563Z</time></trkpt><trkpt lat="45.6548244" lon="11.6879747"><ele>54.0</ele><time>2026-04-07T13:11:01.565Z</time></trkpt><trkpt lat="45.6546912" lon="11.6879712"><ele>54.0</ele><time>2026-04-07T13:11:02.568Z</time></trkpt><trkpt lat="45.6545776" lon="11.6879786"><ele>54.0</ele><time>2026-04-07T13:11:03.565Z</time></trkpt><trkpt lat="45.6544699" lon="11.6879843"><ele>54.0</ele><time>2026-04-07T13:11:04.575Z</time></trkpt><trkpt lat="45.6543719" lon="11.6880135"><ele>53.833333333333336</ele><time>2026-04-07T13:11:05.564Z</time></trkpt><trkpt lat="45.6542856" lon="11.6880304"><ele>53.66666666666667</ele><time>2026-04-07T13:11:06.573Z</time></trkpt><trkpt lat="45.6542105" lon="11.6880487"><ele>53.5</ele><time>2026-04-07T13:11:07.573Z</time></trkpt><trkpt lat="45.6541291" lon="11.6880769"><ele>53.333333333333336</ele><time>2026-04-07T13:11:08.61Z</time></trkpt><trkpt lat="45.6540439" lon="11.6881236"><ele>53.16666666666667</ele><time>2026-04-07T13:11:09.563Z</time></trkpt><trkpt lat="45.653954" lon="11.6881918"><ele>53.0</ele><time>2026-04-07T13:11:10.582Z</time></trkpt><trkpt lat="45.653857" lon="11.6882683"><ele>53.0</ele><time>2026-04-07T13:11:11.561Z</time></trkpt><trkpt lat="45.653747" lon="11.6883543"><ele>53.0</ele><time>2026-04-07T13:11:12.557Z</time></trkpt><trkpt lat="45.6536217" lon="11.6884457"><ele>53.0</ele><time>2026-04-07T13:11:13.565Z</time></trkpt><trkpt lat="45.6534996" lon="11.6885323"><ele>53.0</ele><time>2026-04-07T13:11:14.567Z</time></trkpt><trkpt lat="45.6533726" lon="11.6886197"><ele>52.333333333333336</ele><time>2026-04-07T13:11:15.566Z</time></trkpt><trkpt lat="45.653201" lon="11.6887022"><ele>51.66666666666667</ele><time>2026-04-07T13:11:16.568Z</time></trkpt><trkpt lat="45.6530502" lon="11.688783"><ele>51.0</ele><time>2026-04-07T13:11:17.585Z</time></trkpt><trkpt lat="45.6529054" lon="11.6888472"><ele>51.0</ele><time>2026-04-07T13:11:18.561Z</time></trkpt><trkpt lat="45.6528063" lon="11.6889081"><ele>51.0</ele><time>2026-04-07T13:11:19.566Z</time></trkpt><trkpt lat="45.6527091" lon="11.688938"><ele>51.0</ele><time>2026-04-07T13:11:20.556Z</time></trkpt><trkpt lat="45.6525892" lon="11.6889889"><ele>51.0</ele><time>2026-04-07T13:11:21.563Z</time></trkpt><trkpt lat="45.6524843" lon="11.6890072"><ele>51.0</ele><time>2026-04-07T13:11:22.568Z</time></trkpt><trkpt lat="45.6523874" lon="11.6890603"><ele>51.0</ele><time>2026-04-07T13:11:23.562Z</time></trkpt><trkpt lat="45.6522783" lon="11.689101"><ele>51.0</ele><time>2026-04-07T13:11:24.566Z</time></trkpt><trkpt lat="45.652165" lon="11.68914"><ele>51.0</ele><time>2026-04-07T13:11:25.559Z</time></trkpt><trkpt lat="45.6520395" lon="11.6891766"><ele>51.0</ele><time>2026-04-07T13:11:26.568Z</time></trkpt><trkpt lat="45.6519014" lon="11.6892167"><ele>51.0</ele><time>2026-04-07T13:11:27.568Z</time></trkpt><trkpt lat="45.6517409" lon="11.6892525"><ele>51.0</ele><time>2026-04-07T13:11:28.556Z</time></trkpt><trkpt lat="45.651591" lon="11.6892881"><ele>51.0</ele><time>2026-04-07T13:11:29.568Z</time></trkpt><trkpt lat="45.651467" lon="11.689328"><ele>51.0</ele><time>2026-04-07T13:11:30.564Z</time></trkpt><trkpt lat="45.6513272" lon="11.6893707"><ele>51.0</ele><time>2026-04-07T13:11:31.562Z</time></trkpt><trkpt lat="45.6511764" lon="11.6894123"><ele>51.0</ele><time>2026-04-07T13:11:32.563Z</time></trkpt><trkpt lat="45.6510116" lon="11.6894436"><ele>51.0</ele><time>2026-04-07T13:11:33.561Z</time></trkpt><trkpt lat="45.6508762" lon="11.689452"><ele>50.66666666666667</ele><time>2026-04-07T13:11:34.562Z</time></trkpt><trkpt lat="45.650721" lon="11.6894903"><ele>50.333333333333336</ele><time>2026-04-07T13:11:35.57Z</time></trkpt><trkpt lat="45.6505773" lon="11.689533"><ele>50.0</ele><time>2026-04-07T13:11:36.57Z</time></trkpt><trkpt lat="45.6504202" lon="11.689578"><ele>51.0</ele><time>2026-04-07T13:11:37.564Z</time></trkpt><trkpt lat="45.650255" lon="11.689621"><ele>52.0</ele><time>2026-04-07T13:11:38.564Z</time></trkpt><trkpt lat="45.6501039" lon="11.6896526"><ele>53.0</ele><time>2026-04-07T13:11:39.565Z</time></trkpt><trkpt lat="45.6499739" lon="11.6896844"><ele>53.0</ele><time>2026-04-07T13:11:40.565Z</time></trkpt><trkpt lat="45.649858" lon="11.6897116"><ele>53.0</ele><time>2026-04-07T13:11:41.555Z</time></trkpt><trkpt lat="45.6497143" lon="11.6897256"><ele>53.0</ele><time>2026-04-07T13:11:42.552Z</time></trkpt><trkpt lat="45.6495401" lon="11.68977"><ele>53.0</ele><time>2026-04-07T13:11:43.559Z</time></trkpt><trkpt lat="45.6493693" lon="11.6898031"><ele>52.66666666666667</ele><time>2026-04-07T13:11:44.574Z</time></trkpt><trkpt lat="45.6492154" lon="11.6898432"><ele>52.33333333333333</ele><time>2026-04-07T13:11:45.552Z</time></trkpt><trkpt lat="45.6490608" lon="11.6898646"><ele>52.0</ele><time>2026-04-07T13:11:46.551Z</time></trkpt><trkpt lat="45.6489199" lon="11.6898759"><ele>52.0</ele><time>2026-04-07T13:11:47.561Z</time></trkpt><trkpt lat="45.6487989" lon="11.6899014"><ele>52.0</ele><time>2026-04-07T13:11:48.563Z</time></trkpt><trkpt lat="45.6487004" lon="11.6899247"><ele>52.0</ele><time>2026-04-07T13:11:49.557Z</time></trkpt><trkpt lat="45.6486257" lon="11.6899395"><ele>52.0</ele><time>2026-04-07T13:11:50.559Z</time></trkpt><trkpt lat="45.6485559" lon="11.6899384"><ele>52.0</ele><time>2026-04-07T13:11:51.567Z</time></trkpt><trkpt lat="45.6484665" lon="11.6899264"><ele>51.5</ele><time>2026-04-07T13:11:52.555Z</time></trkpt><trkpt lat="45.6483661" lon="11.689947"><ele>51.0</ele><time>2026-04-07T13:11:53.555Z</time></trkpt><trkpt lat="45.6482499" lon="11.6899529"><ele>50.5</ele><time>2026-04-07T13:11:54.555Z</time></trkpt><trkpt lat="45.6481264" lon="11.6899518"><ele>50.0</ele><time>2026-04-07T13:11:55.559Z</time></trkpt><trkpt lat="45.6480147" lon="11.6899561"><ele>50.00000000000001</ele><time>2026-04-07T13:11:56.558Z</time></trkpt><trkpt lat="45.6479237" lon="11.6899578"><ele>50.0</ele><time>2026-04-07T13:11:57.555Z</time></trkpt><trkpt lat="45.6478385" lon="11.6899649"><ele>50.0</ele><time>2026-04-07T13:11:58.56Z</time></trkpt><trkpt lat="45.6477658" lon="11.6899671"><ele>50.0</ele><time>2026-04-07T13:11:59.557Z</time></trkpt><trkpt lat="45.6476795" lon="11.6899721"><ele>50.00000000000001</ele><time>2026-04-07T13:12:01.556Z</time></trkpt><trkpt lat="45.6476136" lon="11.6900424"><ele>50.0</ele><time>2026-04-07T13:12:05.584Z</time></trkpt><trkpt lat="45.6475965" lon="11.6901359"><ele>50.2</ele><time>2026-04-07T13:12:06.557Z</time></trkpt><trkpt lat="45.6475886" lon="11.6902409"><ele>50.4</ele><time>2026-04-07T13:12:07.557Z</time></trkpt><trkpt lat="45.6475794" lon="11.6903474"><ele>50.599999999999994</ele><time>2026-04-07T13:12:08.561Z</time></trkpt><trkpt lat="45.6475763" lon="11.6904654"><ele>50.8</ele><time>2026-04-07T13:12:09.564Z</time></trkpt><trkpt lat="45.6475831" lon="11.6906188"><ele>51.0</ele><time>2026-04-07T13:12:10.562Z</time></trkpt><trkpt lat="45.6475824" lon="11.6907911"><ele>51.0</ele><time>2026-04-07T13:12:11.566Z</time></trkpt><trkpt lat="45.6475796" lon="11.6909897"><ele>51.0</ele><time>2026-04-07T13:12:12.561Z</time></trkpt><trkpt lat="45.64757" lon="11.6912182"><ele>51.0</ele><time>2026-04-07T13:12:13.566Z</time></trkpt><trkpt lat="45.6475668" lon="11.6914425"><ele>51.33333333333333</ele><time>2026-04-07T13:12:14.565Z</time></trkpt><trkpt lat="45.6475751" lon="11.6917346"><ele>51.666666666666664</ele><time>2026-04-07T13:12:15.562Z</time></trkpt><trkpt lat="45.6475997" lon="11.6920064"><ele>52.0</ele><time>2026-04-07T13:12:16.569Z</time></trkpt><trkpt lat="45.6476197" lon="11.6922458"><ele>51.33333333333333</ele><time>2026-04-07T13:12:17.563Z</time></trkpt><trkpt lat="45.6476548" lon="11.6924848"><ele>50.66666666666667</ele><time>2026-04-07T13:12:18.561Z</time></trkpt><trkpt lat="45.6476758" lon="11.6926779"><ele>50.0</ele><time>2026-04-07T13:12:19.561Z</time></trkpt><trkpt lat="45.6477158" lon="11.6928877"><ele>49.75</ele><time>2026-04-07T13:12:20.563Z</time></trkpt><trkpt lat="45.6477417" lon="11.6930673"><ele>49.5</ele><time>2026-04-07T13:12:21.554Z</time></trkpt><trkpt lat="45.6477579" lon="11.6932321"><ele>49.25</ele><time>2026-04-07T13:12:22.561Z</time></trkpt><trkpt lat="45.6477664" lon="11.6934146"><ele>49.0</ele><time>2026-04-07T13:12:23.553Z</time></trkpt><trkpt lat="45.6477632" lon="11.693612"><ele>49.666666666666664</ele><time>2026-04-07T13:12:24.557Z</time></trkpt><trkpt lat="45.6477745" lon="11.6938129"><ele>50.33333333333333</ele><time>2026-04-07T13:12:25.558Z</time></trkpt><trkpt lat="45.6477853" lon="11.6940438"><ele>51.0</ele><time>2026-04-07T13:12:26.563Z</time></trkpt><trkpt lat="45.6477876" lon="11.6942869"><ele>50.5</ele><time>2026-04-07T13:12:27.564Z</time></trkpt><trkpt lat="45.6478041" lon="11.694482"><ele>50.0</ele><time>2026-04-07T13:12:28.564Z</time></trkpt><trkpt lat="45.6478299" lon="11.6946651"><ele>49.5</ele><time>2026-04-07T13:12:29.565Z</time></trkpt><trkpt lat="45.6478575" lon="11.6948592"><ele>49.0</ele><time>2026-04-07T13:12:30.557Z</time></trkpt><trkpt lat="45.6478683" lon="11.6950558"><ele>49.5</ele><time>2026-04-07T13:12:31.566Z</time></trkpt><trkpt lat="45.6478735" lon="11.6952748"><ele>50.0</ele><time>2026-04-07T13:12:32.563Z</time></trkpt><trkpt lat="45.647895" lon="11.6954637"><ele>50.5</ele><time>2026-04-07T13:12:33.563Z</time></trkpt><trkpt lat="45.6479206" lon="11.6956553"><ele>51.0</ele><time>2026-04-07T13:12:34.566Z</time></trkpt><trkpt lat="45.647955" lon="11.6958565"><ele>51.0</ele><time>2026-04-07T13:12:35.557Z</time></trkpt><trkpt lat="45.6480308" lon="11.6960144"><ele>51.0</ele><time>2026-04-07T13:12:36.563Z</time></trkpt><trkpt lat="45.6481275" lon="11.6961805"><ele>51.0</ele><time>2026-04-07T13:12:37.563Z</time></trkpt><trkpt lat="45.6482128" lon="11.6963122"><ele>51.0</ele><time>2026-04-07T13:12:38.566Z</time></trkpt><trkpt lat="45.6482644" lon="11.6964539"><ele>51.0</ele><time>2026-04-07T13:12:39.569Z</time></trkpt><trkpt lat="45.6483059" lon="11.696575"><ele>51.0</ele><time>2026-04-07T13:12:40.558Z</time></trkpt><trkpt lat="45.6483316" lon="11.6966907"><ele>51.0</ele><time>2026-04-07T13:12:41.558Z</time></trkpt><trkpt lat="45.6483117" lon="11.6968089"><ele>51.0</ele><time>2026-04-07T13:12:42.558Z</time></trkpt><trkpt lat="45.6482863" lon="11.6969864"><ele>51.0</ele><time>2026-04-07T13:12:43.552Z</time></trkpt><trkpt lat="45.6482682" lon="11.6971496"><ele>51.0</ele><time>2026-04-07T13:12:44.553Z</time></trkpt><trkpt lat="45.6481879" lon="11.6973032"><ele>51.0</ele><time>2026-04-07T13:12:45.595Z</time></trkpt><trkpt lat="45.6480835" lon="11.6973965"><ele>51.0</ele><time>2026-04-07T13:12:46.597Z</time></trkpt><trkpt lat="45.6479367" lon="11.6974563"><ele>51.0</ele><time>2026-04-07T13:12:47.572Z</time></trkpt><trkpt lat="45.6477917" lon="11.6975112"><ele>50.33333333333333</ele><time>2026-04-07T13:12:48.58Z</time></trkpt><trkpt lat="45.6476026" lon="11.6975355"><ele>49.666666666666664</ele><time>2026-04-07T13:12:49.561Z</time></trkpt><trkpt lat="45.6474166" lon="11.6975782"><ele>49.0</ele><time>2026-04-07T13:12:50.58Z</time></trkpt><trkpt lat="45.6472265" lon="11.6976406"><ele>49.0</ele><time>2026-04-07T13:12:51.558Z</time></trkpt><trkpt lat="45.6470293" lon="11.697721"><ele>49.0</ele><time>2026-04-07T13:12:52.561Z</time></trkpt><trkpt lat="45.6468427" lon="11.6978019"><ele>49.0</ele><time>2026-04-07T13:12:53.559Z</time></trkpt><trkpt lat="45.6466563" lon="11.6978523"><ele>49.33333333333333</ele><time>2026-04-07T13:12:54.559Z</time></trkpt><trkpt lat="45.6464787" lon="11.6978917"><ele>49.66666666666667</ele><time>2026-04-07T13:12:55.603Z</time></trkpt><trkpt lat="45.6463088" lon="11.6979286"><ele>50.0</ele><time>2026-04-07T13:12:56.603Z</time></trkpt><trkpt lat="45.6461017" lon="11.6980199"><ele>50.0</ele><time>2026-04-07T13:12:57.603Z</time></trkpt><trkpt lat="45.6459063" lon="11.6980734"><ele>50.0</ele><time>2026-04-07T13:12:58.599Z</time></trkpt><trkpt lat="45.6457266" lon="11.6981189"><ele>50.0</ele><time>2026-04-07T13:12:59.554Z</time></trkpt><trkpt lat="45.645553" lon="11.698123"><ele>50.0</ele><time>2026-04-07T13:13:00.549Z</time></trkpt><trkpt lat="45.6453775" lon="11.6980779"><ele>50.0</ele><time>2026-04-07T13:13:01.557Z</time></trkpt><trkpt lat="45.6452055" lon="11.6980105"><ele>50.0</ele><time>2026-04-07T13:13:02.561Z</time></trkpt><trkpt lat="45.6450206" lon="11.6979585"><ele>49.333333333333336</ele><time>2026-04-07T13:13:03.553Z</time></trkpt><trkpt lat="45.6448195" lon="11.6979562"><ele>48.66666666666667</ele><time>2026-04-07T13:13:04.55Z</time></trkpt><trkpt lat="45.6446272" lon="11.6979817"><ele>48.0</ele><time>2026-04-07T13:13:05.559Z</time></trkpt><trkpt lat="45.6444459" lon="11.6980146"><ele>48.0</ele><time>2026-04-07T13:13:06.564Z</time></trkpt><trkpt lat="45.6442709" lon="11.6981217"><ele>48.0</ele><time>2026-04-07T13:13:07.56Z</time></trkpt><trkpt lat="45.6441141" lon="11.6982158"><ele>48.0</ele><time>2026-04-07T13:13:08.556Z</time></trkpt><trkpt lat="45.6439405" lon="11.698347"><ele>48.0</ele><time>2026-04-07T13:13:09.551Z</time></trkpt><trkpt lat="45.6437557" lon="11.6985271"><ele>48.0</ele><time>2026-04-07T13:13:10.56Z</time></trkpt><trkpt lat="45.6435773" lon="11.6987156"><ele>48.0</ele><time>2026-04-07T13:13:11.559Z</time></trkpt><trkpt lat="45.6434139" lon="11.698915"><ele>48.0</ele><time>2026-04-07T13:13:12.556Z</time></trkpt><trkpt lat="45.6432449" lon="11.6991468"><ele>48.0</ele><time>2026-04-07T13:13:13.557Z</time></trkpt><trkpt lat="45.6431091" lon="11.6993575"><ele>48.0</ele><time>2026-04-07T13:13:14.578Z</time></trkpt><trkpt lat="45.6429425" lon="11.6995412"><ele>48.33333333333333</ele><time>2026-04-07T13:13:15.551Z</time></trkpt><trkpt lat="45.6427852" lon="11.69969"><ele>48.666666666666664</ele><time>2026-04-07T13:13:16.551Z</time></trkpt><trkpt lat="45.6426318" lon="11.6998499"><ele>49.0</ele><time>2026-04-07T13:13:17.547Z</time></trkpt><trkpt lat="45.642501" lon="11.6999935"><ele>49.0</ele><time>2026-04-07T13:13:18.551Z</time></trkpt><trkpt lat="45.6423708" lon="11.7001066"><ele>49.0</ele><time>2026-04-07T13:13:19.555Z</time></trkpt><trkpt lat="45.6422454" lon="11.7002299"><ele>49.0</ele><time>2026-04-07T13:13:20.579Z</time></trkpt><trkpt lat="45.6421215" lon="11.7003665"><ele>47.666666666666664</ele><time>2026-04-07T13:13:21.56Z</time></trkpt><trkpt lat="45.6419496" lon="11.7004177"><ele>46.33333333333333</ele><time>2026-04-07T13:13:22.558Z</time></trkpt><trkpt lat="45.6417584" lon="11.7004339"><ele>45.0</ele><time>2026-04-07T13:13:23.557Z</time></trkpt><trkpt lat="45.6415736" lon="11.7003874"><ele>45.0</ele><time>2026-04-07T13:13:24.561Z</time></trkpt><trkpt lat="45.6413755" lon="11.700368"><ele>45.0</ele><time>2026-04-07T13:13:25.56Z</time></trkpt><trkpt lat="45.6411686" lon="11.7004045"><ele>45.0</ele><time>2026-04-07T13:13:26.563Z</time></trkpt><trkpt lat="45.6409513" lon="11.7004824"><ele>45.0</ele><time>2026-04-07T13:13:27.56Z</time></trkpt><trkpt lat="45.6407541" lon="11.7005589"><ele>45.0</ele><time>2026-04-07T13:13:28.574Z</time></trkpt><trkpt lat="45.640556" lon="11.7006641"><ele>45.0</ele><time>2026-04-07T13:13:29.561Z</time></trkpt><trkpt lat="45.6403901" lon="11.7007721"><ele>45.333333333333336</ele><time>2026-04-07T13:13:30.561Z</time></trkpt><trkpt lat="45.6402351" lon="11.7008831"><ele>45.66666666666667</ele><time>2026-04-07T13:13:31.567Z</time></trkpt><trkpt lat="45.6400979" lon="11.7009721"><ele>46.0</ele><time>2026-04-07T13:13:32.562Z</time></trkpt><trkpt lat="45.6399646" lon="11.7010564"><ele>46.0</ele><time>2026-04-07T13:13:33.563Z</time></trkpt><trkpt lat="45.6398628" lon="11.7011387"><ele>46.0</ele><time>2026-04-07T13:13:34.567Z</time></trkpt><trkpt lat="45.6397636" lon="11.7012269"><ele>46.0</ele><time>2026-04-07T13:13:35.566Z</time></trkpt><trkpt lat="45.6396724" lon="11.7012627"><ele>46.0</ele><time>2026-04-07T13:13:36.569Z</time></trkpt><trkpt lat="45.6395532" lon="11.7012466"><ele>46.0</ele><time>2026-04-07T13:13:37.573Z</time></trkpt><trkpt lat="45.6394059" lon="11.7012209"><ele>46.0</ele><time>2026-04-07T13:13:38.56Z</time></trkpt><trkpt lat="45.6392664" lon="11.7011919"><ele>46.0</ele><time>2026-04-07T13:13:39.569Z</time></trkpt><trkpt lat="45.6390968" lon="11.7011597"><ele>46.0</ele><time>2026-04-07T13:13:40.575Z</time></trkpt><trkpt lat="45.6389093" lon="11.7011276"><ele>46.0</ele><time>2026-04-07T13:13:41.568Z</time></trkpt><trkpt lat="45.6386786" lon="11.7011002"><ele>46.0</ele><time>2026-04-07T13:13:42.568Z</time></trkpt><trkpt lat="45.6384587" lon="11.7010558"><ele>45.5</ele><time>2026-04-07T13:13:43.574Z</time></trkpt><trkpt lat="45.6382525" lon="11.7010075"><ele>45.0</ele><time>2026-04-07T13:13:44.571Z</time></trkpt><trkpt lat="45.6379882" lon="11.7009857"><ele>45.5</ele><time>2026-04-07T13:13:45.574Z</time></trkpt><trkpt lat="45.6377545" lon="11.701022"><ele>46.0</ele><time>2026-04-07T13:13:46.57Z</time></trkpt><trkpt lat="45.6375187" lon="11.7010724"><ele>45.66666666666667</ele><time>2026-04-07T13:13:47.565Z</time></trkpt><trkpt lat="45.6373099" lon="11.7011432"><ele>45.333333333333336</ele><time>2026-04-07T13:13:48.595Z</time></trkpt><trkpt lat="45.6371223" lon="11.7012481"><ele>45.0</ele><time>2026-04-07T13:13:49.566Z</time></trkpt><trkpt lat="45.6369578" lon="11.70135"><ele>44.666666666666664</ele><time>2026-04-07T13:13:50.564Z</time></trkpt><trkpt lat="45.6367857" lon="11.701454"><ele>44.33333333333333</ele><time>2026-04-07T13:13:51.567Z</time></trkpt><trkpt lat="45.6366225" lon="11.7015291"><ele>44.0</ele><time>2026-04-07T13:13:52.565Z</time></trkpt><trkpt lat="45.6364472" lon="11.701595"><ele>44.0</ele><time>2026-04-07T13:13:53.57Z</time></trkpt><trkpt lat="45.6362615" lon="11.7016571"><ele>44.0</ele><time>2026-04-07T13:13:54.573Z</time></trkpt><trkpt lat="45.6360354" lon="11.7016969"><ele>44.0</ele><time>2026-04-07T13:13:55.57Z</time></trkpt><trkpt lat="45.6358302" lon="11.7017488"><ele>44.33333333333333</ele><time>2026-04-07T13:13:56.559Z</time></trkpt><trkpt lat="45.6356165" lon="11.7018162"><ele>44.666666666666664</ele><time>2026-04-07T13:13:57.568Z</time></trkpt><trkpt lat="45.6354156" lon="11.7018811"><ele>45.0</ele><time>2026-04-07T13:13:58.567Z</time></trkpt><trkpt lat="45.6352192" lon="11.701959"><ele>44.333333333333336</ele><time>2026-04-07T13:13:59.574Z</time></trkpt><trkpt lat="45.635021" lon="11.702027"><ele>43.66666666666667</ele><time>2026-04-07T13:14:00.572Z</time></trkpt><trkpt lat="45.6348087" lon="11.7021033"><ele>43.0</ele><time>2026-04-07T13:14:01.571Z</time></trkpt><trkpt lat="45.6345865" lon="11.7021483"><ele>43.0</ele><time>2026-04-07T13:14:02.572Z</time></trkpt><trkpt lat="45.6343759" lon="11.7021943"><ele>43.0</ele><time>2026-04-07T13:14:03.582Z</time></trkpt><trkpt lat="45.6341694" lon="11.7022638"><ele>43.0</ele><time>2026-04-07T13:14:04.568Z</time></trkpt><trkpt lat="45.633969" lon="11.7023185"><ele>43.0</ele><time>2026-04-07T13:14:05.568Z</time></trkpt><trkpt lat="45.6337825" lon="11.7023647"><ele>43.0</ele><time>2026-04-07T13:14:06.566Z</time></trkpt><trkpt lat="45.6336499" lon="11.7024137"><ele>43.0</ele><time>2026-04-07T13:14:07.569Z</time></trkpt><trkpt lat="45.6335007" lon="11.7024812"><ele>43.333333333333336</ele><time>2026-04-07T13:14:08.58Z</time></trkpt><trkpt lat="45.6333348" lon="11.7025453"><ele>43.666666666666664</ele><time>2026-04-07T13:14:09.571Z</time></trkpt><trkpt lat="45.6331523" lon="11.7025892"><ele>44.0</ele><time>2026-04-07T13:14:10.568Z</time></trkpt><trkpt lat="45.6329688" lon="11.702635"><ele>44.0</ele><time>2026-04-07T13:14:11.571Z</time></trkpt><trkpt lat="45.6327833" lon="11.7026908"><ele>44.0</ele><time>2026-04-07T13:14:12.568Z</time></trkpt><trkpt lat="45.6325894" lon="11.7027336"><ele>44.0</ele><time>2026-04-07T13:14:13.567Z</time></trkpt><trkpt lat="45.6324015" lon="11.7027886"><ele>44.0</ele><time>2026-04-07T13:14:14.571Z</time></trkpt><trkpt lat="45.6322123" lon="11.7028625"><ele>44.0</ele><time>2026-04-07T13:14:15.569Z</time></trkpt><trkpt lat="45.6320436" lon="11.702913"><ele>44.0</ele><time>2026-04-07T13:14:16.57Z</time></trkpt><trkpt lat="45.631875" lon="11.7029403"><ele>44.25</ele><time>2026-04-07T13:14:17.569Z</time></trkpt><trkpt lat="45.6317357" lon="11.7029654"><ele>44.5</ele><time>2026-04-07T13:14:18.568Z</time></trkpt><trkpt lat="45.631597" lon="11.7029926"><ele>44.75</ele><time>2026-04-07T13:14:19.568Z</time></trkpt><trkpt lat="45.6314704" lon="11.7030416"><ele>45.0</ele><time>2026-04-07T13:14:20.56Z</time></trkpt><trkpt lat="45.6313484" lon="11.7030743"><ele>45.0</ele><time>2026-04-07T13:14:21.559Z</time></trkpt><trkpt lat="45.6312117" lon="11.7030571"><ele>45.0</ele><time>2026-04-07T13:14:22.563Z</time></trkpt><trkpt lat="45.6310693" lon="11.7030331"><ele>45.0</ele><time>2026-04-07T13:14:23.56Z</time></trkpt><trkpt lat="45.6309079" lon="11.7029693"><ele>45.0</ele><time>2026-04-07T13:14:24.565Z</time></trkpt><trkpt lat="45.6307821" lon="11.7028539"><ele>44.75</ele><time>2026-04-07T13:14:25.577Z</time></trkpt><trkpt lat="45.630669" lon="11.7027932"><ele>44.5</ele><time>2026-04-07T13:14:26.606Z</time></trkpt><trkpt lat="45.6305477" lon="11.7027423"><ele>44.25</ele><time>2026-04-07T13:14:27.602Z</time></trkpt><trkpt lat="45.6304329" lon="11.7026505"><ele>44.0</ele><time>2026-04-07T13:14:28.552Z</time></trkpt><trkpt lat="45.6303302" lon="11.7025974"><ele>44.0</ele><time>2026-04-07T13:14:29.555Z</time></trkpt><trkpt lat="45.6302378" lon="11.7025522"><ele>44.0</ele><time>2026-04-07T13:14:30.553Z</time></trkpt><trkpt lat="45.6301302" lon="11.7025156"><ele>44.0</ele><time>2026-04-07T13:14:31.575Z</time></trkpt><trkpt lat="45.6299987" lon="11.7024623"><ele>44.0</ele><time>2026-04-07T13:14:32.561Z</time></trkpt><trkpt lat="45.6298536" lon="11.7024004"><ele>44.0</ele><time>2026-04-07T13:14:33.553Z</time></trkpt><trkpt lat="45.6297189" lon="11.7023597"><ele>44.0</ele><time>2026-04-07T13:14:34.559Z</time></trkpt><trkpt lat="45.6295766" lon="11.7023123"><ele>44.0</ele><time>2026-04-07T13:14:35.554Z</time></trkpt><trkpt lat="45.629468" lon="11.7022958"><ele>44.0</ele><time>2026-04-07T13:14:36.559Z</time></trkpt><trkpt lat="45.6293389" lon="11.702268"><ele>43.800000000000004</ele><time>2026-04-07T13:14:37.553Z</time></trkpt><trkpt lat="45.6292293" lon="11.7022644"><ele>43.6</ele><time>2026-04-07T13:14:38.551Z</time></trkpt><trkpt lat="45.6291388" lon="11.7022332"><ele>43.4</ele><time>2026-04-07T13:14:39.547Z</time></trkpt><trkpt lat="45.6290627" lon="11.7022246"><ele>43.2</ele><time>2026-04-07T13:14:40.552Z</time></trkpt><trkpt lat="45.6289495" lon="11.7021892"><ele>43.0</ele><time>2026-04-07T13:14:46.56Z</time></trkpt><trkpt lat="45.628883" lon="11.7022027"><ele>43.0</ele><time>2026-04-07T13:14:47.577Z</time></trkpt><trkpt lat="45.6288236" lon="11.7023009"><ele>43.0</ele><time>2026-04-07T13:14:48.571Z</time></trkpt><trkpt lat="45.6287656" lon="11.7024065"><ele>43.0</ele><time>2026-04-07T13:14:49.57Z</time></trkpt><trkpt lat="45.6287162" lon="11.7025278"><ele>43.0</ele><time>2026-04-07T13:14:50.569Z</time></trkpt><trkpt lat="45.6286362" lon="11.7026569"><ele>43.0</ele><time>2026-04-07T13:14:51.553Z</time></trkpt><trkpt lat="45.6285635" lon="11.7027999"><ele>43.0</ele><time>2026-04-07T13:14:52.555Z</time></trkpt><trkpt lat="45.6284911" lon="11.7029272"><ele>43.0</ele><time>2026-04-07T13:14:53.579Z</time></trkpt><trkpt lat="45.6284014" lon="11.703063"><ele>43.0</ele><time>2026-04-07T13:14:54.554Z</time></trkpt><trkpt lat="45.6283027" lon="11.7032045"><ele>43.0</ele><time>2026-04-07T13:14:55.575Z</time></trkpt><trkpt lat="45.6281764" lon="11.7034391"><ele>43.0</ele><time>2026-04-07T13:14:56.552Z</time></trkpt><trkpt lat="45.6280492" lon="11.7036527"><ele>43.0</ele><time>2026-04-07T13:14:57.557Z</time></trkpt><trkpt lat="45.6279219" lon="11.7038086"><ele>43.0</ele><time>2026-04-07T13:14:58.552Z</time></trkpt><trkpt lat="45.6277954" lon="11.7039311"><ele>42.75</ele><time>2026-04-07T13:14:59.578Z</time></trkpt><trkpt lat="45.6277038" lon="11.7041054"><ele>42.5</ele><time>2026-04-07T13:15:00.554Z</time></trkpt><trkpt lat="45.6276202" lon="11.7042498"><ele>42.25</ele><time>2026-04-07T13:15:01.572Z</time></trkpt><trkpt lat="45.6275328" lon="11.7044024"><ele>42.0</ele><time>2026-04-07T13:15:02.551Z</time></trkpt><trkpt lat="45.6274236" lon="11.7045506"><ele>42.0</ele><time>2026-04-07T13:15:03.554Z</time></trkpt><trkpt lat="45.6273176" lon="11.7046947"><ele>42.0</ele><time>2026-04-07T13:15:04.549Z</time></trkpt><trkpt lat="45.6272133" lon="11.7048443"><ele>42.0</ele><time>2026-04-07T13:15:05.551Z</time></trkpt><trkpt lat="45.6271163" lon="11.7050055"><ele>42.0</ele><time>2026-04-07T13:15:06.555Z</time></trkpt><trkpt lat="45.6269981" lon="11.7051455"><ele>41.666666666666664</ele><time>2026-04-07T13:15:07.553Z</time></trkpt><trkpt lat="45.6269034" lon="11.7053382"><ele>41.33333333333333</ele><time>2026-04-07T13:15:08.549Z</time></trkpt><trkpt lat="45.626814" lon="11.7055243"><ele>41.0</ele><time>2026-04-07T13:15:09.557Z</time></trkpt><trkpt lat="45.6267132" lon="11.7056866"><ele>41.0</ele><time>2026-04-07T13:15:10.555Z</time></trkpt><trkpt lat="45.6266008" lon="11.7058636"><ele>41.0</ele><time>2026-04-07T13:15:11.547Z</time></trkpt><trkpt lat="45.6264855" lon="11.7060155"><ele>41.0</ele><time>2026-04-07T13:15:12.571Z</time></trkpt><trkpt lat="45.62639" lon="11.7061653"><ele>41.0</ele><time>2026-04-07T13:15:13.545Z</time></trkpt><trkpt lat="45.6263124" lon="11.7062451"><ele>41.0</ele><time>2026-04-07T13:15:14.554Z</time></trkpt><trkpt lat="45.626251" lon="11.7062908"><ele>41.0</ele><time>2026-04-07T13:15:15.554Z</time></trkpt><trkpt lat="45.626173" lon="11.7063059"><ele>41.0</ele><time>2026-04-07T13:15:16.585Z</time></trkpt><trkpt lat="45.626058" lon="11.7064158"><ele>41.0</ele><time>2026-04-07T13:15:18.563Z</time></trkpt><trkpt lat="45.6260155" lon="11.7065259"><ele>41.0</ele><time>2026-04-07T13:15:19.562Z</time></trkpt><trkpt lat="45.6259954" lon="11.7066374"><ele>41.0</ele><time>2026-04-07T13:15:20.556Z</time></trkpt><trkpt lat="45.6259888" lon="11.7067777"><ele>41.0</ele><time>2026-04-07T13:15:21.558Z</time></trkpt><trkpt lat="45.6259812" lon="11.7069163"><ele>41.0</ele><time>2026-04-07T13:15:22.551Z</time></trkpt><trkpt lat="45.6259497" lon="11.7070489"><ele>41.0</ele><time>2026-04-07T13:15:23.572Z</time></trkpt><trkpt lat="45.6258919" lon="11.7071949"><ele>41.25</ele><time>2026-04-07T13:15:24.557Z</time></trkpt><trkpt lat="45.625826" lon="11.7073089"><ele>41.5</ele><time>2026-04-07T13:15:25.542Z</time></trkpt><trkpt lat="45.6257748" lon="11.7074642"><ele>41.75</ele><time>2026-04-07T13:15:26.546Z</time></trkpt><trkpt lat="45.6256787" lon="11.7076206"><ele>42.0</ele><time>2026-04-07T13:15:27.547Z</time></trkpt><trkpt lat="45.6255633" lon="11.7077666"><ele>42.25</ele><time>2026-04-07T13:15:28.548Z</time></trkpt><trkpt lat="45.6254569" lon="11.7078828"><ele>42.5</ele><time>2026-04-07T13:15:29.548Z</time></trkpt><trkpt lat="45.6253418" lon="11.7080091"><ele>42.75</ele><time>2026-04-07T13:15:30.547Z</time></trkpt><trkpt lat="45.625246" lon="11.7081471"><ele>43.0</ele><time>2026-04-07T13:15:31.548Z</time></trkpt><trkpt lat="45.6251274" lon="11.7082886"><ele>42.66666666666667</ele><time>2026-04-07T13:15:32.544Z</time></trkpt><trkpt lat="45.6250226" lon="11.7084631"><ele>42.333333333333336</ele><time>2026-04-07T13:15:33.542Z</time></trkpt><trkpt lat="45.6248783" lon="11.7086628"><ele>42.0</ele><time>2026-04-07T13:15:34.546Z</time></trkpt><trkpt lat="45.6247678" lon="11.7088422"><ele>42.0</ele><time>2026-04-07T13:15:35.548Z</time></trkpt><trkpt lat="45.6246479" lon="11.7090635"><ele>42.0</ele><time>2026-04-07T13:15:36.552Z</time></trkpt><trkpt lat="45.6245405" lon="11.7093027"><ele>42.0</ele><time>2026-04-07T13:15:37.545Z</time></trkpt><trkpt lat="45.6244278" lon="11.7095586"><ele>42.5</ele><time>2026-04-07T13:15:38.543Z</time></trkpt><trkpt lat="45.6242813" lon="11.7098077"><ele>43.0</ele><time>2026-04-07T13:15:39.547Z</time></trkpt><trkpt lat="45.624116" lon="11.7100381"><ele>42.333333333333336</ele><time>2026-04-07T13:15:40.57Z</time></trkpt><trkpt lat="45.6239804" lon="11.710258"><ele>41.666666666666664</ele><time>2026-04-07T13:15:41.565Z</time></trkpt><trkpt lat="45.6238409" lon="11.7104688"><ele>41.0</ele><time>2026-04-07T13:15:42.55Z</time></trkpt><trkpt lat="45.6237083" lon="11.7106974"><ele>41.0</ele><time>2026-04-07T13:15:43.572Z</time></trkpt><trkpt lat="45.6235778" lon="11.7108883"><ele>41.0</ele><time>2026-04-07T13:15:44.571Z</time></trkpt><trkpt lat="45.6234361" lon="11.7110602"><ele>41.0</ele><time>2026-04-07T13:15:45.569Z</time></trkpt><trkpt lat="45.6232993" lon="11.7111924"><ele>41.0</ele><time>2026-04-07T13:15:46.556Z</time></trkpt><trkpt lat="45.6231615" lon="11.7113336"><ele>41.0</ele><time>2026-04-07T13:15:47.561Z</time></trkpt><trkpt lat="45.6230184" lon="11.7115006"><ele>41.0</ele><time>2026-04-07T13:15:48.555Z</time></trkpt><trkpt lat="45.6229035" lon="11.7116863"><ele>41.33333333333333</ele><time>2026-04-07T13:15:49.55Z</time></trkpt><trkpt lat="45.6227739" lon="11.7118879"><ele>41.666666666666664</ele><time>2026-04-07T13:15:50.556Z</time></trkpt><trkpt lat="45.6226595" lon="11.7120437"><ele>42.0</ele><time>2026-04-07T13:15:51.554Z</time></trkpt><trkpt lat="45.6224655" lon="11.7122501"><ele>42.0</ele><time>2026-04-07T13:15:52.555Z</time></trkpt><trkpt lat="45.6223211" lon="11.7124156"><ele>42.0</ele><time>2026-04-07T13:15:53.633Z</time></trkpt><trkpt lat="45.6222165" lon="11.7126507"><ele>42.0</ele><time>2026-04-07T13:15:54.573Z</time></trkpt><trkpt lat="45.6220942" lon="11.7128401"><ele>41.666666666666664</ele><time>2026-04-07T13:15:55.553Z</time></trkpt><trkpt lat="45.6219408" lon="11.7130322"><ele>41.33333333333333</ele><time>2026-04-07T13:15:56.543Z</time></trkpt><trkpt lat="45.6217993" lon="11.7132125"><ele>41.0</ele><time>2026-04-07T13:15:57.543Z</time></trkpt><trkpt lat="45.621662" lon="11.713386"><ele>41.0</ele><time>2026-04-07T13:15:58.577Z</time></trkpt><trkpt lat="45.6215079" lon="11.7135049"><ele>41.0</ele><time>2026-04-07T13:15:59.568Z</time></trkpt><trkpt lat="45.6214058" lon="11.713533"><ele>41.0</ele><time>2026-04-07T13:16:00.571Z</time></trkpt><trkpt lat="45.6213076" lon="11.7136114"><ele>41.0</ele><time>2026-04-07T13:16:01.578Z</time></trkpt><trkpt lat="45.621233" lon="11.7136264"><ele>41.0</ele><time>2026-04-07T13:16:02.602Z</time></trkpt><trkpt lat="45.6211554" lon="11.7136078"><ele>41.0</ele><time>2026-04-07T13:16:03.578Z</time></trkpt><trkpt lat="45.621121" lon="11.7135286"><ele>41.0</ele><time>2026-04-07T13:16:04.578Z</time></trkpt><trkpt lat="45.6211572" lon="11.7134265"><ele>41.0</ele><time>2026-04-07T13:16:05.569Z</time></trkpt><trkpt lat="45.6211917" lon="11.7133365"><ele>41.0</ele><time>2026-04-07T13:16:06.571Z</time></trkpt><trkpt lat="45.6212677" lon="11.7132707"><ele>41.0</ele><time>2026-04-07T13:16:07.575Z</time></trkpt><trkpt lat="45.6213683" lon="11.713134"><ele>41.0</ele><time>2026-04-07T13:16:08.591Z</time></trkpt><trkpt lat="45.6213636" lon="11.7130355"><ele>41.0</ele><time>2026-04-07T13:16:09.565Z</time></trkpt><trkpt lat="45.6213512" lon="11.7129105"><ele>41.0</ele><time>2026-04-07T13:16:10.547Z</time></trkpt><trkpt lat="45.6213205" lon="11.7127734"><ele>41.0</ele><time>2026-04-07T13:16:11.705Z</time></trkpt><trkpt lat="45.6212459" lon="11.7124807"><ele>41.199999999999996</ele><time>2026-04-07T13:16:13.557Z</time></trkpt><trkpt lat="45.6212679" lon="11.7123335"><ele>41.4</ele><time>2026-04-07T13:16:15.534Z</time></trkpt><trkpt lat="45.6212105" lon="11.7122304"><ele>41.6</ele><time>2026-04-07T13:16:18.584Z</time></trkpt><trkpt lat="45.6211424" lon="11.712186"><ele>41.8</ele><time>2026-04-07T13:16:21.547Z</time></trkpt><trkpt lat="45.6210688" lon="11.7122285"><ele>42.0</ele><time>2026-04-07T13:16:22.543Z</time></trkpt><trkpt lat="45.6209489" lon="11.7123104"><ele>42.0</ele><time>2026-04-07T13:16:23.54Z</time></trkpt><trkpt lat="45.620847" lon="11.7123377"><ele>42.0</ele><time>2026-04-07T13:16:24.538Z</time></trkpt><trkpt lat="45.6207513" lon="11.7124056"><ele>42.0</ele><time>2026-04-07T13:16:25.544Z</time></trkpt><trkpt lat="45.6206452" lon="11.7124819"><ele>42.0</ele><time>2026-04-07T13:16:26.556Z</time></trkpt><trkpt lat="45.6205402" lon="11.712525"><ele>42.0</ele><time>2026-04-07T13:16:27.532Z</time></trkpt><trkpt lat="45.6204193" lon="11.712558"><ele>42.0</ele><time>2026-04-07T13:16:28.526Z</time></trkpt><trkpt lat="45.6203451" lon="11.712588"><ele>42.0</ele><time>2026-04-07T13:16:29.526Z</time></trkpt><trkpt lat="45.6202383" lon="11.7126716"><ele>42.0</ele><time>2026-04-07T13:16:30.532Z</time></trkpt><trkpt lat="45.6201453" lon="11.7127223"><ele>42.0</ele><time>2026-04-07T13:16:31.704Z</time></trkpt><trkpt lat="45.6200807" lon="11.7127539"><ele>42.0</ele><time>2026-04-07T13:16:32.784Z</time></trkpt><trkpt lat="45.6200078" lon="11.7127841"><ele>42.0</ele><time>2026-04-07T13:16:33.705Z</time></trkpt><trkpt lat="45.6198537" lon="11.7127572"><ele>41.714285714285715</ele><time>2026-04-07T13:16:35.575Z</time></trkpt><trkpt lat="45.6197831" lon="11.712739"><ele>41.42857142857143</ele><time>2026-04-07T13:16:36.572Z</time></trkpt><trkpt lat="45.6196823" lon="11.712736"><ele>41.14285714285714</ele><time>2026-04-07T13:16:38.568Z</time></trkpt><trkpt lat="45.6196167" lon="11.7127427"><ele>40.85714285714286</ele><time>2026-04-07T13:16:40.572Z</time></trkpt><trkpt lat="45.6195495" lon="11.7127573"><ele>40.57142857142857</ele><time>2026-04-07T13:16:46.581Z</time></trkpt><trkpt lat="45.6194812" lon="11.7127926"><ele>40.285714285714285</ele><time>2026-04-07T13:16:49.59Z</time></trkpt><trkpt lat="45.6195255" lon="11.7128635"><ele>40.0</ele><time>2026-04-07T13:16:50.584Z</time></trkpt><trkpt lat="45.6196042" lon="11.7129791"><ele>40.0</ele><time>2026-04-07T13:16:51.549Z</time></trkpt><trkpt lat="45.6196895" lon="11.7131187"><ele>40.0</ele><time>2026-04-07T13:16:52.551Z</time></trkpt><trkpt lat="45.6197985" lon="11.7132726"><ele>40.0</ele><time>2026-04-07T13:16:53.563Z</time></trkpt><trkpt lat="45.6199055" lon="11.7134222"><ele>40.0</ele><time>2026-04-07T13:16:54.552Z</time></trkpt><trkpt lat="45.6200205" lon="11.7135551"><ele>40.6</ele><time>2026-04-07T13:16:55.558Z</time></trkpt><trkpt lat="45.6201113" lon="11.7136625"><ele>41.2</ele><time>2026-04-07T13:16:56.558Z</time></trkpt><trkpt lat="45.6201885" lon="11.713772"><ele>41.8</ele><time>2026-04-07T13:16:57.548Z</time></trkpt><trkpt lat="45.6202581" lon="11.7138876"><ele>42.4</ele><time>2026-04-07T13:16:58.551Z</time></trkpt><trkpt lat="45.6203071" lon="11.7140375"><ele>43.0</ele><time>2026-04-07T13:16:59.559Z</time></trkpt><trkpt lat="45.6203322" lon="11.7142089"><ele>42.66666666666667</ele><time>2026-04-07T13:17:00.555Z</time></trkpt><trkpt lat="45.6203196" lon="11.7144048"><ele>42.333333333333336</ele><time>2026-04-07T13:17:01.554Z</time></trkpt><trkpt lat="45.6203026" lon="11.7146333"><ele>42.0</ele><time>2026-04-07T13:17:02.556Z</time></trkpt><trkpt lat="45.6203084" lon="11.7148742"><ele>42.666666666666664</ele><time>2026-04-07T13:17:03.552Z</time></trkpt><trkpt lat="45.6203079" lon="11.7151742"><ele>43.33333333333333</ele><time>2026-04-07T13:17:04.557Z</time></trkpt><trkpt lat="45.6203841" lon="11.7153965"><ele>44.0</ele><time>2026-04-07T13:17:05.557Z</time></trkpt><trkpt lat="45.620412" lon="11.7156109"><ele>43.25</ele><time>2026-04-07T13:17:06.555Z</time></trkpt><trkpt lat="45.6204808" lon="11.7157991"><ele>42.5</ele><time>2026-04-07T13:17:07.554Z</time></trkpt><trkpt lat="45.6205195" lon="11.7159571"><ele>41.75</ele><time>2026-04-07T13:17:08.578Z</time></trkpt><trkpt lat="45.6205715" lon="11.7160809"><ele>41.0</ele><time>2026-04-07T13:17:09.553Z</time></trkpt><trkpt lat="45.6206248" lon="11.7162081"><ele>41.0</ele><time>2026-04-07T13:17:10.558Z</time></trkpt><trkpt lat="45.6206678" lon="11.7163339"><ele>41.0</ele><time>2026-04-07T13:17:11.562Z</time></trkpt><trkpt lat="45.6206863" lon="11.7164441"><ele>41.0</ele><time>2026-04-07T13:17:12.555Z</time></trkpt><trkpt lat="45.6206928" lon="11.7165799"><ele>41.0</ele><time>2026-04-07T13:17:13.575Z</time></trkpt><trkpt lat="45.6206798" lon="11.716724"><ele>41.0</ele><time>2026-04-07T13:17:14.547Z</time></trkpt><trkpt lat="45.6206398" lon="11.7168848"><ele>40.5</ele><time>2026-04-07T13:17:15.548Z</time></trkpt><trkpt lat="45.6205658" lon="11.7170091"><ele>40.0</ele><time>2026-04-07T13:17:16.55Z</time></trkpt><trkpt lat="45.6204467" lon="11.7170766"><ele>39.5</ele><time>2026-04-07T13:17:17.542Z</time></trkpt><trkpt lat="45.6203199" lon="11.7171604"><ele>39.0</ele><time>2026-04-07T13:17:18.55Z</time></trkpt><trkpt lat="45.6201656" lon="11.7171975"><ele>38.666666666666664</ele><time>2026-04-07T13:17:19.549Z</time></trkpt><trkpt lat="45.6200029" lon="11.7172519"><ele>38.33333333333333</ele><time>2026-04-07T13:17:20.546Z</time></trkpt><trkpt lat="45.6197826" lon="11.7173302"><ele>38.0</ele><time>2026-04-07T13:17:21.55Z</time></trkpt><trkpt lat="45.6195462" lon="11.7174467"><ele>39.0</ele><time>2026-04-07T13:17:22.555Z</time></trkpt><trkpt lat="45.6193275" lon="11.7175386"><ele>40.0</ele><time>2026-04-07T13:17:23.548Z</time></trkpt><trkpt lat="45.6190954" lon="11.7176568"><ele>39.66666666666667</ele><time>2026-04-07T13:17:24.566Z</time></trkpt><trkpt lat="45.6189118" lon="11.7177668"><ele>39.333333333333336</ele><time>2026-04-07T13:17:25.543Z</time></trkpt><trkpt lat="45.6186984" lon="11.7179154"><ele>39.0</ele><time>2026-04-07T13:17:26.549Z</time></trkpt><trkpt lat="45.6184764" lon="11.7180466"><ele>38.666666666666664</ele><time>2026-04-07T13:17:27.555Z</time></trkpt><trkpt lat="45.6182675" lon="11.7181736"><ele>38.33333333333333</ele><time>2026-04-07T13:17:28.596Z</time></trkpt><trkpt lat="45.6180604" lon="11.7182774"><ele>38.0</ele><time>2026-04-07T13:17:29.565Z</time></trkpt><trkpt lat="45.6178372" lon="11.7183937"><ele>38.0</ele><time>2026-04-07T13:17:30.576Z</time></trkpt><trkpt lat="45.6176271" lon="11.7185309"><ele>38.0</ele><time>2026-04-07T13:17:31.598Z</time></trkpt><trkpt lat="45.6174015" lon="11.7186628"><ele>38.0</ele><time>2026-04-07T13:17:32.551Z</time></trkpt><trkpt lat="45.6172034" lon="11.7187453"><ele>38.0</ele><time>2026-04-07T13:17:33.578Z</time></trkpt><trkpt lat="45.6170122" lon="11.7188805"><ele>38.0</ele><time>2026-04-07T13:17:34.547Z</time></trkpt><trkpt lat="45.6168509" lon="11.7189888"><ele>38.0</ele><time>2026-04-07T13:17:35.554Z</time></trkpt><trkpt lat="45.6166959" lon="11.7191035"><ele>38.0</ele><time>2026-04-07T13:17:36.578Z</time></trkpt><trkpt lat="45.6165349" lon="11.7191973"><ele>38.0</ele><time>2026-04-07T13:17:37.58Z</time></trkpt><trkpt lat="45.6163855" lon="11.7192862"><ele>38.0</ele><time>2026-04-07T13:17:38.558Z</time></trkpt><trkpt lat="45.6162162" lon="11.7194021"><ele>38.0</ele><time>2026-04-07T13:17:39.558Z</time></trkpt><trkpt lat="45.616023" lon="11.7195232"><ele>38.0</ele><time>2026-04-07T13:17:40.556Z</time></trkpt><trkpt lat="45.6158456" lon="11.7196387"><ele>38.0</ele><time>2026-04-07T13:17:41.58Z</time></trkpt><trkpt lat="45.6156792" lon="11.7197327"><ele>38.0</ele><time>2026-04-07T13:17:42.576Z</time></trkpt><trkpt lat="45.6155012" lon="11.7198563"><ele>38.0</ele><time>2026-04-07T13:17:43.558Z</time></trkpt><trkpt lat="45.6153377" lon="11.7199603"><ele>37.33333333333333</ele><time>2026-04-07T13:17:44.558Z</time></trkpt><trkpt lat="45.6151752" lon="11.7200379"><ele>36.666666666666664</ele><time>2026-04-07T13:17:45.556Z</time></trkpt><trkpt lat="45.6150257" lon="11.7201255"><ele>36.0</ele><time>2026-04-07T13:17:46.553Z</time></trkpt><trkpt lat="45.6148577" lon="11.7202496"><ele>36.0</ele><time>2026-04-07T13:17:47.554Z</time></trkpt><trkpt lat="45.614708" lon="11.7203319"><ele>36.0</ele><time>2026-04-07T13:17:48.579Z</time></trkpt><trkpt lat="45.614554" lon="11.7204202"><ele>36.0</ele><time>2026-04-07T13:17:49.556Z</time></trkpt><trkpt lat="45.6143631" lon="11.7204913"><ele>36.0</ele><time>2026-04-07T13:17:50.558Z</time></trkpt><trkpt lat="45.6141816" lon="11.7205855"><ele>36.0</ele><time>2026-04-07T13:17:51.579Z</time></trkpt><trkpt lat="45.6139885" lon="11.7206811"><ele>36.0</ele><time>2026-04-07T13:17:52.583Z</time></trkpt><trkpt lat="45.6137897" lon="11.7207983"><ele>36.333333333333336</ele><time>2026-04-07T13:17:53.56Z</time></trkpt><trkpt lat="45.6136165" lon="11.7209278"><ele>36.66666666666667</ele><time>2026-04-07T13:17:54.557Z</time></trkpt><trkpt lat="45.6134361" lon="11.7210541"><ele>37.0</ele><time>2026-04-07T13:17:55.566Z</time></trkpt><trkpt lat="45.6132852" lon="11.7211746"><ele>37.333333333333336</ele><time>2026-04-07T13:17:56.555Z</time></trkpt><trkpt lat="45.613099" lon="11.7212904"><ele>37.666666666666664</ele><time>2026-04-07T13:17:57.559Z</time></trkpt><trkpt lat="45.6129474" lon="11.7213368"><ele>38.0</ele><time>2026-04-07T13:17:58.566Z</time></trkpt><trkpt lat="45.6127985" lon="11.7214134"><ele>38.0</ele><time>2026-04-07T13:17:59.566Z</time></trkpt><trkpt lat="45.6126578" lon="11.7214773"><ele>38.0</ele><time>2026-04-07T13:18:00.584Z</time></trkpt><trkpt lat="45.6125231" lon="11.7215775"><ele>38.0</ele><time>2026-04-07T13:18:01.584Z</time></trkpt><trkpt lat="45.6123895" lon="11.7216661"><ele>38.0</ele><time>2026-04-07T13:18:02.559Z</time></trkpt><trkpt lat="45.6122539" lon="11.7217192"><ele>38.0</ele><time>2026-04-07T13:18:03.583Z</time></trkpt><trkpt lat="45.6121112" lon="11.7217941"><ele>38.0</ele><time>2026-04-07T13:18:04.558Z</time></trkpt><trkpt lat="45.6119715" lon="11.721883"><ele>38.0</ele><time>2026-04-07T13:18:05.561Z</time></trkpt><trkpt lat="45.6118342" lon="11.7220008"><ele>37.75</ele><time>2026-04-07T13:18:06.558Z</time></trkpt><trkpt lat="45.6117134" lon="11.7220944"><ele>37.5</ele><time>2026-04-07T13:18:07.554Z</time></trkpt><trkpt lat="45.6116192" lon="11.7221716"><ele>37.25</ele><time>2026-04-07T13:18:08.559Z</time></trkpt><trkpt lat="45.6114902" lon="11.7222173"><ele>37.0</ele><time>2026-04-07T13:18:09.561Z</time></trkpt><trkpt lat="45.6113682" lon="11.722294"><ele>37.0</ele><time>2026-04-07T13:18:10.559Z</time></trkpt><trkpt lat="45.6112" lon="11.7224126"><ele>37.0</ele><time>2026-04-07T13:18:11.554Z</time></trkpt><trkpt lat="45.6110398" lon="11.7225044"><ele>37.0</ele><time>2026-04-07T13:18:12.552Z</time></trkpt><trkpt lat="45.6108684" lon="11.7226213"><ele>37.0</ele><time>2026-04-07T13:18:13.555Z</time></trkpt><trkpt lat="45.6107206" lon="11.7227406"><ele>37.0</ele><time>2026-04-07T13:18:14.557Z</time></trkpt><trkpt lat="45.6105688" lon="11.7228455"><ele>37.0</ele><time>2026-04-07T13:18:15.557Z</time></trkpt><trkpt lat="45.6104039" lon="11.7229505"><ele>37.333333333333336</ele><time>2026-04-07T13:18:16.562Z</time></trkpt><trkpt lat="45.610212" lon="11.7230766"><ele>37.666666666666664</ele><time>2026-04-07T13:18:17.563Z</time></trkpt><trkpt lat="45.6100191" lon="11.7231835"><ele>38.0</ele><time>2026-04-07T13:18:18.576Z</time></trkpt><trkpt lat="45.6098184" lon="11.7232969"><ele>38.0</ele><time>2026-04-07T13:18:19.554Z</time></trkpt><trkpt lat="45.6096032" lon="11.7234223"><ele>38.0</ele><time>2026-04-07T13:18:20.561Z</time></trkpt><trkpt lat="45.6093872" lon="11.7235507"><ele>36.666666666666664</ele><time>2026-04-07T13:18:21.552Z</time></trkpt><trkpt lat="45.6091898" lon="11.7236793"><ele>35.333333333333336</ele><time>2026-04-07T13:18:22.557Z</time></trkpt><trkpt lat="45.6090104" lon="11.723801"><ele>34.0</ele><time>2026-04-07T13:18:23.559Z</time></trkpt><trkpt lat="45.6088383" lon="11.7239062"><ele>34.333333333333336</ele><time>2026-04-07T13:18:24.584Z</time></trkpt><trkpt lat="45.6086458" lon="11.724035"><ele>34.666666666666664</ele><time>2026-04-07T13:18:25.558Z</time></trkpt><trkpt lat="45.6084765" lon="11.7241515"><ele>35.0</ele><time>2026-04-07T13:18:26.564Z</time></trkpt><trkpt lat="45.6082811" lon="11.7242487"><ele>35.0</ele><time>2026-04-07T13:18:27.557Z</time></trkpt><trkpt lat="45.6081139" lon="11.7243265"><ele>35.0</ele><time>2026-04-07T13:18:28.561Z</time></trkpt><trkpt lat="45.6079401" lon="11.7244345"><ele>35.0</ele><time>2026-04-07T13:18:29.563Z</time></trkpt><trkpt lat="45.6077883" lon="11.7245332"><ele>35.0</ele><time>2026-04-07T13:18:30.562Z</time></trkpt><trkpt lat="45.6076428" lon="11.7245922"><ele>35.0</ele><time>2026-04-07T13:18:31.563Z</time></trkpt><trkpt lat="45.6075075" lon="11.7246898"><ele>35.0</ele><time>2026-04-07T13:18:32.555Z</time></trkpt><trkpt lat="45.6073687" lon="11.7248075"><ele>35.0</ele><time>2026-04-07T13:18:33.56Z</time></trkpt><trkpt lat="45.6072355" lon="11.7249079"><ele>35.0</ele><time>2026-04-07T13:18:34.563Z</time></trkpt><trkpt lat="45.6071114" lon="11.7249634"><ele>35.0</ele><time>2026-04-07T13:18:35.555Z</time></trkpt><trkpt lat="45.606982" lon="11.7250371"><ele>35.0</ele><time>2026-04-07T13:18:36.56Z</time></trkpt><trkpt lat="45.6068727" lon="11.7251345"><ele>35.0</ele><time>2026-04-07T13:18:37.556Z</time></trkpt><trkpt lat="45.606795" lon="11.7251814"><ele>35.0</ele><time>2026-04-07T13:18:38.563Z</time></trkpt><trkpt lat="45.6067074" lon="11.7251875"><ele>35.0</ele><time>2026-04-07T13:18:39.551Z</time></trkpt><trkpt lat="45.6066364" lon="11.7252315"><ele>35.0</ele><time>2026-04-07T13:18:40.552Z</time></trkpt><trkpt lat="45.6065741" lon="11.7252574"><ele>35.0</ele><time>2026-04-07T13:19:04.558Z</time></trkpt><trkpt lat="45.6065581" lon="11.7254203"><ele>35.0</ele><time>2026-04-07T13:19:06.558Z</time></trkpt><trkpt lat="45.6065522" lon="11.7255367"><ele>34.75</ele><time>2026-04-07T13:19:07.567Z</time></trkpt><trkpt lat="45.6065397" lon="11.7257027"><ele>34.5</ele><time>2026-04-07T13:19:08.561Z</time></trkpt><trkpt lat="45.606529" lon="11.7258821"><ele>34.25</ele><time>2026-04-07T13:19:09.565Z</time></trkpt><trkpt lat="45.6065223" lon="11.7260779"><ele>34.0</ele><time>2026-04-07T13:19:10.567Z</time></trkpt><trkpt lat="45.6065218" lon="11.7262634"><ele>34.0</ele><time>2026-04-07T13:19:11.563Z</time></trkpt><trkpt lat="45.6065193" lon="11.7264434"><ele>34.0</ele><time>2026-04-07T13:19:12.563Z</time></trkpt><trkpt lat="45.6065178" lon="11.7266323"><ele>34.0</ele><time>2026-04-07T13:19:13.558Z</time></trkpt><trkpt lat="45.6065158" lon="11.7268507"><ele>34.0</ele><time>2026-04-07T13:19:14.559Z</time></trkpt><trkpt lat="45.6065128" lon="11.7271398"><ele>34.0</ele><time>2026-04-07T13:19:15.564Z</time></trkpt><trkpt lat="45.6065061" lon="11.7273995"><ele>34.0</ele><time>2026-04-07T13:19:16.561Z</time></trkpt><trkpt lat="45.6065072" lon="11.727637"><ele>34.0</ele><time>2026-04-07T13:19:17.557Z</time></trkpt><trkpt lat="45.6065044" lon="11.7278737"><ele>34.0</ele><time>2026-04-07T13:19:18.562Z</time></trkpt><trkpt lat="45.6065159" lon="11.7281026"><ele>34.0</ele><time>2026-04-07T13:19:19.562Z</time></trkpt><trkpt lat="45.6065186" lon="11.7283598"><ele>34.0</ele><time>2026-04-07T13:19:20.568Z</time></trkpt><trkpt lat="45.6065157" lon="11.728629"><ele>33.333333333333336</ele><time>2026-04-07T13:19:21.569Z</time></trkpt><trkpt lat="45.6065239" lon="11.7288647"><ele>32.666666666666664</ele><time>2026-04-07T13:19:22.568Z</time></trkpt><trkpt lat="45.606523" lon="11.7291295"><ele>32.0</ele><time>2026-04-07T13:19:23.565Z</time></trkpt><trkpt lat="45.6065294" lon="11.729417"><ele>32.0</ele><time>2026-04-07T13:19:24.56Z</time></trkpt><trkpt lat="45.6065158" lon="11.7296634"><ele>32.0</ele><time>2026-04-07T13:19:25.553Z</time></trkpt><trkpt lat="45.6065151" lon="11.7299608"><ele>32.0</ele><time>2026-04-07T13:19:26.568Z</time></trkpt><trkpt lat="45.6065083" lon="11.7302701"><ele>32.0</ele><time>2026-04-07T13:19:27.566Z</time></trkpt><trkpt lat="45.6064958" lon="11.7305924"><ele>32.0</ele><time>2026-04-07T13:19:28.566Z</time></trkpt><trkpt lat="45.6064819" lon="11.7309087"><ele>32.0</ele><time>2026-04-07T13:19:29.568Z</time></trkpt><trkpt lat="45.6064927" lon="11.7312148"><ele>32.0</ele><time>2026-04-07T13:19:30.565Z</time></trkpt><trkpt lat="45.6064971" lon="11.7314878"><ele>32.0</ele><time>2026-04-07T13:19:31.568Z</time></trkpt><trkpt lat="45.6064923" lon="11.7317439"><ele>32.0</ele><time>2026-04-07T13:19:32.567Z</time></trkpt><trkpt lat="45.6064947" lon="11.7320116"><ele>32.0</ele><time>2026-04-07T13:19:33.567Z</time></trkpt><trkpt lat="45.6064852" lon="11.732285"><ele>32.0</ele><time>2026-04-07T13:19:34.567Z</time></trkpt><trkpt lat="45.6064802" lon="11.7325927"><ele>32.0</ele><time>2026-04-07T13:19:35.569Z</time></trkpt><trkpt lat="45.606485" lon="11.7328848"><ele>32.33333333333333</ele><time>2026-04-07T13:19:36.562Z</time></trkpt><trkpt lat="45.6064875" lon="11.7331657"><ele>32.666666666666664</ele><time>2026-04-07T13:19:37.566Z</time></trkpt><trkpt lat="45.6064963" lon="11.733431"><ele>33.0</ele><time>2026-04-07T13:19:38.569Z</time></trkpt><trkpt lat="45.6064852" lon="11.7337068"><ele>33.0</ele><time>2026-04-07T13:19:39.562Z</time></trkpt><trkpt lat="45.6064844" lon="11.7339482"><ele>33.0</ele><time>2026-04-07T13:19:40.565Z</time></trkpt><trkpt lat="45.606506" lon="11.7341787"><ele>33.0</ele><time>2026-04-07T13:19:41.568Z</time></trkpt><trkpt lat="45.6065177" lon="11.7344023"><ele>33.0</ele><time>2026-04-07T13:19:42.557Z</time></trkpt><trkpt lat="45.6065391" lon="11.7346304"><ele>33.0</ele><time>2026-04-07T13:19:43.567Z</time></trkpt><trkpt lat="45.606521" lon="11.7348569"><ele>33.0</ele><time>2026-04-07T13:19:44.561Z</time></trkpt><trkpt lat="45.6064951" lon="11.7350744"><ele>33.0</ele><time>2026-04-07T13:19:45.563Z</time></trkpt><trkpt lat="45.6064797" lon="11.7352544"><ele>33.0</ele><time>2026-04-07T13:19:46.561Z</time></trkpt><trkpt lat="45.606479" lon="11.7353842"><ele>33.0</ele><time>2026-04-07T13:19:47.56Z</time></trkpt><trkpt lat="45.6064663" lon="11.735518"><ele>33.0</ele><time>2026-04-07T13:19:48.604Z</time></trkpt><trkpt lat="45.6064599" lon="11.7356339"><ele>33.0</ele><time>2026-04-07T13:19:49.583Z</time></trkpt><trkpt lat="45.6064538" lon="11.7357487"><ele>33.0</ele><time>2026-04-07T13:19:50.563Z</time></trkpt><trkpt lat="45.6064635" lon="11.7358561"><ele>33.0</ele><time>2026-04-07T13:19:51.561Z</time></trkpt><trkpt lat="45.6064585" lon="11.7359777"><ele>33.0</ele><time>2026-04-07T13:19:53.561Z</time></trkpt><trkpt lat="45.6063865" lon="11.7360617"><ele>33.0</ele><time>2026-04-07T13:19:57.583Z</time></trkpt><trkpt lat="45.6063264" lon="11.7360292"><ele>33.0</ele><time>2026-04-07T13:19:58.576Z</time></trkpt><trkpt lat="45.6062488" lon="11.7359931"><ele>33.0</ele><time>2026-04-07T13:19:59.557Z</time></trkpt><trkpt lat="45.6061671" lon="11.735959"><ele>32.75</ele><time>2026-04-07T13:20:00.552Z</time></trkpt><trkpt lat="45.6060633" lon="11.7359163"><ele>32.5</ele><time>2026-04-07T13:20:01.561Z</time></trkpt><trkpt lat="45.6059453" lon="11.735855"><ele>32.25</ele><time>2026-04-07T13:20:02.556Z</time></trkpt><trkpt lat="45.6058063" lon="11.7357881"><ele>32.0</ele><time>2026-04-07T13:20:03.565Z</time></trkpt><trkpt lat="45.605662" lon="11.7357178"><ele>32.0</ele><time>2026-04-07T13:20:04.571Z</time></trkpt><trkpt lat="45.6054959" lon="11.7356398"><ele>32.0</ele><time>2026-04-07T13:20:05.563Z</time></trkpt><trkpt lat="45.6053224" lon="11.7355432"><ele>32.0</ele><time>2026-04-07T13:20:06.566Z</time></trkpt><trkpt lat="45.6051501" lon="11.7354618"><ele>31.666666666666664</ele><time>2026-04-07T13:20:07.567Z</time></trkpt><trkpt lat="45.6049704" lon="11.7353751"><ele>31.333333333333336</ele><time>2026-04-07T13:20:08.564Z</time></trkpt><trkpt lat="45.604797" lon="11.7353028"><ele>31.0</ele><time>2026-04-07T13:20:09.564Z</time></trkpt><trkpt lat="45.6046156" lon="11.7352323"><ele>31.666666666666668</ele><time>2026-04-07T13:20:10.568Z</time></trkpt><trkpt lat="45.6044397" lon="11.735188"><ele>32.333333333333336</ele><time>2026-04-07T13:20:11.586Z</time></trkpt><trkpt lat="45.604313" lon="11.7351432"><ele>33.0</ele><time>2026-04-07T13:20:12.569Z</time></trkpt><trkpt lat="45.6041749" lon="11.7350765"><ele>33.0</ele><time>2026-04-07T13:20:13.57Z</time></trkpt><trkpt lat="45.6040317" lon="11.7350011"><ele>33.0</ele><time>2026-04-07T13:20:14.589Z</time></trkpt><trkpt lat="45.6039095" lon="11.7349521"><ele>33.0</ele><time>2026-04-07T13:20:15.587Z</time></trkpt><trkpt lat="45.6038218" lon="11.734879"><ele>33.0</ele><time>2026-04-07T13:20:16.562Z</time></trkpt><trkpt lat="45.6037374" lon="11.7348091"><ele>33.25</ele><time>2026-04-07T13:20:17.582Z</time></trkpt><trkpt lat="45.6036157" lon="11.7347573"><ele>33.5</ele><time>2026-04-07T13:20:18.56Z</time></trkpt><trkpt lat="45.6034683" lon="11.7347147"><ele>33.75</ele><time>2026-04-07T13:20:19.582Z</time></trkpt><trkpt lat="45.6033384" lon="11.7346485"><ele>34.0</ele><time>2026-04-07T13:20:20.584Z</time></trkpt><trkpt lat="45.6031993" lon="11.7345535"><ele>34.0</ele><time>2026-04-07T13:20:21.563Z</time></trkpt><trkpt lat="45.603053" lon="11.7344931"><ele>34.0</ele><time>2026-04-07T13:20:22.565Z</time></trkpt><trkpt lat="45.6029098" lon="11.7344261"><ele>34.0</ele><time>2026-04-07T13:20:23.563Z</time></trkpt><trkpt lat="45.6027799" lon="11.7343823"><ele>34.0</ele><time>2026-04-07T13:20:24.583Z</time></trkpt><trkpt lat="45.6026522" lon="11.734354"><ele>33.5</ele><time>2026-04-07T13:20:25.587Z</time></trkpt><trkpt lat="45.6025457" lon="11.7343107"><ele>33.0</ele><time>2026-04-07T13:20:26.582Z</time></trkpt><trkpt lat="45.6024489" lon="11.7342833"><ele>32.5</ele><time>2026-04-07T13:20:27.588Z</time></trkpt><trkpt lat="45.6023251" lon="11.7342398"><ele>32.0</ele><time>2026-04-07T13:20:28.59Z</time></trkpt><trkpt lat="45.6022082" lon="11.7341917"><ele>32.0</ele><time>2026-04-07T13:20:29.587Z</time></trkpt><trkpt lat="45.6020914" lon="11.7341346"><ele>32.0</ele><time>2026-04-07T13:20:30.561Z</time></trkpt><trkpt lat="45.6019726" lon="11.7340758"><ele>32.0</ele><time>2026-04-07T13:20:31.558Z</time></trkpt><trkpt lat="45.6018656" lon="11.7340225"><ele>32.0</ele><time>2026-04-07T13:20:32.563Z</time></trkpt><trkpt lat="45.6017603" lon="11.7339807"><ele>31.999999999999996</ele><time>2026-04-07T13:20:33.563Z</time></trkpt><trkpt lat="45.6016678" lon="11.7339582"><ele>32.0</ele><time>2026-04-07T13:20:34.564Z</time></trkpt><trkpt lat="45.6016059" lon="11.7339347"><ele>32.0</ele><time>2026-04-07T13:20:35.561Z</time></trkpt><trkpt lat="45.6015171" lon="11.7339299"><ele>32.0</ele><time>2026-04-07T13:20:37.56Z</time></trkpt><trkpt lat="45.6014986" lon="11.7340571"><ele>31.999999999999996</ele><time>2026-04-07T13:20:39.561Z</time></trkpt><trkpt lat="45.6015252" lon="11.7341652"><ele>32.0</ele><time>2026-04-07T13:20:40.559Z</time></trkpt><trkpt lat="45.6015374" lon="11.7342764"><ele>31.833333333333332</ele><time>2026-04-07T13:20:41.563Z</time></trkpt><trkpt lat="45.6015367" lon="11.7343969"><ele>31.666666666666664</ele><time>2026-04-07T13:20:42.586Z</time></trkpt><trkpt lat="45.6015491" lon="11.7345245"><ele>31.5</ele><time>2026-04-07T13:20:43.568Z</time></trkpt><trkpt lat="45.6015509" lon="11.7346381"><ele>31.333333333333336</ele><time>2026-04-07T13:20:44.585Z</time></trkpt><trkpt lat="45.6015463" lon="11.7347414"><ele>31.166666666666668</ele><time>2026-04-07T13:20:45.579Z</time></trkpt><trkpt lat="45.6015506" lon="11.7348455"><ele>31.0</ele><time>2026-04-07T13:20:46.567Z</time></trkpt><trkpt lat="45.6015904" lon="11.7349342"><ele>31.0</ele><time>2026-04-07T13:20:47.563Z</time></trkpt><trkpt lat="45.601657" lon="11.7349817"><ele>31.0</ele><time>2026-04-07T13:20:48.563Z</time></trkpt><trkpt lat="45.6017651" lon="11.7350114"><ele>31.0</ele><time>2026-04-07T13:20:49.568Z</time></trkpt><trkpt lat="45.6018928" lon="11.7350589"><ele>31.0</ele><time>2026-04-07T13:20:50.568Z</time></trkpt><trkpt lat="45.6020178" lon="11.7351031"><ele>31.0</ele><time>2026-04-07T13:20:51.555Z</time></trkpt><trkpt lat="45.6021395" lon="11.7351529"><ele>31.25</ele><time>2026-04-07T13:20:52.561Z</time></trkpt><trkpt lat="45.6022663" lon="11.7352039"><ele>31.5</ele><time>2026-04-07T13:20:53.559Z</time></trkpt><trkpt lat="45.6023976" lon="11.7352749"><ele>31.75</ele><time>2026-04-07T13:20:54.566Z</time></trkpt><trkpt lat="45.6025324" lon="11.7353513"><ele>32.0</ele><time>2026-04-07T13:20:55.559Z</time></trkpt><trkpt lat="45.6026808" lon="11.7354191"><ele>32.5</ele><time>2026-04-07T13:20:56.564Z</time></trkpt><trkpt lat="45.602829" lon="11.7354661"><ele>33.0</ele><time>2026-04-07T13:20:57.567Z</time></trkpt><trkpt lat="45.602963" lon="11.7355133"><ele>33.5</ele><time>2026-04-07T13:20:58.566Z</time></trkpt><trkpt lat="45.6030601" lon="11.7355513"><ele>34.0</ele><time>2026-04-07T13:20:59.653Z</time></trkpt><trkpt lat="45.6031832" lon="11.7355828"><ele>34.0</ele><time>2026-04-07T13:21:00.556Z</time></trkpt><trkpt lat="45.6032767" lon="11.7355995"><ele>34.0</ele><time>2026-04-07T13:21:01.563Z</time></trkpt><trkpt lat="45.6033489" lon="11.7356104"><ele>34.0</ele><time>2026-04-07T13:21:02.551Z</time></trkpt><trkpt lat="45.6034325" lon="11.7356425"><ele>34.0</ele><time>2026-04-07T13:21:03.556Z</time></trkpt><trkpt lat="45.6035406" lon="11.7356615"><ele>34.0</ele><time>2026-04-07T13:21:05.577Z</time></trkpt><trkpt lat="45.6036107" lon="11.735685"><ele>34.0</ele><time>2026-04-07T13:21:14.546Z</time></trkpt></trkseg><trkseg><trkpt lat="45.60364" lon="11.7356706"><ele>34.0</ele><time>2026-04-07T13:47:15.46Z</time></trkpt><trkpt lat="45.6034917" lon="11.7356058"><ele>34.0</ele><time>2026-04-07T13:47:39.237Z</time></trkpt><trkpt lat="45.6034926" lon="11.7357072"><ele>34.0</ele><time>2026-04-07T13:47:48.243Z</time></trkpt><trkpt lat="45.6035549" lon="11.7357704"><ele>34.0</ele><time>2026-04-07T13:47:51.251Z</time></trkpt><trkpt lat="45.6036588" lon="11.7358632"><ele>34.0</ele><time>2026-04-07T13:47:54.243Z</time></trkpt><trkpt lat="45.6037146" lon="11.735932"><ele>33.8</ele><time>2026-04-07T13:47:55.252Z</time></trkpt><trkpt lat="45.603777" lon="11.7360105"><ele>33.599999999999994</ele><time>2026-04-07T13:47:56.25Z</time></trkpt><trkpt lat="45.6038524" lon="11.7361085"><ele>33.4</ele><time>2026-04-07T13:47:57.25Z</time></trkpt><trkpt lat="45.6039522" lon="11.7362165"><ele>33.199999999999996</ele><time>2026-04-07T13:47:59.249Z</time></trkpt><trkpt lat="45.6040276" lon="11.7362846"><ele>33.0</ele><time>2026-04-07T13:48:00.149Z</time></trkpt><trkpt lat="45.6042125" lon="11.7364647"><ele>33.166666666666664</ele><time>2026-04-07T13:48:01.982Z</time></trkpt><trkpt lat="45.604303" lon="11.73656"><ele>33.333333333333336</ele><time>2026-04-07T13:48:03.751Z</time></trkpt><trkpt lat="45.6043511" lon="11.7366194"><ele>33.5</ele><time>2026-04-07T13:48:05.553Z</time></trkpt><trkpt lat="45.6044057" lon="11.7366964"><ele>33.66666666666667</ele><time>2026-04-07T13:48:07.545Z</time></trkpt><trkpt lat="45.6044565" lon="11.7367833"><ele>33.833333333333336</ele><time>2026-04-07T13:48:10.547Z</time></trkpt><trkpt lat="45.6045315" lon="11.7368732"><ele>34.0</ele><time>2026-04-07T13:48:12.546Z</time></trkpt><trkpt lat="45.604599" lon="11.7369424"><ele>34.0</ele><time>2026-04-07T13:48:13.546Z</time></trkpt><trkpt lat="45.6046662" lon="11.737011"><ele>34.0</ele><time>2026-04-07T13:48:14.545Z</time></trkpt><trkpt lat="45.6047253" lon="11.7370657"><ele>34.0</ele><time>2026-04-07T13:48:15.538Z</time></trkpt><trkpt lat="45.6048314" lon="11.7371222"><ele>34.0</ele><time>2026-04-07T13:48:17.545Z</time></trkpt><trkpt lat="45.60494" lon="11.7371762"><ele>34.0</ele><time>2026-04-07T13:48:19.536Z</time></trkpt><trkpt lat="45.6050276" lon="11.7371581"><ele>34.0</ele><time>2026-04-07T13:48:23.541Z</time></trkpt><trkpt lat="45.6050946" lon="11.7370465"><ele>34.0</ele><time>2026-04-07T13:48:25.546Z</time></trkpt><trkpt lat="45.6051374" lon="11.7369677"><ele>34.0</ele><time>2026-04-07T13:48:26.543Z</time></trkpt><trkpt lat="45.60522" lon="11.7368544"><ele>34.0</ele><time>2026-04-07T13:48:28.542Z</time></trkpt><trkpt lat="45.6052001" lon="11.7365423"><ele>31.0</ele><time>2026-04-07T13:48:29.543Z</time></trkpt><trkpt lat="45.6052749" lon="11.7358731"><ele>31.0</ele><time>2026-04-07T13:48:30.527Z</time></trkpt><trkpt lat="45.6052477" lon="11.7354364"><ele>31.0</ele><time>2026-04-07T13:48:31.536Z</time></trkpt><trkpt lat="45.6052357" lon="11.7351473"><ele>31.4</ele><time>2026-04-07T13:48:32.541Z</time></trkpt><trkpt lat="45.6052319" lon="11.7349471"><ele>31.8</ele><time>2026-04-07T13:48:33.535Z</time></trkpt><trkpt lat="45.6052352" lon="11.7348117"><ele>32.199999999999996</ele><time>2026-04-07T13:48:34.542Z</time></trkpt><trkpt lat="45.6052421" lon="11.7347128"><ele>32.6</ele><time>2026-04-07T13:48:35.54Z</time></trkpt><trkpt lat="45.6052592" lon="11.7345688"><ele>33.0</ele><time>2026-04-07T13:48:37.543Z</time></trkpt><trkpt lat="45.6053137" lon="11.7344814"><ele>33.0</ele><time>2026-04-07T13:48:40.541Z</time></trkpt><trkpt lat="45.6053743" lon="11.7344356"><ele>33.0</ele><time>2026-04-07T13:48:43.54Z</time></trkpt><trkpt lat="45.6054374" lon="11.7343978"><ele>33.0</ele><time>2026-04-07T13:48:46.538Z</time></trkpt><trkpt lat="45.6058139" lon="11.7346541"><ele>33.0</ele><time>2026-04-07T13:48:49.54Z</time></trkpt><trkpt lat="45.6060768" lon="11.7348457"><ele>33.0</ele><time>2026-04-07T13:48:50.538Z</time></trkpt><trkpt lat="45.6062517" lon="11.7349676"><ele>33.0</ele><time>2026-04-07T13:48:51.528Z</time></trkpt><trkpt lat="45.6063675" lon="11.7350446"><ele>33.0</ele><time>2026-04-07T13:48:52.521Z</time></trkpt><trkpt lat="45.6064498" lon="11.7350967"><ele>33.0</ele><time>2026-04-07T13:48:53.514Z</time></trkpt><trkpt lat="45.6065103" lon="11.7351314"><ele>33.0</ele><time>2026-04-07T13:48:54.515Z</time></trkpt><trkpt lat="45.606589" lon="11.7351708"><ele>33.0</ele><time>2026-04-07T13:48:56.515Z</time></trkpt><trkpt lat="45.6066551" lon="11.7351979"><ele>33.0</ele><time>2026-04-07T13:48:58.526Z</time></trkpt><trkpt lat="45.6067251" lon="11.7352237"><ele>33.0</ele><time>2026-04-07T13:49:01.52Z</time></trkpt><trkpt lat="45.6068031" lon="11.7352433"><ele>33.0</ele><time>2026-04-07T13:49:07.516Z</time></trkpt><trkpt lat="45.6068672" lon="11.7352547"><ele>33.0</ele><time>2026-04-07T13:49:10.515Z</time></trkpt><trkpt lat="45.6069459" lon="11.7352645"><ele>33.0</ele><time>2026-04-07T13:49:14.514Z</time></trkpt><trkpt lat="45.6070363" lon="11.7352753"><ele>33.0</ele><time>2026-04-07T13:49:19.528Z</time></trkpt><trkpt lat="45.6069721" lon="11.7352894"><ele>33.0</ele><time>2026-04-07T13:49:20.515Z</time></trkpt><trkpt lat="45.6068898" lon="11.7353073"><ele>33.0</ele><time>2026-04-07T13:49:21.554Z</time></trkpt><trkpt lat="45.6068217" lon="11.7353231"><ele>33.0</ele><time>2026-04-07T13:49:22.526Z</time></trkpt><trkpt lat="45.6067311" lon="11.7353444"><ele>33.0</ele><time>2026-04-07T13:49:24.537Z</time></trkpt><trkpt lat="45.6066192" lon="11.735374"><ele>33.0</ele><time>2026-04-07T13:49:26.526Z</time></trkpt><trkpt lat="45.6062734" lon="11.7354598"><ele>32.5</ele><time>2026-04-07T13:49:28.535Z</time></trkpt><trkpt lat="45.6059461" lon="11.7355372"><ele>32.0</ele><time>2026-04-07T13:49:29.524Z</time></trkpt><trkpt lat="45.605585" lon="11.7356272"><ele>31.5</ele><time>2026-04-07T13:49:30.547Z</time></trkpt><trkpt lat="45.6052021" lon="11.7357239"><ele>31.0</ele><time>2026-04-07T13:49:31.547Z</time></trkpt><trkpt lat="45.6048209" lon="11.735808"><ele>31.0</ele><time>2026-04-07T13:49:32.545Z</time></trkpt><trkpt lat="45.6045494" lon="11.7358628"><ele>31.0</ele><time>2026-04-07T13:49:33.547Z</time></trkpt><trkpt lat="45.6043605" lon="11.7358953"><ele>31.4</ele><time>2026-04-07T13:49:34.543Z</time></trkpt><trkpt lat="45.604224" lon="11.7359133"><ele>31.8</ele><time>2026-04-07T13:49:35.539Z</time></trkpt><trkpt lat="45.6041277" lon="11.7359216"><ele>32.199999999999996</ele><time>2026-04-07T13:49:36.546Z</time></trkpt><trkpt lat="45.6040631" lon="11.7359169"><ele>32.6</ele><time>2026-04-07T13:49:37.545Z</time></trkpt><trkpt lat="45.6039633" lon="11.7359074"><ele>33.0</ele><time>2026-04-07T13:49:39.551Z</time></trkpt><trkpt lat="45.6038828" lon="11.7358985"><ele>33.0</ele><time>2026-04-07T13:49:41.549Z</time></trkpt><trkpt lat="45.6038155" lon="11.7358882"><ele>33.0</ele><time>2026-04-07T13:49:43.55Z</time></trkpt><trkpt lat="45.6037457" lon="11.7358748"><ele>33.0</ele><time>2026-04-07T13:49:47.551Z</time></trkpt><trkpt lat="45.6036213" lon="11.7358202"><ele>33.0</ele><time>2026-04-07T13:51:54.553Z</time></trkpt><trkpt lat="45.6037127" lon="11.7358026"><ele>33.0</ele><time>2026-04-07T13:52:48.576Z</time></trkpt><trkpt lat="45.6037772" lon="11.7358539"><ele>33.0</ele><time>2026-04-07T13:52:49.559Z</time></trkpt><trkpt lat="45.6038594" lon="11.7359222"><ele>33.0</ele><time>2026-04-07T13:52:50.564Z</time></trkpt><trkpt lat="45.6039448" lon="11.735982"><ele>33.0</ele><time>2026-04-07T13:52:51.553Z</time></trkpt><trkpt lat="45.604028" lon="11.7360332"><ele>33.0</ele><time>2026-04-07T13:52:52.559Z</time></trkpt><trkpt lat="45.6040919" lon="11.7360747"><ele>33.0</ele><time>2026-04-07T13:52:53.544Z</time></trkpt><trkpt lat="45.6041709" lon="11.7360638"><ele>33.0</ele><time>2026-04-07T13:52:55.558Z</time></trkpt><trkpt lat="45.6042021" lon="11.7358914"><ele>33.0</ele><time>2026-04-07T13:52:57.56Z</time></trkpt><trkpt lat="45.6041907" lon="11.7357675"><ele>33.0</ele><time>2026-04-07T13:52:58.555Z</time></trkpt><trkpt lat="45.6041753" lon="11.7356125"><ele>33.0</ele><time>2026-04-07T13:52:59.555Z</time></trkpt><trkpt lat="45.6041758" lon="11.7354523"><ele>33.0</ele><time>2026-04-07T13:53:00.563Z</time></trkpt><trkpt lat="45.6041895" lon="11.7353142"><ele>33.0</ele><time>2026-04-07T13:53:01.557Z</time></trkpt><trkpt lat="45.604199" lon="11.7351931"><ele>33.0</ele><time>2026-04-07T13:53:02.555Z</time></trkpt><trkpt lat="45.6041985" lon="11.7351003"><ele>33.0</ele><time>2026-04-07T13:53:03.558Z</time></trkpt><trkpt lat="45.6041765" lon="11.7349976"><ele>33.0</ele><time>2026-04-07T13:53:05.559Z</time></trkpt><trkpt lat="45.6041646" lon="11.7348168"><ele>33.0</ele><time>2026-04-07T13:53:11.567Z</time></trkpt><trkpt lat="45.6041009" lon="11.7347452"><ele>33.0</ele><time>2026-04-07T13:53:13.557Z</time></trkpt><trkpt lat="45.6040039" lon="11.7347051"><ele>33.0</ele><time>2026-04-07T13:53:14.556Z</time></trkpt><trkpt lat="45.6038806" lon="11.7346461"><ele>33.0</ele><time>2026-04-07T13:53:15.558Z</time></trkpt><trkpt lat="45.6037422" lon="11.7345828"><ele>33.0</ele><time>2026-04-07T13:53:16.556Z</time></trkpt><trkpt lat="45.603607" lon="11.7345254"><ele>33.0</ele><time>2026-04-07T13:53:17.551Z</time></trkpt><trkpt lat="45.6034722" lon="11.7344708"><ele>33.0</ele><time>2026-04-07T13:53:18.56Z</time></trkpt><trkpt lat="45.6033389" lon="11.7344194"><ele>32.75</ele><time>2026-04-07T13:53:19.555Z</time></trkpt><trkpt lat="45.6032077" lon="11.7343664"><ele>32.5</ele><time>2026-04-07T13:53:20.555Z</time></trkpt><trkpt lat="45.6030759" lon="11.734312"><ele>32.25</ele><time>2026-04-07T13:53:21.558Z</time></trkpt><trkpt lat="45.6029479" lon="11.7342584"><ele>32.0</ele><time>2026-04-07T13:53:22.554Z</time></trkpt><trkpt lat="45.602818" lon="11.7342066"><ele>32.0</ele><time>2026-04-07T13:53:23.558Z</time></trkpt><trkpt lat="45.6026872" lon="11.7341695"><ele>32.0</ele><time>2026-04-07T13:53:24.561Z</time></trkpt><trkpt lat="45.6025529" lon="11.7341307"><ele>32.0</ele><time>2026-04-07T13:53:25.552Z</time></trkpt><trkpt lat="45.6024214" lon="11.734091"><ele>32.0</ele><time>2026-04-07T13:53:26.563Z</time></trkpt><trkpt lat="45.6022937" lon="11.7340474"><ele>32.0</ele><time>2026-04-07T13:53:27.558Z</time></trkpt><trkpt lat="45.6021715" lon="11.7339996"><ele>32.0</ele><time>2026-04-07T13:53:28.561Z</time></trkpt><trkpt lat="45.602055" lon="11.733958"><ele>32.0</ele><time>2026-04-07T13:53:29.561Z</time></trkpt><trkpt lat="45.6019446" lon="11.7339197"><ele>32.0</ele><time>2026-04-07T13:53:30.555Z</time></trkpt><trkpt lat="45.6018418" lon="11.7338909"><ele>32.0</ele><time>2026-04-07T13:53:31.546Z</time></trkpt><trkpt lat="45.6017646" lon="11.7338604"><ele>32.0</ele><time>2026-04-07T13:53:32.554Z</time></trkpt><trkpt lat="45.6016831" lon="11.7337361"><ele>32.0</ele><time>2026-04-07T13:53:34.544Z</time></trkpt><trkpt lat="45.6016804" lon="11.7335355"><ele>32.0</ele><time>2026-04-07T13:53:36.553Z</time></trkpt><trkpt lat="45.6017014" lon="11.7333978"><ele>32.0</ele><time>2026-04-07T13:53:37.557Z</time></trkpt><trkpt lat="45.6017326" lon="11.7332421"><ele>32.75</ele><time>2026-04-07T13:53:38.554Z</time></trkpt><trkpt lat="45.6017644" lon="11.7330733"><ele>33.5</ele><time>2026-04-07T13:53:39.551Z</time></trkpt><trkpt lat="45.6017977" lon="11.7329104"><ele>34.25</ele><time>2026-04-07T13:53:40.558Z</time></trkpt><trkpt lat="45.6018258" lon="11.7327528"><ele>35.0</ele><time>2026-04-07T13:53:41.544Z</time></trkpt><trkpt lat="45.6018511" lon="11.7325827"><ele>35.0</ele><time>2026-04-07T13:53:42.559Z</time></trkpt><trkpt lat="45.6018766" lon="11.7323959"><ele>35.0</ele><time>2026-04-07T13:53:43.577Z</time></trkpt><trkpt lat="45.6018988" lon="11.7322007"><ele>35.0</ele><time>2026-04-07T13:53:44.552Z</time></trkpt><trkpt lat="45.6019131" lon="11.7319976"><ele>35.0</ele><time>2026-04-07T13:53:45.546Z</time></trkpt><trkpt lat="45.6019439" lon="11.7317661"><ele>34.666666666666664</ele><time>2026-04-07T13:53:46.598Z</time></trkpt><trkpt lat="45.6019759" lon="11.7315318"><ele>34.333333333333336</ele><time>2026-04-07T13:53:47.573Z</time></trkpt><trkpt lat="45.6020024" lon="11.7312833"><ele>34.0</ele><time>2026-04-07T13:53:48.547Z</time></trkpt><trkpt lat="45.6020225" lon="11.7310226"><ele>34.0</ele><time>2026-04-07T13:53:49.553Z</time></trkpt><trkpt lat="45.6020456" lon="11.730781"><ele>34.0</ele><time>2026-04-07T13:53:50.569Z</time></trkpt><trkpt lat="45.602016" lon="11.7305813"><ele>34.0</ele><time>2026-04-07T13:53:51.548Z</time></trkpt><trkpt lat="45.6019938" lon="11.7304284"><ele>34.0</ele><time>2026-04-07T13:53:52.556Z</time></trkpt><trkpt lat="45.601969" lon="11.7302781"><ele>34.25</ele><time>2026-04-07T13:53:53.549Z</time></trkpt><trkpt lat="45.6019333" lon="11.7301126"><ele>34.5</ele><time>2026-04-07T13:53:54.553Z</time></trkpt><trkpt lat="45.6018769" lon="11.7299429"><ele>34.75</ele><time>2026-04-07T13:53:55.554Z</time></trkpt><trkpt lat="45.6018191" lon="11.7297492"><ele>35.0</ele><time>2026-04-07T13:53:56.553Z</time></trkpt><trkpt lat="45.601769" lon="11.7295498"><ele>35.25</ele><time>2026-04-07T13:53:57.549Z</time></trkpt><trkpt lat="45.6017236" lon="11.7293615"><ele>35.5</ele><time>2026-04-07T13:53:58.557Z</time></trkpt><trkpt lat="45.6016758" lon="11.7292079"><ele>35.75</ele><time>2026-04-07T13:53:59.555Z</time></trkpt><trkpt lat="45.6016261" lon="11.7290715"><ele>36.0</ele><time>2026-04-07T13:54:00.552Z</time></trkpt><trkpt lat="45.6015849" lon="11.7289516"><ele>36.0</ele><time>2026-04-07T13:54:01.553Z</time></trkpt><trkpt lat="45.6015551" lon="11.7288523"><ele>36.0</ele><time>2026-04-07T13:54:02.575Z</time></trkpt><trkpt lat="45.6015262" lon="11.7287471"><ele>36.0</ele><time>2026-04-07T13:54:04.555Z</time></trkpt><trkpt lat="45.6014583" lon="11.7286737"><ele>36.0</ele><time>2026-04-07T13:54:07.555Z</time></trkpt><trkpt lat="45.6013708" lon="11.7287589"><ele>36.0</ele><time>2026-04-07T13:54:09.563Z</time></trkpt><trkpt lat="45.601302" lon="11.7288338"><ele>36.0</ele><time>2026-04-07T13:54:10.577Z</time></trkpt><trkpt lat="45.6012168" lon="11.7289107"><ele>35.5</ele><time>2026-04-07T13:54:11.548Z</time></trkpt><trkpt lat="45.6011013" lon="11.7289948"><ele>35.0</ele><time>2026-04-07T13:54:12.549Z</time></trkpt><trkpt lat="45.6009693" lon="11.729069"><ele>34.5</ele><time>2026-04-07T13:54:13.546Z</time></trkpt><trkpt lat="45.6008292" lon="11.7291338"><ele>34.0</ele><time>2026-04-07T13:54:14.55Z</time></trkpt><trkpt lat="45.6006869" lon="11.7291931"><ele>34.0</ele><time>2026-04-07T13:54:15.552Z</time></trkpt><trkpt lat="45.600553" lon="11.7292541"><ele>34.0</ele><time>2026-04-07T13:54:16.548Z</time></trkpt><trkpt lat="45.6004299" lon="11.7293111"><ele>34.0</ele><time>2026-04-07T13:54:17.548Z</time></trkpt><trkpt lat="45.6003079" lon="11.7293714"><ele>34.0</ele><time>2026-04-07T13:54:18.551Z</time></trkpt><trkpt lat="45.6002001" lon="11.729439"><ele>33.8</ele><time>2026-04-07T13:54:19.562Z</time></trkpt><trkpt lat="45.6001077" lon="11.7295146"><ele>33.599999999999994</ele><time>2026-04-07T13:54:20.554Z</time></trkpt><trkpt lat="45.600022" lon="11.7295768"><ele>33.4</ele><time>2026-04-07T13:54:21.564Z</time></trkpt><trkpt lat="45.5999426" lon="11.7296421"><ele>33.199999999999996</ele><time>2026-04-07T13:54:22.554Z</time></trkpt><trkpt lat="45.5998734" lon="11.7297171"><ele>33.0</ele><time>2026-04-07T13:54:23.548Z</time></trkpt><trkpt lat="45.5998158" lon="11.7297964"><ele>33.0</ele><time>2026-04-07T13:54:24.564Z</time></trkpt><trkpt lat="45.59976" lon="11.7298837"><ele>33.0</ele><time>2026-04-07T13:54:25.551Z</time></trkpt><trkpt lat="45.5997043" lon="11.7299755"><ele>33.0</ele><time>2026-04-07T13:54:26.558Z</time></trkpt><trkpt lat="45.5996539" lon="11.7300703"><ele>33.0</ele><time>2026-04-07T13:54:27.558Z</time></trkpt><trkpt lat="45.5996132" lon="11.730178"><ele>33.0</ele><time>2026-04-07T13:54:28.548Z</time></trkpt><trkpt lat="45.599576" lon="11.7303"><ele>33.0</ele><time>2026-04-07T13:54:29.58Z</time></trkpt><trkpt lat="45.5995365" lon="11.7304202"><ele>33.5</ele><time>2026-04-07T13:54:30.555Z</time></trkpt><trkpt lat="45.5994864" lon="11.730544"><ele>34.0</ele><time>2026-04-07T13:54:31.549Z</time></trkpt><trkpt lat="45.5994215" lon="11.7306815"><ele>34.5</ele><time>2026-04-07T13:54:32.556Z</time></trkpt><trkpt lat="45.5993429" lon="11.7308275"><ele>35.0</ele><time>2026-04-07T13:54:33.558Z</time></trkpt><trkpt lat="45.5992624" lon="11.7309789"><ele>34.666666666666664</ele><time>2026-04-07T13:54:34.547Z</time></trkpt><trkpt lat="45.5991765" lon="11.7311424"><ele>34.333333333333336</ele><time>2026-04-07T13:54:35.556Z</time></trkpt><trkpt lat="45.5990865" lon="11.7313245"><ele>34.0</ele><time>2026-04-07T13:54:36.549Z</time></trkpt><trkpt lat="45.5989839" lon="11.7315221"><ele>34.0</ele><time>2026-04-07T13:54:37.549Z</time></trkpt><trkpt lat="45.5988805" lon="11.7317288"><ele>34.0</ele><time>2026-04-07T13:54:38.555Z</time></trkpt><trkpt lat="45.598767" lon="11.7319551"><ele>34.0</ele><time>2026-04-07T13:54:39.575Z</time></trkpt><trkpt lat="45.5986499" lon="11.7321758"><ele>33.66666666666667</ele><time>2026-04-07T13:54:40.558Z</time></trkpt><trkpt lat="45.5985454" lon="11.732387"><ele>33.333333333333336</ele><time>2026-04-07T13:54:41.552Z</time></trkpt><trkpt lat="45.5984421" lon="11.732587"><ele>33.0</ele><time>2026-04-07T13:54:42.554Z</time></trkpt><trkpt lat="45.5983413" lon="11.7327803"><ele>33.0</ele><time>2026-04-07T13:54:43.555Z</time></trkpt><trkpt lat="45.5982475" lon="11.7329775"><ele>33.0</ele><time>2026-04-07T13:54:44.55Z</time></trkpt><trkpt lat="45.5981616" lon="11.733168"><ele>33.0</ele><time>2026-04-07T13:54:45.56Z</time></trkpt><trkpt lat="45.5980871" lon="11.7333546"><ele>33.0</ele><time>2026-04-07T13:54:46.561Z</time></trkpt><trkpt lat="45.5980365" lon="11.7335469"><ele>33.0</ele><time>2026-04-07T13:54:47.556Z</time></trkpt><trkpt lat="45.5979955" lon="11.7337539"><ele>33.0</ele><time>2026-04-07T13:54:48.552Z</time></trkpt><trkpt lat="45.5979741" lon="11.7339671"><ele>33.0</ele><time>2026-04-07T13:54:49.563Z</time></trkpt><trkpt lat="45.5979531" lon="11.7341841"><ele>32.5</ele><time>2026-04-07T13:54:50.554Z</time></trkpt><trkpt lat="45.5979221" lon="11.7343983"><ele>32.0</ele><time>2026-04-07T13:54:51.552Z</time></trkpt><trkpt lat="45.5978846" lon="11.7345937"><ele>31.5</ele><time>2026-04-07T13:54:52.564Z</time></trkpt><trkpt lat="45.5978358" lon="11.7347732"><ele>31.0</ele><time>2026-04-07T13:54:53.556Z</time></trkpt><trkpt lat="45.5977877" lon="11.7349395"><ele>31.25</ele><time>2026-04-07T13:54:54.552Z</time></trkpt><trkpt lat="45.5977405" lon="11.7350661"><ele>31.5</ele><time>2026-04-07T13:54:55.561Z</time></trkpt><trkpt lat="45.5976605" lon="11.7351783"><ele>31.75</ele><time>2026-04-07T13:54:56.562Z</time></trkpt><trkpt lat="45.5975746" lon="11.7352963"><ele>32.0</ele><time>2026-04-07T13:54:57.556Z</time></trkpt><trkpt lat="45.5974863" lon="11.7354179"><ele>32.0</ele><time>2026-04-07T13:54:58.559Z</time></trkpt><trkpt lat="45.5973616" lon="11.735548"><ele>32.0</ele><time>2026-04-07T13:54:59.555Z</time></trkpt><trkpt lat="45.5972041" lon="11.7356715"><ele>32.0</ele><time>2026-04-07T13:55:00.548Z</time></trkpt><trkpt lat="45.5970615" lon="11.7357862"><ele>32.0</ele><time>2026-04-07T13:55:01.555Z</time></trkpt><trkpt lat="45.5969203" lon="11.7359088"><ele>32.0</ele><time>2026-04-07T13:55:02.552Z</time></trkpt><trkpt lat="45.5967788" lon="11.7360309"><ele>32.0</ele><time>2026-04-07T13:55:03.558Z</time></trkpt><trkpt lat="45.596638" lon="11.7361465"><ele>32.33333333333333</ele><time>2026-04-07T13:55:04.568Z</time></trkpt><trkpt lat="45.5965026" lon="11.736254"><ele>32.666666666666664</ele><time>2026-04-07T13:55:05.562Z</time></trkpt><trkpt lat="45.596358" lon="11.7363605"><ele>33.0</ele><time>2026-04-07T13:55:06.555Z</time></trkpt><trkpt lat="45.5962008" lon="11.7364401"><ele>33.666666666666664</ele><time>2026-04-07T13:55:07.55Z</time></trkpt><trkpt lat="45.5960385" lon="11.7365086"><ele>34.33333333333333</ele><time>2026-04-07T13:55:08.561Z</time></trkpt><trkpt lat="45.5958805" lon="11.7365852"><ele>35.0</ele><time>2026-04-07T13:55:09.564Z</time></trkpt><trkpt lat="45.59573" lon="11.7366695"><ele>35.0</ele><time>2026-04-07T13:55:10.557Z</time></trkpt><trkpt lat="45.5955609" lon="11.7367506"><ele>35.0</ele><time>2026-04-07T13:55:11.555Z</time></trkpt><trkpt lat="45.595373" lon="11.7368155"><ele>35.0</ele><time>2026-04-07T13:55:12.557Z</time></trkpt><trkpt lat="45.5951708" lon="11.7368549"><ele>34.666666666666664</ele><time>2026-04-07T13:55:13.555Z</time></trkpt><trkpt lat="45.5949588" lon="11.7368839"><ele>34.333333333333336</ele><time>2026-04-07T13:55:14.557Z</time></trkpt><trkpt lat="45.5947382" lon="11.7369116"><ele>34.0</ele><time>2026-04-07T13:55:15.559Z</time></trkpt><trkpt lat="45.5945275" lon="11.7369416"><ele>34.0</ele><time>2026-04-07T13:55:16.554Z</time></trkpt><trkpt lat="45.5943095" lon="11.736988"><ele>34.0</ele><time>2026-04-07T13:55:17.553Z</time></trkpt><trkpt lat="45.5941068" lon="11.7370432"><ele>34.0</ele><time>2026-04-07T13:55:18.541Z</time></trkpt><trkpt lat="45.5939175" lon="11.7370944"><ele>34.0</ele><time>2026-04-07T13:55:19.548Z</time></trkpt><trkpt lat="45.5937196" lon="11.7371388"><ele>34.0</ele><time>2026-04-07T13:55:20.547Z</time></trkpt><trkpt lat="45.5935177" lon="11.7371789"><ele>34.0</ele><time>2026-04-07T13:55:21.551Z</time></trkpt><trkpt lat="45.5933107" lon="11.7372186"><ele>33.66666666666667</ele><time>2026-04-07T13:55:22.548Z</time></trkpt><trkpt lat="45.5931106" lon="11.7372562"><ele>33.333333333333336</ele><time>2026-04-07T13:55:23.539Z</time></trkpt><trkpt lat="45.5929201" lon="11.7372937"><ele>33.0</ele><time>2026-04-07T13:55:24.546Z</time></trkpt><trkpt lat="45.5927368" lon="11.7373311"><ele>33.0</ele><time>2026-04-07T13:55:25.549Z</time></trkpt><trkpt lat="45.5925578" lon="11.737366"><ele>33.0</ele><time>2026-04-07T13:55:26.546Z</time></trkpt><trkpt lat="45.5923631" lon="11.7374096"><ele>33.0</ele><time>2026-04-07T13:55:27.544Z</time></trkpt><trkpt lat="45.5921641" lon="11.7374504"><ele>33.333333333333336</ele><time>2026-04-07T13:55:28.548Z</time></trkpt><trkpt lat="45.5919732" lon="11.737481"><ele>33.66666666666667</ele><time>2026-04-07T13:55:29.543Z</time></trkpt><trkpt lat="45.5917714" lon="11.7375211"><ele>34.0</ele><time>2026-04-07T13:55:30.548Z</time></trkpt><trkpt lat="45.591591" lon="11.7375657"><ele>34.0</ele><time>2026-04-07T13:55:31.542Z</time></trkpt><trkpt lat="45.5914103" lon="11.7376201"><ele>34.0</ele><time>2026-04-07T13:55:32.544Z</time></trkpt><trkpt lat="45.5912273" lon="11.7376782"><ele>34.0</ele><time>2026-04-07T13:55:33.546Z</time></trkpt><trkpt lat="45.5910329" lon="11.7377358"><ele>33.66666666666667</ele><time>2026-04-07T13:55:34.541Z</time></trkpt><trkpt lat="45.5908393" lon="11.7377866"><ele>33.333333333333336</ele><time>2026-04-07T13:55:35.546Z</time></trkpt><trkpt lat="45.5906241" lon="11.7378332"><ele>33.0</ele><time>2026-04-07T13:55:36.544Z</time></trkpt><trkpt lat="45.59039" lon="11.7378772"><ele>32.5</ele><time>2026-04-07T13:55:37.569Z</time></trkpt><trkpt lat="45.590164" lon="11.7379092"><ele>32.0</ele><time>2026-04-07T13:55:38.546Z</time></trkpt><trkpt lat="45.5899274" lon="11.7379424"><ele>32.0</ele><time>2026-04-07T13:55:39.577Z</time></trkpt><trkpt lat="45.589698" lon="11.7379896"><ele>32.0</ele><time>2026-04-07T13:55:40.568Z</time></trkpt><trkpt lat="45.5894756" lon="11.7380455"><ele>32.5</ele><time>2026-04-07T13:55:41.55Z</time></trkpt><trkpt lat="45.5892513" lon="11.7380984"><ele>33.0</ele><time>2026-04-07T13:55:42.552Z</time></trkpt><trkpt lat="45.5890095" lon="11.7381661"><ele>33.0</ele><time>2026-04-07T13:55:43.571Z</time></trkpt><trkpt lat="45.5887836" lon="11.7382119"><ele>33.0</ele><time>2026-04-07T13:55:44.551Z</time></trkpt><trkpt lat="45.588561" lon="11.7382333"><ele>32.666666666666664</ele><time>2026-04-07T13:55:45.552Z</time></trkpt><trkpt lat="45.5883364" lon="11.7382556"><ele>32.33333333333333</ele><time>2026-04-07T13:55:46.546Z</time></trkpt><trkpt lat="45.5881168" lon="11.738297"><ele>32.0</ele><time>2026-04-07T13:55:47.551Z</time></trkpt><trkpt lat="45.587901" lon="11.7383426"><ele>32.33333333333333</ele><time>2026-04-07T13:55:48.548Z</time></trkpt><trkpt lat="45.5876938" lon="11.7383949"><ele>32.666666666666664</ele><time>2026-04-07T13:55:49.547Z</time></trkpt><trkpt lat="45.5874989" lon="11.7384431"><ele>33.0</ele><time>2026-04-07T13:55:50.546Z</time></trkpt><trkpt lat="45.5872937" lon="11.7385062"><ele>33.333333333333336</ele><time>2026-04-07T13:55:51.542Z</time></trkpt><trkpt lat="45.5870859" lon="11.738566"><ele>33.66666666666667</ele><time>2026-04-07T13:55:52.549Z</time></trkpt><trkpt lat="45.5868779" lon="11.7386225"><ele>34.0</ele><time>2026-04-07T13:55:53.546Z</time></trkpt><trkpt lat="45.5866745" lon="11.738676"><ele>34.0</ele><time>2026-04-07T13:55:54.549Z</time></trkpt><trkpt lat="45.5864781" lon="11.7387282"><ele>34.0</ele><time>2026-04-07T13:55:55.548Z</time></trkpt><trkpt lat="45.5862977" lon="11.7387727"><ele>34.0</ele><time>2026-04-07T13:55:56.546Z</time></trkpt><trkpt lat="45.5861353" lon="11.7388155"><ele>34.0</ele><time>2026-04-07T13:55:57.54Z</time></trkpt><trkpt lat="45.5859589" lon="11.738861"><ele>34.0</ele><time>2026-04-07T13:55:58.55Z</time></trkpt><trkpt lat="45.5857842" lon="11.7389011"><ele>34.0</ele><time>2026-04-07T13:55:59.544Z</time></trkpt><trkpt lat="45.5856196" lon="11.738938"><ele>34.0</ele><time>2026-04-07T13:56:00.546Z</time></trkpt><trkpt lat="45.5854554" lon="11.7389686"><ele>34.0</ele><time>2026-04-07T13:56:01.548Z</time></trkpt><trkpt lat="45.5853086" lon="11.7389887"><ele>34.0</ele><time>2026-04-07T13:56:02.553Z</time></trkpt><trkpt lat="45.5851695" lon="11.7390023"><ele>33.75</ele><time>2026-04-07T13:56:03.548Z</time></trkpt><trkpt lat="45.5850389" lon="11.7390177"><ele>33.5</ele><time>2026-04-07T13:56:04.554Z</time></trkpt><trkpt lat="45.5849199" lon="11.7390288"><ele>33.25</ele><time>2026-04-07T13:56:05.548Z</time></trkpt><trkpt lat="45.5848" lon="11.7390425"><ele>33.0</ele><time>2026-04-07T13:56:06.545Z</time></trkpt><trkpt lat="45.5846783" lon="11.7390585"><ele>33.0</ele><time>2026-04-07T13:56:07.553Z</time></trkpt><trkpt lat="45.5845455" lon="11.7390726"><ele>33.0</ele><time>2026-04-07T13:56:08.554Z</time></trkpt><trkpt lat="45.58444" lon="11.7390842"><ele>33.0</ele><time>2026-04-07T13:56:09.555Z</time></trkpt><trkpt lat="45.5843263" lon="11.7391031"><ele>33.0</ele><time>2026-04-07T13:56:10.557Z</time></trkpt><trkpt lat="45.5842071" lon="11.7391303"><ele>33.0</ele><time>2026-04-07T13:56:11.557Z</time></trkpt><trkpt lat="45.5840882" lon="11.7391518"><ele>33.0</ele><time>2026-04-07T13:56:12.558Z</time></trkpt><trkpt lat="45.5839737" lon="11.7391772"><ele>33.0</ele><time>2026-04-07T13:56:13.559Z</time></trkpt><trkpt lat="45.5838725" lon="11.7392022"><ele>33.0</ele><time>2026-04-07T13:56:14.555Z</time></trkpt><trkpt lat="45.5837804" lon="11.7392232"><ele>33.0</ele><time>2026-04-07T13:56:15.56Z</time></trkpt><trkpt lat="45.5836959" lon="11.73924"><ele>32.833333333333336</ele><time>2026-04-07T13:56:16.556Z</time></trkpt><trkpt lat="45.5836168" lon="11.7392601"><ele>32.666666666666664</ele><time>2026-04-07T13:56:17.559Z</time></trkpt><trkpt lat="45.5835476" lon="11.7392765"><ele>32.5</ele><time>2026-04-07T13:56:18.551Z</time></trkpt><trkpt lat="45.5834831" lon="11.7392886"><ele>32.33333333333333</ele><time>2026-04-07T13:56:19.56Z</time></trkpt><trkpt lat="45.5834042" lon="11.7393098"><ele>32.166666666666664</ele><time>2026-04-07T13:56:21.554Z</time></trkpt><trkpt lat="45.5833153" lon="11.739324"><ele>32.0</ele><time>2026-04-07T13:56:25.578Z</time></trkpt><trkpt lat="45.5831828" lon="11.7393215"><ele>32.0</ele><time>2026-04-07T13:56:27.55Z</time></trkpt><trkpt lat="45.5831021" lon="11.739331"><ele>32.0</ele><time>2026-04-07T13:56:28.551Z</time></trkpt><trkpt lat="45.5830108" lon="11.7393507"><ele>32.0</ele><time>2026-04-07T13:56:29.573Z</time></trkpt><trkpt lat="45.5829073" lon="11.7393802"><ele>32.0</ele><time>2026-04-07T13:56:30.564Z</time></trkpt><trkpt lat="45.582788" lon="11.7394118"><ele>32.0</ele><time>2026-04-07T13:56:31.557Z</time></trkpt><trkpt lat="45.5826555" lon="11.7394467"><ele>32.0</ele><time>2026-04-07T13:56:32.562Z</time></trkpt><trkpt lat="45.5825111" lon="11.7394775"><ele>32.0</ele><time>2026-04-07T13:56:33.585Z</time></trkpt><trkpt lat="45.5823653" lon="11.7395208"><ele>32.0</ele><time>2026-04-07T13:56:34.558Z</time></trkpt><trkpt lat="45.5822079" lon="11.739563"><ele>32.0</ele><time>2026-04-07T13:56:35.56Z</time></trkpt><trkpt lat="45.5820529" lon="11.7395991"><ele>32.0</ele><time>2026-04-07T13:56:36.558Z</time></trkpt><trkpt lat="45.5818912" lon="11.7396313"><ele>32.0</ele><time>2026-04-07T13:56:37.588Z</time></trkpt><trkpt lat="45.581727" lon="11.7396676"><ele>32.33333333333333</ele><time>2026-04-07T13:56:38.562Z</time></trkpt><trkpt lat="45.5815563" lon="11.7397024"><ele>32.666666666666664</ele><time>2026-04-07T13:56:39.555Z</time></trkpt><trkpt lat="45.5813644" lon="11.7397402"><ele>33.0</ele><time>2026-04-07T13:56:40.563Z</time></trkpt><trkpt lat="45.5811724" lon="11.7397779"><ele>33.0</ele><time>2026-04-07T13:56:41.553Z</time></trkpt><trkpt lat="45.5809867" lon="11.7398149"><ele>33.0</ele><time>2026-04-07T13:56:42.585Z</time></trkpt><trkpt lat="45.5808029" lon="11.739857"><ele>33.0</ele><time>2026-04-07T13:56:43.564Z</time></trkpt><trkpt lat="45.5806173" lon="11.7399014"><ele>33.0</ele><time>2026-04-07T13:56:44.559Z</time></trkpt><trkpt lat="45.5804318" lon="11.7399307"><ele>33.0</ele><time>2026-04-07T13:56:45.566Z</time></trkpt><trkpt lat="45.5802275" lon="11.7399558"><ele>33.0</ele><time>2026-04-07T13:56:46.56Z</time></trkpt><trkpt lat="45.5800277" lon="11.73999"><ele>33.0</ele><time>2026-04-07T13:56:47.556Z</time></trkpt><trkpt lat="45.5798201" lon="11.7400323"><ele>33.0</ele><time>2026-04-07T13:56:48.565Z</time></trkpt><trkpt lat="45.5796142" lon="11.7400733"><ele>33.0</ele><time>2026-04-07T13:56:49.561Z</time></trkpt><trkpt lat="45.5794295" lon="11.7401116"><ele>33.0</ele><time>2026-04-07T13:56:50.586Z</time></trkpt><trkpt lat="45.5792768" lon="11.7401422"><ele>33.0</ele><time>2026-04-07T13:56:51.559Z</time></trkpt><trkpt lat="45.5791328" lon="11.7401651"><ele>33.0</ele><time>2026-04-07T13:56:52.563Z</time></trkpt><trkpt lat="45.5790054" lon="11.7401831"><ele>33.0</ele><time>2026-04-07T13:56:53.556Z</time></trkpt><trkpt lat="45.578881" lon="11.7402137"><ele>32.6</ele><time>2026-04-07T13:56:54.56Z</time></trkpt><trkpt lat="45.5787615" lon="11.740237"><ele>32.199999999999996</ele><time>2026-04-07T13:56:55.545Z</time></trkpt><trkpt lat="45.5786695" lon="11.7402364"><ele>31.8</ele><time>2026-04-07T13:56:56.577Z</time></trkpt><trkpt lat="45.5786085" lon="11.7401844"><ele>31.4</ele><time>2026-04-07T13:56:58.564Z</time></trkpt><trkpt lat="45.5785281" lon="11.7401214"><ele>31.0</ele><time>2026-04-07T13:57:01.569Z</time></trkpt><trkpt lat="45.5784351" lon="11.7401652"><ele>30.75</ele><time>2026-04-07T13:57:03.552Z</time></trkpt><trkpt lat="45.5783606" lon="11.7402419"><ele>30.5</ele><time>2026-04-07T13:57:04.577Z</time></trkpt><trkpt lat="45.5782642" lon="11.740348"><ele>30.25</ele><time>2026-04-07T13:57:05.56Z</time></trkpt><trkpt lat="45.5781525" lon="11.740469"><ele>30.0</ele><time>2026-04-07T13:57:06.551Z</time></trkpt><trkpt lat="45.5780273" lon="11.7406026"><ele>30.0</ele><time>2026-04-07T13:57:07.554Z</time></trkpt><trkpt lat="45.5778982" lon="11.7407465"><ele>30.0</ele><time>2026-04-07T13:57:08.558Z</time></trkpt><trkpt lat="45.5777674" lon="11.7409018"><ele>30.0</ele><time>2026-04-07T13:57:09.55Z</time></trkpt><trkpt lat="45.5776152" lon="11.7410736"><ele>30.666666666666664</ele><time>2026-04-07T13:57:10.556Z</time></trkpt><trkpt lat="45.5774707" lon="11.7412325"><ele>31.333333333333332</ele><time>2026-04-07T13:57:11.56Z</time></trkpt><trkpt lat="45.5773368" lon="11.7413717"><ele>32.0</ele><time>2026-04-07T13:57:12.553Z</time></trkpt><trkpt lat="45.5771989" lon="11.7415343"><ele>32.0</ele><time>2026-04-07T13:57:13.558Z</time></trkpt><trkpt lat="45.5770592" lon="11.7416922"><ele>32.0</ele><time>2026-04-07T13:57:14.557Z</time></trkpt><trkpt lat="45.5769128" lon="11.7418536"><ele>32.0</ele><time>2026-04-07T13:57:15.558Z</time></trkpt><trkpt lat="45.5767599" lon="11.742013"><ele>32.33333333333333</ele><time>2026-04-07T13:57:16.558Z</time></trkpt><trkpt lat="45.5766104" lon="11.7421699"><ele>32.666666666666664</ele><time>2026-04-07T13:57:17.567Z</time></trkpt><trkpt lat="45.5764694" lon="11.7423235"><ele>33.0</ele><time>2026-04-07T13:57:18.559Z</time></trkpt><trkpt lat="45.5763063" lon="11.7424942"><ele>32.0</ele><time>2026-04-07T13:57:19.553Z</time></trkpt><trkpt lat="45.5761393" lon="11.7426722"><ele>31.0</ele><time>2026-04-07T13:57:20.563Z</time></trkpt><trkpt lat="45.5759857" lon="11.7428401"><ele>30.0</ele><time>2026-04-07T13:57:21.582Z</time></trkpt><trkpt lat="45.5758489" lon="11.7429972"><ele>29.666666666666664</ele><time>2026-04-07T13:57:22.556Z</time></trkpt><trkpt lat="45.5756992" lon="11.7431539"><ele>29.333333333333332</ele><time>2026-04-07T13:57:23.555Z</time></trkpt><trkpt lat="45.5755502" lon="11.7433112"><ele>29.0</ele><time>2026-04-07T13:57:24.556Z</time></trkpt><trkpt lat="45.5754131" lon="11.7434707"><ele>30.333333333333332</ele><time>2026-04-07T13:57:25.55Z</time></trkpt><trkpt lat="45.5752716" lon="11.7436452"><ele>31.666666666666664</ele><time>2026-04-07T13:57:26.562Z</time></trkpt><trkpt lat="45.5751229" lon="11.7438208"><ele>33.0</ele><time>2026-04-07T13:57:27.556Z</time></trkpt><trkpt lat="45.5749507" lon="11.7440143"><ele>33.0</ele><time>2026-04-07T13:57:28.556Z</time></trkpt><trkpt lat="45.5747846" lon="11.7442036"><ele>33.0</ele><time>2026-04-07T13:57:29.562Z</time></trkpt><trkpt lat="45.5746239" lon="11.7443865"><ele>33.0</ele><time>2026-04-07T13:57:30.566Z</time></trkpt><trkpt lat="45.574465" lon="11.7445538"><ele>32.0</ele><time>2026-04-07T13:57:31.562Z</time></trkpt><trkpt lat="45.5742863" lon="11.7447312"><ele>31.0</ele><time>2026-04-07T13:57:32.556Z</time></trkpt><trkpt lat="45.5741232" lon="11.7449123"><ele>30.0</ele><time>2026-04-07T13:57:33.557Z</time></trkpt><trkpt lat="45.5739571" lon="11.7450948"><ele>29.666666666666664</ele><time>2026-04-07T13:57:34.558Z</time></trkpt><trkpt lat="45.5737907" lon="11.7452759"><ele>29.333333333333332</ele><time>2026-04-07T13:57:35.564Z</time></trkpt><trkpt lat="45.5736321" lon="11.7454636"><ele>29.0</ele><time>2026-04-07T13:57:36.556Z</time></trkpt><trkpt lat="45.5734756" lon="11.7456489"><ele>29.0</ele><time>2026-04-07T13:57:37.566Z</time></trkpt><trkpt lat="45.5733139" lon="11.745832"><ele>29.0</ele><time>2026-04-07T13:57:38.565Z</time></trkpt><trkpt lat="45.5731401" lon="11.7460136"><ele>29.0</ele><time>2026-04-07T13:57:39.588Z</time></trkpt><trkpt lat="45.5729618" lon="11.7461889"><ele>30.5</ele><time>2026-04-07T13:57:40.573Z</time></trkpt><trkpt lat="45.5727751" lon="11.746384"><ele>32.0</ele><time>2026-04-07T13:57:41.57Z</time></trkpt><trkpt lat="45.5725903" lon="11.7465891"><ele>32.0</ele><time>2026-04-07T13:57:42.569Z</time></trkpt><trkpt lat="45.5724166" lon="11.7467847"><ele>32.0</ele><time>2026-04-07T13:57:43.566Z</time></trkpt><trkpt lat="45.5722458" lon="11.7469713"><ele>32.0</ele><time>2026-04-07T13:57:44.574Z</time></trkpt><trkpt lat="45.5720705" lon="11.7471684"><ele>30.0</ele><time>2026-04-07T13:57:45.57Z</time></trkpt><trkpt lat="45.5718891" lon="11.7473819"><ele>28.0</ele><time>2026-04-07T13:57:46.575Z</time></trkpt><trkpt lat="45.5717067" lon="11.7475789"><ele>29.0</ele><time>2026-04-07T13:57:47.576Z</time></trkpt><trkpt lat="45.571526" lon="11.7477817"><ele>30.0</ele><time>2026-04-07T13:57:48.575Z</time></trkpt><trkpt lat="45.5713485" lon="11.7479691"><ele>30.5</ele><time>2026-04-07T13:57:49.581Z</time></trkpt><trkpt lat="45.5711718" lon="11.748157"><ele>31.0</ele><time>2026-04-07T13:57:50.581Z</time></trkpt><trkpt lat="45.5709864" lon="11.748352"><ele>31.0</ele><time>2026-04-07T13:57:51.58Z</time></trkpt><trkpt lat="45.5708067" lon="11.7485472"><ele>31.0</ele><time>2026-04-07T13:57:52.584Z</time></trkpt><trkpt lat="45.5706176" lon="11.7487453"><ele>31.0</ele><time>2026-04-07T13:57:53.577Z</time></trkpt><trkpt lat="45.5704369" lon="11.7489405"><ele>31.0</ele><time>2026-04-07T13:57:54.576Z</time></trkpt><trkpt lat="45.5702696" lon="11.7491342"><ele>31.0</ele><time>2026-04-07T13:57:55.578Z</time></trkpt><trkpt lat="45.5701019" lon="11.7493119"><ele>30.666666666666668</ele><time>2026-04-07T13:57:56.576Z</time></trkpt><trkpt lat="45.5699442" lon="11.7494904"><ele>30.333333333333336</ele><time>2026-04-07T13:57:57.575Z</time></trkpt><trkpt lat="45.5697865" lon="11.749673"><ele>30.0</ele><time>2026-04-07T13:57:58.577Z</time></trkpt><trkpt lat="45.5696334" lon="11.7498471"><ele>29.666666666666664</ele><time>2026-04-07T13:57:59.58Z</time></trkpt><trkpt lat="45.5694686" lon="11.7500221"><ele>29.333333333333332</ele><time>2026-04-07T13:58:00.576Z</time></trkpt><trkpt lat="45.5693091" lon="11.7501955"><ele>29.0</ele><time>2026-04-07T13:58:01.575Z</time></trkpt><trkpt lat="45.5691413" lon="11.7503796"><ele>29.0</ele><time>2026-04-07T13:58:02.583Z</time></trkpt><trkpt lat="45.5689698" lon="11.7505658"><ele>29.0</ele><time>2026-04-07T13:58:03.571Z</time></trkpt><trkpt lat="45.5687932" lon="11.7507602"><ele>29.0</ele><time>2026-04-07T13:58:04.577Z</time></trkpt><trkpt lat="45.5686009" lon="11.7509559"><ele>28.5</ele><time>2026-04-07T13:58:05.569Z</time></trkpt><trkpt lat="45.5683989" lon="11.7511595"><ele>28.0</ele><time>2026-04-07T13:58:06.575Z</time></trkpt><trkpt lat="45.5681967" lon="11.7513777"><ele>28.0</ele><time>2026-04-07T13:58:07.568Z</time></trkpt><trkpt lat="45.5679902" lon="11.7516035"><ele>28.0</ele><time>2026-04-07T13:58:08.58Z</time></trkpt><trkpt lat="45.5677823" lon="11.7518284"><ele>28.0</ele><time>2026-04-07T13:58:09.577Z</time></trkpt><trkpt lat="45.5675685" lon="11.7520446"><ele>28.0</ele><time>2026-04-07T13:58:10.579Z</time></trkpt><trkpt lat="45.5673686" lon="11.7522506"><ele>28.0</ele><time>2026-04-07T13:58:11.572Z</time></trkpt><trkpt lat="45.5671906" lon="11.7524337"><ele>28.0</ele><time>2026-04-07T13:58:12.576Z</time></trkpt><trkpt lat="45.5670412" lon="11.7525933"><ele>28.0</ele><time>2026-04-07T13:58:13.578Z</time></trkpt><trkpt lat="45.5668994" lon="11.7527421"><ele>28.0</ele><time>2026-04-07T13:58:14.577Z</time></trkpt><trkpt lat="45.5667586" lon="11.7528947"><ele>28.0</ele><time>2026-04-07T13:58:15.574Z</time></trkpt><trkpt lat="45.5666084" lon="11.7530577"><ele>28.0</ele><time>2026-04-07T13:58:16.577Z</time></trkpt><trkpt lat="45.566456" lon="11.7532313"><ele>28.0</ele><time>2026-04-07T13:58:17.575Z</time></trkpt><trkpt lat="45.5663002" lon="11.7534042"><ele>28.0</ele><time>2026-04-07T13:58:18.575Z</time></trkpt><trkpt lat="45.566151" lon="11.7535503"><ele>28.0</ele><time>2026-04-07T13:58:19.574Z</time></trkpt><trkpt lat="45.5660054" lon="11.7537017"><ele>27.333333333333336</ele><time>2026-04-07T13:58:20.581Z</time></trkpt><trkpt lat="45.5658665" lon="11.7538913"><ele>26.666666666666664</ele><time>2026-04-07T13:58:21.574Z</time></trkpt><trkpt lat="45.5657156" lon="11.7541045"><ele>26.0</ele><time>2026-04-07T13:58:22.576Z</time></trkpt><trkpt lat="45.5655422" lon="11.7543214"><ele>27.5</ele><time>2026-04-07T13:58:23.572Z</time></trkpt><trkpt lat="45.5653271" lon="11.754545"><ele>29.0</ele><time>2026-04-07T13:58:24.573Z</time></trkpt><trkpt lat="45.5650945" lon="11.7547785"><ele>29.0</ele><time>2026-04-07T13:58:25.568Z</time></trkpt><trkpt lat="45.5648677" lon="11.7549978"><ele>29.0</ele><time>2026-04-07T13:58:26.567Z</time></trkpt><trkpt lat="45.5646815" lon="11.7552036"><ele>29.0</ele><time>2026-04-07T13:58:27.574Z</time></trkpt><trkpt lat="45.5645177" lon="11.7553863"><ele>29.0</ele><time>2026-04-07T13:58:28.576Z</time></trkpt><trkpt lat="45.5643587" lon="11.7555659"><ele>29.0</ele><time>2026-04-07T13:58:29.572Z</time></trkpt><trkpt lat="45.5642044" lon="11.7557323"><ele>29.0</ele><time>2026-04-07T13:58:30.573Z</time></trkpt><trkpt lat="45.564061" lon="11.7558984"><ele>29.0</ele><time>2026-04-07T13:58:31.567Z</time></trkpt><trkpt lat="45.5639103" lon="11.7560576"><ele>29.0</ele><time>2026-04-07T13:58:32.579Z</time></trkpt><trkpt lat="45.5637464" lon="11.7562294"><ele>29.0</ele><time>2026-04-07T13:58:33.569Z</time></trkpt><trkpt lat="45.5635787" lon="11.7564158"><ele>29.0</ele><time>2026-04-07T13:58:34.601Z</time></trkpt><trkpt lat="45.5634103" lon="11.7566176"><ele>29.0</ele><time>2026-04-07T13:58:35.573Z</time></trkpt><trkpt lat="45.5632386" lon="11.756815"><ele>29.0</ele><time>2026-04-07T13:58:36.577Z</time></trkpt><trkpt lat="45.5630655" lon="11.7570087"><ele>29.0</ele><time>2026-04-07T13:58:37.573Z</time></trkpt><trkpt lat="45.5628875" lon="11.7571913"><ele>29.0</ele><time>2026-04-07T13:58:38.575Z</time></trkpt><trkpt lat="45.5627045" lon="11.7573759"><ele>29.0</ele><time>2026-04-07T13:58:39.573Z</time></trkpt><trkpt lat="45.5625173" lon="11.7575649"><ele>29.0</ele><time>2026-04-07T13:58:40.578Z</time></trkpt><trkpt lat="45.5623284" lon="11.757755"><ele>28.5</ele><time>2026-04-07T13:58:41.573Z</time></trkpt><trkpt lat="45.5621453" lon="11.7579552"><ele>28.0</ele><time>2026-04-07T13:58:42.574Z</time></trkpt><trkpt lat="45.5619634" lon="11.7581662"><ele>28.0</ele><time>2026-04-07T13:58:43.576Z</time></trkpt><trkpt lat="45.5617833" lon="11.7583615"><ele>28.0</ele><time>2026-04-07T13:58:44.576Z</time></trkpt><trkpt lat="45.5615979" lon="11.7585544"><ele>28.0</ele><time>2026-04-07T13:58:45.578Z</time></trkpt><trkpt lat="45.5614087" lon="11.7587457"><ele>28.0</ele><time>2026-04-07T13:58:46.577Z</time></trkpt><trkpt lat="45.5612284" lon="11.7589438"><ele>28.0</ele><time>2026-04-07T13:58:47.579Z</time></trkpt><trkpt lat="45.561047" lon="11.7591441"><ele>28.0</ele><time>2026-04-07T13:58:48.587Z</time></trkpt><trkpt lat="45.5608604" lon="11.7593441"><ele>28.5</ele><time>2026-04-07T13:58:49.581Z</time></trkpt><trkpt lat="45.5606688" lon="11.7595473"><ele>29.0</ele><time>2026-04-07T13:58:50.579Z</time></trkpt><trkpt lat="45.5604757" lon="11.7597548"><ele>29.5</ele><time>2026-04-07T13:58:51.568Z</time></trkpt><trkpt lat="45.5602763" lon="11.7599726"><ele>30.0</ele><time>2026-04-07T13:58:52.578Z</time></trkpt><trkpt lat="45.5600911" lon="11.7601967"><ele>30.0</ele><time>2026-04-07T13:58:53.577Z</time></trkpt><trkpt lat="45.5599098" lon="11.760429"><ele>30.0</ele><time>2026-04-07T13:58:54.568Z</time></trkpt><trkpt lat="45.5597129" lon="11.7606486"><ele>30.0</ele><time>2026-04-07T13:58:55.574Z</time></trkpt><trkpt lat="45.5595146" lon="11.7608431"><ele>30.0</ele><time>2026-04-07T13:58:56.567Z</time></trkpt><trkpt lat="45.5593182" lon="11.7610457"><ele>30.0</ele><time>2026-04-07T13:58:57.575Z</time></trkpt><trkpt lat="45.5591271" lon="11.7612473"><ele>30.0</ele><time>2026-04-07T13:58:58.582Z</time></trkpt><trkpt lat="45.5589391" lon="11.7614577"><ele>30.0</ele><time>2026-04-07T13:58:59.576Z</time></trkpt><trkpt lat="45.5587485" lon="11.7616636"><ele>30.0</ele><time>2026-04-07T13:59:00.577Z</time></trkpt><trkpt lat="45.5585573" lon="11.7618639"><ele>28.0</ele><time>2026-04-07T13:59:01.573Z</time></trkpt><trkpt lat="45.5583509" lon="11.7620869"><ele>26.0</ele><time>2026-04-07T13:59:02.576Z</time></trkpt><trkpt lat="45.5581778" lon="11.7622961"><ele>26.0</ele><time>2026-04-07T13:59:03.577Z</time></trkpt><trkpt lat="45.558018" lon="11.762481"><ele>26.0</ele><time>2026-04-07T13:59:04.574Z</time></trkpt><trkpt lat="45.5578533" lon="11.7626611"><ele>26.0</ele><time>2026-04-07T13:59:05.571Z</time></trkpt><trkpt lat="45.5576725" lon="11.7628375"><ele>26.666666666666664</ele><time>2026-04-07T13:59:06.575Z</time></trkpt><trkpt lat="45.5575085" lon="11.7630005"><ele>27.333333333333336</ele><time>2026-04-07T13:59:07.57Z</time></trkpt><trkpt lat="45.5573489" lon="11.7631765"><ele>28.0</ele><time>2026-04-07T13:59:08.583Z</time></trkpt><trkpt lat="45.5572123" lon="11.7633458"><ele>28.0</ele><time>2026-04-07T13:59:09.577Z</time></trkpt><trkpt lat="45.5570531" lon="11.7635006"><ele>28.0</ele><time>2026-04-07T13:59:10.574Z</time></trkpt><trkpt lat="45.556914" lon="11.7636614"><ele>28.0</ele><time>2026-04-07T13:59:11.577Z</time></trkpt><trkpt lat="45.556754" lon="11.7638105"><ele>28.0</ele><time>2026-04-07T13:59:12.581Z</time></trkpt><trkpt lat="45.5566006" lon="11.7639655"><ele>28.0</ele><time>2026-04-07T13:59:13.578Z</time></trkpt><trkpt lat="45.5564416" lon="11.7641296"><ele>28.0</ele><time>2026-04-07T13:59:14.58Z</time></trkpt><trkpt lat="45.5562603" lon="11.7643332"><ele>27.5</ele><time>2026-04-07T13:59:15.58Z</time></trkpt><trkpt lat="45.5560783" lon="11.76451"><ele>27.0</ele><time>2026-04-07T13:59:16.57Z</time></trkpt><trkpt lat="45.5558972" lon="11.7647145"><ele>27.0</ele><time>2026-04-07T13:59:17.574Z</time></trkpt><trkpt lat="45.5556813" lon="11.7649386"><ele>27.0</ele><time>2026-04-07T13:59:18.581Z</time></trkpt><trkpt lat="45.5554594" lon="11.7651258"><ele>27.333333333333336</ele><time>2026-04-07T13:59:19.571Z</time></trkpt><trkpt lat="45.5552981" lon="11.7652882"><ele>27.666666666666668</ele><time>2026-04-07T13:59:20.576Z</time></trkpt><trkpt lat="45.5551595" lon="11.765448"><ele>28.0</ele><time>2026-04-07T13:59:21.58Z</time></trkpt><trkpt lat="45.5550048" lon="11.7656339"><ele>28.0</ele><time>2026-04-07T13:59:22.577Z</time></trkpt><trkpt lat="45.5548571" lon="11.76583"><ele>28.0</ele><time>2026-04-07T13:59:23.583Z</time></trkpt><trkpt lat="45.5546988" lon="11.7660177"><ele>28.0</ele><time>2026-04-07T13:59:24.575Z</time></trkpt><trkpt lat="45.5545367" lon="11.7661963"><ele>27.333333333333336</ele><time>2026-04-07T13:59:25.581Z</time></trkpt><trkpt lat="45.5543941" lon="11.7663751"><ele>26.666666666666664</ele><time>2026-04-07T13:59:26.576Z</time></trkpt><trkpt lat="45.5542206" lon="11.7665421"><ele>26.0</ele><time>2026-04-07T13:59:27.578Z</time></trkpt><trkpt lat="45.5540514" lon="11.766723"><ele>26.0</ele><time>2026-04-07T13:59:28.574Z</time></trkpt><trkpt lat="45.5539075" lon="11.7668825"><ele>26.0</ele><time>2026-04-07T13:59:29.577Z</time></trkpt><trkpt lat="45.5537552" lon="11.7670253"><ele>26.0</ele><time>2026-04-07T13:59:30.574Z</time></trkpt><trkpt lat="45.5536032" lon="11.7671453"><ele>26.0</ele><time>2026-04-07T13:59:31.565Z</time></trkpt><trkpt lat="45.5534125" lon="11.7672547"><ele>26.0</ele><time>2026-04-07T13:59:32.575Z</time></trkpt><trkpt lat="45.5532298" lon="11.7673576"><ele>26.0</ele><time>2026-04-07T13:59:33.564Z</time></trkpt><trkpt lat="45.5530587" lon="11.7674654"><ele>26.0</ele><time>2026-04-07T13:59:34.566Z</time></trkpt><trkpt lat="45.5528991" lon="11.7675615"><ele>26.0</ele><time>2026-04-07T13:59:35.577Z</time></trkpt><trkpt lat="45.5527505" lon="11.7676559"><ele>26.0</ele><time>2026-04-07T13:59:36.572Z</time></trkpt><trkpt lat="45.5526117" lon="11.7677692"><ele>26.0</ele><time>2026-04-07T13:59:37.572Z</time></trkpt><trkpt lat="45.5524595" lon="11.7678661"><ele>26.0</ele><time>2026-04-07T13:59:38.578Z</time></trkpt><trkpt lat="45.5522963" lon="11.7679316"><ele>26.0</ele><time>2026-04-07T13:59:39.578Z</time></trkpt><trkpt lat="45.5521525" lon="11.7679927"><ele>26.5</ele><time>2026-04-07T13:59:40.581Z</time></trkpt><trkpt lat="45.5520012" lon="11.7680568"><ele>27.0</ele><time>2026-04-07T13:59:41.581Z</time></trkpt><trkpt lat="45.5518574" lon="11.7681163"><ele>27.5</ele><time>2026-04-07T13:59:42.578Z</time></trkpt><trkpt lat="45.5517352" lon="11.7681875"><ele>28.0</ele><time>2026-04-07T13:59:43.574Z</time></trkpt><trkpt lat="45.5515917" lon="11.7682762"><ele>28.0</ele><time>2026-04-07T13:59:44.573Z</time></trkpt><trkpt lat="45.55146" lon="11.768336"><ele>27.999999999999996</ele><time>2026-04-07T13:59:45.568Z</time></trkpt><trkpt lat="45.5513553" lon="11.76839"><ele>27.999999999999996</ele><time>2026-04-07T13:59:46.572Z</time></trkpt><trkpt lat="45.551249" lon="11.7684485"><ele>28.0</ele><time>2026-04-07T13:59:47.578Z</time></trkpt><trkpt lat="45.5511717" lon="11.7684998"><ele>28.0</ele><time>2026-04-07T13:59:48.572Z</time></trkpt><trkpt lat="45.5510932" lon="11.7685564"><ele>28.000000000000004</ele><time>2026-04-07T13:59:49.578Z</time></trkpt><trkpt lat="45.5510179" lon="11.7686045"><ele>28.0</ele><time>2026-04-07T13:59:50.577Z</time></trkpt><trkpt lat="45.550919" lon="11.7686711"><ele>28.0</ele><time>2026-04-07T13:59:52.576Z</time></trkpt><trkpt lat="45.5508498" lon="11.7687261"><ele>28.0</ele><time>2026-04-07T13:59:54.574Z</time></trkpt><trkpt lat="45.550775" lon="11.7687523"><ele>28.000000000000004</ele><time>2026-04-07T13:59:57.577Z</time></trkpt><trkpt lat="45.5507035" lon="11.7687846"><ele>28.0</ele><time>2026-04-07T13:59:59.572Z</time></trkpt><trkpt lat="45.5505777" lon="11.7688657"><ele>28.0</ele><time>2026-04-07T14:00:01.591Z</time></trkpt><trkpt lat="45.5505064" lon="11.7689168"><ele>27.999999999999996</ele><time>2026-04-07T14:00:02.6Z</time></trkpt><trkpt lat="45.5504224" lon="11.7689663"><ele>27.999999999999996</ele><time>2026-04-07T14:00:03.59Z</time></trkpt><trkpt lat="45.5503269" lon="11.7690178"><ele>28.0</ele><time>2026-04-07T14:00:04.593Z</time></trkpt><trkpt lat="45.5502248" lon="11.7690678"><ele>28.0</ele><time>2026-04-07T14:00:05.569Z</time></trkpt><trkpt lat="45.5501245" lon="11.7691164"><ele>27.799999999999997</ele><time>2026-04-07T14:00:06.573Z</time></trkpt><trkpt lat="45.5500313" lon="11.7691634"><ele>27.599999999999998</ele><time>2026-04-07T14:00:07.575Z</time></trkpt><trkpt lat="45.5499372" lon="11.7692064"><ele>27.400000000000002</ele><time>2026-04-07T14:00:08.565Z</time></trkpt><trkpt lat="45.549843" lon="11.769255"><ele>27.200000000000003</ele><time>2026-04-07T14:00:09.572Z</time></trkpt><trkpt lat="45.5497511" lon="11.769297"><ele>27.0</ele><time>2026-04-07T14:00:10.578Z</time></trkpt><trkpt lat="45.5496752" lon="11.7693319"><ele>27.0</ele><time>2026-04-07T14:00:11.575Z</time></trkpt><trkpt lat="45.5496117" lon="11.7693614"><ele>27.000000000000004</ele><time>2026-04-07T14:00:12.577Z</time></trkpt><trkpt lat="45.5495057" lon="11.7694061"><ele>27.000000000000004</ele><time>2026-04-07T14:00:14.564Z</time></trkpt><trkpt lat="45.5493833" lon="11.7694552"><ele>27.0</ele><time>2026-04-07T14:00:16.568Z</time></trkpt><trkpt lat="45.5492776" lon="11.7695045"><ele>27.0</ele><time>2026-04-07T14:00:17.565Z</time></trkpt><trkpt lat="45.549146" lon="11.7695521"><ele>27.0</ele><time>2026-04-07T14:00:18.556Z</time></trkpt><trkpt lat="45.5489893" lon="11.7696073"><ele>27.0</ele><time>2026-04-07T14:00:19.567Z</time></trkpt><trkpt lat="45.5487662" lon="11.769707"><ele>27.0</ele><time>2026-04-07T14:00:20.572Z</time></trkpt><trkpt lat="45.5485422" lon="11.7698244"><ele>26.333333333333336</ele><time>2026-04-07T14:00:21.563Z</time></trkpt><trkpt lat="45.5483348" lon="11.7699353"><ele>25.666666666666668</ele><time>2026-04-07T14:00:22.572Z</time></trkpt><trkpt lat="45.5481461" lon="11.7700229"><ele>25.0</ele><time>2026-04-07T14:00:23.575Z</time></trkpt><trkpt lat="45.5479491" lon="11.7701287"><ele>25.0</ele><time>2026-04-07T14:00:24.573Z</time></trkpt><trkpt lat="45.547775" lon="11.7702491"><ele>25.0</ele><time>2026-04-07T14:00:25.579Z</time></trkpt><trkpt lat="45.5475807" lon="11.7703696"><ele>25.0</ele><time>2026-04-07T14:00:26.579Z</time></trkpt><trkpt lat="45.5473927" lon="11.7704658"><ele>25.0</ele><time>2026-04-07T14:00:27.583Z</time></trkpt><trkpt lat="45.5471891" lon="11.7705674"><ele>25.0</ele><time>2026-04-07T14:00:28.583Z</time></trkpt><trkpt lat="45.5469829" lon="11.7706826"><ele>25.0</ele><time>2026-04-07T14:00:29.574Z</time></trkpt><trkpt lat="45.5467767" lon="11.7708029"><ele>24.666666666666668</ele><time>2026-04-07T14:00:30.584Z</time></trkpt><trkpt lat="45.5465828" lon="11.7709135"><ele>24.333333333333336</ele><time>2026-04-07T14:00:31.577Z</time></trkpt><trkpt lat="45.5464034" lon="11.771023"><ele>24.0</ele><time>2026-04-07T14:00:32.575Z</time></trkpt><trkpt lat="45.5462754" lon="11.7711655"><ele>24.333333333333336</ele><time>2026-04-07T14:00:33.572Z</time></trkpt><trkpt lat="45.5461298" lon="11.7712563"><ele>24.666666666666668</ele><time>2026-04-07T14:00:34.571Z</time></trkpt><trkpt lat="45.5459553" lon="11.7713261"><ele>25.0</ele><time>2026-04-07T14:00:35.579Z</time></trkpt><trkpt lat="45.5457878" lon="11.7714169"><ele>25.0</ele><time>2026-04-07T14:00:36.578Z</time></trkpt><trkpt lat="45.5456091" lon="11.7715007"><ele>25.0</ele><time>2026-04-07T14:00:37.569Z</time></trkpt><trkpt lat="45.5454251" lon="11.7715936"><ele>25.0</ele><time>2026-04-07T14:00:38.574Z</time></trkpt><trkpt lat="45.545251" lon="11.7716848"><ele>25.333333333333336</ele><time>2026-04-07T14:00:39.577Z</time></trkpt><trkpt lat="45.5450885" lon="11.7717612"><ele>25.666666666666664</ele><time>2026-04-07T14:00:40.571Z</time></trkpt><trkpt lat="45.5449239" lon="11.771823"><ele>26.0</ele><time>2026-04-07T14:00:41.576Z</time></trkpt><trkpt lat="45.5447719" lon="11.7719371"><ele>26.0</ele><time>2026-04-07T14:00:42.575Z</time></trkpt><trkpt lat="45.5445832" lon="11.7719848"><ele>26.0</ele><time>2026-04-07T14:00:43.566Z</time></trkpt><trkpt lat="45.5444063" lon="11.7720442"><ele>26.0</ele><time>2026-04-07T14:00:44.575Z</time></trkpt><trkpt lat="45.5442477" lon="11.7721195"><ele>25.666666666666664</ele><time>2026-04-07T14:00:45.575Z</time></trkpt><trkpt lat="45.5440995" lon="11.7722052"><ele>25.333333333333336</ele><time>2026-04-07T14:00:46.571Z</time></trkpt><trkpt lat="45.5439492" lon="11.7722699"><ele>25.0</ele><time>2026-04-07T14:00:47.577Z</time></trkpt><trkpt lat="45.5438218" lon="11.7723373"><ele>25.25</ele><time>2026-04-07T14:00:48.57Z</time></trkpt><trkpt lat="45.5436842" lon="11.7724084"><ele>25.5</ele><time>2026-04-07T14:00:49.569Z</time></trkpt><trkpt lat="45.5435495" lon="11.7724632"><ele>25.75</ele><time>2026-04-07T14:00:50.579Z</time></trkpt><trkpt lat="45.543426" lon="11.7725361"><ele>26.0</ele><time>2026-04-07T14:00:51.574Z</time></trkpt><trkpt lat="45.5433115" lon="11.7725945"><ele>26.0</ele><time>2026-04-07T14:00:52.565Z</time></trkpt><trkpt lat="45.5431635" lon="11.7726745"><ele>26.0</ele><time>2026-04-07T14:00:53.572Z</time></trkpt><trkpt lat="45.5430173" lon="11.7727459"><ele>26.0</ele><time>2026-04-07T14:00:54.566Z</time></trkpt><trkpt lat="45.5428478" lon="11.7728533"><ele>26.0</ele><time>2026-04-07T14:00:55.565Z</time></trkpt><trkpt lat="45.5426871" lon="11.7729426"><ele>26.0</ele><time>2026-04-07T14:00:56.567Z</time></trkpt><trkpt lat="45.5425315" lon="11.7730312"><ele>26.0</ele><time>2026-04-07T14:00:57.586Z</time></trkpt><trkpt lat="45.5423667" lon="11.7730913"><ele>26.0</ele><time>2026-04-07T14:00:58.581Z</time></trkpt><trkpt lat="45.5422214" lon="11.7731661"><ele>26.0</ele><time>2026-04-07T14:00:59.568Z</time></trkpt><trkpt lat="45.5420983" lon="11.7732281"><ele>26.0</ele><time>2026-04-07T14:01:00.576Z</time></trkpt><trkpt lat="45.5419721" lon="11.7733197"><ele>26.0</ele><time>2026-04-07T14:01:01.566Z</time></trkpt><trkpt lat="45.5418378" lon="11.773408"><ele>26.0</ele><time>2026-04-07T14:01:02.571Z</time></trkpt><trkpt lat="45.5417082" lon="11.773482"><ele>26.0</ele><time>2026-04-07T14:01:03.567Z</time></trkpt><trkpt lat="45.5415794" lon="11.7734952"><ele>26.0</ele><time>2026-04-07T14:01:04.569Z</time></trkpt><trkpt lat="45.5415024" lon="11.7735449"><ele>26.0</ele><time>2026-04-07T14:01:05.566Z</time></trkpt><trkpt lat="45.5414158" lon="11.7735549"><ele>26.0</ele><time>2026-04-07T14:01:06.561Z</time></trkpt><trkpt lat="45.5413137" lon="11.7736385"><ele>26.0</ele><time>2026-04-07T14:01:07.564Z</time></trkpt><trkpt lat="45.541196" lon="11.7736852"><ele>26.0</ele><time>2026-04-07T14:01:08.561Z</time></trkpt><trkpt lat="45.5410987" lon="11.7737452"><ele>26.0</ele><time>2026-04-07T14:01:09.568Z</time></trkpt><trkpt lat="45.5409839" lon="11.7738142"><ele>26.0</ele><time>2026-04-07T14:01:10.571Z</time></trkpt><trkpt lat="45.5408745" lon="11.7738747"><ele>26.0</ele><time>2026-04-07T14:01:11.572Z</time></trkpt><trkpt lat="45.5407548" lon="11.7739422"><ele>26.0</ele><time>2026-04-07T14:01:12.569Z</time></trkpt><trkpt lat="45.5406173" lon="11.7740219"><ele>26.0</ele><time>2026-04-07T14:01:13.576Z</time></trkpt><trkpt lat="45.5404713" lon="11.7740858"><ele>26.0</ele><time>2026-04-07T14:01:14.571Z</time></trkpt><trkpt lat="45.5402931" lon="11.7741496"><ele>26.0</ele><time>2026-04-07T14:01:15.573Z</time></trkpt><trkpt lat="45.5401227" lon="11.7742415"><ele>26.0</ele><time>2026-04-07T14:01:16.574Z</time></trkpt><trkpt lat="45.5399507" lon="11.7743307"><ele>26.0</ele><time>2026-04-07T14:01:17.58Z</time></trkpt><trkpt lat="45.5397625" lon="11.7744418"><ele>26.333333333333332</ele><time>2026-04-07T14:01:18.571Z</time></trkpt><trkpt lat="45.53958" lon="11.7745424"><ele>26.666666666666664</ele><time>2026-04-07T14:01:19.574Z</time></trkpt><trkpt lat="45.5394058" lon="11.7746404"><ele>27.0</ele><time>2026-04-07T14:01:20.579Z</time></trkpt><trkpt lat="45.5392342" lon="11.774738"><ele>27.0</ele><time>2026-04-07T14:01:21.576Z</time></trkpt><trkpt lat="45.5390644" lon="11.7748348"><ele>27.0</ele><time>2026-04-07T14:01:22.576Z</time></trkpt><trkpt lat="45.5388792" lon="11.7749171"><ele>27.0</ele><time>2026-04-07T14:01:23.577Z</time></trkpt><trkpt lat="45.5387098" lon="11.7750084"><ele>26.333333333333336</ele><time>2026-04-07T14:01:24.578Z</time></trkpt><trkpt lat="45.5385393" lon="11.7751003"><ele>25.666666666666668</ele><time>2026-04-07T14:01:25.577Z</time></trkpt><trkpt lat="45.5383831" lon="11.7751695"><ele>25.0</ele><time>2026-04-07T14:01:26.574Z</time></trkpt><trkpt lat="45.5382246" lon="11.7752462"><ele>25.0</ele><time>2026-04-07T14:01:27.572Z</time></trkpt><trkpt lat="45.5380474" lon="11.7753315"><ele>25.0</ele><time>2026-04-07T14:01:28.581Z</time></trkpt><trkpt lat="45.5378835" lon="11.7754383"><ele>25.0</ele><time>2026-04-07T14:01:29.575Z</time></trkpt><trkpt lat="45.5377175" lon="11.7755254"><ele>25.0</ele><time>2026-04-07T14:01:30.581Z</time></trkpt><trkpt lat="45.5375508" lon="11.7756158"><ele>25.0</ele><time>2026-04-07T14:01:31.582Z</time></trkpt><trkpt lat="45.5373563" lon="11.7757306"><ele>25.0</ele><time>2026-04-07T14:01:32.577Z</time></trkpt><trkpt lat="45.5371835" lon="11.7758364"><ele>25.0</ele><time>2026-04-07T14:01:33.573Z</time></trkpt><trkpt lat="45.5370102" lon="11.7759385"><ele>25.0</ele><time>2026-04-07T14:01:34.58Z</time></trkpt><trkpt lat="45.5368111" lon="11.7760421"><ele>25.0</ele><time>2026-04-07T14:01:35.574Z</time></trkpt><trkpt lat="45.5366408" lon="11.7761145"><ele>25.0</ele><time>2026-04-07T14:01:36.57Z</time></trkpt><trkpt lat="45.5364664" lon="11.7761917"><ele>25.0</ele><time>2026-04-07T14:01:37.573Z</time></trkpt><trkpt lat="45.5363215" lon="11.7762695"><ele>25.0</ele><time>2026-04-07T14:01:38.567Z</time></trkpt><trkpt lat="45.5361909" lon="11.7763474"><ele>25.0</ele><time>2026-04-07T14:01:39.584Z</time></trkpt><trkpt lat="45.5360761" lon="11.7764042"><ele>25.0</ele><time>2026-04-07T14:01:40.572Z</time></trkpt><trkpt lat="45.5359616" lon="11.7764697"><ele>25.0</ele><time>2026-04-07T14:01:41.564Z</time></trkpt><trkpt lat="45.5358568" lon="11.7765454"><ele>25.0</ele><time>2026-04-07T14:01:42.57Z</time></trkpt><trkpt lat="45.5357287" lon="11.7766021"><ele>25.0</ele><time>2026-04-07T14:01:43.565Z</time></trkpt><trkpt lat="45.5355695" lon="11.7766666"><ele>25.0</ele><time>2026-04-07T14:01:44.576Z</time></trkpt><trkpt lat="45.535412" lon="11.7767266"><ele>25.0</ele><time>2026-04-07T14:01:45.579Z</time></trkpt><trkpt lat="45.5352476" lon="11.7767964"><ele>25.0</ele><time>2026-04-07T14:01:46.582Z</time></trkpt><trkpt lat="45.5350796" lon="11.7768775"><ele>25.0</ele><time>2026-04-07T14:01:47.577Z</time></trkpt><trkpt lat="45.5349188" lon="11.7769616"><ele>25.0</ele><time>2026-04-07T14:01:48.578Z</time></trkpt><trkpt lat="45.5347527" lon="11.7770774"><ele>25.0</ele><time>2026-04-07T14:01:49.571Z</time></trkpt><trkpt lat="45.5345621" lon="11.777188"><ele>25.0</ele><time>2026-04-07T14:01:50.577Z</time></trkpt><trkpt lat="45.5344003" lon="11.7772488"><ele>25.0</ele><time>2026-04-07T14:01:51.571Z</time></trkpt><trkpt lat="45.5342165" lon="11.7773531"><ele>25.0</ele><time>2026-04-07T14:01:52.566Z</time></trkpt><trkpt lat="45.5340132" lon="11.7774693"><ele>25.0</ele><time>2026-04-07T14:01:53.589Z</time></trkpt><trkpt lat="45.5338058" lon="11.7775815"><ele>25.0</ele><time>2026-04-07T14:01:54.59Z</time></trkpt><trkpt lat="45.5336263" lon="11.7776579"><ele>24.666666666666668</ele><time>2026-04-07T14:01:55.574Z</time></trkpt><trkpt lat="45.5334254" lon="11.7777613"><ele>24.333333333333336</ele><time>2026-04-07T14:01:56.576Z</time></trkpt><trkpt lat="45.533253" lon="11.7778295"><ele>24.0</ele><time>2026-04-07T14:01:57.574Z</time></trkpt><trkpt lat="45.5330256" lon="11.7779343"><ele>24.0</ele><time>2026-04-07T14:01:58.579Z</time></trkpt><trkpt lat="45.5328305" lon="11.7780421"><ele>24.0</ele><time>2026-04-07T14:01:59.571Z</time></trkpt><trkpt lat="45.532653" lon="11.7781344"><ele>24.0</ele><time>2026-04-07T14:02:00.582Z</time></trkpt><trkpt lat="45.5324593" lon="11.7782259"><ele>24.0</ele><time>2026-04-07T14:02:01.579Z</time></trkpt><trkpt lat="45.5322809" lon="11.7783286"><ele>24.0</ele><time>2026-04-07T14:02:02.581Z</time></trkpt><trkpt lat="45.5321232" lon="11.7783932"><ele>24.0</ele><time>2026-04-07T14:02:03.583Z</time></trkpt><trkpt lat="45.5319544" lon="11.7784532"><ele>24.333333333333336</ele><time>2026-04-07T14:02:04.584Z</time></trkpt><trkpt lat="45.5317616" lon="11.7785449"><ele>24.666666666666668</ele><time>2026-04-07T14:02:05.578Z</time></trkpt><trkpt lat="45.5315903" lon="11.7786543"><ele>25.0</ele><time>2026-04-07T14:02:06.601Z</time></trkpt><trkpt lat="45.5314287" lon="11.7787513"><ele>25.0</ele><time>2026-04-07T14:02:07.577Z</time></trkpt><trkpt lat="45.5312707" lon="11.7788494"><ele>25.0</ele><time>2026-04-07T14:02:08.57Z</time></trkpt><trkpt lat="45.5311029" lon="11.7789476"><ele>25.0</ele><time>2026-04-07T14:02:09.57Z</time></trkpt><trkpt lat="45.5309511" lon="11.7790354"><ele>24.666666666666668</ele><time>2026-04-07T14:02:10.574Z</time></trkpt><trkpt lat="45.5307879" lon="11.7791237"><ele>24.333333333333336</ele><time>2026-04-07T14:02:11.578Z</time></trkpt><trkpt lat="45.5306157" lon="11.7791863"><ele>24.0</ele><time>2026-04-07T14:02:12.572Z</time></trkpt><trkpt lat="45.5304462" lon="11.7792453"><ele>24.0</ele><time>2026-04-07T14:02:13.579Z</time></trkpt><trkpt lat="45.5302959" lon="11.7793137"><ele>24.0</ele><time>2026-04-07T14:02:14.572Z</time></trkpt><trkpt lat="45.5301384" lon="11.7793732"><ele>24.0</ele><time>2026-04-07T14:02:15.571Z</time></trkpt><trkpt lat="45.529998" lon="11.7794694"><ele>24.333333333333336</ele><time>2026-04-07T14:02:16.573Z</time></trkpt><trkpt lat="45.5298521" lon="11.7795436"><ele>24.666666666666668</ele><time>2026-04-07T14:02:17.573Z</time></trkpt><trkpt lat="45.5297097" lon="11.7796278"><ele>25.0</ele><time>2026-04-07T14:02:18.57Z</time></trkpt><trkpt lat="45.5295652" lon="11.7797228"><ele>24.333333333333336</ele><time>2026-04-07T14:02:19.574Z</time></trkpt><trkpt lat="45.5293999" lon="11.7798311"><ele>23.666666666666668</ele><time>2026-04-07T14:02:20.576Z</time></trkpt><trkpt lat="45.5292245" lon="11.7799331"><ele>23.0</ele><time>2026-04-07T14:02:21.575Z</time></trkpt><trkpt lat="45.5290327" lon="11.7800417"><ele>23.0</ele><time>2026-04-07T14:02:22.588Z</time></trkpt><trkpt lat="45.5288406" lon="11.7801411"><ele>23.0</ele><time>2026-04-07T14:02:23.575Z</time></trkpt><trkpt lat="45.5286682" lon="11.7802249"><ele>23.0</ele><time>2026-04-07T14:02:24.573Z</time></trkpt><trkpt lat="45.5284446" lon="11.7803279"><ele>23.5</ele><time>2026-04-07T14:02:25.575Z</time></trkpt><trkpt lat="45.5282346" lon="11.7804445"><ele>24.0</ele><time>2026-04-07T14:02:26.574Z</time></trkpt><trkpt lat="45.5280148" lon="11.7805572"><ele>23.666666666666668</ele><time>2026-04-07T14:02:27.577Z</time></trkpt><trkpt lat="45.5278172" lon="11.7806626"><ele>23.333333333333336</ele><time>2026-04-07T14:02:28.579Z</time></trkpt><trkpt lat="45.5276353" lon="11.7807487"><ele>23.0</ele><time>2026-04-07T14:02:29.577Z</time></trkpt><trkpt lat="45.5274533" lon="11.7808452"><ele>23.0</ele><time>2026-04-07T14:02:30.575Z</time></trkpt><trkpt lat="45.5272932" lon="11.7809244"><ele>23.0</ele><time>2026-04-07T14:02:31.574Z</time></trkpt><trkpt lat="45.527116" lon="11.7810253"><ele>23.0</ele><time>2026-04-07T14:02:32.568Z</time></trkpt><trkpt lat="45.5269348" lon="11.7811276"><ele>22.666666666666668</ele><time>2026-04-07T14:02:33.571Z</time></trkpt><trkpt lat="45.526738" lon="11.7812381"><ele>22.333333333333332</ele><time>2026-04-07T14:02:34.572Z</time></trkpt><trkpt lat="45.5265517" lon="11.78133"><ele>22.0</ele><time>2026-04-07T14:02:35.572Z</time></trkpt><trkpt lat="45.5263736" lon="11.7814249"><ele>22.666666666666664</ele><time>2026-04-07T14:02:36.572Z</time></trkpt><trkpt lat="45.5261904" lon="11.7815147"><ele>23.333333333333332</ele><time>2026-04-07T14:02:37.576Z</time></trkpt><trkpt lat="45.5260102" lon="11.7816001"><ele>24.0</ele><time>2026-04-07T14:02:38.576Z</time></trkpt><trkpt lat="45.5258126" lon="11.7817072"><ele>24.0</ele><time>2026-04-07T14:02:39.572Z</time></trkpt><trkpt lat="45.5256054" lon="11.7818202"><ele>24.0</ele><time>2026-04-07T14:02:40.582Z</time></trkpt><trkpt lat="45.525413" lon="11.7819192"><ele>24.0</ele><time>2026-04-07T14:02:41.574Z</time></trkpt><trkpt lat="45.5252176" lon="11.7820114"><ele>23.666666666666668</ele><time>2026-04-07T14:02:42.573Z</time></trkpt><trkpt lat="45.5250653" lon="11.7820993"><ele>23.333333333333336</ele><time>2026-04-07T14:02:43.58Z</time></trkpt><trkpt lat="45.5248984" lon="11.7821555"><ele>23.0</ele><time>2026-04-07T14:02:44.578Z</time></trkpt><trkpt lat="45.5247459" lon="11.7822087"><ele>23.0</ele><time>2026-04-07T14:02:45.577Z</time></trkpt><trkpt lat="45.524619" lon="11.7822581"><ele>23.0</ele><time>2026-04-07T14:02:46.579Z</time></trkpt><trkpt lat="45.5244669" lon="11.7822774"><ele>23.0</ele><time>2026-04-07T14:02:47.567Z</time></trkpt><trkpt lat="45.5243153" lon="11.7822843"><ele>23.0</ele><time>2026-04-07T14:02:48.571Z</time></trkpt><trkpt lat="45.5242146" lon="11.7822762"><ele>22.799999999999997</ele><time>2026-04-07T14:02:49.568Z</time></trkpt><trkpt lat="45.5241272" lon="11.7822057"><ele>22.6</ele><time>2026-04-07T14:02:50.565Z</time></trkpt><trkpt lat="45.5240312" lon="11.7821447"><ele>22.4</ele><time>2026-04-07T14:02:52.568Z</time></trkpt><trkpt lat="45.5239396" lon="11.7821187"><ele>22.200000000000003</ele><time>2026-04-07T14:02:53.57Z</time></trkpt><trkpt lat="45.5238386" lon="11.782142"><ele>22.0</ele><time>2026-04-07T14:02:54.574Z</time></trkpt><trkpt lat="45.5237509" lon="11.7822325"><ele>22.0</ele><time>2026-04-07T14:02:55.565Z</time></trkpt><trkpt lat="45.5236493" lon="11.7823115"><ele>22.0</ele><time>2026-04-07T14:02:56.557Z</time></trkpt><trkpt lat="45.5235372" lon="11.7823629"><ele>22.0</ele><time>2026-04-07T14:02:57.557Z</time></trkpt><trkpt lat="45.5234407" lon="11.7823933"><ele>22.0</ele><time>2026-04-07T14:02:58.573Z</time></trkpt><trkpt lat="45.5233142" lon="11.7823655"><ele>22.0</ele><time>2026-04-07T14:02:59.564Z</time></trkpt><trkpt lat="45.5231363" lon="11.7823596"><ele>22.0</ele><time>2026-04-07T14:03:00.582Z</time></trkpt><trkpt lat="45.5229544" lon="11.7823823"><ele>22.0</ele><time>2026-04-07T14:03:01.556Z</time></trkpt><trkpt lat="45.5227821" lon="11.7824466"><ele>22.0</ele><time>2026-04-07T14:03:02.563Z</time></trkpt><trkpt lat="45.5226184" lon="11.7825451"><ele>22.0</ele><time>2026-04-07T14:03:03.553Z</time></trkpt><trkpt lat="45.5224623" lon="11.7826654"><ele>22.0</ele><time>2026-04-07T14:03:04.563Z</time></trkpt><trkpt lat="45.5222973" lon="11.782766"><ele>22.0</ele><time>2026-04-07T14:03:05.565Z</time></trkpt><trkpt lat="45.5220926" lon="11.7828703"><ele>22.0</ele><time>2026-04-07T14:03:06.581Z</time></trkpt><trkpt lat="45.5218694" lon="11.7829715"><ele>22.0</ele><time>2026-04-07T14:03:07.557Z</time></trkpt><trkpt lat="45.5216322" lon="11.7830875"><ele>22.0</ele><time>2026-04-07T14:03:08.564Z</time></trkpt><trkpt lat="45.5214117" lon="11.7832386"><ele>22.0</ele><time>2026-04-07T14:03:09.565Z</time></trkpt><trkpt lat="45.5211957" lon="11.7833839"><ele>22.0</ele><time>2026-04-07T14:03:10.56Z</time></trkpt><trkpt lat="45.5209852" lon="11.7835131"><ele>22.0</ele><time>2026-04-07T14:03:11.571Z</time></trkpt><trkpt lat="45.5207859" lon="11.7836372"><ele>22.0</ele><time>2026-04-07T14:03:12.576Z</time></trkpt><trkpt lat="45.5205733" lon="11.7837832"><ele>21.666666666666664</ele><time>2026-04-07T14:03:13.569Z</time></trkpt><trkpt lat="45.5203467" lon="11.783863"><ele>21.333333333333332</ele><time>2026-04-07T14:03:14.574Z</time></trkpt><trkpt lat="45.5201449" lon="11.7839698"><ele>21.0</ele><time>2026-04-07T14:03:15.585Z</time></trkpt><trkpt lat="45.5199155" lon="11.7841023"><ele>21.0</ele><time>2026-04-07T14:03:16.59Z</time></trkpt><trkpt lat="45.5196834" lon="11.7842269"><ele>21.0</ele><time>2026-04-07T14:03:17.603Z</time></trkpt><trkpt lat="45.5194621" lon="11.7843318"><ele>20.5</ele><time>2026-04-07T14:03:18.581Z</time></trkpt><trkpt lat="45.5192384" lon="11.7844501"><ele>20.0</ele><time>2026-04-07T14:03:19.601Z</time></trkpt><trkpt lat="45.5190231" lon="11.784552"><ele>20.0</ele><time>2026-04-07T14:03:20.583Z</time></trkpt><trkpt lat="45.5187868" lon="11.7846864"><ele>20.0</ele><time>2026-04-07T14:03:21.586Z</time></trkpt><trkpt lat="45.5185704" lon="11.7848052"><ele>20.666666666666668</ele><time>2026-04-07T14:03:22.583Z</time></trkpt><trkpt lat="45.5183618" lon="11.7849067"><ele>21.333333333333332</ele><time>2026-04-07T14:03:23.607Z</time></trkpt><trkpt lat="45.5181574" lon="11.7849946"><ele>22.0</ele><time>2026-04-07T14:03:24.58Z</time></trkpt><trkpt lat="45.5179549" lon="11.7850678"><ele>22.0</ele><time>2026-04-07T14:03:25.583Z</time></trkpt><trkpt lat="45.5177547" lon="11.7851364"><ele>22.0</ele><time>2026-04-07T14:03:26.571Z</time></trkpt><trkpt lat="45.5175698" lon="11.7851722"><ele>22.0</ele><time>2026-04-07T14:03:27.58Z</time></trkpt><trkpt lat="45.5173928" lon="11.7852173"><ele>21.5</ele><time>2026-04-07T14:03:28.577Z</time></trkpt><trkpt lat="45.5171722" lon="11.7852876"><ele>21.0</ele><time>2026-04-07T14:03:29.568Z</time></trkpt><trkpt lat="45.5169316" lon="11.7853614"><ele>21.0</ele><time>2026-04-07T14:03:30.572Z</time></trkpt><trkpt lat="45.516682" lon="11.7854387"><ele>21.0</ele><time>2026-04-07T14:03:31.566Z</time></trkpt><trkpt lat="45.5164374" lon="11.7855181"><ele>21.5</ele><time>2026-04-07T14:03:32.589Z</time></trkpt><trkpt lat="45.5161936" lon="11.7855917"><ele>22.0</ele><time>2026-04-07T14:03:33.57Z</time></trkpt><trkpt lat="45.5159585" lon="11.785681"><ele>22.0</ele><time>2026-04-07T14:03:34.577Z</time></trkpt><trkpt lat="45.5157266" lon="11.7857737"><ele>22.0</ele><time>2026-04-07T14:03:35.571Z</time></trkpt><trkpt lat="45.5155026" lon="11.78585"><ele>22.0</ele><time>2026-04-07T14:03:36.573Z</time></trkpt><trkpt lat="45.5152708" lon="11.7859357"><ele>22.0</ele><time>2026-04-07T14:03:37.564Z</time></trkpt><trkpt lat="45.515046" lon="11.7859838"><ele>21.666666666666664</ele><time>2026-04-07T14:03:38.572Z</time></trkpt><trkpt lat="45.5148345" lon="11.7860363"><ele>21.333333333333332</ele><time>2026-04-07T14:03:39.567Z</time></trkpt><trkpt lat="45.5146382" lon="11.7860936"><ele>21.0</ele><time>2026-04-07T14:03:40.574Z</time></trkpt><trkpt lat="45.5144556" lon="11.7861271"><ele>21.0</ele><time>2026-04-07T14:03:41.573Z</time></trkpt><trkpt lat="45.5142687" lon="11.7861685"><ele>21.0</ele><time>2026-04-07T14:03:42.571Z</time></trkpt><trkpt lat="45.5140566" lon="11.7862283"><ele>21.0</ele><time>2026-04-07T14:03:43.577Z</time></trkpt><trkpt lat="45.5138584" lon="11.7862803"><ele>21.0</ele><time>2026-04-07T14:03:44.576Z</time></trkpt><trkpt lat="45.5136465" lon="11.7863395"><ele>21.0</ele><time>2026-04-07T14:03:45.577Z</time></trkpt><trkpt lat="45.5134216" lon="11.7863817"><ele>21.0</ele><time>2026-04-07T14:03:46.576Z</time></trkpt><trkpt lat="45.5132151" lon="11.7864531"><ele>21.0</ele><time>2026-04-07T14:03:47.574Z</time></trkpt><trkpt lat="45.5129895" lon="11.7865309"><ele>21.0</ele><time>2026-04-07T14:03:48.578Z</time></trkpt><trkpt lat="45.5127532" lon="11.7865955"><ele>21.5</ele><time>2026-04-07T14:03:49.57Z</time></trkpt><trkpt lat="45.512516" lon="11.7866503"><ele>22.0</ele><time>2026-04-07T14:03:50.563Z</time></trkpt><trkpt lat="45.5122798" lon="11.7867212"><ele>22.0</ele><time>2026-04-07T14:03:51.574Z</time></trkpt><trkpt lat="45.5120463" lon="11.7867768"><ele>22.0</ele><time>2026-04-07T14:03:52.57Z</time></trkpt><trkpt lat="45.5118099" lon="11.78685"><ele>22.0</ele><time>2026-04-07T14:03:53.57Z</time></trkpt><trkpt lat="45.5115771" lon="11.7869311"><ele>22.0</ele><time>2026-04-07T14:03:54.569Z</time></trkpt><trkpt lat="45.5113593" lon="11.7870195"><ele>22.0</ele><time>2026-04-07T14:03:55.57Z</time></trkpt><trkpt lat="45.5111627" lon="11.7870813"><ele>22.0</ele><time>2026-04-07T14:03:56.642Z</time></trkpt><trkpt lat="45.5109624" lon="11.7871767"><ele>22.0</ele><time>2026-04-07T14:03:57.587Z</time></trkpt><trkpt lat="45.5107657" lon="11.7873337"><ele>22.0</ele><time>2026-04-07T14:03:58.597Z</time></trkpt><trkpt lat="45.5105445" lon="11.7874928"><ele>22.0</ele><time>2026-04-07T14:03:59.572Z</time></trkpt><trkpt lat="45.5103287" lon="11.787638"><ele>22.0</ele><time>2026-04-07T14:04:00.573Z</time></trkpt><trkpt lat="45.5100853" lon="11.7877804"><ele>22.0</ele><time>2026-04-07T14:04:01.572Z</time></trkpt><trkpt lat="45.5098823" lon="11.7879246"><ele>22.0</ele><time>2026-04-07T14:04:02.571Z</time></trkpt><trkpt lat="45.5096623" lon="11.7880771"><ele>22.0</ele><time>2026-04-07T14:04:03.591Z</time></trkpt><trkpt lat="45.509466" lon="11.7882256"><ele>22.5</ele><time>2026-04-07T14:04:04.57Z</time></trkpt><trkpt lat="45.5092517" lon="11.7883716"><ele>23.0</ele><time>2026-04-07T14:04:05.58Z</time></trkpt><trkpt lat="45.5090511" lon="11.7884989"><ele>22.666666666666668</ele><time>2026-04-07T14:04:06.569Z</time></trkpt><trkpt lat="45.5088751" lon="11.7886226"><ele>22.333333333333332</ele><time>2026-04-07T14:04:07.573Z</time></trkpt><trkpt lat="45.5086871" lon="11.7887558"><ele>22.0</ele><time>2026-04-07T14:04:08.572Z</time></trkpt><trkpt lat="45.5084807" lon="11.7888716"><ele>21.5</ele><time>2026-04-07T14:04:09.572Z</time></trkpt><trkpt lat="45.5082652" lon="11.7890184"><ele>21.0</ele><time>2026-04-07T14:04:10.574Z</time></trkpt><trkpt lat="45.5080641" lon="11.7891714"><ele>21.0</ele><time>2026-04-07T14:04:11.574Z</time></trkpt><trkpt lat="45.507868" lon="11.7893181"><ele>21.0</ele><time>2026-04-07T14:04:12.571Z</time></trkpt><trkpt lat="45.5076691" lon="11.7894587"><ele>21.0</ele><time>2026-04-07T14:04:13.577Z</time></trkpt><trkpt lat="45.5074796" lon="11.7895854"><ele>21.0</ele><time>2026-04-07T14:04:14.569Z</time></trkpt><trkpt lat="45.5072628" lon="11.7897387"><ele>21.0</ele><time>2026-04-07T14:04:15.575Z</time></trkpt><trkpt lat="45.5070469" lon="11.7898878"><ele>21.0</ele><time>2026-04-07T14:04:16.597Z</time></trkpt><trkpt lat="45.5068364" lon="11.7900379"><ele>21.0</ele><time>2026-04-07T14:04:17.568Z</time></trkpt><trkpt lat="45.5066233" lon="11.7902031"><ele>21.0</ele><time>2026-04-07T14:04:18.574Z</time></trkpt><trkpt lat="45.5063996" lon="11.790397"><ele>21.0</ele><time>2026-04-07T14:04:19.565Z</time></trkpt><trkpt lat="45.5061764" lon="11.7905194"><ele>21.0</ele><time>2026-04-07T14:04:20.572Z</time></trkpt><trkpt lat="45.5059788" lon="11.790643"><ele>21.0</ele><time>2026-04-07T14:04:21.568Z</time></trkpt><trkpt lat="45.5057381" lon="11.7907613"><ele>21.0</ele><time>2026-04-07T14:04:22.569Z</time></trkpt><trkpt lat="45.5055188" lon="11.7909206"><ele>21.0</ele><time>2026-04-07T14:04:23.576Z</time></trkpt><trkpt lat="45.5052876" lon="11.7910982"><ele>20.5</ele><time>2026-04-07T14:04:24.572Z</time></trkpt><trkpt lat="45.5050567" lon="11.7912574"><ele>20.0</ele><time>2026-04-07T14:04:25.573Z</time></trkpt><trkpt lat="45.5048333" lon="11.7913976"><ele>20.0</ele><time>2026-04-07T14:04:26.573Z</time></trkpt><trkpt lat="45.5046232" lon="11.791538"><ele>20.0</ele><time>2026-04-07T14:04:27.579Z</time></trkpt><trkpt lat="45.5043998" lon="11.7917074"><ele>20.0</ele><time>2026-04-07T14:04:28.583Z</time></trkpt><trkpt lat="45.5042087" lon="11.791831"><ele>20.0</ele><time>2026-04-07T14:04:29.579Z</time></trkpt><trkpt lat="45.5040151" lon="11.7919624"><ele>20.0</ele><time>2026-04-07T14:04:30.581Z</time></trkpt><trkpt lat="45.5038173" lon="11.792086"><ele>20.0</ele><time>2026-04-07T14:04:31.573Z</time></trkpt><trkpt lat="45.5036005" lon="11.7922424"><ele>20.0</ele><time>2026-04-07T14:04:32.572Z</time></trkpt><trkpt lat="45.5034136" lon="11.7923844"><ele>20.0</ele><time>2026-04-07T14:04:33.569Z</time></trkpt><trkpt lat="45.5032313" lon="11.7925241"><ele>20.0</ele><time>2026-04-07T14:04:34.572Z</time></trkpt><trkpt lat="45.5030736" lon="11.792624"><ele>20.0</ele><time>2026-04-07T14:04:35.565Z</time></trkpt><trkpt lat="45.50294" lon="11.7927308"><ele>20.0</ele><time>2026-04-07T14:04:36.56Z</time></trkpt><trkpt lat="45.5028194" lon="11.7928209"><ele>20.0</ele><time>2026-04-07T14:04:37.565Z</time></trkpt><trkpt lat="45.502711" lon="11.7929042"><ele>20.0</ele><time>2026-04-07T14:04:38.558Z</time></trkpt><trkpt lat="45.5025869" lon="11.7930067"><ele>20.0</ele><time>2026-04-07T14:04:39.566Z</time></trkpt><trkpt lat="45.5024782" lon="11.7930887"><ele>20.0</ele><time>2026-04-07T14:04:40.569Z</time></trkpt><trkpt lat="45.5023563" lon="11.7931764"><ele>20.0</ele><time>2026-04-07T14:04:41.574Z</time></trkpt><trkpt lat="45.502239" lon="11.7932999"><ele>20.0</ele><time>2026-04-07T14:04:42.576Z</time></trkpt><trkpt lat="45.5020819" lon="11.7933975"><ele>20.333333333333336</ele><time>2026-04-07T14:04:43.57Z</time></trkpt><trkpt lat="45.5019303" lon="11.793489"><ele>20.666666666666668</ele><time>2026-04-07T14:04:44.566Z</time></trkpt><trkpt lat="45.5017974" lon="11.7935694"><ele>21.0</ele><time>2026-04-07T14:04:45.566Z</time></trkpt><trkpt lat="45.5016557" lon="11.7936445"><ele>21.0</ele><time>2026-04-07T14:04:46.576Z</time></trkpt><trkpt lat="45.5015338" lon="11.7937412"><ele>21.0</ele><time>2026-04-07T14:04:47.565Z</time></trkpt><trkpt lat="45.5013976" lon="11.7938102"><ele>21.0</ele><time>2026-04-07T14:04:48.567Z</time></trkpt><trkpt lat="45.501243" lon="11.7938894"><ele>21.0</ele><time>2026-04-07T14:04:49.56Z</time></trkpt><trkpt lat="45.5010748" lon="11.7940107"><ele>20.666666666666668</ele><time>2026-04-07T14:04:50.565Z</time></trkpt><trkpt lat="45.500889" lon="11.7941425"><ele>20.333333333333336</ele><time>2026-04-07T14:04:51.565Z</time></trkpt><trkpt lat="45.5007022" lon="11.7942903"><ele>20.0</ele><time>2026-04-07T14:04:52.562Z</time></trkpt><trkpt lat="45.5004879" lon="11.7944457"><ele>20.0</ele><time>2026-04-07T14:04:53.568Z</time></trkpt><trkpt lat="45.5002739" lon="11.7945808"><ele>20.0</ele><time>2026-04-07T14:04:54.567Z</time></trkpt><trkpt lat="45.5000908" lon="11.7947139"><ele>20.0</ele><time>2026-04-07T14:04:55.564Z</time></trkpt><trkpt lat="45.4999195" lon="11.7948167"><ele>20.0</ele><time>2026-04-07T14:04:56.562Z</time></trkpt><trkpt lat="45.4997679" lon="11.7949575"><ele>20.0</ele><time>2026-04-07T14:04:57.564Z</time></trkpt><trkpt lat="45.4996246" lon="11.7950808"><ele>20.0</ele><time>2026-04-07T14:04:58.57Z</time></trkpt><trkpt lat="45.4994761" lon="11.795173"><ele>19.666666666666668</ele><time>2026-04-07T14:04:59.575Z</time></trkpt><trkpt lat="45.4993259" lon="11.7952313"><ele>19.333333333333332</ele><time>2026-04-07T14:05:00.569Z</time></trkpt><trkpt lat="45.4991639" lon="11.7953132"><ele>19.0</ele><time>2026-04-07T14:05:01.567Z</time></trkpt><trkpt lat="45.499021" lon="11.7954265"><ele>19.0</ele><time>2026-04-07T14:05:02.565Z</time></trkpt><trkpt lat="45.4988256" lon="11.7955364"><ele>19.0</ele><time>2026-04-07T14:05:03.567Z</time></trkpt><trkpt lat="45.498601" lon="11.7956565"><ele>19.5</ele><time>2026-04-07T14:05:04.571Z</time></trkpt><trkpt lat="45.4983795" lon="11.7958115"><ele>20.0</ele><time>2026-04-07T14:05:05.568Z</time></trkpt><trkpt lat="45.4981663" lon="11.7959832"><ele>20.0</ele><time>2026-04-07T14:05:06.564Z</time></trkpt><trkpt lat="45.4979754" lon="11.7960933"><ele>20.0</ele><time>2026-04-07T14:05:07.589Z</time></trkpt><trkpt lat="45.4977714" lon="11.7962272"><ele>20.0</ele><time>2026-04-07T14:05:08.572Z</time></trkpt><trkpt lat="45.4975518" lon="11.7963809"><ele>20.0</ele><time>2026-04-07T14:05:09.567Z</time></trkpt><trkpt lat="45.4973401" lon="11.7965264"><ele>20.0</ele><time>2026-04-07T14:05:10.573Z</time></trkpt><trkpt lat="45.4971575" lon="11.7966616"><ele>20.0</ele><time>2026-04-07T14:05:11.565Z</time></trkpt><trkpt lat="45.4969724" lon="11.7967558"><ele>20.333333333333336</ele><time>2026-04-07T14:05:12.569Z</time></trkpt><trkpt lat="45.496805" lon="11.7969034"><ele>20.666666666666668</ele><time>2026-04-07T14:05:13.566Z</time></trkpt><trkpt lat="45.4966467" lon="11.7970452"><ele>21.0</ele><time>2026-04-07T14:05:14.562Z</time></trkpt><trkpt lat="45.4964971" lon="11.7971509"><ele>21.0</ele><time>2026-04-07T14:05:15.562Z</time></trkpt><trkpt lat="45.4963447" lon="11.7972249"><ele>21.0</ele><time>2026-04-07T14:05:16.569Z</time></trkpt><trkpt lat="45.4962067" lon="11.7973223"><ele>21.0</ele><time>2026-04-07T14:05:17.567Z</time></trkpt><trkpt lat="45.4960574" lon="11.797434"><ele>20.75</ele><time>2026-04-07T14:05:18.566Z</time></trkpt><trkpt lat="45.4959254" lon="11.797528"><ele>20.5</ele><time>2026-04-07T14:05:19.569Z</time></trkpt><trkpt lat="45.4957987" lon="11.7976071"><ele>20.25</ele><time>2026-04-07T14:05:20.567Z</time></trkpt><trkpt lat="45.4956658" lon="11.7976967"><ele>20.0</ele><time>2026-04-07T14:05:21.566Z</time></trkpt><trkpt lat="45.4955492" lon="11.7977592"><ele>19.75</ele><time>2026-04-07T14:05:22.566Z</time></trkpt><trkpt lat="45.4954257" lon="11.7978246"><ele>19.5</ele><time>2026-04-07T14:05:23.566Z</time></trkpt><trkpt lat="45.4953411" lon="11.7979151"><ele>19.25</ele><time>2026-04-07T14:05:24.572Z</time></trkpt><trkpt lat="45.4952511" lon="11.7979856"><ele>19.0</ele><time>2026-04-07T14:05:25.567Z</time></trkpt><trkpt lat="45.4951413" lon="11.7980619"><ele>19.75</ele><time>2026-04-07T14:05:26.559Z</time></trkpt><trkpt lat="45.4950418" lon="11.7981413"><ele>20.5</ele><time>2026-04-07T14:05:27.559Z</time></trkpt><trkpt lat="45.4949463" lon="11.7982231"><ele>21.25</ele><time>2026-04-07T14:05:28.564Z</time></trkpt><trkpt lat="45.4948433" lon="11.7983037"><ele>22.0</ele><time>2026-04-07T14:05:29.572Z</time></trkpt><trkpt lat="45.4947325" lon="11.7983741"><ele>22.0</ele><time>2026-04-07T14:05:30.59Z</time></trkpt><trkpt lat="45.4946174" lon="11.7984417"><ele>22.0</ele><time>2026-04-07T14:05:31.569Z</time></trkpt><trkpt lat="45.4945035" lon="11.7985107"><ele>22.0</ele><time>2026-04-07T14:05:32.572Z</time></trkpt><trkpt lat="45.4943837" lon="11.798578"><ele>22.0</ele><time>2026-04-07T14:05:33.567Z</time></trkpt><trkpt lat="45.4942684" lon="11.7986471"><ele>21.75</ele><time>2026-04-07T14:05:34.574Z</time></trkpt><trkpt lat="45.4941468" lon="11.7987253"><ele>21.5</ele><time>2026-04-07T14:05:35.565Z</time></trkpt><trkpt lat="45.4940235" lon="11.7988095"><ele>21.25</ele><time>2026-04-07T14:05:36.564Z</time></trkpt><trkpt lat="45.4938915" lon="11.7988955"><ele>21.0</ele><time>2026-04-07T14:05:37.562Z</time></trkpt><trkpt lat="45.4937724" lon="11.7989775"><ele>21.0</ele><time>2026-04-07T14:05:38.567Z</time></trkpt><trkpt lat="45.4936367" lon="11.7990581"><ele>21.0</ele><time>2026-04-07T14:05:39.569Z</time></trkpt><trkpt lat="45.4934993" lon="11.7991437"><ele>21.0</ele><time>2026-04-07T14:05:40.571Z</time></trkpt><trkpt lat="45.4933551" lon="11.7992489"><ele>21.0</ele><time>2026-04-07T14:05:41.572Z</time></trkpt><trkpt lat="45.4932073" lon="11.7993399"><ele>21.0</ele><time>2026-04-07T14:05:42.564Z</time></trkpt><trkpt lat="45.4930724" lon="11.7994533"><ele>21.0</ele><time>2026-04-07T14:05:43.563Z</time></trkpt><trkpt lat="45.4929296" lon="11.7995582"><ele>21.0</ele><time>2026-04-07T14:05:44.556Z</time></trkpt><trkpt lat="45.4927762" lon="11.7996549"><ele>21.0</ele><time>2026-04-07T14:05:45.568Z</time></trkpt><trkpt lat="45.4926444" lon="11.7997228"><ele>21.0</ele><time>2026-04-07T14:05:46.567Z</time></trkpt><trkpt lat="45.4924794" lon="11.7997932"><ele>21.0</ele><time>2026-04-07T14:05:47.572Z</time></trkpt><trkpt lat="45.4923351" lon="11.7998794"><ele>21.0</ele><time>2026-04-07T14:05:48.572Z</time></trkpt><trkpt lat="45.4921969" lon="11.7999663"><ele>21.0</ele><time>2026-04-07T14:05:49.567Z</time></trkpt><trkpt lat="45.4920809" lon="11.8000348"><ele>21.0</ele><time>2026-04-07T14:05:50.565Z</time></trkpt><trkpt lat="45.4920022" lon="11.8001094"><ele>21.0</ele><time>2026-04-07T14:05:51.562Z</time></trkpt><trkpt lat="45.4919229" lon="11.8001486"><ele>21.0</ele><time>2026-04-07T14:05:52.56Z</time></trkpt><trkpt lat="45.4918483" lon="11.8001703"><ele>21.0</ele><time>2026-04-07T14:05:53.557Z</time></trkpt><trkpt lat="45.4917905" lon="11.8001184"><ele>21.0</ele><time>2026-04-07T14:05:54.561Z</time></trkpt><trkpt lat="45.4917123" lon="11.8000684"><ele>21.0</ele><time>2026-04-07T14:05:55.583Z</time></trkpt><trkpt lat="45.4916455" lon="11.800044"><ele>21.0</ele><time>2026-04-07T14:05:56.557Z</time></trkpt><trkpt lat="45.4915714" lon="11.8000766"><ele>21.0</ele><time>2026-04-07T14:05:57.562Z</time></trkpt><trkpt lat="45.4915086" lon="11.8001579"><ele>21.0</ele><time>2026-04-07T14:05:58.558Z</time></trkpt><trkpt lat="45.4914466" lon="11.8002637"><ele>21.0</ele><time>2026-04-07T14:05:59.596Z</time></trkpt><trkpt lat="45.491365" lon="11.8003717"><ele>21.0</ele><time>2026-04-07T14:06:00.589Z</time></trkpt><trkpt lat="45.4912466" lon="11.8004606"><ele>21.0</ele><time>2026-04-07T14:06:01.56Z</time></trkpt><trkpt lat="45.49112" lon="11.8005327"><ele>20.666666666666668</ele><time>2026-04-07T14:06:02.561Z</time></trkpt><trkpt lat="45.4909906" lon="11.800592"><ele>20.333333333333336</ele><time>2026-04-07T14:06:03.565Z</time></trkpt><trkpt lat="45.4908461" lon="11.8006655"><ele>20.0</ele><time>2026-04-07T14:06:04.559Z</time></trkpt><trkpt lat="45.4906512" lon="11.8007961"><ele>20.0</ele><time>2026-04-07T14:06:05.564Z</time></trkpt><trkpt lat="45.4904828" lon="11.800893"><ele>20.0</ele><time>2026-04-07T14:06:06.563Z</time></trkpt><trkpt lat="45.490341" lon="11.8009704"><ele>20.0</ele><time>2026-04-07T14:06:07.564Z</time></trkpt><trkpt lat="45.4902268" lon="11.8010483"><ele>19.5</ele><time>2026-04-07T14:06:08.561Z</time></trkpt><trkpt lat="45.4901172" lon="11.8011275"><ele>19.0</ele><time>2026-04-07T14:06:09.567Z</time></trkpt><trkpt lat="45.4899939" lon="11.8011853"><ele>18.5</ele><time>2026-04-07T14:06:10.57Z</time></trkpt><trkpt lat="45.4898898" lon="11.8012397"><ele>18.0</ele><time>2026-04-07T14:06:11.572Z</time></trkpt><trkpt lat="45.4897991" lon="11.8012822"><ele>18.0</ele><time>2026-04-07T14:06:12.571Z</time></trkpt><trkpt lat="45.4897155" lon="11.8013366"><ele>18.0</ele><time>2026-04-07T14:06:13.567Z</time></trkpt><trkpt lat="45.489638" lon="11.8013656"><ele>18.0</ele><time>2026-04-07T14:06:14.571Z</time></trkpt><trkpt lat="45.4895569" lon="11.8014051"><ele>18.0</ele><time>2026-04-07T14:06:15.567Z</time></trkpt><trkpt lat="45.4894686" lon="11.8014251"><ele>18.0</ele><time>2026-04-07T14:06:16.563Z</time></trkpt><trkpt lat="45.4893789" lon="11.8014315"><ele>18.0</ele><time>2026-04-07T14:06:17.569Z</time></trkpt><trkpt lat="45.4892876" lon="11.8014657"><ele>18.25</ele><time>2026-04-07T14:06:18.587Z</time></trkpt><trkpt lat="45.4891978" lon="11.8015344"><ele>18.5</ele><time>2026-04-07T14:06:19.569Z</time></trkpt><trkpt lat="45.4890975" lon="11.8016433"><ele>18.75</ele><time>2026-04-07T14:06:20.597Z</time></trkpt><trkpt lat="45.4889731" lon="11.8017491"><ele>19.0</ele><time>2026-04-07T14:06:21.595Z</time></trkpt><trkpt lat="45.4888456" lon="11.8018344"><ele>19.0</ele><time>2026-04-07T14:06:22.61Z</time></trkpt><trkpt lat="45.4887156" lon="11.8019066"><ele>19.0</ele><time>2026-04-07T14:06:23.571Z</time></trkpt><trkpt lat="45.4885812" lon="11.8019906"><ele>19.0</ele><time>2026-04-07T14:06:24.566Z</time></trkpt><trkpt lat="45.4884045" lon="11.8021349"><ele>19.0</ele><time>2026-04-07T14:06:25.56Z</time></trkpt><trkpt lat="45.4882296" lon="11.8022696"><ele>19.0</ele><time>2026-04-07T14:06:26.563Z</time></trkpt><trkpt lat="45.4880691" lon="11.8023834"><ele>19.0</ele><time>2026-04-07T14:06:27.56Z</time></trkpt><trkpt lat="45.4878898" lon="11.8025107"><ele>19.0</ele><time>2026-04-07T14:06:28.567Z</time></trkpt><trkpt lat="45.4877042" lon="11.8026385"><ele>19.0</ele><time>2026-04-07T14:06:29.571Z</time></trkpt><trkpt lat="45.4875363" lon="11.8027605"><ele>19.0</ele><time>2026-04-07T14:06:30.568Z</time></trkpt><trkpt lat="45.4873844" lon="11.8028644"><ele>19.0</ele><time>2026-04-07T14:06:31.572Z</time></trkpt><trkpt lat="45.4872221" lon="11.8029833"><ele>19.0</ele><time>2026-04-07T14:06:32.572Z</time></trkpt><trkpt lat="45.4870486" lon="11.8031082"><ele>19.0</ele><time>2026-04-07T14:06:33.57Z</time></trkpt><trkpt lat="45.4868745" lon="11.8032402"><ele>18.666666666666664</ele><time>2026-04-07T14:06:34.58Z</time></trkpt><trkpt lat="45.4866836" lon="11.8033535"><ele>18.333333333333332</ele><time>2026-04-07T14:06:35.57Z</time></trkpt><trkpt lat="45.4865102" lon="11.803473"><ele>18.0</ele><time>2026-04-07T14:06:36.565Z</time></trkpt><trkpt lat="45.4863206" lon="11.803583"><ele>18.0</ele><time>2026-04-07T14:06:37.571Z</time></trkpt><trkpt lat="45.4861408" lon="11.803688"><ele>18.0</ele><time>2026-04-07T14:06:38.574Z</time></trkpt><trkpt lat="45.485964" lon="11.8037917"><ele>18.0</ele><time>2026-04-07T14:06:39.563Z</time></trkpt><trkpt lat="45.4857738" lon="11.8039022"><ele>18.0</ele><time>2026-04-07T14:06:40.573Z</time></trkpt><trkpt lat="45.4855831" lon="11.804005"><ele>18.0</ele><time>2026-04-07T14:06:41.566Z</time></trkpt><trkpt lat="45.485418" lon="11.8041451"><ele>18.0</ele><time>2026-04-07T14:06:42.561Z</time></trkpt><trkpt lat="45.4852453" lon="11.804246"><ele>18.0</ele><time>2026-04-07T14:06:43.565Z</time></trkpt><trkpt lat="45.4850747" lon="11.8043596"><ele>18.0</ele><time>2026-04-07T14:06:44.565Z</time></trkpt><trkpt lat="45.4848944" lon="11.8044743"><ele>18.0</ele><time>2026-04-07T14:06:45.568Z</time></trkpt><trkpt lat="45.4847094" lon="11.8045748"><ele>18.0</ele><time>2026-04-07T14:06:46.564Z</time></trkpt><trkpt lat="45.4845421" lon="11.8046842"><ele>18.0</ele><time>2026-04-07T14:06:47.568Z</time></trkpt><trkpt lat="45.4843706" lon="11.8048049"><ele>18.0</ele><time>2026-04-07T14:06:48.56Z</time></trkpt><trkpt lat="45.4842103" lon="11.8049323"><ele>18.0</ele><time>2026-04-07T14:06:49.573Z</time></trkpt><trkpt lat="45.4840298" lon="11.8050509"><ele>18.0</ele><time>2026-04-07T14:06:50.569Z</time></trkpt><trkpt lat="45.4838346" lon="11.805182"><ele>18.0</ele><time>2026-04-07T14:06:51.567Z</time></trkpt><trkpt lat="45.4836241" lon="11.805317"><ele>17.666666666666668</ele><time>2026-04-07T14:06:52.567Z</time></trkpt><trkpt lat="45.4834456" lon="11.8054339"><ele>17.333333333333336</ele><time>2026-04-07T14:06:53.57Z</time></trkpt><trkpt lat="45.4832475" lon="11.8055666"><ele>17.0</ele><time>2026-04-07T14:06:54.569Z</time></trkpt><trkpt lat="45.4830365" lon="11.8057184"><ele>17.0</ele><time>2026-04-07T14:06:55.566Z</time></trkpt><trkpt lat="45.4828173" lon="11.8058617"><ele>17.0</ele><time>2026-04-07T14:06:56.573Z</time></trkpt><trkpt lat="45.4826189" lon="11.8059993"><ele>17.0</ele><time>2026-04-07T14:06:57.577Z</time></trkpt><trkpt lat="45.4824068" lon="11.8061473"><ele>17.0</ele><time>2026-04-07T14:06:58.575Z</time></trkpt><trkpt lat="45.4821909" lon="11.8063116"><ele>17.0</ele><time>2026-04-07T14:06:59.569Z</time></trkpt><trkpt lat="45.4819856" lon="11.8064721"><ele>17.0</ele><time>2026-04-07T14:07:00.568Z</time></trkpt><trkpt lat="45.4817619" lon="11.8066143"><ele>17.0</ele><time>2026-04-07T14:07:01.568Z</time></trkpt><trkpt lat="45.4815714" lon="11.80674"><ele>17.0</ele><time>2026-04-07T14:07:02.572Z</time></trkpt><trkpt lat="45.4814113" lon="11.80687"><ele>17.0</ele><time>2026-04-07T14:07:03.567Z</time></trkpt><trkpt lat="45.481246" lon="11.8069891"><ele>17.333333333333336</ele><time>2026-04-07T14:07:04.574Z</time></trkpt><trkpt lat="45.4810807" lon="11.8071252"><ele>17.666666666666668</ele><time>2026-04-07T14:07:05.571Z</time></trkpt><trkpt lat="45.4808868" lon="11.8072233"><ele>18.0</ele><time>2026-04-07T14:07:06.571Z</time></trkpt><trkpt lat="45.4807237" lon="11.8073568"><ele>18.0</ele><time>2026-04-07T14:07:07.595Z</time></trkpt><trkpt lat="45.4805477" lon="11.8074654"><ele>18.0</ele><time>2026-04-07T14:07:08.56Z</time></trkpt><trkpt lat="45.4803697" lon="11.8075769"><ele>18.0</ele><time>2026-04-07T14:07:09.575Z</time></trkpt><trkpt lat="45.4802217" lon="11.8077221"><ele>17.666666666666668</ele><time>2026-04-07T14:07:10.575Z</time></trkpt><trkpt lat="45.4800462" lon="11.8078624"><ele>17.333333333333336</ele><time>2026-04-07T14:07:11.571Z</time></trkpt><trkpt lat="45.47988" lon="11.8079695"><ele>17.0</ele><time>2026-04-07T14:07:12.57Z</time></trkpt><trkpt lat="45.4797114" lon="11.8080927"><ele>17.0</ele><time>2026-04-07T14:07:13.572Z</time></trkpt><trkpt lat="45.4795273" lon="11.8082164"><ele>17.0</ele><time>2026-04-07T14:07:14.571Z</time></trkpt><trkpt lat="45.4793477" lon="11.8083594"><ele>17.0</ele><time>2026-04-07T14:07:15.574Z</time></trkpt><trkpt lat="45.4791458" lon="11.8085114"><ele>17.0</ele><time>2026-04-07T14:07:16.573Z</time></trkpt><trkpt lat="45.4789425" lon="11.8086518"><ele>17.0</ele><time>2026-04-07T14:07:17.596Z</time></trkpt><trkpt lat="45.4787365" lon="11.8087705"><ele>17.0</ele><time>2026-04-07T14:07:18.576Z</time></trkpt><trkpt lat="45.4785238" lon="11.8088763"><ele>16.5</ele><time>2026-04-07T14:07:19.573Z</time></trkpt><trkpt lat="45.478334" lon="11.808999"><ele>16.0</ele><time>2026-04-07T14:07:20.564Z</time></trkpt><trkpt lat="45.478114" lon="11.8091467"><ele>16.0</ele><time>2026-04-07T14:07:21.567Z</time></trkpt><trkpt lat="45.4778776" lon="11.8093229"><ele>16.0</ele><time>2026-04-07T14:07:22.57Z</time></trkpt><trkpt lat="45.4776439" lon="11.8094879"><ele>16.5</ele><time>2026-04-07T14:07:23.572Z</time></trkpt><trkpt lat="45.4774099" lon="11.809665"><ele>17.0</ele><time>2026-04-07T14:07:24.567Z</time></trkpt><trkpt lat="45.4771657" lon="11.8098334"><ele>16.0</ele><time>2026-04-07T14:07:25.565Z</time></trkpt><trkpt lat="45.4769456" lon="11.8099775"><ele>15.0</ele><time>2026-04-07T14:07:26.567Z</time></trkpt><trkpt lat="45.4767451" lon="11.8101099"><ele>15.0</ele><time>2026-04-07T14:07:27.576Z</time></trkpt><trkpt lat="45.4765635" lon="11.8102235"><ele>15.0</ele><time>2026-04-07T14:07:28.579Z</time></trkpt><trkpt lat="45.4763784" lon="11.8103497"><ele>15.0</ele><time>2026-04-07T14:07:29.576Z</time></trkpt><trkpt lat="45.4761845" lon="11.8104898"><ele>15.0</ele><time>2026-04-07T14:07:30.57Z</time></trkpt><trkpt lat="45.475984" lon="11.8106356"><ele>15.0</ele><time>2026-04-07T14:07:31.571Z</time></trkpt><trkpt lat="45.4758035" lon="11.8107712"><ele>15.0</ele><time>2026-04-07T14:07:32.57Z</time></trkpt><trkpt lat="45.4756229" lon="11.8108667"><ele>15.333333333333332</ele><time>2026-04-07T14:07:33.568Z</time></trkpt><trkpt lat="45.4754624" lon="11.8110079"><ele>15.666666666666666</ele><time>2026-04-07T14:07:34.565Z</time></trkpt><trkpt lat="45.4752891" lon="11.8111144"><ele>16.0</ele><time>2026-04-07T14:07:35.558Z</time></trkpt><trkpt lat="45.4751448" lon="11.811215"><ele>16.0</ele><time>2026-04-07T14:07:36.565Z</time></trkpt><trkpt lat="45.4750132" lon="11.8113363"><ele>16.0</ele><time>2026-04-07T14:07:37.563Z</time></trkpt><trkpt lat="45.474909" lon="11.8114885"><ele>16.0</ele><time>2026-04-07T14:07:38.572Z</time></trkpt><trkpt lat="45.4747867" lon="11.8115682"><ele>16.0</ele><time>2026-04-07T14:07:39.563Z</time></trkpt><trkpt lat="45.4746688" lon="11.8116505"><ele>16.2</ele><time>2026-04-07T14:07:40.57Z</time></trkpt><trkpt lat="45.4745788" lon="11.8117099"><ele>16.400000000000002</ele><time>2026-04-07T14:07:41.564Z</time></trkpt><trkpt lat="45.4744956" lon="11.8117762"><ele>16.6</ele><time>2026-04-07T14:07:42.566Z</time></trkpt><trkpt lat="45.4743879" lon="11.8117431"><ele>16.8</ele><time>2026-04-07T14:07:43.561Z</time></trkpt><trkpt lat="45.4742918" lon="11.8116844"><ele>17.0</ele><time>2026-04-07T14:07:44.56Z</time></trkpt><trkpt lat="45.4742048" lon="11.8116979"><ele>17.0</ele><time>2026-04-07T14:07:45.566Z</time></trkpt><trkpt lat="45.474118" lon="11.8117823"><ele>17.0</ele><time>2026-04-07T14:07:46.568Z</time></trkpt><trkpt lat="45.4740316" lon="11.8118944"><ele>17.0</ele><time>2026-04-07T14:07:47.565Z</time></trkpt><trkpt lat="45.4739492" lon="11.8120358"><ele>17.0</ele><time>2026-04-07T14:07:48.608Z</time></trkpt><trkpt lat="45.4738469" lon="11.8121561"><ele>16.666666666666668</ele><time>2026-04-07T14:07:49.605Z</time></trkpt><trkpt lat="45.4737144" lon="11.8122682"><ele>16.333333333333332</ele><time>2026-04-07T14:07:50.592Z</time></trkpt><trkpt lat="45.4735186" lon="11.8123628"><ele>16.0</ele><time>2026-04-07T14:07:51.566Z</time></trkpt><trkpt lat="45.4733601" lon="11.8124684"><ele>16.0</ele><time>2026-04-07T14:07:52.593Z</time></trkpt><trkpt lat="45.4732111" lon="11.8125927"><ele>16.0</ele><time>2026-04-07T14:07:53.566Z</time></trkpt><trkpt lat="45.4730891" lon="11.8127072"><ele>16.0</ele><time>2026-04-07T14:07:54.564Z</time></trkpt><trkpt lat="45.4729352" lon="11.8128348"><ele>16.666666666666664</ele><time>2026-04-07T14:07:55.566Z</time></trkpt><trkpt lat="45.4727675" lon="11.8129875"><ele>17.333333333333332</ele><time>2026-04-07T14:07:56.56Z</time></trkpt><trkpt lat="45.4726013" lon="11.8131151"><ele>18.0</ele><time>2026-04-07T14:07:57.556Z</time></trkpt><trkpt lat="45.4724332" lon="11.8132236"><ele>18.0</ele><time>2026-04-07T14:07:58.557Z</time></trkpt><trkpt lat="45.4722931" lon="11.8133373"><ele>18.0</ele><time>2026-04-07T14:07:59.557Z</time></trkpt><trkpt lat="45.4721351" lon="11.813432"><ele>18.0</ele><time>2026-04-07T14:08:00.56Z</time></trkpt><trkpt lat="45.471984" lon="11.8135325"><ele>17.75</ele><time>2026-04-07T14:08:01.568Z</time></trkpt><trkpt lat="45.4718502" lon="11.8136235"><ele>17.5</ele><time>2026-04-07T14:08:02.567Z</time></trkpt><trkpt lat="45.4717246" lon="11.8137144"><ele>17.25</ele><time>2026-04-07T14:08:03.567Z</time></trkpt><trkpt lat="45.4715918" lon="11.8138169"><ele>17.0</ele><time>2026-04-07T14:08:04.572Z</time></trkpt><trkpt lat="45.4714527" lon="11.8138988"><ele>17.0</ele><time>2026-04-07T14:08:05.562Z</time></trkpt><trkpt lat="45.4713269" lon="11.814025"><ele>17.0</ele><time>2026-04-07T14:08:06.566Z</time></trkpt><trkpt lat="45.4711903" lon="11.8141344"><ele>17.0</ele><time>2026-04-07T14:08:07.567Z</time></trkpt><trkpt lat="45.4710622" lon="11.8142174"><ele>17.0</ele><time>2026-04-07T14:08:08.563Z</time></trkpt><trkpt lat="45.4709326" lon="11.8143101"><ele>17.0</ele><time>2026-04-07T14:08:09.573Z</time></trkpt><trkpt lat="45.4707849" lon="11.8143858"><ele>17.0</ele><time>2026-04-07T14:08:10.56Z</time></trkpt><trkpt lat="45.4706576" lon="11.8144794"><ele>17.0</ele><time>2026-04-07T14:08:11.561Z</time></trkpt><trkpt lat="45.4705261" lon="11.8145702"><ele>17.5</ele><time>2026-04-07T14:08:12.57Z</time></trkpt><trkpt lat="45.4704147" lon="11.814674"><ele>18.0</ele><time>2026-04-07T14:08:13.596Z</time></trkpt><trkpt lat="45.4703055" lon="11.8147737"><ele>18.5</ele><time>2026-04-07T14:08:14.567Z</time></trkpt><trkpt lat="45.4702158" lon="11.8148602"><ele>19.0</ele><time>2026-04-07T14:08:15.56Z</time></trkpt><trkpt lat="45.470152" lon="11.8149741"><ele>19.0</ele><time>2026-04-07T14:08:16.56Z</time></trkpt><trkpt lat="45.4700759" lon="11.815049"><ele>19.0</ele><time>2026-04-07T14:08:17.56Z</time></trkpt><trkpt lat="45.4699701" lon="11.8151096"><ele>19.0</ele><time>2026-04-07T14:08:18.562Z</time></trkpt><trkpt lat="45.4698693" lon="11.8151726"><ele>19.0</ele><time>2026-04-07T14:08:19.567Z</time></trkpt><trkpt lat="45.4697634" lon="11.8152306"><ele>19.0</ele><time>2026-04-07T14:08:20.566Z</time></trkpt><trkpt lat="45.4696616" lon="11.8152899"><ele>18.8</ele><time>2026-04-07T14:08:21.562Z</time></trkpt><trkpt lat="45.4695486" lon="11.8153599"><ele>18.599999999999998</ele><time>2026-04-07T14:08:22.57Z</time></trkpt><trkpt lat="45.4694419" lon="11.8154091"><ele>18.4</ele><time>2026-04-07T14:08:23.568Z</time></trkpt><trkpt lat="45.469343" lon="11.8154601"><ele>18.2</ele><time>2026-04-07T14:08:24.567Z</time></trkpt><trkpt lat="45.4692581" lon="11.8155101"><ele>18.0</ele><time>2026-04-07T14:08:25.565Z</time></trkpt><trkpt lat="45.469177" lon="11.8155624"><ele>18.0</ele><time>2026-04-07T14:08:26.566Z</time></trkpt><trkpt lat="45.4690847" lon="11.815609"><ele>18.0</ele><time>2026-04-07T14:08:27.568Z</time></trkpt><trkpt lat="45.4689782" lon="11.8156715"><ele>18.0</ele><time>2026-04-07T14:08:28.566Z</time></trkpt><trkpt lat="45.468867" lon="11.8157327"><ele>18.0</ele><time>2026-04-07T14:08:29.57Z</time></trkpt><trkpt lat="45.4687514" lon="11.8158148"><ele>18.0</ele><time>2026-04-07T14:08:30.579Z</time></trkpt><trkpt lat="45.4686317" lon="11.8158944"><ele>18.0</ele><time>2026-04-07T14:08:31.576Z</time></trkpt><trkpt lat="45.4685109" lon="11.8159825"><ele>18.0</ele><time>2026-04-07T14:08:32.56Z</time></trkpt><trkpt lat="45.4683977" lon="11.8160718"><ele>18.0</ele><time>2026-04-07T14:08:33.591Z</time></trkpt><trkpt lat="45.468283" lon="11.8161672"><ele>18.0</ele><time>2026-04-07T14:08:34.559Z</time></trkpt><trkpt lat="45.4681637" lon="11.8162588"><ele>18.0</ele><time>2026-04-07T14:08:35.567Z</time></trkpt><trkpt lat="45.4680385" lon="11.8163469"><ele>18.0</ele><time>2026-04-07T14:08:36.563Z</time></trkpt><trkpt lat="45.4678971" lon="11.8164318"><ele>18.0</ele><time>2026-04-07T14:08:37.571Z</time></trkpt><trkpt lat="45.4677492" lon="11.8165154"><ele>18.333333333333332</ele><time>2026-04-07T14:08:38.574Z</time></trkpt><trkpt lat="45.4676145" lon="11.8165987"><ele>18.666666666666664</ele><time>2026-04-07T14:08:39.569Z</time></trkpt><trkpt lat="45.4674792" lon="11.8166821"><ele>19.0</ele><time>2026-04-07T14:08:40.565Z</time></trkpt><trkpt lat="45.4673254" lon="11.8167939"><ele>18.333333333333332</ele><time>2026-04-07T14:08:41.565Z</time></trkpt><trkpt lat="45.4671294" lon="11.816917"><ele>17.666666666666668</ele><time>2026-04-07T14:08:42.567Z</time></trkpt><trkpt lat="45.4669821" lon="11.8170269"><ele>17.0</ele><time>2026-04-07T14:08:43.571Z</time></trkpt><trkpt lat="45.4668239" lon="11.8171484"><ele>16.666666666666668</ele><time>2026-04-07T14:08:44.592Z</time></trkpt><trkpt lat="45.4666389" lon="11.8172774"><ele>16.333333333333332</ele><time>2026-04-07T14:08:45.565Z</time></trkpt><trkpt lat="45.4664758" lon="11.817381"><ele>16.0</ele><time>2026-04-07T14:08:46.566Z</time></trkpt><trkpt lat="45.4663295" lon="11.8175133"><ele>16.0</ele><time>2026-04-07T14:08:47.573Z</time></trkpt><trkpt lat="45.4661633" lon="11.8176397"><ele>16.0</ele><time>2026-04-07T14:08:48.572Z</time></trkpt><trkpt lat="45.4659952" lon="11.8177422"><ele>16.0</ele><time>2026-04-07T14:08:49.569Z</time></trkpt><trkpt lat="45.4658349" lon="11.8178507"><ele>16.0</ele><time>2026-04-07T14:08:50.57Z</time></trkpt><trkpt lat="45.4656638" lon="11.8179628"><ele>16.0</ele><time>2026-04-07T14:08:51.568Z</time></trkpt><trkpt lat="45.4654874" lon="11.8180894"><ele>16.0</ele><time>2026-04-07T14:08:52.573Z</time></trkpt><trkpt lat="45.4653102" lon="11.818219"><ele>16.0</ele><time>2026-04-07T14:08:53.571Z</time></trkpt><trkpt lat="45.4651646" lon="11.8183365"><ele>16.0</ele><time>2026-04-07T14:08:54.565Z</time></trkpt><trkpt lat="45.4650297" lon="11.8184425"><ele>16.0</ele><time>2026-04-07T14:08:55.568Z</time></trkpt><trkpt lat="45.4648918" lon="11.8185492"><ele>16.0</ele><time>2026-04-07T14:08:56.573Z</time></trkpt><trkpt lat="45.4647463" lon="11.8186517"><ele>16.0</ele><time>2026-04-07T14:08:57.572Z</time></trkpt><trkpt lat="45.4645921" lon="11.8187708"><ele>16.0</ele><time>2026-04-07T14:08:58.582Z</time></trkpt><trkpt lat="45.4644227" lon="11.8188969"><ele>15.333333333333332</ele><time>2026-04-07T14:08:59.578Z</time></trkpt><trkpt lat="45.4642406" lon="11.8190315"><ele>14.666666666666668</ele><time>2026-04-07T14:09:00.572Z</time></trkpt><trkpt lat="45.4640618" lon="11.8191616"><ele>14.0</ele><time>2026-04-07T14:09:01.59Z</time></trkpt><trkpt lat="45.4638595" lon="11.8192841"><ele>15.333333333333334</ele><time>2026-04-07T14:09:02.589Z</time></trkpt><trkpt lat="45.4636781" lon="11.819402"><ele>16.666666666666668</ele><time>2026-04-07T14:09:03.564Z</time></trkpt><trkpt lat="45.4635035" lon="11.819526"><ele>18.0</ele><time>2026-04-07T14:09:04.589Z</time></trkpt><trkpt lat="45.4633422" lon="11.8196406"><ele>18.0</ele><time>2026-04-07T14:09:05.585Z</time></trkpt><trkpt lat="45.4631965" lon="11.8197641"><ele>18.0</ele><time>2026-04-07T14:09:06.583Z</time></trkpt><trkpt lat="45.4630168" lon="11.8198828"><ele>18.0</ele><time>2026-04-07T14:09:07.602Z</time></trkpt><trkpt lat="45.4628381" lon="11.8199969"><ele>17.333333333333332</ele><time>2026-04-07T14:09:08.565Z</time></trkpt><trkpt lat="45.4626563" lon="11.8200995"><ele>16.666666666666664</ele><time>2026-04-07T14:09:09.566Z</time></trkpt><trkpt lat="45.4624869" lon="11.820237"><ele>16.0</ele><time>2026-04-07T14:09:10.569Z</time></trkpt><trkpt lat="45.4623197" lon="11.8203585"><ele>15.666666666666666</ele><time>2026-04-07T14:09:11.57Z</time></trkpt><trkpt lat="45.4621255" lon="11.8204843"><ele>15.333333333333332</ele><time>2026-04-07T14:09:12.561Z</time></trkpt><trkpt lat="45.4619596" lon="11.8206064"><ele>15.0</ele><time>2026-04-07T14:09:13.573Z</time></trkpt><trkpt lat="45.4617776" lon="11.8207221"><ele>15.666666666666668</ele><time>2026-04-07T14:09:14.568Z</time></trkpt><trkpt lat="45.4615976" lon="11.8208441"><ele>16.333333333333336</ele><time>2026-04-07T14:09:15.571Z</time></trkpt><trkpt lat="45.4614352" lon="11.8209552"><ele>17.0</ele><time>2026-04-07T14:09:16.579Z</time></trkpt><trkpt lat="45.4612372" lon="11.8210826"><ele>17.0</ele><time>2026-04-07T14:09:17.57Z</time></trkpt><trkpt lat="45.4610517" lon="11.8212166"><ele>17.0</ele><time>2026-04-07T14:09:18.569Z</time></trkpt><trkpt lat="45.4608547" lon="11.8213343"><ele>17.0</ele><time>2026-04-07T14:09:19.58Z</time></trkpt><trkpt lat="45.460723" lon="11.8214445"><ele>17.0</ele><time>2026-04-07T14:09:20.574Z</time></trkpt><trkpt lat="45.4605916" lon="11.8215571"><ele>17.0</ele><time>2026-04-07T14:09:21.569Z</time></trkpt><trkpt lat="45.4604427" lon="11.8216813"><ele>17.0</ele><time>2026-04-07T14:09:22.575Z</time></trkpt><trkpt lat="45.4602765" lon="11.8217667"><ele>16.666666666666668</ele><time>2026-04-07T14:09:23.571Z</time></trkpt><trkpt lat="45.4601275" lon="11.8218762"><ele>16.333333333333332</ele><time>2026-04-07T14:09:24.569Z</time></trkpt><trkpt lat="45.4599539" lon="11.8219774"><ele>16.0</ele><time>2026-04-07T14:09:25.567Z</time></trkpt><trkpt lat="45.4597708" lon="11.8221118"><ele>16.0</ele><time>2026-04-07T14:09:26.57Z</time></trkpt><trkpt lat="45.4596258" lon="11.8222267"><ele>16.0</ele><time>2026-04-07T14:09:27.574Z</time></trkpt><trkpt lat="45.4594828" lon="11.8223321"><ele>16.0</ele><time>2026-04-07T14:09:28.562Z</time></trkpt><trkpt lat="45.459341" lon="11.822437"><ele>16.333333333333332</ele><time>2026-04-07T14:09:29.573Z</time></trkpt><trkpt lat="45.4592003" lon="11.8225376"><ele>16.666666666666668</ele><time>2026-04-07T14:09:30.572Z</time></trkpt><trkpt lat="45.459064" lon="11.8226205"><ele>17.0</ele><time>2026-04-07T14:09:31.571Z</time></trkpt><trkpt lat="45.4588892" lon="11.8227404"><ele>16.333333333333336</ele><time>2026-04-07T14:09:32.563Z</time></trkpt><trkpt lat="45.4587033" lon="11.8228587"><ele>15.666666666666668</ele><time>2026-04-07T14:09:33.567Z</time></trkpt><trkpt lat="45.4585368" lon="11.8229688"><ele>15.0</ele><time>2026-04-07T14:09:34.567Z</time></trkpt><trkpt lat="45.4583703" lon="11.8230655"><ele>15.0</ele><time>2026-04-07T14:09:35.558Z</time></trkpt><trkpt lat="45.4581903" lon="11.8231841"><ele>15.0</ele><time>2026-04-07T14:09:36.56Z</time></trkpt><trkpt lat="45.4580005" lon="11.8233249"><ele>15.0</ele><time>2026-04-07T14:09:37.564Z</time></trkpt><trkpt lat="45.4578175" lon="11.8234384"><ele>15.0</ele><time>2026-04-07T14:09:38.562Z</time></trkpt><trkpt lat="45.45764" lon="11.8235567"><ele>15.0</ele><time>2026-04-07T14:09:39.561Z</time></trkpt><trkpt lat="45.4574831" lon="11.82369"><ele>15.0</ele><time>2026-04-07T14:09:40.57Z</time></trkpt><trkpt lat="45.4573357" lon="11.8238091"><ele>15.0</ele><time>2026-04-07T14:09:41.562Z</time></trkpt><trkpt lat="45.4571957" lon="11.8239082"><ele>15.0</ele><time>2026-04-07T14:09:42.571Z</time></trkpt><trkpt lat="45.4570714" lon="11.824016"><ele>15.0</ele><time>2026-04-07T14:09:43.556Z</time></trkpt><trkpt lat="45.4569425" lon="11.8240994"><ele>15.0</ele><time>2026-04-07T14:09:44.562Z</time></trkpt><trkpt lat="45.456803" lon="11.824205"><ele>15.333333333333332</ele><time>2026-04-07T14:09:45.567Z</time></trkpt><trkpt lat="45.4566458" lon="11.824296"><ele>15.666666666666666</ele><time>2026-04-07T14:09:46.561Z</time></trkpt><trkpt lat="45.4564949" lon="11.8243707"><ele>16.0</ele><time>2026-04-07T14:09:47.565Z</time></trkpt><trkpt lat="45.4563358" lon="11.8244547"><ele>16.25</ele><time>2026-04-07T14:09:48.56Z</time></trkpt><trkpt lat="45.4562185" lon="11.8245504"><ele>16.5</ele><time>2026-04-07T14:09:49.566Z</time></trkpt><trkpt lat="45.4561131" lon="11.824627"><ele>16.75</ele><time>2026-04-07T14:09:50.569Z</time></trkpt><trkpt lat="45.4560212" lon="11.8247072"><ele>17.0</ele><time>2026-04-07T14:09:51.559Z</time></trkpt><trkpt lat="45.4559147" lon="11.8247842"><ele>17.0</ele><time>2026-04-07T14:09:52.57Z</time></trkpt><trkpt lat="45.4558155" lon="11.8248731"><ele>17.0</ele><time>2026-04-07T14:09:53.568Z</time></trkpt><trkpt lat="45.455702" lon="11.8249536"><ele>17.0</ele><time>2026-04-07T14:09:54.567Z</time></trkpt><trkpt lat="45.4555585" lon="11.8250371"><ele>17.0</ele><time>2026-04-07T14:09:55.57Z</time></trkpt><trkpt lat="45.4554231" lon="11.8251228"><ele>17.666666666666668</ele><time>2026-04-07T14:09:56.568Z</time></trkpt><trkpt lat="45.455284" lon="11.8251948"><ele>18.333333333333332</ele><time>2026-04-07T14:09:57.591Z</time></trkpt><trkpt lat="45.4551424" lon="11.8252811"><ele>19.0</ele><time>2026-04-07T14:09:58.596Z</time></trkpt><trkpt lat="45.4550062" lon="11.8253774"><ele>19.0</ele><time>2026-04-07T14:09:59.576Z</time></trkpt><trkpt lat="45.4548551" lon="11.82548"><ele>19.0</ele><time>2026-04-07T14:10:00.57Z</time></trkpt><trkpt lat="45.4547155" lon="11.8255888"><ele>19.0</ele><time>2026-04-07T14:10:01.568Z</time></trkpt><trkpt lat="45.4545772" lon="11.8256738"><ele>18.666666666666664</ele><time>2026-04-07T14:10:02.57Z</time></trkpt><trkpt lat="45.4544324" lon="11.825773"><ele>18.333333333333332</ele><time>2026-04-07T14:10:03.573Z</time></trkpt><trkpt lat="45.4542903" lon="11.8258757"><ele>18.0</ele><time>2026-04-07T14:10:04.563Z</time></trkpt><trkpt lat="45.4541109" lon="11.8259581"><ele>17.666666666666668</ele><time>2026-04-07T14:10:05.572Z</time></trkpt><trkpt lat="45.4539559" lon="11.8260722"><ele>17.333333333333336</ele><time>2026-04-07T14:10:06.57Z</time></trkpt><trkpt lat="45.4537824" lon="11.8261687"><ele>17.0</ele><time>2026-04-07T14:10:07.563Z</time></trkpt><trkpt lat="45.4536242" lon="11.8262839"><ele>17.0</ele><time>2026-04-07T14:10:08.571Z</time></trkpt><trkpt lat="45.4534946" lon="11.8263842"><ele>17.0</ele><time>2026-04-07T14:10:09.565Z</time></trkpt><trkpt lat="45.453355" lon="11.8264852"><ele>17.0</ele><time>2026-04-07T14:10:10.573Z</time></trkpt><trkpt lat="45.4531914" lon="11.8265816"><ele>17.0</ele><time>2026-04-07T14:10:11.565Z</time></trkpt><trkpt lat="45.4530312" lon="11.8266939"><ele>17.0</ele><time>2026-04-07T14:10:12.566Z</time></trkpt><trkpt lat="45.4528798" lon="11.8267953"><ele>17.0</ele><time>2026-04-07T14:10:13.568Z</time></trkpt><trkpt lat="45.4527475" lon="11.8268802"><ele>17.0</ele><time>2026-04-07T14:10:14.564Z</time></trkpt><trkpt lat="45.4526128" lon="11.8269495"><ele>17.0</ele><time>2026-04-07T14:10:15.561Z</time></trkpt><trkpt lat="45.4524858" lon="11.8270432"><ele>17.0</ele><time>2026-04-07T14:10:16.562Z</time></trkpt><trkpt lat="45.4523723" lon="11.827124"><ele>17.0</ele><time>2026-04-07T14:10:17.569Z</time></trkpt><trkpt lat="45.4522448" lon="11.8272273"><ele>17.0</ele><time>2026-04-07T14:10:18.561Z</time></trkpt><trkpt lat="45.4521275" lon="11.8273233"><ele>17.0</ele><time>2026-04-07T14:10:19.562Z</time></trkpt><trkpt lat="45.452007" lon="11.8273827"><ele>17.0</ele><time>2026-04-07T14:10:20.562Z</time></trkpt><trkpt lat="45.4518893" lon="11.8274804"><ele>17.0</ele><time>2026-04-07T14:10:21.558Z</time></trkpt><trkpt lat="45.4517486" lon="11.8275784"><ele>17.333333333333336</ele><time>2026-04-07T14:10:22.564Z</time></trkpt><trkpt lat="45.4516106" lon="11.8276936"><ele>17.666666666666668</ele><time>2026-04-07T14:10:23.561Z</time></trkpt><trkpt lat="45.4514664" lon="11.8277767"><ele>18.0</ele><time>2026-04-07T14:10:24.586Z</time></trkpt><trkpt lat="45.4513212" lon="11.8278514"><ele>17.5</ele><time>2026-04-07T14:10:25.561Z</time></trkpt><trkpt lat="45.4512218" lon="11.827946"><ele>17.0</ele><time>2026-04-07T14:10:26.576Z</time></trkpt><trkpt lat="45.4510917" lon="11.8280474"><ele>16.5</ele><time>2026-04-07T14:10:27.553Z</time></trkpt><trkpt lat="45.4509367" lon="11.8281228"><ele>16.0</ele><time>2026-04-07T14:10:28.553Z</time></trkpt><trkpt lat="45.4508419" lon="11.8282613"><ele>16.0</ele><time>2026-04-07T14:10:29.556Z</time></trkpt><trkpt lat="45.4507137" lon="11.8283643"><ele>16.0</ele><time>2026-04-07T14:10:30.567Z</time></trkpt><trkpt lat="45.4505577" lon="11.8284872"><ele>16.0</ele><time>2026-04-07T14:10:31.556Z</time></trkpt><trkpt lat="45.4504265" lon="11.8285651"><ele>16.25</ele><time>2026-04-07T14:10:32.584Z</time></trkpt><trkpt lat="45.4503045" lon="11.8286398"><ele>16.5</ele><time>2026-04-07T14:10:33.6Z</time></trkpt><trkpt lat="45.4501922" lon="11.8287347"><ele>16.75</ele><time>2026-04-07T14:10:34.557Z</time></trkpt><trkpt lat="45.4500842" lon="11.8288213"><ele>17.0</ele><time>2026-04-07T14:10:35.563Z</time></trkpt><trkpt lat="45.4499752" lon="11.8289329"><ele>17.0</ele><time>2026-04-07T14:10:36.561Z</time></trkpt><trkpt lat="45.4498713" lon="11.8290305"><ele>17.0</ele><time>2026-04-07T14:10:37.555Z</time></trkpt><trkpt lat="45.4497706" lon="11.8291047"><ele>17.0</ele><time>2026-04-07T14:10:38.553Z</time></trkpt><trkpt lat="45.4496663" lon="11.8291655"><ele>17.0</ele><time>2026-04-07T14:10:39.56Z</time></trkpt><trkpt lat="45.4495534" lon="11.8292359"><ele>16.75</ele><time>2026-04-07T14:10:40.567Z</time></trkpt><trkpt lat="45.4494377" lon="11.8293145"><ele>16.5</ele><time>2026-04-07T14:10:41.562Z</time></trkpt><trkpt lat="45.4493184" lon="11.8293976"><ele>16.25</ele><time>2026-04-07T14:10:42.562Z</time></trkpt><trkpt lat="45.4491981" lon="11.8294762"><ele>16.0</ele><time>2026-04-07T14:10:43.564Z</time></trkpt><trkpt lat="45.4490898" lon="11.829543"><ele>15.999999999999998</ele><time>2026-04-07T14:10:44.562Z</time></trkpt><trkpt lat="45.4489875" lon="11.8296016"><ele>16.0</ele><time>2026-04-07T14:10:45.564Z</time></trkpt><trkpt lat="45.4489017" lon="11.8296522"><ele>16.0</ele><time>2026-04-07T14:10:46.567Z</time></trkpt><trkpt lat="45.4488177" lon="11.8296944"><ele>16.0</ele><time>2026-04-07T14:10:47.559Z</time></trkpt><trkpt lat="45.4487404" lon="11.829733"><ele>15.999999999999998</ele><time>2026-04-07T14:10:48.565Z</time></trkpt><trkpt lat="45.4486783" lon="11.8297697"><ele>16.0</ele><time>2026-04-07T14:10:49.562Z</time></trkpt><trkpt lat="45.4486155" lon="11.8297856"><ele>15.8</ele><time>2026-04-07T14:10:50.558Z</time></trkpt><trkpt lat="45.448477" lon="11.8297675"><ele>15.600000000000001</ele><time>2026-04-07T14:10:52.576Z</time></trkpt><trkpt lat="45.4483856" lon="11.8297439"><ele>15.4</ele><time>2026-04-07T14:10:53.58Z</time></trkpt><trkpt lat="45.4482887" lon="11.8297166"><ele>15.2</ele><time>2026-04-07T14:10:54.562Z</time></trkpt><trkpt lat="45.4481924" lon="11.8296627"><ele>15.0</ele><time>2026-04-07T14:10:55.56Z</time></trkpt><trkpt lat="45.4481057" lon="11.8296259"><ele>15.0</ele><time>2026-04-07T14:10:56.56Z</time></trkpt><trkpt lat="45.4480305" lon="11.8296389"><ele>15.0</ele><time>2026-04-07T14:10:57.558Z</time></trkpt><trkpt lat="45.4479505" lon="11.8297083"><ele>15.0</ele><time>2026-04-07T14:10:58.561Z</time></trkpt><trkpt lat="45.4478727" lon="11.8298194"><ele>15.0</ele><time>2026-04-07T14:10:59.558Z</time></trkpt><trkpt lat="45.4477838" lon="11.8299509"><ele>15.0</ele><time>2026-04-07T14:11:00.575Z</time></trkpt><trkpt lat="45.4476856" lon="11.830067"><ele>14.75</ele><time>2026-04-07T14:11:01.563Z</time></trkpt><trkpt lat="45.4475768" lon="11.8301447"><ele>14.5</ele><time>2026-04-07T14:11:02.562Z</time></trkpt><trkpt lat="45.4474723" lon="11.8301791"><ele>14.25</ele><time>2026-04-07T14:11:03.558Z</time></trkpt><trkpt lat="45.4473425" lon="11.8301909"><ele>14.0</ele><time>2026-04-07T14:11:04.559Z</time></trkpt><trkpt lat="45.4472252" lon="11.8301872"><ele>14.0</ele><time>2026-04-07T14:11:05.561Z</time></trkpt><trkpt lat="45.4471138" lon="11.8301689"><ele>14.0</ele><time>2026-04-07T14:11:06.558Z</time></trkpt><trkpt lat="45.4469947" lon="11.8301519"><ele>14.0</ele><time>2026-04-07T14:11:07.559Z</time></trkpt><trkpt lat="45.4468592" lon="11.8301403"><ele>14.0</ele><time>2026-04-07T14:11:08.555Z</time></trkpt><trkpt lat="45.4466928" lon="11.8301122"><ele>13.666666666666668</ele><time>2026-04-07T14:11:09.56Z</time></trkpt><trkpt lat="45.4464797" lon="11.8300502"><ele>13.333333333333332</ele><time>2026-04-07T14:11:10.557Z</time></trkpt><trkpt lat="45.4462985" lon="11.8300647"><ele>13.0</ele><time>2026-04-07T14:11:11.561Z</time></trkpt><trkpt lat="45.4461238" lon="11.8301175"><ele>13.75</ele><time>2026-04-07T14:11:12.562Z</time></trkpt><trkpt lat="45.4459834" lon="11.8301787"><ele>14.5</ele><time>2026-04-07T14:11:13.556Z</time></trkpt><trkpt lat="45.445895" lon="11.8302415"><ele>15.25</ele><time>2026-04-07T14:11:14.554Z</time></trkpt><trkpt lat="45.4457771" lon="11.8303065"><ele>16.0</ele><time>2026-04-07T14:11:15.552Z</time></trkpt><trkpt lat="45.4456711" lon="11.8303809"><ele>16.0</ele><time>2026-04-07T14:11:16.551Z</time></trkpt><trkpt lat="45.4455479" lon="11.8305123"><ele>16.0</ele><time>2026-04-07T14:11:17.555Z</time></trkpt><trkpt lat="45.4454022" lon="11.8306067"><ele>16.0</ele><time>2026-04-07T14:11:18.557Z</time></trkpt><trkpt lat="45.4452412" lon="11.8307391"><ele>15.666666666666666</ele><time>2026-04-07T14:11:19.559Z</time></trkpt><trkpt lat="45.4450741" lon="11.8308492"><ele>15.333333333333332</ele><time>2026-04-07T14:11:20.555Z</time></trkpt><trkpt lat="45.4449426" lon="11.8309352"><ele>15.0</ele><time>2026-04-07T14:11:21.558Z</time></trkpt><trkpt lat="45.4448117" lon="11.8310239"><ele>15.0</ele><time>2026-04-07T14:11:22.561Z</time></trkpt><trkpt lat="45.4446779" lon="11.8311334"><ele>15.0</ele><time>2026-04-07T14:11:23.563Z</time></trkpt><trkpt lat="45.4445397" lon="11.8312284"><ele>15.0</ele><time>2026-04-07T14:11:24.563Z</time></trkpt><trkpt lat="45.4443737" lon="11.8313361"><ele>15.0</ele><time>2026-04-07T14:11:25.562Z</time></trkpt><trkpt lat="45.4442067" lon="11.8314689"><ele>15.0</ele><time>2026-04-07T14:11:26.585Z</time></trkpt><trkpt lat="45.4440448" lon="11.8316203"><ele>15.0</ele><time>2026-04-07T14:11:27.585Z</time></trkpt><trkpt lat="45.443878" lon="11.8317386"><ele>14.333333333333332</ele><time>2026-04-07T14:11:28.565Z</time></trkpt><trkpt lat="45.4437458" lon="11.8318506"><ele>13.666666666666666</ele><time>2026-04-07T14:11:29.589Z</time></trkpt><trkpt lat="45.443624" lon="11.8319577"><ele>13.0</ele><time>2026-04-07T14:11:30.564Z</time></trkpt><trkpt lat="45.4434914" lon="11.832093"><ele>13.0</ele><time>2026-04-07T14:11:31.564Z</time></trkpt><trkpt lat="45.4433736" lon="11.8322292"><ele>13.0</ele><time>2026-04-07T14:11:32.587Z</time></trkpt><trkpt lat="45.4432505" lon="11.83234"><ele>13.0</ele><time>2026-04-07T14:11:33.58Z</time></trkpt><trkpt lat="45.4431237" lon="11.8324699"><ele>13.0</ele><time>2026-04-07T14:11:34.586Z</time></trkpt><trkpt lat="45.4429724" lon="11.8325908"><ele>13.0</ele><time>2026-04-07T14:11:35.585Z</time></trkpt><trkpt lat="45.4428164" lon="11.8327254"><ele>13.0</ele><time>2026-04-07T14:11:36.564Z</time></trkpt><trkpt lat="45.4426538" lon="11.8328777"><ele>13.0</ele><time>2026-04-07T14:11:37.566Z</time></trkpt><trkpt lat="45.4425009" lon="11.8330911"><ele>13.0</ele><time>2026-04-07T14:11:38.559Z</time></trkpt><trkpt lat="45.4423668" lon="11.8332772"><ele>13.0</ele><time>2026-04-07T14:11:39.565Z</time></trkpt><trkpt lat="45.4422036" lon="11.8334251"><ele>13.666666666666666</ele><time>2026-04-07T14:11:40.573Z</time></trkpt><trkpt lat="45.4420379" lon="11.8336065"><ele>14.333333333333332</ele><time>2026-04-07T14:11:41.564Z</time></trkpt><trkpt lat="45.4418845" lon="11.833798"><ele>15.0</ele><time>2026-04-07T14:11:42.565Z</time></trkpt><trkpt lat="45.4417216" lon="11.8339318"><ele>15.0</ele><time>2026-04-07T14:11:43.566Z</time></trkpt><trkpt lat="45.4415164" lon="11.8340216"><ele>15.0</ele><time>2026-04-07T14:11:44.562Z</time></trkpt><trkpt lat="45.4413499" lon="11.8341179"><ele>15.0</ele><time>2026-04-07T14:11:45.559Z</time></trkpt><trkpt lat="45.4411753" lon="11.8342159"><ele>14.75</ele><time>2026-04-07T14:11:46.559Z</time></trkpt><trkpt lat="45.4410282" lon="11.8343037"><ele>14.5</ele><time>2026-04-07T14:11:47.562Z</time></trkpt><trkpt lat="45.440889" lon="11.8343879"><ele>14.25</ele><time>2026-04-07T14:11:48.562Z</time></trkpt><trkpt lat="45.4407662" lon="11.8344772"><ele>14.0</ele><time>2026-04-07T14:11:49.567Z</time></trkpt><trkpt lat="45.4406317" lon="11.8345798"><ele>14.0</ele><time>2026-04-07T14:11:50.567Z</time></trkpt><trkpt lat="45.4404991" lon="11.834673"><ele>14.0</ele><time>2026-04-07T14:11:51.562Z</time></trkpt><trkpt lat="45.4403683" lon="11.8347471"><ele>14.0</ele><time>2026-04-07T14:11:52.565Z</time></trkpt><trkpt lat="45.4402398" lon="11.8348767"><ele>14.0</ele><time>2026-04-07T14:11:53.563Z</time></trkpt><trkpt lat="45.4400823" lon="11.8349851"><ele>14.0</ele><time>2026-04-07T14:11:54.564Z</time></trkpt><trkpt lat="45.4399344" lon="11.8350553"><ele>14.0</ele><time>2026-04-07T14:11:55.564Z</time></trkpt><trkpt lat="45.4397952" lon="11.8351412"><ele>14.0</ele><time>2026-04-07T14:11:56.564Z</time></trkpt><trkpt lat="45.4396653" lon="11.8352173"><ele>14.0</ele><time>2026-04-07T14:11:57.567Z</time></trkpt><trkpt lat="45.4395431" lon="11.8353278"><ele>14.25</ele><time>2026-04-07T14:11:58.566Z</time></trkpt><trkpt lat="45.4394504" lon="11.8354269"><ele>14.5</ele><time>2026-04-07T14:11:59.567Z</time></trkpt><trkpt lat="45.4393374" lon="11.8355009"><ele>14.75</ele><time>2026-04-07T14:12:00.568Z</time></trkpt><trkpt lat="45.439212" lon="11.8355852"><ele>15.0</ele><time>2026-04-07T14:12:01.565Z</time></trkpt><trkpt lat="45.4390397" lon="11.8356697"><ele>15.0</ele><time>2026-04-07T14:12:02.56Z</time></trkpt><trkpt lat="45.4389031" lon="11.8357849"><ele>15.0</ele><time>2026-04-07T14:12:03.566Z</time></trkpt><trkpt lat="45.4387916" lon="11.8359135"><ele>15.0</ele><time>2026-04-07T14:12:04.555Z</time></trkpt><trkpt lat="45.4386776" lon="11.8360196"><ele>15.0</ele><time>2026-04-07T14:12:05.554Z</time></trkpt><trkpt lat="45.4385421" lon="11.8360873"><ele>14.75</ele><time>2026-04-07T14:12:06.564Z</time></trkpt><trkpt lat="45.4384158" lon="11.8361397"><ele>14.5</ele><time>2026-04-07T14:12:07.563Z</time></trkpt><trkpt lat="45.4383091" lon="11.8362235"><ele>14.25</ele><time>2026-04-07T14:12:08.558Z</time></trkpt><trkpt lat="45.4381979" lon="11.8362881"><ele>14.0</ele><time>2026-04-07T14:12:09.557Z</time></trkpt><trkpt lat="45.4380656" lon="11.8363642"><ele>13.666666666666668</ele><time>2026-04-07T14:12:10.556Z</time></trkpt><trkpt lat="45.4379072" lon="11.8364192"><ele>13.333333333333332</ele><time>2026-04-07T14:12:11.559Z</time></trkpt><trkpt lat="45.43775" lon="11.8364442"><ele>13.0</ele><time>2026-04-07T14:12:12.569Z</time></trkpt><trkpt lat="45.4375842" lon="11.8364113"><ele>13.0</ele><time>2026-04-07T14:12:13.585Z</time></trkpt><trkpt lat="45.4373854" lon="11.8363805"><ele>13.0</ele><time>2026-04-07T14:12:14.571Z</time></trkpt><trkpt lat="45.4371872" lon="11.8363484"><ele>13.0</ele><time>2026-04-07T14:12:15.571Z</time></trkpt><trkpt lat="45.4369702" lon="11.8363441"><ele>13.5</ele><time>2026-04-07T14:12:16.562Z</time></trkpt><trkpt lat="45.4367423" lon="11.8363166"><ele>14.0</ele><time>2026-04-07T14:12:17.558Z</time></trkpt><trkpt lat="45.4365184" lon="11.8362825"><ele>14.5</ele><time>2026-04-07T14:12:18.572Z</time></trkpt><trkpt lat="45.4362855" lon="11.8362653"><ele>15.0</ele><time>2026-04-07T14:12:19.56Z</time></trkpt><trkpt lat="45.4360622" lon="11.8362714"><ele>15.0</ele><time>2026-04-07T14:12:20.565Z</time></trkpt><trkpt lat="45.4358284" lon="11.8363099"><ele>15.0</ele><time>2026-04-07T14:12:21.564Z</time></trkpt><trkpt lat="45.4355904" lon="11.8363725"><ele>15.5</ele><time>2026-04-07T14:12:22.563Z</time></trkpt><trkpt lat="45.4353442" lon="11.8364035"><ele>16.0</ele><time>2026-04-07T14:12:23.567Z</time></trkpt><trkpt lat="45.4351096" lon="11.836454"><ele>16.0</ele><time>2026-04-07T14:12:24.598Z</time></trkpt><trkpt lat="45.4348913" lon="11.8364983"><ele>16.0</ele><time>2026-04-07T14:12:25.57Z</time></trkpt><trkpt lat="45.4346846" lon="11.8365545"><ele>16.0</ele><time>2026-04-07T14:12:26.569Z</time></trkpt><trkpt lat="45.4344675" lon="11.8366107"><ele>16.0</ele><time>2026-04-07T14:12:27.565Z</time></trkpt><trkpt lat="45.4342303" lon="11.8366752"><ele>16.0</ele><time>2026-04-07T14:12:28.563Z</time></trkpt><trkpt lat="45.4340142" lon="11.836748"><ele>15.333333333333332</ele><time>2026-04-07T14:12:29.57Z</time></trkpt><trkpt lat="45.4338212" lon="11.8368174"><ele>14.666666666666668</ele><time>2026-04-07T14:12:30.559Z</time></trkpt><trkpt lat="45.4336218" lon="11.8369093"><ele>14.0</ele><time>2026-04-07T14:12:31.56Z</time></trkpt><trkpt lat="45.4334526" lon="11.837041"><ele>13.666666666666668</ele><time>2026-04-07T14:12:32.564Z</time></trkpt><trkpt lat="45.4333026" lon="11.8371973"><ele>13.333333333333332</ele><time>2026-04-07T14:12:33.558Z</time></trkpt><trkpt lat="45.4331578" lon="11.8373576"><ele>13.0</ele><time>2026-04-07T14:12:34.552Z</time></trkpt><trkpt lat="45.4330321" lon="11.8375289"><ele>12.666666666666666</ele><time>2026-04-07T14:12:35.562Z</time></trkpt><trkpt lat="45.432932" lon="11.8377328"><ele>12.333333333333332</ele><time>2026-04-07T14:12:36.565Z</time></trkpt><trkpt lat="45.4328329" lon="11.8379562"><ele>12.0</ele><time>2026-04-07T14:12:37.554Z</time></trkpt><trkpt lat="45.4327582" lon="11.8381893"><ele>12.0</ele><time>2026-04-07T14:12:38.564Z</time></trkpt><trkpt lat="45.4327086" lon="11.8384051"><ele>12.0</ele><time>2026-04-07T14:12:39.559Z</time></trkpt><trkpt lat="45.432691" lon="11.8385996"><ele>12.0</ele><time>2026-04-07T14:12:40.561Z</time></trkpt><trkpt lat="45.4326527" lon="11.8388159"><ele>12.0</ele><time>2026-04-07T14:12:41.564Z</time></trkpt><trkpt lat="45.4326363" lon="11.8390138"><ele>12.0</ele><time>2026-04-07T14:12:42.567Z</time></trkpt><trkpt lat="45.4326103" lon="11.839159"><ele>12.0</ele><time>2026-04-07T14:12:43.553Z</time></trkpt><trkpt lat="45.4325549" lon="11.8392917"><ele>12.0</ele><time>2026-04-07T14:12:44.562Z</time></trkpt><trkpt lat="45.4325198" lon="11.839417"><ele>12.0</ele><time>2026-04-07T14:12:45.56Z</time></trkpt><trkpt lat="45.4325075" lon="11.8395272"><ele>12.399999999999999</ele><time>2026-04-07T14:12:46.555Z</time></trkpt><trkpt lat="45.4324994" lon="11.8396661"><ele>12.799999999999999</ele><time>2026-04-07T14:12:47.556Z</time></trkpt><trkpt lat="45.432483" lon="11.839801"><ele>13.2</ele><time>2026-04-07T14:12:48.58Z</time></trkpt><trkpt lat="45.4324532" lon="11.8399319"><ele>13.6</ele><time>2026-04-07T14:12:49.556Z</time></trkpt><trkpt lat="45.4324243" lon="11.8400749"><ele>14.0</ele><time>2026-04-07T14:12:50.565Z</time></trkpt><trkpt lat="45.4323825" lon="11.8402247"><ele>14.0</ele><time>2026-04-07T14:12:51.557Z</time></trkpt><trkpt lat="45.4323418" lon="11.8403671"><ele>13.999999999999998</ele><time>2026-04-07T14:12:52.559Z</time></trkpt><trkpt lat="45.4323214" lon="11.8405102"><ele>13.999999999999998</ele><time>2026-04-07T14:12:53.561Z</time></trkpt><trkpt lat="45.4323307" lon="11.8406443"><ele>14.0</ele><time>2026-04-07T14:12:54.554Z</time></trkpt><trkpt lat="45.4323407" lon="11.8407729"><ele>14.0</ele><time>2026-04-07T14:12:55.563Z</time></trkpt><trkpt lat="45.4323389" lon="11.8408979"><ele>14.000000000000002</ele><time>2026-04-07T14:12:56.56Z</time></trkpt><trkpt lat="45.4323311" lon="11.8410066"><ele>14.0</ele><time>2026-04-07T14:12:57.564Z</time></trkpt><trkpt lat="45.4322948" lon="11.8411651"><ele>14.0</ele><time>2026-04-07T14:12:59.563Z</time></trkpt><trkpt lat="45.4322701" lon="11.8412532"><ele>14.0</ele><time>2026-04-07T14:13:00.588Z</time></trkpt><trkpt lat="45.4322333" lon="11.8413556"><ele>14.000000000000002</ele><time>2026-04-07T14:13:01.585Z</time></trkpt><trkpt lat="45.4321789" lon="11.8414812"><ele>14.0</ele><time>2026-04-07T14:13:02.557Z</time></trkpt><trkpt lat="45.4321351" lon="11.8416262"><ele>14.0</ele><time>2026-04-07T14:13:03.557Z</time></trkpt><trkpt lat="45.4320797" lon="11.8417707"><ele>14.0</ele><time>2026-04-07T14:13:04.561Z</time></trkpt><trkpt lat="45.4320064" lon="11.8419054"><ele>14.0</ele><time>2026-04-07T14:13:05.559Z</time></trkpt><trkpt lat="45.4319334" lon="11.8420462"><ele>14.0</ele><time>2026-04-07T14:13:06.558Z</time></trkpt><trkpt lat="45.4318832" lon="11.8421815"><ele>13.799999999999999</ele><time>2026-04-07T14:13:07.557Z</time></trkpt><trkpt lat="45.4318247" lon="11.8423173"><ele>13.599999999999998</ele><time>2026-04-07T14:13:08.553Z</time></trkpt><trkpt lat="45.4317646" lon="11.84245"><ele>13.4</ele><time>2026-04-07T14:13:09.552Z</time></trkpt><trkpt lat="45.431709" lon="11.8425604"><ele>13.2</ele><time>2026-04-07T14:13:10.563Z</time></trkpt><trkpt lat="45.431661" lon="11.8426533"><ele>13.0</ele><time>2026-04-07T14:13:11.562Z</time></trkpt><trkpt lat="45.4316029" lon="11.842784"><ele>13.0</ele><time>2026-04-07T14:13:13.569Z</time></trkpt><trkpt lat="45.4315924" lon="11.8428934"><ele>13.0</ele><time>2026-04-07T14:13:48.587Z</time></trkpt><trkpt lat="45.4315125" lon="11.8430052"><ele>13.0</ele><time>2026-04-07T14:13:50.565Z</time></trkpt><trkpt lat="45.4314462" lon="11.8430858"><ele>13.0</ele><time>2026-04-07T14:13:51.568Z</time></trkpt><trkpt lat="45.4313661" lon="11.8431764"><ele>13.0</ele><time>2026-04-07T14:13:52.564Z</time></trkpt><trkpt lat="45.4312699" lon="11.8432888"><ele>13.0</ele><time>2026-04-07T14:13:53.569Z</time></trkpt><trkpt lat="45.4311533" lon="11.8434105"><ele>13.0</ele><time>2026-04-07T14:13:54.565Z</time></trkpt><trkpt lat="45.4310408" lon="11.843531"><ele>13.0</ele><time>2026-04-07T14:13:55.564Z</time></trkpt><trkpt lat="45.4309226" lon="11.8436523"><ele>13.0</ele><time>2026-04-07T14:13:56.568Z</time></trkpt><trkpt lat="45.4307813" lon="11.8438091"><ele>12.333333333333332</ele><time>2026-04-07T14:13:57.566Z</time></trkpt><trkpt lat="45.4306233" lon="11.8439725"><ele>11.666666666666666</ele><time>2026-04-07T14:13:58.566Z</time></trkpt><trkpt lat="45.4304767" lon="11.8440932"><ele>11.0</ele><time>2026-04-07T14:13:59.565Z</time></trkpt><trkpt lat="45.4303526" lon="11.8442079"><ele>11.0</ele><time>2026-04-07T14:14:00.568Z</time></trkpt><trkpt lat="45.430242" lon="11.8443522"><ele>11.0</ele><time>2026-04-07T14:14:01.57Z</time></trkpt><trkpt lat="45.4301337" lon="11.844485"><ele>11.0</ele><time>2026-04-07T14:14:02.564Z</time></trkpt><trkpt lat="45.429985" lon="11.8446229"><ele>11.0</ele><time>2026-04-07T14:14:03.57Z</time></trkpt><trkpt lat="45.4298776" lon="11.8447583"><ele>11.0</ele><time>2026-04-07T14:14:04.573Z</time></trkpt><trkpt lat="45.4297589" lon="11.8449093"><ele>11.0</ele><time>2026-04-07T14:14:05.569Z</time></trkpt><trkpt lat="45.4296592" lon="11.8450764"><ele>11.333333333333332</ele><time>2026-04-07T14:14:06.564Z</time></trkpt><trkpt lat="45.4294847" lon="11.8452082"><ele>11.666666666666666</ele><time>2026-04-07T14:14:07.574Z</time></trkpt><trkpt lat="45.4293522" lon="11.8453946"><ele>12.0</ele><time>2026-04-07T14:14:08.59Z</time></trkpt><trkpt lat="45.4292354" lon="11.8455705"><ele>12.0</ele><time>2026-04-07T14:14:09.572Z</time></trkpt><trkpt lat="45.42909" lon="11.8457351"><ele>12.0</ele><time>2026-04-07T14:14:10.567Z</time></trkpt><trkpt lat="45.4289787" lon="11.8458736"><ele>12.0</ele><time>2026-04-07T14:14:11.569Z</time></trkpt><trkpt lat="45.4288687" lon="11.8459951"><ele>12.399999999999999</ele><time>2026-04-07T14:14:12.567Z</time></trkpt><trkpt lat="45.4287833" lon="11.8460889"><ele>12.799999999999999</ele><time>2026-04-07T14:14:13.568Z</time></trkpt><trkpt lat="45.4287058" lon="11.8461926"><ele>13.2</ele><time>2026-04-07T14:14:14.583Z</time></trkpt><trkpt lat="45.4286362" lon="11.8462836"><ele>13.6</ele><time>2026-04-07T14:14:15.574Z</time></trkpt><trkpt lat="45.4285641" lon="11.8463823"><ele>14.0</ele><time>2026-04-07T14:14:16.567Z</time></trkpt><trkpt lat="45.4284751" lon="11.8464678"><ele>14.0</ele><time>2026-04-07T14:14:17.576Z</time></trkpt><trkpt lat="45.4283946" lon="11.8465752"><ele>14.0</ele><time>2026-04-07T14:14:18.576Z</time></trkpt><trkpt lat="45.428311" lon="11.8466856"><ele>14.0</ele><time>2026-04-07T14:14:19.577Z</time></trkpt><trkpt lat="45.428223" lon="11.8467983"><ele>14.0</ele><time>2026-04-07T14:14:20.573Z</time></trkpt><trkpt lat="45.4281343" lon="11.846903"><ele>13.75</ele><time>2026-04-07T14:14:21.577Z</time></trkpt><trkpt lat="45.4280441" lon="11.8470152"><ele>13.5</ele><time>2026-04-07T14:14:22.576Z</time></trkpt><trkpt lat="45.4279594" lon="11.8471322"><ele>13.25</ele><time>2026-04-07T14:14:23.575Z</time></trkpt><trkpt lat="45.4278706" lon="11.8472469"><ele>13.0</ele><time>2026-04-07T14:14:24.572Z</time></trkpt><trkpt lat="45.4277929" lon="11.8473545"><ele>12.600000000000001</ele><time>2026-04-07T14:14:25.568Z</time></trkpt><trkpt lat="45.427721" lon="11.8474521"><ele>12.200000000000001</ele><time>2026-04-07T14:14:26.572Z</time></trkpt><trkpt lat="45.4276482" lon="11.8475443"><ele>11.8</ele><time>2026-04-07T14:14:27.563Z</time></trkpt><trkpt lat="45.4275717" lon="11.8476367"><ele>11.4</ele><time>2026-04-07T14:14:28.598Z</time></trkpt><trkpt lat="45.4274969" lon="11.8477334"><ele>11.0</ele><time>2026-04-07T14:14:29.597Z</time></trkpt><trkpt lat="45.4274197" lon="11.8478374"><ele>11.0</ele><time>2026-04-07T14:14:30.6Z</time></trkpt><trkpt lat="45.4273398" lon="11.8479429"><ele>11.0</ele><time>2026-04-07T14:14:31.573Z</time></trkpt><trkpt lat="45.4272592" lon="11.8480453"><ele>11.0</ele><time>2026-04-07T14:14:32.563Z</time></trkpt><trkpt lat="45.4271991" lon="11.8481397"><ele>11.0</ele><time>2026-04-07T14:14:33.567Z</time></trkpt><trkpt lat="45.427138" lon="11.8482357"><ele>11.0</ele><time>2026-04-07T14:14:34.577Z</time></trkpt><trkpt lat="45.4270775" lon="11.8483213"><ele>10.833333333333332</ele><time>2026-04-07T14:14:35.571Z</time></trkpt><trkpt lat="45.4270184" lon="11.8484033"><ele>10.666666666666666</ele><time>2026-04-07T14:14:36.568Z</time></trkpt><trkpt lat="45.426972" lon="11.8484872"><ele>10.5</ele><time>2026-04-07T14:14:37.572Z</time></trkpt><trkpt lat="45.4269311" lon="11.8485655"><ele>10.333333333333334</ele><time>2026-04-07T14:14:38.574Z</time></trkpt><trkpt lat="45.4268969" lon="11.8486587"><ele>10.166666666666668</ele><time>2026-04-07T14:14:39.576Z</time></trkpt><trkpt lat="45.426854" lon="11.8487541"><ele>10.0</ele><time>2026-04-07T14:14:40.579Z</time></trkpt><trkpt lat="45.4267958" lon="11.8488403"><ele>10.0</ele><time>2026-04-07T14:14:41.566Z</time></trkpt><trkpt lat="45.4267239" lon="11.8489139"><ele>10.0</ele><time>2026-04-07T14:14:42.569Z</time></trkpt><trkpt lat="45.4266363" lon="11.8489729"><ele>10.0</ele><time>2026-04-07T14:14:43.559Z</time></trkpt><trkpt lat="45.4265602" lon="11.8490338"><ele>10.0</ele><time>2026-04-07T14:14:44.568Z</time></trkpt><trkpt lat="45.4264971" lon="11.8491063"><ele>10.0</ele><time>2026-04-07T14:14:45.583Z</time></trkpt><trkpt lat="45.4264377" lon="11.8491826"><ele>10.0</ele><time>2026-04-07T14:14:46.574Z</time></trkpt><trkpt lat="45.42637" lon="11.8492624"><ele>10.0</ele><time>2026-04-07T14:14:47.571Z</time></trkpt><trkpt lat="45.4262991" lon="11.8493467"><ele>10.0</ele><time>2026-04-07T14:14:48.567Z</time></trkpt><trkpt lat="45.4262201" lon="11.849431"><ele>10.0</ele><time>2026-04-07T14:14:49.576Z</time></trkpt><trkpt lat="45.4261391" lon="11.8495152"><ele>10.0</ele><time>2026-04-07T14:14:50.571Z</time></trkpt><trkpt lat="45.4260705" lon="11.8495983"><ele>10.0</ele><time>2026-04-07T14:14:51.569Z</time></trkpt><trkpt lat="45.4259907" lon="11.8496864"><ele>10.0</ele><time>2026-04-07T14:14:52.571Z</time></trkpt><trkpt lat="45.4259203" lon="11.849776"><ele>10.0</ele><time>2026-04-07T14:14:53.563Z</time></trkpt><trkpt lat="45.4258513" lon="11.8498684"><ele>10.0</ele><time>2026-04-07T14:14:54.571Z</time></trkpt><trkpt lat="45.4257829" lon="11.8499612"><ele>10.0</ele><time>2026-04-07T14:14:55.56Z</time></trkpt><trkpt lat="45.4257106" lon="11.8500697"><ele>10.0</ele><time>2026-04-07T14:14:56.561Z</time></trkpt><trkpt lat="45.4256446" lon="11.8501671"><ele>10.4</ele><time>2026-04-07T14:14:57.565Z</time></trkpt><trkpt lat="45.4255821" lon="11.8502533"><ele>10.8</ele><time>2026-04-07T14:14:58.567Z</time></trkpt><trkpt lat="45.425522" lon="11.8503302"><ele>11.2</ele><time>2026-04-07T14:14:59.565Z</time></trkpt><trkpt lat="45.4254695" lon="11.8504001"><ele>11.6</ele><time>2026-04-07T14:15:00.592Z</time></trkpt><trkpt lat="45.4253863" lon="11.8505081"><ele>12.0</ele><time>2026-04-07T14:15:02.56Z</time></trkpt><trkpt lat="45.4253114" lon="11.8506056"><ele>12.2</ele><time>2026-04-07T14:15:04.556Z</time></trkpt><trkpt lat="45.4252009" lon="11.8507201"><ele>12.399999999999999</ele><time>2026-04-07T14:15:06.572Z</time></trkpt><trkpt lat="45.4251425" lon="11.8507808"><ele>12.600000000000001</ele><time>2026-04-07T14:15:07.562Z</time></trkpt><trkpt lat="45.4250836" lon="11.8508762"><ele>12.8</ele><time>2026-04-07T14:15:08.553Z</time></trkpt><trkpt lat="45.42502" lon="11.8509838"><ele>13.0</ele><time>2026-04-07T14:15:09.554Z</time></trkpt><trkpt lat="45.4249603" lon="11.8510854"><ele>13.2</ele><time>2026-04-07T14:15:10.56Z</time></trkpt><trkpt lat="45.4249017" lon="11.8511777"><ele>13.4</ele><time>2026-04-07T14:15:11.56Z</time></trkpt><trkpt lat="45.4248442" lon="11.8512618"><ele>13.599999999999998</ele><time>2026-04-07T14:15:12.554Z</time></trkpt><trkpt lat="45.4247872" lon="11.8513624"><ele>13.799999999999999</ele><time>2026-04-07T14:15:13.559Z</time></trkpt><trkpt lat="45.4247268" lon="11.8514742"><ele>14.0</ele><time>2026-04-07T14:15:14.558Z</time></trkpt><trkpt lat="45.4246664" lon="11.8515787"><ele>13.6</ele><time>2026-04-07T14:15:15.555Z</time></trkpt><trkpt lat="45.4246057" lon="11.851685"><ele>13.2</ele><time>2026-04-07T14:15:16.566Z</time></trkpt><trkpt lat="45.4245488" lon="11.8517959"><ele>12.799999999999999</ele><time>2026-04-07T14:15:17.561Z</time></trkpt><trkpt lat="45.4244961" lon="11.8518964"><ele>12.399999999999999</ele><time>2026-04-07T14:15:18.551Z</time></trkpt><trkpt lat="45.4244451" lon="11.8520032"><ele>12.0</ele><time>2026-04-07T14:15:19.561Z</time></trkpt><trkpt lat="45.4243814" lon="11.8521176"><ele>12.0</ele><time>2026-04-07T14:15:20.576Z</time></trkpt><trkpt lat="45.4243273" lon="11.8522232"><ele>12.0</ele><time>2026-04-07T14:15:21.585Z</time></trkpt><trkpt lat="45.4242813" lon="11.8523295"><ele>12.0</ele><time>2026-04-07T14:15:22.55Z</time></trkpt><trkpt lat="45.4242389" lon="11.8524426"><ele>12.0</ele><time>2026-04-07T14:15:23.593Z</time></trkpt><trkpt lat="45.4241839" lon="11.8525548"><ele>12.0</ele><time>2026-04-07T14:15:24.588Z</time></trkpt><trkpt lat="45.4241292" lon="11.8526661"><ele>12.0</ele><time>2026-04-07T14:15:25.567Z</time></trkpt><trkpt lat="45.4240715" lon="11.8527808"><ele>12.0</ele><time>2026-04-07T14:15:26.562Z</time></trkpt><trkpt lat="45.4240113" lon="11.8528975"><ele>12.0</ele><time>2026-04-07T14:15:27.565Z</time></trkpt><trkpt lat="45.4239499" lon="11.8530146"><ele>12.0</ele><time>2026-04-07T14:15:28.567Z</time></trkpt><trkpt lat="45.4238954" lon="11.8531378"><ele>12.0</ele><time>2026-04-07T14:15:29.563Z</time></trkpt><trkpt lat="45.4238423" lon="11.8532848"><ele>12.0</ele><time>2026-04-07T14:15:30.557Z</time></trkpt><trkpt lat="45.4237806" lon="11.8534368"><ele>12.0</ele><time>2026-04-07T14:15:31.56Z</time></trkpt><trkpt lat="45.4237011" lon="11.8535966"><ele>12.0</ele><time>2026-04-07T14:15:32.56Z</time></trkpt><trkpt lat="45.4236083" lon="11.8537476"><ele>12.0</ele><time>2026-04-07T14:15:33.559Z</time></trkpt><trkpt lat="45.423508" lon="11.8539133"><ele>12.0</ele><time>2026-04-07T14:15:34.561Z</time></trkpt><trkpt lat="45.4234176" lon="11.8540259"><ele>12.0</ele><time>2026-04-07T14:15:35.553Z</time></trkpt><trkpt lat="45.4233719" lon="11.8541119"><ele>12.0</ele><time>2026-04-07T14:15:37.554Z</time></trkpt><trkpt lat="45.4233279" lon="11.854205"><ele>12.0</ele><time>2026-04-07T14:15:45.559Z</time></trkpt><trkpt lat="45.4233139" lon="11.8542957"><ele>12.0</ele><time>2026-04-07T14:15:47.556Z</time></trkpt><trkpt lat="45.4232942" lon="11.8543823"><ele>12.0</ele><time>2026-04-07T14:15:48.56Z</time></trkpt><trkpt lat="45.423254" lon="11.8544861"><ele>12.0</ele><time>2026-04-07T14:15:49.558Z</time></trkpt><trkpt lat="45.423187" lon="11.8546122"><ele>12.0</ele><time>2026-04-07T14:15:50.552Z</time></trkpt><trkpt lat="45.4231183" lon="11.854728"><ele>12.0</ele><time>2026-04-07T14:15:51.557Z</time></trkpt><trkpt lat="45.4230511" lon="11.8548337"><ele>12.0</ele><time>2026-04-07T14:15:52.559Z</time></trkpt><trkpt lat="45.4229875" lon="11.8549548"><ele>12.0</ele><time>2026-04-07T14:15:53.556Z</time></trkpt><trkpt lat="45.4229299" lon="11.8550881"><ele>12.0</ele><time>2026-04-07T14:15:54.558Z</time></trkpt><trkpt lat="45.4228739" lon="11.8552247"><ele>12.0</ele><time>2026-04-07T14:15:55.582Z</time></trkpt><trkpt lat="45.422805" lon="11.8553537"><ele>12.0</ele><time>2026-04-07T14:15:56.558Z</time></trkpt><trkpt lat="45.4227273" lon="11.8554874"><ele>12.0</ele><time>2026-04-07T14:15:57.551Z</time></trkpt><trkpt lat="45.4226455" lon="11.85563"><ele>12.0</ele><time>2026-04-07T14:15:58.586Z</time></trkpt><trkpt lat="45.4225665" lon="11.8557806"><ele>12.0</ele><time>2026-04-07T14:15:59.557Z</time></trkpt><trkpt lat="45.4224895" lon="11.855924"><ele>12.0</ele><time>2026-04-07T14:16:00.559Z</time></trkpt><trkpt lat="45.4224102" lon="11.8560687"><ele>12.0</ele><time>2026-04-07T14:16:01.563Z</time></trkpt><trkpt lat="45.4223313" lon="11.8562161"><ele>12.0</ele><time>2026-04-07T14:16:02.557Z</time></trkpt><trkpt lat="45.4222506" lon="11.8563599"><ele>12.0</ele><time>2026-04-07T14:16:03.563Z</time></trkpt><trkpt lat="45.4221727" lon="11.8564921"><ele>12.0</ele><time>2026-04-07T14:16:04.554Z</time></trkpt><trkpt lat="45.4221106" lon="11.8566176"><ele>12.0</ele><time>2026-04-07T14:16:05.56Z</time></trkpt><trkpt lat="45.422055" lon="11.8567363"><ele>11.6</ele><time>2026-04-07T14:16:06.562Z</time></trkpt><trkpt lat="45.4220084" lon="11.856832"><ele>11.2</ele><time>2026-04-07T14:16:07.556Z</time></trkpt><trkpt lat="45.4219474" lon="11.8569057"><ele>10.8</ele><time>2026-04-07T14:16:09.552Z</time></trkpt><trkpt lat="45.4218473" lon="11.8570149"><ele>10.4</ele><time>2026-04-07T14:16:12.557Z</time></trkpt><trkpt lat="45.421787" lon="11.8571132"><ele>10.0</ele><time>2026-04-07T14:16:13.544Z</time></trkpt><trkpt lat="45.421724" lon="11.8572353"><ele>10.0</ele><time>2026-04-07T14:16:14.547Z</time></trkpt><trkpt lat="45.4216539" lon="11.8573698"><ele>10.0</ele><time>2026-04-07T14:16:15.55Z</time></trkpt><trkpt lat="45.421576" lon="11.8575195"><ele>10.0</ele><time>2026-04-07T14:16:16.551Z</time></trkpt><trkpt lat="45.4214882" lon="11.8576782"><ele>10.0</ele><time>2026-04-07T14:16:17.551Z</time></trkpt><trkpt lat="45.4213969" lon="11.8578447"><ele>11.0</ele><time>2026-04-07T14:16:18.557Z</time></trkpt><trkpt lat="45.4212832" lon="11.8580279"><ele>12.0</ele><time>2026-04-07T14:16:19.555Z</time></trkpt><trkpt lat="45.4211456" lon="11.8582302"><ele>13.0</ele><time>2026-04-07T14:16:20.56Z</time></trkpt><trkpt lat="45.421027" lon="11.8584481"><ele>12.333333333333332</ele><time>2026-04-07T14:16:21.558Z</time></trkpt><trkpt lat="45.4209432" lon="11.8586652"><ele>11.666666666666666</ele><time>2026-04-07T14:16:22.549Z</time></trkpt><trkpt lat="45.4208709" lon="11.8588216"><ele>11.0</ele><time>2026-04-07T14:16:23.564Z</time></trkpt><trkpt lat="45.4207824" lon="11.8589976"><ele>11.0</ele><time>2026-04-07T14:16:24.554Z</time></trkpt><trkpt lat="45.4207112" lon="11.8590975"><ele>11.0</ele><time>2026-04-07T14:16:25.561Z</time></trkpt><trkpt lat="45.4206357" lon="11.8591832"><ele>11.0</ele><time>2026-04-07T14:16:26.56Z</time></trkpt><trkpt lat="45.4205641" lon="11.8592295"><ele>11.0</ele><time>2026-04-07T14:16:27.557Z</time></trkpt><trkpt lat="45.4204884" lon="11.8592623"><ele>11.0</ele><time>2026-04-07T14:16:28.567Z</time></trkpt><trkpt lat="45.4204209" lon="11.8592796"><ele>11.0</ele><time>2026-04-07T14:16:29.554Z</time></trkpt><trkpt lat="45.4203535" lon="11.8593056"><ele>11.0</ele><time>2026-04-07T14:16:30.554Z</time></trkpt><trkpt lat="45.420273" lon="11.8593975"><ele>11.0</ele><time>2026-04-07T14:16:32.554Z</time></trkpt><trkpt lat="45.4202974" lon="11.8595007"><ele>11.0</ele><time>2026-04-07T14:16:34.576Z</time></trkpt><trkpt lat="45.4204134" lon="11.8595833"><ele>11.0</ele><time>2026-04-07T14:16:36.548Z</time></trkpt><trkpt lat="45.4204224" lon="11.8594897"><ele>11.0</ele><time>2026-04-07T14:16:39.557Z</time></trkpt><trkpt lat="45.420282" lon="11.8594283"><ele>11.0</ele><time>2026-04-07T14:16:41.556Z</time></trkpt><trkpt lat="45.4201698" lon="11.8593832"><ele>11.0</ele><time>2026-04-07T14:16:42.559Z</time></trkpt><trkpt lat="45.4200422" lon="11.8593526"><ele>11.0</ele><time>2026-04-07T14:16:43.55Z</time></trkpt><trkpt lat="45.419904" lon="11.8593374"><ele>11.0</ele><time>2026-04-07T14:16:44.56Z</time></trkpt><trkpt lat="45.419773" lon="11.85938"><ele>10.666666666666666</ele><time>2026-04-07T14:16:45.556Z</time></trkpt><trkpt lat="45.4196484" lon="11.8594379"><ele>10.333333333333334</ele><time>2026-04-07T14:16:46.557Z</time></trkpt><trkpt lat="45.4195285" lon="11.8595466"><ele>10.0</ele><time>2026-04-07T14:16:47.566Z</time></trkpt><trkpt lat="45.419395" lon="11.8597556"><ele>10.0</ele><time>2026-04-07T14:16:48.554Z</time></trkpt><trkpt lat="45.4192298" lon="11.8600305"><ele>10.0</ele><time>2026-04-07T14:16:49.552Z</time></trkpt><trkpt lat="45.4190723" lon="11.8603236"><ele>10.0</ele><time>2026-04-07T14:16:50.558Z</time></trkpt><trkpt lat="45.4189216" lon="11.8606166"><ele>10.0</ele><time>2026-04-07T14:16:51.554Z</time></trkpt><trkpt lat="45.4187857" lon="11.8609117"><ele>10.333333333333334</ele><time>2026-04-07T14:16:52.559Z</time></trkpt><trkpt lat="45.4186426" lon="11.8611694"><ele>10.666666666666666</ele><time>2026-04-07T14:16:53.554Z</time></trkpt><trkpt lat="45.4185261" lon="11.8614182"><ele>11.0</ele><time>2026-04-07T14:16:54.551Z</time></trkpt><trkpt lat="45.4184066" lon="11.8615989"><ele>11.333333333333332</ele><time>2026-04-07T14:16:55.547Z</time></trkpt><trkpt lat="45.4182721" lon="11.8617844"><ele>11.666666666666666</ele><time>2026-04-07T14:16:56.543Z</time></trkpt><trkpt lat="45.4181559" lon="11.8619692"><ele>12.0</ele><time>2026-04-07T14:16:57.551Z</time></trkpt><trkpt lat="45.4180658" lon="11.862166"><ele>12.0</ele><time>2026-04-07T14:16:58.554Z</time></trkpt><trkpt lat="45.417979" lon="11.8624192"><ele>12.0</ele><time>2026-04-07T14:16:59.555Z</time></trkpt><trkpt lat="45.4179399" lon="11.8626048"><ele>12.0</ele><time>2026-04-07T14:17:00.554Z</time></trkpt><trkpt lat="45.4179323" lon="11.8627591"><ele>12.0</ele><time>2026-04-07T14:17:01.554Z</time></trkpt><trkpt lat="45.4178953" lon="11.8628845"><ele>12.0</ele><time>2026-04-07T14:17:02.553Z</time></trkpt><trkpt lat="45.4178533" lon="11.8630142"><ele>12.0</ele><time>2026-04-07T14:17:03.548Z</time></trkpt><trkpt lat="45.41783" lon="11.8631669"><ele>12.0</ele><time>2026-04-07T14:17:04.56Z</time></trkpt><trkpt lat="45.4177852" lon="11.8632807"><ele>12.0</ele><time>2026-04-07T14:17:05.55Z</time></trkpt><trkpt lat="45.4177427" lon="11.8633674"><ele>12.0</ele><time>2026-04-07T14:17:06.548Z</time></trkpt><trkpt lat="45.4176915" lon="11.863456"><ele>12.166666666666666</ele><time>2026-04-07T14:17:07.552Z</time></trkpt><trkpt lat="45.4176262" lon="11.8635169"><ele>12.333333333333332</ele><time>2026-04-07T14:17:08.555Z</time></trkpt><trkpt lat="45.4175774" lon="11.8635795"><ele>12.5</ele><time>2026-04-07T14:17:09.558Z</time></trkpt><trkpt lat="45.417545" lon="11.8637614"><ele>12.666666666666666</ele><time>2026-04-07T14:17:11.557Z</time></trkpt><trkpt lat="45.417534" lon="11.8638809"><ele>12.833333333333332</ele><time>2026-04-07T14:17:12.553Z</time></trkpt><trkpt lat="45.4175271" lon="11.8640022"><ele>13.0</ele><time>2026-04-07T14:17:13.553Z</time></trkpt><trkpt lat="45.4175026" lon="11.864088"><ele>13.0</ele><time>2026-04-07T14:17:14.549Z</time></trkpt><trkpt lat="45.4174063" lon="11.8641643"><ele>13.0</ele><time>2026-04-07T14:17:16.553Z</time></trkpt><trkpt lat="45.4173114" lon="11.8641824"><ele>13.0</ele><time>2026-04-07T14:17:18.549Z</time></trkpt><trkpt lat="45.4172461" lon="11.8641852"><ele>13.0</ele><time>2026-04-07T14:17:23.55Z</time></trkpt><trkpt lat="45.4171831" lon="11.8641023"><ele>13.0</ele><time>2026-04-07T14:17:26.549Z</time></trkpt><trkpt lat="45.41709" lon="11.8640487"><ele>12.75</ele><time>2026-04-07T14:17:28.56Z</time></trkpt><trkpt lat="45.417024" lon="11.8639496"><ele>12.5</ele><time>2026-04-07T14:17:29.55Z</time></trkpt><trkpt lat="45.4169636" lon="11.86382"><ele>12.25</ele><time>2026-04-07T14:17:30.56Z</time></trkpt><trkpt lat="45.4168963" lon="11.8636804"><ele>12.0</ele><time>2026-04-07T14:17:31.554Z</time></trkpt><trkpt lat="45.4168062" lon="11.8635513"><ele>12.0</ele><time>2026-04-07T14:17:32.554Z</time></trkpt><trkpt lat="45.416709" lon="11.8634383"><ele>12.0</ele><time>2026-04-07T14:17:33.557Z</time></trkpt><trkpt lat="45.4166013" lon="11.8633481"><ele>12.0</ele><time>2026-04-07T14:17:34.558Z</time></trkpt><trkpt lat="45.416486" lon="11.863303"><ele>12.0</ele><time>2026-04-07T14:17:35.551Z</time></trkpt><trkpt lat="45.416365" lon="11.863304"><ele>12.0</ele><time>2026-04-07T14:17:36.558Z</time></trkpt><trkpt lat="45.4162414" lon="11.8633435"><ele>12.0</ele><time>2026-04-07T14:17:37.556Z</time></trkpt><trkpt lat="45.4161184" lon="11.8634011"><ele>12.0</ele><time>2026-04-07T14:17:38.551Z</time></trkpt><trkpt lat="45.4159912" lon="11.8634956"><ele>12.0</ele><time>2026-04-07T14:17:39.554Z</time></trkpt><trkpt lat="45.4158731" lon="11.8636093"><ele>12.333333333333332</ele><time>2026-04-07T14:17:40.553Z</time></trkpt><trkpt lat="45.4157473" lon="11.8637432"><ele>12.666666666666666</ele><time>2026-04-07T14:17:41.552Z</time></trkpt><trkpt lat="45.4156192" lon="11.8638761"><ele>13.0</ele><time>2026-04-07T14:17:42.558Z</time></trkpt><trkpt lat="45.4154578" lon="11.8640612"><ele>12.5</ele><time>2026-04-07T14:17:43.548Z</time></trkpt><trkpt lat="45.4153249" lon="11.8641934"><ele>12.0</ele><time>2026-04-07T14:17:44.557Z</time></trkpt><trkpt lat="45.4151858" lon="11.8642533"><ele>11.5</ele><time>2026-04-07T14:17:45.555Z</time></trkpt><trkpt lat="45.4150619" lon="11.8642785"><ele>11.0</ele><time>2026-04-07T14:17:46.557Z</time></trkpt><trkpt lat="45.4149188" lon="11.8643899"><ele>11.0</ele><time>2026-04-07T14:17:47.554Z</time></trkpt><trkpt lat="45.4147778" lon="11.8644095"><ele>11.0</ele><time>2026-04-07T14:17:48.55Z</time></trkpt><trkpt lat="45.4146484" lon="11.8644006"><ele>11.0</ele><time>2026-04-07T14:17:49.548Z</time></trkpt><trkpt lat="45.414451" lon="11.8643482"><ele>10.666666666666666</ele><time>2026-04-07T14:17:50.56Z</time></trkpt><trkpt lat="45.4142931" lon="11.86435"><ele>10.333333333333334</ele><time>2026-04-07T14:17:51.553Z</time></trkpt><trkpt lat="45.414108" lon="11.864349"><ele>10.0</ele><time>2026-04-07T14:17:52.553Z</time></trkpt><trkpt lat="45.4139257" lon="11.8643206"><ele>10.333333333333334</ele><time>2026-04-07T14:17:53.552Z</time></trkpt><trkpt lat="45.4137486" lon="11.8642753"><ele>10.666666666666666</ele><time>2026-04-07T14:17:54.559Z</time></trkpt><trkpt lat="45.4135592" lon="11.8642372"><ele>11.0</ele><time>2026-04-07T14:17:55.549Z</time></trkpt><trkpt lat="45.413387" lon="11.8641513"><ele>11.0</ele><time>2026-04-07T14:17:56.552Z</time></trkpt><trkpt lat="45.4131898" lon="11.8641617"><ele>11.0</ele><time>2026-04-07T14:17:57.55Z</time></trkpt><trkpt lat="45.4130388" lon="11.8641737"><ele>11.0</ele><time>2026-04-07T14:17:58.566Z</time></trkpt><trkpt lat="45.4128906" lon="11.8641366"><ele>11.0</ele><time>2026-04-07T14:17:59.557Z</time></trkpt><trkpt lat="45.4127584" lon="11.8641978"><ele>11.0</ele><time>2026-04-07T14:18:00.553Z</time></trkpt><trkpt lat="45.4126425" lon="11.864196"><ele>11.0</ele><time>2026-04-07T14:18:01.551Z</time></trkpt><trkpt lat="45.4125534" lon="11.8641611"><ele>11.0</ele><time>2026-04-07T14:18:02.556Z</time></trkpt><trkpt lat="45.4124662" lon="11.8641447"><ele>11.0</ele><time>2026-04-07T14:18:03.577Z</time></trkpt><trkpt lat="45.4123787" lon="11.8641232"><ele>11.0</ele><time>2026-04-07T14:18:04.554Z</time></trkpt><trkpt lat="45.4122979" lon="11.8641289"><ele>11.0</ele><time>2026-04-07T14:18:05.557Z</time></trkpt><trkpt lat="45.4122033" lon="11.8641322"><ele>11.0</ele><time>2026-04-07T14:18:06.554Z</time></trkpt><trkpt lat="45.412123" lon="11.8641439"><ele>11.0</ele><time>2026-04-07T14:18:07.556Z</time></trkpt><trkpt lat="45.4120518" lon="11.8640695"><ele>11.0</ele><time>2026-04-07T14:18:09.554Z</time></trkpt><trkpt lat="45.411993" lon="11.864032"><ele>11.0</ele><time>2026-04-07T14:18:11.561Z</time></trkpt><trkpt lat="45.4119179" lon="11.8639648"><ele>11.4</ele><time>2026-04-07T14:18:13.554Z</time></trkpt><trkpt lat="45.4118423" lon="11.8639642"><ele>11.8</ele><time>2026-04-07T14:18:15.558Z</time></trkpt><trkpt lat="45.4117321" lon="11.8640173"><ele>12.200000000000001</ele><time>2026-04-07T14:18:17.559Z</time></trkpt><trkpt lat="45.411612" lon="11.8640492"><ele>12.600000000000001</ele><time>2026-04-07T14:18:19.552Z</time></trkpt><trkpt lat="45.4115234" lon="11.8640403"><ele>13.0</ele><time>2026-04-07T14:18:21.547Z</time></trkpt><trkpt lat="45.41138" lon="11.864011"><ele>13.0</ele><time>2026-04-07T14:18:23.56Z</time></trkpt><trkpt lat="45.411268" lon="11.8640053"><ele>13.0</ele><time>2026-04-07T14:18:24.555Z</time></trkpt><trkpt lat="45.4111387" lon="11.8639837"><ele>13.0</ele><time>2026-04-07T14:18:25.56Z</time></trkpt><trkpt lat="45.4110059" lon="11.8639713"><ele>13.0</ele><time>2026-04-07T14:18:26.574Z</time></trkpt><trkpt lat="45.4108361" lon="11.863977"><ele>13.0</ele><time>2026-04-07T14:18:27.559Z</time></trkpt><trkpt lat="45.4106362" lon="11.8639758"><ele>13.0</ele><time>2026-04-07T14:18:28.558Z</time></trkpt><trkpt lat="45.4104886" lon="11.8639781"><ele>13.0</ele><time>2026-04-07T14:18:29.553Z</time></trkpt><trkpt lat="45.4103335" lon="11.8639602"><ele>13.333333333333332</ele><time>2026-04-07T14:18:30.554Z</time></trkpt><trkpt lat="45.4101698" lon="11.8639008"><ele>13.666666666666668</ele><time>2026-04-07T14:18:31.548Z</time></trkpt><trkpt lat="45.4100305" lon="11.8638808"><ele>14.0</ele><time>2026-04-07T14:18:32.557Z</time></trkpt><trkpt lat="45.4098821" lon="11.8638644"><ele>14.0</ele><time>2026-04-07T14:18:33.563Z</time></trkpt><trkpt lat="45.4097278" lon="11.8638034"><ele>14.0</ele><time>2026-04-07T14:18:34.563Z</time></trkpt><trkpt lat="45.4095891" lon="11.8637605"><ele>14.0</ele><time>2026-04-07T14:18:35.552Z</time></trkpt><trkpt lat="45.409418" lon="11.863766"><ele>13.5</ele><time>2026-04-07T14:18:36.564Z</time></trkpt><trkpt lat="45.4092623" lon="11.8637421"><ele>13.0</ele><time>2026-04-07T14:18:37.556Z</time></trkpt><trkpt lat="45.4091321" lon="11.8637152"><ele>12.5</ele><time>2026-04-07T14:18:38.555Z</time></trkpt><trkpt lat="45.4089761" lon="11.8636841"><ele>12.0</ele><time>2026-04-07T14:18:39.559Z</time></trkpt><trkpt lat="45.4088192" lon="11.8636859"><ele>12.0</ele><time>2026-04-07T14:18:40.56Z</time></trkpt><trkpt lat="45.4086738" lon="11.8636661"><ele>12.0</ele><time>2026-04-07T14:18:41.56Z</time></trkpt><trkpt lat="45.4085297" lon="11.8636124"><ele>12.0</ele><time>2026-04-07T14:18:42.559Z</time></trkpt><trkpt lat="45.4083964" lon="11.8635826"><ele>12.0</ele><time>2026-04-07T14:18:43.555Z</time></trkpt><trkpt lat="45.408269" lon="11.8635634"><ele>12.0</ele><time>2026-04-07T14:18:44.568Z</time></trkpt><trkpt lat="45.4081452" lon="11.863535"><ele>12.0</ele><time>2026-04-07T14:18:45.561Z</time></trkpt><trkpt lat="45.4080373" lon="11.8635536"><ele>12.0</ele><time>2026-04-07T14:18:46.557Z</time></trkpt><trkpt lat="45.4079536" lon="11.863542"><ele>12.0</ele><time>2026-04-07T14:18:47.561Z</time></trkpt><trkpt lat="45.4078665" lon="11.8635117"><ele>12.0</ele><time>2026-04-07T14:18:48.562Z</time></trkpt><trkpt lat="45.4077687" lon="11.8634854"><ele>11.833333333333334</ele><time>2026-04-07T14:18:49.554Z</time></trkpt><trkpt lat="45.4077004" lon="11.8634649"><ele>11.666666666666666</ele><time>2026-04-07T14:18:50.57Z</time></trkpt><trkpt lat="45.4076179" lon="11.8634622"><ele>11.5</ele><time>2026-04-07T14:18:51.561Z</time></trkpt><trkpt lat="45.4075443" lon="11.8634576"><ele>11.333333333333332</ele><time>2026-04-07T14:18:52.558Z</time></trkpt><trkpt lat="45.4074649" lon="11.8634699"><ele>11.166666666666666</ele><time>2026-04-07T14:18:53.561Z</time></trkpt><trkpt lat="45.4073933" lon="11.8634647"><ele>11.0</ele><time>2026-04-07T14:18:54.562Z</time></trkpt><trkpt lat="45.4072847" lon="11.8634698"><ele>11.0</ele><time>2026-04-07T14:18:56.56Z</time></trkpt><trkpt lat="45.4071977" lon="11.8634915"><ele>11.0</ele><time>2026-04-07T14:18:58.557Z</time></trkpt><trkpt lat="45.4071191" lon="11.8635281"><ele>11.0</ele><time>2026-04-07T14:19:00.554Z</time></trkpt><trkpt lat="45.4070327" lon="11.8635494"><ele>11.0</ele><time>2026-04-07T14:19:01.549Z</time></trkpt><trkpt lat="45.4069415" lon="11.8635483"><ele>11.0</ele><time>2026-04-07T14:19:03.574Z</time></trkpt><trkpt lat="45.4068745" lon="11.863519"><ele>11.0</ele><time>2026-04-07T14:19:05.555Z</time></trkpt><trkpt lat="45.4067837" lon="11.8634772"><ele>11.5</ele><time>2026-04-07T14:19:12.56Z</time></trkpt><trkpt lat="45.4066637" lon="11.8634822"><ele>12.0</ele><time>2026-04-07T14:19:14.557Z</time></trkpt><trkpt lat="45.4065504" lon="11.8634893"><ele>12.5</ele><time>2026-04-07T14:19:15.561Z</time></trkpt><trkpt lat="45.4064147" lon="11.8635054"><ele>13.0</ele><time>2026-04-07T14:19:16.555Z</time></trkpt><trkpt lat="45.4062693" lon="11.8635184"><ele>13.25</ele><time>2026-04-07T14:19:17.572Z</time></trkpt><trkpt lat="45.406123" lon="11.8635255"><ele>13.5</ele><time>2026-04-07T14:19:18.559Z</time></trkpt><trkpt lat="45.4059901" lon="11.8635406"><ele>13.75</ele><time>2026-04-07T14:19:19.567Z</time></trkpt><trkpt lat="45.4058616" lon="11.863559"><ele>14.0</ele><time>2026-04-07T14:19:20.553Z</time></trkpt><trkpt lat="45.4057413" lon="11.8635712"><ele>14.0</ele><time>2026-04-07T14:19:21.564Z</time></trkpt><trkpt lat="45.405632" lon="11.8635841"><ele>13.999999999999998</ele><time>2026-04-07T14:19:22.558Z</time></trkpt><trkpt lat="45.4055316" lon="11.8635945"><ele>13.999999999999998</ele><time>2026-04-07T14:19:23.559Z</time></trkpt><trkpt lat="45.4054351" lon="11.8636008"><ele>14.0</ele><time>2026-04-07T14:19:24.56Z</time></trkpt><trkpt lat="45.4053523" lon="11.8636102"><ele>14.0</ele><time>2026-04-07T14:19:25.562Z</time></trkpt><trkpt lat="45.4052876" lon="11.8636179"><ele>13.666666666666668</ele><time>2026-04-07T14:19:26.552Z</time></trkpt><trkpt lat="45.4052234" lon="11.8636238"><ele>13.333333333333334</ele><time>2026-04-07T14:19:27.556Z</time></trkpt><trkpt lat="45.4051509" lon="11.8636038"><ele>13.0</ele><time>2026-04-07T14:19:28.559Z</time></trkpt><trkpt lat="45.4050792" lon="11.8635858"><ele>12.666666666666668</ele><time>2026-04-07T14:19:29.557Z</time></trkpt><trkpt lat="45.4049612" lon="11.8635903"><ele>12.333333333333334</ele><time>2026-04-07T14:19:31.557Z</time></trkpt><trkpt lat="45.4048809" lon="11.8635999"><ele>12.0</ele><time>2026-04-07T14:19:32.549Z</time></trkpt><trkpt lat="45.404794" lon="11.8635981"><ele>12.0</ele><time>2026-04-07T14:19:33.559Z</time></trkpt><trkpt lat="45.4046923" lon="11.8635637"><ele>12.0</ele><time>2026-04-07T14:19:34.552Z</time></trkpt><trkpt lat="45.40458" lon="11.8635139"><ele>12.0</ele><time>2026-04-07T14:19:35.58Z</time></trkpt><trkpt lat="45.4044834" lon="11.8634533"><ele>12.0</ele><time>2026-04-07T14:19:36.549Z</time></trkpt><trkpt lat="45.4043998" lon="11.8633711"><ele>12.0</ele><time>2026-04-07T14:19:37.577Z</time></trkpt><trkpt lat="45.404327" lon="11.8632658"><ele>12.2</ele><time>2026-04-07T14:19:38.545Z</time></trkpt><trkpt lat="45.4042477" lon="11.8631679"><ele>12.399999999999999</ele><time>2026-04-07T14:19:39.568Z</time></trkpt><trkpt lat="45.4041696" lon="11.8630971"><ele>12.600000000000001</ele><time>2026-04-07T14:19:40.536Z</time></trkpt><trkpt lat="45.4040592" lon="11.8630625"><ele>12.8</ele><time>2026-04-07T14:19:41.544Z</time></trkpt><trkpt lat="45.4039479" lon="11.8630336"><ele>13.0</ele><time>2026-04-07T14:19:42.542Z</time></trkpt><trkpt lat="45.4038723" lon="11.8629918"><ele>13.5</ele><time>2026-04-07T14:19:43.548Z</time></trkpt><trkpt lat="45.4038192" lon="11.8629416"><ele>14.0</ele><time>2026-04-07T14:19:44.549Z</time></trkpt><trkpt lat="45.4037494" lon="11.8628385"><ele>14.5</ele><time>2026-04-07T14:19:46.552Z</time></trkpt><trkpt lat="45.4035472" lon="11.8629259"><ele>15.0</ele><time>2026-04-07T14:19:49.553Z</time></trkpt><trkpt lat="45.4034499" lon="11.8629578"><ele>15.0</ele><time>2026-04-07T14:19:50.56Z</time></trkpt><trkpt lat="45.4033291" lon="11.8630091"><ele>15.0</ele><time>2026-04-07T14:19:51.552Z</time></trkpt><trkpt lat="45.403195" lon="11.8630691"><ele>15.0</ele><time>2026-04-07T14:19:52.553Z</time></trkpt><trkpt lat="45.4030495" lon="11.8631457"><ele>15.0</ele><time>2026-04-07T14:19:53.556Z</time></trkpt><trkpt lat="45.4028692" lon="11.8632343"><ele>15.0</ele><time>2026-04-07T14:19:54.556Z</time></trkpt><trkpt lat="45.4026962" lon="11.8633363"><ele>15.0</ele><time>2026-04-07T14:19:55.555Z</time></trkpt><trkpt lat="45.4025588" lon="11.8634653"><ele>15.0</ele><time>2026-04-07T14:19:56.554Z</time></trkpt><trkpt lat="45.4024281" lon="11.863562"><ele>14.8</ele><time>2026-04-07T14:19:57.552Z</time></trkpt><trkpt lat="45.4022926" lon="11.8636196"><ele>14.6</ele><time>2026-04-07T14:19:58.554Z</time></trkpt><trkpt lat="45.4021823" lon="11.863679"><ele>14.399999999999999</ele><time>2026-04-07T14:19:59.557Z</time></trkpt><trkpt lat="45.4020888" lon="11.863675"><ele>14.2</ele><time>2026-04-07T14:20:01.548Z</time></trkpt><trkpt lat="45.4019964" lon="11.8636813"><ele>14.0</ele><time>2026-04-07T14:20:03.555Z</time></trkpt><trkpt lat="45.4019055" lon="11.8636655"><ele>13.799999999999999</ele><time>2026-04-07T14:20:05.556Z</time></trkpt><trkpt lat="45.4018126" lon="11.86366"><ele>13.599999999999998</ele><time>2026-04-07T14:20:07.556Z</time></trkpt><trkpt lat="45.4017253" lon="11.8636647"><ele>13.4</ele><time>2026-04-07T14:20:09.556Z</time></trkpt><trkpt lat="45.4016412" lon="11.8636381"><ele>13.2</ele><time>2026-04-07T14:20:11.552Z</time></trkpt><trkpt lat="45.4015503" lon="11.8636141"><ele>13.0</ele><time>2026-04-07T14:20:12.553Z</time></trkpt><trkpt lat="45.4014224" lon="11.8636287"><ele>13.0</ele><time>2026-04-07T14:20:14.55Z</time></trkpt><trkpt lat="45.4013419" lon="11.8636456"><ele>13.0</ele><time>2026-04-07T14:20:15.554Z</time></trkpt><trkpt lat="45.401247" lon="11.8636453"><ele>13.0</ele><time>2026-04-07T14:20:16.554Z</time></trkpt><trkpt lat="45.4011216" lon="11.8636612"><ele>13.0</ele><time>2026-04-07T14:20:17.557Z</time></trkpt><trkpt lat="45.4010009" lon="11.8636731"><ele>13.0</ele><time>2026-04-07T14:20:18.553Z</time></trkpt><trkpt lat="45.4008971" lon="11.8636869"><ele>12.999999999999998</ele><time>2026-04-07T14:20:19.551Z</time></trkpt><trkpt lat="45.4008147" lon="11.8637028"><ele>13.0</ele><time>2026-04-07T14:20:20.559Z</time></trkpt><trkpt lat="45.400746" lon="11.8637074"><ele>13.0</ele><time>2026-04-07T14:20:21.556Z</time></trkpt><trkpt lat="45.4006783" lon="11.863702"><ele>13.0</ele><time>2026-04-07T14:20:22.545Z</time></trkpt><trkpt lat="45.4005782" lon="11.8637237"><ele>12.999999999999998</ele><time>2026-04-07T14:20:24.558Z</time></trkpt><trkpt lat="45.4005084" lon="11.8637832"><ele>13.0</ele><time>2026-04-07T14:20:26.555Z</time></trkpt><trkpt lat="45.4004205" lon="11.8637965"><ele>12.999999999999998</ele><time>2026-04-07T14:20:28.551Z</time></trkpt><trkpt lat="45.4003539" lon="11.8637891"><ele>13.0</ele><time>2026-04-07T14:20:29.557Z</time></trkpt><trkpt lat="45.4002367" lon="11.8638316"><ele>13.0</ele><time>2026-04-07T14:20:31.559Z</time></trkpt><trkpt lat="45.4001622" lon="11.8638385"><ele>13.0</ele><time>2026-04-07T14:20:32.557Z</time></trkpt><trkpt lat="45.400082" lon="11.8638323"><ele>12.999999999999998</ele><time>2026-04-07T14:20:33.559Z</time></trkpt><trkpt lat="45.3999785" lon="11.863825"><ele>13.0</ele><time>2026-04-07T14:20:34.556Z</time></trkpt><trkpt lat="45.3998354" lon="11.8637774"><ele>13.0</ele><time>2026-04-07T14:20:35.559Z</time></trkpt><trkpt lat="45.3996822" lon="11.8637465"><ele>13.0</ele><time>2026-04-07T14:20:36.549Z</time></trkpt><trkpt lat="45.399527" lon="11.8637255"><ele>13.0</ele><time>2026-04-07T14:20:37.549Z</time></trkpt><trkpt lat="45.3994141" lon="11.8637353"><ele>13.0</ele><time>2026-04-07T14:20:38.555Z</time></trkpt><trkpt lat="45.3993352" lon="11.8637515"><ele>13.166666666666666</ele><time>2026-04-07T14:20:39.554Z</time></trkpt><trkpt lat="45.3992713" lon="11.8637701"><ele>13.333333333333332</ele><time>2026-04-07T14:20:40.555Z</time></trkpt><trkpt lat="45.3991725" lon="11.8637753"><ele>13.5</ele><time>2026-04-07T14:20:42.554Z</time></trkpt><trkpt lat="45.3991066" lon="11.8637841"><ele>13.666666666666668</ele><time>2026-04-07T14:20:43.571Z</time></trkpt><trkpt lat="45.3990167" lon="11.8638688"><ele>13.833333333333334</ele><time>2026-04-07T14:20:45.555Z</time></trkpt><trkpt lat="45.398994" lon="11.8639546"><ele>14.0</ele><time>2026-04-07T14:20:46.553Z</time></trkpt><trkpt lat="45.3989877" lon="11.8640521"><ele>14.000000000000002</ele><time>2026-04-07T14:20:47.551Z</time></trkpt><trkpt lat="45.3990034" lon="11.8641493"><ele>14.0</ele><time>2026-04-07T14:20:48.571Z</time></trkpt><trkpt lat="45.3990008" lon="11.8642502"><ele>14.0</ele><time>2026-04-07T14:20:49.558Z</time></trkpt><trkpt lat="45.3989821" lon="11.86434"><ele>14.0</ele><time>2026-04-07T14:20:50.553Z</time></trkpt><trkpt lat="45.398933" lon="11.8645"><ele>14.000000000000002</ele><time>2026-04-07T14:20:52.555Z</time></trkpt><trkpt lat="45.3988635" lon="11.8645521"><ele>14.0</ele><time>2026-04-07T14:20:53.551Z</time></trkpt><trkpt lat="45.3987567" lon="11.8645647"><ele>14.25</ele><time>2026-04-07T14:20:54.546Z</time></trkpt><trkpt lat="45.3986347" lon="11.8645615"><ele>14.5</ele><time>2026-04-07T14:20:55.552Z</time></trkpt><trkpt lat="45.3984976" lon="11.8645464"><ele>14.75</ele><time>2026-04-07T14:20:56.553Z</time></trkpt><trkpt lat="45.3983621" lon="11.8645306"><ele>15.0</ele><time>2026-04-07T14:20:57.551Z</time></trkpt><trkpt lat="45.3982285" lon="11.8645277"><ele>15.0</ele><time>2026-04-07T14:20:58.549Z</time></trkpt><trkpt lat="45.3980822" lon="11.8645562"><ele>15.0</ele><time>2026-04-07T14:20:59.558Z</time></trkpt><trkpt lat="45.3979224" lon="11.864591"><ele>15.0</ele><time>2026-04-07T14:21:00.56Z</time></trkpt><trkpt lat="45.3977483" lon="11.8646313"><ele>15.0</ele><time>2026-04-07T14:21:01.557Z</time></trkpt><trkpt lat="45.3975714" lon="11.8646925"><ele>15.0</ele><time>2026-04-07T14:21:02.558Z</time></trkpt><trkpt lat="45.3973986" lon="11.8647396"><ele>15.0</ele><time>2026-04-07T14:21:03.555Z</time></trkpt><trkpt lat="45.3972439" lon="11.8647722"><ele>15.333333333333332</ele><time>2026-04-07T14:21:04.562Z</time></trkpt><trkpt lat="45.3970917" lon="11.8648299"><ele>15.666666666666666</ele><time>2026-04-07T14:21:05.561Z</time></trkpt><trkpt lat="45.3969446" lon="11.864876"><ele>16.0</ele><time>2026-04-07T14:21:06.552Z</time></trkpt><trkpt lat="45.396782" lon="11.8649121"><ele>16.0</ele><time>2026-04-07T14:21:07.567Z</time></trkpt><trkpt lat="45.3966103" lon="11.8649889"><ele>16.0</ele><time>2026-04-07T14:21:08.562Z</time></trkpt><trkpt lat="45.3964091" lon="11.865057"><ele>16.0</ele><time>2026-04-07T14:21:09.552Z</time></trkpt><trkpt lat="45.3962366" lon="11.8651118"><ele>15.333333333333332</ele><time>2026-04-07T14:21:10.561Z</time></trkpt><trkpt lat="45.3960637" lon="11.865156"><ele>14.666666666666668</ele><time>2026-04-07T14:21:11.556Z</time></trkpt><trkpt lat="45.3958894" lon="11.8651753"><ele>14.0</ele><time>2026-04-07T14:21:12.559Z</time></trkpt><trkpt lat="45.395745" lon="11.8652143"><ele>14.0</ele><time>2026-04-07T14:21:13.555Z</time></trkpt><trkpt lat="45.395574" lon="11.8652188"><ele>14.0</ele><time>2026-04-07T14:21:14.553Z</time></trkpt><trkpt lat="45.395453" lon="11.8652816"><ele>14.0</ele><time>2026-04-07T14:21:15.556Z</time></trkpt><trkpt lat="45.3953324" lon="11.865286"><ele>14.0</ele><time>2026-04-07T14:21:17.561Z</time></trkpt><trkpt lat="45.39519" lon="11.8653214"><ele>14.000000000000002</ele><time>2026-04-07T14:21:35.559Z</time></trkpt><trkpt lat="45.395108" lon="11.8653307"><ele>14.0</ele><time>2026-04-07T14:21:55.545Z</time></trkpt><trkpt lat="45.3950055" lon="11.865385"><ele>14.0</ele><time>2026-04-07T14:21:58.56Z</time></trkpt><trkpt lat="45.3949454" lon="11.8654146"><ele>14.0</ele><time>2026-04-07T14:21:59.551Z</time></trkpt><trkpt lat="45.3948764" lon="11.8654402"><ele>14.000000000000002</ele><time>2026-04-07T14:22:00.553Z</time></trkpt><trkpt lat="45.3947816" lon="11.8654711"><ele>14.0</ele><time>2026-04-07T14:22:01.563Z</time></trkpt><trkpt lat="45.3946887" lon="11.8655094"><ele>14.25</ele><time>2026-04-07T14:22:02.555Z</time></trkpt><trkpt lat="45.3945922" lon="11.8655541"><ele>14.5</ele><time>2026-04-07T14:22:03.559Z</time></trkpt><trkpt lat="45.3944698" lon="11.8656074"><ele>14.75</ele><time>2026-04-07T14:22:04.557Z</time></trkpt><trkpt lat="45.3943352" lon="11.8656663"><ele>15.0</ele><time>2026-04-07T14:22:05.55Z</time></trkpt><trkpt lat="45.3941833" lon="11.8657266"><ele>15.0</ele><time>2026-04-07T14:22:06.554Z</time></trkpt><trkpt lat="45.3939957" lon="11.8658084"><ele>15.0</ele><time>2026-04-07T14:22:07.559Z</time></trkpt><trkpt lat="45.3937867" lon="11.8658858"><ele>15.0</ele><time>2026-04-07T14:22:08.552Z</time></trkpt><trkpt lat="45.3935903" lon="11.8659408"><ele>15.333333333333332</ele><time>2026-04-07T14:22:09.559Z</time></trkpt><trkpt lat="45.3933477" lon="11.8660157"><ele>15.666666666666666</ele><time>2026-04-07T14:22:10.563Z</time></trkpt><trkpt lat="45.3931567" lon="11.8661056"><ele>16.0</ele><time>2026-04-07T14:22:11.558Z</time></trkpt><trkpt lat="45.3929801" lon="11.866178"><ele>16.0</ele><time>2026-04-07T14:22:12.565Z</time></trkpt><trkpt lat="45.3927884" lon="11.8662576"><ele>16.0</ele><time>2026-04-07T14:22:13.554Z</time></trkpt><trkpt lat="45.3926003" lon="11.8663088"><ele>16.0</ele><time>2026-04-07T14:22:14.563Z</time></trkpt><trkpt lat="45.3924264" lon="11.8663707"><ele>16.0</ele><time>2026-04-07T14:22:15.556Z</time></trkpt><trkpt lat="45.3922699" lon="11.8664601"><ele>16.0</ele><time>2026-04-07T14:22:16.558Z</time></trkpt><trkpt lat="45.3921382" lon="11.8665036"><ele>16.0</ele><time>2026-04-07T14:22:17.561Z</time></trkpt><trkpt lat="45.392034" lon="11.8665477"><ele>16.0</ele><time>2026-04-07T14:22:18.56Z</time></trkpt><trkpt lat="45.3919311" lon="11.8665923"><ele>16.0</ele><time>2026-04-07T14:22:19.566Z</time></trkpt><trkpt lat="45.3918409" lon="11.8666392"><ele>16.0</ele><time>2026-04-07T14:22:20.559Z</time></trkpt><trkpt lat="45.3917408" lon="11.8666866"><ele>16.0</ele><time>2026-04-07T14:22:21.551Z</time></trkpt><trkpt lat="45.3916434" lon="11.866715"><ele>16.0</ele><time>2026-04-07T14:22:22.561Z</time></trkpt><trkpt lat="45.3915454" lon="11.8667375"><ele>16.0</ele><time>2026-04-07T14:22:23.558Z</time></trkpt><trkpt lat="45.3914441" lon="11.8667654"><ele>15.333333333333332</ele><time>2026-04-07T14:22:24.558Z</time></trkpt><trkpt lat="45.3912733" lon="11.866771"><ele>14.666666666666668</ele><time>2026-04-07T14:22:25.561Z</time></trkpt><trkpt lat="45.391129" lon="11.866765"><ele>14.0</ele><time>2026-04-07T14:22:26.556Z</time></trkpt><trkpt lat="45.390994" lon="11.8667789"><ele>14.0</ele><time>2026-04-07T14:22:27.561Z</time></trkpt><trkpt lat="45.3908884" lon="11.8668037"><ele>13.999999999999998</ele><time>2026-04-07T14:22:28.557Z</time></trkpt><trkpt lat="45.3907756" lon="11.8668379"><ele>13.999999999999998</ele><time>2026-04-07T14:22:29.572Z</time></trkpt><trkpt lat="45.3906676" lon="11.866866"><ele>14.0</ele><time>2026-04-07T14:22:30.559Z</time></trkpt><trkpt lat="45.3905739" lon="11.8668916"><ele>14.0</ele><time>2026-04-07T14:22:31.563Z</time></trkpt><trkpt lat="45.3904738" lon="11.8669185"><ele>14.0</ele><time>2026-04-07T14:22:32.555Z</time></trkpt><trkpt lat="45.3903779" lon="11.8669475"><ele>13.999999999999998</ele><time>2026-04-07T14:22:33.56Z</time></trkpt><trkpt lat="45.3902871" lon="11.8669887"><ele>13.999999999999998</ele><time>2026-04-07T14:22:34.561Z</time></trkpt><trkpt lat="45.3901668" lon="11.867009"><ele>14.0</ele><time>2026-04-07T14:22:35.56Z</time></trkpt><trkpt lat="45.3900479" lon="11.8670267"><ele>14.0</ele><time>2026-04-07T14:22:36.553Z</time></trkpt><trkpt lat="45.3899134" lon="11.8670539"><ele>14.0</ele><time>2026-04-07T14:22:37.553Z</time></trkpt><trkpt lat="45.3897584" lon="11.8670796"><ele>14.0</ele><time>2026-04-07T14:22:38.564Z</time></trkpt><trkpt lat="45.3896244" lon="11.867094"><ele>14.0</ele><time>2026-04-07T14:22:39.563Z</time></trkpt><trkpt lat="45.3894855" lon="11.8671019"><ele>14.0</ele><time>2026-04-07T14:22:40.553Z</time></trkpt><trkpt lat="45.3893495" lon="11.8671597"><ele>14.0</ele><time>2026-04-07T14:22:41.562Z</time></trkpt><trkpt lat="45.3892258" lon="11.8671694"><ele>14.0</ele><time>2026-04-07T14:22:42.551Z</time></trkpt><trkpt lat="45.3890637" lon="11.8671712"><ele>14.0</ele><time>2026-04-07T14:22:43.559Z</time></trkpt><trkpt lat="45.3889413" lon="11.8671968"><ele>14.0</ele><time>2026-04-07T14:22:44.562Z</time></trkpt><trkpt lat="45.3888386" lon="11.8671534"><ele>13.75</ele><time>2026-04-07T14:22:45.556Z</time></trkpt><trkpt lat="45.3887137" lon="11.8671812"><ele>13.5</ele><time>2026-04-07T14:22:46.585Z</time></trkpt><trkpt lat="45.3885804" lon="11.8671607"><ele>13.25</ele><time>2026-04-07T14:22:47.561Z</time></trkpt><trkpt lat="45.388459" lon="11.8671254"><ele>13.0</ele><time>2026-04-07T14:22:48.559Z</time></trkpt><trkpt lat="45.3883325" lon="11.8670873"><ele>13.0</ele><time>2026-04-07T14:22:49.559Z</time></trkpt><trkpt lat="45.3882369" lon="11.8670375"><ele>13.0</ele><time>2026-04-07T14:22:50.561Z</time></trkpt><trkpt lat="45.3881514" lon="11.8669852"><ele>13.0</ele><time>2026-04-07T14:22:51.551Z</time></trkpt><trkpt lat="45.3881004" lon="11.8669238"><ele>13.0</ele><time>2026-04-07T14:22:52.554Z</time></trkpt><trkpt lat="45.3880119" lon="11.8668574"><ele>13.0</ele><time>2026-04-07T14:22:53.558Z</time></trkpt><trkpt lat="45.3879105" lon="11.8667821"><ele>12.8</ele><time>2026-04-07T14:22:54.557Z</time></trkpt><trkpt lat="45.3878164" lon="11.8667079"><ele>12.600000000000001</ele><time>2026-04-07T14:22:55.544Z</time></trkpt><trkpt lat="45.3877322" lon="11.8666051"><ele>12.399999999999999</ele><time>2026-04-07T14:22:56.559Z</time></trkpt><trkpt lat="45.3876598" lon="11.8665197"><ele>12.2</ele><time>2026-04-07T14:22:57.556Z</time></trkpt><trkpt lat="45.3875948" lon="11.8664411"><ele>12.0</ele><time>2026-04-07T14:22:58.56Z</time></trkpt><trkpt lat="45.3875716" lon="11.8663385"><ele>12.0</ele><time>2026-04-07T14:22:59.562Z</time></trkpt><trkpt lat="45.3875242" lon="11.8661927"><ele>12.0</ele><time>2026-04-07T14:23:01.559Z</time></trkpt><trkpt lat="45.3874361" lon="11.8660979"><ele>12.0</ele><time>2026-04-07T14:23:03.563Z</time></trkpt><trkpt lat="45.3873782" lon="11.8659941"><ele>12.0</ele><time>2026-04-07T14:23:05.565Z</time></trkpt><trkpt lat="45.3873269" lon="11.8659199"><ele>12.0</ele><time>2026-04-07T14:23:07.554Z</time></trkpt><trkpt lat="45.3872932" lon="11.8658053"><ele>12.0</ele><time>2026-04-07T14:23:11.561Z</time></trkpt><trkpt lat="45.3872264" lon="11.8656933"><ele>12.0</ele><time>2026-04-07T14:23:13.547Z</time></trkpt><trkpt lat="45.3871798" lon="11.8655977"><ele>12.0</ele><time>2026-04-07T14:23:14.55Z</time></trkpt><trkpt lat="45.3871221" lon="11.8654896"><ele>12.0</ele><time>2026-04-07T14:23:15.548Z</time></trkpt><trkpt lat="45.3870494" lon="11.8653131"><ele>12.0</ele><time>2026-04-07T14:23:16.558Z</time></trkpt><trkpt lat="45.3869596" lon="11.8650946"><ele>12.0</ele><time>2026-04-07T14:23:17.575Z</time></trkpt><trkpt lat="45.3868812" lon="11.8648529"><ele>12.0</ele><time>2026-04-07T14:23:18.556Z</time></trkpt><trkpt lat="45.3868242" lon="11.8646027"><ele>12.0</ele><time>2026-04-07T14:23:19.555Z</time></trkpt><trkpt lat="45.3867661" lon="11.8643887"><ele>12.25</ele><time>2026-04-07T14:23:20.562Z</time></trkpt><trkpt lat="45.3867209" lon="11.8642315"><ele>12.5</ele><time>2026-04-07T14:23:21.554Z</time></trkpt><trkpt lat="45.3866527" lon="11.8640428"><ele>12.75</ele><time>2026-04-07T14:23:22.584Z</time></trkpt><trkpt lat="45.3865928" lon="11.8639068"><ele>13.0</ele><time>2026-04-07T14:23:23.551Z</time></trkpt><trkpt lat="45.3865521" lon="11.8637786"><ele>12.999999999999998</ele><time>2026-04-07T14:23:24.557Z</time></trkpt><trkpt lat="45.3864961" lon="11.8636747"><ele>13.0</ele><time>2026-04-07T14:23:25.55Z</time></trkpt><trkpt lat="45.3864432" lon="11.8635964"><ele>13.0</ele><time>2026-04-07T14:23:26.557Z</time></trkpt><trkpt lat="45.3863888" lon="11.8634796"><ele>13.0</ele><time>2026-04-07T14:23:27.557Z</time></trkpt><trkpt lat="45.3863429" lon="11.8633628"><ele>12.999999999999998</ele><time>2026-04-07T14:23:28.562Z</time></trkpt><trkpt lat="45.3862908" lon="11.8632728"><ele>13.0</ele><time>2026-04-07T14:23:29.581Z</time></trkpt><trkpt lat="45.386173" lon="11.8631894"><ele>12.833333333333332</ele><time>2026-04-07T14:23:31.567Z</time></trkpt><trkpt lat="45.3860426" lon="11.8631966"><ele>12.666666666666666</ele><time>2026-04-07T14:23:33.556Z</time></trkpt><trkpt lat="45.3859613" lon="11.8632262"><ele>12.5</ele><time>2026-04-07T14:23:34.555Z</time></trkpt><trkpt lat="45.3858893" lon="11.8632566"><ele>12.333333333333332</ele><time>2026-04-07T14:23:35.548Z</time></trkpt><trkpt lat="45.3858276" lon="11.8632878"><ele>12.166666666666666</ele><time>2026-04-07T14:23:36.559Z</time></trkpt><trkpt lat="45.385741" lon="11.8633392"><ele>12.0</ele><time>2026-04-07T14:23:38.552Z</time></trkpt><trkpt lat="45.3856792" lon="11.8633696"><ele>12.0</ele><time>2026-04-07T14:24:05.555Z</time></trkpt><trkpt lat="45.3856151" lon="11.8633988"><ele>12.0</ele><time>2026-04-07T14:24:16.552Z</time></trkpt><trkpt lat="45.3855626" lon="11.8634896"><ele>12.0</ele><time>2026-04-07T14:24:37.556Z</time></trkpt><trkpt lat="45.385457" lon="11.8635117"><ele>12.0</ele><time>2026-04-07T14:24:40.557Z</time></trkpt><trkpt lat="45.385374" lon="11.86352"><ele>12.0</ele><time>2026-04-07T14:24:41.553Z</time></trkpt><trkpt lat="45.3852714" lon="11.8635319"><ele>12.0</ele><time>2026-04-07T14:24:42.551Z</time></trkpt><trkpt lat="45.3851544" lon="11.863543"><ele>12.0</ele><time>2026-04-07T14:24:43.582Z</time></trkpt><trkpt lat="45.3850312" lon="11.8635234"><ele>12.0</ele><time>2026-04-07T14:24:44.559Z</time></trkpt><trkpt lat="45.3849343" lon="11.8634573"><ele>12.0</ele><time>2026-04-07T14:24:45.554Z</time></trkpt><trkpt lat="45.3848546" lon="11.8633544"><ele>12.0</ele><time>2026-04-07T14:24:46.558Z</time></trkpt><trkpt lat="45.384756" lon="11.8632063"><ele>11.666666666666666</ele><time>2026-04-07T14:24:47.559Z</time></trkpt><trkpt lat="45.3846716" lon="11.8630455"><ele>11.333333333333332</ele><time>2026-04-07T14:24:48.552Z</time></trkpt><trkpt lat="45.3845653" lon="11.8628931"><ele>11.0</ele><time>2026-04-07T14:24:49.553Z</time></trkpt><trkpt lat="45.384461" lon="11.8627086"><ele>11.333333333333332</ele><time>2026-04-07T14:24:50.546Z</time></trkpt><trkpt lat="45.3843634" lon="11.8625063"><ele>11.666666666666666</ele><time>2026-04-07T14:24:51.559Z</time></trkpt><trkpt lat="45.3842308" lon="11.8623269"><ele>12.0</ele><time>2026-04-07T14:24:52.563Z</time></trkpt><trkpt lat="45.3841131" lon="11.8621999"><ele>12.0</ele><time>2026-04-07T14:24:53.554Z</time></trkpt><trkpt lat="45.3839818" lon="11.8620888"><ele>12.0</ele><time>2026-04-07T14:24:54.557Z</time></trkpt><trkpt lat="45.3839053" lon="11.861967"><ele>12.0</ele><time>2026-04-07T14:24:55.552Z</time></trkpt><trkpt lat="45.383779" lon="11.861909"><ele>12.0</ele><time>2026-04-07T14:24:56.552Z</time></trkpt><trkpt lat="45.3837062" lon="11.8617818"><ele>11.6</ele><time>2026-04-07T14:24:57.55Z</time></trkpt><trkpt lat="45.3836557" lon="11.8616213"><ele>11.2</ele><time>2026-04-07T14:24:58.556Z</time></trkpt><trkpt lat="45.3836159" lon="11.8615054"><ele>10.8</ele><time>2026-04-07T14:24:59.548Z</time></trkpt><trkpt lat="45.383573" lon="11.8614251"><ele>10.4</ele><time>2026-04-07T14:25:00.557Z</time></trkpt><trkpt lat="45.3835289" lon="11.8612963"><ele>10.0</ele><time>2026-04-07T14:25:01.556Z</time></trkpt><trkpt lat="45.3834851" lon="11.8611406"><ele>10.0</ele><time>2026-04-07T14:25:02.564Z</time></trkpt><trkpt lat="45.3834446" lon="11.8609952"><ele>10.0</ele><time>2026-04-07T14:25:03.555Z</time></trkpt><trkpt lat="45.38341" lon="11.8608661"><ele>10.0</ele><time>2026-04-07T14:25:04.555Z</time></trkpt><trkpt lat="45.3833693" lon="11.8607755"><ele>10.0</ele><time>2026-04-07T14:25:05.55Z</time></trkpt><trkpt lat="45.383269" lon="11.8607181"><ele>10.0</ele><time>2026-04-07T14:25:07.556Z</time></trkpt><trkpt lat="45.3832353" lon="11.8608494"><ele>10.0</ele><time>2026-04-07T14:25:09.577Z</time></trkpt><trkpt lat="45.3833409" lon="11.8609652"><ele>10.0</ele><time>2026-04-07T14:25:11.577Z</time></trkpt><trkpt lat="45.3834168" lon="11.8610098"><ele>10.0</ele><time>2026-04-07T14:25:12.55Z</time></trkpt><trkpt lat="45.3834974" lon="11.8610926"><ele>10.0</ele><time>2026-04-07T14:25:13.553Z</time></trkpt><trkpt lat="45.3835772" lon="11.8612248"><ele>10.0</ele><time>2026-04-07T14:25:14.553Z</time></trkpt><trkpt lat="45.3836668" lon="11.8613718"><ele>10.0</ele><time>2026-04-07T14:25:15.556Z</time></trkpt><trkpt lat="45.3837468" lon="11.8615216"><ele>10.0</ele><time>2026-04-07T14:25:16.553Z</time></trkpt><trkpt lat="45.3838282" lon="11.8616552"><ele>10.0</ele><time>2026-04-07T14:25:17.554Z</time></trkpt><trkpt lat="45.3839166" lon="11.8617766"><ele>10.0</ele><time>2026-04-07T14:25:18.555Z</time></trkpt><trkpt lat="45.3839942" lon="11.8619037"><ele>10.5</ele><time>2026-04-07T14:25:19.557Z</time></trkpt><trkpt lat="45.3840723" lon="11.8620436"><ele>11.0</ele><time>2026-04-07T14:25:20.551Z</time></trkpt><trkpt lat="45.3841637" lon="11.8621913"><ele>11.5</ele><time>2026-04-07T14:25:21.563Z</time></trkpt><trkpt lat="45.3842512" lon="11.862311"><ele>12.0</ele><time>2026-04-07T14:25:22.557Z</time></trkpt><trkpt lat="45.3843246" lon="11.8624234"><ele>12.0</ele><time>2026-04-07T14:25:23.563Z</time></trkpt><trkpt lat="45.3843933" lon="11.8625312"><ele>12.0</ele><time>2026-04-07T14:25:24.555Z</time></trkpt><trkpt lat="45.3844619" lon="11.8626322"><ele>12.0</ele><time>2026-04-07T14:25:25.554Z</time></trkpt><trkpt lat="45.3845181" lon="11.8627199"><ele>12.0</ele><time>2026-04-07T14:25:26.555Z</time></trkpt><trkpt lat="45.3845513" lon="11.8628086"><ele>12.0</ele><time>2026-04-07T14:25:27.556Z</time></trkpt><trkpt lat="45.3845737" lon="11.8628968"><ele>12.0</ele><time>2026-04-07T14:25:28.558Z</time></trkpt><trkpt lat="45.3845747" lon="11.8630108"><ele>12.0</ele><time>2026-04-07T14:25:31.55Z</time></trkpt><trkpt lat="45.3846149" lon="11.8630876"><ele>12.0</ele><time>2026-04-07T14:25:53.56Z</time></trkpt><trkpt lat="45.3846534" lon="11.8631734"><ele>12.0</ele><time>2026-04-07T14:25:56.556Z</time></trkpt><trkpt lat="45.3846725" lon="11.8633068"><ele>12.0</ele><time>2026-04-07T14:25:58.56Z</time></trkpt><trkpt lat="45.3846328" lon="11.8634172"><ele>12.0</ele><time>2026-04-07T14:26:00.564Z</time></trkpt><trkpt lat="45.3845594" lon="11.8634517"><ele>12.0</ele><time>2026-04-07T14:26:01.57Z</time></trkpt><trkpt lat="45.3844804" lon="11.8634824"><ele>12.0</ele><time>2026-04-07T14:26:02.57Z</time></trkpt><trkpt lat="45.3843672" lon="11.8635037"><ele>12.0</ele><time>2026-04-07T14:26:03.566Z</time></trkpt><trkpt lat="45.3842396" lon="11.8635581"><ele>12.0</ele><time>2026-04-07T14:26:04.572Z</time></trkpt><trkpt lat="45.3841075" lon="11.8636246"><ele>12.0</ele><time>2026-04-07T14:26:05.564Z</time></trkpt><trkpt lat="45.3839725" lon="11.8636877"><ele>11.666666666666666</ele><time>2026-04-07T14:26:06.563Z</time></trkpt><trkpt lat="45.3838311" lon="11.8637463"><ele>11.333333333333332</ele><time>2026-04-07T14:26:07.565Z</time></trkpt><trkpt lat="45.3836734" lon="11.8637922"><ele>11.0</ele><time>2026-04-07T14:26:08.561Z</time></trkpt><trkpt lat="45.3834715" lon="11.8638353"><ele>11.0</ele><time>2026-04-07T14:26:09.563Z</time></trkpt><trkpt lat="45.3832777" lon="11.8638901"><ele>11.0</ele><time>2026-04-07T14:26:10.565Z</time></trkpt><trkpt lat="45.3830911" lon="11.8639248"><ele>11.0</ele><time>2026-04-07T14:26:11.568Z</time></trkpt><trkpt lat="45.382894" lon="11.863933"><ele>10.666666666666666</ele><time>2026-04-07T14:26:12.561Z</time></trkpt><trkpt lat="45.3827126" lon="11.8639975"><ele>10.333333333333334</ele><time>2026-04-07T14:26:13.561Z</time></trkpt><trkpt lat="45.3825319" lon="11.8640397"><ele>10.0</ele><time>2026-04-07T14:26:14.556Z</time></trkpt><trkpt lat="45.3823675" lon="11.864114"><ele>10.0</ele><time>2026-04-07T14:26:15.559Z</time></trkpt><trkpt lat="45.3822326" lon="11.8641773"><ele>10.0</ele><time>2026-04-07T14:26:16.556Z</time></trkpt><trkpt lat="45.3820897" lon="11.8642534"><ele>10.0</ele><time>2026-04-07T14:26:17.561Z</time></trkpt><trkpt lat="45.381944" lon="11.8643067"><ele>10.0</ele><time>2026-04-07T14:26:18.559Z</time></trkpt><trkpt lat="45.381814" lon="11.8643612"><ele>10.2</ele><time>2026-04-07T14:26:19.558Z</time></trkpt><trkpt lat="45.3816836" lon="11.8643963"><ele>10.4</ele><time>2026-04-07T14:26:20.556Z</time></trkpt><trkpt lat="45.3815635" lon="11.8644212"><ele>10.600000000000001</ele><time>2026-04-07T14:26:21.562Z</time></trkpt><trkpt lat="45.3814649" lon="11.8644134"><ele>10.8</ele><time>2026-04-07T14:26:22.562Z</time></trkpt><trkpt lat="45.3813747" lon="11.8644018"><ele>11.0</ele><time>2026-04-07T14:26:23.562Z</time></trkpt><trkpt lat="45.3812618" lon="11.8644323"><ele>11.0</ele><time>2026-04-07T14:26:24.567Z</time></trkpt><trkpt lat="45.381186" lon="11.8644785"><ele>11.0</ele><time>2026-04-07T14:26:25.555Z</time></trkpt><trkpt lat="45.381107" lon="11.8645407"><ele>11.0</ele><time>2026-04-07T14:26:26.557Z</time></trkpt><trkpt lat="45.3810196" lon="11.864622"><ele>11.0</ele><time>2026-04-07T14:26:27.558Z</time></trkpt><trkpt lat="45.3809173" lon="11.8646867"><ele>11.0</ele><time>2026-04-07T14:26:28.559Z</time></trkpt><trkpt lat="45.3808004" lon="11.8647412"><ele>11.0</ele><time>2026-04-07T14:26:29.554Z</time></trkpt><trkpt lat="45.3806759" lon="11.8647762"><ele>11.0</ele><time>2026-04-07T14:26:30.566Z</time></trkpt><trkpt lat="45.380518" lon="11.8648217"><ele>11.0</ele><time>2026-04-07T14:26:31.563Z</time></trkpt><trkpt lat="45.3803017" lon="11.8649144"><ele>11.333333333333332</ele><time>2026-04-07T14:26:32.564Z</time></trkpt><trkpt lat="45.3800969" lon="11.8650032"><ele>11.666666666666666</ele><time>2026-04-07T14:26:33.567Z</time></trkpt><trkpt lat="45.3799409" lon="11.8650544"><ele>12.0</ele><time>2026-04-07T14:26:34.567Z</time></trkpt><trkpt lat="45.3798112" lon="11.8651101"><ele>12.0</ele><time>2026-04-07T14:26:35.564Z</time></trkpt><trkpt lat="45.3796978" lon="11.8651556"><ele>12.0</ele><time>2026-04-07T14:26:36.569Z</time></trkpt><trkpt lat="45.3795881" lon="11.8651892"><ele>12.0</ele><time>2026-04-07T14:26:37.562Z</time></trkpt><trkpt lat="45.3794977" lon="11.8652187"><ele>12.0</ele><time>2026-04-07T14:26:38.562Z</time></trkpt><trkpt lat="45.3794042" lon="11.8652496"><ele>12.0</ele><time>2026-04-07T14:26:39.563Z</time></trkpt><trkpt lat="45.3793029" lon="11.8652907"><ele>11.833333333333334</ele><time>2026-04-07T14:26:40.563Z</time></trkpt><trkpt lat="45.3792165" lon="11.8653213"><ele>11.666666666666666</ele><time>2026-04-07T14:26:41.555Z</time></trkpt><trkpt lat="45.3791372" lon="11.8653392"><ele>11.5</ele><time>2026-04-07T14:26:42.563Z</time></trkpt><trkpt lat="45.3790711" lon="11.8653382"><ele>11.333333333333332</ele><time>2026-04-07T14:26:43.561Z</time></trkpt><trkpt lat="45.3790013" lon="11.8653697"><ele>11.166666666666666</ele><time>2026-04-07T14:26:44.564Z</time></trkpt><trkpt lat="45.3789049" lon="11.8654279"><ele>11.0</ele><time>2026-04-07T14:26:45.561Z</time></trkpt><trkpt lat="45.3787799" lon="11.8654928"><ele>10.333333333333332</ele><time>2026-04-07T14:26:46.563Z</time></trkpt><trkpt lat="45.3786364" lon="11.8655523"><ele>9.666666666666666</ele><time>2026-04-07T14:26:47.571Z</time></trkpt><trkpt lat="45.3784703" lon="11.865626"><ele>9.0</ele><time>2026-04-07T14:26:48.566Z</time></trkpt><trkpt lat="45.3782587" lon="11.8657001"><ele>9.0</ele><time>2026-04-07T14:26:49.571Z</time></trkpt><trkpt lat="45.3780719" lon="11.8657589"><ele>9.0</ele><time>2026-04-07T14:26:50.571Z</time></trkpt><trkpt lat="45.3778867" lon="11.8658188"><ele>9.0</ele><time>2026-04-07T14:26:51.573Z</time></trkpt><trkpt lat="45.377711" lon="11.8658554"><ele>9.0</ele><time>2026-04-07T14:26:52.559Z</time></trkpt><trkpt lat="45.3775466" lon="11.8659216"><ele>9.0</ele><time>2026-04-07T14:26:53.567Z</time></trkpt><trkpt lat="45.3774283" lon="11.8659806"><ele>9.0</ele><time>2026-04-07T14:26:54.559Z</time></trkpt><trkpt lat="45.3773124" lon="11.8660364"><ele>9.0</ele><time>2026-04-07T14:26:55.564Z</time></trkpt><trkpt lat="45.3772069" lon="11.8660999"><ele>9.5</ele><time>2026-04-07T14:26:56.565Z</time></trkpt><trkpt lat="45.3770612" lon="11.8661438"><ele>10.0</ele><time>2026-04-07T14:26:57.565Z</time></trkpt><trkpt lat="45.376933" lon="11.866169"><ele>10.5</ele><time>2026-04-07T14:26:58.566Z</time></trkpt><trkpt lat="45.3768129" lon="11.8661884"><ele>11.0</ele><time>2026-04-07T14:26:59.56Z</time></trkpt><trkpt lat="45.3767152" lon="11.8662151"><ele>11.0</ele><time>2026-04-07T14:27:00.559Z</time></trkpt><trkpt lat="45.3766214" lon="11.8662544"><ele>11.0</ele><time>2026-04-07T14:27:01.566Z</time></trkpt><trkpt lat="45.376546" lon="11.8663136"><ele>11.0</ele><time>2026-04-07T14:27:02.567Z</time></trkpt><trkpt lat="45.3764485" lon="11.8663646"><ele>11.0</ele><time>2026-04-07T14:27:03.564Z</time></trkpt><trkpt lat="45.3763452" lon="11.8664212"><ele>11.0</ele><time>2026-04-07T14:27:04.562Z</time></trkpt><trkpt lat="45.3762221" lon="11.8664868"><ele>10.75</ele><time>2026-04-07T14:27:05.57Z</time></trkpt><trkpt lat="45.3760943" lon="11.86655"><ele>10.5</ele><time>2026-04-07T14:27:06.568Z</time></trkpt><trkpt lat="45.3759558" lon="11.8666211"><ele>10.25</ele><time>2026-04-07T14:27:07.572Z</time></trkpt><trkpt lat="45.3758023" lon="11.8666929"><ele>10.0</ele><time>2026-04-07T14:27:08.562Z</time></trkpt><trkpt lat="45.3756263" lon="11.8666882"><ele>10.0</ele><time>2026-04-07T14:27:09.568Z</time></trkpt><trkpt lat="45.3754615" lon="11.8667389"><ele>10.0</ele><time>2026-04-07T14:27:10.565Z</time></trkpt><trkpt lat="45.3753602" lon="11.8667764"><ele>10.0</ele><time>2026-04-07T14:27:11.563Z</time></trkpt><trkpt lat="45.3752584" lon="11.8667885"><ele>10.0</ele><time>2026-04-07T14:27:12.559Z</time></trkpt><trkpt lat="45.3751573" lon="11.8668326"><ele>10.0</ele><time>2026-04-07T14:27:13.56Z</time></trkpt><trkpt lat="45.375013" lon="11.8668747"><ele>10.0</ele><time>2026-04-07T14:27:15.56Z</time></trkpt><trkpt lat="45.3749394" lon="11.8669097"><ele>10.0</ele><time>2026-04-07T14:27:16.561Z</time></trkpt><trkpt lat="45.3748379" lon="11.8669906"><ele>10.0</ele><time>2026-04-07T14:27:18.558Z</time></trkpt><trkpt lat="45.374732" lon="11.8670211"><ele>10.0</ele><time>2026-04-07T14:27:20.569Z</time></trkpt><trkpt lat="45.3746171" lon="11.8670694"><ele>10.0</ele><time>2026-04-07T14:27:22.56Z</time></trkpt><trkpt lat="45.3745544" lon="11.8670863"><ele>10.0</ele><time>2026-04-07T14:27:23.565Z</time></trkpt><trkpt lat="45.374439" lon="11.8671192"><ele>10.0</ele><time>2026-04-07T14:27:25.563Z</time></trkpt><trkpt lat="45.374324" lon="11.8670888"><ele>10.0</ele><time>2026-04-07T14:27:27.572Z</time></trkpt><trkpt lat="45.3742621" lon="11.8670561"><ele>10.0</ele><time>2026-04-07T14:27:28.574Z</time></trkpt><trkpt lat="45.3741626" lon="11.867027"><ele>10.0</ele><time>2026-04-07T14:27:30.566Z</time></trkpt><trkpt lat="45.3740489" lon="11.8670554"><ele>10.0</ele><time>2026-04-07T14:27:32.565Z</time></trkpt><trkpt lat="45.37398" lon="11.8670864"><ele>10.0</ele><time>2026-04-07T14:27:33.572Z</time></trkpt><trkpt lat="45.3738968" lon="11.8671128"><ele>10.0</ele><time>2026-04-07T14:27:34.567Z</time></trkpt><trkpt lat="45.3738083" lon="11.8671174"><ele>10.0</ele><time>2026-04-07T14:27:35.568Z</time></trkpt><trkpt lat="45.3736899" lon="11.8671527"><ele>10.0</ele><time>2026-04-07T14:27:36.567Z</time></trkpt><trkpt lat="45.3735564" lon="11.8671951"><ele>10.0</ele><time>2026-04-07T14:27:37.57Z</time></trkpt><trkpt lat="45.3733991" lon="11.8672401"><ele>10.0</ele><time>2026-04-07T14:27:38.564Z</time></trkpt><trkpt lat="45.3732468" lon="11.8673014"><ele>10.0</ele><time>2026-04-07T14:27:39.563Z</time></trkpt><trkpt lat="45.373072" lon="11.8674157"><ele>10.0</ele><time>2026-04-07T14:27:40.562Z</time></trkpt><trkpt lat="45.3729089" lon="11.8675306"><ele>10.0</ele><time>2026-04-07T14:27:41.57Z</time></trkpt><trkpt lat="45.3727722" lon="11.8676265"><ele>10.0</ele><time>2026-04-07T14:27:42.572Z</time></trkpt><trkpt lat="45.3726695" lon="11.8677263"><ele>10.0</ele><time>2026-04-07T14:27:43.566Z</time></trkpt><trkpt lat="45.3725548" lon="11.8678253"><ele>10.0</ele><time>2026-04-07T14:27:44.569Z</time></trkpt><trkpt lat="45.3724726" lon="11.8678857"><ele>10.0</ele><time>2026-04-07T14:27:45.564Z</time></trkpt><trkpt lat="45.3723881" lon="11.8679792"><ele>10.0</ele><time>2026-04-07T14:27:46.569Z</time></trkpt><trkpt lat="45.3723057" lon="11.8680678"><ele>10.0</ele><time>2026-04-07T14:27:47.572Z</time></trkpt><trkpt lat="45.3722239" lon="11.8681638"><ele>10.0</ele><time>2026-04-07T14:27:48.568Z</time></trkpt><trkpt lat="45.3721506" lon="11.8682501"><ele>10.0</ele><time>2026-04-07T14:27:49.572Z</time></trkpt><trkpt lat="45.3720792" lon="11.8683295"><ele>10.0</ele><time>2026-04-07T14:27:50.573Z</time></trkpt><trkpt lat="45.3720115" lon="11.8684074"><ele>9.833333333333334</ele><time>2026-04-07T14:27:51.562Z</time></trkpt><trkpt lat="45.3719513" lon="11.8684801"><ele>9.666666666666668</ele><time>2026-04-07T14:27:52.569Z</time></trkpt><trkpt lat="45.3718947" lon="11.868546"><ele>9.5</ele><time>2026-04-07T14:27:53.571Z</time></trkpt><trkpt lat="45.3718414" lon="11.8685993"><ele>9.333333333333334</ele><time>2026-04-07T14:27:54.575Z</time></trkpt><trkpt lat="45.3717424" lon="11.8687029"><ele>9.166666666666666</ele><time>2026-04-07T14:27:56.564Z</time></trkpt><trkpt lat="45.3716867" lon="11.8687469"><ele>9.0</ele><time>2026-04-07T14:27:57.559Z</time></trkpt><trkpt lat="45.3716009" lon="11.8688093"><ele>9.0</ele><time>2026-04-07T14:27:58.592Z</time></trkpt><trkpt lat="45.3714975" lon="11.8688754"><ele>9.0</ele><time>2026-04-07T14:27:59.562Z</time></trkpt><trkpt lat="45.3713672" lon="11.8689318"><ele>9.0</ele><time>2026-04-07T14:28:00.559Z</time></trkpt><trkpt lat="45.3712209" lon="11.8689711"><ele>9.0</ele><time>2026-04-07T14:28:01.57Z</time></trkpt><trkpt lat="45.3710754" lon="11.868998"><ele>8.5</ele><time>2026-04-07T14:28:02.563Z</time></trkpt><trkpt lat="45.3709414" lon="11.8690207"><ele>8.0</ele><time>2026-04-07T14:28:03.561Z</time></trkpt><trkpt lat="45.3708238" lon="11.8690463"><ele>7.5</ele><time>2026-04-07T14:28:04.561Z</time></trkpt><trkpt lat="45.3707156" lon="11.8690726"><ele>7.0</ele><time>2026-04-07T14:28:05.568Z</time></trkpt><trkpt lat="45.3706178" lon="11.8690901"><ele>7.0</ele><time>2026-04-07T14:28:06.567Z</time></trkpt><trkpt lat="45.3705225" lon="11.8691172"><ele>6.999999999999999</ele><time>2026-04-07T14:28:07.568Z</time></trkpt><trkpt lat="45.370437" lon="11.8691545"><ele>6.999999999999999</ele><time>2026-04-07T14:28:08.567Z</time></trkpt><trkpt lat="45.3703611" lon="11.8691852"><ele>7.0</ele><time>2026-04-07T14:28:09.566Z</time></trkpt><trkpt lat="45.3702432" lon="11.8692332"><ele>7.0</ele><time>2026-04-07T14:28:11.572Z</time></trkpt><trkpt lat="45.3701229" lon="11.8692479"><ele>7.000000000000001</ele><time>2026-04-07T14:28:13.569Z</time></trkpt><trkpt lat="45.3700551" lon="11.8692495"><ele>7.0</ele><time>2026-04-07T14:28:14.569Z</time></trkpt><trkpt lat="45.3699882" lon="11.8692472"><ele>7.0</ele><time>2026-04-07T14:28:15.571Z</time></trkpt><trkpt lat="45.3699088" lon="11.8692287"><ele>7.0</ele><time>2026-04-07T14:28:16.571Z</time></trkpt><trkpt lat="45.3698459" lon="11.8692523"><ele>7.000000000000001</ele><time>2026-04-07T14:28:17.565Z</time></trkpt><trkpt lat="45.3697909" lon="11.8693495"><ele>7.0</ele><time>2026-04-07T14:28:19.571Z</time></trkpt><trkpt lat="45.3697547" lon="11.8694595"><ele>7.3999999999999995</ele><time>2026-04-07T14:28:21.565Z</time></trkpt><trkpt lat="45.3696953" lon="11.8695582"><ele>7.799999999999999</ele><time>2026-04-07T14:28:23.563Z</time></trkpt><trkpt lat="45.3696015" lon="11.869651"><ele>8.2</ele><time>2026-04-07T14:28:25.571Z</time></trkpt><trkpt lat="45.3695566" lon="11.869717"><ele>8.6</ele><time>2026-04-07T14:28:26.568Z</time></trkpt><trkpt lat="45.369514" lon="11.8697928"><ele>9.0</ele><time>2026-04-07T14:28:27.568Z</time></trkpt><trkpt lat="45.3694427" lon="11.8699185"><ele>9.0</ele><time>2026-04-07T14:28:29.573Z</time></trkpt><trkpt lat="45.3693661" lon="11.8700422"><ele>9.0</ele><time>2026-04-07T14:28:31.573Z</time></trkpt><trkpt lat="45.369269" lon="11.8701574"><ele>9.0</ele><time>2026-04-07T14:28:33.563Z</time></trkpt><trkpt lat="45.3692096" lon="11.8701872"><ele>9.0</ele><time>2026-04-07T14:28:34.567Z</time></trkpt><trkpt lat="45.3691227" lon="11.8702529"><ele>9.0</ele><time>2026-04-07T14:28:36.559Z</time></trkpt><trkpt lat="45.3690962" lon="11.8703658"><ele>9.0</ele><time>2026-04-07T14:28:38.587Z</time></trkpt><trkpt lat="45.3690848" lon="11.8705163"><ele>9.0</ele><time>2026-04-07T14:28:40.568Z</time></trkpt><trkpt lat="45.369002" lon="11.8706758"><ele>9.0</ele><time>2026-04-07T14:28:42.566Z</time></trkpt><trkpt lat="45.3689377" lon="11.8707727"><ele>9.0</ele><time>2026-04-07T14:28:43.571Z</time></trkpt><trkpt lat="45.3688735" lon="11.8708774"><ele>9.0</ele><time>2026-04-07T14:28:44.567Z</time></trkpt><trkpt lat="45.3688128" lon="11.8709828"><ele>9.0</ele><time>2026-04-07T14:28:45.562Z</time></trkpt><trkpt lat="45.3687536" lon="11.8710862"><ele>9.0</ele><time>2026-04-07T14:28:46.566Z</time></trkpt><trkpt lat="45.3686967" lon="11.8711944"><ele>9.0</ele><time>2026-04-07T14:28:47.556Z</time></trkpt><trkpt lat="45.3686543" lon="11.8712849"><ele>9.0</ele><time>2026-04-07T14:28:48.563Z</time></trkpt><trkpt lat="45.3686011" lon="11.8714135"><ele>9.0</ele><time>2026-04-07T14:28:50.567Z</time></trkpt><trkpt lat="45.36856" lon="11.8715362"><ele>9.000000000000002</ele><time>2026-04-07T14:28:52.592Z</time></trkpt><trkpt lat="45.3685231" lon="11.8716138"><ele>9.0</ele><time>2026-04-07T14:28:53.572Z</time></trkpt><trkpt lat="45.3684708" lon="11.8717024"><ele>9.0</ele><time>2026-04-07T14:28:54.568Z</time></trkpt><trkpt lat="45.3684132" lon="11.8717641"><ele>9.0</ele><time>2026-04-07T14:28:55.558Z</time></trkpt><trkpt lat="45.368349" lon="11.8718031"><ele>9.0</ele><time>2026-04-07T14:28:56.567Z</time></trkpt><trkpt lat="45.3682829" lon="11.8718194"><ele>9.000000000000002</ele><time>2026-04-07T14:28:57.574Z</time></trkpt><trkpt lat="45.3682138" lon="11.8718383"><ele>9.0</ele><time>2026-04-07T14:28:58.563Z</time></trkpt><trkpt lat="45.3681506" lon="11.8718576"><ele>8.8</ele><time>2026-04-07T14:28:59.57Z</time></trkpt><trkpt lat="45.3680585" lon="11.8718875"><ele>8.600000000000001</ele><time>2026-04-07T14:29:01.569Z</time></trkpt><trkpt lat="45.3679649" lon="11.8718977"><ele>8.4</ele><time>2026-04-07T14:29:03.574Z</time></trkpt><trkpt lat="45.367846" lon="11.8719041"><ele>8.200000000000001</ele><time>2026-04-07T14:29:05.565Z</time></trkpt><trkpt lat="45.3677783" lon="11.8718948"><ele>8.0</ele><time>2026-04-07T14:29:06.564Z</time></trkpt><trkpt lat="45.3676991" lon="11.8718933"><ele>8.0</ele><time>2026-04-07T14:29:07.574Z</time></trkpt><trkpt lat="45.3676021" lon="11.8718901"><ele>8.0</ele><time>2026-04-07T14:29:08.562Z</time></trkpt><trkpt lat="45.3674824" lon="11.8718749"><ele>8.0</ele><time>2026-04-07T14:29:09.565Z</time></trkpt><trkpt lat="45.3673322" lon="11.8718447"><ele>8.0</ele><time>2026-04-07T14:29:10.569Z</time></trkpt><trkpt lat="45.3671737" lon="11.8718195"><ele>8.333333333333332</ele><time>2026-04-07T14:29:11.567Z</time></trkpt><trkpt lat="45.366978" lon="11.8717968"><ele>8.666666666666666</ele><time>2026-04-07T14:29:12.56Z</time></trkpt><trkpt lat="45.3667854" lon="11.8717846"><ele>9.0</ele><time>2026-04-07T14:29:13.565Z</time></trkpt><trkpt lat="45.366637" lon="11.8717596"><ele>9.0</ele><time>2026-04-07T14:29:14.567Z</time></trkpt><trkpt lat="45.3665209" lon="11.8717121"><ele>9.0</ele><time>2026-04-07T14:29:15.566Z</time></trkpt><trkpt lat="45.3664087" lon="11.871663"><ele>9.0</ele><time>2026-04-07T14:29:16.56Z</time></trkpt><trkpt lat="45.3663214" lon="11.8715976"><ele>9.0</ele><time>2026-04-07T14:29:17.565Z</time></trkpt><trkpt lat="45.3662517" lon="11.8715533"><ele>9.0</ele><time>2026-04-07T14:29:18.557Z</time></trkpt><trkpt lat="45.3661163" lon="11.8716093"><ele>9.0</ele><time>2026-04-07T14:29:20.57Z</time></trkpt><trkpt lat="45.3660532" lon="11.8716676"><ele>9.0</ele><time>2026-04-07T14:29:21.567Z</time></trkpt><trkpt lat="45.3659766" lon="11.87165"><ele>9.0</ele><time>2026-04-07T14:29:22.567Z</time></trkpt><trkpt lat="45.3658947" lon="11.8716245"><ele>9.0</ele><time>2026-04-07T14:29:23.571Z</time></trkpt><trkpt lat="45.3657998" lon="11.8716095"><ele>9.0</ele><time>2026-04-07T14:29:24.568Z</time></trkpt><trkpt lat="45.3656868" lon="11.8715854"><ele>9.0</ele><time>2026-04-07T14:29:25.564Z</time></trkpt><trkpt lat="45.3655631" lon="11.8715603"><ele>9.25</ele><time>2026-04-07T14:29:26.562Z</time></trkpt><trkpt lat="45.3654269" lon="11.8715315"><ele>9.5</ele><time>2026-04-07T14:29:27.563Z</time></trkpt><trkpt lat="45.3653055" lon="11.8714961"><ele>9.75</ele><time>2026-04-07T14:29:28.559Z</time></trkpt><trkpt lat="45.3651969" lon="11.8714718"><ele>10.0</ele><time>2026-04-07T14:29:29.563Z</time></trkpt><trkpt lat="45.365098" lon="11.8714512"><ele>10.0</ele><time>2026-04-07T14:29:30.56Z</time></trkpt><trkpt lat="45.3650028" lon="11.871433"><ele>10.0</ele><time>2026-04-07T14:29:31.57Z</time></trkpt><trkpt lat="45.3649206" lon="11.8714154"><ele>10.0</ele><time>2026-04-07T14:29:32.566Z</time></trkpt><trkpt lat="45.364851" lon="11.8713933"><ele>10.0</ele><time>2026-04-07T14:29:33.566Z</time></trkpt><trkpt lat="45.3647711" lon="11.871353"><ele>10.0</ele><time>2026-04-07T14:29:35.568Z</time></trkpt><trkpt lat="45.3647201" lon="11.8712999"><ele>10.0</ele><time>2026-04-07T14:29:37.57Z</time></trkpt><trkpt lat="45.3646428" lon="11.8712256"><ele>10.4</ele><time>2026-04-07T14:29:39.566Z</time></trkpt><trkpt lat="45.3645545" lon="11.8711968"><ele>10.8</ele><time>2026-04-07T14:29:41.562Z</time></trkpt><trkpt lat="45.3644859" lon="11.8712065"><ele>11.2</ele><time>2026-04-07T14:29:42.562Z</time></trkpt><trkpt lat="45.3643507" lon="11.8712198"><ele>11.6</ele><time>2026-04-07T14:29:44.566Z</time></trkpt><trkpt lat="45.3642426" lon="11.8711985"><ele>12.0</ele><time>2026-04-07T14:29:45.59Z</time></trkpt><trkpt lat="45.3641597" lon="11.8711732"><ele>12.0</ele><time>2026-04-07T14:29:46.561Z</time></trkpt><trkpt lat="45.3641071" lon="11.8711202"><ele>12.0</ele><time>2026-04-07T14:29:47.571Z</time></trkpt><trkpt lat="45.3640039" lon="11.8710748"><ele>12.0</ele><time>2026-04-07T14:29:49.565Z</time></trkpt><trkpt lat="45.3639387" lon="11.8711004"><ele>12.0</ele><time>2026-04-07T14:29:50.561Z</time></trkpt><trkpt lat="45.3638606" lon="11.8711364"><ele>12.0</ele><time>2026-04-07T14:29:51.574Z</time></trkpt><trkpt lat="45.3637837" lon="11.8711517"><ele>12.0</ele><time>2026-04-07T14:29:52.572Z</time></trkpt><trkpt lat="45.3636949" lon="11.8711383"><ele>11.0</ele><time>2026-04-07T14:29:53.564Z</time></trkpt><trkpt lat="45.3635994" lon="11.8711182"><ele>10.0</ele><time>2026-04-07T14:29:54.574Z</time></trkpt><trkpt lat="45.3634852" lon="11.8710891"><ele>9.0</ele><time>2026-04-07T14:29:55.568Z</time></trkpt><trkpt lat="45.3633571" lon="11.8710606"><ele>8.0</ele><time>2026-04-07T14:29:56.574Z</time></trkpt><trkpt lat="45.3632172" lon="11.8710282"><ele>8.0</ele><time>2026-04-07T14:29:57.569Z</time></trkpt><trkpt lat="45.363062" lon="11.8709905"><ele>8.0</ele><time>2026-04-07T14:29:58.578Z</time></trkpt><trkpt lat="45.3628607" lon="11.8709441"><ele>8.0</ele><time>2026-04-07T14:29:59.564Z</time></trkpt><trkpt lat="45.3626518" lon="11.8708795"><ele>8.0</ele><time>2026-04-07T14:30:00.568Z</time></trkpt><trkpt lat="45.362476" lon="11.8708283"><ele>8.0</ele><time>2026-04-07T14:30:01.569Z</time></trkpt><trkpt lat="45.3622982" lon="11.8708045"><ele>8.0</ele><time>2026-04-07T14:30:02.572Z</time></trkpt><trkpt lat="45.3621233" lon="11.8708023"><ele>8.25</ele><time>2026-04-07T14:30:03.587Z</time></trkpt><trkpt lat="45.3619651" lon="11.8707861"><ele>8.5</ele><time>2026-04-07T14:30:04.572Z</time></trkpt><trkpt lat="45.3618153" lon="11.8707568"><ele>8.75</ele><time>2026-04-07T14:30:05.573Z</time></trkpt><trkpt lat="45.3616771" lon="11.8707327"><ele>9.0</ele><time>2026-04-07T14:30:06.568Z</time></trkpt><trkpt lat="45.3615138" lon="11.8707194"><ele>9.0</ele><time>2026-04-07T14:30:07.569Z</time></trkpt><trkpt lat="45.3613644" lon="11.8707011"><ele>9.0</ele><time>2026-04-07T14:30:08.565Z</time></trkpt><trkpt lat="45.3612272" lon="11.870671"><ele>9.0</ele><time>2026-04-07T14:30:09.567Z</time></trkpt><trkpt lat="45.361098" lon="11.8706571"><ele>9.0</ele><time>2026-04-07T14:30:10.572Z</time></trkpt><trkpt lat="45.3609688" lon="11.8706405"><ele>9.0</ele><time>2026-04-07T14:30:11.564Z</time></trkpt><trkpt lat="45.36084" lon="11.8706281"><ele>9.0</ele><time>2026-04-07T14:30:12.576Z</time></trkpt><trkpt lat="45.3607024" lon="11.8705943"><ele>9.0</ele><time>2026-04-07T14:30:13.571Z</time></trkpt><trkpt lat="45.3605494" lon="11.8705771"><ele>9.0</ele><time>2026-04-07T14:30:14.577Z</time></trkpt><trkpt lat="45.360398" lon="11.8705355"><ele>9.0</ele><time>2026-04-07T14:30:15.567Z</time></trkpt><trkpt lat="45.3602517" lon="11.870497"><ele>9.0</ele><time>2026-04-07T14:30:16.576Z</time></trkpt><trkpt lat="45.3601193" lon="11.8704739"><ele>9.0</ele><time>2026-04-07T14:30:17.57Z</time></trkpt><trkpt lat="45.3600098" lon="11.8704456"><ele>9.0</ele><time>2026-04-07T14:30:18.573Z</time></trkpt><trkpt lat="45.359907" lon="11.8704199"><ele>9.0</ele><time>2026-04-07T14:30:19.56Z</time></trkpt><trkpt lat="45.3598026" lon="11.8703969"><ele>9.0</ele><time>2026-04-07T14:30:20.57Z</time></trkpt><trkpt lat="45.3596934" lon="11.870369"><ele>9.0</ele><time>2026-04-07T14:30:21.577Z</time></trkpt><trkpt lat="45.3595763" lon="11.87033"><ele>9.0</ele><time>2026-04-07T14:30:22.568Z</time></trkpt><trkpt lat="45.3594598" lon="11.8702982"><ele>9.0</ele><time>2026-04-07T14:30:23.565Z</time></trkpt><trkpt lat="45.3593401" lon="11.8702811"><ele>9.0</ele><time>2026-04-07T14:30:24.574Z</time></trkpt><trkpt lat="45.3592175" lon="11.8702589"><ele>9.0</ele><time>2026-04-07T14:30:25.564Z</time></trkpt><trkpt lat="45.3590949" lon="11.8702345"><ele>9.0</ele><time>2026-04-07T14:30:26.567Z</time></trkpt><trkpt lat="45.3589678" lon="11.87021"><ele>9.25</ele><time>2026-04-07T14:30:27.567Z</time></trkpt><trkpt lat="45.3588375" lon="11.8701853"><ele>9.5</ele><time>2026-04-07T14:30:28.57Z</time></trkpt><trkpt lat="45.3587078" lon="11.8701661"><ele>9.75</ele><time>2026-04-07T14:30:29.564Z</time></trkpt><trkpt lat="45.3585748" lon="11.8701479"><ele>10.0</ele><time>2026-04-07T14:30:30.569Z</time></trkpt><trkpt lat="45.3584416" lon="11.8701234"><ele>10.0</ele><time>2026-04-07T14:30:31.561Z</time></trkpt><trkpt lat="45.3583106" lon="11.870097"><ele>10.0</ele><time>2026-04-07T14:30:32.568Z</time></trkpt><trkpt lat="45.358177" lon="11.8700694"><ele>10.0</ele><time>2026-04-07T14:30:33.555Z</time></trkpt><trkpt lat="45.358047" lon="11.8700428"><ele>10.0</ele><time>2026-04-07T14:30:34.564Z</time></trkpt><trkpt lat="45.3579152" lon="11.8700157"><ele>9.75</ele><time>2026-04-07T14:30:35.567Z</time></trkpt><trkpt lat="45.3577833" lon="11.8699953"><ele>9.5</ele><time>2026-04-07T14:30:36.59Z</time></trkpt><trkpt lat="45.3576561" lon="11.8699765"><ele>9.25</ele><time>2026-04-07T14:30:37.56Z</time></trkpt><trkpt lat="45.3575372" lon="11.8699528"><ele>9.0</ele><time>2026-04-07T14:30:38.561Z</time></trkpt><trkpt lat="45.3574067" lon="11.8699128"><ele>9.0</ele><time>2026-04-07T14:30:39.567Z</time></trkpt><trkpt lat="45.357269" lon="11.8698706"><ele>9.0</ele><time>2026-04-07T14:30:40.56Z</time></trkpt><trkpt lat="45.3571622" lon="11.8698194"><ele>9.0</ele><time>2026-04-07T14:30:41.561Z</time></trkpt><trkpt lat="45.3570727" lon="11.8698066"><ele>9.0</ele><time>2026-04-07T14:30:42.551Z</time></trkpt><trkpt lat="45.3569758" lon="11.869799"><ele>9.0</ele><time>2026-04-07T14:30:43.551Z</time></trkpt><trkpt lat="45.3568828" lon="11.8698088"><ele>9.0</ele><time>2026-04-07T14:30:44.556Z</time></trkpt><trkpt lat="45.3567939" lon="11.8698196"><ele>9.0</ele><time>2026-04-07T14:30:45.556Z</time></trkpt><trkpt lat="45.3567143" lon="11.869796"><ele>9.0</ele><time>2026-04-07T14:30:46.554Z</time></trkpt><trkpt lat="45.3565921" lon="11.8698171"><ele>9.0</ele><time>2026-04-07T14:30:48.558Z</time></trkpt><trkpt lat="45.3565111" lon="11.8698026"><ele>9.0</ele><time>2026-04-07T14:30:49.564Z</time></trkpt><trkpt lat="45.3564283" lon="11.8697839"><ele>9.166666666666666</ele><time>2026-04-07T14:30:50.561Z</time></trkpt><trkpt lat="45.3563489" lon="11.8697674"><ele>9.333333333333334</ele><time>2026-04-07T14:30:51.558Z</time></trkpt><trkpt lat="45.3562742" lon="11.8697465"><ele>9.5</ele><time>2026-04-07T14:30:52.552Z</time></trkpt><trkpt lat="45.3562078" lon="11.8697299"><ele>9.666666666666668</ele><time>2026-04-07T14:30:53.561Z</time></trkpt><trkpt lat="45.3560911" lon="11.8696878"><ele>9.833333333333334</ele><time>2026-04-07T14:30:55.581Z</time></trkpt><trkpt lat="45.3560253" lon="11.8696673"><ele>10.0</ele><time>2026-04-07T14:30:56.554Z</time></trkpt><trkpt lat="45.3559533" lon="11.8696482"><ele>10.0</ele><time>2026-04-07T14:30:57.56Z</time></trkpt><trkpt lat="45.3558453" lon="11.8696195"><ele>10.0</ele><time>2026-04-07T14:30:59.56Z</time></trkpt><trkpt lat="45.3557378" lon="11.8695907"><ele>10.0</ele><time>2026-04-07T14:31:01.56Z</time></trkpt><trkpt lat="45.3556394" lon="11.8695608"><ele>10.0</ele><time>2026-04-07T14:31:03.564Z</time></trkpt><trkpt lat="45.355559" lon="11.8695062"><ele>10.0</ele><time>2026-04-07T14:31:05.558Z</time></trkpt><trkpt lat="45.3554593" lon="11.8694501"><ele>10.166666666666668</ele><time>2026-04-07T14:31:07.559Z</time></trkpt><trkpt lat="45.3553938" lon="11.8694528"><ele>10.333333333333334</ele><time>2026-04-07T14:31:08.562Z</time></trkpt><trkpt lat="45.3553154" lon="11.8694549"><ele>10.5</ele><time>2026-04-07T14:31:09.561Z</time></trkpt><trkpt lat="45.3552305" lon="11.8694417"><ele>10.666666666666666</ele><time>2026-04-07T14:31:10.556Z</time></trkpt><trkpt lat="45.3551439" lon="11.8694227"><ele>10.833333333333332</ele><time>2026-04-07T14:31:11.564Z</time></trkpt><trkpt lat="45.3550548" lon="11.869402"><ele>11.0</ele><time>2026-04-07T14:31:12.559Z</time></trkpt><trkpt lat="45.3549319" lon="11.8693887"><ele>11.0</ele><time>2026-04-07T14:31:13.559Z</time></trkpt><trkpt lat="45.354788" lon="11.8693721"><ele>11.0</ele><time>2026-04-07T14:31:14.561Z</time></trkpt><trkpt lat="45.3546479" lon="11.8693462"><ele>11.0</ele><time>2026-04-07T14:31:15.556Z</time></trkpt><trkpt lat="45.3545191" lon="11.8693132"><ele>11.0</ele><time>2026-04-07T14:31:16.562Z</time></trkpt><trkpt lat="45.3544047" lon="11.8692736"><ele>10.8</ele><time>2026-04-07T14:31:17.563Z</time></trkpt><trkpt lat="45.3542964" lon="11.8692398"><ele>10.600000000000001</ele><time>2026-04-07T14:31:18.559Z</time></trkpt><trkpt lat="45.3542077" lon="11.8692114"><ele>10.4</ele><time>2026-04-07T14:31:19.56Z</time></trkpt><trkpt lat="45.3541236" lon="11.8691898"><ele>10.2</ele><time>2026-04-07T14:31:20.564Z</time></trkpt><trkpt lat="45.3540234" lon="11.8691795"><ele>10.0</ele><time>2026-04-07T14:31:21.561Z</time></trkpt><trkpt lat="45.3539174" lon="11.8691661"><ele>10.25</ele><time>2026-04-07T14:31:22.567Z</time></trkpt><trkpt lat="45.3538093" lon="11.8691457"><ele>10.5</ele><time>2026-04-07T14:31:23.566Z</time></trkpt><trkpt lat="45.3536939" lon="11.8691229"><ele>10.75</ele><time>2026-04-07T14:31:24.566Z</time></trkpt><trkpt lat="45.3535728" lon="11.8691045"><ele>11.0</ele><time>2026-04-07T14:31:25.564Z</time></trkpt><trkpt lat="45.3534464" lon="11.8690787"><ele>11.0</ele><time>2026-04-07T14:31:26.568Z</time></trkpt><trkpt lat="45.3533199" lon="11.8690507"><ele>11.0</ele><time>2026-04-07T14:31:27.563Z</time></trkpt><trkpt lat="45.3531914" lon="11.8690231"><ele>11.0</ele><time>2026-04-07T14:31:28.568Z</time></trkpt><trkpt lat="45.3530613" lon="11.8690035"><ele>11.0</ele><time>2026-04-07T14:31:29.562Z</time></trkpt><trkpt lat="45.3529403" lon="11.8689886"><ele>11.0</ele><time>2026-04-07T14:31:30.573Z</time></trkpt><trkpt lat="45.3528297" lon="11.8689685"><ele>11.0</ele><time>2026-04-07T14:31:31.563Z</time></trkpt><trkpt lat="45.3527195" lon="11.8689524"><ele>11.0</ele><time>2026-04-07T14:31:32.567Z</time></trkpt><trkpt lat="45.3526075" lon="11.8689318"><ele>11.0</ele><time>2026-04-07T14:31:33.563Z</time></trkpt><trkpt lat="45.3524917" lon="11.8689104"><ele>11.0</ele><time>2026-04-07T14:31:34.557Z</time></trkpt><trkpt lat="45.3523799" lon="11.8689011"><ele>11.0</ele><time>2026-04-07T14:31:35.564Z</time></trkpt><trkpt lat="45.3522753" lon="11.8688827"><ele>11.0</ele><time>2026-04-07T14:31:36.557Z</time></trkpt><trkpt lat="45.3521774" lon="11.8688559"><ele>11.0</ele><time>2026-04-07T14:31:37.553Z</time></trkpt><trkpt lat="45.3520888" lon="11.8688329"><ele>11.0</ele><time>2026-04-07T14:31:38.562Z</time></trkpt><trkpt lat="45.352003" lon="11.8688136"><ele>10.833333333333332</ele><time>2026-04-07T14:31:39.557Z</time></trkpt><trkpt lat="45.3519145" lon="11.8687939"><ele>10.666666666666666</ele><time>2026-04-07T14:31:40.562Z</time></trkpt><trkpt lat="45.3518302" lon="11.8687689"><ele>10.5</ele><time>2026-04-07T14:31:41.564Z</time></trkpt><trkpt lat="45.3517542" lon="11.8687585"><ele>10.333333333333334</ele><time>2026-04-07T14:31:42.56Z</time></trkpt><trkpt lat="45.3516785" lon="11.8687379"><ele>10.166666666666668</ele><time>2026-04-07T14:31:43.563Z</time></trkpt><trkpt lat="45.3516064" lon="11.8687196"><ele>10.0</ele><time>2026-04-07T14:31:44.581Z</time></trkpt><trkpt lat="45.3515412" lon="11.8687064"><ele>10.0</ele><time>2026-04-07T14:31:45.563Z</time></trkpt><trkpt lat="45.3514468" lon="11.8686813"><ele>10.0</ele><time>2026-04-07T14:31:47.559Z</time></trkpt><trkpt lat="45.3513785" lon="11.8686333"><ele>10.0</ele><time>2026-04-07T14:31:49.564Z</time></trkpt><trkpt lat="45.3513003" lon="11.8685868"><ele>10.0</ele><time>2026-04-07T14:31:51.584Z</time></trkpt><trkpt lat="45.3512385" lon="11.8685687"><ele>10.0</ele><time>2026-04-07T14:31:52.554Z</time></trkpt><trkpt lat="45.351166" lon="11.8685642"><ele>10.0</ele><time>2026-04-07T14:31:53.559Z</time></trkpt><trkpt lat="45.3510801" lon="11.8685623"><ele>10.4</ele><time>2026-04-07T14:31:54.563Z</time></trkpt><trkpt lat="45.3509883" lon="11.8685536"><ele>10.8</ele><time>2026-04-07T14:31:55.563Z</time></trkpt><trkpt lat="45.3508842" lon="11.8685379"><ele>11.2</ele><time>2026-04-07T14:31:56.561Z</time></trkpt><trkpt lat="45.3507685" lon="11.8685277"><ele>11.6</ele><time>2026-04-07T14:31:57.566Z</time></trkpt><trkpt lat="45.3506526" lon="11.8685124"><ele>12.0</ele><time>2026-04-07T14:31:58.56Z</time></trkpt><trkpt lat="45.3505391" lon="11.8684987"><ele>12.0</ele><time>2026-04-07T14:31:59.563Z</time></trkpt><trkpt lat="45.3504317" lon="11.8684853"><ele>12.0</ele><time>2026-04-07T14:32:00.56Z</time></trkpt><trkpt lat="45.3503249" lon="11.8684713"><ele>12.0</ele><time>2026-04-07T14:32:01.563Z</time></trkpt><trkpt lat="45.3502228" lon="11.8684556"><ele>12.0</ele><time>2026-04-07T14:32:02.566Z</time></trkpt><trkpt lat="45.3501253" lon="11.8684448"><ele>12.0</ele><time>2026-04-07T14:32:03.565Z</time></trkpt><trkpt lat="45.3500246" lon="11.868437"><ele>12.0</ele><time>2026-04-07T14:32:04.562Z</time></trkpt><trkpt lat="45.3499297" lon="11.8684175"><ele>12.0</ele><time>2026-04-07T14:32:05.563Z</time></trkpt><trkpt lat="45.3498415" lon="11.8684133"><ele>12.0</ele><time>2026-04-07T14:32:06.555Z</time></trkpt><trkpt lat="45.3497612" lon="11.868408"><ele>12.0</ele><time>2026-04-07T14:32:07.564Z</time></trkpt><trkpt lat="45.3496774" lon="11.8683975"><ele>12.0</ele><time>2026-04-07T14:32:08.566Z</time></trkpt><trkpt lat="45.3495963" lon="11.8683882"><ele>12.0</ele><time>2026-04-07T14:32:09.562Z</time></trkpt><trkpt lat="45.349506" lon="11.8683684"><ele>11.8</ele><time>2026-04-07T14:32:10.557Z</time></trkpt><trkpt lat="45.3494044" lon="11.8683499"><ele>11.6</ele><time>2026-04-07T14:32:11.587Z</time></trkpt><trkpt lat="45.3493004" lon="11.8683391"><ele>11.4</ele><time>2026-04-07T14:32:12.56Z</time></trkpt><trkpt lat="45.3492036" lon="11.8683245"><ele>11.200000000000001</ele><time>2026-04-07T14:32:13.564Z</time></trkpt><trkpt lat="45.3491151" lon="11.8683088"><ele>11.0</ele><time>2026-04-07T14:32:14.56Z</time></trkpt><trkpt lat="45.3490189" lon="11.8683011"><ele>11.0</ele><time>2026-04-07T14:32:15.559Z</time></trkpt><trkpt lat="45.3489112" lon="11.8682792"><ele>11.0</ele><time>2026-04-07T14:32:16.558Z</time></trkpt><trkpt lat="45.3488011" lon="11.8682517"><ele>11.0</ele><time>2026-04-07T14:32:17.566Z</time></trkpt><trkpt lat="45.3487027" lon="11.8682266"><ele>11.0</ele><time>2026-04-07T14:32:18.557Z</time></trkpt><trkpt lat="45.3486156" lon="11.8682061"><ele>11.0</ele><time>2026-04-07T14:32:19.56Z</time></trkpt><trkpt lat="45.3485339" lon="11.8681907"><ele>11.166666666666666</ele><time>2026-04-07T14:32:20.558Z</time></trkpt><trkpt lat="45.3484548" lon="11.8681549"><ele>11.333333333333332</ele><time>2026-04-07T14:32:21.566Z</time></trkpt><trkpt lat="45.3483901" lon="11.8681371"><ele>11.5</ele><time>2026-04-07T14:32:22.563Z</time></trkpt><trkpt lat="45.3482849" lon="11.8681115"><ele>11.666666666666666</ele><time>2026-04-07T14:32:24.562Z</time></trkpt><trkpt lat="45.3482109" lon="11.8680833"><ele>11.833333333333334</ele><time>2026-04-07T14:32:26.561Z</time></trkpt><trkpt lat="45.3481916" lon="11.867984"><ele>12.0</ele><time>2026-04-07T14:32:34.556Z</time></trkpt><trkpt lat="45.3481409" lon="11.8679233"><ele>12.0</ele><time>2026-04-07T14:32:36.553Z</time></trkpt><trkpt lat="45.3480764" lon="11.8679193"><ele>12.0</ele><time>2026-04-07T14:32:37.56Z</time></trkpt><trkpt lat="45.3480025" lon="11.8679203"><ele>12.0</ele><time>2026-04-07T14:32:38.547Z</time></trkpt><trkpt lat="45.3478956" lon="11.8679446"><ele>12.0</ele><time>2026-04-07T14:32:40.558Z</time></trkpt><trkpt lat="45.3478241" lon="11.867987"><ele>12.0</ele><time>2026-04-07T14:32:41.552Z</time></trkpt><trkpt lat="45.3477389" lon="11.8679985"><ele>12.0</ele><time>2026-04-07T14:32:42.561Z</time></trkpt><trkpt lat="45.3476524" lon="11.8679824"><ele>12.0</ele><time>2026-04-07T14:32:43.556Z</time></trkpt><trkpt lat="45.347542" lon="11.8679611"><ele>12.0</ele><time>2026-04-07T14:32:44.563Z</time></trkpt><trkpt lat="45.3474329" lon="11.867949"><ele>12.0</ele><time>2026-04-07T14:32:45.555Z</time></trkpt><trkpt lat="45.3473226" lon="11.867928"><ele>12.0</ele><time>2026-04-07T14:32:46.566Z</time></trkpt><trkpt lat="45.3472144" lon="11.8679033"><ele>12.0</ele><time>2026-04-07T14:32:47.562Z</time></trkpt><trkpt lat="45.3470996" lon="11.8678803"><ele>12.0</ele><time>2026-04-07T14:32:48.567Z</time></trkpt><trkpt lat="45.3469885" lon="11.8678624"><ele>12.0</ele><time>2026-04-07T14:32:49.558Z</time></trkpt><trkpt lat="45.3468894" lon="11.8678452"><ele>12.0</ele><time>2026-04-07T14:32:50.567Z</time></trkpt><trkpt lat="45.3467944" lon="11.867827"><ele>12.0</ele><time>2026-04-07T14:32:51.565Z</time></trkpt><trkpt lat="45.3466908" lon="11.8678072"><ele>12.0</ele><time>2026-04-07T14:32:52.56Z</time></trkpt><trkpt lat="45.3465769" lon="11.8677817"><ele>12.0</ele><time>2026-04-07T14:32:53.558Z</time></trkpt><trkpt lat="45.3464703" lon="11.8677601"><ele>12.0</ele><time>2026-04-07T14:32:54.567Z</time></trkpt><trkpt lat="45.3463764" lon="11.8677447"><ele>12.0</ele><time>2026-04-07T14:32:55.561Z</time></trkpt><trkpt lat="45.3462865" lon="11.8677395"><ele>12.0</ele><time>2026-04-07T14:32:56.561Z</time></trkpt><trkpt lat="45.3461995" lon="11.8677266"><ele>12.0</ele><time>2026-04-07T14:32:57.558Z</time></trkpt><trkpt lat="45.3461198" lon="11.8677104"><ele>11.833333333333334</ele><time>2026-04-07T14:32:58.563Z</time></trkpt><trkpt lat="45.3460477" lon="11.8676855"><ele>11.666666666666666</ele><time>2026-04-07T14:32:59.556Z</time></trkpt><trkpt lat="45.3459762" lon="11.8676638"><ele>11.5</ele><time>2026-04-07T14:33:00.582Z</time></trkpt><trkpt lat="45.3458963" lon="11.8676478"><ele>11.333333333333332</ele><time>2026-04-07T14:33:01.559Z</time></trkpt><trkpt lat="45.3458093" lon="11.8676338"><ele>11.166666666666666</ele><time>2026-04-07T14:33:02.558Z</time></trkpt><trkpt lat="45.3457255" lon="11.867614"><ele>11.0</ele><time>2026-04-07T14:33:03.585Z</time></trkpt><trkpt lat="45.3456487" lon="11.8676019"><ele>10.833333333333332</ele><time>2026-04-07T14:33:04.559Z</time></trkpt><trkpt lat="45.345583" lon="11.8675854"><ele>10.666666666666666</ele><time>2026-04-07T14:33:05.564Z</time></trkpt><trkpt lat="45.3455125" lon="11.8675612"><ele>10.5</ele><time>2026-04-07T14:33:06.558Z</time></trkpt><trkpt lat="45.3454289" lon="11.8675304"><ele>10.333333333333334</ele><time>2026-04-07T14:33:07.554Z</time></trkpt><trkpt lat="45.3453484" lon="11.867515"><ele>10.166666666666668</ele><time>2026-04-07T14:33:08.558Z</time></trkpt><trkpt lat="45.3452861" lon="11.8675002"><ele>10.0</ele><time>2026-04-07T14:33:09.563Z</time></trkpt><trkpt lat="45.3451806" lon="11.8674809"><ele>10.0</ele><time>2026-04-07T14:33:11.559Z</time></trkpt><trkpt lat="45.3450921" lon="11.8674667"><ele>10.0</ele><time>2026-04-07T14:33:13.558Z</time></trkpt><trkpt lat="45.3449542" lon="11.8674285"><ele>10.0</ele><time>2026-04-07T14:33:15.558Z</time></trkpt><trkpt lat="45.3448605" lon="11.8674087"><ele>10.0</ele><time>2026-04-07T14:33:16.556Z</time></trkpt><trkpt lat="45.3447598" lon="11.8673795"><ele>10.0</ele><time>2026-04-07T14:33:17.561Z</time></trkpt><trkpt lat="45.3446343" lon="11.8673382"><ele>10.0</ele><time>2026-04-07T14:33:18.563Z</time></trkpt><trkpt lat="45.3445095" lon="11.8672965"><ele>10.0</ele><time>2026-04-07T14:33:19.554Z</time></trkpt><trkpt lat="45.3443742" lon="11.8672616"><ele>10.0</ele><time>2026-04-07T14:33:20.559Z</time></trkpt><trkpt lat="45.344227" lon="11.8672356"><ele>10.0</ele><time>2026-04-07T14:33:21.559Z</time></trkpt><trkpt lat="45.3440536" lon="11.8672126"><ele>10.0</ele><time>2026-04-07T14:33:22.561Z</time></trkpt><trkpt lat="45.3439098" lon="11.8671915"><ele>10.0</ele><time>2026-04-07T14:33:23.563Z</time></trkpt><trkpt lat="45.3437693" lon="11.8671438"><ele>10.0</ele><time>2026-04-07T14:33:24.558Z</time></trkpt><trkpt lat="45.3436401" lon="11.8671209"><ele>10.0</ele><time>2026-04-07T14:33:25.558Z</time></trkpt><trkpt lat="45.3435324" lon="11.8670919"><ele>10.0</ele><time>2026-04-07T14:33:26.565Z</time></trkpt><trkpt lat="45.3434294" lon="11.8670753"><ele>10.0</ele><time>2026-04-07T14:33:27.561Z</time></trkpt><trkpt lat="45.3433018" lon="11.8670511"><ele>10.0</ele><time>2026-04-07T14:33:28.559Z</time></trkpt><trkpt lat="45.3431816" lon="11.8670191"><ele>10.0</ele><time>2026-04-07T14:33:29.566Z</time></trkpt><trkpt lat="45.3430539" lon="11.86699"><ele>10.0</ele><time>2026-04-07T14:33:30.568Z</time></trkpt><trkpt lat="45.3429228" lon="11.866964"><ele>10.0</ele><time>2026-04-07T14:33:31.571Z</time></trkpt><trkpt lat="45.3427929" lon="11.8669387"><ele>10.0</ele><time>2026-04-07T14:33:32.566Z</time></trkpt><trkpt lat="45.3426565" lon="11.8669151"><ele>10.0</ele><time>2026-04-07T14:33:33.568Z</time></trkpt><trkpt lat="45.3425187" lon="11.8668907"><ele>10.0</ele><time>2026-04-07T14:33:34.563Z</time></trkpt><trkpt lat="45.3423837" lon="11.8668571"><ele>10.0</ele><time>2026-04-07T14:33:35.57Z</time></trkpt><trkpt lat="45.3422388" lon="11.8668473"><ele>10.0</ele><time>2026-04-07T14:33:36.565Z</time></trkpt><trkpt lat="45.3420965" lon="11.866837"><ele>10.0</ele><time>2026-04-07T14:33:37.559Z</time></trkpt><trkpt lat="45.3419647" lon="11.8668027"><ele>10.0</ele><time>2026-04-07T14:33:38.566Z</time></trkpt><trkpt lat="45.3418233" lon="11.8667865"><ele>10.0</ele><time>2026-04-07T14:33:39.559Z</time></trkpt><trkpt lat="45.3416773" lon="11.8667597"><ele>10.0</ele><time>2026-04-07T14:33:40.568Z</time></trkpt><trkpt lat="45.3415263" lon="11.8667187"><ele>10.0</ele><time>2026-04-07T14:33:41.568Z</time></trkpt><trkpt lat="45.3413875" lon="11.8667016"><ele>9.8</ele><time>2026-04-07T14:33:42.56Z</time></trkpt><trkpt lat="45.3412593" lon="11.8666848"><ele>9.6</ele><time>2026-04-07T14:33:43.565Z</time></trkpt><trkpt lat="45.3411495" lon="11.8666751"><ele>9.4</ele><time>2026-04-07T14:33:44.567Z</time></trkpt><trkpt lat="45.3410422" lon="11.8666629"><ele>9.2</ele><time>2026-04-07T14:33:45.562Z</time></trkpt><trkpt lat="45.3409582" lon="11.8666456"><ele>9.0</ele><time>2026-04-07T14:33:46.586Z</time></trkpt><trkpt lat="45.3408899" lon="11.8666287"><ele>9.0</ele><time>2026-04-07T14:33:47.56Z</time></trkpt><trkpt lat="45.3407902" lon="11.8665995"><ele>9.0</ele><time>2026-04-07T14:33:49.566Z</time></trkpt><trkpt lat="45.3406712" lon="11.8665641"><ele>9.0</ele><time>2026-04-07T14:33:51.56Z</time></trkpt><trkpt lat="45.3405914" lon="11.8665382"><ele>9.0</ele><time>2026-04-07T14:33:52.561Z</time></trkpt><trkpt lat="45.3404891" lon="11.8665252"><ele>9.0</ele><time>2026-04-07T14:33:53.558Z</time></trkpt><trkpt lat="45.3403728" lon="11.8665134"><ele>9.0</ele><time>2026-04-07T14:33:54.56Z</time></trkpt><trkpt lat="45.3402602" lon="11.8664966"><ele>9.0</ele><time>2026-04-07T14:33:55.55Z</time></trkpt><trkpt lat="45.3401439" lon="11.8664604"><ele>9.0</ele><time>2026-04-07T14:33:56.555Z</time></trkpt><trkpt lat="45.3400288" lon="11.866427"><ele>9.0</ele><time>2026-04-07T14:33:57.556Z</time></trkpt><trkpt lat="45.3399087" lon="11.8664003"><ele>9.0</ele><time>2026-04-07T14:33:58.558Z</time></trkpt><trkpt lat="45.3397954" lon="11.866374"><ele>9.0</ele><time>2026-04-07T14:33:59.548Z</time></trkpt><trkpt lat="45.3396832" lon="11.8663478"><ele>9.0</ele><time>2026-04-07T14:34:00.547Z</time></trkpt><trkpt lat="45.3395757" lon="11.8663258"><ele>9.0</ele><time>2026-04-07T14:34:01.558Z</time></trkpt><trkpt lat="45.3394861" lon="11.8663073"><ele>9.0</ele><time>2026-04-07T14:34:02.572Z</time></trkpt><trkpt lat="45.3393665" lon="11.8662676"><ele>9.0</ele><time>2026-04-07T14:34:04.548Z</time></trkpt><trkpt lat="45.3393015" lon="11.8662508"><ele>9.0</ele><time>2026-04-07T14:34:05.552Z</time></trkpt><trkpt lat="45.3391528" lon="11.8662221"><ele>9.0</ele><time>2026-04-07T14:34:07.561Z</time></trkpt><trkpt lat="45.339066" lon="11.8662016"><ele>9.0</ele><time>2026-04-07T14:34:08.557Z</time></trkpt><trkpt lat="45.33892" lon="11.8661914"><ele>9.333333333333334</ele><time>2026-04-07T14:34:09.562Z</time></trkpt><trkpt lat="45.3387484" lon="11.8661914"><ele>9.666666666666668</ele><time>2026-04-07T14:34:10.555Z</time></trkpt><trkpt lat="45.3385345" lon="11.8661935"><ele>10.0</ele><time>2026-04-07T14:34:11.563Z</time></trkpt><trkpt lat="45.338358" lon="11.8661801"><ele>10.0</ele><time>2026-04-07T14:34:12.579Z</time></trkpt><trkpt lat="45.3382072" lon="11.8661807"><ele>10.0</ele><time>2026-04-07T14:34:13.555Z</time></trkpt><trkpt lat="45.3380753" lon="11.8661722"><ele>10.0</ele><time>2026-04-07T14:34:14.552Z</time></trkpt><trkpt lat="45.3379127" lon="11.8661375"><ele>10.0</ele><time>2026-04-07T14:34:15.56Z</time></trkpt><trkpt lat="45.3377766" lon="11.8660891"><ele>9.75</ele><time>2026-04-07T14:34:16.554Z</time></trkpt><trkpt lat="45.3376373" lon="11.8660438"><ele>9.5</ele><time>2026-04-07T14:34:17.567Z</time></trkpt><trkpt lat="45.337514" lon="11.8660078"><ele>9.25</ele><time>2026-04-07T14:34:18.554Z</time></trkpt><trkpt lat="45.337399" lon="11.8659757"><ele>9.0</ele><time>2026-04-07T14:34:19.557Z</time></trkpt><trkpt lat="45.3372622" lon="11.8659515"><ele>9.5</ele><time>2026-04-07T14:34:20.56Z</time></trkpt><trkpt lat="45.337126" lon="11.8659094"><ele>10.0</ele><time>2026-04-07T14:34:21.565Z</time></trkpt><trkpt lat="45.3369937" lon="11.8658688"><ele>10.5</ele><time>2026-04-07T14:34:22.565Z</time></trkpt><trkpt lat="45.3368462" lon="11.8658533"><ele>11.0</ele><time>2026-04-07T14:34:23.563Z</time></trkpt><trkpt lat="45.3367202" lon="11.8658119"><ele>11.0</ele><time>2026-04-07T14:34:24.564Z</time></trkpt><trkpt lat="45.3366051" lon="11.8657678"><ele>11.0</ele><time>2026-04-07T14:34:25.565Z</time></trkpt><trkpt lat="45.3364964" lon="11.8657416"><ele>11.0</ele><time>2026-04-07T14:34:26.562Z</time></trkpt><trkpt lat="45.3363723" lon="11.8657289"><ele>11.0</ele><time>2026-04-07T14:34:27.561Z</time></trkpt><trkpt lat="45.3362303" lon="11.8657248"><ele>10.666666666666666</ele><time>2026-04-07T14:34:28.571Z</time></trkpt><trkpt lat="45.3360859" lon="11.865693"><ele>10.333333333333334</ele><time>2026-04-07T14:34:29.563Z</time></trkpt><trkpt lat="45.3359301" lon="11.8656744"><ele>10.0</ele><time>2026-04-07T14:34:30.563Z</time></trkpt><trkpt lat="45.3357627" lon="11.8656531"><ele>10.0</ele><time>2026-04-07T14:34:31.56Z</time></trkpt><trkpt lat="45.3355819" lon="11.8656338"><ele>10.0</ele><time>2026-04-07T14:34:32.564Z</time></trkpt><trkpt lat="45.335388" lon="11.8656094"><ele>10.0</ele><time>2026-04-07T14:34:33.561Z</time></trkpt><trkpt lat="45.3352036" lon="11.8655972"><ele>9.666666666666668</ele><time>2026-04-07T14:34:34.562Z</time></trkpt><trkpt lat="45.3350199" lon="11.8655389"><ele>9.333333333333334</ele><time>2026-04-07T14:34:35.56Z</time></trkpt><trkpt lat="45.334817" lon="11.865498"><ele>9.0</ele><time>2026-04-07T14:34:36.558Z</time></trkpt><trkpt lat="45.3346087" lon="11.8654241"><ele>9.666666666666666</ele><time>2026-04-07T14:34:37.563Z</time></trkpt><trkpt lat="45.3344024" lon="11.8654281"><ele>10.333333333333332</ele><time>2026-04-07T14:34:38.564Z</time></trkpt><trkpt lat="45.3342061" lon="11.8653884"><ele>11.0</ele><time>2026-04-07T14:34:39.56Z</time></trkpt><trkpt lat="45.3340256" lon="11.8653405"><ele>10.666666666666666</ele><time>2026-04-07T14:34:40.562Z</time></trkpt><trkpt lat="45.3338464" lon="11.8652715"><ele>10.333333333333334</ele><time>2026-04-07T14:34:41.549Z</time></trkpt><trkpt lat="45.3336778" lon="11.8652382"><ele>10.0</ele><time>2026-04-07T14:34:42.558Z</time></trkpt><trkpt lat="45.333543" lon="11.8651952"><ele>10.0</ele><time>2026-04-07T14:34:43.557Z</time></trkpt><trkpt lat="45.333412" lon="11.8651744"><ele>10.0</ele><time>2026-04-07T14:34:44.569Z</time></trkpt><trkpt lat="45.3332666" lon="11.865161"><ele>10.0</ele><time>2026-04-07T14:34:45.567Z</time></trkpt><trkpt lat="45.3331129" lon="11.8651386"><ele>10.0</ele><time>2026-04-07T14:34:46.568Z</time></trkpt><trkpt lat="45.3329597" lon="11.8651286"><ele>10.333333333333334</ele><time>2026-04-07T14:34:47.572Z</time></trkpt><trkpt lat="45.3328033" lon="11.8651332"><ele>10.666666666666666</ele><time>2026-04-07T14:34:48.567Z</time></trkpt><trkpt lat="45.3326335" lon="11.865112"><ele>11.0</ele><time>2026-04-07T14:34:49.565Z</time></trkpt><trkpt lat="45.3324819" lon="11.8650898"><ele>11.0</ele><time>2026-04-07T14:34:50.592Z</time></trkpt><trkpt lat="45.33236" lon="11.8650718"><ele>11.0</ele><time>2026-04-07T14:34:51.578Z</time></trkpt><trkpt lat="45.332219" lon="11.8650476"><ele>11.0</ele><time>2026-04-07T14:34:52.563Z</time></trkpt><trkpt lat="45.3320578" lon="11.8650406"><ele>11.0</ele><time>2026-04-07T14:34:53.559Z</time></trkpt><trkpt lat="45.3318853" lon="11.8650237"><ele>10.666666666666666</ele><time>2026-04-07T14:34:54.564Z</time></trkpt><trkpt lat="45.3316945" lon="11.8650083"><ele>10.333333333333334</ele><time>2026-04-07T14:34:55.566Z</time></trkpt><trkpt lat="45.3314979" lon="11.8649893"><ele>10.0</ele><time>2026-04-07T14:34:56.557Z</time></trkpt><trkpt lat="45.3312917" lon="11.8649704"><ele>9.666666666666668</ele><time>2026-04-07T14:34:57.56Z</time></trkpt><trkpt lat="45.331107" lon="11.864942"><ele>9.333333333333334</ele><time>2026-04-07T14:34:58.557Z</time></trkpt><trkpt lat="45.3309339" lon="11.8649144"><ele>9.0</ele><time>2026-04-07T14:34:59.59Z</time></trkpt><trkpt lat="45.3307539" lon="11.8649359"><ele>9.0</ele><time>2026-04-07T14:35:00.556Z</time></trkpt><trkpt lat="45.3305605" lon="11.8648956"><ele>9.0</ele><time>2026-04-07T14:35:01.569Z</time></trkpt><trkpt lat="45.3303569" lon="11.8648683"><ele>9.0</ele><time>2026-04-07T14:35:02.564Z</time></trkpt><trkpt lat="45.3301425" lon="11.8648508"><ele>9.0</ele><time>2026-04-07T14:35:03.561Z</time></trkpt><trkpt lat="45.3299407" lon="11.8648239"><ele>9.0</ele><time>2026-04-07T14:35:04.563Z</time></trkpt><trkpt lat="45.329733" lon="11.8647947"><ele>9.0</ele><time>2026-04-07T14:35:05.557Z</time></trkpt><trkpt lat="45.3295158" lon="11.8647659"><ele>9.0</ele><time>2026-04-07T14:35:06.551Z</time></trkpt><trkpt lat="45.3292996" lon="11.8647276"><ele>9.0</ele><time>2026-04-07T14:35:07.556Z</time></trkpt><trkpt lat="45.3290946" lon="11.8647106"><ele>9.0</ele><time>2026-04-07T14:35:08.56Z</time></trkpt><trkpt lat="45.3289186" lon="11.864689"><ele>8.666666666666666</ele><time>2026-04-07T14:35:09.563Z</time></trkpt><trkpt lat="45.3287598" lon="11.8646698"><ele>8.333333333333332</ele><time>2026-04-07T14:35:10.563Z</time></trkpt><trkpt lat="45.3285981" lon="11.864659"><ele>8.0</ele><time>2026-04-07T14:35:11.559Z</time></trkpt><trkpt lat="45.3284463" lon="11.8646532"><ele>8.0</ele><time>2026-04-07T14:35:12.563Z</time></trkpt><trkpt lat="45.3282875" lon="11.864639"><ele>8.0</ele><time>2026-04-07T14:35:13.563Z</time></trkpt><trkpt lat="45.3281157" lon="11.8646266"><ele>8.0</ele><time>2026-04-07T14:35:14.563Z</time></trkpt><trkpt lat="45.3279276" lon="11.8646032"><ele>8.0</ele><time>2026-04-07T14:35:15.561Z</time></trkpt><trkpt lat="45.3277527" lon="11.8645909"><ele>8.0</ele><time>2026-04-07T14:35:16.564Z</time></trkpt><trkpt lat="45.3276043" lon="11.8645829"><ele>8.0</ele><time>2026-04-07T14:35:17.561Z</time></trkpt><trkpt lat="45.3274568" lon="11.8645752"><ele>8.0</ele><time>2026-04-07T14:35:18.572Z</time></trkpt><trkpt lat="45.327319" lon="11.8645636"><ele>8.0</ele><time>2026-04-07T14:35:19.559Z</time></trkpt><trkpt lat="45.3271811" lon="11.8645185"><ele>8.0</ele><time>2026-04-07T14:35:20.563Z</time></trkpt><trkpt lat="45.3270298" lon="11.8644878"><ele>8.0</ele><time>2026-04-07T14:35:21.562Z</time></trkpt><trkpt lat="45.3269012" lon="11.8644779"><ele>7.666666666666666</ele><time>2026-04-07T14:35:22.561Z</time></trkpt><trkpt lat="45.3267763" lon="11.8644793"><ele>7.333333333333333</ele><time>2026-04-07T14:35:23.558Z</time></trkpt><trkpt lat="45.3266968" lon="11.8644555"><ele>7.0</ele><time>2026-04-07T14:35:24.565Z</time></trkpt><trkpt lat="45.3266215" lon="11.8644556"><ele>6.666666666666666</ele><time>2026-04-07T14:35:25.566Z</time></trkpt><trkpt lat="45.3265537" lon="11.8644117"><ele>6.333333333333333</ele><time>2026-04-07T14:35:26.557Z</time></trkpt><trkpt lat="45.3264723" lon="11.8644055"><ele>6.0</ele><time>2026-04-07T14:35:27.568Z</time></trkpt><trkpt lat="45.3264122" lon="11.8643769"><ele>6.199999999999999</ele><time>2026-04-07T14:35:28.583Z</time></trkpt><trkpt lat="45.326346" lon="11.8643535"><ele>6.3999999999999995</ele><time>2026-04-07T14:35:29.563Z</time></trkpt><trkpt lat="45.3262569" lon="11.8643592"><ele>6.6</ele><time>2026-04-07T14:35:30.563Z</time></trkpt><trkpt lat="45.3261528" lon="11.8643619"><ele>6.8</ele><time>2026-04-07T14:35:31.569Z</time></trkpt><trkpt lat="45.3260257" lon="11.8643557"><ele>7.0</ele><time>2026-04-07T14:35:32.566Z</time></trkpt><trkpt lat="45.3259033" lon="11.8643259"><ele>7.0</ele><time>2026-04-07T14:35:33.571Z</time></trkpt><trkpt lat="45.3257946" lon="11.8643052"><ele>6.999999999999999</ele><time>2026-04-07T14:35:34.569Z</time></trkpt><trkpt lat="45.3256915" lon="11.8642885"><ele>6.999999999999999</ele><time>2026-04-07T14:35:35.566Z</time></trkpt><trkpt lat="45.3255918" lon="11.8642722"><ele>7.0</ele><time>2026-04-07T14:35:36.567Z</time></trkpt><trkpt lat="45.3254922" lon="11.8642523"><ele>7.0</ele><time>2026-04-07T14:35:37.564Z</time></trkpt><trkpt lat="45.3253883" lon="11.8642415"><ele>7.166666666666667</ele><time>2026-04-07T14:35:38.56Z</time></trkpt><trkpt lat="45.325287" lon="11.8642263"><ele>7.333333333333334</ele><time>2026-04-07T14:35:39.566Z</time></trkpt><trkpt lat="45.3251994" lon="11.8642154"><ele>7.5</ele><time>2026-04-07T14:35:40.568Z</time></trkpt><trkpt lat="45.3251257" lon="11.8642051"><ele>7.666666666666666</ele><time>2026-04-07T14:35:41.557Z</time></trkpt><trkpt lat="45.3250568" lon="11.8641891"><ele>7.833333333333333</ele><time>2026-04-07T14:35:42.561Z</time></trkpt><trkpt lat="45.3249796" lon="11.864174"><ele>8.0</ele><time>2026-04-07T14:35:43.567Z</time></trkpt><trkpt lat="45.3248963" lon="11.8641627"><ele>8.0</ele><time>2026-04-07T14:35:44.564Z</time></trkpt><trkpt lat="45.3247994" lon="11.8641523"><ele>8.0</ele><time>2026-04-07T14:35:45.562Z</time></trkpt><trkpt lat="45.3246863" lon="11.8641457"><ele>8.0</ele><time>2026-04-07T14:35:46.574Z</time></trkpt><trkpt lat="45.3245637" lon="11.8641288"><ele>8.0</ele><time>2026-04-07T14:35:47.564Z</time></trkpt><trkpt lat="45.3244501" lon="11.8641137"><ele>8.0</ele><time>2026-04-07T14:35:48.567Z</time></trkpt><trkpt lat="45.3243526" lon="11.864095"><ele>8.0</ele><time>2026-04-07T14:35:49.569Z</time></trkpt><trkpt lat="45.3242589" lon="11.8640815"><ele>8.0</ele><time>2026-04-07T14:35:50.568Z</time></trkpt><trkpt lat="45.3241851" lon="11.8640691"><ele>8.0</ele><time>2026-04-07T14:35:51.568Z</time></trkpt><trkpt lat="45.3241205" lon="11.8640548"><ele>8.0</ele><time>2026-04-07T14:35:52.569Z</time></trkpt><trkpt lat="45.3239952" lon="11.8640336"><ele>8.0</ele><time>2026-04-07T14:35:54.562Z</time></trkpt><trkpt lat="45.3238985" lon="11.8640055"><ele>8.0</ele><time>2026-04-07T14:35:55.558Z</time></trkpt><trkpt lat="45.3237944" lon="11.8639602"><ele>8.0</ele><time>2026-04-07T14:35:56.568Z</time></trkpt><trkpt lat="45.3236912" lon="11.8639327"><ele>8.0</ele><time>2026-04-07T14:35:57.56Z</time></trkpt><trkpt lat="45.323595" lon="11.8639162"><ele>8.0</ele><time>2026-04-07T14:35:58.568Z</time></trkpt><trkpt lat="45.3235057" lon="11.8638973"><ele>8.0</ele><time>2026-04-07T14:35:59.565Z</time></trkpt><trkpt lat="45.3234036" lon="11.8638821"><ele>8.0</ele><time>2026-04-07T14:36:00.567Z</time></trkpt><trkpt lat="45.3232857" lon="11.8638666"><ele>8.0</ele><time>2026-04-07T14:36:01.566Z</time></trkpt><trkpt lat="45.3231659" lon="11.8638483"><ele>8.0</ele><time>2026-04-07T14:36:02.569Z</time></trkpt><trkpt lat="45.3230473" lon="11.8638312"><ele>8.0</ele><time>2026-04-07T14:36:03.565Z</time></trkpt><trkpt lat="45.3229294" lon="11.8638104"><ele>8.25</ele><time>2026-04-07T14:36:04.569Z</time></trkpt><trkpt lat="45.3228027" lon="11.8637902"><ele>8.5</ele><time>2026-04-07T14:36:05.562Z</time></trkpt><trkpt lat="45.3226703" lon="11.8637658"><ele>8.75</ele><time>2026-04-07T14:36:06.564Z</time></trkpt><trkpt lat="45.3225315" lon="11.86375"><ele>9.0</ele><time>2026-04-07T14:36:07.565Z</time></trkpt><trkpt lat="45.32237" lon="11.8637502"><ele>8.75</ele><time>2026-04-07T14:36:08.569Z</time></trkpt><trkpt lat="45.3222103" lon="11.8637419"><ele>8.5</ele><time>2026-04-07T14:36:09.565Z</time></trkpt><trkpt lat="45.3220637" lon="11.8637511"><ele>8.25</ele><time>2026-04-07T14:36:10.567Z</time></trkpt><trkpt lat="45.3219419" lon="11.8637416"><ele>8.0</ele><time>2026-04-07T14:36:11.563Z</time></trkpt><trkpt lat="45.3218171" lon="11.8637166"><ele>8.0</ele><time>2026-04-07T14:36:12.568Z</time></trkpt><trkpt lat="45.3216875" lon="11.8636994"><ele>8.0</ele><time>2026-04-07T14:36:13.569Z</time></trkpt><trkpt lat="45.3215688" lon="11.863671"><ele>8.0</ele><time>2026-04-07T14:36:14.566Z</time></trkpt><trkpt lat="45.3214462" lon="11.8636525"><ele>8.0</ele><time>2026-04-07T14:36:15.568Z</time></trkpt><trkpt lat="45.3213291" lon="11.8636353"><ele>8.0</ele><time>2026-04-07T14:36:16.571Z</time></trkpt><trkpt lat="45.3212111" lon="11.8636229"><ele>8.0</ele><time>2026-04-07T14:36:17.561Z</time></trkpt><trkpt lat="45.3210991" lon="11.863598"><ele>8.0</ele><time>2026-04-07T14:36:18.563Z</time></trkpt><trkpt lat="45.3209954" lon="11.863575"><ele>8.0</ele><time>2026-04-07T14:36:19.564Z</time></trkpt><trkpt lat="45.3209074" lon="11.8635471"><ele>8.0</ele><time>2026-04-07T14:36:20.565Z</time></trkpt><trkpt lat="45.3208237" lon="11.8635124"><ele>7.999999999999999</ele><time>2026-04-07T14:36:21.567Z</time></trkpt><trkpt lat="45.3207404" lon="11.8634939"><ele>8.0</ele><time>2026-04-07T14:36:22.565Z</time></trkpt><trkpt lat="45.3206639" lon="11.8634755"><ele>8.0</ele><time>2026-04-07T14:36:23.568Z</time></trkpt><trkpt lat="45.320595" lon="11.8634507"><ele>8.0</ele><time>2026-04-07T14:36:24.568Z</time></trkpt><trkpt lat="45.3205139" lon="11.8634295"><ele>7.999999999999999</ele><time>2026-04-07T14:36:26.563Z</time></trkpt><trkpt lat="45.3204442" lon="11.863416"><ele>8.0</ele><time>2026-04-07T14:36:35.558Z</time></trkpt><trkpt lat="45.3203469" lon="11.8634663"><ele>8.25</ele><time>2026-04-07T14:36:37.558Z</time></trkpt><trkpt lat="45.3203195" lon="11.8636615"><ele>8.5</ele><time>2026-04-07T14:36:39.561Z</time></trkpt><trkpt lat="45.320331" lon="11.8638359"><ele>8.75</ele><time>2026-04-07T14:36:40.561Z</time></trkpt><trkpt lat="45.3203437" lon="11.8640167"><ele>9.0</ele><time>2026-04-07T14:36:41.552Z</time></trkpt><trkpt lat="45.3203467" lon="11.8642011"><ele>9.0</ele><time>2026-04-07T14:36:42.56Z</time></trkpt><trkpt lat="45.3203537" lon="11.8643816"><ele>9.0</ele><time>2026-04-07T14:36:43.555Z</time></trkpt><trkpt lat="45.3203409" lon="11.8645386"><ele>9.0</ele><time>2026-04-07T14:36:44.562Z</time></trkpt><trkpt lat="45.3203335" lon="11.864718"><ele>9.0</ele><time>2026-04-07T14:36:45.559Z</time></trkpt><trkpt lat="45.3203313" lon="11.8649032"><ele>9.0</ele><time>2026-04-07T14:36:46.561Z</time></trkpt><trkpt lat="45.3203346" lon="11.8650394"><ele>9.0</ele><time>2026-04-07T14:36:47.557Z</time></trkpt><trkpt lat="45.3203652" lon="11.8651588"><ele>9.0</ele><time>2026-04-07T14:36:48.557Z</time></trkpt><trkpt lat="45.3204145" lon="11.865273"><ele>9.0</ele><time>2026-04-07T14:36:49.548Z</time></trkpt><trkpt lat="45.3204913" lon="11.865338"><ele>9.0</ele><time>2026-04-07T14:36:50.556Z</time></trkpt><trkpt lat="45.3206012" lon="11.8653306"><ele>8.8</ele><time>2026-04-07T14:36:51.551Z</time></trkpt><trkpt lat="45.3207256" lon="11.8653441"><ele>8.600000000000001</ele><time>2026-04-07T14:36:52.554Z</time></trkpt><trkpt lat="45.3208315" lon="11.8653536"><ele>8.4</ele><time>2026-04-07T14:36:53.555Z</time></trkpt><trkpt lat="45.3209243" lon="11.8653624"><ele>8.200000000000001</ele><time>2026-04-07T14:36:54.556Z</time></trkpt><trkpt lat="45.3210012" lon="11.8653672"><ele>8.0</ele><time>2026-04-07T14:36:55.551Z</time></trkpt><trkpt lat="45.3210739" lon="11.8653555"><ele>8.0</ele><time>2026-04-07T14:36:56.553Z</time></trkpt><trkpt lat="45.321137" lon="11.8653445"><ele>8.0</ele><time>2026-04-07T14:36:57.557Z</time></trkpt><trkpt lat="45.3212512" lon="11.8653136"><ele>8.0</ele><time>2026-04-07T14:36:59.557Z</time></trkpt><trkpt lat="45.3213351" lon="11.8652772"><ele>8.0</ele><time>2026-04-07T14:37:01.561Z</time></trkpt><trkpt lat="45.3213899" lon="11.8651631"><ele>8.0</ele><time>2026-04-07T14:37:03.559Z</time></trkpt><trkpt lat="45.321406" lon="11.8650105"><ele>8.333333333333332</ele><time>2026-04-07T14:37:05.562Z</time></trkpt><trkpt lat="45.3213604" lon="11.8648467"><ele>8.666666666666666</ele><time>2026-04-07T14:37:07.56Z</time></trkpt><trkpt lat="45.3212913" lon="11.8647515"><ele>9.0</ele><time>2026-04-07T14:37:09.558Z</time></trkpt><trkpt lat="45.3212279" lon="11.8647956"><ele>9.333333333333334</ele><time>2026-04-07T14:37:11.56Z</time></trkpt><trkpt lat="45.321255" lon="11.8648925"><ele>9.666666666666668</ele><time>2026-04-07T14:37:53.564Z</time></trkpt><trkpt lat="45.3212238" lon="11.8649722"><ele>10.0</ele><time>2026-04-07T14:38:41.58Z</time></trkpt><trkpt lat="45.3212906" lon="11.8649368"><ele>10.0</ele><time>2026-04-07T14:41:59.577Z</time></trkpt><trkpt lat="45.3212468" lon="11.8648458"><ele>10.0</ele><time>2026-04-07T14:42:02.568Z</time></trkpt><trkpt lat="45.3212016" lon="11.864955"><ele>10.0</ele><time>2026-04-07T14:42:05.572Z</time></trkpt><trkpt lat="45.3211737" lon="11.8650867"><ele>10.0</ele><time>2026-04-07T14:42:07.574Z</time></trkpt><trkpt lat="45.321069" lon="11.8651436"><ele>10.0</ele><time>2026-04-07T14:42:09.571Z</time></trkpt><trkpt lat="45.3209946" lon="11.8651398"><ele>10.0</ele><time>2026-04-07T14:42:10.56Z</time></trkpt><trkpt lat="45.3209036" lon="11.8651356"><ele>10.0</ele><time>2026-04-07T14:42:11.571Z</time></trkpt><trkpt lat="45.320812" lon="11.8651108"><ele>10.0</ele><time>2026-04-07T14:42:12.563Z</time></trkpt><trkpt lat="45.3207228" lon="11.8650768"><ele>10.0</ele><time>2026-04-07T14:42:13.568Z</time></trkpt><trkpt lat="45.320655" lon="11.8650678"><ele>10.0</ele><time>2026-04-07T14:42:14.572Z</time></trkpt><trkpt lat="45.3205932" lon="11.8650481"><ele>10.0</ele><time>2026-04-07T14:42:15.573Z</time></trkpt><trkpt lat="45.3204785" lon="11.8650039"><ele>9.833333333333334</ele><time>2026-04-07T14:42:17.571Z</time></trkpt><trkpt lat="45.3203731" lon="11.8649778"><ele>9.666666666666668</ele><time>2026-04-07T14:42:19.569Z</time></trkpt><trkpt lat="45.3203004" lon="11.8649627"><ele>9.5</ele><time>2026-04-07T14:42:21.571Z</time></trkpt><trkpt lat="45.3202406" lon="11.8649102"><ele>9.333333333333334</ele><time>2026-04-07T14:42:23.572Z</time></trkpt><trkpt lat="45.3202199" lon="11.8647633"><ele>9.166666666666666</ele><time>2026-04-07T14:42:25.562Z</time></trkpt><trkpt lat="45.3202344" lon="11.8646491"><ele>9.0</ele><time>2026-04-07T14:42:26.565Z</time></trkpt><trkpt lat="45.320257" lon="11.8644989"><ele>9.0</ele><time>2026-04-07T14:42:27.565Z</time></trkpt><trkpt lat="45.3202749" lon="11.8643538"><ele>9.0</ele><time>2026-04-07T14:42:28.564Z</time></trkpt><trkpt lat="45.3202891" lon="11.8642196"><ele>9.0</ele><time>2026-04-07T14:42:29.562Z</time></trkpt><trkpt lat="45.3202903" lon="11.8641002"><ele>9.0</ele><time>2026-04-07T14:42:30.561Z</time></trkpt><trkpt lat="45.3202893" lon="11.8639976"><ele>9.0</ele><time>2026-04-07T14:42:31.565Z</time></trkpt><trkpt lat="45.3202942" lon="11.8638356"><ele>9.0</ele><time>2026-04-07T14:42:33.562Z</time></trkpt><trkpt lat="45.3202913" lon="11.8636825"><ele>9.0</ele><time>2026-04-07T14:42:38.569Z</time></trkpt><trkpt lat="45.3203001" lon="11.8635827"><ele>9.0</ele><time>2026-04-07T14:42:41.57Z</time></trkpt><trkpt lat="45.320302" lon="11.863485"><ele>9.0</ele><time>2026-04-07T14:42:51.573Z</time></trkpt><trkpt lat="45.3202545" lon="11.8633473"><ele>9.0</ele><time>2026-04-07T14:42:53.577Z</time></trkpt><trkpt lat="45.3201877" lon="11.8632856"><ele>9.0</ele><time>2026-04-07T14:42:54.571Z</time></trkpt><trkpt lat="45.3200845" lon="11.8632738"><ele>9.0</ele><time>2026-04-07T14:42:55.569Z</time></trkpt><trkpt lat="45.3199673" lon="11.8632529"><ele>9.0</ele><time>2026-04-07T14:42:56.561Z</time></trkpt><trkpt lat="45.3198261" lon="11.8632498"><ele>9.0</ele><time>2026-04-07T14:42:57.565Z</time></trkpt><trkpt lat="45.319693" lon="11.8632322"><ele>9.0</ele><time>2026-04-07T14:42:58.57Z</time></trkpt><trkpt lat="45.3195671" lon="11.8632273"><ele>9.0</ele><time>2026-04-07T14:42:59.573Z</time></trkpt><trkpt lat="45.3194327" lon="11.8632287"><ele>9.0</ele><time>2026-04-07T14:43:00.57Z</time></trkpt><trkpt lat="45.3192928" lon="11.8632443"><ele>9.0</ele><time>2026-04-07T14:43:01.575Z</time></trkpt><trkpt lat="45.3191466" lon="11.863266"><ele>9.0</ele><time>2026-04-07T14:43:02.573Z</time></trkpt><trkpt lat="45.3190042" lon="11.8633084"><ele>8.666666666666666</ele><time>2026-04-07T14:43:03.569Z</time></trkpt><trkpt lat="45.3188509" lon="11.8633377"><ele>8.333333333333332</ele><time>2026-04-07T14:43:04.572Z</time></trkpt><trkpt lat="45.3186927" lon="11.8633593"><ele>8.0</ele><time>2026-04-07T14:43:05.567Z</time></trkpt><trkpt lat="45.3185223" lon="11.8633887"><ele>8.0</ele><time>2026-04-07T14:43:06.569Z</time></trkpt><trkpt lat="45.3183736" lon="11.8634"><ele>8.0</ele><time>2026-04-07T14:43:07.572Z</time></trkpt><trkpt lat="45.3182078" lon="11.8634425"><ele>8.0</ele><time>2026-04-07T14:43:08.568Z</time></trkpt><trkpt lat="45.3180338" lon="11.8634793"><ele>8.0</ele><time>2026-04-07T14:43:09.571Z</time></trkpt><trkpt lat="45.3178576" lon="11.8635035"><ele>8.0</ele><time>2026-04-07T14:43:10.567Z</time></trkpt><trkpt lat="45.3176713" lon="11.8635295"><ele>8.0</ele><time>2026-04-07T14:43:11.574Z</time></trkpt><trkpt lat="45.3174798" lon="11.8635517"><ele>8.0</ele><time>2026-04-07T14:43:12.577Z</time></trkpt><trkpt lat="45.3172922" lon="11.8635793"><ele>8.0</ele><time>2026-04-07T14:43:13.572Z</time></trkpt><trkpt lat="45.317131" lon="11.86362"><ele>8.0</ele><time>2026-04-07T14:43:14.575Z</time></trkpt><trkpt lat="45.3169705" lon="11.8636325"><ele>8.0</ele><time>2026-04-07T14:43:15.571Z</time></trkpt><trkpt lat="45.3168105" lon="11.8636285"><ele>8.0</ele><time>2026-04-07T14:43:16.568Z</time></trkpt><trkpt lat="45.316645" lon="11.8636533"><ele>8.0</ele><time>2026-04-07T14:43:17.57Z</time></trkpt><trkpt lat="45.3164783" lon="11.863701"><ele>8.25</ele><time>2026-04-07T14:43:18.57Z</time></trkpt><trkpt lat="45.3163354" lon="11.8637305"><ele>8.5</ele><time>2026-04-07T14:43:19.58Z</time></trkpt><trkpt lat="45.3161907" lon="11.8637423"><ele>8.75</ele><time>2026-04-07T14:43:20.565Z</time></trkpt><trkpt lat="45.3160495" lon="11.8637612"><ele>9.0</ele><time>2026-04-07T14:43:21.57Z</time></trkpt><trkpt lat="45.3159229" lon="11.8637678"><ele>9.0</ele><time>2026-04-07T14:43:22.571Z</time></trkpt><trkpt lat="45.3158196" lon="11.8637637"><ele>9.0</ele><time>2026-04-07T14:43:23.566Z</time></trkpt><trkpt lat="45.3157393" lon="11.8637799"><ele>9.0</ele><time>2026-04-07T14:43:24.581Z</time></trkpt><trkpt lat="45.3156705" lon="11.8637825"><ele>9.0</ele><time>2026-04-07T14:43:25.571Z</time></trkpt><trkpt lat="45.3155841" lon="11.8637963"><ele>9.0</ele><time>2026-04-07T14:43:27.572Z</time></trkpt><trkpt lat="45.3155144" lon="11.8638028"><ele>9.0</ele><time>2026-04-07T14:43:47.573Z</time></trkpt><trkpt lat="45.3154473" lon="11.8638109"><ele>9.0</ele><time>2026-04-07T14:43:49.575Z</time></trkpt><trkpt lat="45.3153798" lon="11.8638229"><ele>9.0</ele><time>2026-04-07T14:43:50.571Z</time></trkpt><trkpt lat="45.3153015" lon="11.8638402"><ele>9.0</ele><time>2026-04-07T14:43:51.575Z</time></trkpt><trkpt lat="45.3152076" lon="11.8638572"><ele>9.0</ele><time>2026-04-07T14:43:52.571Z</time></trkpt><trkpt lat="45.3151169" lon="11.8638669"><ele>9.0</ele><time>2026-04-07T14:43:53.579Z</time></trkpt><trkpt lat="45.3150439" lon="11.8638767"><ele>9.0</ele><time>2026-04-07T14:43:54.573Z</time></trkpt><trkpt lat="45.3149423" lon="11.8638732"><ele>9.0</ele><time>2026-04-07T14:43:56.576Z</time></trkpt><trkpt lat="45.314867" lon="11.8638644"><ele>9.0</ele><time>2026-04-07T14:43:58.575Z</time></trkpt><trkpt lat="45.3147654" lon="11.8638595"><ele>9.0</ele><time>2026-04-07T14:44:01.566Z</time></trkpt><trkpt lat="45.3146874" lon="11.863851"><ele>9.0</ele><time>2026-04-07T14:44:03.57Z</time></trkpt><trkpt lat="45.3146351" lon="11.8637622"><ele>9.0</ele><time>2026-04-07T14:44:06.573Z</time></trkpt><trkpt lat="45.314675" lon="11.8636592"><ele>9.0</ele><time>2026-04-07T14:44:08.575Z</time></trkpt><trkpt lat="45.3147" lon="11.8635553"><ele>8.666666666666666</ele><time>2026-04-07T14:44:10.578Z</time></trkpt><trkpt lat="45.3147156" lon="11.8634405"><ele>8.333333333333334</ele><time>2026-04-07T14:44:13.571Z</time></trkpt><trkpt lat="45.3147155" lon="11.863554"><ele>8.0</ele><time>2026-04-07T14:49:40.584Z</time></trkpt><trkpt lat="45.3146668" lon="11.8636164"><ele>7.666666666666667</ele><time>2026-04-07T14:51:44.579Z</time></trkpt><trkpt lat="45.3146615" lon="11.8637094"><ele>7.333333333333334</ele><time>2026-04-07T14:51:45.586Z</time></trkpt><trkpt lat="45.3146602" lon="11.8638099"><ele>7.0</ele><time>2026-04-07T14:51:46.568Z</time></trkpt><trkpt lat="45.3146072" lon="11.8639562"><ele>6.8</ele><time>2026-04-07T14:51:48.571Z</time></trkpt><trkpt lat="45.3145384" lon="11.8640004"><ele>6.6</ele><time>2026-04-07T14:51:49.571Z</time></trkpt><trkpt lat="45.3144437" lon="11.8640258"><ele>6.3999999999999995</ele><time>2026-04-07T14:51:50.58Z</time></trkpt><trkpt lat="45.3143243" lon="11.8640539"><ele>6.199999999999999</ele><time>2026-04-07T14:51:51.573Z</time></trkpt><trkpt lat="45.3141878" lon="11.8640672"><ele>6.0</ele><time>2026-04-07T14:51:52.572Z</time></trkpt><trkpt lat="45.3140508" lon="11.8640804"><ele>6.0</ele><time>2026-04-07T14:51:53.576Z</time></trkpt><trkpt lat="45.3139219" lon="11.8640961"><ele>6.0</ele><time>2026-04-07T14:51:54.567Z</time></trkpt><trkpt lat="45.313798" lon="11.8641055"><ele>6.0</ele><time>2026-04-07T14:51:55.579Z</time></trkpt><trkpt lat="45.313676" lon="11.8641178"><ele>6.0</ele><time>2026-04-07T14:51:56.587Z</time></trkpt><trkpt lat="45.3135619" lon="11.8641332"><ele>6.199999999999999</ele><time>2026-04-07T14:51:57.584Z</time></trkpt><trkpt lat="45.3134591" lon="11.8641571"><ele>6.3999999999999995</ele><time>2026-04-07T14:51:58.584Z</time></trkpt><trkpt lat="45.3133638" lon="11.8641907"><ele>6.6</ele><time>2026-04-07T14:51:59.583Z</time></trkpt><trkpt lat="45.3132754" lon="11.8642177"><ele>6.8</ele><time>2026-04-07T14:52:00.578Z</time></trkpt><trkpt lat="45.3131966" lon="11.8642327"><ele>7.0</ele><time>2026-04-07T14:52:01.58Z</time></trkpt><trkpt lat="45.3131127" lon="11.8642268"><ele>7.0</ele><time>2026-04-07T14:52:03.578Z</time></trkpt><trkpt lat="45.3130204" lon="11.8642039"><ele>6.999999999999999</ele><time>2026-04-07T14:52:06.575Z</time></trkpt><trkpt lat="45.3128988" lon="11.8642324"><ele>6.999999999999999</ele><time>2026-04-07T14:52:08.581Z</time></trkpt><trkpt lat="45.312821" lon="11.8642763"><ele>7.0</ele><time>2026-04-07T14:52:09.582Z</time></trkpt><trkpt lat="45.3127372" lon="11.8643176"><ele>7.0</ele><time>2026-04-07T14:52:10.583Z</time></trkpt><trkpt lat="45.3126369" lon="11.8643394"><ele>7.25</ele><time>2026-04-07T14:52:11.58Z</time></trkpt><trkpt lat="45.3125221" lon="11.8643425"><ele>7.5</ele><time>2026-04-07T14:52:12.578Z</time></trkpt><trkpt lat="45.3123947" lon="11.8643433"><ele>7.75</ele><time>2026-04-07T14:52:13.583Z</time></trkpt><trkpt lat="45.3122545" lon="11.8643541"><ele>8.0</ele><time>2026-04-07T14:52:14.585Z</time></trkpt><trkpt lat="45.312107" lon="11.8643603"><ele>7.333333333333333</ele><time>2026-04-07T14:52:15.589Z</time></trkpt><trkpt lat="45.3119503" lon="11.8643757"><ele>6.666666666666666</ele><time>2026-04-07T14:52:16.586Z</time></trkpt><trkpt lat="45.3117882" lon="11.8643997"><ele>6.0</ele><time>2026-04-07T14:52:17.586Z</time></trkpt><trkpt lat="45.3116437" lon="11.8644116"><ele>6.0</ele><time>2026-04-07T14:52:18.57Z</time></trkpt><trkpt lat="45.3115096" lon="11.8644272"><ele>6.0</ele><time>2026-04-07T14:52:19.583Z</time></trkpt><trkpt lat="45.3113694" lon="11.8644409"><ele>6.0</ele><time>2026-04-07T14:52:20.58Z</time></trkpt><trkpt lat="45.3112297" lon="11.8644628"><ele>6.0</ele><time>2026-04-07T14:52:21.578Z</time></trkpt><trkpt lat="45.311095" lon="11.8644978"><ele>6.0</ele><time>2026-04-07T14:52:22.583Z</time></trkpt><trkpt lat="45.3109463" lon="11.8645367"><ele>6.0</ele><time>2026-04-07T14:52:23.584Z</time></trkpt><trkpt lat="45.3107894" lon="11.8645634"><ele>6.0</ele><time>2026-04-07T14:52:24.575Z</time></trkpt><trkpt lat="45.3106398" lon="11.8645868"><ele>5.666666666666667</ele><time>2026-04-07T14:52:25.584Z</time></trkpt><trkpt lat="45.3104686" lon="11.8645958"><ele>5.333333333333334</ele><time>2026-04-07T14:52:26.581Z</time></trkpt><trkpt lat="45.3102972" lon="11.8646139"><ele>5.0</ele><time>2026-04-07T14:52:27.581Z</time></trkpt><trkpt lat="45.3101407" lon="11.8646407"><ele>5.0</ele><time>2026-04-07T14:52:28.578Z</time></trkpt><trkpt lat="45.3099788" lon="11.8646829"><ele>5.0</ele><time>2026-04-07T14:52:29.591Z</time></trkpt><trkpt lat="45.3098207" lon="11.8647167"><ele>5.0</ele><time>2026-04-07T14:52:30.578Z</time></trkpt><trkpt lat="45.3096597" lon="11.8647346"><ele>5.0</ele><time>2026-04-07T14:52:31.585Z</time></trkpt><trkpt lat="45.3094768" lon="11.8647686"><ele>5.0</ele><time>2026-04-07T14:52:32.584Z</time></trkpt><trkpt lat="45.3092962" lon="11.8647999"><ele>5.0</ele><time>2026-04-07T14:52:33.584Z</time></trkpt><trkpt lat="45.3091117" lon="11.8648549"><ele>5.0</ele><time>2026-04-07T14:52:34.585Z</time></trkpt><trkpt lat="45.3089198" lon="11.8649044"><ele>5.0</ele><time>2026-04-07T14:52:35.584Z</time></trkpt><trkpt lat="45.3087755" lon="11.8649669"><ele>5.0</ele><time>2026-04-07T14:52:36.587Z</time></trkpt><trkpt lat="45.3086012" lon="11.8650123"><ele>5.0</ele><time>2026-04-07T14:52:37.585Z</time></trkpt><trkpt lat="45.3084418" lon="11.8650584"><ele>5.0</ele><time>2026-04-07T14:52:38.582Z</time></trkpt><trkpt lat="45.3082798" lon="11.8650934"><ele>5.0</ele><time>2026-04-07T14:52:39.585Z</time></trkpt><trkpt lat="45.3081339" lon="11.865141"><ele>5.0</ele><time>2026-04-07T14:52:40.589Z</time></trkpt><trkpt lat="45.3079741" lon="11.8651913"><ele>5.0</ele><time>2026-04-07T14:52:41.582Z</time></trkpt><trkpt lat="45.3078335" lon="11.8652436"><ele>5.0</ele><time>2026-04-07T14:52:42.589Z</time></trkpt><trkpt lat="45.3077066" lon="11.8653059"><ele>5.0</ele><time>2026-04-07T14:52:43.579Z</time></trkpt><trkpt lat="45.3075651" lon="11.8653563"><ele>5.0</ele><time>2026-04-07T14:52:44.587Z</time></trkpt><trkpt lat="45.3074341" lon="11.8654059"><ele>5.0</ele><time>2026-04-07T14:52:45.585Z</time></trkpt><trkpt lat="45.3072891" lon="11.865468"><ele>5.0</ele><time>2026-04-07T14:52:46.578Z</time></trkpt><trkpt lat="45.3071257" lon="11.8655303"><ele>5.0</ele><time>2026-04-07T14:52:47.666Z</time></trkpt><trkpt lat="45.3069609" lon="11.8655557"><ele>5.0</ele><time>2026-04-07T14:52:48.576Z</time></trkpt><trkpt lat="45.3067954" lon="11.8656311"><ele>5.0</ele><time>2026-04-07T14:52:49.571Z</time></trkpt><trkpt lat="45.3066445" lon="11.8656973"><ele>5.0</ele><time>2026-04-07T14:52:50.583Z</time></trkpt><trkpt lat="45.3064892" lon="11.8657493"><ele>5.0</ele><time>2026-04-07T14:52:51.581Z</time></trkpt><trkpt lat="45.3063462" lon="11.8657998"><ele>5.0</ele><time>2026-04-07T14:52:52.579Z</time></trkpt><trkpt lat="45.3062092" lon="11.8658464"><ele>5.0</ele><time>2026-04-07T14:52:53.585Z</time></trkpt><trkpt lat="45.3060924" lon="11.8658904"><ele>5.0</ele><time>2026-04-07T14:52:54.583Z</time></trkpt><trkpt lat="45.3059751" lon="11.8659452"><ele>5.0</ele><time>2026-04-07T14:52:55.576Z</time></trkpt><trkpt lat="45.3058716" lon="11.866019"><ele>5.0</ele><time>2026-04-07T14:52:56.572Z</time></trkpt><trkpt lat="45.3058111" lon="11.8660838"><ele>5.0</ele><time>2026-04-07T14:52:57.577Z</time></trkpt><trkpt lat="45.3057512" lon="11.8661148"><ele>5.0</ele><time>2026-04-07T14:53:05.583Z</time></trkpt><trkpt lat="45.3056372" lon="11.8661305"><ele>5.0</ele><time>2026-04-07T14:53:07.572Z</time></trkpt><trkpt lat="45.3055445" lon="11.8661463"><ele>5.0</ele><time>2026-04-07T14:53:08.575Z</time></trkpt><trkpt lat="45.3054407" lon="11.8661745"><ele>5.0</ele><time>2026-04-07T14:53:09.577Z</time></trkpt><trkpt lat="45.3053343" lon="11.8662022"><ele>5.0</ele><time>2026-04-07T14:53:10.579Z</time></trkpt><trkpt lat="45.3052167" lon="11.8662529"><ele>5.0</ele><time>2026-04-07T14:53:11.573Z</time></trkpt><trkpt lat="45.3050782" lon="11.8663001"><ele>5.0</ele><time>2026-04-07T14:53:12.58Z</time></trkpt><trkpt lat="45.3049348" lon="11.8663511"><ele>5.0</ele><time>2026-04-07T14:53:13.57Z</time></trkpt><trkpt lat="45.3047772" lon="11.8664062"><ele>5.0</ele><time>2026-04-07T14:53:14.584Z</time></trkpt><trkpt lat="45.3045673" lon="11.8664863"><ele>5.0</ele><time>2026-04-07T14:53:15.58Z</time></trkpt><trkpt lat="45.304387" lon="11.866542"><ele>5.0</ele><time>2026-04-07T14:53:16.58Z</time></trkpt><trkpt lat="45.3042054" lon="11.8666136"><ele>5.0</ele><time>2026-04-07T14:53:17.574Z</time></trkpt><trkpt lat="45.3040471" lon="11.8667186"><ele>4.666666666666667</ele><time>2026-04-07T14:53:18.583Z</time></trkpt><trkpt lat="45.3038998" lon="11.8667892"><ele>4.333333333333333</ele><time>2026-04-07T14:53:19.576Z</time></trkpt><trkpt lat="45.3037324" lon="11.8668561"><ele>4.0</ele><time>2026-04-07T14:53:20.576Z</time></trkpt><trkpt lat="45.3035472" lon="11.8669472"><ele>4.0</ele><time>2026-04-07T14:53:21.59Z</time></trkpt><trkpt lat="45.3033825" lon="11.8670131"><ele>4.0</ele><time>2026-04-07T14:53:22.567Z</time></trkpt><trkpt lat="45.3032318" lon="11.8670361"><ele>4.0</ele><time>2026-04-07T14:53:23.581Z</time></trkpt><trkpt lat="45.3030998" lon="11.8670388"><ele>4.25</ele><time>2026-04-07T14:53:24.582Z</time></trkpt><trkpt lat="45.3029599" lon="11.8670676"><ele>4.5</ele><time>2026-04-07T14:53:25.579Z</time></trkpt><trkpt lat="45.3028315" lon="11.8671047"><ele>4.75</ele><time>2026-04-07T14:53:26.591Z</time></trkpt><trkpt lat="45.3027145" lon="11.8671235"><ele>5.0</ele><time>2026-04-07T14:53:27.579Z</time></trkpt><trkpt lat="45.3025601" lon="11.8671705"><ele>5.0</ele><time>2026-04-07T14:53:28.57Z</time></trkpt><trkpt lat="45.3023806" lon="11.8672411"><ele>5.0</ele><time>2026-04-07T14:53:29.575Z</time></trkpt><trkpt lat="45.3021893" lon="11.8673304"><ele>5.0</ele><time>2026-04-07T14:53:30.571Z</time></trkpt><trkpt lat="45.3020027" lon="11.8674097"><ele>5.0</ele><time>2026-04-07T14:53:31.581Z</time></trkpt><trkpt lat="45.3018067" lon="11.867482"><ele>5.0</ele><time>2026-04-07T14:53:32.574Z</time></trkpt><trkpt lat="45.3016037" lon="11.8675805"><ele>5.0</ele><time>2026-04-07T14:53:33.58Z</time></trkpt><trkpt lat="45.3013681" lon="11.8677132"><ele>5.0</ele><time>2026-04-07T14:53:34.578Z</time></trkpt><trkpt lat="45.3011187" lon="11.8678584"><ele>5.0</ele><time>2026-04-07T14:53:35.583Z</time></trkpt><trkpt lat="45.3009239" lon="11.8679773"><ele>5.0</ele><time>2026-04-07T14:53:36.575Z</time></trkpt><trkpt lat="45.3006931" lon="11.8681081"><ele>5.0</ele><time>2026-04-07T14:53:37.577Z</time></trkpt><trkpt lat="45.3004827" lon="11.8682403"><ele>5.0</ele><time>2026-04-07T14:53:38.581Z</time></trkpt><trkpt lat="45.300284" lon="11.8683594"><ele>5.0</ele><time>2026-04-07T14:53:39.577Z</time></trkpt><trkpt lat="45.3000671" lon="11.8684718"><ele>5.0</ele><time>2026-04-07T14:53:40.587Z</time></trkpt><trkpt lat="45.299858" lon="11.8685942"><ele>5.0</ele><time>2026-04-07T14:53:41.574Z</time></trkpt><trkpt lat="45.2996475" lon="11.8686994"><ele>5.0</ele><time>2026-04-07T14:53:42.573Z</time></trkpt><trkpt lat="45.2994614" lon="11.8688071"><ele>5.0</ele><time>2026-04-07T14:53:43.571Z</time></trkpt><trkpt lat="45.2992853" lon="11.8688625"><ele>5.0</ele><time>2026-04-07T14:53:44.572Z</time></trkpt><trkpt lat="45.2990957" lon="11.8689283"><ele>5.0</ele><time>2026-04-07T14:53:45.571Z</time></trkpt><trkpt lat="45.2988938" lon="11.8689312"><ele>5.0</ele><time>2026-04-07T14:53:46.576Z</time></trkpt><trkpt lat="45.2986622" lon="11.8689058"><ele>5.0</ele><time>2026-04-07T14:53:47.573Z</time></trkpt><trkpt lat="45.2984417" lon="11.8688636"><ele>5.0</ele><time>2026-04-07T14:53:48.575Z</time></trkpt><trkpt lat="45.2982387" lon="11.8688323"><ele>5.0</ele><time>2026-04-07T14:53:49.59Z</time></trkpt><trkpt lat="45.2980498" lon="11.8688046"><ele>5.0</ele><time>2026-04-07T14:53:50.573Z</time></trkpt><trkpt lat="45.2978857" lon="11.8687848"><ele>5.0</ele><time>2026-04-07T14:53:51.585Z</time></trkpt><trkpt lat="45.2977081" lon="11.8687821"><ele>5.0</ele><time>2026-04-07T14:53:52.577Z</time></trkpt><trkpt lat="45.2975292" lon="11.8687656"><ele>5.0</ele><time>2026-04-07T14:53:53.582Z</time></trkpt><trkpt lat="45.29732" lon="11.8687514"><ele>5.0</ele><time>2026-04-07T14:53:54.569Z</time></trkpt><trkpt lat="45.2971082" lon="11.8687527"><ele>5.0</ele><time>2026-04-07T14:53:55.582Z</time></trkpt><trkpt lat="45.2969219" lon="11.868761"><ele>5.0</ele><time>2026-04-07T14:53:56.576Z</time></trkpt><trkpt lat="45.296719" lon="11.8687672"><ele>5.0</ele><time>2026-04-07T14:53:57.576Z</time></trkpt><trkpt lat="45.2965233" lon="11.868785"><ele>5.0</ele><time>2026-04-07T14:53:58.579Z</time></trkpt><trkpt lat="45.2963092" lon="11.8688038"><ele>4.333333333333334</ele><time>2026-04-07T14:53:59.588Z</time></trkpt><trkpt lat="45.296107" lon="11.8688235"><ele>3.666666666666667</ele><time>2026-04-07T14:54:00.564Z</time></trkpt><trkpt lat="45.2959308" lon="11.8688896"><ele>3.0</ele><time>2026-04-07T14:54:01.577Z</time></trkpt><trkpt lat="45.2957098" lon="11.8689205"><ele>2.5</ele><time>2026-04-07T14:54:02.582Z</time></trkpt><trkpt lat="45.2954754" lon="11.8689894"><ele>2.0</ele><time>2026-04-07T14:54:03.577Z</time></trkpt><trkpt lat="45.2952287" lon="11.8690576"><ele>2.0</ele><time>2026-04-07T14:54:04.58Z</time></trkpt><trkpt lat="45.2949964" lon="11.8691019"><ele>2.0</ele><time>2026-04-07T14:54:05.582Z</time></trkpt><trkpt lat="45.2948052" lon="11.8691432"><ele>2.0</ele><time>2026-04-07T14:54:06.578Z</time></trkpt><trkpt lat="45.2945865" lon="11.8691922"><ele>2.6666666666666665</ele><time>2026-04-07T14:54:07.58Z</time></trkpt><trkpt lat="45.2943837" lon="11.8692493"><ele>3.333333333333333</ele><time>2026-04-07T14:54:08.585Z</time></trkpt><trkpt lat="45.2941727" lon="11.8692875"><ele>4.0</ele><time>2026-04-07T14:54:09.584Z</time></trkpt><trkpt lat="45.2939489" lon="11.8693451"><ele>3.5</ele><time>2026-04-07T14:54:10.585Z</time></trkpt><trkpt lat="45.2937274" lon="11.8694142"><ele>3.0</ele><time>2026-04-07T14:54:11.589Z</time></trkpt><trkpt lat="45.2935057" lon="11.8694797"><ele>3.0</ele><time>2026-04-07T14:54:12.573Z</time></trkpt><trkpt lat="45.2932827" lon="11.8695259"><ele>3.0</ele><time>2026-04-07T14:54:13.585Z</time></trkpt><trkpt lat="45.2930555" lon="11.8695556"><ele>2.5</ele><time>2026-04-07T14:54:14.592Z</time></trkpt><trkpt lat="45.2928334" lon="11.8696113"><ele>2.0</ele><time>2026-04-07T14:54:15.574Z</time></trkpt><trkpt lat="45.2926018" lon="11.8696758"><ele>2.0</ele><time>2026-04-07T14:54:16.582Z</time></trkpt><trkpt lat="45.2923798" lon="11.8697321"><ele>2.0</ele><time>2026-04-07T14:54:17.596Z</time></trkpt><trkpt lat="45.29216" lon="11.8697755"><ele>2.0</ele><time>2026-04-07T14:54:18.576Z</time></trkpt><trkpt lat="45.2919409" lon="11.8697957"><ele>2.5</ele><time>2026-04-07T14:54:19.579Z</time></trkpt><trkpt lat="45.2917152" lon="11.8698393"><ele>3.0</ele><time>2026-04-07T14:54:20.593Z</time></trkpt><trkpt lat="45.2914822" lon="11.869907"><ele>3.0</ele><time>2026-04-07T14:54:21.57Z</time></trkpt><trkpt lat="45.291241" lon="11.8699619"><ele>3.0</ele><time>2026-04-07T14:54:22.586Z</time></trkpt><trkpt lat="45.2910333" lon="11.8700146"><ele>3.0</ele><time>2026-04-07T14:54:23.58Z</time></trkpt><trkpt lat="45.2908535" lon="11.8700671"><ele>3.0</ele><time>2026-04-07T14:54:24.577Z</time></trkpt><trkpt lat="45.2906638" lon="11.8701072"><ele>3.0</ele><time>2026-04-07T14:54:25.579Z</time></trkpt><trkpt lat="45.2904715" lon="11.870145"><ele>2.3333333333333335</ele><time>2026-04-07T14:54:26.58Z</time></trkpt><trkpt lat="45.2903085" lon="11.8701759"><ele>1.6666666666666665</ele><time>2026-04-07T14:54:27.577Z</time></trkpt><trkpt lat="45.2901083" lon="11.8702044"><ele>1.0</ele><time>2026-04-07T14:54:28.584Z</time></trkpt><trkpt lat="45.2899138" lon="11.8702259"><ele>2.0</ele><time>2026-04-07T14:54:29.578Z</time></trkpt><trkpt lat="45.2897177" lon="11.8702523"><ele>3.0</ele><time>2026-04-07T14:54:30.575Z</time></trkpt><trkpt lat="45.2895089" lon="11.8702866"><ele>4.0</ele><time>2026-04-07T14:54:31.576Z</time></trkpt><trkpt lat="45.2893297" lon="11.8702953"><ele>4.0</ele><time>2026-04-07T14:54:32.575Z</time></trkpt><trkpt lat="45.2891488" lon="11.8703649"><ele>4.0</ele><time>2026-04-07T14:54:33.571Z</time></trkpt><trkpt lat="45.2889923" lon="11.8704291"><ele>4.0</ele><time>2026-04-07T14:54:34.582Z</time></trkpt><trkpt lat="45.2888165" lon="11.8704671"><ele>4.0</ele><time>2026-04-07T14:54:35.581Z</time></trkpt><trkpt lat="45.2885974" lon="11.8705093"><ele>4.0</ele><time>2026-04-07T14:54:36.575Z</time></trkpt><trkpt lat="45.2883938" lon="11.870546"><ele>4.0</ele><time>2026-04-07T14:54:37.57Z</time></trkpt><trkpt lat="45.2881769" lon="11.8706097"><ele>4.333333333333333</ele><time>2026-04-07T14:54:38.568Z</time></trkpt><trkpt lat="45.2879646" lon="11.8706815"><ele>4.666666666666667</ele><time>2026-04-07T14:54:39.563Z</time></trkpt><trkpt lat="45.28775" lon="11.8706941"><ele>5.0</ele><time>2026-04-07T14:54:40.58Z</time></trkpt><trkpt lat="45.2875668" lon="11.8707433"><ele>5.0</ele><time>2026-04-07T14:54:41.576Z</time></trkpt><trkpt lat="45.2874048" lon="11.8707699"><ele>5.0</ele><time>2026-04-07T14:54:42.571Z</time></trkpt><trkpt lat="45.2872214" lon="11.8707982"><ele>5.0</ele><time>2026-04-07T14:54:43.574Z</time></trkpt><trkpt lat="45.2870496" lon="11.8708096"><ele>5.0</ele><time>2026-04-07T14:54:44.574Z</time></trkpt><trkpt lat="45.2868752" lon="11.8707925"><ele>5.0</ele><time>2026-04-07T14:54:45.57Z</time></trkpt><trkpt lat="45.2867095" lon="11.8707674"><ele>5.0</ele><time>2026-04-07T14:54:46.573Z</time></trkpt><trkpt lat="45.2865422" lon="11.8707278"><ele>5.0</ele><time>2026-04-07T14:54:47.575Z</time></trkpt><trkpt lat="45.2863911" lon="11.8706955"><ele>5.0</ele><time>2026-04-07T14:54:48.581Z</time></trkpt><trkpt lat="45.2862885" lon="11.8706431"><ele>5.0</ele><time>2026-04-07T14:54:49.581Z</time></trkpt><trkpt lat="45.28618" lon="11.8705959"><ele>5.0</ele><time>2026-04-07T14:54:50.58Z</time></trkpt><trkpt lat="45.2860904" lon="11.8705794"><ele>5.0</ele><time>2026-04-07T14:54:51.587Z</time></trkpt><trkpt lat="45.2860019" lon="11.870558"><ele>5.0</ele><time>2026-04-07T14:54:52.575Z</time></trkpt><trkpt lat="45.285919" lon="11.870546"><ele>5.0</ele><time>2026-04-07T14:54:53.579Z</time></trkpt><trkpt lat="45.285824" lon="11.8705002"><ele>5.0</ele><time>2026-04-07T14:54:54.581Z</time></trkpt><trkpt lat="45.2857442" lon="11.87045"><ele>5.0</ele><time>2026-04-07T14:54:55.58Z</time></trkpt><trkpt lat="45.285673" lon="11.8704124"><ele>5.0</ele><time>2026-04-07T14:54:56.59Z</time></trkpt><trkpt lat="45.2856144" lon="11.8703784"><ele>4.8</ele><time>2026-04-07T14:54:57.585Z</time></trkpt><trkpt lat="45.285509" lon="11.8703254"><ele>4.6</ele><time>2026-04-07T14:54:59.584Z</time></trkpt><trkpt lat="45.2853861" lon="11.8702839"><ele>4.4</ele><time>2026-04-07T14:55:01.585Z</time></trkpt><trkpt lat="45.2852993" lon="11.8702681"><ele>4.2</ele><time>2026-04-07T14:55:02.585Z</time></trkpt><trkpt lat="45.28521" lon="11.8702586"><ele>4.0</ele><time>2026-04-07T14:55:03.578Z</time></trkpt><trkpt lat="45.2851126" lon="11.8702647"><ele>4.0</ele><time>2026-04-07T14:55:04.58Z</time></trkpt><trkpt lat="45.2850017" lon="11.870272"><ele>4.0</ele><time>2026-04-07T14:55:05.574Z</time></trkpt><trkpt lat="45.2848722" lon="11.8702822"><ele>4.0</ele><time>2026-04-07T14:55:06.583Z</time></trkpt><trkpt lat="45.2847409" lon="11.8703006"><ele>4.0</ele><time>2026-04-07T14:55:07.576Z</time></trkpt><trkpt lat="45.2846011" lon="11.8703258"><ele>3.75</ele><time>2026-04-07T14:55:08.589Z</time></trkpt><trkpt lat="45.2844528" lon="11.8703352"><ele>3.5</ele><time>2026-04-07T14:55:09.584Z</time></trkpt><trkpt lat="45.2843044" lon="11.8703054"><ele>3.25</ele><time>2026-04-07T14:55:10.591Z</time></trkpt><trkpt lat="45.2841718" lon="11.8702729"><ele>3.0</ele><time>2026-04-07T14:55:11.588Z</time></trkpt><trkpt lat="45.2840275" lon="11.8702395"><ele>3.5</ele><time>2026-04-07T14:55:12.595Z</time></trkpt><trkpt lat="45.2839138" lon="11.8702071"><ele>4.0</ele><time>2026-04-07T14:55:13.591Z</time></trkpt><trkpt lat="45.283788" lon="11.8701586"><ele>4.5</ele><time>2026-04-07T14:55:14.59Z</time></trkpt><trkpt lat="45.2836593" lon="11.8700892"><ele>5.0</ele><time>2026-04-07T14:55:15.589Z</time></trkpt><trkpt lat="45.2835172" lon="11.8700312"><ele>5.0</ele><time>2026-04-07T14:55:16.586Z</time></trkpt><trkpt lat="45.283369" lon="11.8699704"><ele>5.0</ele><time>2026-04-07T14:55:17.578Z</time></trkpt><trkpt lat="45.2832411" lon="11.8699198"><ele>5.0</ele><time>2026-04-07T14:55:18.584Z</time></trkpt><trkpt lat="45.2831264" lon="11.8698749"><ele>5.0</ele><time>2026-04-07T14:55:19.591Z</time></trkpt><trkpt lat="45.2830137" lon="11.8698211"><ele>4.75</ele><time>2026-04-07T14:55:20.586Z</time></trkpt><trkpt lat="45.2829095" lon="11.8697737"><ele>4.5</ele><time>2026-04-07T14:55:21.587Z</time></trkpt><trkpt lat="45.2827956" lon="11.8697329"><ele>4.25</ele><time>2026-04-07T14:55:22.597Z</time></trkpt><trkpt lat="45.2826799" lon="11.8696993"><ele>4.0</ele><time>2026-04-07T14:55:23.583Z</time></trkpt><trkpt lat="45.2825618" lon="11.8696647"><ele>4.0</ele><time>2026-04-07T14:55:24.591Z</time></trkpt><trkpt lat="45.2824559" lon="11.8696261"><ele>4.0</ele><time>2026-04-07T14:55:25.589Z</time></trkpt><trkpt lat="45.2823526" lon="11.8695769"><ele>4.0</ele><time>2026-04-07T14:55:26.584Z</time></trkpt><trkpt lat="45.2822432" lon="11.8695114"><ele>4.0</ele><time>2026-04-07T14:55:27.573Z</time></trkpt><trkpt lat="45.2821351" lon="11.8694725"><ele>4.0</ele><time>2026-04-07T14:55:28.579Z</time></trkpt><trkpt lat="45.28205" lon="11.8694278"><ele>3.833333333333333</ele><time>2026-04-07T14:55:29.583Z</time></trkpt><trkpt lat="45.2819777" lon="11.8693731"><ele>3.6666666666666665</ele><time>2026-04-07T14:55:30.575Z</time></trkpt><trkpt lat="45.2819322" lon="11.8693003"><ele>3.5</ele><time>2026-04-07T14:55:31.572Z</time></trkpt><trkpt lat="45.2818948" lon="11.8692103"><ele>3.333333333333333</ele><time>2026-04-07T14:55:32.585Z</time></trkpt><trkpt lat="45.2818659" lon="11.869093"><ele>3.1666666666666665</ele><time>2026-04-07T14:55:33.581Z</time></trkpt><trkpt lat="45.2818294" lon="11.8689921"><ele>3.0</ele><time>2026-04-07T14:55:34.577Z</time></trkpt><trkpt lat="45.2817843" lon="11.8688918"><ele>3.0</ele><time>2026-04-07T14:55:35.586Z</time></trkpt><trkpt lat="45.2817078" lon="11.868817"><ele>3.0</ele><time>2026-04-07T14:55:36.58Z</time></trkpt><trkpt lat="45.2816311" lon="11.8687749"><ele>3.0</ele><time>2026-04-07T14:55:37.581Z</time></trkpt><trkpt lat="45.2815515" lon="11.8687743"><ele>3.0</ele><time>2026-04-07T14:55:38.589Z</time></trkpt><trkpt lat="45.2814677" lon="11.8687859"><ele>3.0</ele><time>2026-04-07T14:55:39.564Z</time></trkpt><trkpt lat="45.2813926" lon="11.8688146"><ele>3.0</ele><time>2026-04-07T14:55:40.592Z</time></trkpt><trkpt lat="45.2813366" lon="11.8688894"><ele>3.3333333333333335</ele><time>2026-04-07T14:55:41.581Z</time></trkpt><trkpt lat="45.2812791" lon="11.86896"><ele>3.666666666666667</ele><time>2026-04-07T14:55:42.581Z</time></trkpt><trkpt lat="45.2812115" lon="11.8690184"><ele>4.0</ele><time>2026-04-07T14:55:43.584Z</time></trkpt><trkpt lat="45.2811274" lon="11.8690582"><ele>4.333333333333334</ele><time>2026-04-07T14:55:44.58Z</time></trkpt><trkpt lat="45.2810322" lon="11.8690597"><ele>4.666666666666667</ele><time>2026-04-07T14:55:45.585Z</time></trkpt><trkpt lat="45.280927" lon="11.8690327"><ele>5.0</ele><time>2026-04-07T14:55:46.578Z</time></trkpt><trkpt lat="45.2808139" lon="11.8689958"><ele>5.0</ele><time>2026-04-07T14:55:47.575Z</time></trkpt><trkpt lat="45.2806909" lon="11.8689547"><ele>5.0</ele><time>2026-04-07T14:55:48.58Z</time></trkpt><trkpt lat="45.2805703" lon="11.8689021"><ele>5.0</ele><time>2026-04-07T14:55:49.577Z</time></trkpt><trkpt lat="45.2804544" lon="11.8688556"><ele>5.0</ele><time>2026-04-07T14:55:50.584Z</time></trkpt><trkpt lat="45.2803343" lon="11.8688068"><ele>5.0</ele><time>2026-04-07T14:55:51.576Z</time></trkpt><trkpt lat="45.2802013" lon="11.8687612"><ele>5.0</ele><time>2026-04-07T14:55:52.584Z</time></trkpt><trkpt lat="45.2800263" lon="11.8687163"><ele>5.0</ele><time>2026-04-07T14:55:53.584Z</time></trkpt><trkpt lat="45.2798398" lon="11.8686489"><ele>4.666666666666667</ele><time>2026-04-07T14:55:54.574Z</time></trkpt><trkpt lat="45.2796522" lon="11.8685826"><ele>4.333333333333333</ele><time>2026-04-07T14:55:55.574Z</time></trkpt><trkpt lat="45.2794642" lon="11.8684983"><ele>4.0</ele><time>2026-04-07T14:55:56.576Z</time></trkpt><trkpt lat="45.2792849" lon="11.8683977"><ele>4.0</ele><time>2026-04-07T14:55:57.575Z</time></trkpt><trkpt lat="45.2791143" lon="11.8683249"><ele>4.0</ele><time>2026-04-07T14:55:58.574Z</time></trkpt><trkpt lat="45.2789356" lon="11.8682447"><ele>4.0</ele><time>2026-04-07T14:55:59.579Z</time></trkpt><trkpt lat="45.2787444" lon="11.8681453"><ele>4.0</ele><time>2026-04-07T14:56:00.571Z</time></trkpt><trkpt lat="45.2785503" lon="11.8680245"><ele>4.0</ele><time>2026-04-07T14:56:01.574Z</time></trkpt><trkpt lat="45.2783421" lon="11.8679305"><ele>4.0</ele><time>2026-04-07T14:56:02.58Z</time></trkpt><trkpt lat="45.2781229" lon="11.8677992"><ele>3.6666666666666665</ele><time>2026-04-07T14:56:03.569Z</time></trkpt><trkpt lat="45.2779328" lon="11.867687"><ele>3.333333333333333</ele><time>2026-04-07T14:56:04.576Z</time></trkpt><trkpt lat="45.2777582" lon="11.8676041"><ele>3.0</ele><time>2026-04-07T14:56:05.569Z</time></trkpt><trkpt lat="45.2775979" lon="11.8675358"><ele>2.8</ele><time>2026-04-07T14:56:06.57Z</time></trkpt><trkpt lat="45.2774443" lon="11.8674873"><ele>2.5999999999999996</ele><time>2026-04-07T14:56:07.566Z</time></trkpt><trkpt lat="45.2773269" lon="11.8674591"><ele>2.4000000000000004</ele><time>2026-04-07T14:56:08.575Z</time></trkpt><trkpt lat="45.2772581" lon="11.867444"><ele>2.2</ele><time>2026-04-07T14:56:09.577Z</time></trkpt><trkpt lat="45.2771784" lon="11.8674161"><ele>2.0</ele><time>2026-04-07T14:56:10.574Z</time></trkpt><trkpt lat="45.2770873" lon="11.8673746"><ele>2.5</ele><time>2026-04-07T14:56:11.58Z</time></trkpt><trkpt lat="45.276968" lon="11.8673485"><ele>3.0</ele><time>2026-04-07T14:56:12.572Z</time></trkpt><trkpt lat="45.2768093" lon="11.8673056"><ele>3.5</ele><time>2026-04-07T14:56:13.579Z</time></trkpt><trkpt lat="45.2766768" lon="11.8672533"><ele>4.0</ele><time>2026-04-07T14:56:14.58Z</time></trkpt><trkpt lat="45.2765434" lon="11.867218"><ele>3.75</ele><time>2026-04-07T14:56:15.582Z</time></trkpt><trkpt lat="45.2764113" lon="11.8671741"><ele>3.5</ele><time>2026-04-07T14:56:16.577Z</time></trkpt><trkpt lat="45.2762593" lon="11.8671302"><ele>3.25</ele><time>2026-04-07T14:56:17.591Z</time></trkpt><trkpt lat="45.2761367" lon="11.867063"><ele>3.0</ele><time>2026-04-07T14:56:18.591Z</time></trkpt><trkpt lat="45.2759955" lon="11.8670135"><ele>3.0</ele><time>2026-04-07T14:56:19.582Z</time></trkpt><trkpt lat="45.2758708" lon="11.8669805"><ele>3.0</ele><time>2026-04-07T14:56:20.589Z</time></trkpt><trkpt lat="45.2757358" lon="11.8669186"><ele>3.0</ele><time>2026-04-07T14:56:21.58Z</time></trkpt><trkpt lat="45.2756072" lon="11.866863"><ele>3.0</ele><time>2026-04-07T14:56:22.587Z</time></trkpt><trkpt lat="45.2754651" lon="11.8667931"><ele>3.0</ele><time>2026-04-07T14:56:23.58Z</time></trkpt><trkpt lat="45.2753152" lon="11.866718"><ele>3.0</ele><time>2026-04-07T14:56:24.586Z</time></trkpt><trkpt lat="45.2751779" lon="11.8666529"><ele>3.0</ele><time>2026-04-07T14:56:25.58Z</time></trkpt><trkpt lat="45.2750348" lon="11.8665904"><ele>3.0</ele><time>2026-04-07T14:56:26.582Z</time></trkpt><trkpt lat="45.2748694" lon="11.8665281"><ele>3.0</ele><time>2026-04-07T14:56:27.594Z</time></trkpt><trkpt lat="45.2747198" lon="11.8664693"><ele>3.0</ele><time>2026-04-07T14:56:28.577Z</time></trkpt><trkpt lat="45.2745388" lon="11.8664"><ele>2.6666666666666665</ele><time>2026-04-07T14:56:29.581Z</time></trkpt><trkpt lat="45.2743602" lon="11.866348"><ele>2.333333333333333</ele><time>2026-04-07T14:56:30.59Z</time></trkpt><trkpt lat="45.2741691" lon="11.8662735"><ele>2.0</ele><time>2026-04-07T14:56:31.584Z</time></trkpt><trkpt lat="45.2739946" lon="11.8662082"><ele>2.0</ele><time>2026-04-07T14:56:32.585Z</time></trkpt><trkpt lat="45.2737994" lon="11.8661388"><ele>2.0</ele><time>2026-04-07T14:56:33.58Z</time></trkpt><trkpt lat="45.2736048" lon="11.8660503"><ele>2.0</ele><time>2026-04-07T14:56:34.581Z</time></trkpt><trkpt lat="45.2734088" lon="11.8659454"><ele>2.0</ele><time>2026-04-07T14:56:35.579Z</time></trkpt><trkpt lat="45.2731954" lon="11.8658332"><ele>2.0</ele><time>2026-04-07T14:56:36.588Z</time></trkpt><trkpt lat="45.2729823" lon="11.8657628"><ele>2.0</ele><time>2026-04-07T14:56:37.581Z</time></trkpt><trkpt lat="45.2727926" lon="11.8657038"><ele>2.0</ele><time>2026-04-07T14:56:38.585Z</time></trkpt><trkpt lat="45.2726011" lon="11.8656218"><ele>2.0</ele><time>2026-04-07T14:56:39.589Z</time></trkpt><trkpt lat="45.2724203" lon="11.8655449"><ele>2.0</ele><time>2026-04-07T14:56:40.59Z</time></trkpt><trkpt lat="45.2722413" lon="11.8654683"><ele>2.333333333333333</ele><time>2026-04-07T14:56:41.59Z</time></trkpt><trkpt lat="45.2720395" lon="11.8653793"><ele>2.6666666666666665</ele><time>2026-04-07T14:56:42.589Z</time></trkpt><trkpt lat="45.2718466" lon="11.8652941"><ele>3.0</ele><time>2026-04-07T14:56:43.582Z</time></trkpt><trkpt lat="45.2716545" lon="11.8652182"><ele>3.0</ele><time>2026-04-07T14:56:44.588Z</time></trkpt><trkpt lat="45.2714846" lon="11.8651458"><ele>3.0</ele><time>2026-04-07T14:56:45.587Z</time></trkpt><trkpt lat="45.2713112" lon="11.8650755"><ele>3.0</ele><time>2026-04-07T14:56:46.588Z</time></trkpt><trkpt lat="45.2711382" lon="11.8650128"><ele>2.3333333333333335</ele><time>2026-04-07T14:56:47.585Z</time></trkpt><trkpt lat="45.2709751" lon="11.8649418"><ele>1.6666666666666665</ele><time>2026-04-07T14:56:48.59Z</time></trkpt><trkpt lat="45.2708187" lon="11.8648698"><ele>1.0</ele><time>2026-04-07T14:56:49.59Z</time></trkpt><trkpt lat="45.2706666" lon="11.8648103"><ele>0.75</ele><time>2026-04-07T14:56:50.59Z</time></trkpt><trkpt lat="45.2705296" lon="11.8647516"><ele>0.5</ele><time>2026-04-07T14:56:51.589Z</time></trkpt><trkpt lat="45.2703935" lon="11.8646802"><ele>0.25</ele><time>2026-04-07T14:56:52.582Z</time></trkpt><trkpt lat="45.2702405" lon="11.8646177"><ele>0.0</ele><time>2026-04-07T14:56:53.589Z</time></trkpt><trkpt lat="45.2701147" lon="11.8645687"><ele>0.0</ele><time>2026-04-07T14:56:54.584Z</time></trkpt><trkpt lat="45.2699958" lon="11.8645375"><ele>0.0</ele><time>2026-04-07T14:56:55.593Z</time></trkpt><trkpt lat="45.2698892" lon="11.8644735"><ele>0.0</ele><time>2026-04-07T14:56:56.588Z</time></trkpt><trkpt lat="45.2697583" lon="11.8644304"><ele>0.0</ele><time>2026-04-07T14:56:57.589Z</time></trkpt><trkpt lat="45.2696227" lon="11.8643864"><ele>0.3333333333333333</ele><time>2026-04-07T14:56:58.578Z</time></trkpt><trkpt lat="45.2694902" lon="11.864324"><ele>0.6666666666666666</ele><time>2026-04-07T14:56:59.599Z</time></trkpt><trkpt lat="45.2693308" lon="11.8642322"><ele>1.0</ele><time>2026-04-07T14:57:00.59Z</time></trkpt><trkpt lat="45.2691623" lon="11.8641515"><ele>1.0</ele><time>2026-04-07T14:57:01.581Z</time></trkpt><trkpt lat="45.2690064" lon="11.86409"><ele>1.0</ele><time>2026-04-07T14:57:02.597Z</time></trkpt><trkpt lat="45.2688649" lon="11.8640147"><ele>1.0</ele><time>2026-04-07T14:57:03.583Z</time></trkpt><trkpt lat="45.2687172" lon="11.8639535"><ele>1.75</ele><time>2026-04-07T14:57:04.587Z</time></trkpt><trkpt lat="45.2685906" lon="11.863899"><ele>2.5</ele><time>2026-04-07T14:57:05.582Z</time></trkpt><trkpt lat="45.2684692" lon="11.8638497"><ele>3.25</ele><time>2026-04-07T14:57:06.577Z</time></trkpt><trkpt lat="45.2683359" lon="11.8638123"><ele>4.0</ele><time>2026-04-07T14:57:07.581Z</time></trkpt><trkpt lat="45.2682162" lon="11.8637613"><ele>3.75</ele><time>2026-04-07T14:57:08.582Z</time></trkpt><trkpt lat="45.2681039" lon="11.8637428"><ele>3.5</ele><time>2026-04-07T14:57:09.583Z</time></trkpt><trkpt lat="45.2679856" lon="11.8636982"><ele>3.25</ele><time>2026-04-07T14:57:10.579Z</time></trkpt><trkpt lat="45.2678613" lon="11.8636599"><ele>3.0</ele><time>2026-04-07T14:57:11.574Z</time></trkpt><trkpt lat="45.2677333" lon="11.8636183"><ele>3.0</ele><time>2026-04-07T14:57:12.584Z</time></trkpt><trkpt lat="45.2676128" lon="11.8635873"><ele>3.0</ele><time>2026-04-07T14:57:13.574Z</time></trkpt><trkpt lat="45.2675025" lon="11.8635511"><ele>3.0</ele><time>2026-04-07T14:57:14.586Z</time></trkpt><trkpt lat="45.2673906" lon="11.8635129"><ele>3.0</ele><time>2026-04-07T14:57:15.58Z</time></trkpt><trkpt lat="45.2672791" lon="11.8634708"><ele>3.5</ele><time>2026-04-07T14:57:16.576Z</time></trkpt><trkpt lat="45.2671609" lon="11.8634229"><ele>4.0</ele><time>2026-04-07T14:57:17.584Z</time></trkpt><trkpt lat="45.2670411" lon="11.8633817"><ele>4.5</ele><time>2026-04-07T14:57:18.575Z</time></trkpt><trkpt lat="45.2669214" lon="11.8633484"><ele>5.0</ele><time>2026-04-07T14:57:19.587Z</time></trkpt><trkpt lat="45.2667984" lon="11.8633202"><ele>5.0</ele><time>2026-04-07T14:57:20.579Z</time></trkpt><trkpt lat="45.2666814" lon="11.8632993"><ele>5.0</ele><time>2026-04-07T14:57:21.584Z</time></trkpt><trkpt lat="45.2665753" lon="11.8632839"><ele>5.0</ele><time>2026-04-07T14:57:22.582Z</time></trkpt><trkpt lat="45.2664771" lon="11.8632747"><ele>5.0</ele><time>2026-04-07T14:57:23.584Z</time></trkpt><trkpt lat="45.2663802" lon="11.8632702"><ele>5.0</ele><time>2026-04-07T14:57:24.593Z</time></trkpt><trkpt lat="45.2662809" lon="11.863267"><ele>5.0</ele><time>2026-04-07T14:57:25.574Z</time></trkpt><trkpt lat="45.2661692" lon="11.8632551"><ele>5.0</ele><time>2026-04-07T14:57:26.594Z</time></trkpt><trkpt lat="45.2660508" lon="11.8632427"><ele>5.0</ele><time>2026-04-07T14:57:27.585Z</time></trkpt><trkpt lat="45.2659274" lon="11.8632288"><ele>5.0</ele><time>2026-04-07T14:57:28.579Z</time></trkpt><trkpt lat="45.2658016" lon="11.8632137"><ele>5.0</ele><time>2026-04-07T14:57:29.572Z</time></trkpt><trkpt lat="45.2656718" lon="11.863194"><ele>5.0</ele><time>2026-04-07T14:57:30.585Z</time></trkpt><trkpt lat="45.2655421" lon="11.8631727"><ele>5.0</ele><time>2026-04-07T14:57:31.569Z</time></trkpt><trkpt lat="45.2654239" lon="11.8631297"><ele>5.0</ele><time>2026-04-07T14:57:32.579Z</time></trkpt><trkpt lat="45.2652894" lon="11.8631063"><ele>5.333333333333334</ele><time>2026-04-07T14:57:33.578Z</time></trkpt><trkpt lat="45.2651491" lon="11.8630778"><ele>5.666666666666667</ele><time>2026-04-07T14:57:34.579Z</time></trkpt><trkpt lat="45.2649904" lon="11.8630593"><ele>6.0</ele><time>2026-04-07T14:57:35.576Z</time></trkpt><trkpt lat="45.2648295" lon="11.8630498"><ele>5.333333333333333</ele><time>2026-04-07T14:57:36.587Z</time></trkpt><trkpt lat="45.2646803" lon="11.8630417"><ele>4.666666666666666</ele><time>2026-04-07T14:57:37.576Z</time></trkpt><trkpt lat="45.2645076" lon="11.8630283"><ele>4.0</ele><time>2026-04-07T14:57:38.591Z</time></trkpt><trkpt lat="45.2643455" lon="11.863018"><ele>4.0</ele><time>2026-04-07T14:57:39.579Z</time></trkpt><trkpt lat="45.2641699" lon="11.8629904"><ele>4.0</ele><time>2026-04-07T14:57:40.591Z</time></trkpt><trkpt lat="45.2640014" lon="11.8629521"><ele>4.0</ele><time>2026-04-07T14:57:41.583Z</time></trkpt><trkpt lat="45.2638322" lon="11.8629221"><ele>4.333333333333333</ele><time>2026-04-07T14:57:42.586Z</time></trkpt><trkpt lat="45.2636323" lon="11.8628629"><ele>4.666666666666667</ele><time>2026-04-07T14:57:43.577Z</time></trkpt><trkpt lat="45.2634195" lon="11.8627833"><ele>5.0</ele><time>2026-04-07T14:57:44.58Z</time></trkpt><trkpt lat="45.2632529" lon="11.8626843"><ele>5.0</ele><time>2026-04-07T14:57:45.58Z</time></trkpt><trkpt lat="45.2630947" lon="11.862602"><ele>5.0</ele><time>2026-04-07T14:57:46.579Z</time></trkpt><trkpt lat="45.2629362" lon="11.862527"><ele>5.0</ele><time>2026-04-07T14:57:47.578Z</time></trkpt><trkpt lat="45.2628079" lon="11.8624589"><ele>5.0</ele><time>2026-04-07T14:57:48.581Z</time></trkpt><trkpt lat="45.2626806" lon="11.8623781"><ele>5.0</ele><time>2026-04-07T14:57:49.583Z</time></trkpt><trkpt lat="45.2625486" lon="11.8623115"><ele>5.0</ele><time>2026-04-07T14:57:50.581Z</time></trkpt><trkpt lat="45.2624042" lon="11.8622438"><ele>5.0</ele><time>2026-04-07T14:57:51.589Z</time></trkpt><trkpt lat="45.262244" lon="11.8621613"><ele>5.0</ele><time>2026-04-07T14:57:52.578Z</time></trkpt><trkpt lat="45.2621069" lon="11.8620896"><ele>5.0</ele><time>2026-04-07T14:57:53.594Z</time></trkpt><trkpt lat="45.2619646" lon="11.8619998"><ele>5.0</ele><time>2026-04-07T14:57:54.581Z</time></trkpt><trkpt lat="45.2618054" lon="11.8618987"><ele>5.0</ele><time>2026-04-07T14:57:55.586Z</time></trkpt><trkpt lat="45.2616691" lon="11.8618049"><ele>5.0</ele><time>2026-04-07T14:57:56.584Z</time></trkpt><trkpt lat="45.2615409" lon="11.8617298"><ele>5.0</ele><time>2026-04-07T14:57:57.594Z</time></trkpt><trkpt lat="45.2614246" lon="11.8616454"><ele>5.0</ele><time>2026-04-07T14:57:58.569Z</time></trkpt><trkpt lat="45.2612926" lon="11.8615738"><ele>4.75</ele><time>2026-04-07T14:57:59.583Z</time></trkpt><trkpt lat="45.2611458" lon="11.8615186"><ele>4.5</ele><time>2026-04-07T14:58:00.577Z</time></trkpt><trkpt lat="45.2610061" lon="11.8614403"><ele>4.25</ele><time>2026-04-07T14:58:01.579Z</time></trkpt><trkpt lat="45.2608857" lon="11.861395"><ele>4.0</ele><time>2026-04-07T14:58:02.581Z</time></trkpt><trkpt lat="45.2607874" lon="11.8613221"><ele>4.0</ele><time>2026-04-07T14:58:03.574Z</time></trkpt><trkpt lat="45.2606814" lon="11.8612353"><ele>4.0</ele><time>2026-04-07T14:58:04.568Z</time></trkpt><trkpt lat="45.2605626" lon="11.8611534"><ele>4.0</ele><time>2026-04-07T14:58:05.585Z</time></trkpt><trkpt lat="45.2604142" lon="11.8610549"><ele>4.0</ele><time>2026-04-07T14:58:06.576Z</time></trkpt><trkpt lat="45.260279" lon="11.8609613"><ele>4.0</ele><time>2026-04-07T14:58:07.58Z</time></trkpt><trkpt lat="45.2601549" lon="11.8608928"><ele>4.0</ele><time>2026-04-07T14:58:08.584Z</time></trkpt><trkpt lat="45.2600531" lon="11.8608301"><ele>4.0</ele><time>2026-04-07T14:58:09.58Z</time></trkpt><trkpt lat="45.2599322" lon="11.8607866"><ele>4.0</ele><time>2026-04-07T14:58:10.582Z</time></trkpt><trkpt lat="45.2598136" lon="11.860717"><ele>4.666666666666666</ele><time>2026-04-07T14:58:11.579Z</time></trkpt><trkpt lat="45.2596919" lon="11.8606363"><ele>5.333333333333333</ele><time>2026-04-07T14:58:12.579Z</time></trkpt><trkpt lat="45.2595349" lon="11.8605282"><ele>6.0</ele><time>2026-04-07T14:58:13.576Z</time></trkpt><trkpt lat="45.2593694" lon="11.8604324"><ele>6.0</ele><time>2026-04-07T14:58:14.582Z</time></trkpt><trkpt lat="45.2591788" lon="11.8603181"><ele>6.0</ele><time>2026-04-07T14:58:15.578Z</time></trkpt><trkpt lat="45.2590055" lon="11.8601876"><ele>6.0</ele><time>2026-04-07T14:58:16.572Z</time></trkpt><trkpt lat="45.2588393" lon="11.8600751"><ele>5.333333333333333</ele><time>2026-04-07T14:58:17.594Z</time></trkpt><trkpt lat="45.2586462" lon="11.8599683"><ele>4.666666666666666</ele><time>2026-04-07T14:58:18.578Z</time></trkpt><trkpt lat="45.2584756" lon="11.8598424"><ele>4.0</ele><time>2026-04-07T14:58:19.582Z</time></trkpt><trkpt lat="45.2583151" lon="11.8597559"><ele>4.0</ele><time>2026-04-07T14:58:20.589Z</time></trkpt><trkpt lat="45.2581862" lon="11.8596771"><ele>4.0</ele><time>2026-04-07T14:58:21.59Z</time></trkpt><trkpt lat="45.2580178" lon="11.8595747"><ele>4.0</ele><time>2026-04-07T14:58:22.577Z</time></trkpt><trkpt lat="45.2578382" lon="11.8594812"><ele>4.333333333333333</ele><time>2026-04-07T14:58:23.585Z</time></trkpt><trkpt lat="45.2576654" lon="11.8593742"><ele>4.666666666666667</ele><time>2026-04-07T14:58:24.576Z</time></trkpt><trkpt lat="45.2574847" lon="11.8592668"><ele>5.0</ele><time>2026-04-07T14:58:25.575Z</time></trkpt><trkpt lat="45.2572938" lon="11.8591417"><ele>4.666666666666667</ele><time>2026-04-07T14:58:26.588Z</time></trkpt><trkpt lat="45.2571254" lon="11.8590603"><ele>4.333333333333333</ele><time>2026-04-07T14:58:27.578Z</time></trkpt><trkpt lat="45.2569321" lon="11.8589693"><ele>4.0</ele><time>2026-04-07T14:58:28.589Z</time></trkpt><trkpt lat="45.2567169" lon="11.8588533"><ele>4.0</ele><time>2026-04-07T14:58:29.581Z</time></trkpt><trkpt lat="45.256517" lon="11.858738"><ele>4.0</ele><time>2026-04-07T14:58:30.568Z</time></trkpt><trkpt lat="45.256294" lon="11.8586341"><ele>4.0</ele><time>2026-04-07T14:58:31.579Z</time></trkpt><trkpt lat="45.2560594" lon="11.8585096"><ele>4.0</ele><time>2026-04-07T14:58:32.575Z</time></trkpt><trkpt lat="45.2558452" lon="11.8583801"><ele>4.0</ele><time>2026-04-07T14:58:33.58Z</time></trkpt><trkpt lat="45.255642" lon="11.8582617"><ele>4.0</ele><time>2026-04-07T14:58:34.579Z</time></trkpt><trkpt lat="45.2554386" lon="11.8581529"><ele>4.0</ele><time>2026-04-07T14:58:35.586Z</time></trkpt><trkpt lat="45.2552589" lon="11.8580498"><ele>4.0</ele><time>2026-04-07T14:58:36.581Z</time></trkpt><trkpt lat="45.2550731" lon="11.8579418"><ele>4.0</ele><time>2026-04-07T14:58:37.57Z</time></trkpt><trkpt lat="45.2549148" lon="11.8578345"><ele>4.0</ele><time>2026-04-07T14:58:38.581Z</time></trkpt><trkpt lat="45.2547468" lon="11.8577118"><ele>4.0</ele><time>2026-04-07T14:58:39.578Z</time></trkpt><trkpt lat="45.2545885" lon="11.8576174"><ele>4.0</ele><time>2026-04-07T14:58:40.585Z</time></trkpt><trkpt lat="45.2544068" lon="11.8575349"><ele>4.0</ele><time>2026-04-07T14:58:41.57Z</time></trkpt><trkpt lat="45.2542196" lon="11.8574318"><ele>4.0</ele><time>2026-04-07T14:58:42.584Z</time></trkpt><trkpt lat="45.2540229" lon="11.8573313"><ele>4.0</ele><time>2026-04-07T14:58:43.577Z</time></trkpt><trkpt lat="45.2538299" lon="11.8572208"><ele>4.0</ele><time>2026-04-07T14:58:44.584Z</time></trkpt><trkpt lat="45.2536498" lon="11.8571086"><ele>4.333333333333333</ele><time>2026-04-07T14:58:45.576Z</time></trkpt><trkpt lat="45.2535008" lon="11.8570065"><ele>4.666666666666667</ele><time>2026-04-07T14:58:46.578Z</time></trkpt><trkpt lat="45.2533473" lon="11.8569013"><ele>5.0</ele><time>2026-04-07T14:58:47.576Z</time></trkpt><trkpt lat="45.2532084" lon="11.856813"><ele>5.666666666666667</ele><time>2026-04-07T14:58:48.585Z</time></trkpt><trkpt lat="45.2530661" lon="11.856732"><ele>6.333333333333334</ele><time>2026-04-07T14:58:49.576Z</time></trkpt><trkpt lat="45.2529056" lon="11.8566607"><ele>7.0</ele><time>2026-04-07T14:58:50.585Z</time></trkpt><trkpt lat="45.2527426" lon="11.8566097"><ele>7.0</ele><time>2026-04-07T14:58:51.572Z</time></trkpt><trkpt lat="45.252576" lon="11.8565697"><ele>7.0</ele><time>2026-04-07T14:58:52.577Z</time></trkpt><trkpt lat="45.2524113" lon="11.8565501"><ele>7.0</ele><time>2026-04-07T14:58:53.586Z</time></trkpt><trkpt lat="45.2522584" lon="11.8565703"><ele>6.666666666666667</ele><time>2026-04-07T14:58:54.586Z</time></trkpt><trkpt lat="45.252124" lon="11.8566236"><ele>6.333333333333334</ele><time>2026-04-07T14:58:55.577Z</time></trkpt><trkpt lat="45.2519636" lon="11.8567013"><ele>6.0</ele><time>2026-04-07T14:58:56.589Z</time></trkpt><trkpt lat="45.2517783" lon="11.8568159"><ele>5.5</ele><time>2026-04-07T14:58:57.588Z</time></trkpt><trkpt lat="45.251539" lon="11.8569199"><ele>5.0</ele><time>2026-04-07T14:58:58.587Z</time></trkpt><trkpt lat="45.2513274" lon="11.8569759"><ele>5.0</ele><time>2026-04-07T14:58:59.584Z</time></trkpt><trkpt lat="45.251138" lon="11.8570056"><ele>5.0</ele><time>2026-04-07T14:59:00.587Z</time></trkpt><trkpt lat="45.2509608" lon="11.8570618"><ele>5.0</ele><time>2026-04-07T14:59:01.581Z</time></trkpt><trkpt lat="45.2507882" lon="11.8571312"><ele>4.666666666666667</ele><time>2026-04-07T14:59:02.578Z</time></trkpt><trkpt lat="45.2505955" lon="11.8572032"><ele>4.333333333333333</ele><time>2026-04-07T14:59:03.596Z</time></trkpt><trkpt lat="45.250409" lon="11.8572652"><ele>4.0</ele><time>2026-04-07T14:59:04.582Z</time></trkpt><trkpt lat="45.250232" lon="11.857316"><ele>4.0</ele><time>2026-04-07T14:59:05.591Z</time></trkpt><trkpt lat="45.2500825" lon="11.8573319"><ele>4.0</ele><time>2026-04-07T14:59:06.589Z</time></trkpt><trkpt lat="45.2498936" lon="11.8573177"><ele>4.0</ele><time>2026-04-07T14:59:07.59Z</time></trkpt><trkpt lat="45.2496948" lon="11.8572708"><ele>4.666666666666666</ele><time>2026-04-07T14:59:08.593Z</time></trkpt><trkpt lat="45.2495219" lon="11.8572352"><ele>5.333333333333333</ele><time>2026-04-07T14:59:09.586Z</time></trkpt><trkpt lat="45.2493249" lon="11.8571991"><ele>6.0</ele><time>2026-04-07T14:59:10.6Z</time></trkpt><trkpt lat="45.2491498" lon="11.8571446"><ele>6.0</ele><time>2026-04-07T14:59:11.593Z</time></trkpt><trkpt lat="45.2489607" lon="11.8570727"><ele>6.0</ele><time>2026-04-07T14:59:12.59Z</time></trkpt><trkpt lat="45.2487937" lon="11.8570045"><ele>6.0</ele><time>2026-04-07T14:59:13.586Z</time></trkpt><trkpt lat="45.248652" lon="11.8569328"><ele>6.333333333333334</ele><time>2026-04-07T14:59:14.587Z</time></trkpt><trkpt lat="45.2485072" lon="11.8568607"><ele>6.666666666666667</ele><time>2026-04-07T14:59:15.589Z</time></trkpt><trkpt lat="45.2483489" lon="11.8567876"><ele>7.0</ele><time>2026-04-07T14:59:16.589Z</time></trkpt><trkpt lat="45.2481781" lon="11.8567008"><ele>7.0</ele><time>2026-04-07T14:59:17.583Z</time></trkpt><trkpt lat="45.2480216" lon="11.8566125"><ele>7.0</ele><time>2026-04-07T14:59:18.591Z</time></trkpt><trkpt lat="45.2478539" lon="11.856539"><ele>7.0</ele><time>2026-04-07T14:59:19.584Z</time></trkpt><trkpt lat="45.2476724" lon="11.8564515"><ele>7.0</ele><time>2026-04-07T14:59:20.591Z</time></trkpt><trkpt lat="45.2474808" lon="11.856362"><ele>7.0</ele><time>2026-04-07T14:59:21.589Z</time></trkpt><trkpt lat="45.2472725" lon="11.8562759"><ele>7.0</ele><time>2026-04-07T14:59:22.574Z</time></trkpt><trkpt lat="45.2470714" lon="11.8561589"><ele>7.0</ele><time>2026-04-07T14:59:23.586Z</time></trkpt><trkpt lat="45.246841" lon="11.8559964"><ele>7.0</ele><time>2026-04-07T14:59:24.605Z</time></trkpt><trkpt lat="45.2466473" lon="11.855895"><ele>6.666666666666667</ele><time>2026-04-07T14:59:25.598Z</time></trkpt><trkpt lat="45.246453" lon="11.8557935"><ele>6.333333333333334</ele><time>2026-04-07T14:59:26.585Z</time></trkpt><trkpt lat="45.2462835" lon="11.8556976"><ele>6.0</ele><time>2026-04-07T14:59:27.588Z</time></trkpt><trkpt lat="45.2461282" lon="11.8556169"><ele>6.0</ele><time>2026-04-07T14:59:28.575Z</time></trkpt><trkpt lat="45.24598" lon="11.8555416"><ele>6.0</ele><time>2026-04-07T14:59:29.598Z</time></trkpt><trkpt lat="45.2458221" lon="11.855457"><ele>6.0</ele><time>2026-04-07T14:59:30.583Z</time></trkpt><trkpt lat="45.2456408" lon="11.8553489"><ele>5.666666666666667</ele><time>2026-04-07T14:59:31.577Z</time></trkpt><trkpt lat="45.245456" lon="11.8552533"><ele>5.333333333333334</ele><time>2026-04-07T14:59:32.59Z</time></trkpt><trkpt lat="45.2452863" lon="11.8551668"><ele>5.0</ele><time>2026-04-07T14:59:33.583Z</time></trkpt><trkpt lat="45.2451279" lon="11.8550625"><ele>5.0</ele><time>2026-04-07T14:59:34.587Z</time></trkpt><trkpt lat="45.2449774" lon="11.8549621"><ele>5.0</ele><time>2026-04-07T14:59:35.591Z</time></trkpt><trkpt lat="45.2448175" lon="11.8548715"><ele>5.0</ele><time>2026-04-07T14:59:36.587Z</time></trkpt><trkpt lat="45.244681" lon="11.8547988"><ele>4.666666666666667</ele><time>2026-04-07T14:59:37.583Z</time></trkpt><trkpt lat="45.244528" lon="11.8547181"><ele>4.333333333333333</ele><time>2026-04-07T14:59:38.592Z</time></trkpt><trkpt lat="45.2443833" lon="11.8546491"><ele>4.0</ele><time>2026-04-07T14:59:39.594Z</time></trkpt><trkpt lat="45.2442252" lon="11.8545914"><ele>4.0</ele><time>2026-04-07T14:59:40.588Z</time></trkpt><trkpt lat="45.2440567" lon="11.8545653"><ele>4.0</ele><time>2026-04-07T14:59:41.668Z</time></trkpt><trkpt lat="45.2438713" lon="11.8545306"><ele>4.0</ele><time>2026-04-07T14:59:42.584Z</time></trkpt><trkpt lat="45.2437051" lon="11.8545575"><ele>4.333333333333333</ele><time>2026-04-07T14:59:43.603Z</time></trkpt><trkpt lat="45.2435122" lon="11.8546408"><ele>4.666666666666667</ele><time>2026-04-07T14:59:44.578Z</time></trkpt><trkpt lat="45.2433694" lon="11.8547492"><ele>5.0</ele><time>2026-04-07T14:59:45.585Z</time></trkpt><trkpt lat="45.2432127" lon="11.8549015"><ele>5.666666666666667</ele><time>2026-04-07T14:59:46.575Z</time></trkpt><trkpt lat="45.2430631" lon="11.8550619"><ele>6.333333333333334</ele><time>2026-04-07T14:59:47.588Z</time></trkpt><trkpt lat="45.2429333" lon="11.8552416"><ele>7.0</ele><time>2026-04-07T14:59:48.589Z</time></trkpt><trkpt lat="45.2428247" lon="11.8554555"><ele>7.0</ele><time>2026-04-07T14:59:49.581Z</time></trkpt><trkpt lat="45.2427079" lon="11.8556765"><ele>7.0</ele><time>2026-04-07T14:59:50.594Z</time></trkpt><trkpt lat="45.2426014" lon="11.8558776"><ele>7.0</ele><time>2026-04-07T14:59:51.583Z</time></trkpt><trkpt lat="45.2425076" lon="11.8560461"><ele>6.333333333333334</ele><time>2026-04-07T14:59:52.584Z</time></trkpt><trkpt lat="45.2423904" lon="11.8562385"><ele>5.666666666666667</ele><time>2026-04-07T14:59:53.582Z</time></trkpt><trkpt lat="45.2422753" lon="11.8564413"><ele>5.0</ele><time>2026-04-07T14:59:54.581Z</time></trkpt><trkpt lat="45.2421623" lon="11.8566539"><ele>5.333333333333334</ele><time>2026-04-07T14:59:55.571Z</time></trkpt><trkpt lat="45.2420383" lon="11.8568871"><ele>5.666666666666667</ele><time>2026-04-07T14:59:56.585Z</time></trkpt><trkpt lat="45.2419007" lon="11.8570926"><ele>6.0</ele><time>2026-04-07T14:59:57.584Z</time></trkpt><trkpt lat="45.241786" lon="11.8572797"><ele>6.0</ele><time>2026-04-07T14:59:58.585Z</time></trkpt><trkpt lat="45.2416852" lon="11.8574505"><ele>6.0</ele><time>2026-04-07T14:59:59.585Z</time></trkpt><trkpt lat="45.2415804" lon="11.8576148"><ele>6.0</ele><time>2026-04-07T15:00:00.586Z</time></trkpt><trkpt lat="45.2414891" lon="11.8577884"><ele>6.0</ele><time>2026-04-07T15:00:01.567Z</time></trkpt><trkpt lat="45.241432" lon="11.8579636"><ele>6.0</ele><time>2026-04-07T15:00:02.57Z</time></trkpt><trkpt lat="45.2413756" lon="11.8581053"><ele>6.0</ele><time>2026-04-07T15:00:03.57Z</time></trkpt><trkpt lat="45.2412551" lon="11.8582712"><ele>6.0</ele><time>2026-04-07T15:00:04.564Z</time></trkpt><trkpt lat="45.2410782" lon="11.8584321"><ele>6.0</ele><time>2026-04-07T15:00:05.565Z</time></trkpt><trkpt lat="45.2409192" lon="11.8586168"><ele>6.0</ele><time>2026-04-07T15:00:06.564Z</time></trkpt><trkpt lat="45.2407479" lon="11.8587639"><ele>6.0</ele><time>2026-04-07T15:00:07.572Z</time></trkpt><trkpt lat="45.2405896" lon="11.8589351"><ele>6.0</ele><time>2026-04-07T15:00:08.569Z</time></trkpt><trkpt lat="45.2404289" lon="11.8590999"><ele>6.0</ele><time>2026-04-07T15:00:09.558Z</time></trkpt><trkpt lat="45.2402884" lon="11.8592298"><ele>6.0</ele><time>2026-04-07T15:00:10.566Z</time></trkpt><trkpt lat="45.2401362" lon="11.8594259"><ele>6.0</ele><time>2026-04-07T15:00:11.566Z</time></trkpt><trkpt lat="45.2400144" lon="11.8596263"><ele>6.0</ele><time>2026-04-07T15:00:12.573Z</time></trkpt><trkpt lat="45.2398805" lon="11.8598263"><ele>6.0</ele><time>2026-04-07T15:00:13.567Z</time></trkpt><trkpt lat="45.2397297" lon="11.8600018"><ele>6.0</ele><time>2026-04-07T15:00:14.578Z</time></trkpt><trkpt lat="45.2395712" lon="11.8601491"><ele>6.0</ele><time>2026-04-07T15:00:15.561Z</time></trkpt><trkpt lat="45.2394302" lon="11.860283"><ele>6.0</ele><time>2026-04-07T15:00:16.574Z</time></trkpt><trkpt lat="45.2393125" lon="11.8604173"><ele>6.0</ele><time>2026-04-07T15:00:17.579Z</time></trkpt><trkpt lat="45.2391951" lon="11.8605455"><ele>6.0</ele><time>2026-04-07T15:00:18.57Z</time></trkpt><trkpt lat="45.2390773" lon="11.860638"><ele>6.0</ele><time>2026-04-07T15:00:19.577Z</time></trkpt><trkpt lat="45.2389664" lon="11.8606992"><ele>6.0</ele><time>2026-04-07T15:00:20.575Z</time></trkpt><trkpt lat="45.2388293" lon="11.8607348"><ele>6.0</ele><time>2026-04-07T15:00:21.583Z</time></trkpt><trkpt lat="45.2386687" lon="11.8607436"><ele>6.0</ele><time>2026-04-07T15:00:22.571Z</time></trkpt><trkpt lat="45.2385155" lon="11.8607287"><ele>6.0</ele><time>2026-04-07T15:00:23.581Z</time></trkpt><trkpt lat="45.2383508" lon="11.8607367"><ele>6.0</ele><time>2026-04-07T15:00:24.574Z</time></trkpt><trkpt lat="45.2382164" lon="11.8607738"><ele>6.0</ele><time>2026-04-07T15:00:25.572Z</time></trkpt><trkpt lat="45.2380392" lon="11.8608221"><ele>6.0</ele><time>2026-04-07T15:00:26.571Z</time></trkpt><trkpt lat="45.2378606" lon="11.860888"><ele>6.0</ele><time>2026-04-07T15:00:27.578Z</time></trkpt><trkpt lat="45.2377095" lon="11.8609526"><ele>6.0</ele><time>2026-04-07T15:00:28.576Z</time></trkpt><trkpt lat="45.2375609" lon="11.8610299"><ele>6.0</ele><time>2026-04-07T15:00:29.579Z</time></trkpt><trkpt lat="45.2374418" lon="11.8611134"><ele>6.0</ele><time>2026-04-07T15:00:30.586Z</time></trkpt><trkpt lat="45.2373147" lon="11.8612052"><ele>6.0</ele><time>2026-04-07T15:00:31.583Z</time></trkpt><trkpt lat="45.2372051" lon="11.8613014"><ele>6.0</ele><time>2026-04-07T15:00:32.578Z</time></trkpt><trkpt lat="45.2370989" lon="11.8614292"><ele>6.0</ele><time>2026-04-07T15:00:33.578Z</time></trkpt><trkpt lat="45.2369902" lon="11.8615179"><ele>6.0</ele><time>2026-04-07T15:00:34.572Z</time></trkpt><trkpt lat="45.2368796" lon="11.861605"><ele>6.0</ele><time>2026-04-07T15:00:35.59Z</time></trkpt><trkpt lat="45.2367533" lon="11.8616943"><ele>6.0</ele><time>2026-04-07T15:00:36.582Z</time></trkpt><trkpt lat="45.2366409" lon="11.8617804"><ele>6.0</ele><time>2026-04-07T15:00:37.579Z</time></trkpt><trkpt lat="45.2365188" lon="11.8618772"><ele>6.0</ele><time>2026-04-07T15:00:38.585Z</time></trkpt><trkpt lat="45.2363997" lon="11.8619878"><ele>6.25</ele><time>2026-04-07T15:00:39.584Z</time></trkpt><trkpt lat="45.2362852" lon="11.8620804"><ele>6.5</ele><time>2026-04-07T15:00:40.58Z</time></trkpt><trkpt lat="45.236178" lon="11.8621694"><ele>6.75</ele><time>2026-04-07T15:00:41.582Z</time></trkpt><trkpt lat="45.2360531" lon="11.8622744"><ele>7.0</ele><time>2026-04-07T15:00:42.575Z</time></trkpt><trkpt lat="45.2359454" lon="11.862368"><ele>7.0</ele><time>2026-04-07T15:00:43.588Z</time></trkpt><trkpt lat="45.2358286" lon="11.8624677"><ele>7.0</ele><time>2026-04-07T15:00:44.582Z</time></trkpt><trkpt lat="45.2357179" lon="11.862569"><ele>7.0</ele><time>2026-04-07T15:00:45.576Z</time></trkpt><trkpt lat="45.2355797" lon="11.8626998"><ele>7.0</ele><time>2026-04-07T15:00:46.566Z</time></trkpt><trkpt lat="45.2354396" lon="11.8628378"><ele>7.0</ele><time>2026-04-07T15:00:47.577Z</time></trkpt><trkpt lat="45.2352659" lon="11.8630124"><ele>7.0</ele><time>2026-04-07T15:00:48.577Z</time></trkpt><trkpt lat="45.2351087" lon="11.8631599"><ele>7.0</ele><time>2026-04-07T15:00:49.575Z</time></trkpt><trkpt lat="45.2349375" lon="11.8632841"><ele>7.0</ele><time>2026-04-07T15:00:50.585Z</time></trkpt><trkpt lat="45.2347837" lon="11.8633987"><ele>7.0</ele><time>2026-04-07T15:00:51.583Z</time></trkpt><trkpt lat="45.2346676" lon="11.8635454"><ele>7.0</ele><time>2026-04-07T15:00:52.577Z</time></trkpt><trkpt lat="45.234544" lon="11.8636734"><ele>6.666666666666667</ele><time>2026-04-07T15:00:53.583Z</time></trkpt><trkpt lat="45.2344051" lon="11.8637923"><ele>6.333333333333334</ele><time>2026-04-07T15:00:54.573Z</time></trkpt><trkpt lat="45.2342648" lon="11.8639429"><ele>6.0</ele><time>2026-04-07T15:00:55.584Z</time></trkpt><trkpt lat="45.2341514" lon="11.8640843"><ele>6.0</ele><time>2026-04-07T15:00:56.578Z</time></trkpt><trkpt lat="45.2340328" lon="11.8642446"><ele>6.0</ele><time>2026-04-07T15:00:57.584Z</time></trkpt><trkpt lat="45.2339456" lon="11.8643968"><ele>6.0</ele><time>2026-04-07T15:00:58.576Z</time></trkpt><trkpt lat="45.2338591" lon="11.8645514"><ele>6.0</ele><time>2026-04-07T15:00:59.584Z</time></trkpt><trkpt lat="45.2337705" lon="11.8647089"><ele>6.0</ele><time>2026-04-07T15:01:00.582Z</time></trkpt><trkpt lat="45.2336942" lon="11.8648859"><ele>6.0</ele><time>2026-04-07T15:01:01.574Z</time></trkpt><trkpt lat="45.2336432" lon="11.8650649"><ele>6.0</ele><time>2026-04-07T15:01:02.582Z</time></trkpt><trkpt lat="45.2335941" lon="11.8652426"><ele>6.0</ele><time>2026-04-07T15:01:03.571Z</time></trkpt><trkpt lat="45.2335446" lon="11.8654031"><ele>5.75</ele><time>2026-04-07T15:01:04.576Z</time></trkpt><trkpt lat="45.2335049" lon="11.8655694"><ele>5.5</ele><time>2026-04-07T15:01:05.58Z</time></trkpt><trkpt lat="45.2334699" lon="11.8657277"><ele>5.25</ele><time>2026-04-07T15:01:06.574Z</time></trkpt><trkpt lat="45.23345" lon="11.8658903"><ele>5.0</ele><time>2026-04-07T15:01:07.582Z</time></trkpt><trkpt lat="45.2334358" lon="11.8660468"><ele>5.0</ele><time>2026-04-07T15:01:08.57Z</time></trkpt><trkpt lat="45.2334334" lon="11.8661978"><ele>5.0</ele><time>2026-04-07T15:01:09.578Z</time></trkpt><trkpt lat="45.2334292" lon="11.8663467"><ele>5.0</ele><time>2026-04-07T15:01:10.586Z</time></trkpt><trkpt lat="45.2334216" lon="11.8665015"><ele>5.0</ele><time>2026-04-07T15:01:11.657Z</time></trkpt><trkpt lat="45.2334167" lon="11.8666525"><ele>5.0</ele><time>2026-04-07T15:01:12.574Z</time></trkpt><trkpt lat="45.2334043" lon="11.8667834"><ele>5.166666666666667</ele><time>2026-04-07T15:01:13.579Z</time></trkpt><trkpt lat="45.2333957" lon="11.8669029"><ele>5.333333333333334</ele><time>2026-04-07T15:01:14.575Z</time></trkpt><trkpt lat="45.2333917" lon="11.8670174"><ele>5.5</ele><time>2026-04-07T15:01:15.595Z</time></trkpt><trkpt lat="45.2333911" lon="11.8671363"><ele>5.666666666666667</ele><time>2026-04-07T15:01:16.571Z</time></trkpt><trkpt lat="45.2333867" lon="11.8672661"><ele>5.833333333333333</ele><time>2026-04-07T15:01:17.584Z</time></trkpt><trkpt lat="45.2333816" lon="11.8673952"><ele>6.0</ele><time>2026-04-07T15:01:18.57Z</time></trkpt><trkpt lat="45.2333808" lon="11.8675002"><ele>6.166666666666667</ele><time>2026-04-07T15:01:19.578Z</time></trkpt><trkpt lat="45.2333651" lon="11.8676341"><ele>6.333333333333334</ele><time>2026-04-07T15:01:21.569Z</time></trkpt><trkpt lat="45.2333448" lon="11.8677194"><ele>6.5</ele><time>2026-04-07T15:01:23.57Z</time></trkpt><trkpt lat="45.2333078" lon="11.867827"><ele>6.666666666666667</ele><time>2026-04-07T15:01:25.568Z</time></trkpt><trkpt lat="45.2332591" lon="11.8679023"><ele>6.833333333333334</ele><time>2026-04-07T15:01:26.574Z</time></trkpt><trkpt lat="45.2332013" lon="11.8679897"><ele>7.0</ele><time>2026-04-07T15:01:27.569Z</time></trkpt><trkpt lat="45.2331521" lon="11.8680991"><ele>6.8</ele><time>2026-04-07T15:01:28.576Z</time></trkpt><trkpt lat="45.233109" lon="11.8682238"><ele>6.6</ele><time>2026-04-07T15:01:29.588Z</time></trkpt><trkpt lat="45.2330574" lon="11.8683614"><ele>6.3999999999999995</ele><time>2026-04-07T15:01:30.578Z</time></trkpt><trkpt lat="45.2330001" lon="11.8684983"><ele>6.199999999999999</ele><time>2026-04-07T15:01:31.579Z</time></trkpt><trkpt lat="45.2329431" lon="11.8686384"><ele>6.0</ele><time>2026-04-07T15:01:32.571Z</time></trkpt><trkpt lat="45.2328853" lon="11.8687663"><ele>6.0</ele><time>2026-04-07T15:01:33.584Z</time></trkpt><trkpt lat="45.2328176" lon="11.8688894"><ele>6.0</ele><time>2026-04-07T15:01:34.574Z</time></trkpt><trkpt lat="45.2327463" lon="11.8690356"><ele>6.0</ele><time>2026-04-07T15:01:35.57Z</time></trkpt><trkpt lat="45.2326758" lon="11.8692006"><ele>6.0</ele><time>2026-04-07T15:01:36.57Z</time></trkpt><trkpt lat="45.2326106" lon="11.869353"><ele>6.0</ele><time>2026-04-07T15:01:37.57Z</time></trkpt><trkpt lat="45.2325563" lon="11.8694906"><ele>6.0</ele><time>2026-04-07T15:01:38.572Z</time></trkpt><trkpt lat="45.2325027" lon="11.8696022"><ele>6.0</ele><time>2026-04-07T15:01:39.574Z</time></trkpt><trkpt lat="45.2324508" lon="11.8696939"><ele>6.0</ele><time>2026-04-07T15:01:40.578Z</time></trkpt><trkpt lat="45.2324027" lon="11.8697891"><ele>6.0</ele><time>2026-04-07T15:01:41.587Z</time></trkpt><trkpt lat="45.2323411" lon="11.8698831"><ele>6.0</ele><time>2026-04-07T15:01:42.58Z</time></trkpt><trkpt lat="45.2322754" lon="11.8699853"><ele>6.0</ele><time>2026-04-07T15:01:43.573Z</time></trkpt><trkpt lat="45.2322243" lon="11.8701141"><ele>6.0</ele><time>2026-04-07T15:01:44.581Z</time></trkpt><trkpt lat="45.2321874" lon="11.870251"><ele>6.0</ele><time>2026-04-07T15:01:45.581Z</time></trkpt><trkpt lat="45.2321546" lon="11.8703972"><ele>6.0</ele><time>2026-04-07T15:01:46.585Z</time></trkpt><trkpt lat="45.2320985" lon="11.8705351"><ele>6.0</ele><time>2026-04-07T15:01:47.582Z</time></trkpt><trkpt lat="45.2320423" lon="11.8706669"><ele>6.0</ele><time>2026-04-07T15:01:48.582Z</time></trkpt><trkpt lat="45.2319828" lon="11.8708006"><ele>6.0</ele><time>2026-04-07T15:01:49.572Z</time></trkpt><trkpt lat="45.2319193" lon="11.8709428"><ele>6.0</ele><time>2026-04-07T15:01:50.593Z</time></trkpt><trkpt lat="45.2318533" lon="11.8710886"><ele>6.0</ele><time>2026-04-07T15:01:51.584Z</time></trkpt><trkpt lat="45.2317906" lon="11.8712308"><ele>6.0</ele><time>2026-04-07T15:01:52.575Z</time></trkpt><trkpt lat="45.2317313" lon="11.8713587"><ele>6.0</ele><time>2026-04-07T15:01:53.577Z</time></trkpt><trkpt lat="45.231677" lon="11.871489"><ele>6.0</ele><time>2026-04-07T15:01:54.575Z</time></trkpt><trkpt lat="45.2316107" lon="11.8716144"><ele>6.0</ele><time>2026-04-07T15:01:55.577Z</time></trkpt><trkpt lat="45.2315574" lon="11.8717471"><ele>6.25</ele><time>2026-04-07T15:01:56.568Z</time></trkpt><trkpt lat="45.2315048" lon="11.87188"><ele>6.5</ele><time>2026-04-07T15:01:57.564Z</time></trkpt><trkpt lat="45.2314469" lon="11.872018"><ele>6.75</ele><time>2026-04-07T15:01:58.573Z</time></trkpt><trkpt lat="45.2313889" lon="11.8721568"><ele>7.0</ele><time>2026-04-07T15:01:59.579Z</time></trkpt><trkpt lat="45.2313275" lon="11.8722998"><ele>7.0</ele><time>2026-04-07T15:02:00.576Z</time></trkpt><trkpt lat="45.2312672" lon="11.8724361"><ele>6.999999999999999</ele><time>2026-04-07T15:02:01.572Z</time></trkpt><trkpt lat="45.2312065" lon="11.8725697"><ele>6.999999999999999</ele><time>2026-04-07T15:02:02.574Z</time></trkpt><trkpt lat="45.231138" lon="11.8726971"><ele>7.0</ele><time>2026-04-07T15:02:03.576Z</time></trkpt><trkpt lat="45.2310776" lon="11.8728256"><ele>7.0</ele><time>2026-04-07T15:02:04.592Z</time></trkpt><trkpt lat="45.2310167" lon="11.8729531"><ele>7.0</ele><time>2026-04-07T15:02:05.581Z</time></trkpt><trkpt lat="45.2309497" lon="11.8730901"><ele>7.0</ele><time>2026-04-07T15:02:06.581Z</time></trkpt><trkpt lat="45.2308822" lon="11.8732266"><ele>7.0</ele><time>2026-04-07T15:02:07.579Z</time></trkpt><trkpt lat="45.2308208" lon="11.873366"><ele>7.0</ele><time>2026-04-07T15:02:08.58Z</time></trkpt><trkpt lat="45.2307494" lon="11.8735046"><ele>7.0</ele><time>2026-04-07T15:02:09.57Z</time></trkpt><trkpt lat="45.2306793" lon="11.8736532"><ele>6.999999999999999</ele><time>2026-04-07T15:02:10.586Z</time></trkpt><trkpt lat="45.2306198" lon="11.8737939"><ele>6.999999999999999</ele><time>2026-04-07T15:02:11.572Z</time></trkpt><trkpt lat="45.2305631" lon="11.8739165"><ele>7.0</ele><time>2026-04-07T15:02:12.572Z</time></trkpt><trkpt lat="45.2305016" lon="11.8740204"><ele>7.0</ele><time>2026-04-07T15:02:13.58Z</time></trkpt><trkpt lat="45.2304388" lon="11.8741091"><ele>6.833333333333334</ele><time>2026-04-07T15:02:14.577Z</time></trkpt><trkpt lat="45.230379" lon="11.8741895"><ele>6.666666666666667</ele><time>2026-04-07T15:02:15.576Z</time></trkpt><trkpt lat="45.2303046" lon="11.8742493"><ele>6.5</ele><time>2026-04-07T15:02:16.573Z</time></trkpt><trkpt lat="45.2302544" lon="11.8743185"><ele>6.333333333333334</ele><time>2026-04-07T15:02:17.574Z</time></trkpt><trkpt lat="45.2302021" lon="11.8743794"><ele>6.166666666666667</ele><time>2026-04-07T15:02:18.571Z</time></trkpt><trkpt lat="45.2301357" lon="11.8744856"><ele>6.0</ele><time>2026-04-07T15:02:20.571Z</time></trkpt><trkpt lat="45.2301006" lon="11.8745816"><ele>5.833333333333333</ele><time>2026-04-07T15:02:22.578Z</time></trkpt><trkpt lat="45.2300456" lon="11.8746484"><ele>5.666666666666667</ele><time>2026-04-07T15:02:25.57Z</time></trkpt><trkpt lat="45.2299833" lon="11.8746799"><ele>5.5</ele><time>2026-04-07T15:02:27.566Z</time></trkpt><trkpt lat="45.2299178" lon="11.8747368"><ele>5.333333333333334</ele><time>2026-04-07T15:02:29.572Z</time></trkpt><trkpt lat="45.2298748" lon="11.8748069"><ele>5.166666666666667</ele><time>2026-04-07T15:02:31.571Z</time></trkpt><trkpt lat="45.2297657" lon="11.8749477"><ele>5.0</ele><time>2026-04-07T15:02:33.565Z</time></trkpt><trkpt lat="45.2296692" lon="11.8750657"><ele>5.333333333333334</ele><time>2026-04-07T15:02:34.572Z</time></trkpt><trkpt lat="45.2295616" lon="11.8752002"><ele>5.666666666666667</ele><time>2026-04-07T15:02:35.576Z</time></trkpt><trkpt lat="45.2294442" lon="11.8753433"><ele>6.0</ele><time>2026-04-07T15:02:36.565Z</time></trkpt><trkpt lat="45.2292793" lon="11.8755078"><ele>6.0</ele><time>2026-04-07T15:02:37.569Z</time></trkpt><trkpt lat="45.2291078" lon="11.8756879"><ele>6.0</ele><time>2026-04-07T15:02:38.573Z</time></trkpt><trkpt lat="45.2289788" lon="11.8758399"><ele>6.0</ele><time>2026-04-07T15:02:39.565Z</time></trkpt><trkpt lat="45.2288676" lon="11.8759748"><ele>5.5</ele><time>2026-04-07T15:02:40.586Z</time></trkpt><trkpt lat="45.228768" lon="11.8761037"><ele>5.0</ele><time>2026-04-07T15:02:41.568Z</time></trkpt><trkpt lat="45.2286754" lon="11.8762288"><ele>4.5</ele><time>2026-04-07T15:02:42.574Z</time></trkpt><trkpt lat="45.2285868" lon="11.8763328"><ele>4.0</ele><time>2026-04-07T15:02:43.572Z</time></trkpt><trkpt lat="45.2284893" lon="11.8764587"><ele>4.0</ele><time>2026-04-07T15:02:44.572Z</time></trkpt><trkpt lat="45.2283857" lon="11.8766042"><ele>4.0</ele><time>2026-04-07T15:02:45.562Z</time></trkpt><trkpt lat="45.228289" lon="11.8767683"><ele>4.0</ele><time>2026-04-07T15:02:46.581Z</time></trkpt><trkpt lat="45.2281931" lon="11.8769515"><ele>4.333333333333333</ele><time>2026-04-07T15:02:47.576Z</time></trkpt><trkpt lat="45.2280461" lon="11.8771237"><ele>4.666666666666667</ele><time>2026-04-07T15:02:48.581Z</time></trkpt><trkpt lat="45.2278939" lon="11.8772873"><ele>5.0</ele><time>2026-04-07T15:02:49.582Z</time></trkpt><trkpt lat="45.2277678" lon="11.8774249"><ele>5.0</ele><time>2026-04-07T15:02:50.581Z</time></trkpt><trkpt lat="45.2276536" lon="11.8775756"><ele>5.0</ele><time>2026-04-07T15:02:51.578Z</time></trkpt><trkpt lat="45.2275358" lon="11.8777444"><ele>5.0</ele><time>2026-04-07T15:02:52.577Z</time></trkpt><trkpt lat="45.2273834" lon="11.8779086"><ele>4.666666666666667</ele><time>2026-04-07T15:02:53.578Z</time></trkpt><trkpt lat="45.2272253" lon="11.8780934"><ele>4.333333333333333</ele><time>2026-04-07T15:02:54.562Z</time></trkpt><trkpt lat="45.2270546" lon="11.8783227"><ele>4.0</ele><time>2026-04-07T15:02:55.571Z</time></trkpt><trkpt lat="45.2268694" lon="11.8785542"><ele>4.0</ele><time>2026-04-07T15:02:56.579Z</time></trkpt><trkpt lat="45.2267186" lon="11.8787449"><ele>4.0</ele><time>2026-04-07T15:02:57.564Z</time></trkpt><trkpt lat="45.2265879" lon="11.8789094"><ele>4.0</ele><time>2026-04-07T15:02:58.582Z</time></trkpt><trkpt lat="45.2264541" lon="11.879081"><ele>4.0</ele><time>2026-04-07T15:02:59.571Z</time></trkpt><trkpt lat="45.2263478" lon="11.8792332"><ele>4.0</ele><time>2026-04-07T15:03:00.565Z</time></trkpt><trkpt lat="45.2262477" lon="11.8793611"><ele>4.0</ele><time>2026-04-07T15:03:01.57Z</time></trkpt><trkpt lat="45.2261327" lon="11.8794823"><ele>4.0</ele><time>2026-04-07T15:03:02.572Z</time></trkpt><trkpt lat="45.2260229" lon="11.8796352"><ele>4.666666666666666</ele><time>2026-04-07T15:03:03.566Z</time></trkpt><trkpt lat="45.2258953" lon="11.8798032"><ele>5.333333333333333</ele><time>2026-04-07T15:03:04.568Z</time></trkpt><trkpt lat="45.2257937" lon="11.8799653"><ele>6.0</ele><time>2026-04-07T15:03:05.571Z</time></trkpt><trkpt lat="45.225685" lon="11.8801379"><ele>6.0</ele><time>2026-04-07T15:03:06.579Z</time></trkpt><trkpt lat="45.2255867" lon="11.8803394"><ele>6.0</ele><time>2026-04-07T15:03:07.576Z</time></trkpt><trkpt lat="45.2255043" lon="11.8805379"><ele>6.0</ele><time>2026-04-07T15:03:08.58Z</time></trkpt><trkpt lat="45.2254551" lon="11.8808048"><ele>5.75</ele><time>2026-04-07T15:03:09.576Z</time></trkpt><trkpt lat="45.2254296" lon="11.8810523"><ele>5.5</ele><time>2026-04-07T15:03:10.576Z</time></trkpt><trkpt lat="45.2253923" lon="11.8812314"><ele>5.25</ele><time>2026-04-07T15:03:11.568Z</time></trkpt><trkpt lat="45.2253543" lon="11.8814153"><ele>5.0</ele><time>2026-04-07T15:03:12.575Z</time></trkpt><trkpt lat="45.2252778" lon="11.8815601"><ele>5.0</ele><time>2026-04-07T15:03:13.57Z</time></trkpt><trkpt lat="45.2252329" lon="11.8817117"><ele>5.0</ele><time>2026-04-07T15:03:14.582Z</time></trkpt><trkpt lat="45.2251935" lon="11.8818333"><ele>5.0</ele><time>2026-04-07T15:03:15.572Z</time></trkpt><trkpt lat="45.2251567" lon="11.8819528"><ele>5.0</ele><time>2026-04-07T15:03:16.571Z</time></trkpt><trkpt lat="45.2251519" lon="11.8820465"><ele>5.0</ele><time>2026-04-07T15:03:17.574Z</time></trkpt><trkpt lat="45.2250812" lon="11.8821013"><ele>5.0</ele><time>2026-04-07T15:03:18.603Z</time></trkpt><trkpt lat="45.2249583" lon="11.882191"><ele>5.2</ele><time>2026-04-07T15:03:20.578Z</time></trkpt><trkpt lat="45.2248936" lon="11.8822503"><ele>5.4</ele><time>2026-04-07T15:03:21.6Z</time></trkpt><trkpt lat="45.2248462" lon="11.8823228"><ele>5.6</ele><time>2026-04-07T15:03:22.577Z</time></trkpt><trkpt lat="45.2247441" lon="11.8824801"><ele>5.8</ele><time>2026-04-07T15:03:24.568Z</time></trkpt><trkpt lat="45.2246534" lon="11.8825544"><ele>6.0</ele><time>2026-04-07T15:03:25.572Z</time></trkpt><trkpt lat="45.2245485" lon="11.8826406"><ele>6.0</ele><time>2026-04-07T15:03:26.58Z</time></trkpt><trkpt lat="45.2244414" lon="11.8827364"><ele>6.0</ele><time>2026-04-07T15:03:27.571Z</time></trkpt><trkpt lat="45.2243243" lon="11.8828341"><ele>6.0</ele><time>2026-04-07T15:03:28.571Z</time></trkpt><trkpt lat="45.2242121" lon="11.8829362"><ele>6.0</ele><time>2026-04-07T15:03:29.576Z</time></trkpt><trkpt lat="45.2240907" lon="11.8830479"><ele>6.25</ele><time>2026-04-07T15:03:30.577Z</time></trkpt><trkpt lat="45.2239715" lon="11.8831524"><ele>6.5</ele><time>2026-04-07T15:03:31.573Z</time></trkpt><trkpt lat="45.2238552" lon="11.8832495"><ele>6.75</ele><time>2026-04-07T15:03:32.582Z</time></trkpt><trkpt lat="45.223735" lon="11.8833733"><ele>7.0</ele><time>2026-04-07T15:03:33.572Z</time></trkpt><trkpt lat="45.2235741" lon="11.8835304"><ele>7.0</ele><time>2026-04-07T15:03:34.575Z</time></trkpt><trkpt lat="45.2234225" lon="11.8836764"><ele>7.0</ele><time>2026-04-07T15:03:35.58Z</time></trkpt><trkpt lat="45.2232372" lon="11.8837996"><ele>7.0</ele><time>2026-04-07T15:03:36.58Z</time></trkpt><trkpt lat="45.2230258" lon="11.8838892"><ele>6.666666666666667</ele><time>2026-04-07T15:03:37.575Z</time></trkpt><trkpt lat="45.222829" lon="11.8839669"><ele>6.333333333333334</ele><time>2026-04-07T15:03:38.569Z</time></trkpt><trkpt lat="45.2226374" lon="11.8840186"><ele>6.0</ele><time>2026-04-07T15:03:39.568Z</time></trkpt><trkpt lat="45.2224671" lon="11.8840646"><ele>5.666666666666667</ele><time>2026-04-07T15:03:40.563Z</time></trkpt><trkpt lat="45.2222754" lon="11.8841214"><ele>5.333333333333334</ele><time>2026-04-07T15:03:41.573Z</time></trkpt><trkpt lat="45.2220942" lon="11.8841764"><ele>5.0</ele><time>2026-04-07T15:03:42.561Z</time></trkpt><trkpt lat="45.2219647" lon="11.8842305"><ele>5.0</ele><time>2026-04-07T15:03:43.563Z</time></trkpt><trkpt lat="45.2217416" lon="11.8842336"><ele>5.0</ele><time>2026-04-07T15:03:44.572Z</time></trkpt><trkpt lat="45.2215546" lon="11.884254"><ele>5.0</ele><time>2026-04-07T15:03:45.573Z</time></trkpt><trkpt lat="45.221336" lon="11.8842793"><ele>4.333333333333334</ele><time>2026-04-07T15:03:46.566Z</time></trkpt><trkpt lat="45.2211658" lon="11.8843097"><ele>3.666666666666667</ele><time>2026-04-07T15:03:47.57Z</time></trkpt><trkpt lat="45.2210013" lon="11.8843225"><ele>3.0</ele><time>2026-04-07T15:03:48.569Z</time></trkpt><trkpt lat="45.2208066" lon="11.8843341"><ele>3.25</ele><time>2026-04-07T15:03:49.567Z</time></trkpt><trkpt lat="45.2206467" lon="11.8843332"><ele>3.5</ele><time>2026-04-07T15:03:50.57Z</time></trkpt><trkpt lat="45.2205262" lon="11.88433"><ele>3.75</ele><time>2026-04-07T15:03:51.574Z</time></trkpt><trkpt lat="45.2204417" lon="11.8843357"><ele>4.0</ele><time>2026-04-07T15:03:52.563Z</time></trkpt><trkpt lat="45.2203464" lon="11.8843726"><ele>3.9999999999999996</ele><time>2026-04-07T15:03:54.579Z</time></trkpt><trkpt lat="45.2202723" lon="11.8843896"><ele>4.0</ele><time>2026-04-07T15:03:56.576Z</time></trkpt><trkpt lat="45.2202022" lon="11.8844214"><ele>4.0</ele><time>2026-04-07T15:03:58.573Z</time></trkpt><trkpt lat="45.2200939" lon="11.8844533"><ele>4.0</ele><time>2026-04-07T15:04:01.579Z</time></trkpt><trkpt lat="45.2199887" lon="11.8844841"><ele>3.9999999999999996</ele><time>2026-04-07T15:04:03.576Z</time></trkpt><trkpt lat="45.2199142" lon="11.8845101"><ele>4.0</ele><time>2026-04-07T15:04:04.574Z</time></trkpt><trkpt lat="45.2198184" lon="11.8845391"><ele>3.5</ele><time>2026-04-07T15:04:05.571Z</time></trkpt><trkpt lat="45.2197104" lon="11.8845605"><ele>3.0</ele><time>2026-04-07T15:04:06.58Z</time></trkpt><trkpt lat="45.2195814" lon="11.8845753"><ele>2.5</ele><time>2026-04-07T15:04:07.577Z</time></trkpt><trkpt lat="45.2194389" lon="11.8845859"><ele>2.0</ele><time>2026-04-07T15:04:08.585Z</time></trkpt><trkpt lat="45.2193094" lon="11.8845969"><ele>2.0</ele><time>2026-04-07T15:04:09.573Z</time></trkpt><trkpt lat="45.2191767" lon="11.8845791"><ele>2.0</ele><time>2026-04-07T15:04:10.585Z</time></trkpt><trkpt lat="45.2190139" lon="11.8845657"><ele>2.0</ele><time>2026-04-07T15:04:11.575Z</time></trkpt><trkpt lat="45.2188262" lon="11.884571"><ele>1.6666666666666665</ele><time>2026-04-07T15:04:12.577Z</time></trkpt><trkpt lat="45.2186426" lon="11.8845921"><ele>1.3333333333333333</ele><time>2026-04-07T15:04:13.579Z</time></trkpt><trkpt lat="45.2184807" lon="11.8846299"><ele>1.0</ele><time>2026-04-07T15:04:14.575Z</time></trkpt><trkpt lat="45.2183346" lon="11.8846598"><ele>1.0</ele><time>2026-04-07T15:04:15.577Z</time></trkpt><trkpt lat="45.2181871" lon="11.8846624"><ele>1.0</ele><time>2026-04-07T15:04:16.574Z</time></trkpt><trkpt lat="45.2180486" lon="11.8846935"><ele>1.0</ele><time>2026-04-07T15:04:17.58Z</time></trkpt><trkpt lat="45.2178642" lon="11.8847221"><ele>1.0</ele><time>2026-04-07T15:04:18.58Z</time></trkpt><trkpt lat="45.2176778" lon="11.8847564"><ele>1.0</ele><time>2026-04-07T15:04:19.573Z</time></trkpt><trkpt lat="45.2175284" lon="11.8848071"><ele>1.0</ele><time>2026-04-07T15:04:20.583Z</time></trkpt><trkpt lat="45.2173132" lon="11.8848444"><ele>1.0</ele><time>2026-04-07T15:04:21.583Z</time></trkpt><trkpt lat="45.2171267" lon="11.8848528"><ele>1.0</ele><time>2026-04-07T15:04:22.576Z</time></trkpt><trkpt lat="45.216946" lon="11.8848603"><ele>1.0</ele><time>2026-04-07T15:04:23.577Z</time></trkpt><trkpt lat="45.2167429" lon="11.8848618"><ele>1.0</ele><time>2026-04-07T15:04:24.586Z</time></trkpt><trkpt lat="45.2165633" lon="11.8848994"><ele>1.0</ele><time>2026-04-07T15:04:25.573Z</time></trkpt><trkpt lat="45.2164076" lon="11.8849565"><ele>1.0</ele><time>2026-04-07T15:04:26.587Z</time></trkpt><trkpt lat="45.2162309" lon="11.8849736"><ele>2.5</ele><time>2026-04-07T15:04:27.571Z</time></trkpt><trkpt lat="45.2160091" lon="11.8849372"><ele>4.0</ele><time>2026-04-07T15:04:28.577Z</time></trkpt><trkpt lat="45.2157811" lon="11.8848619"><ele>4.0</ele><time>2026-04-07T15:04:29.576Z</time></trkpt><trkpt lat="45.2155562" lon="11.8847849"><ele>4.0</ele><time>2026-04-07T15:04:30.58Z</time></trkpt><trkpt lat="45.2153413" lon="11.8846731"><ele>4.0</ele><time>2026-04-07T15:04:31.588Z</time></trkpt><trkpt lat="45.2151255" lon="11.8845797"><ele>4.0</ele><time>2026-04-07T15:04:32.581Z</time></trkpt><trkpt lat="45.214922" lon="11.8845202"><ele>4.0</ele><time>2026-04-07T15:04:33.587Z</time></trkpt><trkpt lat="45.2147524" lon="11.8844706"><ele>3.0</ele><time>2026-04-07T15:04:34.581Z</time></trkpt><trkpt lat="45.2145857" lon="11.8844139"><ele>2.0</ele><time>2026-04-07T15:04:35.585Z</time></trkpt><trkpt lat="45.214418" lon="11.8843487"><ele>1.0</ele><time>2026-04-07T15:04:36.591Z</time></trkpt><trkpt lat="45.2142462" lon="11.8842838"><ele>1.0</ele><time>2026-04-07T15:04:37.588Z</time></trkpt><trkpt lat="45.2140713" lon="11.8842168"><ele>1.0</ele><time>2026-04-07T15:04:38.585Z</time></trkpt><trkpt lat="45.213897" lon="11.8841562"><ele>1.0</ele><time>2026-04-07T15:04:39.59Z</time></trkpt><trkpt lat="45.2137648" lon="11.8841209"><ele>1.0</ele><time>2026-04-07T15:04:40.584Z</time></trkpt><trkpt lat="45.2136617" lon="11.8840976"><ele>1.0</ele><time>2026-04-07T15:04:41.58Z</time></trkpt><trkpt lat="45.2135671" lon="11.8840471"><ele>1.0</ele><time>2026-04-07T15:04:42.576Z</time></trkpt><trkpt lat="45.2134702" lon="11.8839635"><ele>1.0</ele><time>2026-04-07T15:04:43.57Z</time></trkpt><trkpt lat="45.2133822" lon="11.8839616"><ele>1.0</ele><time>2026-04-07T15:04:44.568Z</time></trkpt><trkpt lat="45.2133097" lon="11.8839106"><ele>0.9999999999999999</ele><time>2026-04-07T15:04:45.569Z</time></trkpt><trkpt lat="45.2132608" lon="11.8838044"><ele>1.0</ele><time>2026-04-07T15:04:46.561Z</time></trkpt><trkpt lat="45.2132266" lon="11.8836702"><ele>1.0</ele><time>2026-04-07T15:04:47.565Z</time></trkpt><trkpt lat="45.2131781" lon="11.8835545"><ele>1.0</ele><time>2026-04-07T15:04:48.566Z</time></trkpt><trkpt lat="45.213113" lon="11.8834923"><ele>0.9999999999999999</ele><time>2026-04-07T15:04:49.557Z</time></trkpt><trkpt lat="45.2130406" lon="11.8834451"><ele>1.0</ele><time>2026-04-07T15:04:50.565Z</time></trkpt><trkpt lat="45.2129569" lon="11.8834214"><ele>1.2000000000000002</ele><time>2026-04-07T15:04:51.55Z</time></trkpt><trkpt lat="45.2128967" lon="11.883491"><ele>1.4000000000000001</ele><time>2026-04-07T15:04:52.571Z</time></trkpt><trkpt lat="45.212814" lon="11.8835534"><ele>1.6</ele><time>2026-04-07T15:04:53.564Z</time></trkpt><trkpt lat="45.2127125" lon="11.8835994"><ele>1.8</ele><time>2026-04-07T15:04:54.568Z</time></trkpt><trkpt lat="45.2126011" lon="11.8835985"><ele>2.0</ele><time>2026-04-07T15:04:55.566Z</time></trkpt><trkpt lat="45.2124825" lon="11.8835847"><ele>2.0</ele><time>2026-04-07T15:04:56.569Z</time></trkpt><trkpt lat="45.2123547" lon="11.8835549"><ele>2.0</ele><time>2026-04-07T15:04:57.576Z</time></trkpt><trkpt lat="45.2122073" lon="11.8835332"><ele>2.0</ele><time>2026-04-07T15:04:58.575Z</time></trkpt><trkpt lat="45.212021" lon="11.8835344"><ele>2.0</ele><time>2026-04-07T15:04:59.582Z</time></trkpt><trkpt lat="45.2118395" lon="11.8835616"><ele>2.0</ele><time>2026-04-07T15:05:00.575Z</time></trkpt><trkpt lat="45.2116657" lon="11.8834849"><ele>2.0</ele><time>2026-04-07T15:05:01.575Z</time></trkpt><trkpt lat="45.211519" lon="11.8833969"><ele>2.0</ele><time>2026-04-07T15:05:02.577Z</time></trkpt><trkpt lat="45.211346" lon="11.8832717"><ele>2.0</ele><time>2026-04-07T15:05:03.572Z</time></trkpt><trkpt lat="45.2111881" lon="11.8832198"><ele>2.0</ele><time>2026-04-07T15:05:04.581Z</time></trkpt><trkpt lat="45.2110451" lon="11.88317"><ele>2.0</ele><time>2026-04-07T15:05:05.586Z</time></trkpt><trkpt lat="45.2109018" lon="11.8831334"><ele>2.0</ele><time>2026-04-07T15:05:06.585Z</time></trkpt><trkpt lat="45.2107529" lon="11.8830681"><ele>2.0</ele><time>2026-04-07T15:05:07.573Z</time></trkpt><trkpt lat="45.2106077" lon="11.8830084"><ele>2.25</ele><time>2026-04-07T15:05:08.578Z</time></trkpt><trkpt lat="45.2104825" lon="11.8829453"><ele>2.5</ele><time>2026-04-07T15:05:09.571Z</time></trkpt><trkpt lat="45.2103642" lon="11.8828779"><ele>2.75</ele><time>2026-04-07T15:05:10.59Z</time></trkpt><trkpt lat="45.2102402" lon="11.8828283"><ele>3.0</ele><time>2026-04-07T15:05:11.576Z</time></trkpt><trkpt lat="45.2101377" lon="11.8827983"><ele>3.0</ele><time>2026-04-07T15:05:12.579Z</time></trkpt><trkpt lat="45.2100442" lon="11.8827701"><ele>3.0</ele><time>2026-04-07T15:05:13.583Z</time></trkpt><trkpt lat="45.2099487" lon="11.8827602"><ele>3.0</ele><time>2026-04-07T15:05:14.58Z</time></trkpt><trkpt lat="45.2098489" lon="11.8827177"><ele>3.0</ele><time>2026-04-07T15:05:15.57Z</time></trkpt><trkpt lat="45.2097363" lon="11.8826709"><ele>3.0</ele><time>2026-04-07T15:05:16.572Z</time></trkpt><trkpt lat="45.2096272" lon="11.8826087"><ele>2.75</ele><time>2026-04-07T15:05:17.58Z</time></trkpt><trkpt lat="45.2095247" lon="11.8825739"><ele>2.5</ele><time>2026-04-07T15:05:18.575Z</time></trkpt><trkpt lat="45.2093996" lon="11.8825326"><ele>2.25</ele><time>2026-04-07T15:05:19.578Z</time></trkpt><trkpt lat="45.2092632" lon="11.8824904"><ele>2.0</ele><time>2026-04-07T15:05:20.578Z</time></trkpt><trkpt lat="45.2090829" lon="11.8824459"><ele>1.0</ele><time>2026-04-07T15:05:21.573Z</time></trkpt><trkpt lat="45.2088884" lon="11.8823937"><ele>0.0</ele><time>2026-04-07T15:05:22.576Z</time></trkpt><trkpt lat="45.208687" lon="11.8823147"><ele>-1.0</ele><time>2026-04-07T15:05:23.575Z</time></trkpt><trkpt lat="45.2085232" lon="11.8822492"><ele>-1.0</ele><time>2026-04-07T15:05:24.573Z</time></trkpt><trkpt lat="45.2083786" lon="11.8821955"><ele>-1.0</ele><time>2026-04-07T15:05:25.571Z</time></trkpt><trkpt lat="45.2082257" lon="11.8821481"><ele>-1.0</ele><time>2026-04-07T15:05:26.574Z</time></trkpt><trkpt lat="45.2080885" lon="11.8821097"><ele>-1.0</ele><time>2026-04-07T15:05:27.576Z</time></trkpt><trkpt lat="45.2079513" lon="11.8820534"><ele>-0.25</ele><time>2026-04-07T15:05:28.578Z</time></trkpt><trkpt lat="45.207814" lon="11.8819943"><ele>0.5</ele><time>2026-04-07T15:05:29.576Z</time></trkpt><trkpt lat="45.2076724" lon="11.8819285"><ele>1.25</ele><time>2026-04-07T15:05:30.574Z</time></trkpt><trkpt lat="45.2075228" lon="11.881871"><ele>2.0</ele><time>2026-04-07T15:05:31.588Z</time></trkpt><trkpt lat="45.2073493" lon="11.8817959"><ele>1.3333333333333333</ele><time>2026-04-07T15:05:32.576Z</time></trkpt><trkpt lat="45.207176" lon="11.8817298"><ele>0.6666666666666666</ele><time>2026-04-07T15:05:33.574Z</time></trkpt><trkpt lat="45.2069982" lon="11.881673"><ele>0.0</ele><time>2026-04-07T15:05:34.581Z</time></trkpt><trkpt lat="45.2068302" lon="11.881611"><ele>0.0</ele><time>2026-04-07T15:05:35.583Z</time></trkpt><trkpt lat="45.2066613" lon="11.8815543"><ele>0.0</ele><time>2026-04-07T15:05:36.572Z</time></trkpt><trkpt lat="45.2065073" lon="11.8815153"><ele>0.0</ele><time>2026-04-07T15:05:37.581Z</time></trkpt><trkpt lat="45.2063654" lon="11.8814874"><ele>0.0</ele><time>2026-04-07T15:05:38.585Z</time></trkpt><trkpt lat="45.2062111" lon="11.8814394"><ele>0.0</ele><time>2026-04-07T15:05:39.584Z</time></trkpt><trkpt lat="45.2060342" lon="11.881388"><ele>0.0</ele><time>2026-04-07T15:05:40.579Z</time></trkpt><trkpt lat="45.2058791" lon="11.8813358"><ele>0.0</ele><time>2026-04-07T15:05:41.594Z</time></trkpt><trkpt lat="45.2057236" lon="11.8812954"><ele>0.0</ele><time>2026-04-07T15:05:42.578Z</time></trkpt><trkpt lat="45.2055993" lon="11.8812468"><ele>0.0</ele><time>2026-04-07T15:05:43.588Z</time></trkpt><trkpt lat="45.205476" lon="11.8812476"><ele>0.0</ele><time>2026-04-07T15:05:44.584Z</time></trkpt><trkpt lat="45.2053606" lon="11.8812714"><ele>0.3333333333333333</ele><time>2026-04-07T15:05:45.579Z</time></trkpt><trkpt lat="45.2052281" lon="11.8812954"><ele>0.6666666666666666</ele><time>2026-04-07T15:05:46.578Z</time></trkpt><trkpt lat="45.2050596" lon="11.8813396"><ele>1.0</ele><time>2026-04-07T15:05:47.586Z</time></trkpt><trkpt lat="45.2048673" lon="11.8814203"><ele>1.0</ele><time>2026-04-07T15:05:48.58Z</time></trkpt><trkpt lat="45.2046566" lon="11.8815296"><ele>1.0</ele><time>2026-04-07T15:05:49.581Z</time></trkpt><trkpt lat="45.2044752" lon="11.8816274"><ele>1.0</ele><time>2026-04-07T15:05:50.578Z</time></trkpt><trkpt lat="45.2043336" lon="11.8817446"><ele>1.0</ele><time>2026-04-07T15:05:51.572Z</time></trkpt><trkpt lat="45.2041858" lon="11.8818733"><ele>1.0</ele><time>2026-04-07T15:05:52.574Z</time></trkpt><trkpt lat="45.2040631" lon="11.8820058"><ele>1.0</ele><time>2026-04-07T15:05:53.589Z</time></trkpt><trkpt lat="45.2039397" lon="11.8821269"><ele>1.3333333333333333</ele><time>2026-04-07T15:05:54.578Z</time></trkpt><trkpt lat="45.2038337" lon="11.8822568"><ele>1.6666666666666665</ele><time>2026-04-07T15:05:55.581Z</time></trkpt><trkpt lat="45.203709" lon="11.8824176"><ele>2.0</ele><time>2026-04-07T15:05:56.58Z</time></trkpt><trkpt lat="45.2035769" lon="11.8825586"><ele>2.333333333333333</ele><time>2026-04-07T15:05:57.577Z</time></trkpt><trkpt lat="45.2034392" lon="11.8826817"><ele>2.6666666666666665</ele><time>2026-04-07T15:05:58.58Z</time></trkpt><trkpt lat="45.2033039" lon="11.8827912"><ele>3.0</ele><time>2026-04-07T15:05:59.584Z</time></trkpt><trkpt lat="45.2031487" lon="11.8829525"><ele>3.0</ele><time>2026-04-07T15:06:00.576Z</time></trkpt><trkpt lat="45.2029885" lon="11.8831282"><ele>3.0</ele><time>2026-04-07T15:06:01.582Z</time></trkpt><trkpt lat="45.2028212" lon="11.883292"><ele>3.0</ele><time>2026-04-07T15:06:02.582Z</time></trkpt><trkpt lat="45.2026399" lon="11.8834824"><ele>3.0</ele><time>2026-04-07T15:06:03.568Z</time></trkpt><trkpt lat="45.2024776" lon="11.8835933"><ele>3.0</ele><time>2026-04-07T15:06:04.571Z</time></trkpt><trkpt lat="45.2023283" lon="11.8837109"><ele>3.0</ele><time>2026-04-07T15:06:05.565Z</time></trkpt><trkpt lat="45.2021673" lon="11.8838657"><ele>3.0</ele><time>2026-04-07T15:06:06.56Z</time></trkpt><trkpt lat="45.2019832" lon="11.884051"><ele>3.0</ele><time>2026-04-07T15:06:07.561Z</time></trkpt><trkpt lat="45.20181" lon="11.8842195"><ele>3.0</ele><time>2026-04-07T15:06:08.575Z</time></trkpt><trkpt lat="45.2016361" lon="11.8843757"><ele>3.0</ele><time>2026-04-07T15:06:09.558Z</time></trkpt><trkpt lat="45.2014658" lon="11.8845397"><ele>3.0</ele><time>2026-04-07T15:06:10.572Z</time></trkpt><trkpt lat="45.2013163" lon="11.8847124"><ele>3.0</ele><time>2026-04-07T15:06:11.566Z</time></trkpt><trkpt lat="45.2011679" lon="11.8848636"><ele>3.0</ele><time>2026-04-07T15:06:12.575Z</time></trkpt><trkpt lat="45.2010084" lon="11.8850119"><ele>3.0</ele><time>2026-04-07T15:06:13.573Z</time></trkpt><trkpt lat="45.2008375" lon="11.8851873"><ele>3.0</ele><time>2026-04-07T15:06:14.572Z</time></trkpt><trkpt lat="45.2006665" lon="11.8853488"><ele>3.0</ele><time>2026-04-07T15:06:15.566Z</time></trkpt><trkpt lat="45.2005101" lon="11.8855011"><ele>3.0</ele><time>2026-04-07T15:06:16.569Z</time></trkpt><trkpt lat="45.2003549" lon="11.8856473"><ele>3.0</ele><time>2026-04-07T15:06:17.571Z</time></trkpt><trkpt lat="45.2002291" lon="11.8858006"><ele>3.0</ele><time>2026-04-07T15:06:18.573Z</time></trkpt><trkpt lat="45.2001135" lon="11.8859258"><ele>3.0</ele><time>2026-04-07T15:06:19.57Z</time></trkpt><trkpt lat="45.1999963" lon="11.886057"><ele>3.0</ele><time>2026-04-07T15:06:20.573Z</time></trkpt><trkpt lat="45.1998835" lon="11.8861842"><ele>3.0</ele><time>2026-04-07T15:06:21.598Z</time></trkpt><trkpt lat="45.1998319" lon="11.8862697"><ele>2.8</ele><time>2026-04-07T15:06:22.579Z</time></trkpt><trkpt lat="45.1997012" lon="11.8863378"><ele>2.5999999999999996</ele><time>2026-04-07T15:06:24.568Z</time></trkpt><trkpt lat="45.1996314" lon="11.8863526"><ele>2.4000000000000004</ele><time>2026-04-07T15:06:25.577Z</time></trkpt><trkpt lat="45.1995506" lon="11.8863589"><ele>2.2</ele><time>2026-04-07T15:06:26.575Z</time></trkpt><trkpt lat="45.1994474" lon="11.8864573"><ele>2.0</ele><time>2026-04-07T15:06:27.569Z</time></trkpt><trkpt lat="45.1993351" lon="11.8865562"><ele>2.0</ele><time>2026-04-07T15:06:28.565Z</time></trkpt><trkpt lat="45.1991902" lon="11.8866363"><ele>2.0</ele><time>2026-04-07T15:06:29.572Z</time></trkpt><trkpt lat="45.1990739" lon="11.8867244"><ele>2.0</ele><time>2026-04-07T15:06:30.569Z</time></trkpt><trkpt lat="45.1989419" lon="11.8867926"><ele>2.0</ele><time>2026-04-07T15:06:31.565Z</time></trkpt><trkpt lat="45.1987905" lon="11.8868284"><ele>2.0</ele><time>2026-04-07T15:06:32.564Z</time></trkpt><trkpt lat="45.1986246" lon="11.8867822"><ele>2.0</ele><time>2026-04-07T15:06:33.566Z</time></trkpt><trkpt lat="45.1984672" lon="11.8867475"><ele>2.0</ele><time>2026-04-07T15:06:34.567Z</time></trkpt><trkpt lat="45.1982968" lon="11.8867131"><ele>2.333333333333333</ele><time>2026-04-07T15:06:35.572Z</time></trkpt><trkpt lat="45.1981134" lon="11.8866406"><ele>2.6666666666666665</ele><time>2026-04-07T15:06:36.568Z</time></trkpt><trkpt lat="45.1979282" lon="11.8865862"><ele>3.0</ele><time>2026-04-07T15:06:37.574Z</time></trkpt><trkpt lat="45.1977383" lon="11.8865478"><ele>3.0</ele><time>2026-04-07T15:06:38.576Z</time></trkpt><trkpt lat="45.197563" lon="11.8864984"><ele>3.0</ele><time>2026-04-07T15:06:39.567Z</time></trkpt><trkpt lat="45.1974071" lon="11.8864579"><ele>3.0</ele><time>2026-04-07T15:06:40.574Z</time></trkpt><trkpt lat="45.1972629" lon="11.8864252"><ele>2.6666666666666665</ele><time>2026-04-07T15:06:41.575Z</time></trkpt><trkpt lat="45.1971157" lon="11.8864052"><ele>2.333333333333333</ele><time>2026-04-07T15:06:42.561Z</time></trkpt><trkpt lat="45.1969551" lon="11.8863859"><ele>2.0</ele><time>2026-04-07T15:06:43.585Z</time></trkpt><trkpt lat="45.1967935" lon="11.8863602"><ele>2.0</ele><time>2026-04-07T15:06:44.569Z</time></trkpt><trkpt lat="45.1966319" lon="11.8863235"><ele>2.0</ele><time>2026-04-07T15:06:45.565Z</time></trkpt><trkpt lat="45.1964622" lon="11.8862836"><ele>2.0</ele><time>2026-04-07T15:06:46.57Z</time></trkpt><trkpt lat="45.1962866" lon="11.8862393"><ele>2.0</ele><time>2026-04-07T15:06:47.571Z</time></trkpt><trkpt lat="45.1961052" lon="11.886205"><ele>2.0</ele><time>2026-04-07T15:06:48.561Z</time></trkpt><trkpt lat="45.1959176" lon="11.8861689"><ele>2.0</ele><time>2026-04-07T15:06:49.575Z</time></trkpt><trkpt lat="45.1957317" lon="11.8861197"><ele>2.0</ele><time>2026-04-07T15:06:50.574Z</time></trkpt><trkpt lat="45.1955386" lon="11.8860761"><ele>2.0</ele><time>2026-04-07T15:06:51.565Z</time></trkpt><trkpt lat="45.1953287" lon="11.8860198"><ele>2.0</ele><time>2026-04-07T15:06:52.575Z</time></trkpt><trkpt lat="45.1951457" lon="11.8859813"><ele>2.0</ele><time>2026-04-07T15:06:53.573Z</time></trkpt><trkpt lat="45.1949797" lon="11.8859563"><ele>2.0</ele><time>2026-04-07T15:06:54.567Z</time></trkpt><trkpt lat="45.1948123" lon="11.8859168"><ele>2.0</ele><time>2026-04-07T15:06:55.583Z</time></trkpt><trkpt lat="45.1946296" lon="11.8858807"><ele>2.333333333333333</ele><time>2026-04-07T15:06:56.58Z</time></trkpt><trkpt lat="45.194467" lon="11.8858546"><ele>2.6666666666666665</ele><time>2026-04-07T15:06:57.578Z</time></trkpt><trkpt lat="45.1942959" lon="11.8858149"><ele>3.0</ele><time>2026-04-07T15:06:58.578Z</time></trkpt><trkpt lat="45.1941268" lon="11.8857901"><ele>2.6666666666666665</ele><time>2026-04-07T15:06:59.581Z</time></trkpt><trkpt lat="45.193966" lon="11.8857628"><ele>2.333333333333333</ele><time>2026-04-07T15:07:00.573Z</time></trkpt><trkpt lat="45.1937986" lon="11.8857265"><ele>2.0</ele><time>2026-04-07T15:07:01.588Z</time></trkpt><trkpt lat="45.1936396" lon="11.8856887"><ele>2.0</ele><time>2026-04-07T15:07:02.573Z</time></trkpt><trkpt lat="45.1934803" lon="11.8856561"><ele>2.0</ele><time>2026-04-07T15:07:03.569Z</time></trkpt><trkpt lat="45.193308" lon="11.8856253"><ele>2.0</ele><time>2026-04-07T15:07:04.582Z</time></trkpt><trkpt lat="45.1931275" lon="11.8855869"><ele>1.75</ele><time>2026-04-07T15:07:05.572Z</time></trkpt><trkpt lat="45.1929777" lon="11.8855572"><ele>1.5</ele><time>2026-04-07T15:07:06.58Z</time></trkpt><trkpt lat="45.1928315" lon="11.8855201"><ele>1.25</ele><time>2026-04-07T15:07:07.581Z</time></trkpt><trkpt lat="45.1926977" lon="11.885515"><ele>1.0</ele><time>2026-04-07T15:07:08.578Z</time></trkpt><trkpt lat="45.1925513" lon="11.8854686"><ele>1.0</ele><time>2026-04-07T15:07:09.576Z</time></trkpt><trkpt lat="45.1923914" lon="11.8854331"><ele>1.0</ele><time>2026-04-07T15:07:10.587Z</time></trkpt><trkpt lat="45.1922206" lon="11.8854003"><ele>1.0</ele><time>2026-04-07T15:07:11.582Z</time></trkpt><trkpt lat="45.1920393" lon="11.8853705"><ele>1.3333333333333333</ele><time>2026-04-07T15:07:12.574Z</time></trkpt><trkpt lat="45.1918542" lon="11.8853429"><ele>1.6666666666666665</ele><time>2026-04-07T15:07:13.581Z</time></trkpt><trkpt lat="45.1916816" lon="11.8853238"><ele>2.0</ele><time>2026-04-07T15:07:14.583Z</time></trkpt><trkpt lat="45.1914981" lon="11.8852865"><ele>2.6666666666666665</ele><time>2026-04-07T15:07:15.563Z</time></trkpt><trkpt lat="45.1913101" lon="11.8852591"><ele>3.333333333333333</ele><time>2026-04-07T15:07:16.572Z</time></trkpt><trkpt lat="45.1911505" lon="11.8852307"><ele>4.0</ele><time>2026-04-07T15:07:17.575Z</time></trkpt><trkpt lat="45.1910025" lon="11.8852038"><ele>4.0</ele><time>2026-04-07T15:07:18.567Z</time></trkpt><trkpt lat="45.1908518" lon="11.8851629"><ele>4.0</ele><time>2026-04-07T15:07:19.571Z</time></trkpt><trkpt lat="45.1907081" lon="11.8851288"><ele>4.0</ele><time>2026-04-07T15:07:20.568Z</time></trkpt><trkpt lat="45.1905598" lon="11.8850972"><ele>4.0</ele><time>2026-04-07T15:07:21.56Z</time></trkpt><trkpt lat="45.1903967" lon="11.8850539"><ele>3.6666666666666665</ele><time>2026-04-07T15:07:22.577Z</time></trkpt><trkpt lat="45.1902405" lon="11.8850197"><ele>3.333333333333333</ele><time>2026-04-07T15:07:23.574Z</time></trkpt><trkpt lat="45.1900626" lon="11.8849808"><ele>3.0</ele><time>2026-04-07T15:07:24.569Z</time></trkpt><trkpt lat="45.1898693" lon="11.8849433"><ele>3.333333333333333</ele><time>2026-04-07T15:07:25.572Z</time></trkpt><trkpt lat="45.1896828" lon="11.8849135"><ele>3.6666666666666665</ele><time>2026-04-07T15:07:26.572Z</time></trkpt><trkpt lat="45.1895332" lon="11.8848849"><ele>4.0</ele><time>2026-04-07T15:07:27.569Z</time></trkpt><trkpt lat="45.1893818" lon="11.8848554"><ele>4.0</ele><time>2026-04-07T15:07:28.591Z</time></trkpt><trkpt lat="45.1892346" lon="11.8848225"><ele>4.0</ele><time>2026-04-07T15:07:29.574Z</time></trkpt><trkpt lat="45.189098" lon="11.8848013"><ele>4.0</ele><time>2026-04-07T15:07:30.575Z</time></trkpt><trkpt lat="45.1889538" lon="11.88475"><ele>4.0</ele><time>2026-04-07T15:07:31.578Z</time></trkpt><trkpt lat="45.1888157" lon="11.8846899"><ele>3.75</ele><time>2026-04-07T15:07:32.571Z</time></trkpt><trkpt lat="45.1886902" lon="11.884667"><ele>3.5</ele><time>2026-04-07T15:07:33.566Z</time></trkpt><trkpt lat="45.1885895" lon="11.8846452"><ele>3.25</ele><time>2026-04-07T15:07:34.575Z</time></trkpt><trkpt lat="45.1884701" lon="11.8846288"><ele>3.0</ele><time>2026-04-07T15:07:35.57Z</time></trkpt><trkpt lat="45.1883603" lon="11.8846081"><ele>3.0</ele><time>2026-04-07T15:07:36.571Z</time></trkpt><trkpt lat="45.1882584" lon="11.8845871"><ele>3.0</ele><time>2026-04-07T15:07:37.57Z</time></trkpt><trkpt lat="45.188165" lon="11.8845801"><ele>3.0</ele><time>2026-04-07T15:07:38.567Z</time></trkpt><trkpt lat="45.1880893" lon="11.8845688"><ele>3.0</ele><time>2026-04-07T15:07:39.565Z</time></trkpt><trkpt lat="45.1880256" lon="11.8845571"><ele>3.0</ele><time>2026-04-07T15:07:40.581Z</time></trkpt><trkpt lat="45.1879125" lon="11.8845364"><ele>3.2</ele><time>2026-04-07T15:07:42.567Z</time></trkpt><trkpt lat="45.1878492" lon="11.8845198"><ele>3.4</ele><time>2026-04-07T15:07:43.585Z</time></trkpt><trkpt lat="45.1877302" lon="11.8845027"><ele>3.6000000000000005</ele><time>2026-04-07T15:07:45.582Z</time></trkpt><trkpt lat="45.1876192" lon="11.8844754"><ele>3.8000000000000003</ele><time>2026-04-07T15:07:47.58Z</time></trkpt><trkpt lat="45.1874906" lon="11.8844136"><ele>4.0</ele><time>2026-04-07T15:07:49.578Z</time></trkpt><trkpt lat="45.1874264" lon="11.8843266"><ele>3.833333333333333</ele><time>2026-04-07T15:07:50.57Z</time></trkpt><trkpt lat="45.1873784" lon="11.8842342"><ele>3.6666666666666665</ele><time>2026-04-07T15:07:51.571Z</time></trkpt><trkpt lat="45.1873335" lon="11.8841647"><ele>3.5</ele><time>2026-04-07T15:07:52.574Z</time></trkpt><trkpt lat="45.1872678" lon="11.8841251"><ele>3.333333333333333</ele><time>2026-04-07T15:07:53.567Z</time></trkpt><trkpt lat="45.1871897" lon="11.8841437"><ele>3.1666666666666665</ele><time>2026-04-07T15:07:54.568Z</time></trkpt><trkpt lat="45.1871135" lon="11.8842031"><ele>3.0</ele><time>2026-04-07T15:07:55.574Z</time></trkpt><trkpt lat="45.187054" lon="11.8842782"><ele>3.4</ele><time>2026-04-07T15:07:56.571Z</time></trkpt><trkpt lat="45.1869789" lon="11.8843348"><ele>3.8</ele><time>2026-04-07T15:07:57.571Z</time></trkpt><trkpt lat="45.1869034" lon="11.8843638"><ele>4.2</ele><time>2026-04-07T15:07:58.565Z</time></trkpt><trkpt lat="45.1868171" lon="11.8843428"><ele>4.6</ele><time>2026-04-07T15:07:59.575Z</time></trkpt><trkpt lat="45.1867193" lon="11.8843177"><ele>5.0</ele><time>2026-04-07T15:08:00.573Z</time></trkpt><trkpt lat="45.186606" lon="11.8842996"><ele>5.0</ele><time>2026-04-07T15:08:01.558Z</time></trkpt><trkpt lat="45.1864868" lon="11.8842753"><ele>5.0</ele><time>2026-04-07T15:08:02.564Z</time></trkpt><trkpt lat="45.1863757" lon="11.884248"><ele>5.0</ele><time>2026-04-07T15:08:03.569Z</time></trkpt><trkpt lat="45.1862737" lon="11.8842287"><ele>5.0</ele><time>2026-04-07T15:08:04.572Z</time></trkpt><trkpt lat="45.1861628" lon="11.8842094"><ele>5.0</ele><time>2026-04-07T15:08:05.564Z</time></trkpt><trkpt lat="45.186049" lon="11.8841853"><ele>5.0</ele><time>2026-04-07T15:08:06.573Z</time></trkpt><trkpt lat="45.185943" lon="11.884167"><ele>5.0</ele><time>2026-04-07T15:08:07.568Z</time></trkpt><trkpt lat="45.1858472" lon="11.8841545"><ele>5.0</ele><time>2026-04-07T15:08:08.576Z</time></trkpt><trkpt lat="45.1857621" lon="11.8841366"><ele>5.0</ele><time>2026-04-07T15:08:09.572Z</time></trkpt><trkpt lat="45.1856777" lon="11.8841216"><ele>5.0</ele><time>2026-04-07T15:08:10.572Z</time></trkpt><trkpt lat="45.1855862" lon="11.8840994"><ele>5.333333333333334</ele><time>2026-04-07T15:08:11.571Z</time></trkpt><trkpt lat="45.1854852" lon="11.8840691"><ele>5.666666666666667</ele><time>2026-04-07T15:08:12.573Z</time></trkpt><trkpt lat="45.1853954" lon="11.8840416"><ele>6.0</ele><time>2026-04-07T15:08:13.576Z</time></trkpt><trkpt lat="45.1853195" lon="11.8840248"><ele>6.333333333333334</ele><time>2026-04-07T15:08:14.572Z</time></trkpt><trkpt lat="45.1852527" lon="11.8840117"><ele>6.666666666666667</ele><time>2026-04-07T15:08:15.572Z</time></trkpt><trkpt lat="45.1851884" lon="11.8839958"><ele>7.0</ele><time>2026-04-07T15:08:16.581Z</time></trkpt><trkpt lat="45.1851252" lon="11.8839771"><ele>7.000000000000001</ele><time>2026-04-07T15:08:17.574Z</time></trkpt><trkpt lat="45.1850541" lon="11.8839553"><ele>7.0</ele><time>2026-04-07T15:08:18.569Z</time></trkpt><trkpt lat="45.1849791" lon="11.8839422"><ele>7.0</ele><time>2026-04-07T15:08:19.578Z</time></trkpt><trkpt lat="45.1849058" lon="11.8839265"><ele>7.0</ele><time>2026-04-07T15:08:20.574Z</time></trkpt><trkpt lat="45.1848344" lon="11.883891"><ele>7.000000000000001</ele><time>2026-04-07T15:08:21.571Z</time></trkpt><trkpt lat="45.1847728" lon="11.883848"><ele>7.0</ele><time>2026-04-07T15:08:22.574Z</time></trkpt><trkpt lat="45.1846808" lon="11.8837518"><ele>7.199999999999999</ele><time>2026-04-07T15:08:24.569Z</time></trkpt><trkpt lat="45.1846566" lon="11.8835847"><ele>7.3999999999999995</ele><time>2026-04-07T15:08:26.565Z</time></trkpt><trkpt lat="45.1846699" lon="11.8834734"><ele>7.6000000000000005</ele><time>2026-04-07T15:08:27.568Z</time></trkpt><trkpt lat="45.1846955" lon="11.8833393"><ele>7.800000000000001</ele><time>2026-04-07T15:08:28.567Z</time></trkpt><trkpt lat="45.1847289" lon="11.883172"><ele>8.0</ele><time>2026-04-07T15:08:29.575Z</time></trkpt><trkpt lat="45.1847608" lon="11.8830259"><ele>7.999999999999999</ele><time>2026-04-07T15:08:30.561Z</time></trkpt><trkpt lat="45.1847919" lon="11.8829014"><ele>8.0</ele><time>2026-04-07T15:08:31.567Z</time></trkpt><trkpt lat="45.1848196" lon="11.8828011"><ele>8.0</ele><time>2026-04-07T15:08:32.571Z</time></trkpt><trkpt lat="45.1848487" lon="11.8827069"><ele>8.0</ele><time>2026-04-07T15:08:33.571Z</time></trkpt><trkpt lat="45.1848824" lon="11.8825937"><ele>7.999999999999999</ele><time>2026-04-07T15:08:34.563Z</time></trkpt><trkpt lat="45.1849197" lon="11.8824865"><ele>8.0</ele><time>2026-04-07T15:08:35.571Z</time></trkpt><trkpt lat="45.1849439" lon="11.8823551"><ele>7.833333333333333</ele><time>2026-04-07T15:08:36.571Z</time></trkpt><trkpt lat="45.1849619" lon="11.8822434"><ele>7.666666666666666</ele><time>2026-04-07T15:08:37.56Z</time></trkpt><trkpt lat="45.1849881" lon="11.8821443"><ele>7.5</ele><time>2026-04-07T15:08:38.572Z</time></trkpt><trkpt lat="45.1850196" lon="11.8820217"><ele>7.333333333333334</ele><time>2026-04-07T15:08:40.563Z</time></trkpt><trkpt lat="45.185039" lon="11.8819191"><ele>7.166666666666667</ele><time>2026-04-07T15:08:44.573Z</time></trkpt><trkpt lat="45.1850558" lon="11.8818305"><ele>7.0</ele><time>2026-04-07T15:08:46.572Z</time></trkpt><trkpt lat="45.1849287" lon="11.8818213"><ele>7.5</ele><time>2026-04-07T15:08:50.57Z</time></trkpt><trkpt lat="45.1848188" lon="11.8818195"><ele>8.0</ele><time>2026-04-07T15:08:51.573Z</time></trkpt><trkpt lat="45.1847141" lon="11.881823"><ele>8.5</ele><time>2026-04-07T15:08:52.571Z</time></trkpt><trkpt lat="45.1845937" lon="11.8817983"><ele>9.0</ele><time>2026-04-07T15:08:53.572Z</time></trkpt><trkpt lat="45.1844656" lon="11.8817663"><ele>8.25</ele><time>2026-04-07T15:08:54.58Z</time></trkpt><trkpt lat="45.1843348" lon="11.8817466"><ele>7.5</ele><time>2026-04-07T15:08:55.573Z</time></trkpt><trkpt lat="45.184199" lon="11.881726"><ele>6.75</ele><time>2026-04-07T15:08:56.568Z</time></trkpt><trkpt lat="45.1840572" lon="11.8817034"><ele>6.0</ele><time>2026-04-07T15:08:57.576Z</time></trkpt><trkpt lat="45.1839099" lon="11.8816711"><ele>6.0</ele><time>2026-04-07T15:08:58.573Z</time></trkpt><trkpt lat="45.183695" lon="11.8816266"><ele>6.0</ele><time>2026-04-07T15:08:59.575Z</time></trkpt><trkpt lat="45.1834683" lon="11.88157"><ele>6.0</ele><time>2026-04-07T15:09:00.571Z</time></trkpt><trkpt lat="45.1832371" lon="11.8815599"><ele>5.0</ele><time>2026-04-07T15:09:01.57Z</time></trkpt><trkpt lat="45.1829834" lon="11.881526"><ele>4.0</ele><time>2026-04-07T15:09:02.573Z</time></trkpt><trkpt lat="45.1827332" lon="11.881482"><ele>4.0</ele><time>2026-04-07T15:09:03.573Z</time></trkpt><trkpt lat="45.1824962" lon="11.8814243"><ele>4.0</ele><time>2026-04-07T15:09:04.563Z</time></trkpt><trkpt lat="45.1822923" lon="11.8813259"><ele>3.333333333333333</ele><time>2026-04-07T15:09:05.569Z</time></trkpt><trkpt lat="45.1821142" lon="11.881288"><ele>2.6666666666666665</ele><time>2026-04-07T15:09:06.572Z</time></trkpt><trkpt lat="45.1819461" lon="11.8812467"><ele>2.0</ele><time>2026-04-07T15:09:07.568Z</time></trkpt><trkpt lat="45.1817889" lon="11.8811953"><ele>2.0</ele><time>2026-04-07T15:09:08.57Z</time></trkpt><trkpt lat="45.1816333" lon="11.8811856"><ele>2.0</ele><time>2026-04-07T15:09:09.571Z</time></trkpt><trkpt lat="45.1814645" lon="11.8811552"><ele>2.0</ele><time>2026-04-07T15:09:10.573Z</time></trkpt><trkpt lat="45.1812803" lon="11.8811379"><ele>1.6666666666666665</ele><time>2026-04-07T15:09:11.572Z</time></trkpt><trkpt lat="45.1810968" lon="11.8810904"><ele>1.3333333333333333</ele><time>2026-04-07T15:09:12.577Z</time></trkpt><trkpt lat="45.1809094" lon="11.8810221"><ele>1.0</ele><time>2026-04-07T15:09:13.569Z</time></trkpt><trkpt lat="45.1807391" lon="11.880991"><ele>1.0</ele><time>2026-04-07T15:09:14.584Z</time></trkpt><trkpt lat="45.1805588" lon="11.8809615"><ele>1.0</ele><time>2026-04-07T15:09:15.583Z</time></trkpt><trkpt lat="45.180362" lon="11.8809175"><ele>1.0</ele><time>2026-04-07T15:09:16.581Z</time></trkpt><trkpt lat="45.1801765" lon="11.8808853"><ele>1.0</ele><time>2026-04-07T15:09:17.578Z</time></trkpt><trkpt lat="45.1800136" lon="11.8808495"><ele>1.0</ele><time>2026-04-07T15:09:18.59Z</time></trkpt><trkpt lat="45.1798408" lon="11.8808082"><ele>1.0</ele><time>2026-04-07T15:09:19.574Z</time></trkpt><trkpt lat="45.1796757" lon="11.8807694"><ele>1.3333333333333333</ele><time>2026-04-07T15:09:20.58Z</time></trkpt><trkpt lat="45.1795043" lon="11.8807291"><ele>1.6666666666666665</ele><time>2026-04-07T15:09:21.58Z</time></trkpt><trkpt lat="45.1793272" lon="11.8806776"><ele>2.0</ele><time>2026-04-07T15:09:22.582Z</time></trkpt><trkpt lat="45.1791418" lon="11.8806418"><ele>2.333333333333333</ele><time>2026-04-07T15:09:23.582Z</time></trkpt><trkpt lat="45.1789523" lon="11.880623"><ele>2.6666666666666665</ele><time>2026-04-07T15:09:24.592Z</time></trkpt><trkpt lat="45.1787655" lon="11.8806014"><ele>3.0</ele><time>2026-04-07T15:09:25.583Z</time></trkpt><trkpt lat="45.1785647" lon="11.8805656"><ele>3.0</ele><time>2026-04-07T15:09:26.579Z</time></trkpt><trkpt lat="45.1783578" lon="11.8805541"><ele>3.0</ele><time>2026-04-07T15:09:27.585Z</time></trkpt><trkpt lat="45.1781188" lon="11.8805223"><ele>3.0</ele><time>2026-04-07T15:09:28.583Z</time></trkpt><trkpt lat="45.1778656" lon="11.8804733"><ele>3.0</ele><time>2026-04-07T15:09:29.58Z</time></trkpt><trkpt lat="45.1775931" lon="11.8804011"><ele>3.0</ele><time>2026-04-07T15:09:30.584Z</time></trkpt><trkpt lat="45.177321" lon="11.8803374"><ele>2.5</ele><time>2026-04-07T15:09:31.576Z</time></trkpt><trkpt lat="45.1770421" lon="11.8802691"><ele>2.0</ele><time>2026-04-07T15:09:32.587Z</time></trkpt><trkpt lat="45.1767981" lon="11.8802269"><ele>2.0</ele><time>2026-04-07T15:09:33.586Z</time></trkpt><trkpt lat="45.1765439" lon="11.8801926"><ele>2.0</ele><time>2026-04-07T15:09:34.575Z</time></trkpt><trkpt lat="45.1762731" lon="11.8801494"><ele>2.0</ele><time>2026-04-07T15:09:35.587Z</time></trkpt><trkpt lat="45.1759955" lon="11.8800873"><ele>2.0</ele><time>2026-04-07T15:09:36.588Z</time></trkpt><trkpt lat="45.1757101" lon="11.8800322"><ele>2.5</ele><time>2026-04-07T15:09:37.588Z</time></trkpt><trkpt lat="45.1754233" lon="11.8799651"><ele>3.0</ele><time>2026-04-07T15:09:38.577Z</time></trkpt><trkpt lat="45.1751811" lon="11.8799058"><ele>3.0</ele><time>2026-04-07T15:09:39.587Z</time></trkpt><trkpt lat="45.1749346" lon="11.8798476"><ele>3.0</ele><time>2026-04-07T15:09:40.58Z</time></trkpt><trkpt lat="45.1747129" lon="11.8797796"><ele>3.0</ele><time>2026-04-07T15:09:41.584Z</time></trkpt><trkpt lat="45.1744934" lon="11.8797172"><ele>3.0</ele><time>2026-04-07T15:09:42.589Z</time></trkpt><trkpt lat="45.1742857" lon="11.8796615"><ele>3.0</ele><time>2026-04-07T15:09:43.579Z</time></trkpt><trkpt lat="45.1740838" lon="11.8796202"><ele>2.0</ele><time>2026-04-07T15:09:44.586Z</time></trkpt><trkpt lat="45.1738924" lon="11.8795868"><ele>1.0</ele><time>2026-04-07T15:09:45.585Z</time></trkpt><trkpt lat="45.1737021" lon="11.8795652"><ele>0.0</ele><time>2026-04-07T15:09:46.577Z</time></trkpt><trkpt lat="45.173508" lon="11.8795703"><ele>0.0</ele><time>2026-04-07T15:09:47.589Z</time></trkpt><trkpt lat="45.1732747" lon="11.8795463"><ele>0.0</ele><time>2026-04-07T15:09:48.583Z</time></trkpt><trkpt lat="45.173017" lon="11.879485"><ele>-0.5</ele><time>2026-04-07T15:09:49.58Z</time></trkpt><trkpt lat="45.1727565" lon="11.8794004"><ele>-1.0</ele><time>2026-04-07T15:09:50.587Z</time></trkpt><trkpt lat="45.1724978" lon="11.8793298"><ele>-1.0</ele><time>2026-04-07T15:09:51.581Z</time></trkpt><trkpt lat="45.1722218" lon="11.8792712"><ele>-1.0</ele><time>2026-04-07T15:09:52.575Z</time></trkpt><trkpt lat="45.1719383" lon="11.8792149"><ele>-1.0</ele><time>2026-04-07T15:09:53.58Z</time></trkpt><trkpt lat="45.1716739" lon="11.8791569"><ele>-1.0</ele><time>2026-04-07T15:09:54.586Z</time></trkpt><trkpt lat="45.1714294" lon="11.8791037"><ele>-1.0</ele><time>2026-04-07T15:09:55.575Z</time></trkpt><trkpt lat="45.171222" lon="11.8790662"><ele>-1.0</ele><time>2026-04-07T15:09:56.575Z</time></trkpt><trkpt lat="45.1710296" lon="11.8790462"><ele>-1.0</ele><time>2026-04-07T15:09:57.583Z</time></trkpt><trkpt lat="45.1708394" lon="11.8790179"><ele>-0.6666666666666666</ele><time>2026-04-07T15:09:58.579Z</time></trkpt><trkpt lat="45.1706464" lon="11.8789772"><ele>-0.3333333333333333</ele><time>2026-04-07T15:09:59.588Z</time></trkpt><trkpt lat="45.170448" lon="11.8789412"><ele>0.0</ele><time>2026-04-07T15:10:00.58Z</time></trkpt><trkpt lat="45.1702402" lon="11.8788991"><ele>0.0</ele><time>2026-04-07T15:10:01.584Z</time></trkpt><trkpt lat="45.1700155" lon="11.878839"><ele>0.0</ele><time>2026-04-07T15:10:02.577Z</time></trkpt><trkpt lat="45.1697916" lon="11.8787903"><ele>1.0</ele><time>2026-04-07T15:10:03.586Z</time></trkpt><trkpt lat="45.1695624" lon="11.8787409"><ele>2.0</ele><time>2026-04-07T15:10:04.577Z</time></trkpt><trkpt lat="45.169327" lon="11.8787019"><ele>2.0</ele><time>2026-04-07T15:10:05.585Z</time></trkpt><trkpt lat="45.1690821" lon="11.8786578"><ele>2.0</ele><time>2026-04-07T15:10:06.587Z</time></trkpt><trkpt lat="45.1688254" lon="11.8786006"><ele>1.5</ele><time>2026-04-07T15:10:07.581Z</time></trkpt><trkpt lat="45.1685622" lon="11.8785381"><ele>1.0</ele><time>2026-04-07T15:10:08.583Z</time></trkpt><trkpt lat="45.1683313" lon="11.8784893"><ele>0.0</ele><time>2026-04-07T15:10:09.583Z</time></trkpt><trkpt lat="45.1681069" lon="11.8784523"><ele>-1.0</ele><time>2026-04-07T15:10:10.587Z</time></trkpt><trkpt lat="45.1678834" lon="11.878425"><ele>-1.0</ele><time>2026-04-07T15:10:11.588Z</time></trkpt><trkpt lat="45.1676778" lon="11.8784027"><ele>-1.0</ele><time>2026-04-07T15:10:12.578Z</time></trkpt><trkpt lat="45.1674846" lon="11.8783701"><ele>-1.0</ele><time>2026-04-07T15:10:13.591Z</time></trkpt><trkpt lat="45.1672913" lon="11.8783213"><ele>-1.0</ele><time>2026-04-07T15:10:14.585Z</time></trkpt><trkpt lat="45.167099" lon="11.8782768"><ele>-1.0</ele><time>2026-04-07T15:10:15.586Z</time></trkpt><trkpt lat="45.1669055" lon="11.8782275"><ele>-1.0</ele><time>2026-04-07T15:10:16.588Z</time></trkpt><trkpt lat="45.1666966" lon="11.8781893"><ele>-0.5</ele><time>2026-04-07T15:10:17.58Z</time></trkpt><trkpt lat="45.1664624" lon="11.8781493"><ele>0.0</ele><time>2026-04-07T15:10:18.586Z</time></trkpt><trkpt lat="45.166222" lon="11.8780877"><ele>0.0</ele><time>2026-04-07T15:10:19.583Z</time></trkpt><trkpt lat="45.1659688" lon="11.8780283"><ele>0.0</ele><time>2026-04-07T15:10:20.588Z</time></trkpt><trkpt lat="45.1656951" lon="11.87799"><ele>-0.5</ele><time>2026-04-07T15:10:21.584Z</time></trkpt><trkpt lat="45.1654217" lon="11.8779304"><ele>-1.0</ele><time>2026-04-07T15:10:22.579Z</time></trkpt><trkpt lat="45.1651674" lon="11.8778762"><ele>-1.0</ele><time>2026-04-07T15:10:23.58Z</time></trkpt><trkpt lat="45.164906" lon="11.8778201"><ele>-1.0</ele><time>2026-04-07T15:10:24.583Z</time></trkpt><trkpt lat="45.1646212" lon="11.8777924"><ele>-0.5</ele><time>2026-04-07T15:10:25.568Z</time></trkpt><trkpt lat="45.1643585" lon="11.8777547"><ele>0.0</ele><time>2026-04-07T15:10:26.573Z</time></trkpt><trkpt lat="45.1641018" lon="11.8776973"><ele>0.0</ele><time>2026-04-07T15:10:27.576Z</time></trkpt><trkpt lat="45.1638163" lon="11.8776055"><ele>0.0</ele><time>2026-04-07T15:10:28.569Z</time></trkpt><trkpt lat="45.1635377" lon="11.8775211"><ele>0.0</ele><time>2026-04-07T15:10:29.656Z</time></trkpt><trkpt lat="45.163271" lon="11.8774383"><ele>0.0</ele><time>2026-04-07T15:10:30.58Z</time></trkpt><trkpt lat="45.1630037" lon="11.8773884"><ele>0.0</ele><time>2026-04-07T15:10:31.569Z</time></trkpt><trkpt lat="45.1627455" lon="11.8773465"><ele>0.0</ele><time>2026-04-07T15:10:32.582Z</time></trkpt><trkpt lat="45.1625176" lon="11.8773121"><ele>0.0</ele><time>2026-04-07T15:10:33.573Z</time></trkpt><trkpt lat="45.1622722" lon="11.8772953"><ele>0.0</ele><time>2026-04-07T15:10:34.573Z</time></trkpt><trkpt lat="45.1620372" lon="11.8772561"><ele>0.0</ele><time>2026-04-07T15:10:35.578Z</time></trkpt><trkpt lat="45.1618052" lon="11.8772075"><ele>0.0</ele><time>2026-04-07T15:10:36.577Z</time></trkpt><trkpt lat="45.1615655" lon="11.8771703"><ele>0.0</ele><time>2026-04-07T15:10:37.577Z</time></trkpt><trkpt lat="45.161334" lon="11.8771212"><ele>0.0</ele><time>2026-04-07T15:10:38.581Z</time></trkpt><trkpt lat="45.1611116" lon="11.8770554"><ele>0.0</ele><time>2026-04-07T15:10:39.576Z</time></trkpt><trkpt lat="45.1608981" lon="11.8770065"><ele>0.0</ele><time>2026-04-07T15:10:40.575Z</time></trkpt><trkpt lat="45.1607183" lon="11.8769854"><ele>0.0</ele><time>2026-04-07T15:10:41.578Z</time></trkpt><trkpt lat="45.160535" lon="11.8769524"><ele>0.0</ele><time>2026-04-07T15:10:42.58Z</time></trkpt><trkpt lat="45.1603455" lon="11.8769142"><ele>0.0</ele><time>2026-04-07T15:10:43.585Z</time></trkpt><trkpt lat="45.160162" lon="11.8768871"><ele>0.0</ele><time>2026-04-07T15:10:44.588Z</time></trkpt><trkpt lat="45.1599785" lon="11.8768325"><ele>0.0</ele><time>2026-04-07T15:10:45.578Z</time></trkpt><trkpt lat="45.1597797" lon="11.8768176"><ele>0.0</ele><time>2026-04-07T15:10:46.576Z</time></trkpt><trkpt lat="45.1595763" lon="11.876773"><ele>0.0</ele><time>2026-04-07T15:10:47.578Z</time></trkpt><trkpt lat="45.1593559" lon="11.8767347"><ele>0.0</ele><time>2026-04-07T15:10:48.592Z</time></trkpt><trkpt lat="45.159161" lon="11.8766911"><ele>0.0</ele><time>2026-04-07T15:10:49.584Z</time></trkpt><trkpt lat="45.1589419" lon="11.8766402"><ele>0.0</ele><time>2026-04-07T15:10:50.587Z</time></trkpt><trkpt lat="45.1587311" lon="11.8766014"><ele>-0.3333333333333333</ele><time>2026-04-07T15:10:51.59Z</time></trkpt><trkpt lat="45.1585437" lon="11.8765718"><ele>-0.6666666666666666</ele><time>2026-04-07T15:10:52.579Z</time></trkpt><trkpt lat="45.1583501" lon="11.8765637"><ele>-1.0</ele><time>2026-04-07T15:10:53.587Z</time></trkpt><trkpt lat="45.1581438" lon="11.8765677"><ele>-1.3333333333333333</ele><time>2026-04-07T15:10:54.584Z</time></trkpt><trkpt lat="45.1579483" lon="11.876602"><ele>-1.6666666666666665</ele><time>2026-04-07T15:10:55.576Z</time></trkpt><trkpt lat="45.1577549" lon="11.8766248"><ele>-2.0</ele><time>2026-04-07T15:10:56.588Z</time></trkpt><trkpt lat="45.1575593" lon="11.8766333"><ele>-1.3333333333333333</ele><time>2026-04-07T15:10:57.579Z</time></trkpt><trkpt lat="45.1573583" lon="11.8766363"><ele>-0.6666666666666666</ele><time>2026-04-07T15:10:58.578Z</time></trkpt><trkpt lat="45.1571532" lon="11.8766265"><ele>0.0</ele><time>2026-04-07T15:10:59.585Z</time></trkpt><trkpt lat="45.1569448" lon="11.8766224"><ele>0.0</ele><time>2026-04-07T15:11:00.59Z</time></trkpt><trkpt lat="45.156744" lon="11.8766206"><ele>0.0</ele><time>2026-04-07T15:11:01.583Z</time></trkpt><trkpt lat="45.1565535" lon="11.8766246"><ele>0.0</ele><time>2026-04-07T15:11:02.587Z</time></trkpt><trkpt lat="45.1563705" lon="11.8766288"><ele>0.3333333333333333</ele><time>2026-04-07T15:11:03.585Z</time></trkpt><trkpt lat="45.156174" lon="11.876625"><ele>0.6666666666666666</ele><time>2026-04-07T15:11:04.577Z</time></trkpt><trkpt lat="45.1559579" lon="11.876625"><ele>1.0</ele><time>2026-04-07T15:11:05.582Z</time></trkpt><trkpt lat="45.1557323" lon="11.8766218"><ele>-0.5</ele><time>2026-04-07T15:11:06.592Z</time></trkpt><trkpt lat="45.1555042" lon="11.8766261"><ele>-2.0</ele><time>2026-04-07T15:11:07.576Z</time></trkpt><trkpt lat="45.1552822" lon="11.8766311"><ele>-2.0</ele><time>2026-04-07T15:11:08.581Z</time></trkpt><trkpt lat="45.1550692" lon="11.8766322"><ele>-2.0</ele><time>2026-04-07T15:11:09.576Z</time></trkpt><trkpt lat="45.154873" lon="11.8766287"><ele>-2.0</ele><time>2026-04-07T15:11:10.582Z</time></trkpt><trkpt lat="45.1546789" lon="11.8766192"><ele>-1.6666666666666665</ele><time>2026-04-07T15:11:11.577Z</time></trkpt><trkpt lat="45.1544879" lon="11.8766164"><ele>-1.3333333333333333</ele><time>2026-04-07T15:11:12.584Z</time></trkpt><trkpt lat="45.1543021" lon="11.8766374"><ele>-1.0</ele><time>2026-04-07T15:11:13.576Z</time></trkpt><trkpt lat="45.1540895" lon="11.8766428"><ele>-0.6666666666666666</ele><time>2026-04-07T15:11:14.588Z</time></trkpt><trkpt lat="45.1538958" lon="11.8766472"><ele>-0.3333333333333333</ele><time>2026-04-07T15:11:15.577Z</time></trkpt><trkpt lat="45.1536838" lon="11.8766536"><ele>0.0</ele><time>2026-04-07T15:11:16.585Z</time></trkpt><trkpt lat="45.1534954" lon="11.876655"><ele>0.0</ele><time>2026-04-07T15:11:17.573Z</time></trkpt><trkpt lat="45.1533348" lon="11.8766365"><ele>0.0</ele><time>2026-04-07T15:11:18.577Z</time></trkpt><trkpt lat="45.1531596" lon="11.8765986"><ele>0.0</ele><time>2026-04-07T15:11:19.571Z</time></trkpt><trkpt lat="45.1529742" lon="11.8765221"><ele>0.3333333333333333</ele><time>2026-04-07T15:11:20.577Z</time></trkpt><trkpt lat="45.1527956" lon="11.8764398"><ele>0.6666666666666666</ele><time>2026-04-07T15:11:21.576Z</time></trkpt><trkpt lat="45.1526144" lon="11.8763793"><ele>1.0</ele><time>2026-04-07T15:11:22.589Z</time></trkpt><trkpt lat="45.1523921" lon="11.8763135"><ele>1.3333333333333333</ele><time>2026-04-07T15:11:23.582Z</time></trkpt><trkpt lat="45.1521779" lon="11.8762843"><ele>1.6666666666666665</ele><time>2026-04-07T15:11:24.589Z</time></trkpt><trkpt lat="45.1519645" lon="11.8762226"><ele>2.0</ele><time>2026-04-07T15:11:25.58Z</time></trkpt><trkpt lat="45.1517942" lon="11.8761842"><ele>2.0</ele><time>2026-04-07T15:11:26.579Z</time></trkpt><trkpt lat="45.1516224" lon="11.8761559"><ele>2.0</ele><time>2026-04-07T15:11:27.583Z</time></trkpt><trkpt lat="45.1514783" lon="11.8761122"><ele>2.0</ele><time>2026-04-07T15:11:28.587Z</time></trkpt><trkpt lat="45.151297" lon="11.8760593"><ele>1.3333333333333333</ele><time>2026-04-07T15:11:29.587Z</time></trkpt><trkpt lat="45.1510961" lon="11.8760111"><ele>0.6666666666666666</ele><time>2026-04-07T15:11:30.578Z</time></trkpt><trkpt lat="45.1509218" lon="11.8759844"><ele>0.0</ele><time>2026-04-07T15:11:31.585Z</time></trkpt><trkpt lat="45.1507503" lon="11.8759421"><ele>0.3333333333333333</ele><time>2026-04-07T15:11:32.579Z</time></trkpt><trkpt lat="45.1505829" lon="11.8758869"><ele>0.6666666666666666</ele><time>2026-04-07T15:11:33.565Z</time></trkpt><trkpt lat="45.1504174" lon="11.8758397"><ele>1.0</ele><time>2026-04-07T15:11:34.585Z</time></trkpt><trkpt lat="45.1502457" lon="11.8757954"><ele>1.0</ele><time>2026-04-07T15:11:35.573Z</time></trkpt><trkpt lat="45.1500863" lon="11.8757401"><ele>1.0</ele><time>2026-04-07T15:11:36.577Z</time></trkpt><trkpt lat="45.1499498" lon="11.8757334"><ele>1.0</ele><time>2026-04-07T15:11:37.577Z</time></trkpt><trkpt lat="45.1498112" lon="11.8757561"><ele>1.0</ele><time>2026-04-07T15:11:38.562Z</time></trkpt><trkpt lat="45.1496765" lon="11.8757946"><ele>1.6666666666666665</ele><time>2026-04-07T15:11:39.568Z</time></trkpt><trkpt lat="45.1495319" lon="11.8758762"><ele>2.3333333333333335</ele><time>2026-04-07T15:11:40.573Z</time></trkpt><trkpt lat="45.1493651" lon="11.8759583"><ele>3.0</ele><time>2026-04-07T15:11:41.556Z</time></trkpt><trkpt lat="45.1491926" lon="11.876008"><ele>3.333333333333333</ele><time>2026-04-07T15:11:42.575Z</time></trkpt><trkpt lat="45.1490102" lon="11.8760657"><ele>3.6666666666666665</ele><time>2026-04-07T15:11:43.57Z</time></trkpt><trkpt lat="45.1488347" lon="11.876108"><ele>4.0</ele><time>2026-04-07T15:11:44.57Z</time></trkpt><trkpt lat="45.1486685" lon="11.8761804"><ele>4.0</ele><time>2026-04-07T15:11:45.575Z</time></trkpt><trkpt lat="45.1484954" lon="11.876285"><ele>4.0</ele><time>2026-04-07T15:11:46.577Z</time></trkpt><trkpt lat="45.148339" lon="11.8763409"><ele>4.0</ele><time>2026-04-07T15:11:47.57Z</time></trkpt><trkpt lat="45.1481833" lon="11.8763898"><ele>4.333333333333333</ele><time>2026-04-07T15:11:48.582Z</time></trkpt><trkpt lat="45.1480265" lon="11.8764799"><ele>4.666666666666667</ele><time>2026-04-07T15:11:49.568Z</time></trkpt><trkpt lat="45.1478243" lon="11.8765691"><ele>5.0</ele><time>2026-04-07T15:11:50.579Z</time></trkpt><trkpt lat="45.1476341" lon="11.8766199"><ele>5.0</ele><time>2026-04-07T15:11:51.575Z</time></trkpt><trkpt lat="45.147453" lon="11.8766818"><ele>5.0</ele><time>2026-04-07T15:11:52.579Z</time></trkpt><trkpt lat="45.1473268" lon="11.8767172"><ele>5.0</ele><time>2026-04-07T15:11:53.583Z</time></trkpt><trkpt lat="45.1471839" lon="11.8767727"><ele>4.75</ele><time>2026-04-07T15:11:54.583Z</time></trkpt><trkpt lat="45.1470547" lon="11.8768261"><ele>4.5</ele><time>2026-04-07T15:11:55.572Z</time></trkpt><trkpt lat="45.1469545" lon="11.8768378"><ele>4.25</ele><time>2026-04-07T15:11:56.573Z</time></trkpt><trkpt lat="45.1468448" lon="11.8768931"><ele>4.0</ele><time>2026-04-07T15:11:57.576Z</time></trkpt><trkpt lat="45.1467427" lon="11.8769429"><ele>4.0</ele><time>2026-04-07T15:11:58.575Z</time></trkpt><trkpt lat="45.1466226" lon="11.8769767"><ele>4.0</ele><time>2026-04-07T15:11:59.573Z</time></trkpt><trkpt lat="45.146546" lon="11.8769943"><ele>4.0</ele><time>2026-04-07T15:12:00.584Z</time></trkpt><trkpt lat="45.1464247" lon="11.877017"><ele>4.0</ele><time>2026-04-07T15:12:02.572Z</time></trkpt><trkpt lat="45.1463174" lon="11.8770403"><ele>4.0</ele><time>2026-04-07T15:12:04.574Z</time></trkpt><trkpt lat="45.1462483" lon="11.8770936"><ele>3.833333333333333</ele><time>2026-04-07T15:12:06.582Z</time></trkpt><trkpt lat="45.1461674" lon="11.877132"><ele>3.6666666666666665</ele><time>2026-04-07T15:12:09.575Z</time></trkpt><trkpt lat="45.1461075" lon="11.8771692"><ele>3.5</ele><time>2026-04-07T15:12:12.584Z</time></trkpt><trkpt lat="45.1460047" lon="11.8772274"><ele>3.333333333333333</ele><time>2026-04-07T15:12:14.576Z</time></trkpt><trkpt lat="45.1459273" lon="11.8772463"><ele>3.1666666666666665</ele><time>2026-04-07T15:12:15.578Z</time></trkpt><trkpt lat="45.1458435" lon="11.8772697"><ele>3.0</ele><time>2026-04-07T15:12:16.581Z</time></trkpt><trkpt lat="45.1457536" lon="11.877301"><ele>3.25</ele><time>2026-04-07T15:12:17.654Z</time></trkpt><trkpt lat="45.1456431" lon="11.8773336"><ele>3.5</ele><time>2026-04-07T15:12:18.577Z</time></trkpt><trkpt lat="45.1455136" lon="11.877381"><ele>3.75</ele><time>2026-04-07T15:12:19.581Z</time></trkpt><trkpt lat="45.1453837" lon="11.8774326"><ele>4.0</ele><time>2026-04-07T15:12:20.576Z</time></trkpt><trkpt lat="45.1452541" lon="11.8774842"><ele>4.0</ele><time>2026-04-07T15:12:21.583Z</time></trkpt><trkpt lat="45.1451157" lon="11.8775347"><ele>4.0</ele><time>2026-04-07T15:12:22.578Z</time></trkpt><trkpt lat="45.1449215" lon="11.8776098"><ele>4.0</ele><time>2026-04-07T15:12:23.577Z</time></trkpt><trkpt lat="45.1447146" lon="11.8776657"><ele>3.6666666666666665</ele><time>2026-04-07T15:12:24.583Z</time></trkpt><trkpt lat="45.144493" lon="11.8777092"><ele>3.333333333333333</ele><time>2026-04-07T15:12:25.585Z</time></trkpt><trkpt lat="45.1443174" lon="11.8777634"><ele>3.0</ele><time>2026-04-07T15:12:26.59Z</time></trkpt><trkpt lat="45.1441313" lon="11.8778452"><ele>2.6666666666666665</ele><time>2026-04-07T15:12:27.582Z</time></trkpt><trkpt lat="45.1439787" lon="11.8779307"><ele>2.333333333333333</ele><time>2026-04-07T15:12:28.582Z</time></trkpt><trkpt lat="45.1437996" lon="11.8780077"><ele>2.0</ele><time>2026-04-07T15:12:29.575Z</time></trkpt><trkpt lat="45.1436522" lon="11.8780515"><ele>2.0</ele><time>2026-04-07T15:12:30.578Z</time></trkpt><trkpt lat="45.1434841" lon="11.8781228"><ele>2.0</ele><time>2026-04-07T15:12:31.572Z</time></trkpt><trkpt lat="45.1433268" lon="11.878167"><ele>2.0</ele><time>2026-04-07T15:12:32.568Z</time></trkpt><trkpt lat="45.1431533" lon="11.8781968"><ele>2.0</ele><time>2026-04-07T15:12:33.574Z</time></trkpt><trkpt lat="45.1430084" lon="11.8782465"><ele>2.0</ele><time>2026-04-07T15:12:34.579Z</time></trkpt><trkpt lat="45.1428541" lon="11.8783087"><ele>2.0</ele><time>2026-04-07T15:12:35.582Z</time></trkpt><trkpt lat="45.1427083" lon="11.8783776"><ele>2.0</ele><time>2026-04-07T15:12:36.574Z</time></trkpt><trkpt lat="45.1425807" lon="11.8784705"><ele>2.0</ele><time>2026-04-07T15:12:37.585Z</time></trkpt><trkpt lat="45.1424644" lon="11.878606"><ele>2.0</ele><time>2026-04-07T15:12:38.581Z</time></trkpt><trkpt lat="45.1423905" lon="11.8786862"><ele>2.0</ele><time>2026-04-07T15:12:39.582Z</time></trkpt><trkpt lat="45.1423316" lon="11.8787414"><ele>2.5</ele><time>2026-04-07T15:12:40.59Z</time></trkpt><trkpt lat="45.1421899" lon="11.8787844"><ele>3.0</ele><time>2026-04-07T15:12:42.579Z</time></trkpt><trkpt lat="45.1421025" lon="11.8788391"><ele>3.5</ele><time>2026-04-07T15:12:43.575Z</time></trkpt><trkpt lat="45.1420258" lon="11.8789191"><ele>4.0</ele><time>2026-04-07T15:12:44.565Z</time></trkpt><trkpt lat="45.1419281" lon="11.879025"><ele>4.0</ele><time>2026-04-07T15:12:45.566Z</time></trkpt><trkpt lat="45.1418126" lon="11.8791256"><ele>4.0</ele><time>2026-04-07T15:12:46.562Z</time></trkpt><trkpt lat="45.1417038" lon="11.8792331"><ele>4.0</ele><time>2026-04-07T15:12:47.564Z</time></trkpt><trkpt lat="45.1416029" lon="11.8793512"><ele>4.0</ele><time>2026-04-07T15:12:48.569Z</time></trkpt><trkpt lat="45.1414924" lon="11.8794769"><ele>4.0</ele><time>2026-04-07T15:12:49.566Z</time></trkpt><trkpt lat="45.1413677" lon="11.8796181"><ele>4.0</ele><time>2026-04-07T15:12:50.562Z</time></trkpt><trkpt lat="45.1411872" lon="11.8798359"><ele>4.0</ele><time>2026-04-07T15:12:51.565Z</time></trkpt><trkpt lat="45.1410197" lon="11.8800116"><ele>4.0</ele><time>2026-04-07T15:12:52.568Z</time></trkpt><trkpt lat="45.1408571" lon="11.8801674"><ele>4.0</ele><time>2026-04-07T15:12:53.579Z</time></trkpt><trkpt lat="45.1406969" lon="11.8802985"><ele>4.0</ele><time>2026-04-07T15:12:54.576Z</time></trkpt><trkpt lat="45.1405685" lon="11.880435"><ele>4.0</ele><time>2026-04-07T15:12:55.576Z</time></trkpt><trkpt lat="45.1404417" lon="11.8805582"><ele>4.0</ele><time>2026-04-07T15:12:56.572Z</time></trkpt><trkpt lat="45.1403021" lon="11.8806972"><ele>4.0</ele><time>2026-04-07T15:12:57.575Z</time></trkpt><trkpt lat="45.140165" lon="11.8808465"><ele>4.0</ele><time>2026-04-07T15:12:58.574Z</time></trkpt><trkpt lat="45.1400099" lon="11.8810204"><ele>4.0</ele><time>2026-04-07T15:12:59.571Z</time></trkpt><trkpt lat="45.1398124" lon="11.8811901"><ele>4.0</ele><time>2026-04-07T15:13:00.569Z</time></trkpt><trkpt lat="45.1396226" lon="11.88136"><ele>3.5</ele><time>2026-04-07T15:13:01.576Z</time></trkpt><trkpt lat="45.1394308" lon="11.881552"><ele>3.0</ele><time>2026-04-07T15:13:02.57Z</time></trkpt><trkpt lat="45.1392547" lon="11.8817442"><ele>3.333333333333333</ele><time>2026-04-07T15:13:03.579Z</time></trkpt><trkpt lat="45.1390829" lon="11.881947"><ele>3.6666666666666665</ele><time>2026-04-07T15:13:04.572Z</time></trkpt><trkpt lat="45.1389533" lon="11.8820995"><ele>4.0</ele><time>2026-04-07T15:13:05.573Z</time></trkpt><trkpt lat="45.1388169" lon="11.8822495"><ele>4.0</ele><time>2026-04-07T15:13:06.574Z</time></trkpt><trkpt lat="45.1386783" lon="11.8824294"><ele>4.0</ele><time>2026-04-07T15:13:07.565Z</time></trkpt><trkpt lat="45.1385064" lon="11.882625"><ele>4.0</ele><time>2026-04-07T15:13:08.563Z</time></trkpt><trkpt lat="45.1383603" lon="11.8827561"><ele>3.5</ele><time>2026-04-07T15:13:09.559Z</time></trkpt><trkpt lat="45.1381997" lon="11.8829064"><ele>3.0</ele><time>2026-04-07T15:13:10.565Z</time></trkpt><trkpt lat="45.1380963" lon="11.8829826"><ele>2.5</ele><time>2026-04-07T15:13:11.556Z</time></trkpt><trkpt lat="45.1379783" lon="11.8830393"><ele>2.0</ele><time>2026-04-07T15:13:12.563Z</time></trkpt><trkpt lat="45.1379123" lon="11.8830533"><ele>2.0</ele><time>2026-04-07T15:13:13.557Z</time></trkpt><trkpt lat="45.1378284" lon="11.8830613"><ele>2.0</ele><time>2026-04-07T15:13:14.573Z</time></trkpt><trkpt lat="45.1377374" lon="11.8830385"><ele>2.0</ele><time>2026-04-07T15:13:15.573Z</time></trkpt><trkpt lat="45.1376401" lon="11.8829997"><ele>2.0</ele><time>2026-04-07T15:13:16.58Z</time></trkpt><trkpt lat="45.1375491" lon="11.8830138"><ele>2.0</ele><time>2026-04-07T15:13:17.578Z</time></trkpt><trkpt lat="45.1374638" lon="11.8830596"><ele>2.0</ele><time>2026-04-07T15:13:18.572Z</time></trkpt><trkpt lat="45.1373923" lon="11.8831391"><ele>2.0</ele><time>2026-04-07T15:13:19.578Z</time></trkpt><trkpt lat="45.1373241" lon="11.883235"><ele>2.0</ele><time>2026-04-07T15:13:20.578Z</time></trkpt><trkpt lat="45.1372518" lon="11.8833394"><ele>2.0</ele><time>2026-04-07T15:13:21.581Z</time></trkpt><trkpt lat="45.1371675" lon="11.8834229"><ele>2.0</ele><time>2026-04-07T15:13:22.568Z</time></trkpt><trkpt lat="45.1370453" lon="11.8834923"><ele>1.75</ele><time>2026-04-07T15:13:23.573Z</time></trkpt><trkpt lat="45.1369164" lon="11.883568"><ele>1.5</ele><time>2026-04-07T15:13:24.578Z</time></trkpt><trkpt lat="45.1367987" lon="11.8836299"><ele>1.25</ele><time>2026-04-07T15:13:25.575Z</time></trkpt><trkpt lat="45.1366843" lon="11.8836832"><ele>1.0</ele><time>2026-04-07T15:13:26.583Z</time></trkpt><trkpt lat="45.1365625" lon="11.8837282"><ele>2.0</ele><time>2026-04-07T15:13:27.573Z</time></trkpt><trkpt lat="45.1364452" lon="11.8837756"><ele>3.0</ele><time>2026-04-07T15:13:28.573Z</time></trkpt><trkpt lat="45.1363443" lon="11.8838302"><ele>3.9999999999999996</ele><time>2026-04-07T15:13:29.576Z</time></trkpt><trkpt lat="45.1362503" lon="11.8838785"><ele>5.0</ele><time>2026-04-07T15:13:30.58Z</time></trkpt><trkpt lat="45.1361691" lon="11.8839219"><ele>6.0</ele><time>2026-04-07T15:13:31.582Z</time></trkpt><trkpt lat="45.1360981" lon="11.8839604"><ele>6.0</ele><time>2026-04-07T15:13:32.584Z</time></trkpt><trkpt lat="45.1360341" lon="11.8839991"><ele>6.0</ele><time>2026-04-07T15:13:33.584Z</time></trkpt><trkpt lat="45.1359607" lon="11.884043"><ele>6.0</ele><time>2026-04-07T15:13:34.58Z</time></trkpt><trkpt lat="45.1358867" lon="11.8841005"><ele>6.0</ele><time>2026-04-07T15:13:35.577Z</time></trkpt><trkpt lat="45.1358038" lon="11.8841601"><ele>6.0</ele><time>2026-04-07T15:13:36.58Z</time></trkpt><trkpt lat="45.1356977" lon="11.8842347"><ele>6.0</ele><time>2026-04-07T15:13:37.574Z</time></trkpt><trkpt lat="45.1355829" lon="11.8843247"><ele>5.0</ele><time>2026-04-07T15:13:38.577Z</time></trkpt><trkpt lat="45.1354448" lon="11.8844128"><ele>4.0</ele><time>2026-04-07T15:13:39.577Z</time></trkpt><trkpt lat="45.1352955" lon="11.8844941"><ele>3.0</ele><time>2026-04-07T15:13:40.577Z</time></trkpt><trkpt lat="45.1351171" lon="11.884613"><ele>3.0</ele><time>2026-04-07T15:13:41.573Z</time></trkpt><trkpt lat="45.1349347" lon="11.8846466"><ele>3.0</ele><time>2026-04-07T15:13:42.579Z</time></trkpt><trkpt lat="45.1347646" lon="11.8846297"><ele>3.0</ele><time>2026-04-07T15:13:43.577Z</time></trkpt><trkpt lat="45.1345918" lon="11.8845723"><ele>2.6666666666666665</ele><time>2026-04-07T15:13:44.579Z</time></trkpt><trkpt lat="45.1344034" lon="11.8845027"><ele>2.333333333333333</ele><time>2026-04-07T15:13:45.576Z</time></trkpt><trkpt lat="45.1342337" lon="11.8844271"><ele>2.0</ele><time>2026-04-07T15:13:46.576Z</time></trkpt><trkpt lat="45.1340931" lon="11.8843756"><ele>2.25</ele><time>2026-04-07T15:13:47.579Z</time></trkpt><trkpt lat="45.1339628" lon="11.8843138"><ele>2.5</ele><time>2026-04-07T15:13:48.581Z</time></trkpt><trkpt lat="45.1338605" lon="11.8842584"><ele>2.75</ele><time>2026-04-07T15:13:49.578Z</time></trkpt><trkpt lat="45.1337308" lon="11.8842256"><ele>3.0</ele><time>2026-04-07T15:13:50.585Z</time></trkpt><trkpt lat="45.133606" lon="11.8841762"><ele>3.0</ele><time>2026-04-07T15:13:51.576Z</time></trkpt><trkpt lat="45.1334883" lon="11.8841308"><ele>3.0</ele><time>2026-04-07T15:13:52.584Z</time></trkpt><trkpt lat="45.1333758" lon="11.8840796"><ele>3.0</ele><time>2026-04-07T15:13:53.583Z</time></trkpt><trkpt lat="45.1332781" lon="11.8840393"><ele>3.0</ele><time>2026-04-07T15:13:54.587Z</time></trkpt><trkpt lat="45.1331873" lon="11.8840093"><ele>3.0</ele><time>2026-04-07T15:13:55.578Z</time></trkpt><trkpt lat="45.1330985" lon="11.8839764"><ele>3.3333333333333335</ele><time>2026-04-07T15:13:56.583Z</time></trkpt><trkpt lat="45.1330086" lon="11.8839493"><ele>3.666666666666667</ele><time>2026-04-07T15:13:57.586Z</time></trkpt><trkpt lat="45.1329229" lon="11.8839197"><ele>4.0</ele><time>2026-04-07T15:13:58.58Z</time></trkpt><trkpt lat="45.1328448" lon="11.8838888"><ele>4.333333333333334</ele><time>2026-04-07T15:13:59.586Z</time></trkpt><trkpt lat="45.1327674" lon="11.8838586"><ele>4.666666666666667</ele><time>2026-04-07T15:14:00.574Z</time></trkpt><trkpt lat="45.1326831" lon="11.8838303"><ele>5.0</ele><time>2026-04-07T15:14:01.586Z</time></trkpt><trkpt lat="45.1325846" lon="11.8837925"><ele>5.0</ele><time>2026-04-07T15:14:02.578Z</time></trkpt><trkpt lat="45.1324877" lon="11.8837493"><ele>5.0</ele><time>2026-04-07T15:14:03.578Z</time></trkpt><trkpt lat="45.1324029" lon="11.8837244"><ele>5.0</ele><time>2026-04-07T15:14:04.583Z</time></trkpt><trkpt lat="45.1323206" lon="11.8837117"><ele>5.0</ele><time>2026-04-07T15:14:05.583Z</time></trkpt><trkpt lat="45.1322376" lon="11.8837185"><ele>5.0</ele><time>2026-04-07T15:14:06.576Z</time></trkpt><trkpt lat="45.1321393" lon="11.8837171"><ele>4.75</ele><time>2026-04-07T15:14:07.579Z</time></trkpt><trkpt lat="45.132032" lon="11.883676"><ele>4.5</ele><time>2026-04-07T15:14:08.585Z</time></trkpt><trkpt lat="45.1319222" lon="11.883604"><ele>4.25</ele><time>2026-04-07T15:14:09.579Z</time></trkpt><trkpt lat="45.1318191" lon="11.8835025"><ele>4.0</ele><time>2026-04-07T15:14:10.589Z</time></trkpt><trkpt lat="45.1317325" lon="11.8834039"><ele>4.0</ele><time>2026-04-07T15:14:11.568Z</time></trkpt><trkpt lat="45.1316442" lon="11.8833206"><ele>4.0</ele><time>2026-04-07T15:14:12.588Z</time></trkpt><trkpt lat="45.1315391" lon="11.8832396"><ele>4.0</ele><time>2026-04-07T15:14:13.577Z</time></trkpt><trkpt lat="45.1314054" lon="11.8831465"><ele>4.0</ele><time>2026-04-07T15:14:14.58Z</time></trkpt><trkpt lat="45.1312156" lon="11.8830316"><ele>4.0</ele><time>2026-04-07T15:14:15.584Z</time></trkpt><trkpt lat="45.1310309" lon="11.8829422"><ele>4.0</ele><time>2026-04-07T15:14:16.582Z</time></trkpt><trkpt lat="45.1308566" lon="11.8828706"><ele>4.0</ele><time>2026-04-07T15:14:17.577Z</time></trkpt><trkpt lat="45.130705" lon="11.8828103"><ele>3.333333333333333</ele><time>2026-04-07T15:14:18.583Z</time></trkpt><trkpt lat="45.1305481" lon="11.8827565"><ele>2.6666666666666665</ele><time>2026-04-07T15:14:19.582Z</time></trkpt><trkpt lat="45.1303833" lon="11.8826779"><ele>2.0</ele><time>2026-04-07T15:14:20.592Z</time></trkpt><trkpt lat="45.1302298" lon="11.8826118"><ele>2.333333333333333</ele><time>2026-04-07T15:14:21.576Z</time></trkpt><trkpt lat="45.1300759" lon="11.8825358"><ele>2.6666666666666665</ele><time>2026-04-07T15:14:22.575Z</time></trkpt><trkpt lat="45.1299556" lon="11.8824488"><ele>3.0</ele><time>2026-04-07T15:14:23.571Z</time></trkpt><trkpt lat="45.1297905" lon="11.8823513"><ele>3.0</ele><time>2026-04-07T15:14:24.578Z</time></trkpt><trkpt lat="45.1296138" lon="11.88226"><ele>3.0</ele><time>2026-04-07T15:14:25.575Z</time></trkpt><trkpt lat="45.1294593" lon="11.8821586"><ele>3.0</ele><time>2026-04-07T15:14:26.578Z</time></trkpt><trkpt lat="45.1293076" lon="11.882029"><ele>3.0</ele><time>2026-04-07T15:14:27.586Z</time></trkpt><trkpt lat="45.1291571" lon="11.881901"><ele>3.0</ele><time>2026-04-07T15:14:28.581Z</time></trkpt><trkpt lat="45.1290126" lon="11.8817744"><ele>3.0</ele><time>2026-04-07T15:14:29.571Z</time></trkpt><trkpt lat="45.1288885" lon="11.881635"><ele>3.0</ele><time>2026-04-07T15:14:30.578Z</time></trkpt><trkpt lat="45.1287776" lon="11.8815203"><ele>3.0</ele><time>2026-04-07T15:14:31.579Z</time></trkpt><trkpt lat="45.1286687" lon="11.8814232"><ele>3.0</ele><time>2026-04-07T15:14:32.577Z</time></trkpt><trkpt lat="45.128567" lon="11.8812887"><ele>3.0</ele><time>2026-04-07T15:14:33.587Z</time></trkpt><trkpt lat="45.1284677" lon="11.8811955"><ele>3.0</ele><time>2026-04-07T15:14:34.58Z</time></trkpt><trkpt lat="45.1283669" lon="11.8811124"><ele>3.0</ele><time>2026-04-07T15:14:35.579Z</time></trkpt><trkpt lat="45.1282617" lon="11.8810633"><ele>3.0</ele><time>2026-04-07T15:14:36.576Z</time></trkpt><trkpt lat="45.1280998" lon="11.8809641"><ele>3.0</ele><time>2026-04-07T15:14:37.586Z</time></trkpt><trkpt lat="45.1279276" lon="11.8808773"><ele>2.3333333333333335</ele><time>2026-04-07T15:14:38.575Z</time></trkpt><trkpt lat="45.1277479" lon="11.880751"><ele>1.6666666666666665</ele><time>2026-04-07T15:14:39.582Z</time></trkpt><trkpt lat="45.1275814" lon="11.8806178"><ele>1.0</ele><time>2026-04-07T15:14:40.574Z</time></trkpt><trkpt lat="45.1274227" lon="11.8804893"><ele>1.0</ele><time>2026-04-07T15:14:41.583Z</time></trkpt><trkpt lat="45.1272745" lon="11.8803766"><ele>1.0</ele><time>2026-04-07T15:14:42.575Z</time></trkpt><trkpt lat="45.1271382" lon="11.8802781"><ele>1.0</ele><time>2026-04-07T15:14:43.582Z</time></trkpt><trkpt lat="45.1270162" lon="11.880195"><ele>1.0</ele><time>2026-04-07T15:14:44.577Z</time></trkpt><trkpt lat="45.1268779" lon="11.8801466"><ele>1.0</ele><time>2026-04-07T15:14:45.58Z</time></trkpt><trkpt lat="45.1267376" lon="11.8800937"><ele>1.0</ele><time>2026-04-07T15:14:46.582Z</time></trkpt><trkpt lat="45.1265921" lon="11.8800665"><ele>1.0</ele><time>2026-04-07T15:14:47.579Z</time></trkpt><trkpt lat="45.1264555" lon="11.8800755"><ele>1.6666666666666665</ele><time>2026-04-07T15:14:48.579Z</time></trkpt><trkpt lat="45.1262926" lon="11.8801195"><ele>2.3333333333333335</ele><time>2026-04-07T15:14:49.583Z</time></trkpt><trkpt lat="45.1261381" lon="11.8801246"><ele>3.0</ele><time>2026-04-07T15:14:50.585Z</time></trkpt><trkpt lat="45.1259826" lon="11.880095"><ele>3.0</ele><time>2026-04-07T15:14:51.577Z</time></trkpt><trkpt lat="45.1258324" lon="11.8800357"><ele>3.0</ele><time>2026-04-07T15:14:52.583Z</time></trkpt><trkpt lat="45.125649" lon="11.8799108"><ele>3.0</ele><time>2026-04-07T15:14:53.583Z</time></trkpt><trkpt lat="45.1254751" lon="11.879798"><ele>2.6666666666666665</ele><time>2026-04-07T15:14:54.58Z</time></trkpt><trkpt lat="45.1252903" lon="11.8796712"><ele>2.333333333333333</ele><time>2026-04-07T15:14:55.573Z</time></trkpt><trkpt lat="45.125123" lon="11.8795476"><ele>2.0</ele><time>2026-04-07T15:14:56.576Z</time></trkpt><trkpt lat="45.1249423" lon="11.8794054"><ele>2.333333333333333</ele><time>2026-04-07T15:14:57.573Z</time></trkpt><trkpt lat="45.1247532" lon="11.879244"><ele>2.6666666666666665</ele><time>2026-04-07T15:14:58.578Z</time></trkpt><trkpt lat="45.1245537" lon="11.8791259"><ele>3.0</ele><time>2026-04-07T15:14:59.588Z</time></trkpt><trkpt lat="45.1243292" lon="11.8789823"><ele>3.0</ele><time>2026-04-07T15:15:00.577Z</time></trkpt><trkpt lat="45.1241182" lon="11.8788345"><ele>3.0</ele><time>2026-04-07T15:15:01.57Z</time></trkpt><trkpt lat="45.1239081" lon="11.8786908"><ele>3.0</ele><time>2026-04-07T15:15:02.567Z</time></trkpt><trkpt lat="45.1236799" lon="11.8785454"><ele>3.0</ele><time>2026-04-07T15:15:03.561Z</time></trkpt><trkpt lat="45.1234452" lon="11.8783915"><ele>2.5</ele><time>2026-04-07T15:15:04.563Z</time></trkpt><trkpt lat="45.1232066" lon="11.8782173"><ele>2.0</ele><time>2026-04-07T15:15:05.567Z</time></trkpt><trkpt lat="45.1229972" lon="11.8780619"><ele>2.0</ele><time>2026-04-07T15:15:06.565Z</time></trkpt><trkpt lat="45.1228037" lon="11.8779342"><ele>2.0</ele><time>2026-04-07T15:15:07.566Z</time></trkpt><trkpt lat="45.1226015" lon="11.8778099"><ele>2.0</ele><time>2026-04-07T15:15:08.566Z</time></trkpt><trkpt lat="45.1223933" lon="11.8776718"><ele>2.5</ele><time>2026-04-07T15:15:09.556Z</time></trkpt><trkpt lat="45.1221876" lon="11.8775211"><ele>3.0</ele><time>2026-04-07T15:15:10.568Z</time></trkpt><trkpt lat="45.1219806" lon="11.8773686"><ele>3.0</ele><time>2026-04-07T15:15:11.565Z</time></trkpt><trkpt lat="45.1217994" lon="11.8772455"><ele>3.0</ele><time>2026-04-07T15:15:12.561Z</time></trkpt><trkpt lat="45.1216423" lon="11.8771295"><ele>3.0</ele><time>2026-04-07T15:15:13.566Z</time></trkpt><trkpt lat="45.1215026" lon="11.8770338"><ele>3.0</ele><time>2026-04-07T15:15:14.569Z</time></trkpt><trkpt lat="45.1213529" lon="11.8769293"><ele>3.0</ele><time>2026-04-07T15:15:15.56Z</time></trkpt><trkpt lat="45.121175" lon="11.8768551"><ele>3.0</ele><time>2026-04-07T15:15:16.555Z</time></trkpt><trkpt lat="45.1210181" lon="11.8767043"><ele>3.0</ele><time>2026-04-07T15:15:17.562Z</time></trkpt><trkpt lat="45.1208682" lon="11.8765242"><ele>3.0</ele><time>2026-04-07T15:15:18.562Z</time></trkpt><trkpt lat="45.1207061" lon="11.8763438"><ele>3.0</ele><time>2026-04-07T15:15:19.565Z</time></trkpt><trkpt lat="45.1205676" lon="11.8761966"><ele>3.0</ele><time>2026-04-07T15:15:20.57Z</time></trkpt><trkpt lat="45.1204268" lon="11.8760354"><ele>3.0</ele><time>2026-04-07T15:15:21.566Z</time></trkpt><trkpt lat="45.1202969" lon="11.8758779"><ele>3.0</ele><time>2026-04-07T15:15:22.571Z</time></trkpt><trkpt lat="45.1201417" lon="11.8757352"><ele>3.0</ele><time>2026-04-07T15:15:23.567Z</time></trkpt><trkpt lat="45.1200281" lon="11.8756107"><ele>3.0</ele><time>2026-04-07T15:15:24.574Z</time></trkpt><trkpt lat="45.1198848" lon="11.8754613"><ele>3.0</ele><time>2026-04-07T15:15:25.566Z</time></trkpt><trkpt lat="45.119747" lon="11.8753208"><ele>3.0</ele><time>2026-04-07T15:15:26.554Z</time></trkpt><trkpt lat="45.1196274" lon="11.8751917"><ele>3.0</ele><time>2026-04-07T15:15:27.565Z</time></trkpt><trkpt lat="45.1194986" lon="11.8750566"><ele>3.0</ele><time>2026-04-07T15:15:28.564Z</time></trkpt><trkpt lat="45.1193676" lon="11.8749246"><ele>3.0</ele><time>2026-04-07T15:15:29.564Z</time></trkpt><trkpt lat="45.1192639" lon="11.8747964"><ele>3.0</ele><time>2026-04-07T15:15:30.57Z</time></trkpt><trkpt lat="45.1191709" lon="11.8746756"><ele>3.0</ele><time>2026-04-07T15:15:31.564Z</time></trkpt><trkpt lat="45.1190623" lon="11.8745366"><ele>3.0</ele><time>2026-04-07T15:15:32.56Z</time></trkpt><trkpt lat="45.1189468" lon="11.8743715"><ele>3.0</ele><time>2026-04-07T15:15:33.561Z</time></trkpt><trkpt lat="45.1188596" lon="11.8742346"><ele>3.0</ele><time>2026-04-07T15:15:34.564Z</time></trkpt><trkpt lat="45.1187681" lon="11.8741014"><ele>3.0</ele><time>2026-04-07T15:15:35.561Z</time></trkpt><trkpt lat="45.1186955" lon="11.8739597"><ele>3.0</ele><time>2026-04-07T15:15:36.569Z</time></trkpt><trkpt lat="45.1186242" lon="11.8738229"><ele>3.0</ele><time>2026-04-07T15:15:37.565Z</time></trkpt><trkpt lat="45.1185509" lon="11.8736955"><ele>3.0</ele><time>2026-04-07T15:15:38.564Z</time></trkpt><trkpt lat="45.1184885" lon="11.8736028"><ele>3.0</ele><time>2026-04-07T15:15:39.563Z</time></trkpt><trkpt lat="45.1184175" lon="11.8735179"><ele>3.0</ele><time>2026-04-07T15:15:40.553Z</time></trkpt><trkpt lat="45.1183231" lon="11.8734507"><ele>3.0</ele><time>2026-04-07T15:15:41.559Z</time></trkpt><trkpt lat="45.1182358" lon="11.8733955"><ele>3.1666666666666665</ele><time>2026-04-07T15:15:42.564Z</time></trkpt><trkpt lat="45.1181582" lon="11.8733426"><ele>3.333333333333333</ele><time>2026-04-07T15:15:43.559Z</time></trkpt><trkpt lat="45.1180775" lon="11.8733015"><ele>3.5</ele><time>2026-04-07T15:15:44.561Z</time></trkpt><trkpt lat="45.118013" lon="11.8732679"><ele>3.6666666666666665</ele><time>2026-04-07T15:15:45.559Z</time></trkpt><trkpt lat="45.1179363" lon="11.8732086"><ele>3.833333333333333</ele><time>2026-04-07T15:15:47.553Z</time></trkpt><trkpt lat="45.1179717" lon="11.87312"><ele>4.0</ele><time>2026-04-07T15:15:49.559Z</time></trkpt><trkpt lat="45.1180334" lon="11.8730765"><ele>4.0</ele><time>2026-04-07T15:17:02.567Z</time></trkpt><trkpt lat="45.1180845" lon="11.8731548"><ele>3.9999999999999996</ele><time>2026-04-07T15:17:09.562Z</time></trkpt><trkpt lat="45.1180966" lon="11.8732461"><ele>4.0</ele><time>2026-04-07T15:17:13.567Z</time></trkpt><trkpt lat="45.118117" lon="11.8733444"><ele>4.0</ele><time>2026-04-07T15:17:17.564Z</time></trkpt><trkpt lat="45.1181503" lon="11.8734392"><ele>3.9999999999999996</ele><time>2026-04-07T15:17:21.568Z</time></trkpt><trkpt lat="45.1181744" lon="11.8735223"><ele>4.0</ele><time>2026-04-07T15:17:25.569Z</time></trkpt><trkpt lat="45.1182231" lon="11.8735944"><ele>4.0</ele><time>2026-04-07T15:17:30.57Z</time></trkpt><trkpt lat="45.1182917" lon="11.873589"><ele>3.8000000000000003</ele><time>2026-04-07T15:20:35.555Z</time></trkpt><trkpt lat="45.1183487" lon="11.8735459"><ele>3.6000000000000005</ele><time>2026-04-07T15:20:37.571Z</time></trkpt><trkpt lat="45.1183654" lon="11.8733976"><ele>3.4</ele><time>2026-04-07T15:20:44.569Z</time></trkpt><trkpt lat="45.1183488" lon="11.873245"><ele>3.2</ele><time>2026-04-07T15:20:46.573Z</time></trkpt><trkpt lat="45.1183058" lon="11.8731428"><ele>3.0</ele><time>2026-04-07T15:20:47.572Z</time></trkpt><trkpt lat="45.1182469" lon="11.8730296"><ele>3.0</ele><time>2026-04-07T15:20:48.568Z</time></trkpt><trkpt lat="45.1181731" lon="11.8728985"><ele>3.0</ele><time>2026-04-07T15:20:49.583Z</time></trkpt><trkpt lat="45.1180937" lon="11.8727523"><ele>3.0</ele><time>2026-04-07T15:20:50.578Z</time></trkpt><trkpt lat="45.1180178" lon="11.8726162"><ele>3.0</ele><time>2026-04-07T15:20:51.582Z</time></trkpt><trkpt lat="45.1179495" lon="11.8724695"><ele>3.0</ele><time>2026-04-07T15:20:52.58Z</time></trkpt><trkpt lat="45.1178774" lon="11.8723077"><ele>3.0</ele><time>2026-04-07T15:20:53.578Z</time></trkpt><trkpt lat="45.1178094" lon="11.8721392"><ele>3.0</ele><time>2026-04-07T15:20:54.581Z</time></trkpt><trkpt lat="45.1177444" lon="11.8719816"><ele>3.0</ele><time>2026-04-07T15:20:55.578Z</time></trkpt><trkpt lat="45.1176839" lon="11.8718407"><ele>3.5</ele><time>2026-04-07T15:20:56.575Z</time></trkpt><trkpt lat="45.117628" lon="11.8717073"><ele>4.0</ele><time>2026-04-07T15:20:57.578Z</time></trkpt><trkpt lat="45.1175654" lon="11.8715671"><ele>4.5</ele><time>2026-04-07T15:20:58.572Z</time></trkpt><trkpt lat="45.1175018" lon="11.8714192"><ele>5.0</ele><time>2026-04-07T15:20:59.575Z</time></trkpt><trkpt lat="45.1174352" lon="11.8712661"><ele>4.5</ele><time>2026-04-07T15:21:00.575Z</time></trkpt><trkpt lat="45.117366" lon="11.8711076"><ele>4.0</ele><time>2026-04-07T15:21:01.578Z</time></trkpt><trkpt lat="45.1172973" lon="11.8709488"><ele>3.5</ele><time>2026-04-07T15:21:02.576Z</time></trkpt><trkpt lat="45.1172291" lon="11.8707886"><ele>3.0</ele><time>2026-04-07T15:21:03.578Z</time></trkpt><trkpt lat="45.1171611" lon="11.8706261"><ele>3.0</ele><time>2026-04-07T15:21:04.573Z</time></trkpt><trkpt lat="45.1170941" lon="11.8704735"><ele>3.0</ele><time>2026-04-07T15:21:05.576Z</time></trkpt><trkpt lat="45.1170351" lon="11.8703285"><ele>3.0</ele><time>2026-04-07T15:21:06.564Z</time></trkpt><trkpt lat="45.1169814" lon="11.8701858"><ele>3.0</ele><time>2026-04-07T15:21:07.577Z</time></trkpt><trkpt lat="45.1169201" lon="11.8700403"><ele>3.25</ele><time>2026-04-07T15:21:08.575Z</time></trkpt><trkpt lat="45.1168571" lon="11.8698824"><ele>3.5</ele><time>2026-04-07T15:21:09.58Z</time></trkpt><trkpt lat="45.1167909" lon="11.8697272"><ele>3.75</ele><time>2026-04-07T15:21:10.581Z</time></trkpt><trkpt lat="45.1167268" lon="11.8695729"><ele>4.0</ele><time>2026-04-07T15:21:11.586Z</time></trkpt><trkpt lat="45.1166627" lon="11.8694144"><ele>4.0</ele><time>2026-04-07T15:21:12.57Z</time></trkpt><trkpt lat="45.1165969" lon="11.8692584"><ele>4.0</ele><time>2026-04-07T15:21:13.575Z</time></trkpt><trkpt lat="45.1165228" lon="11.8691012"><ele>4.0</ele><time>2026-04-07T15:21:14.581Z</time></trkpt><trkpt lat="45.1164592" lon="11.8689536"><ele>4.0</ele><time>2026-04-07T15:21:15.577Z</time></trkpt><trkpt lat="45.1164026" lon="11.8688226"><ele>3.9999999999999996</ele><time>2026-04-07T15:21:16.581Z</time></trkpt><trkpt lat="45.1163455" lon="11.8687033"><ele>4.0</ele><time>2026-04-07T15:21:17.585Z</time></trkpt><trkpt lat="45.116297" lon="11.8685897"><ele>4.0</ele><time>2026-04-07T15:21:18.579Z</time></trkpt><trkpt lat="45.1162534" lon="11.8684774"><ele>4.0</ele><time>2026-04-07T15:21:19.583Z</time></trkpt><trkpt lat="45.116211" lon="11.8683758"><ele>3.9999999999999996</ele><time>2026-04-07T15:21:20.578Z</time></trkpt><trkpt lat="45.1161718" lon="11.8682779"><ele>4.0</ele><time>2026-04-07T15:21:21.58Z</time></trkpt><trkpt lat="45.1161306" lon="11.8681843"><ele>3.9999999999999996</ele><time>2026-04-07T15:21:22.58Z</time></trkpt><trkpt lat="45.1160859" lon="11.8680953"><ele>4.0</ele><time>2026-04-07T15:21:23.58Z</time></trkpt><trkpt lat="45.1160391" lon="11.8680091"><ele>4.0</ele><time>2026-04-07T15:21:24.586Z</time></trkpt><trkpt lat="45.1159884" lon="11.8679145"><ele>4.0</ele><time>2026-04-07T15:21:25.582Z</time></trkpt><trkpt lat="45.1159332" lon="11.8678052"><ele>3.9999999999999996</ele><time>2026-04-07T15:21:26.585Z</time></trkpt><trkpt lat="45.11587" lon="11.8676926"><ele>4.0</ele><time>2026-04-07T15:21:27.576Z</time></trkpt><trkpt lat="45.1158091" lon="11.8675779"><ele>4.0</ele><time>2026-04-07T15:21:28.577Z</time></trkpt><trkpt lat="45.1157408" lon="11.8674587"><ele>4.0</ele><time>2026-04-07T15:21:29.569Z</time></trkpt><trkpt lat="45.1156707" lon="11.8673364"><ele>4.0</ele><time>2026-04-07T15:21:30.578Z</time></trkpt><trkpt lat="45.1155956" lon="11.8672148"><ele>4.0</ele><time>2026-04-07T15:21:31.578Z</time></trkpt><trkpt lat="45.1155274" lon="11.8671021"><ele>4.0</ele><time>2026-04-07T15:21:32.578Z</time></trkpt><trkpt lat="45.1154628" lon="11.8669967"><ele>3.9999999999999996</ele><time>2026-04-07T15:21:33.577Z</time></trkpt><trkpt lat="45.1154014" lon="11.8669004"><ele>4.0</ele><time>2026-04-07T15:21:34.576Z</time></trkpt><trkpt lat="45.1153475" lon="11.8668166"><ele>4.0</ele><time>2026-04-07T15:21:35.582Z</time></trkpt><trkpt lat="45.1152967" lon="11.8667443"><ele>4.0</ele><time>2026-04-07T15:21:36.577Z</time></trkpt><trkpt lat="45.1152415" lon="11.8666579"><ele>3.9999999999999996</ele><time>2026-04-07T15:21:37.579Z</time></trkpt><trkpt lat="45.1151829" lon="11.866568"><ele>4.0</ele><time>2026-04-07T15:21:38.577Z</time></trkpt><trkpt lat="45.1151222" lon="11.8664717"><ele>4.0</ele><time>2026-04-07T15:21:39.579Z</time></trkpt><trkpt lat="45.1150647" lon="11.8663819"><ele>4.0</ele><time>2026-04-07T15:21:40.586Z</time></trkpt><trkpt lat="45.1150172" lon="11.8663058"><ele>4.0</ele><time>2026-04-07T15:21:41.577Z</time></trkpt><trkpt lat="45.1149521" lon="11.8661799"><ele>4.0</ele><time>2026-04-07T15:21:43.584Z</time></trkpt><trkpt lat="45.1148955" lon="11.8661102"><ele>4.0</ele><time>2026-04-07T15:22:03.572Z</time></trkpt><trkpt lat="45.1147832" lon="11.8659831"><ele>4.0</ele><time>2026-04-07T15:22:05.57Z</time></trkpt><trkpt lat="45.1147254" lon="11.8658797"><ele>4.0</ele><time>2026-04-07T15:22:06.574Z</time></trkpt><trkpt lat="45.1146711" lon="11.8657654"><ele>4.0</ele><time>2026-04-07T15:22:07.564Z</time></trkpt><trkpt lat="45.1146103" lon="11.8656378"><ele>4.0</ele><time>2026-04-07T15:22:08.57Z</time></trkpt><trkpt lat="45.1145436" lon="11.8654987"><ele>4.0</ele><time>2026-04-07T15:22:09.573Z</time></trkpt><trkpt lat="45.1144784" lon="11.8653486"><ele>4.0</ele><time>2026-04-07T15:22:10.577Z</time></trkpt><trkpt lat="45.114418" lon="11.8651928"><ele>4.0</ele><time>2026-04-07T15:22:11.579Z</time></trkpt><trkpt lat="45.1143654" lon="11.8650379"><ele>4.0</ele><time>2026-04-07T15:22:12.57Z</time></trkpt><trkpt lat="45.1143112" lon="11.8648643"><ele>4.0</ele><time>2026-04-07T15:22:13.581Z</time></trkpt><trkpt lat="45.1142515" lon="11.8646809"><ele>4.0</ele><time>2026-04-07T15:22:14.604Z</time></trkpt><trkpt lat="45.1141828" lon="11.8644665"><ele>4.0</ele><time>2026-04-07T15:22:15.595Z</time></trkpt><trkpt lat="45.1141112" lon="11.864248"><ele>4.0</ele><time>2026-04-07T15:22:16.578Z</time></trkpt><trkpt lat="45.11404" lon="11.8640613"><ele>4.0</ele><time>2026-04-07T15:22:17.607Z</time></trkpt><trkpt lat="45.1139861" lon="11.8638706"><ele>4.0</ele><time>2026-04-07T15:22:18.604Z</time></trkpt><trkpt lat="45.1139158" lon="11.8636591"><ele>4.0</ele><time>2026-04-07T15:22:19.578Z</time></trkpt><trkpt lat="45.1138419" lon="11.8634209"><ele>3.75</ele><time>2026-04-07T15:22:20.599Z</time></trkpt><trkpt lat="45.1137895" lon="11.8632456"><ele>3.5</ele><time>2026-04-07T15:22:21.574Z</time></trkpt><trkpt lat="45.113745" lon="11.8630712"><ele>3.25</ele><time>2026-04-07T15:22:22.573Z</time></trkpt><trkpt lat="45.1136995" lon="11.8629274"><ele>3.0</ele><time>2026-04-07T15:22:23.581Z</time></trkpt><trkpt lat="45.1136431" lon="11.8627675"><ele>2.75</ele><time>2026-04-07T15:22:24.577Z</time></trkpt><trkpt lat="45.1135956" lon="11.8626048"><ele>2.5</ele><time>2026-04-07T15:22:25.581Z</time></trkpt><trkpt lat="45.113546" lon="11.8624455"><ele>2.25</ele><time>2026-04-07T15:22:26.58Z</time></trkpt><trkpt lat="45.113499" lon="11.8622783"><ele>2.0</ele><time>2026-04-07T15:22:27.573Z</time></trkpt><trkpt lat="45.1134391" lon="11.8621052"><ele>2.0</ele><time>2026-04-07T15:22:28.58Z</time></trkpt><trkpt lat="45.1133854" lon="11.8619227"><ele>2.0</ele><time>2026-04-07T15:22:29.598Z</time></trkpt><trkpt lat="45.1133452" lon="11.8617436"><ele>2.0</ele><time>2026-04-07T15:22:30.6Z</time></trkpt><trkpt lat="45.1133098" lon="11.8615602"><ele>2.0</ele><time>2026-04-07T15:22:31.576Z</time></trkpt><trkpt lat="45.1132724" lon="11.8613604"><ele>1.75</ele><time>2026-04-07T15:22:32.595Z</time></trkpt><trkpt lat="45.1132389" lon="11.8611564"><ele>1.5</ele><time>2026-04-07T15:22:33.579Z</time></trkpt><trkpt lat="45.1132116" lon="11.8609553"><ele>1.25</ele><time>2026-04-07T15:22:34.578Z</time></trkpt><trkpt lat="45.1131923" lon="11.860743"><ele>1.0</ele><time>2026-04-07T15:22:35.577Z</time></trkpt><trkpt lat="45.1131801" lon="11.8605433"><ele>1.0</ele><time>2026-04-07T15:22:36.573Z</time></trkpt><trkpt lat="45.1131682" lon="11.8603581"><ele>1.0</ele><time>2026-04-07T15:22:37.571Z</time></trkpt><trkpt lat="45.1131464" lon="11.8601606"><ele>1.0</ele><time>2026-04-07T15:22:38.568Z</time></trkpt><trkpt lat="45.1131371" lon="11.8600255"><ele>1.0</ele><time>2026-04-07T15:22:39.567Z</time></trkpt><trkpt lat="45.1131267" lon="11.8598647"><ele>1.0</ele><time>2026-04-07T15:22:40.577Z</time></trkpt><trkpt lat="45.1131163" lon="11.8597021"><ele>1.0</ele><time>2026-04-07T15:22:41.571Z</time></trkpt><trkpt lat="45.1131105" lon="11.859548"><ele>1.0</ele><time>2026-04-07T15:22:42.577Z</time></trkpt><trkpt lat="45.1131094" lon="11.8594158"><ele>1.0</ele><time>2026-04-07T15:22:43.579Z</time></trkpt><trkpt lat="45.1130983" lon="11.8592897"><ele>1.0</ele><time>2026-04-07T15:22:44.575Z</time></trkpt><trkpt lat="45.113095" lon="11.8591479"><ele>0.9999999999999999</ele><time>2026-04-07T15:22:45.579Z</time></trkpt><trkpt lat="45.1130852" lon="11.8590268"><ele>1.0</ele><time>2026-04-07T15:22:46.584Z</time></trkpt><trkpt lat="45.1130814" lon="11.8589227"><ele>1.0</ele><time>2026-04-07T15:22:47.577Z</time></trkpt><trkpt lat="45.1131075" lon="11.8587989"><ele>1.0</ele><time>2026-04-07T15:22:49.582Z</time></trkpt><trkpt lat="45.1131173" lon="11.858705"><ele>0.9999999999999999</ele><time>2026-04-07T15:22:52.573Z</time></trkpt><trkpt lat="45.1131379" lon="11.8586105"><ele>1.0</ele><time>2026-04-07T15:23:11.58Z</time></trkpt><trkpt lat="45.1132022" lon="11.8586358"><ele>1.2857142857142856</ele><time>2026-04-07T15:23:16.568Z</time></trkpt><trkpt lat="45.1132658" lon="11.8586369"><ele>1.5714285714285712</ele><time>2026-04-07T15:23:21.572Z</time></trkpt><trkpt lat="45.1132488" lon="11.8587228"><ele>1.857142857142857</ele><time>2026-04-07T15:23:29.568Z</time></trkpt><trkpt lat="45.1133211" lon="11.8586884"><ele>2.142857142857143</ele><time>2026-04-07T15:25:17.579Z</time></trkpt><trkpt lat="45.113366" lon="11.8587629"><ele>2.4285714285714284</ele><time>2026-04-07T15:27:03.556Z</time></trkpt><trkpt lat="45.1134299" lon="11.8588288"><ele>2.714285714285714</ele><time>2026-04-07T15:27:07.565Z</time></trkpt><trkpt lat="45.1133678" lon="11.8587729"><ele>3.0</ele><time>2026-04-07T15:27:32.547Z</time></trkpt><trkpt lat="45.1133216" lon="11.8587065"><ele>3.0</ele><time>2026-04-07T15:27:35.548Z</time></trkpt><trkpt lat="45.1132627" lon="11.8586271"><ele>3.0</ele><time>2026-04-07T15:27:37.553Z</time></trkpt><trkpt lat="45.1131571" lon="11.8586162"><ele>3.0</ele><time>2026-04-07T15:28:18.563Z</time></trkpt><trkpt lat="45.1132293" lon="11.8587471"><ele>3.0</ele><time>2026-04-07T15:28:26.583Z</time></trkpt><trkpt lat="45.1131602" lon="11.858724"><ele>3.0</ele><time>2026-04-07T15:28:30.576Z</time></trkpt><trkpt lat="45.113087" lon="11.8587245"><ele>3.0</ele><time>2026-04-07T15:28:35.58Z</time></trkpt><trkpt lat="45.1130697" lon="11.8586346"><ele>3.0</ele><time>2026-04-07T15:31:02.59Z</time></trkpt><trkpt lat="45.1130859" lon="11.8585459"><ele>3.0</ele><time>2026-04-07T15:31:11.582Z</time></trkpt><trkpt lat="45.1131013" lon="11.8586388"><ele>3.0</ele><time>2026-04-07T15:31:16.579Z</time></trkpt><trkpt lat="45.1130441" lon="11.8585244"><ele>3.0</ele><time>2026-04-07T15:31:48.587Z</time></trkpt><trkpt lat="45.113037" lon="11.8583492"><ele>3.0</ele><time>2026-04-07T15:31:50.588Z</time></trkpt><trkpt lat="45.1130535" lon="11.8581693"><ele>3.0</ele><time>2026-04-07T15:31:52.583Z</time></trkpt><trkpt lat="45.1130904" lon="11.8580154"><ele>3.0</ele><time>2026-04-07T15:31:54.582Z</time></trkpt><trkpt lat="45.1131765" lon="11.8579405"><ele>3.0</ele><time>2026-04-07T15:31:56.575Z</time></trkpt><trkpt lat="45.1132445" lon="11.8579827"><ele>3.0</ele><time>2026-04-07T15:31:57.583Z</time></trkpt><trkpt lat="45.1133107" lon="11.8580073"><ele>3.0</ele><time>2026-04-07T15:31:58.577Z</time></trkpt><trkpt lat="45.1134098" lon="11.8580385"><ele>3.1428571428571423</ele><time>2026-04-07T15:32:00.585Z</time></trkpt><trkpt lat="45.113491" lon="11.8580513"><ele>3.2857142857142856</ele><time>2026-04-07T15:32:02.584Z</time></trkpt><trkpt lat="45.1134229" lon="11.8580567"><ele>3.4285714285714284</ele><time>2026-04-07T15:33:05.587Z</time></trkpt><trkpt lat="45.1133708" lon="11.858123"><ele>3.571428571428571</ele><time>2026-04-07T15:34:24.591Z</time></trkpt><trkpt lat="45.113302" lon="11.8581354"><ele>3.714285714285714</ele><time>2026-04-07T15:34:30.588Z</time></trkpt><trkpt lat="45.1132898" lon="11.8582302"><ele>3.8571428571428568</ele><time>2026-04-07T15:34:42.579Z</time></trkpt><trkpt lat="45.1133286" lon="11.8581537"><ele>4.0</ele><time>2026-04-07T15:34:48.589Z</time></trkpt><trkpt lat="45.1133753" lon="11.8580815"><ele>4.0</ele><time>2026-04-07T15:34:58.576Z</time></trkpt><trkpt lat="45.1133139" lon="11.8580301"><ele>3.9999999999999996</ele><time>2026-04-07T15:35:10.588Z</time></trkpt><trkpt lat="45.1132848" lon="11.8581169"><ele>4.0</ele><time>2026-04-07T15:35:22.602Z</time></trkpt><trkpt lat="45.1133485" lon="11.8581449"><ele>4.0</ele><time>2026-04-07T15:35:35.587Z</time></trkpt><trkpt lat="45.1133983" lon="11.8580874"><ele>3.9999999999999996</ele><time>2026-04-07T15:37:54.586Z</time></trkpt><trkpt lat="45.113473" lon="11.8580989"><ele>4.0</ele><time>2026-04-07T15:42:37.58Z</time></trkpt><trkpt lat="45.113492" lon="11.8579982"><ele>4.0</ele><time>2026-04-07T15:42:43.585Z</time></trkpt><trkpt lat="45.1135091" lon="11.8578962"><ele>4.0</ele><time>2026-04-07T15:42:49.579Z</time></trkpt><trkpt lat="45.1135189" lon="11.8580008"><ele>3.9999999999999996</ele><time>2026-04-07T15:42:56.58Z</time></trkpt><trkpt lat="45.1135436" lon="11.8580945"><ele>4.0</ele><time>2026-04-07T15:43:00.58Z</time></trkpt><trkpt lat="45.1134615" lon="11.8581083"><ele>4.0</ele><time>2026-04-07T15:44:04.582Z</time></trkpt><trkpt lat="45.1135135" lon="11.8580365"><ele>3.9999999999999996</ele><time>2026-04-07T15:44:26.588Z</time></trkpt><trkpt lat="45.1134637" lon="11.8579801"><ele>4.0</ele><time>2026-04-07T15:44:37.585Z</time></trkpt><trkpt lat="45.1133963" lon="11.8579601"><ele>4.0</ele><time>2026-04-07T15:44:43.569Z</time></trkpt><trkpt lat="45.1133514" lon="11.8578794"><ele>3.9999999999999996</ele><time>2026-04-07T15:44:48.581Z</time></trkpt><trkpt lat="45.1134116" lon="11.857727"><ele>4.0</ele><time>2026-04-07T15:48:22.681Z</time></trkpt><trkpt lat="45.1134327" lon="11.8576291"><ele>4.0</ele><time>2026-04-07T15:48:29.545Z</time></trkpt><trkpt lat="45.1133591" lon="11.8577181"><ele>4.0</ele><time>2026-04-07T15:51:25.57Z</time></trkpt><trkpt lat="45.1133404" lon="11.857815"><ele>3.9999999999999996</ele><time>2026-04-07T15:52:31.586Z</time></trkpt><trkpt lat="45.1133641" lon="11.8577157"><ele>4.0</ele><time>2026-04-07T15:52:53.569Z</time></trkpt><trkpt lat="45.1134026" lon="11.8576351"><ele>4.0</ele><time>2026-04-07T15:52:56.579Z</time></trkpt><trkpt lat="45.1134287" lon="11.8575329"><ele>3.9999999999999996</ele><time>2026-04-07T15:52:59.574Z</time></trkpt><trkpt lat="45.113415" lon="11.8576432"><ele>4.0</ele><time>2026-04-07T15:53:15.592Z</time></trkpt><trkpt lat="45.1134207" lon="11.8577596"><ele>4.0</ele><time>2026-04-07T15:58:06.614Z</time></trkpt><trkpt lat="45.1134174" lon="11.8576693"><ele>3.9999999999999996</ele><time>2026-04-07T15:58:18.607Z</time></trkpt><trkpt lat="45.1133932" lon="11.8575837"><ele>4.0</ele><time>2026-04-07T15:58:22.609Z</time></trkpt><trkpt lat="45.1134052" lon="11.8576822"><ele>4.0</ele><time>2026-04-07T15:58:50.607Z</time></trkpt><trkpt lat="45.1133489" lon="11.8576274"><ele>3.75</ele><time>2026-04-07T15:59:59.571Z</time></trkpt><trkpt lat="45.1132548" lon="11.8575542"><ele>3.5</ele><time>2026-04-07T16:00:02.582Z</time></trkpt><trkpt lat="45.1131855" lon="11.8574604"><ele>3.25</ele><time>2026-04-07T16:00:04.897Z</time></trkpt><trkpt lat="45.1131479" lon="11.8573687"><ele>3.0</ele><time>2026-04-07T16:00:05.898Z</time></trkpt><trkpt lat="45.1131031" lon="11.8570724"><ele>3.0</ele><time>2026-04-07T16:00:08.047Z</time></trkpt><trkpt lat="45.1130942" lon="11.8568933"><ele>3.0</ele><time>2026-04-07T16:00:09.049Z</time></trkpt><trkpt lat="45.1130866" lon="11.8566932"><ele>3.0</ele><time>2026-04-07T16:00:09.646Z</time></trkpt><trkpt lat="45.1130749" lon="11.8564839"><ele>3.0</ele><time>2026-04-07T16:00:11.054Z</time></trkpt><trkpt lat="45.1130268" lon="11.8562351"><ele>3.0</ele><time>2026-04-07T16:00:12.058Z</time></trkpt><trkpt lat="45.1129422" lon="11.8557091"><ele>3.0</ele><time>2026-04-07T16:00:14.054Z</time></trkpt><trkpt lat="45.1129102" lon="11.8554456"><ele>3.0</ele><time>2026-04-07T16:00:15.053Z</time></trkpt><trkpt lat="45.1127733" lon="11.8546807"><ele>3.0</ele><time>2026-04-07T16:00:16.867Z</time></trkpt><trkpt lat="45.11283" lon="11.8543904"><ele>3.0</ele><time>2026-04-07T16:00:17.885Z</time></trkpt><trkpt lat="45.1128705" lon="11.8538525"><ele>3.0</ele><time>2026-04-07T16:00:19.594Z</time></trkpt><trkpt lat="45.1128632" lon="11.853598"><ele>3.0</ele><time>2026-04-07T16:00:20.595Z</time></trkpt><trkpt lat="45.1128459" lon="11.8533324"><ele>3.0</ele><time>2026-04-07T16:00:21.631Z</time></trkpt><trkpt lat="45.1128477" lon="11.8530403"><ele>3.5</ele><time>2026-04-07T16:00:22.623Z</time></trkpt><trkpt lat="45.1128532" lon="11.8527297"><ele>4.0</ele><time>2026-04-07T16:00:23.627Z</time></trkpt><trkpt lat="45.1128969" lon="11.8523419"><ele>4.0</ele><time>2026-04-07T16:00:24.635Z</time></trkpt><trkpt lat="45.1128912" lon="11.8519982"><ele>4.0</ele><time>2026-04-07T16:00:25.616Z</time></trkpt><trkpt lat="45.1128979" lon="11.8515987"><ele>4.0</ele><time>2026-04-07T16:00:26.618Z</time></trkpt><trkpt lat="45.1128958" lon="11.8512747"><ele>4.0</ele><time>2026-04-07T16:00:27.615Z</time></trkpt><trkpt lat="45.1129066" lon="11.8509721"><ele>4.0</ele><time>2026-04-07T16:00:28.917Z</time></trkpt><trkpt lat="45.112897" lon="11.8506627"><ele>3.5</ele><time>2026-04-07T16:00:29.911Z</time></trkpt><trkpt lat="45.112915" lon="11.8501018"><ele>3.0</ele><time>2026-04-07T16:00:31.911Z</time></trkpt><trkpt lat="45.112927" lon="11.8498264"><ele>3.0</ele><time>2026-04-07T16:00:32.905Z</time></trkpt><trkpt lat="45.1128923" lon="11.8493212"><ele>3.0</ele><time>2026-04-07T16:00:34.912Z</time></trkpt><trkpt lat="45.1128501" lon="11.8491013"><ele>3.5</ele><time>2026-04-07T16:00:35.911Z</time></trkpt><trkpt lat="45.112721" lon="11.848657"><ele>4.0</ele><time>2026-04-07T16:00:37.601Z</time></trkpt><trkpt lat="45.1126481" lon="11.8484624"><ele>4.0</ele><time>2026-04-07T16:00:38.605Z</time></trkpt><trkpt lat="45.1125742" lon="11.8483112"><ele>4.0</ele><time>2026-04-07T16:00:39.746Z</time></trkpt><trkpt lat="45.1124919" lon="11.848167"><ele>4.0</ele><time>2026-04-07T16:00:40.746Z</time></trkpt><trkpt lat="45.1122898" lon="11.8479006"><ele>4.0</ele><time>2026-04-07T16:00:42.751Z</time></trkpt><trkpt lat="45.1121584" lon="11.8478554"><ele>4.0</ele><time>2026-04-07T16:00:43.735Z</time></trkpt><trkpt lat="45.1120482" lon="11.8478256"><ele>4.0</ele><time>2026-04-07T16:00:44.635Z</time></trkpt><trkpt lat="45.1119342" lon="11.8477988"><ele>4.0</ele><time>2026-04-07T16:00:45.631Z</time></trkpt><trkpt lat="45.1118356" lon="11.8477799"><ele>4.0</ele><time>2026-04-07T16:00:46.621Z</time></trkpt><trkpt lat="45.1117269" lon="11.847749"><ele>4.0</ele><time>2026-04-07T16:00:47.63Z</time></trkpt><trkpt lat="45.1116397" lon="11.8477008"><ele>4.0</ele><time>2026-04-07T16:00:48.626Z</time></trkpt><trkpt lat="45.1115821" lon="11.8476399"><ele>4.0</ele><time>2026-04-07T16:00:49.628Z</time></trkpt><trkpt lat="45.1115396" lon="11.8474246"><ele>4.0</ele><time>2026-04-07T16:00:51.621Z</time></trkpt><trkpt lat="45.1115558" lon="11.8472474"><ele>4.0</ele><time>2026-04-07T16:00:52.627Z</time></trkpt><trkpt lat="45.1115847" lon="11.8470479"><ele>4.0</ele><time>2026-04-07T16:00:53.625Z</time></trkpt><trkpt lat="45.1116126" lon="11.8468414"><ele>4.0</ele><time>2026-04-07T16:00:54.629Z</time></trkpt><trkpt lat="45.1116392" lon="11.846624"><ele>4.0</ele><time>2026-04-07T16:00:55.622Z</time></trkpt><trkpt lat="45.1116846" lon="11.8463555"><ele>4.333333333333333</ele><time>2026-04-07T16:00:56.623Z</time></trkpt><trkpt lat="45.1117142" lon="11.846051"><ele>4.666666666666667</ele><time>2026-04-07T16:00:57.623Z</time></trkpt><trkpt lat="45.1117648" lon="11.8457368"><ele>5.0</ele><time>2026-04-07T16:00:58.612Z</time></trkpt><trkpt lat="45.1118192" lon="11.8454496"><ele>5.0</ele><time>2026-04-07T16:00:59.623Z</time></trkpt><trkpt lat="45.1118605" lon="11.8452206"><ele>5.0</ele><time>2026-04-07T16:01:00.608Z</time></trkpt><trkpt lat="45.1118835" lon="11.8450139"><ele>5.0</ele><time>2026-04-07T16:01:01.637Z</time></trkpt><trkpt lat="45.1118999" lon="11.8448288"><ele>5.0</ele><time>2026-04-07T16:01:02.621Z</time></trkpt><trkpt lat="45.1119148" lon="11.8446337"><ele>5.0</ele><time>2026-04-07T16:01:03.606Z</time></trkpt><trkpt lat="45.1119247" lon="11.844415"><ele>5.0</ele><time>2026-04-07T16:01:04.636Z</time></trkpt><trkpt lat="45.1119455" lon="11.8442317"><ele>5.0</ele><time>2026-04-07T16:01:05.615Z</time></trkpt><trkpt lat="45.1119945" lon="11.8440183"><ele>5.0</ele><time>2026-04-07T16:01:06.608Z</time></trkpt><trkpt lat="45.1120209" lon="11.8437828"><ele>4.666666666666667</ele><time>2026-04-07T16:01:07.62Z</time></trkpt><trkpt lat="45.1120409" lon="11.8435217"><ele>4.333333333333333</ele><time>2026-04-07T16:01:08.618Z</time></trkpt><trkpt lat="45.1120578" lon="11.8432559"><ele>4.0</ele><time>2026-04-07T16:01:09.619Z</time></trkpt><trkpt lat="45.1120469" lon="11.8430101"><ele>4.0</ele><time>2026-04-07T16:01:10.622Z</time></trkpt><trkpt lat="45.1120206" lon="11.8427889"><ele>4.0</ele><time>2026-04-07T16:01:11.623Z</time></trkpt><trkpt lat="45.1119653" lon="11.8425745"><ele>4.0</ele><time>2026-04-07T16:01:12.612Z</time></trkpt><trkpt lat="45.1118973" lon="11.8423506"><ele>4.0</ele><time>2026-04-07T16:01:13.616Z</time></trkpt><trkpt lat="45.1118383" lon="11.8421137"><ele>4.0</ele><time>2026-04-07T16:01:14.591Z</time></trkpt><trkpt lat="45.111767" lon="11.841885"><ele>4.0</ele><time>2026-04-07T16:01:15.594Z</time></trkpt><trkpt lat="45.111695" lon="11.84166"><ele>4.0</ele><time>2026-04-07T16:01:16.592Z</time></trkpt><trkpt lat="45.1116443" lon="11.8414601"><ele>4.0</ele><time>2026-04-07T16:01:17.586Z</time></trkpt><trkpt lat="45.1115552" lon="11.841232"><ele>4.0</ele><time>2026-04-07T16:01:18.593Z</time></trkpt><trkpt lat="45.111464" lon="11.8409798"><ele>4.333333333333333</ele><time>2026-04-07T16:01:19.602Z</time></trkpt><trkpt lat="45.111336" lon="11.8407183"><ele>4.666666666666667</ele><time>2026-04-07T16:01:20.578Z</time></trkpt><trkpt lat="45.1112145" lon="11.8405371"><ele>5.0</ele><time>2026-04-07T16:01:21.601Z</time></trkpt><trkpt lat="45.1111008" lon="11.8403037"><ele>4.5</ele><time>2026-04-07T16:01:22.6Z</time></trkpt><trkpt lat="45.1109603" lon="11.8400408"><ele>4.0</ele><time>2026-04-07T16:01:23.59Z</time></trkpt><trkpt lat="45.1108113" lon="11.8397835"><ele>4.0</ele><time>2026-04-07T16:01:24.596Z</time></trkpt><trkpt lat="45.1106427" lon="11.8395198"><ele>4.0</ele><time>2026-04-07T16:01:25.6Z</time></trkpt><trkpt lat="45.1104964" lon="11.8392811"><ele>4.0</ele><time>2026-04-07T16:01:26.63Z</time></trkpt><trkpt lat="45.1103585" lon="11.8390694"><ele>4.0</ele><time>2026-04-07T16:01:27.603Z</time></trkpt><trkpt lat="45.1102193" lon="11.8388642"><ele>4.0</ele><time>2026-04-07T16:01:28.599Z</time></trkpt><trkpt lat="45.1100929" lon="11.838702"><ele>4.0</ele><time>2026-04-07T16:01:29.601Z</time></trkpt><trkpt lat="45.1099762" lon="11.8385173"><ele>4.0</ele><time>2026-04-07T16:01:30.6Z</time></trkpt><trkpt lat="45.109874" lon="11.8383094"><ele>4.0</ele><time>2026-04-07T16:01:31.594Z</time></trkpt><trkpt lat="45.1097781" lon="11.8380872"><ele>4.0</ele><time>2026-04-07T16:01:32.603Z</time></trkpt><trkpt lat="45.1096863" lon="11.8378487"><ele>4.0</ele><time>2026-04-07T16:01:33.601Z</time></trkpt><trkpt lat="45.1095929" lon="11.837642"><ele>4.0</ele><time>2026-04-07T16:01:34.607Z</time></trkpt><trkpt lat="45.1094846" lon="11.8374617"><ele>4.0</ele><time>2026-04-07T16:01:35.601Z</time></trkpt><trkpt lat="45.1093784" lon="11.8372885"><ele>4.0</ele><time>2026-04-07T16:01:36.625Z</time></trkpt><trkpt lat="45.1092879" lon="11.8371213"><ele>4.0</ele><time>2026-04-07T16:01:37.603Z</time></trkpt><trkpt lat="45.1091809" lon="11.8369949"><ele>4.5</ele><time>2026-04-07T16:01:38.6Z</time></trkpt><trkpt lat="45.1090599" lon="11.8369028"><ele>5.0</ele><time>2026-04-07T16:01:39.61Z</time></trkpt><trkpt lat="45.108972" lon="11.8368069"><ele>5.5</ele><time>2026-04-07T16:01:40.6Z</time></trkpt><trkpt lat="45.1088912" lon="11.8367329"><ele>6.0</ele><time>2026-04-07T16:01:41.608Z</time></trkpt><trkpt lat="45.1087943" lon="11.836669"><ele>6.0</ele><time>2026-04-07T16:01:42.607Z</time></trkpt><trkpt lat="45.1086776" lon="11.8366069"><ele>6.0</ele><time>2026-04-07T16:01:43.598Z</time></trkpt><trkpt lat="45.1085695" lon="11.8365237"><ele>6.0</ele><time>2026-04-07T16:01:44.606Z</time></trkpt><trkpt lat="45.1084584" lon="11.8364508"><ele>6.0</ele><time>2026-04-07T16:01:45.607Z</time></trkpt><trkpt lat="45.108342" lon="11.8363887"><ele>5.75</ele><time>2026-04-07T16:01:46.629Z</time></trkpt><trkpt lat="45.1082256" lon="11.8363206"><ele>5.5</ele><time>2026-04-07T16:01:47.625Z</time></trkpt><trkpt lat="45.108098" lon="11.8362591"><ele>5.25</ele><time>2026-04-07T16:01:48.624Z</time></trkpt><trkpt lat="45.1079533" lon="11.8362001"><ele>5.0</ele><time>2026-04-07T16:01:49.629Z</time></trkpt><trkpt lat="45.1077908" lon="11.8361404"><ele>5.0</ele><time>2026-04-07T16:01:50.618Z</time></trkpt><trkpt lat="45.1076738" lon="11.8360896"><ele>5.0</ele><time>2026-04-07T16:01:51.618Z</time></trkpt><trkpt lat="45.1075594" lon="11.8360512"><ele>5.0</ele><time>2026-04-07T16:01:52.614Z</time></trkpt><trkpt lat="45.1074598" lon="11.8359998"><ele>5.0</ele><time>2026-04-07T16:01:53.621Z</time></trkpt><trkpt lat="45.1073697" lon="11.835959"><ele>5.0</ele><time>2026-04-07T16:01:54.615Z</time></trkpt><trkpt lat="45.1072848" lon="11.8359162"><ele>4.8</ele><time>2026-04-07T16:01:55.615Z</time></trkpt><trkpt lat="45.1071952" lon="11.8358904"><ele>4.6</ele><time>2026-04-07T16:01:56.624Z</time></trkpt><trkpt lat="45.1071099" lon="11.8358643"><ele>4.4</ele><time>2026-04-07T16:01:57.601Z</time></trkpt><trkpt lat="45.1069933" lon="11.8358214"><ele>4.2</ele><time>2026-04-07T16:01:58.615Z</time></trkpt><trkpt lat="45.1068596" lon="11.8357706"><ele>4.0</ele><time>2026-04-07T16:01:59.617Z</time></trkpt><trkpt lat="45.1067202" lon="11.8357123"><ele>4.0</ele><time>2026-04-07T16:02:00.603Z</time></trkpt><trkpt lat="45.106549" lon="11.8356405"><ele>4.0</ele><time>2026-04-07T16:02:01.629Z</time></trkpt><trkpt lat="45.1063732" lon="11.8355967"><ele>4.0</ele><time>2026-04-07T16:02:02.627Z</time></trkpt><trkpt lat="45.1061726" lon="11.835594"><ele>4.0</ele><time>2026-04-07T16:02:03.621Z</time></trkpt><trkpt lat="45.1059593" lon="11.8355812"><ele>4.0</ele><time>2026-04-07T16:02:04.628Z</time></trkpt><trkpt lat="45.1057532" lon="11.8355454"><ele>4.0</ele><time>2026-04-07T16:02:05.597Z</time></trkpt><trkpt lat="45.1055828" lon="11.8355078"><ele>3.6666666666666665</ele><time>2026-04-07T16:02:06.627Z</time></trkpt><trkpt lat="45.1054115" lon="11.8354618"><ele>3.333333333333333</ele><time>2026-04-07T16:02:07.623Z</time></trkpt><trkpt lat="45.1052504" lon="11.8353951"><ele>3.0</ele><time>2026-04-07T16:02:08.658Z</time></trkpt><trkpt lat="45.1051013" lon="11.8353323"><ele>3.0</ele><time>2026-04-07T16:02:09.65Z</time></trkpt><trkpt lat="45.1049555" lon="11.8352835"><ele>3.0</ele><time>2026-04-07T16:02:10.624Z</time></trkpt><trkpt lat="45.1048141" lon="11.8352432"><ele>3.0</ele><time>2026-04-07T16:02:11.636Z</time></trkpt><trkpt lat="45.1046642" lon="11.8352048"><ele>3.0</ele><time>2026-04-07T16:02:12.636Z</time></trkpt><trkpt lat="45.1045293" lon="11.8351138"><ele>2.75</ele><time>2026-04-07T16:02:13.633Z</time></trkpt><trkpt lat="45.1043869" lon="11.8350291"><ele>2.5</ele><time>2026-04-07T16:02:14.632Z</time></trkpt><trkpt lat="45.1042654" lon="11.8349315"><ele>2.25</ele><time>2026-04-07T16:02:15.658Z</time></trkpt><trkpt lat="45.1041508" lon="11.8348521"><ele>2.0</ele><time>2026-04-07T16:02:16.656Z</time></trkpt><trkpt lat="45.1040264" lon="11.8347742"><ele>2.0</ele><time>2026-04-07T16:02:17.657Z</time></trkpt><trkpt lat="45.1038854" lon="11.8346924"><ele>2.0</ele><time>2026-04-07T16:02:18.65Z</time></trkpt><trkpt lat="45.1037602" lon="11.8346067"><ele>2.0</ele><time>2026-04-07T16:02:19.636Z</time></trkpt><trkpt lat="45.103634" lon="11.8345279"><ele>2.0</ele><time>2026-04-07T16:02:20.608Z</time></trkpt><trkpt lat="45.1035191" lon="11.8344684"><ele>2.0</ele><time>2026-04-07T16:02:21.635Z</time></trkpt><trkpt lat="45.1034175" lon="11.8344291"><ele>2.0</ele><time>2026-04-07T16:02:22.604Z</time></trkpt><trkpt lat="45.1032942" lon="11.8343997"><ele>2.0</ele><time>2026-04-07T16:02:23.608Z</time></trkpt><trkpt lat="45.1032196" lon="11.8343615"><ele>2.0</ele><time>2026-04-07T16:02:24.622Z</time></trkpt><trkpt lat="45.1031566" lon="11.8342953"><ele>2.0</ele><time>2026-04-07T16:02:26.611Z</time></trkpt><trkpt lat="45.1030954" lon="11.8342701"><ele>2.1666666666666665</ele><time>2026-04-07T16:02:28.61Z</time></trkpt><trkpt lat="45.1029923" lon="11.8342393"><ele>2.333333333333333</ele><time>2026-04-07T16:02:30.613Z</time></trkpt><trkpt lat="45.1029314" lon="11.834216"><ele>2.5</ele><time>2026-04-07T16:02:31.617Z</time></trkpt><trkpt lat="45.1028664" lon="11.8341866"><ele>2.6666666666666665</ele><time>2026-04-07T16:02:32.628Z</time></trkpt><trkpt lat="45.1027879" lon="11.8341454"><ele>2.8333333333333335</ele><time>2026-04-07T16:02:33.615Z</time></trkpt><trkpt lat="45.1027014" lon="11.8340994"><ele>3.0</ele><time>2026-04-07T16:02:34.606Z</time></trkpt><trkpt lat="45.1026134" lon="11.8340471"><ele>3.0</ele><time>2026-04-07T16:02:35.607Z</time></trkpt><trkpt lat="45.1025235" lon="11.8339787"><ele>3.0</ele><time>2026-04-07T16:02:36.625Z</time></trkpt><trkpt lat="45.1024118" lon="11.8338867"><ele>3.0</ele><time>2026-04-07T16:02:37.608Z</time></trkpt><trkpt lat="45.1022848" lon="11.8337761"><ele>3.0</ele><time>2026-04-07T16:02:38.608Z</time></trkpt><trkpt lat="45.1021409" lon="11.8336709"><ele>3.0</ele><time>2026-04-07T16:02:39.608Z</time></trkpt><trkpt lat="45.1019929" lon="11.8335558"><ele>3.0</ele><time>2026-04-07T16:02:40.605Z</time></trkpt><trkpt lat="45.1018549" lon="11.8334045"><ele>3.0</ele><time>2026-04-07T16:02:41.611Z</time></trkpt><trkpt lat="45.1017415" lon="11.8332539"><ele>3.25</ele><time>2026-04-07T16:02:42.606Z</time></trkpt><trkpt lat="45.1016494" lon="11.8331233"><ele>3.5</ele><time>2026-04-07T16:02:43.605Z</time></trkpt><trkpt lat="45.1015346" lon="11.8329759"><ele>3.75</ele><time>2026-04-07T16:02:44.601Z</time></trkpt><trkpt lat="45.1014079" lon="11.8328387"><ele>4.0</ele><time>2026-04-07T16:02:45.601Z</time></trkpt><trkpt lat="45.1012393" lon="11.832719"><ele>4.0</ele><time>2026-04-07T16:02:46.61Z</time></trkpt><trkpt lat="45.1010629" lon="11.8325939"><ele>4.0</ele><time>2026-04-07T16:02:47.598Z</time></trkpt><trkpt lat="45.1009039" lon="11.8325034"><ele>4.0</ele><time>2026-04-07T16:02:48.612Z</time></trkpt><trkpt lat="45.10075" lon="11.8324304"><ele>3.6666666666666665</ele><time>2026-04-07T16:02:49.602Z</time></trkpt><trkpt lat="45.100601" lon="11.832364"><ele>3.333333333333333</ele><time>2026-04-07T16:02:50.597Z</time></trkpt><trkpt lat="45.1004592" lon="11.8323133"><ele>3.0</ele><time>2026-04-07T16:02:51.613Z</time></trkpt><trkpt lat="45.1003156" lon="11.8322591"><ele>3.0</ele><time>2026-04-07T16:02:52.611Z</time></trkpt><trkpt lat="45.1001768" lon="11.8322174"><ele>3.0</ele><time>2026-04-07T16:02:53.61Z</time></trkpt><trkpt lat="45.1000521" lon="11.8321541"><ele>3.0</ele><time>2026-04-07T16:02:54.606Z</time></trkpt><trkpt lat="45.0999352" lon="11.8321151"><ele>3.0</ele><time>2026-04-07T16:02:55.63Z</time></trkpt><trkpt lat="45.0998105" lon="11.8320775"><ele>3.0</ele><time>2026-04-07T16:02:56.634Z</time></trkpt><trkpt lat="45.0996891" lon="11.8320117"><ele>3.0</ele><time>2026-04-07T16:02:57.605Z</time></trkpt><trkpt lat="45.0995438" lon="11.8319593"><ele>3.0</ele><time>2026-04-07T16:02:58.611Z</time></trkpt><trkpt lat="45.0993911" lon="11.8319069"><ele>3.0</ele><time>2026-04-07T16:02:59.609Z</time></trkpt><trkpt lat="45.0992383" lon="11.8318801"><ele>3.0</ele><time>2026-04-07T16:03:00.608Z</time></trkpt><trkpt lat="45.0991051" lon="11.8318378"><ele>3.0</ele><time>2026-04-07T16:03:01.615Z</time></trkpt><trkpt lat="45.098958" lon="11.831798"><ele>3.0</ele><time>2026-04-07T16:03:02.603Z</time></trkpt><trkpt lat="45.0988195" lon="11.83176"><ele>3.0</ele><time>2026-04-07T16:03:03.61Z</time></trkpt><trkpt lat="45.098695" lon="11.8317162"><ele>3.333333333333333</ele><time>2026-04-07T16:03:04.605Z</time></trkpt><trkpt lat="45.0985579" lon="11.8317098"><ele>3.6666666666666665</ele><time>2026-04-07T16:03:05.599Z</time></trkpt><trkpt lat="45.0983683" lon="11.8316995"><ele>4.0</ele><time>2026-04-07T16:03:06.603Z</time></trkpt><trkpt lat="45.0981603" lon="11.8316882"><ele>4.0</ele><time>2026-04-07T16:03:07.628Z</time></trkpt><trkpt lat="45.097971" lon="11.8316454"><ele>4.0</ele><time>2026-04-07T16:03:08.627Z</time></trkpt><trkpt lat="45.097787" lon="11.8316046"><ele>4.0</ele><time>2026-04-07T16:03:09.622Z</time></trkpt><trkpt lat="45.0976323" lon="11.8315968"><ele>4.0</ele><time>2026-04-07T16:03:10.584Z</time></trkpt><trkpt lat="45.0975017" lon="11.8315899"><ele>4.0</ele><time>2026-04-07T16:03:11.588Z</time></trkpt><trkpt lat="45.0973637" lon="11.8315712"><ele>4.0</ele><time>2026-04-07T16:03:12.606Z</time></trkpt><trkpt lat="45.097221" lon="11.8315525"><ele>4.0</ele><time>2026-04-07T16:03:13.609Z</time></trkpt><trkpt lat="45.0970208" lon="11.8315459"><ele>4.0</ele><time>2026-04-07T16:03:14.587Z</time></trkpt><trkpt lat="45.0968302" lon="11.8315258"><ele>4.0</ele><time>2026-04-07T16:03:15.609Z</time></trkpt><trkpt lat="45.0966297" lon="11.8315187"><ele>4.0</ele><time>2026-04-07T16:03:16.611Z</time></trkpt><trkpt lat="45.0964391" lon="11.8314925"><ele>4.0</ele><time>2026-04-07T16:03:17.611Z</time></trkpt><trkpt lat="45.0962444" lon="11.8314763"><ele>4.0</ele><time>2026-04-07T16:03:18.601Z</time></trkpt><trkpt lat="45.0960284" lon="11.8314385"><ele>4.0</ele><time>2026-04-07T16:03:19.608Z</time></trkpt><trkpt lat="45.0957979" lon="11.83138"><ele>3.0</ele><time>2026-04-07T16:03:20.634Z</time></trkpt><trkpt lat="45.0955605" lon="11.8313341"><ele>2.0</ele><time>2026-04-07T16:03:21.632Z</time></trkpt><trkpt lat="45.0953342" lon="11.8312892"><ele>2.0</ele><time>2026-04-07T16:03:22.603Z</time></trkpt><trkpt lat="45.0951438" lon="11.8312569"><ele>2.0</ele><time>2026-04-07T16:03:23.577Z</time></trkpt><trkpt lat="45.094962" lon="11.8312588"><ele>2.0</ele><time>2026-04-07T16:03:24.599Z</time></trkpt><trkpt lat="45.0947551" lon="11.8313069"><ele>1.3333333333333333</ele><time>2026-04-07T16:03:25.598Z</time></trkpt><trkpt lat="45.0945435" lon="11.831347"><ele>0.6666666666666666</ele><time>2026-04-07T16:03:26.579Z</time></trkpt><trkpt lat="45.0943321" lon="11.8313915"><ele>0.0</ele><time>2026-04-07T16:03:27.605Z</time></trkpt><trkpt lat="45.0941327" lon="11.8314352"><ele>0.0</ele><time>2026-04-07T16:03:28.603Z</time></trkpt><trkpt lat="45.0939486" lon="11.8314594"><ele>0.0</ele><time>2026-04-07T16:03:29.608Z</time></trkpt><trkpt lat="45.0937677" lon="11.8314882"><ele>0.0</ele><time>2026-04-07T16:03:30.6Z</time></trkpt><trkpt lat="45.0935929" lon="11.8315271"><ele>0.0</ele><time>2026-04-07T16:03:31.604Z</time></trkpt><trkpt lat="45.0934155" lon="11.8315578"><ele>0.0</ele><time>2026-04-07T16:03:32.608Z</time></trkpt><trkpt lat="45.0932322" lon="11.8316126"><ele>0.0</ele><time>2026-04-07T16:03:33.606Z</time></trkpt><trkpt lat="45.0930558" lon="11.831695"><ele>0.3333333333333333</ele><time>2026-04-07T16:03:34.602Z</time></trkpt><trkpt lat="45.0928741" lon="11.8318021"><ele>0.6666666666666666</ele><time>2026-04-07T16:03:35.602Z</time></trkpt><trkpt lat="45.0927161" lon="11.8319009"><ele>1.0</ele><time>2026-04-07T16:03:36.597Z</time></trkpt><trkpt lat="45.0925672" lon="11.8320197"><ele>1.6666666666666665</ele><time>2026-04-07T16:03:37.602Z</time></trkpt><trkpt lat="45.092405" lon="11.8321279"><ele>2.3333333333333335</ele><time>2026-04-07T16:03:38.575Z</time></trkpt><trkpt lat="45.0922472" lon="11.8321878"><ele>3.0</ele><time>2026-04-07T16:03:39.601Z</time></trkpt><trkpt lat="45.092082" lon="11.8322212"><ele>3.0</ele><time>2026-04-07T16:03:40.6Z</time></trkpt><trkpt lat="45.0918947" lon="11.832236"><ele>3.0</ele><time>2026-04-07T16:03:41.602Z</time></trkpt><trkpt lat="45.0917072" lon="11.8322239"><ele>3.0</ele><time>2026-04-07T16:03:42.607Z</time></trkpt><trkpt lat="45.0915026" lon="11.8321651"><ele>3.0</ele><time>2026-04-07T16:03:43.602Z</time></trkpt><trkpt lat="45.0912859" lon="11.8320867"><ele>3.0</ele><time>2026-04-07T16:03:44.607Z</time></trkpt><trkpt lat="45.0910658" lon="11.8320199"><ele>3.0</ele><time>2026-04-07T16:03:45.601Z</time></trkpt><trkpt lat="45.0908296" lon="11.8319454"><ele>3.0</ele><time>2026-04-07T16:03:46.606Z</time></trkpt><trkpt lat="45.0906048" lon="11.8318691"><ele>3.0</ele><time>2026-04-07T16:03:47.607Z</time></trkpt><trkpt lat="45.0903881" lon="11.8318004"><ele>2.5</ele><time>2026-04-07T16:03:48.615Z</time></trkpt><trkpt lat="45.0901787" lon="11.8317321"><ele>2.0</ele><time>2026-04-07T16:03:49.607Z</time></trkpt><trkpt lat="45.0899467" lon="11.8316529"><ele>2.5</ele><time>2026-04-07T16:03:50.607Z</time></trkpt><trkpt lat="45.0897203" lon="11.8315902"><ele>3.0</ele><time>2026-04-07T16:03:51.609Z</time></trkpt><trkpt lat="45.0894916" lon="11.8315332"><ele>3.0</ele><time>2026-04-07T16:03:52.613Z</time></trkpt><trkpt lat="45.089262" lon="11.8314801"><ele>3.0</ele><time>2026-04-07T16:03:53.609Z</time></trkpt><trkpt lat="45.0890189" lon="11.8314173"><ele>3.0</ele><time>2026-04-07T16:03:54.602Z</time></trkpt><trkpt lat="45.0887729" lon="11.8313431"><ele>3.0</ele><time>2026-04-07T16:03:55.616Z</time></trkpt><trkpt lat="45.0885062" lon="11.8312942"><ele>3.0</ele><time>2026-04-07T16:03:56.608Z</time></trkpt><trkpt lat="45.0882349" lon="11.8312548"><ele>3.0</ele><time>2026-04-07T16:03:57.582Z</time></trkpt><trkpt lat="45.087975" lon="11.8312023"><ele>3.0</ele><time>2026-04-07T16:03:58.584Z</time></trkpt><trkpt lat="45.0877502" lon="11.8311227"><ele>3.0</ele><time>2026-04-07T16:03:59.605Z</time></trkpt><trkpt lat="45.0875256" lon="11.8310394"><ele>4.0</ele><time>2026-04-07T16:04:00.611Z</time></trkpt><trkpt lat="45.0873052" lon="11.8309585"><ele>5.0</ele><time>2026-04-07T16:04:01.614Z</time></trkpt><trkpt lat="45.0870614" lon="11.8308722"><ele>5.0</ele><time>2026-04-07T16:04:02.612Z</time></trkpt><trkpt lat="45.086828" lon="11.830771"><ele>5.0</ele><time>2026-04-07T16:04:03.606Z</time></trkpt><trkpt lat="45.0865888" lon="11.8306694"><ele>4.5</ele><time>2026-04-07T16:04:04.602Z</time></trkpt><trkpt lat="45.0863599" lon="11.8305857"><ele>4.0</ele><time>2026-04-07T16:04:05.604Z</time></trkpt><trkpt lat="45.0861483" lon="11.8305124"><ele>4.0</ele><time>2026-04-07T16:04:06.58Z</time></trkpt><trkpt lat="45.0859473" lon="11.8304486"><ele>4.0</ele><time>2026-04-07T16:04:07.583Z</time></trkpt><trkpt lat="45.085769" lon="11.8303743"><ele>4.0</ele><time>2026-04-07T16:04:08.577Z</time></trkpt><trkpt lat="45.0856022" lon="11.8303161"><ele>3.6666666666666665</ele><time>2026-04-07T16:04:09.58Z</time></trkpt><trkpt lat="45.0854375" lon="11.8302623"><ele>3.333333333333333</ele><time>2026-04-07T16:04:10.578Z</time></trkpt><trkpt lat="45.0852846" lon="11.8302048"><ele>3.0</ele><time>2026-04-07T16:04:11.582Z</time></trkpt><trkpt lat="45.0851412" lon="11.8301491"><ele>3.0</ele><time>2026-04-07T16:04:12.575Z</time></trkpt><trkpt lat="45.0849931" lon="11.8300916"><ele>3.0</ele><time>2026-04-07T16:04:13.58Z</time></trkpt><trkpt lat="45.0848511" lon="11.8300216"><ele>3.0</ele><time>2026-04-07T16:04:14.573Z</time></trkpt><trkpt lat="45.0847238" lon="11.8299568"><ele>3.0</ele><time>2026-04-07T16:04:15.581Z</time></trkpt><trkpt lat="45.0846029" lon="11.8298716"><ele>3.0</ele><time>2026-04-07T16:04:16.584Z</time></trkpt><trkpt lat="45.0844903" lon="11.8298027"><ele>3.0</ele><time>2026-04-07T16:04:17.581Z</time></trkpt><trkpt lat="45.0843675" lon="11.8297228"><ele>3.0</ele><time>2026-04-07T16:04:18.584Z</time></trkpt><trkpt lat="45.0842372" lon="11.8296088"><ele>3.0</ele><time>2026-04-07T16:04:19.586Z</time></trkpt><trkpt lat="45.0840996" lon="11.829515"><ele>3.0</ele><time>2026-04-07T16:04:20.578Z</time></trkpt><trkpt lat="45.0839634" lon="11.8294185"><ele>3.0</ele><time>2026-04-07T16:04:21.587Z</time></trkpt><trkpt lat="45.0838128" lon="11.8293286"><ele>3.0</ele><time>2026-04-07T16:04:22.581Z</time></trkpt><trkpt lat="45.0836549" lon="11.8292203"><ele>3.666666666666667</ele><time>2026-04-07T16:04:23.577Z</time></trkpt><trkpt lat="45.0835236" lon="11.8290957"><ele>4.333333333333334</ele><time>2026-04-07T16:04:24.585Z</time></trkpt><trkpt lat="45.0833833" lon="11.828978"><ele>5.0</ele><time>2026-04-07T16:04:25.59Z</time></trkpt><trkpt lat="45.0832406" lon="11.8288611"><ele>5.0</ele><time>2026-04-07T16:04:26.586Z</time></trkpt><trkpt lat="45.0830854" lon="11.8287514"><ele>5.0</ele><time>2026-04-07T16:04:27.57Z</time></trkpt><trkpt lat="45.082928" lon="11.8286706"><ele>5.0</ele><time>2026-04-07T16:04:28.579Z</time></trkpt><trkpt lat="45.0828025" lon="11.8285597"><ele>5.0</ele><time>2026-04-07T16:04:29.587Z</time></trkpt><trkpt lat="45.0826833" lon="11.8284849"><ele>5.0</ele><time>2026-04-07T16:04:30.584Z</time></trkpt><trkpt lat="45.0825439" lon="11.828422"><ele>5.0</ele><time>2026-04-07T16:04:31.584Z</time></trkpt><trkpt lat="45.0824002" lon="11.8283256"><ele>5.0</ele><time>2026-04-07T16:04:32.59Z</time></trkpt><trkpt lat="45.082254" lon="11.8282408"><ele>4.333333333333334</ele><time>2026-04-07T16:04:33.582Z</time></trkpt><trkpt lat="45.0820867" lon="11.8281593"><ele>3.666666666666667</ele><time>2026-04-07T16:04:34.581Z</time></trkpt><trkpt lat="45.0819274" lon="11.828039"><ele>3.0</ele><time>2026-04-07T16:04:35.584Z</time></trkpt><trkpt lat="45.0817635" lon="11.8279157"><ele>3.333333333333333</ele><time>2026-04-07T16:04:36.588Z</time></trkpt><trkpt lat="45.0815838" lon="11.8278005"><ele>3.6666666666666665</ele><time>2026-04-07T16:04:37.586Z</time></trkpt><trkpt lat="45.0814046" lon="11.8276993"><ele>4.0</ele><time>2026-04-07T16:04:38.586Z</time></trkpt><trkpt lat="45.0812385" lon="11.8276132"><ele>4.333333333333333</ele><time>2026-04-07T16:04:39.585Z</time></trkpt><trkpt lat="45.0811067" lon="11.8274886"><ele>4.666666666666667</ele><time>2026-04-07T16:04:40.587Z</time></trkpt><trkpt lat="45.0809734" lon="11.8273641"><ele>5.0</ele><time>2026-04-07T16:04:41.586Z</time></trkpt><trkpt lat="45.0807924" lon="11.8272782"><ele>5.0</ele><time>2026-04-07T16:04:42.584Z</time></trkpt><trkpt lat="45.0806266" lon="11.8271909"><ele>5.0</ele><time>2026-04-07T16:04:43.585Z</time></trkpt><trkpt lat="45.0804577" lon="11.8270782"><ele>5.0</ele><time>2026-04-07T16:04:44.583Z</time></trkpt><trkpt lat="45.0802708" lon="11.8269671"><ele>5.0</ele><time>2026-04-07T16:04:45.577Z</time></trkpt><trkpt lat="45.0800963" lon="11.8268713"><ele>5.0</ele><time>2026-04-07T16:04:46.583Z</time></trkpt><trkpt lat="45.0799199" lon="11.8267797"><ele>5.0</ele><time>2026-04-07T16:04:47.581Z</time></trkpt><trkpt lat="45.0797399" lon="11.8266726"><ele>4.666666666666667</ele><time>2026-04-07T16:04:48.584Z</time></trkpt><trkpt lat="45.0795506" lon="11.8265505"><ele>4.333333333333333</ele><time>2026-04-07T16:04:49.604Z</time></trkpt><trkpt lat="45.0793444" lon="11.8264333"><ele>4.0</ele><time>2026-04-07T16:04:50.609Z</time></trkpt><trkpt lat="45.0791302" lon="11.8263298"><ele>3.6666666666666665</ele><time>2026-04-07T16:04:51.604Z</time></trkpt><trkpt lat="45.0789515" lon="11.8262257"><ele>3.333333333333333</ele><time>2026-04-07T16:04:52.583Z</time></trkpt><trkpt lat="45.0787801" lon="11.826107"><ele>3.0</ele><time>2026-04-07T16:04:53.605Z</time></trkpt><trkpt lat="45.0786363" lon="11.8260038"><ele>3.0</ele><time>2026-04-07T16:04:54.576Z</time></trkpt><trkpt lat="45.0784909" lon="11.8259115"><ele>3.0</ele><time>2026-04-07T16:04:55.581Z</time></trkpt><trkpt lat="45.0783535" lon="11.825808"><ele>3.0</ele><time>2026-04-07T16:04:56.58Z</time></trkpt><trkpt lat="45.0782316" lon="11.825692"><ele>2.6666666666666665</ele><time>2026-04-07T16:04:57.572Z</time></trkpt><trkpt lat="45.0781114" lon="11.8255541"><ele>2.333333333333333</ele><time>2026-04-07T16:04:58.578Z</time></trkpt><trkpt lat="45.0779899" lon="11.8254078"><ele>2.0</ele><time>2026-04-07T16:04:59.573Z</time></trkpt><trkpt lat="45.0778667" lon="11.8252405"><ele>2.0</ele><time>2026-04-07T16:05:00.576Z</time></trkpt><trkpt lat="45.0777199" lon="11.82505"><ele>2.0</ele><time>2026-04-07T16:05:01.578Z</time></trkpt><trkpt lat="45.0775987" lon="11.8248976"><ele>2.0</ele><time>2026-04-07T16:05:02.576Z</time></trkpt><trkpt lat="45.077507" lon="11.8247339"><ele>2.0</ele><time>2026-04-07T16:05:03.582Z</time></trkpt><trkpt lat="45.0774106" lon="11.8245834"><ele>2.0</ele><time>2026-04-07T16:05:04.583Z</time></trkpt><trkpt lat="45.0773077" lon="11.8244178"><ele>2.0</ele><time>2026-04-07T16:05:05.572Z</time></trkpt><trkpt lat="45.0771943" lon="11.8242741"><ele>2.0</ele><time>2026-04-07T16:05:06.582Z</time></trkpt><trkpt lat="45.0770998" lon="11.8241262"><ele>2.0</ele><time>2026-04-07T16:05:07.58Z</time></trkpt><trkpt lat="45.077011" lon="11.8239948"><ele>2.0</ele><time>2026-04-07T16:05:08.58Z</time></trkpt><trkpt lat="45.0769189" lon="11.8238763"><ele>2.0</ele><time>2026-04-07T16:05:09.577Z</time></trkpt><trkpt lat="45.0768232" lon="11.8237578"><ele>2.0</ele><time>2026-04-07T16:05:10.584Z</time></trkpt><trkpt lat="45.0767348" lon="11.8236181"><ele>2.0</ele><time>2026-04-07T16:05:11.585Z</time></trkpt><trkpt lat="45.0766608" lon="11.8234861"><ele>2.0</ele><time>2026-04-07T16:05:12.582Z</time></trkpt><trkpt lat="45.0765765" lon="11.8233652"><ele>2.0</ele><time>2026-04-07T16:05:13.574Z</time></trkpt><trkpt lat="45.0764922" lon="11.8232557"><ele>2.2</ele><time>2026-04-07T16:05:14.576Z</time></trkpt><trkpt lat="45.0764212" lon="11.823146"><ele>2.4000000000000004</ele><time>2026-04-07T16:05:15.585Z</time></trkpt><trkpt lat="45.0763623" lon="11.8230501"><ele>2.5999999999999996</ele><time>2026-04-07T16:05:16.59Z</time></trkpt><trkpt lat="45.0763001" lon="11.8229664"><ele>2.8</ele><time>2026-04-07T16:05:17.587Z</time></trkpt><trkpt lat="45.0762291" lon="11.8228747"><ele>3.0</ele><time>2026-04-07T16:05:18.581Z</time></trkpt><trkpt lat="45.0761622" lon="11.8227661"><ele>3.0</ele><time>2026-04-07T16:05:19.584Z</time></trkpt><trkpt lat="45.0761053" lon="11.8226677"><ele>3.0</ele><time>2026-04-07T16:05:20.577Z</time></trkpt><trkpt lat="45.0760419" lon="11.8225812"><ele>3.0</ele><time>2026-04-07T16:05:21.581Z</time></trkpt><trkpt lat="45.0759828" lon="11.8224982"><ele>3.0</ele><time>2026-04-07T16:05:22.583Z</time></trkpt><trkpt lat="45.075922" lon="11.8223993"><ele>3.0</ele><time>2026-04-07T16:05:23.573Z</time></trkpt><trkpt lat="45.0758683" lon="11.8222836"><ele>3.0</ele><time>2026-04-07T16:05:24.576Z</time></trkpt><trkpt lat="45.0758379" lon="11.8221842"><ele>3.0</ele><time>2026-04-07T16:05:25.571Z</time></trkpt><trkpt lat="45.0758245" lon="11.8220913"><ele>3.0</ele><time>2026-04-07T16:05:26.601Z</time></trkpt><trkpt lat="45.0757981" lon="11.822003"><ele>3.0</ele><time>2026-04-07T16:05:27.578Z</time></trkpt><trkpt lat="45.0757135" lon="11.8218884"><ele>3.0</ele><time>2026-04-07T16:05:29.58Z</time></trkpt><trkpt lat="45.0756329" lon="11.8217696"><ele>3.0</ele><time>2026-04-07T16:05:31.581Z</time></trkpt><trkpt lat="45.075593" lon="11.8216706"><ele>2.6666666666666665</ele><time>2026-04-07T16:05:32.577Z</time></trkpt><trkpt lat="45.0755463" lon="11.8215711"><ele>2.3333333333333335</ele><time>2026-04-07T16:05:33.58Z</time></trkpt><trkpt lat="45.0754902" lon="11.8214874"><ele>2.0</ele><time>2026-04-07T16:05:34.585Z</time></trkpt><trkpt lat="45.0754304" lon="11.8214035"><ele>1.6666666666666665</ele><time>2026-04-07T16:05:35.576Z</time></trkpt><trkpt lat="45.0753782" lon="11.8213031"><ele>1.3333333333333333</ele><time>2026-04-07T16:05:36.574Z</time></trkpt><trkpt lat="45.075342" lon="11.8211783"><ele>1.0</ele><time>2026-04-07T16:05:37.598Z</time></trkpt><trkpt lat="45.0753016" lon="11.8210327"><ele>0.75</ele><time>2026-04-07T16:05:38.601Z</time></trkpt><trkpt lat="45.0752642" lon="11.8208809"><ele>0.5</ele><time>2026-04-07T16:05:39.608Z</time></trkpt><trkpt lat="45.0752256" lon="11.8207302"><ele>0.25</ele><time>2026-04-07T16:05:40.6Z</time></trkpt><trkpt lat="45.0751867" lon="11.820582"><ele>0.0</ele><time>2026-04-07T16:05:41.605Z</time></trkpt><trkpt lat="45.0751416" lon="11.8204288"><ele>0.0</ele><time>2026-04-07T16:05:42.604Z</time></trkpt><trkpt lat="45.0751" lon="11.8202704"><ele>0.0</ele><time>2026-04-07T16:05:43.609Z</time></trkpt><trkpt lat="45.0750597" lon="11.8201088"><ele>0.0</ele><time>2026-04-07T16:05:44.6Z</time></trkpt><trkpt lat="45.0750102" lon="11.8199515"><ele>0.0</ele><time>2026-04-07T16:05:45.593Z</time></trkpt><trkpt lat="45.0749566" lon="11.8197607"><ele>0.6666666666666666</ele><time>2026-04-07T16:05:46.59Z</time></trkpt><trkpt lat="45.0749126" lon="11.8195104"><ele>1.3333333333333333</ele><time>2026-04-07T16:05:47.584Z</time></trkpt><trkpt lat="45.0748772" lon="11.8192491"><ele>2.0</ele><time>2026-04-07T16:05:48.59Z</time></trkpt><trkpt lat="45.0748291" lon="11.8189875"><ele>2.6666666666666665</ele><time>2026-04-07T16:05:49.568Z</time></trkpt><trkpt lat="45.0747731" lon="11.8187179"><ele>3.333333333333333</ele><time>2026-04-07T16:05:50.593Z</time></trkpt><trkpt lat="45.0747364" lon="11.818479"><ele>4.0</ele><time>2026-04-07T16:05:51.569Z</time></trkpt><trkpt lat="45.0746716" lon="11.8181971"><ele>4.0</ele><time>2026-04-07T16:05:52.577Z</time></trkpt><trkpt lat="45.074616" lon="11.8179139"><ele>4.0</ele><time>2026-04-07T16:05:53.573Z</time></trkpt><trkpt lat="45.0745513" lon="11.817619"><ele>4.0</ele><time>2026-04-07T16:05:54.596Z</time></trkpt><trkpt lat="45.0744893" lon="11.817342"><ele>4.0</ele><time>2026-04-07T16:05:55.572Z</time></trkpt><trkpt lat="45.0744434" lon="11.8170697"><ele>4.0</ele><time>2026-04-07T16:05:56.573Z</time></trkpt><trkpt lat="45.0744308" lon="11.8168171"><ele>4.0</ele><time>2026-04-07T16:05:57.574Z</time></trkpt><trkpt lat="45.07438" lon="11.8165811"><ele>4.0</ele><time>2026-04-07T16:05:58.6Z</time></trkpt><trkpt lat="45.0743409" lon="11.8163791"><ele>4.0</ele><time>2026-04-07T16:05:59.623Z</time></trkpt><trkpt lat="45.0743211" lon="11.8161156"><ele>4.0</ele><time>2026-04-07T16:06:00.615Z</time></trkpt><trkpt lat="45.0743139" lon="11.8158693"><ele>4.333333333333333</ele><time>2026-04-07T16:06:01.592Z</time></trkpt><trkpt lat="45.0743002" lon="11.8156388"><ele>4.666666666666667</ele><time>2026-04-07T16:06:02.593Z</time></trkpt><trkpt lat="45.074307" lon="11.8154056"><ele>5.0</ele><time>2026-04-07T16:06:03.594Z</time></trkpt><trkpt lat="45.0743441" lon="11.8150633"><ele>5.0</ele><time>2026-04-07T16:06:04.612Z</time></trkpt><trkpt lat="45.0743775" lon="11.8147635"><ele>5.0</ele><time>2026-04-07T16:06:05.616Z</time></trkpt><trkpt lat="45.0744186" lon="11.8145097"><ele>5.0</ele><time>2026-04-07T16:06:06.615Z</time></trkpt><trkpt lat="45.0744542" lon="11.8142682"><ele>5.0</ele><time>2026-04-07T16:06:07.617Z</time></trkpt><trkpt lat="45.0744968" lon="11.8140228"><ele>5.0</ele><time>2026-04-07T16:06:08.621Z</time></trkpt><trkpt lat="45.0745421" lon="11.813805"><ele>5.0</ele><time>2026-04-07T16:06:09.626Z</time></trkpt><trkpt lat="45.074574" lon="11.813631"><ele>5.25</ele><time>2026-04-07T16:06:10.622Z</time></trkpt><trkpt lat="45.0746007" lon="11.81345"><ele>5.5</ele><time>2026-04-07T16:06:11.626Z</time></trkpt><trkpt lat="45.074628" lon="11.8132588"><ele>5.75</ele><time>2026-04-07T16:06:12.6Z</time></trkpt><trkpt lat="45.0746532" lon="11.8130818"><ele>6.0</ele><time>2026-04-07T16:06:13.596Z</time></trkpt><trkpt lat="45.0746749" lon="11.8128908"><ele>6.0</ele><time>2026-04-07T16:06:14.603Z</time></trkpt><trkpt lat="45.0747139" lon="11.8127263"><ele>6.0</ele><time>2026-04-07T16:06:15.624Z</time></trkpt><trkpt lat="45.0747233" lon="11.8126106"><ele>6.0</ele><time>2026-04-07T16:06:16.577Z</time></trkpt><trkpt lat="45.0747233" lon="11.8125148"><ele>6.0</ele><time>2026-04-07T16:06:17.579Z</time></trkpt><trkpt lat="45.0746925" lon="11.8124093"><ele>6.0</ele><time>2026-04-07T16:06:18.6Z</time></trkpt><trkpt lat="45.0746711" lon="11.8123235"><ele>6.0</ele><time>2026-04-07T16:06:19.624Z</time></trkpt><trkpt lat="45.0746591" lon="11.8122207"><ele>5.333333333333333</ele><time>2026-04-07T16:06:21.604Z</time></trkpt><trkpt lat="45.0746752" lon="11.8121025"><ele>4.666666666666667</ele><time>2026-04-07T16:06:24.614Z</time></trkpt><trkpt lat="45.0747187" lon="11.8119686"><ele>4.0</ele><time>2026-04-07T16:06:26.619Z</time></trkpt><trkpt lat="45.0747453" lon="11.8118719"><ele>3.333333333333333</ele><time>2026-04-07T16:06:27.595Z</time></trkpt><trkpt lat="45.0747732" lon="11.8117868"><ele>2.6666666666666665</ele><time>2026-04-07T16:06:28.588Z</time></trkpt><trkpt lat="45.0747856" lon="11.8116904"><ele>2.0</ele><time>2026-04-07T16:06:29.599Z</time></trkpt><trkpt lat="45.074805" lon="11.8115973"><ele>2.0</ele><time>2026-04-07T16:06:30.625Z</time></trkpt><trkpt lat="45.0748438" lon="11.8114933"><ele>2.0</ele><time>2026-04-07T16:06:31.623Z</time></trkpt><trkpt lat="45.0749185" lon="11.8113915"><ele>2.0</ele><time>2026-04-07T16:06:32.62Z</time></trkpt><trkpt lat="45.0749938" lon="11.8112886"><ele>2.0</ele><time>2026-04-07T16:06:33.614Z</time></trkpt><trkpt lat="45.0750669" lon="11.8111862"><ele>2.0</ele><time>2026-04-07T16:06:34.601Z</time></trkpt><trkpt lat="45.0751292" lon="11.8110839"><ele>2.6666666666666665</ele><time>2026-04-07T16:06:35.74Z</time></trkpt><trkpt lat="45.0752468" lon="11.8108057"><ele>3.333333333333333</ele><time>2026-04-07T16:06:37.592Z</time></trkpt><trkpt lat="45.0752971" lon="11.8106262"><ele>4.0</ele><time>2026-04-07T16:06:38.591Z</time></trkpt><trkpt lat="45.0753349" lon="11.8104024"><ele>4.0</ele><time>2026-04-07T16:06:39.589Z</time></trkpt><trkpt lat="45.0753919" lon="11.8101145"><ele>4.0</ele><time>2026-04-07T16:06:40.592Z</time></trkpt><trkpt lat="45.0754239" lon="11.8098217"><ele>4.0</ele><time>2026-04-07T16:06:41.593Z</time></trkpt><trkpt lat="45.0754493" lon="11.8095716"><ele>4.0</ele><time>2026-04-07T16:06:42.599Z</time></trkpt><trkpt lat="45.0754597" lon="11.8093389"><ele>4.0</ele><time>2026-04-07T16:06:43.596Z</time></trkpt><trkpt lat="45.0754766" lon="11.8090832"><ele>4.0</ele><time>2026-04-07T16:06:44.597Z</time></trkpt><trkpt lat="45.0754954" lon="11.8088568"><ele>3.8000000000000003</ele><time>2026-04-07T16:06:45.62Z</time></trkpt><trkpt lat="45.0754884" lon="11.8087036"><ele>3.6000000000000005</ele><time>2026-04-07T16:06:46.628Z</time></trkpt><trkpt lat="45.0755181" lon="11.8085963"><ele>3.4</ele><time>2026-04-07T16:06:47.626Z</time></trkpt><trkpt lat="45.0755694" lon="11.8085182"><ele>3.2</ele><time>2026-04-07T16:06:48.614Z</time></trkpt><trkpt lat="45.075681" lon="11.8084251"><ele>3.0</ele><time>2026-04-07T16:06:49.625Z</time></trkpt><trkpt lat="45.075806" lon="11.8083485"><ele>3.0</ele><time>2026-04-07T16:06:50.617Z</time></trkpt><trkpt lat="45.0759078" lon="11.8082713"><ele>3.0</ele><time>2026-04-07T16:06:51.615Z</time></trkpt><trkpt lat="45.0760201" lon="11.8081811"><ele>3.0</ele><time>2026-04-07T16:06:52.592Z</time></trkpt><trkpt lat="45.0760975" lon="11.8080649"><ele>3.0</ele><time>2026-04-07T16:06:53.592Z</time></trkpt><trkpt lat="45.0761444" lon="11.8079273"><ele>3.0</ele><time>2026-04-07T16:06:54.588Z</time></trkpt><trkpt lat="45.0761703" lon="11.8077896"><ele>3.0</ele><time>2026-04-07T16:06:55.592Z</time></trkpt><trkpt lat="45.0761736" lon="11.8076465"><ele>3.0</ele><time>2026-04-07T16:06:56.571Z</time></trkpt><trkpt lat="45.0761507" lon="11.8075002"><ele>3.0</ele><time>2026-04-07T16:06:57.575Z</time></trkpt><trkpt lat="45.0760856" lon="11.807384"><ele>3.0</ele><time>2026-04-07T16:06:58.577Z</time></trkpt><trkpt lat="45.0759932" lon="11.807301"><ele>3.25</ele><time>2026-04-07T16:06:59.601Z</time></trkpt><trkpt lat="45.0758843" lon="11.8072537"><ele>3.5</ele><time>2026-04-07T16:07:00.575Z</time></trkpt><trkpt lat="45.0757625" lon="11.8072615"><ele>3.75</ele><time>2026-04-07T16:07:01.596Z</time></trkpt><trkpt lat="45.0756372" lon="11.8073115"><ele>4.0</ele><time>2026-04-07T16:07:02.601Z</time></trkpt><trkpt lat="45.0754998" lon="11.8073964"><ele>3.333333333333333</ele><time>2026-04-07T16:07:03.601Z</time></trkpt><trkpt lat="45.0753497" lon="11.807488"><ele>2.6666666666666665</ele><time>2026-04-07T16:07:04.599Z</time></trkpt><trkpt lat="45.0751312" lon="11.8076035"><ele>2.0</ele><time>2026-04-07T16:07:05.6Z</time></trkpt><trkpt lat="45.0749226" lon="11.8076194"><ele>2.0</ele><time>2026-04-07T16:07:06.602Z</time></trkpt><trkpt lat="45.0746973" lon="11.8076054"><ele>2.0</ele><time>2026-04-07T16:07:07.595Z</time></trkpt><trkpt lat="45.074482" lon="11.807522"><ele>2.0</ele><time>2026-04-07T16:07:08.593Z</time></trkpt><trkpt lat="45.0742801" lon="11.8074448"><ele>2.333333333333333</ele><time>2026-04-07T16:07:09.597Z</time></trkpt><trkpt lat="45.074091" lon="11.8073946"><ele>2.6666666666666665</ele><time>2026-04-07T16:07:10.593Z</time></trkpt><trkpt lat="45.0738757" lon="11.8073421"><ele>3.0</ele><time>2026-04-07T16:07:11.595Z</time></trkpt><trkpt lat="45.0736714" lon="11.8073034"><ele>3.0</ele><time>2026-04-07T16:07:12.574Z</time></trkpt><trkpt lat="45.073428" lon="11.8072829"><ele>3.0</ele><time>2026-04-07T16:07:13.572Z</time></trkpt><trkpt lat="45.0731704" lon="11.8072543"><ele>3.0</ele><time>2026-04-07T16:07:14.573Z</time></trkpt><trkpt lat="45.072911" lon="11.807213"><ele>3.0</ele><time>2026-04-07T16:07:15.573Z</time></trkpt><trkpt lat="45.0726527" lon="11.8071503"><ele>2.5</ele><time>2026-04-07T16:07:16.601Z</time></trkpt><trkpt lat="45.0723543" lon="11.8070833"><ele>2.0</ele><time>2026-04-07T16:07:17.611Z</time></trkpt><trkpt lat="45.0720665" lon="11.8070081"><ele>2.0</ele><time>2026-04-07T16:07:18.607Z</time></trkpt><trkpt lat="45.0717993" lon="11.8069418"><ele>2.0</ele><time>2026-04-07T16:07:19.582Z</time></trkpt><trkpt lat="45.0715364" lon="11.8068845"><ele>1.0</ele><time>2026-04-07T16:07:20.58Z</time></trkpt><trkpt lat="45.0712877" lon="11.8068379"><ele>0.0</ele><time>2026-04-07T16:07:21.578Z</time></trkpt><trkpt lat="45.0710413" lon="11.8067667"><ele>0.0</ele><time>2026-04-07T16:07:22.576Z</time></trkpt><trkpt lat="45.0707992" lon="11.8067128"><ele>0.0</ele><time>2026-04-07T16:07:23.578Z</time></trkpt><trkpt lat="45.0705488" lon="11.8066621"><ele>0.0</ele><time>2026-04-07T16:07:24.577Z</time></trkpt><trkpt lat="45.0703001" lon="11.806599"><ele>0.0</ele><time>2026-04-07T16:07:25.577Z</time></trkpt><trkpt lat="45.0700289" lon="11.8065404"><ele>0.5</ele><time>2026-04-07T16:07:26.584Z</time></trkpt><trkpt lat="45.0697595" lon="11.8064973"><ele>1.0</ele><time>2026-04-07T16:07:27.576Z</time></trkpt><trkpt lat="45.0694766" lon="11.8064274"><ele>1.0</ele><time>2026-04-07T16:07:28.582Z</time></trkpt><trkpt lat="45.0691873" lon="11.8063671"><ele>1.0</ele><time>2026-04-07T16:07:29.577Z</time></trkpt><trkpt lat="45.0689092" lon="11.8062991"><ele>1.3333333333333333</ele><time>2026-04-07T16:07:30.579Z</time></trkpt><trkpt lat="45.0686898" lon="11.8062559"><ele>1.6666666666666665</ele><time>2026-04-07T16:07:31.574Z</time></trkpt><trkpt lat="45.0684799" lon="11.8062094"><ele>2.0</ele><time>2026-04-07T16:07:32.577Z</time></trkpt><trkpt lat="45.0682589" lon="11.8061618"><ele>2.0</ele><time>2026-04-07T16:07:33.578Z</time></trkpt><trkpt lat="45.0680467" lon="11.8060872"><ele>2.0</ele><time>2026-04-07T16:07:34.579Z</time></trkpt><trkpt lat="45.0678413" lon="11.8060403"><ele>2.0</ele><time>2026-04-07T16:07:35.581Z</time></trkpt><trkpt lat="45.0676629" lon="11.8059677"><ele>2.0</ele><time>2026-04-07T16:07:36.57Z</time></trkpt><trkpt lat="45.0674859" lon="11.8059177"><ele>2.0</ele><time>2026-04-07T16:07:37.576Z</time></trkpt><trkpt lat="45.0673238" lon="11.8058923"><ele>2.0</ele><time>2026-04-07T16:07:38.575Z</time></trkpt><trkpt lat="45.0671835" lon="11.8058584"><ele>2.0</ele><time>2026-04-07T16:07:39.576Z</time></trkpt><trkpt lat="45.0670781" lon="11.8058137"><ele>2.0</ele><time>2026-04-07T16:07:40.575Z</time></trkpt><trkpt lat="45.0670113" lon="11.805762"><ele>2.0</ele><time>2026-04-07T16:07:41.581Z</time></trkpt><trkpt lat="45.066942" lon="11.8057122"><ele>2.0</ele><time>2026-04-07T16:07:42.579Z</time></trkpt><trkpt lat="45.0668515" lon="11.8056119"><ele>2.0</ele><time>2026-04-07T16:07:44.576Z</time></trkpt><trkpt lat="45.0667768" lon="11.8055533"><ele>1.9999999999999998</ele><time>2026-04-07T16:07:46.579Z</time></trkpt><trkpt lat="45.0667124" lon="11.8055177"><ele>2.0</ele><time>2026-04-07T16:07:48.572Z</time></trkpt><trkpt lat="45.0666383" lon="11.8054863"><ele>2.0</ele><time>2026-04-07T16:07:51.573Z</time></trkpt><trkpt lat="45.066566" lon="11.8054399"><ele>2.0</ele><time>2026-04-07T16:08:15.567Z</time></trkpt><trkpt lat="45.06664" lon="11.80543"><ele>1.9999999999999998</ele><time>2026-04-07T16:09:35.724Z</time></trkpt><trkpt lat="45.0667095" lon="11.80545"><ele>2.0</ele><time>2026-04-07T16:09:50.729Z</time></trkpt><trkpt lat="45.0666139" lon="11.8055779"><ele>2.25</ele><time>2026-04-07T16:19:13.568Z</time></trkpt><trkpt lat="45.0665325" lon="11.8055903"><ele>2.5</ele><time>2026-04-07T16:19:14.575Z</time></trkpt><trkpt lat="45.0664421" lon="11.8056094"><ele>2.75</ele><time>2026-04-07T16:19:15.574Z</time></trkpt><trkpt lat="45.0662851" lon="11.8055804"><ele>3.0</ele><time>2026-04-07T16:19:16.579Z</time></trkpt><trkpt lat="45.0661101" lon="11.8055445"><ele>3.0</ele><time>2026-04-07T16:19:17.579Z</time></trkpt><trkpt lat="45.0659129" lon="11.8054793"><ele>3.0</ele><time>2026-04-07T16:19:18.577Z</time></trkpt><trkpt lat="45.0656843" lon="11.805391"><ele>3.0</ele><time>2026-04-07T16:19:19.579Z</time></trkpt><trkpt lat="45.0654254" lon="11.8052976"><ele>3.0</ele><time>2026-04-07T16:19:20.595Z</time></trkpt><trkpt lat="45.0651732" lon="11.8051668"><ele>3.0</ele><time>2026-04-07T16:19:21.579Z</time></trkpt><trkpt lat="45.0648924" lon="11.8050577"><ele>3.0</ele><time>2026-04-07T16:19:22.586Z</time></trkpt><trkpt lat="45.0646305" lon="11.8049421"><ele>3.0</ele><time>2026-04-07T16:19:23.583Z</time></trkpt><trkpt lat="45.0643887" lon="11.8048293"><ele>3.0</ele><time>2026-04-07T16:19:24.588Z</time></trkpt><trkpt lat="45.0641582" lon="11.8047088"><ele>3.0</ele><time>2026-04-07T16:19:25.585Z</time></trkpt><trkpt lat="45.0639726" lon="11.8045852"><ele>3.333333333333333</ele><time>2026-04-07T16:19:26.579Z</time></trkpt><trkpt lat="45.0637649" lon="11.8044703"><ele>3.6666666666666665</ele><time>2026-04-07T16:19:27.587Z</time></trkpt><trkpt lat="45.0635591" lon="11.8043588"><ele>4.0</ele><time>2026-04-07T16:19:28.581Z</time></trkpt><trkpt lat="45.0633567" lon="11.8042175"><ele>2.5</ele><time>2026-04-07T16:19:29.591Z</time></trkpt><trkpt lat="45.0631198" lon="11.8040891"><ele>1.0</ele><time>2026-04-07T16:19:30.58Z</time></trkpt><trkpt lat="45.0628989" lon="11.8039502"><ele>1.0</ele><time>2026-04-07T16:19:31.581Z</time></trkpt><trkpt lat="45.0626968" lon="11.8038143"><ele>1.0</ele><time>2026-04-07T16:19:32.582Z</time></trkpt><trkpt lat="45.0624942" lon="11.8036742"><ele>1.0</ele><time>2026-04-07T16:19:33.576Z</time></trkpt><trkpt lat="45.062297" lon="11.8035591"><ele>1.3333333333333333</ele><time>2026-04-07T16:19:34.579Z</time></trkpt><trkpt lat="45.0620939" lon="11.8034367"><ele>1.6666666666666665</ele><time>2026-04-07T16:19:35.579Z</time></trkpt><trkpt lat="45.0618886" lon="11.8032959"><ele>2.0</ele><time>2026-04-07T16:19:36.569Z</time></trkpt><trkpt lat="45.0616664" lon="11.8031632"><ele>2.0</ele><time>2026-04-07T16:19:37.568Z</time></trkpt><trkpt lat="45.0614346" lon="11.8030205"><ele>2.0</ele><time>2026-04-07T16:19:38.573Z</time></trkpt><trkpt lat="45.0611988" lon="11.8028812"><ele>2.0</ele><time>2026-04-07T16:19:39.575Z</time></trkpt><trkpt lat="45.0609657" lon="11.8027545"><ele>2.0</ele><time>2026-04-07T16:19:40.578Z</time></trkpt><trkpt lat="45.0607641" lon="11.8026313"><ele>2.5</ele><time>2026-04-07T16:19:41.576Z</time></trkpt><trkpt lat="45.0605705" lon="11.8025057"><ele>3.0</ele><time>2026-04-07T16:19:42.579Z</time></trkpt><trkpt lat="45.0603557" lon="11.8023628"><ele>3.0</ele><time>2026-04-07T16:19:43.576Z</time></trkpt><trkpt lat="45.0601326" lon="11.8022183"><ele>3.0</ele><time>2026-04-07T16:19:44.585Z</time></trkpt><trkpt lat="45.0599209" lon="11.8020649"><ele>3.0</ele><time>2026-04-07T16:19:45.577Z</time></trkpt><trkpt lat="45.0596778" lon="11.8019097"><ele>3.0</ele><time>2026-04-07T16:19:46.583Z</time></trkpt><trkpt lat="45.059415" lon="11.8017469"><ele>2.5</ele><time>2026-04-07T16:19:47.59Z</time></trkpt><trkpt lat="45.0591758" lon="11.8016057"><ele>2.0</ele><time>2026-04-07T16:19:48.566Z</time></trkpt><trkpt lat="45.0588874" lon="11.8014665"><ele>2.0</ele><time>2026-04-07T16:19:49.566Z</time></trkpt><trkpt lat="45.0586024" lon="11.8013487"><ele>2.0</ele><time>2026-04-07T16:19:50.595Z</time></trkpt><trkpt lat="45.0583306" lon="11.8012381"><ele>2.0</ele><time>2026-04-07T16:19:51.596Z</time></trkpt><trkpt lat="45.058051" lon="11.8011539"><ele>2.0</ele><time>2026-04-07T16:19:52.571Z</time></trkpt><trkpt lat="45.057799" lon="11.8010841"><ele>2.0</ele><time>2026-04-07T16:19:53.567Z</time></trkpt><trkpt lat="45.0575614" lon="11.801009"><ele>2.0</ele><time>2026-04-07T16:19:54.574Z</time></trkpt><trkpt lat="45.0573313" lon="11.8009541"><ele>3.0</ele><time>2026-04-07T16:19:55.571Z</time></trkpt><trkpt lat="45.0571058" lon="11.8008842"><ele>4.0</ele><time>2026-04-07T16:19:56.568Z</time></trkpt><trkpt lat="45.056863" lon="11.8008344"><ele>4.0</ele><time>2026-04-07T16:19:57.573Z</time></trkpt><trkpt lat="45.0566542" lon="11.8007886"><ele>4.0</ele><time>2026-04-07T16:19:58.57Z</time></trkpt><trkpt lat="45.0564339" lon="11.8007462"><ele>4.0</ele><time>2026-04-07T16:19:59.575Z</time></trkpt><trkpt lat="45.0562145" lon="11.8006915"><ele>4.333333333333333</ele><time>2026-04-07T16:20:00.568Z</time></trkpt><trkpt lat="45.0559945" lon="11.8006182"><ele>4.666666666666667</ele><time>2026-04-07T16:20:01.564Z</time></trkpt><trkpt lat="45.0557903" lon="11.8005026"><ele>5.0</ele><time>2026-04-07T16:20:02.568Z</time></trkpt><trkpt lat="45.0555908" lon="11.8003845"><ele>4.666666666666667</ele><time>2026-04-07T16:20:03.566Z</time></trkpt><trkpt lat="45.0554224" lon="11.8002354"><ele>4.333333333333333</ele><time>2026-04-07T16:20:04.572Z</time></trkpt><trkpt lat="45.0552233" lon="11.800106"><ele>4.0</ele><time>2026-04-07T16:20:05.562Z</time></trkpt><trkpt lat="45.0550315" lon="11.7999832"><ele>4.0</ele><time>2026-04-07T16:20:06.565Z</time></trkpt><trkpt lat="45.0548412" lon="11.7998505"><ele>4.0</ele><time>2026-04-07T16:20:07.559Z</time></trkpt><trkpt lat="45.0546584" lon="11.7996982"><ele>4.0</ele><time>2026-04-07T16:20:08.566Z</time></trkpt><trkpt lat="45.0544815" lon="11.7995471"><ele>4.0</ele><time>2026-04-07T16:20:09.56Z</time></trkpt><trkpt lat="45.0543038" lon="11.7993792"><ele>4.0</ele><time>2026-04-07T16:20:10.569Z</time></trkpt><trkpt lat="45.0541285" lon="11.7991906"><ele>4.0</ele><time>2026-04-07T16:20:11.595Z</time></trkpt><trkpt lat="45.0539854" lon="11.7990036"><ele>3.333333333333333</ele><time>2026-04-07T16:20:12.567Z</time></trkpt><trkpt lat="45.0538073" lon="11.7988238"><ele>2.6666666666666665</ele><time>2026-04-07T16:20:13.566Z</time></trkpt><trkpt lat="45.053639" lon="11.7986231"><ele>2.0</ele><time>2026-04-07T16:20:14.572Z</time></trkpt><trkpt lat="45.0534973" lon="11.79841"><ele>2.0</ele><time>2026-04-07T16:20:15.566Z</time></trkpt><trkpt lat="45.0533635" lon="11.7981584"><ele>2.0</ele><time>2026-04-07T16:20:16.558Z</time></trkpt><trkpt lat="45.0532249" lon="11.7979351"><ele>2.0</ele><time>2026-04-07T16:20:17.562Z</time></trkpt><trkpt lat="45.0531047" lon="11.7977643"><ele>2.6666666666666665</ele><time>2026-04-07T16:20:18.559Z</time></trkpt><trkpt lat="45.0529846" lon="11.7975757"><ele>3.333333333333333</ele><time>2026-04-07T16:20:19.565Z</time></trkpt><trkpt lat="45.0528783" lon="11.7973606"><ele>4.0</ele><time>2026-04-07T16:20:20.558Z</time></trkpt><trkpt lat="45.0527772" lon="11.7971525"><ele>4.0</ele><time>2026-04-07T16:20:21.569Z</time></trkpt><trkpt lat="45.0526682" lon="11.7969645"><ele>4.0</ele><time>2026-04-07T16:20:22.574Z</time></trkpt><trkpt lat="45.0525552" lon="11.7967765"><ele>4.0</ele><time>2026-04-07T16:20:23.569Z</time></trkpt><trkpt lat="45.0524191" lon="11.7965847"><ele>4.0</ele><time>2026-04-07T16:20:24.563Z</time></trkpt><trkpt lat="45.0522853" lon="11.7963634"><ele>4.0</ele><time>2026-04-07T16:20:25.573Z</time></trkpt><trkpt lat="45.0521499" lon="11.796135"><ele>4.0</ele><time>2026-04-07T16:20:26.565Z</time></trkpt><trkpt lat="45.0520157" lon="11.7959149"><ele>4.0</ele><time>2026-04-07T16:20:27.571Z</time></trkpt><trkpt lat="45.0518779" lon="11.795728"><ele>4.0</ele><time>2026-04-07T16:20:28.575Z</time></trkpt><trkpt lat="45.0517522" lon="11.7955131"><ele>4.0</ele><time>2026-04-07T16:20:29.581Z</time></trkpt><trkpt lat="45.0516337" lon="11.7952941"><ele>4.333333333333333</ele><time>2026-04-07T16:20:30.582Z</time></trkpt><trkpt lat="45.0515136" lon="11.7950729"><ele>4.666666666666667</ele><time>2026-04-07T16:20:31.57Z</time></trkpt><trkpt lat="45.0513771" lon="11.7948477"><ele>5.0</ele><time>2026-04-07T16:20:32.575Z</time></trkpt><trkpt lat="45.0512443" lon="11.7946485"><ele>5.0</ele><time>2026-04-07T16:20:33.579Z</time></trkpt><trkpt lat="45.0511118" lon="11.7944465"><ele>5.0</ele><time>2026-04-07T16:20:34.568Z</time></trkpt><trkpt lat="45.0509743" lon="11.7942307"><ele>5.0</ele><time>2026-04-07T16:20:35.571Z</time></trkpt><trkpt lat="45.0508402" lon="11.7940044"><ele>4.333333333333334</ele><time>2026-04-07T16:20:36.576Z</time></trkpt><trkpt lat="45.0506993" lon="11.7937663"><ele>3.666666666666667</ele><time>2026-04-07T16:20:37.596Z</time></trkpt><trkpt lat="45.0505594" lon="11.7935409"><ele>3.0</ele><time>2026-04-07T16:20:38.57Z</time></trkpt><trkpt lat="45.050427" lon="11.7933419"><ele>3.0</ele><time>2026-04-07T16:20:39.576Z</time></trkpt><trkpt lat="45.0503013" lon="11.7931336"><ele>3.0</ele><time>2026-04-07T16:20:40.573Z</time></trkpt><trkpt lat="45.0501771" lon="11.7929281"><ele>3.0</ele><time>2026-04-07T16:20:41.574Z</time></trkpt><trkpt lat="45.0500568" lon="11.79275"><ele>3.0</ele><time>2026-04-07T16:20:42.578Z</time></trkpt><trkpt lat="45.0499588" lon="11.7925708"><ele>3.0</ele><time>2026-04-07T16:20:43.572Z</time></trkpt><trkpt lat="45.0498405" lon="11.7923644"><ele>3.0</ele><time>2026-04-07T16:20:44.58Z</time></trkpt><trkpt lat="45.0497293" lon="11.79216"><ele>2.6666666666666665</ele><time>2026-04-07T16:20:45.596Z</time></trkpt><trkpt lat="45.0496165" lon="11.7919625"><ele>2.333333333333333</ele><time>2026-04-07T16:20:46.575Z</time></trkpt><trkpt lat="45.0494955" lon="11.7917452"><ele>2.0</ele><time>2026-04-07T16:20:47.571Z</time></trkpt><trkpt lat="45.0493577" lon="11.7915586"><ele>2.333333333333333</ele><time>2026-04-07T16:20:48.571Z</time></trkpt><trkpt lat="45.049256" lon="11.7913818"><ele>2.6666666666666665</ele><time>2026-04-07T16:20:49.578Z</time></trkpt><trkpt lat="45.049155" lon="11.7911769"><ele>3.0</ele><time>2026-04-07T16:20:50.571Z</time></trkpt><trkpt lat="45.0490509" lon="11.7910227"><ele>3.0</ele><time>2026-04-07T16:20:51.561Z</time></trkpt><trkpt lat="45.0489371" lon="11.7908818"><ele>3.0</ele><time>2026-04-07T16:20:52.568Z</time></trkpt><trkpt lat="45.0488275" lon="11.7907315"><ele>3.0</ele><time>2026-04-07T16:20:53.568Z</time></trkpt><trkpt lat="45.0487176" lon="11.7905845"><ele>3.0</ele><time>2026-04-07T16:20:54.567Z</time></trkpt><trkpt lat="45.0486345" lon="11.7904548"><ele>3.0</ele><time>2026-04-07T16:20:55.562Z</time></trkpt><trkpt lat="45.0485283" lon="11.7903586"><ele>3.0</ele><time>2026-04-07T16:20:56.565Z</time></trkpt><trkpt lat="45.0484151" lon="11.7902416"><ele>3.0</ele><time>2026-04-07T16:20:57.565Z</time></trkpt><trkpt lat="45.0482861" lon="11.7901273"><ele>2.6666666666666665</ele><time>2026-04-07T16:20:58.571Z</time></trkpt><trkpt lat="45.0481666" lon="11.7899725"><ele>2.333333333333333</ele><time>2026-04-07T16:20:59.568Z</time></trkpt><trkpt lat="45.0480527" lon="11.7898468"><ele>2.0</ele><time>2026-04-07T16:21:00.564Z</time></trkpt><trkpt lat="45.0479247" lon="11.789721"><ele>2.0</ele><time>2026-04-07T16:21:01.561Z</time></trkpt><trkpt lat="45.0478011" lon="11.7896241"><ele>2.0</ele><time>2026-04-07T16:21:02.572Z</time></trkpt><trkpt lat="45.0476924" lon="11.789536"><ele>2.0</ele><time>2026-04-07T16:21:03.561Z</time></trkpt><trkpt lat="45.0476187" lon="11.7894604"><ele>2.0</ele><time>2026-04-07T16:21:04.558Z</time></trkpt><trkpt lat="45.0475042" lon="11.7893544"><ele>2.333333333333333</ele><time>2026-04-07T16:21:05.563Z</time></trkpt><trkpt lat="45.0473805" lon="11.7892205"><ele>2.6666666666666665</ele><time>2026-04-07T16:21:06.565Z</time></trkpt><trkpt lat="45.0472596" lon="11.7890775"><ele>3.0</ele><time>2026-04-07T16:21:07.574Z</time></trkpt><trkpt lat="45.0471107" lon="11.7889537"><ele>3.0</ele><time>2026-04-07T16:21:08.568Z</time></trkpt><trkpt lat="45.046962" lon="11.7888198"><ele>3.0</ele><time>2026-04-07T16:21:09.565Z</time></trkpt><trkpt lat="45.0468006" lon="11.7886916"><ele>3.0</ele><time>2026-04-07T16:21:10.562Z</time></trkpt><trkpt lat="45.0466753" lon="11.7885511"><ele>3.25</ele><time>2026-04-07T16:21:11.561Z</time></trkpt><trkpt lat="45.04655" lon="11.7884456"><ele>3.5</ele><time>2026-04-07T16:21:12.571Z</time></trkpt><trkpt lat="45.0464297" lon="11.7883365"><ele>3.75</ele><time>2026-04-07T16:21:13.566Z</time></trkpt><trkpt lat="45.0463028" lon="11.7882125"><ele>4.0</ele><time>2026-04-07T16:21:14.573Z</time></trkpt><trkpt lat="45.0461821" lon="11.7881295"><ele>4.0</ele><time>2026-04-07T16:21:15.572Z</time></trkpt><trkpt lat="45.0460895" lon="11.7880446"><ele>4.0</ele><time>2026-04-07T16:21:16.565Z</time></trkpt><trkpt lat="45.0460041" lon="11.7879719"><ele>4.0</ele><time>2026-04-07T16:21:17.576Z</time></trkpt><trkpt lat="45.0459293" lon="11.7879023"><ele>4.0</ele><time>2026-04-07T16:21:18.569Z</time></trkpt><trkpt lat="45.0458562" lon="11.787835"><ele>4.0</ele><time>2026-04-07T16:21:19.566Z</time></trkpt><trkpt lat="45.0457789" lon="11.7877744"><ele>3.9999999999999996</ele><time>2026-04-07T16:21:20.571Z</time></trkpt><trkpt lat="45.0457023" lon="11.7877129"><ele>4.0</ele><time>2026-04-07T16:21:21.571Z</time></trkpt><trkpt lat="45.0456296" lon="11.7876537"><ele>4.0</ele><time>2026-04-07T16:21:22.575Z</time></trkpt><trkpt lat="45.0455622" lon="11.787593"><ele>4.0</ele><time>2026-04-07T16:21:23.574Z</time></trkpt><trkpt lat="45.0454962" lon="11.7875394"><ele>3.9999999999999996</ele><time>2026-04-07T16:21:24.57Z</time></trkpt><trkpt lat="45.0454342" lon="11.7874924"><ele>4.0</ele><time>2026-04-07T16:21:25.568Z</time></trkpt><trkpt lat="45.0453785" lon="11.7874499"><ele>4.0</ele><time>2026-04-07T16:21:26.565Z</time></trkpt><trkpt lat="45.0452747" lon="11.7873665"><ele>4.0</ele><time>2026-04-07T16:21:28.569Z</time></trkpt><trkpt lat="45.0451761" lon="11.7872766"><ele>4.0</ele><time>2026-04-07T16:21:30.567Z</time></trkpt><trkpt lat="45.0451013" lon="11.7872197"><ele>4.0</ele><time>2026-04-07T16:21:32.567Z</time></trkpt><trkpt lat="45.0450318" lon="11.7871569"><ele>4.0</ele><time>2026-04-07T16:21:35.568Z</time></trkpt><trkpt lat="45.044994" lon="11.787061"><ele>4.166666666666666</ele><time>2026-04-07T16:22:58.567Z</time></trkpt><trkpt lat="45.0449284" lon="11.7870162"><ele>4.333333333333333</ele><time>2026-04-07T16:23:00.558Z</time></trkpt><trkpt lat="45.0448631" lon="11.7869914"><ele>4.5</ele><time>2026-04-07T16:23:01.566Z</time></trkpt><trkpt lat="45.0447907" lon="11.7869936"><ele>4.666666666666667</ele><time>2026-04-07T16:23:02.56Z</time></trkpt><trkpt lat="45.0447306" lon="11.7870439"><ele>4.833333333333334</ele><time>2026-04-07T16:23:03.565Z</time></trkpt><trkpt lat="45.0446758" lon="11.7871337"><ele>5.0</ele><time>2026-04-07T16:23:04.582Z</time></trkpt><trkpt lat="45.0446134" lon="11.7872466"><ele>5.0</ele><time>2026-04-07T16:23:05.725Z</time></trkpt><trkpt lat="45.0444851" lon="11.7875439"><ele>5.0</ele><time>2026-04-07T16:23:07.563Z</time></trkpt><trkpt lat="45.0444187" lon="11.7877106"><ele>5.0</ele><time>2026-04-07T16:23:08.562Z</time></trkpt><trkpt lat="45.044354" lon="11.7878668"><ele>5.0</ele><time>2026-04-07T16:23:09.566Z</time></trkpt><trkpt lat="45.0443" lon="11.7880025"><ele>5.0</ele><time>2026-04-07T16:23:10.587Z</time></trkpt><trkpt lat="45.0442508" lon="11.7881246"><ele>5.0</ele><time>2026-04-07T16:23:11.578Z</time></trkpt><trkpt lat="45.0442088" lon="11.7882595"><ele>5.0</ele><time>2026-04-07T16:23:12.583Z</time></trkpt><trkpt lat="45.0441701" lon="11.788355"><ele>5.0</ele><time>2026-04-07T16:23:13.561Z</time></trkpt><trkpt lat="45.044108" lon="11.7882751"><ele>5.0</ele><time>2026-04-07T16:23:15.561Z</time></trkpt><trkpt lat="45.0440594" lon="11.788163"><ele>5.0</ele><time>2026-04-07T16:23:16.553Z</time></trkpt><trkpt lat="45.0440068" lon="11.7880111"><ele>5.0</ele><time>2026-04-07T16:23:17.565Z</time></trkpt><trkpt lat="45.0439401" lon="11.7878737"><ele>5.0</ele><time>2026-04-07T16:23:18.552Z</time></trkpt><trkpt lat="45.0438723" lon="11.7877186"><ele>4.6</ele><time>2026-04-07T16:23:19.569Z</time></trkpt><trkpt lat="45.0438077" lon="11.787583"><ele>4.2</ele><time>2026-04-07T16:23:20.569Z</time></trkpt><trkpt lat="45.0437546" lon="11.7874601"><ele>3.8</ele><time>2026-04-07T16:23:21.568Z</time></trkpt><trkpt lat="45.0437006" lon="11.7873494"><ele>3.4</ele><time>2026-04-07T16:23:22.555Z</time></trkpt><trkpt lat="45.0436309" lon="11.7872525"><ele>3.0</ele><time>2026-04-07T16:23:23.559Z</time></trkpt><trkpt lat="45.0435424" lon="11.7871836"><ele>3.0</ele><time>2026-04-07T16:23:25.56Z</time></trkpt><trkpt lat="45.043477" lon="11.7871968"><ele>3.0</ele><time>2026-04-07T16:23:26.56Z</time></trkpt><trkpt lat="45.0434026" lon="11.787241"><ele>3.0</ele><time>2026-04-07T16:23:27.575Z</time></trkpt><trkpt lat="45.0433107" lon="11.7872883"><ele>3.0</ele><time>2026-04-07T16:23:28.579Z</time></trkpt><trkpt lat="45.0432048" lon="11.7873322"><ele>3.0</ele><time>2026-04-07T16:23:29.553Z</time></trkpt><trkpt lat="45.0430825" lon="11.787376"><ele>3.25</ele><time>2026-04-07T16:23:30.581Z</time></trkpt><trkpt lat="45.0429592" lon="11.7874225"><ele>3.5</ele><time>2026-04-07T16:23:31.56Z</time></trkpt><trkpt lat="45.042831" lon="11.7874753"><ele>3.75</ele><time>2026-04-07T16:23:32.585Z</time></trkpt><trkpt lat="45.0426956" lon="11.7875348"><ele>4.0</ele><time>2026-04-07T16:23:33.593Z</time></trkpt><trkpt lat="45.0425396" lon="11.7876451"><ele>3.333333333333333</ele><time>2026-04-07T16:23:34.58Z</time></trkpt><trkpt lat="45.0423848" lon="11.7877371"><ele>2.6666666666666665</ele><time>2026-04-07T16:23:35.57Z</time></trkpt><trkpt lat="45.0422198" lon="11.787857"><ele>2.0</ele><time>2026-04-07T16:23:36.563Z</time></trkpt><trkpt lat="45.0420703" lon="11.7879206"><ele>2.0</ele><time>2026-04-07T16:23:37.558Z</time></trkpt><trkpt lat="45.0418697" lon="11.7879885"><ele>2.0</ele><time>2026-04-07T16:23:38.567Z</time></trkpt><trkpt lat="45.0416988" lon="11.7880175"><ele>2.0</ele><time>2026-04-07T16:23:39.56Z</time></trkpt><trkpt lat="45.0414973" lon="11.7880569"><ele>1.6666666666666665</ele><time>2026-04-07T16:23:40.565Z</time></trkpt><trkpt lat="45.0413156" lon="11.7880556"><ele>1.3333333333333333</ele><time>2026-04-07T16:23:41.566Z</time></trkpt><trkpt lat="45.0411525" lon="11.7880583"><ele>1.0</ele><time>2026-04-07T16:23:42.564Z</time></trkpt><trkpt lat="45.0409985" lon="11.7880557"><ele>1.0</ele><time>2026-04-07T16:23:43.563Z</time></trkpt><trkpt lat="45.0408933" lon="11.7881088"><ele>1.0</ele><time>2026-04-07T16:23:44.568Z</time></trkpt><trkpt lat="45.0407812" lon="11.788162"><ele>1.0</ele><time>2026-04-07T16:23:45.581Z</time></trkpt><trkpt lat="45.0406691" lon="11.78822"><ele>1.0</ele><time>2026-04-07T16:23:46.567Z</time></trkpt><trkpt lat="45.0405352" lon="11.7882447"><ele>1.5</ele><time>2026-04-07T16:23:47.564Z</time></trkpt><trkpt lat="45.0404043" lon="11.7882953"><ele>2.0</ele><time>2026-04-07T16:23:48.567Z</time></trkpt><trkpt lat="45.0402636" lon="11.7883627"><ele>2.5</ele><time>2026-04-07T16:23:49.558Z</time></trkpt><trkpt lat="45.0401426" lon="11.7884204"><ele>3.0</ele><time>2026-04-07T16:23:50.576Z</time></trkpt><trkpt lat="45.0400156" lon="11.7884994"><ele>3.0</ele><time>2026-04-07T16:23:51.568Z</time></trkpt><trkpt lat="45.0398714" lon="11.7885981"><ele>3.0</ele><time>2026-04-07T16:23:52.565Z</time></trkpt><trkpt lat="45.0396926" lon="11.7887032"><ele>3.0</ele><time>2026-04-07T16:23:53.567Z</time></trkpt><trkpt lat="45.0395279" lon="11.7888219"><ele>3.0</ele><time>2026-04-07T16:23:54.558Z</time></trkpt><trkpt lat="45.0393561" lon="11.7889044"><ele>3.0</ele><time>2026-04-07T16:23:55.574Z</time></trkpt><trkpt lat="45.0391916" lon="11.7890043"><ele>3.0</ele><time>2026-04-07T16:23:56.568Z</time></trkpt><trkpt lat="45.0390044" lon="11.7891292"><ele>2.6666666666666665</ele><time>2026-04-07T16:23:57.56Z</time></trkpt><trkpt lat="45.0388345" lon="11.7891946"><ele>2.333333333333333</ele><time>2026-04-07T16:23:58.566Z</time></trkpt><trkpt lat="45.0386503" lon="11.789283"><ele>2.0</ele><time>2026-04-07T16:23:59.561Z</time></trkpt><trkpt lat="45.0384726" lon="11.7893742"><ele>2.0</ele><time>2026-04-07T16:24:00.564Z</time></trkpt><trkpt lat="45.0383125" lon="11.7894219"><ele>2.0</ele><time>2026-04-07T16:24:01.553Z</time></trkpt><trkpt lat="45.038146" lon="11.7894715"><ele>2.0</ele><time>2026-04-07T16:24:02.564Z</time></trkpt><trkpt lat="45.0379878" lon="11.7895112"><ele>2.5</ele><time>2026-04-07T16:24:03.556Z</time></trkpt><trkpt lat="45.0378503" lon="11.789559"><ele>3.0</ele><time>2026-04-07T16:24:04.56Z</time></trkpt><trkpt lat="45.0377376" lon="11.789674"><ele>3.5</ele><time>2026-04-07T16:24:05.554Z</time></trkpt><trkpt lat="45.0376597" lon="11.7897992"><ele>4.0</ele><time>2026-04-07T16:24:06.568Z</time></trkpt><trkpt lat="45.0375847" lon="11.7899185"><ele>4.0</ele><time>2026-04-07T16:24:07.559Z</time></trkpt><trkpt lat="45.0374579" lon="11.7900715"><ele>4.0</ele><time>2026-04-07T16:24:08.556Z</time></trkpt><trkpt lat="45.0373606" lon="11.79018"><ele>4.0</ele><time>2026-04-07T16:24:09.63Z</time></trkpt><trkpt lat="45.037253" lon="11.7902852"><ele>4.0</ele><time>2026-04-07T16:24:10.555Z</time></trkpt><trkpt lat="45.0371363" lon="11.7903877"><ele>4.0</ele><time>2026-04-07T16:24:11.55Z</time></trkpt><trkpt lat="45.0370336" lon="11.7905508"><ele>4.0</ele><time>2026-04-07T16:24:12.797Z</time></trkpt><trkpt lat="45.0367888" lon="11.7909272"><ele>3.6666666666666665</ele><time>2026-04-07T16:24:14.705Z</time></trkpt><trkpt lat="45.0367022" lon="11.7911385"><ele>3.333333333333333</ele><time>2026-04-07T16:24:15.701Z</time></trkpt><trkpt lat="45.0365889" lon="11.7913133"><ele>3.0</ele><time>2026-04-07T16:24:16.703Z</time></trkpt><trkpt lat="45.0364939" lon="11.7915188"><ele>3.0</ele><time>2026-04-07T16:24:17.705Z</time></trkpt><trkpt lat="45.036379" lon="11.7917036"><ele>3.0</ele><time>2026-04-07T16:24:18.869Z</time></trkpt><trkpt lat="45.0362954" lon="11.7918903"><ele>3.0</ele><time>2026-04-07T16:24:19.956Z</time></trkpt><trkpt lat="45.0361408" lon="11.7922555"><ele>3.333333333333333</ele><time>2026-04-07T16:24:21.61Z</time></trkpt><trkpt lat="45.0360737" lon="11.7925014"><ele>3.6666666666666665</ele><time>2026-04-07T16:24:22.562Z</time></trkpt><trkpt lat="45.036011" lon="11.7926901"><ele>4.0</ele><time>2026-04-07T16:24:23.56Z</time></trkpt><trkpt lat="45.0359662" lon="11.7929238"><ele>4.333333333333333</ele><time>2026-04-07T16:24:24.558Z</time></trkpt><trkpt lat="45.0359209" lon="11.7931493"><ele>4.666666666666667</ele><time>2026-04-07T16:24:25.563Z</time></trkpt><trkpt lat="45.0358597" lon="11.7933605"><ele>5.0</ele><time>2026-04-07T16:24:26.562Z</time></trkpt><trkpt lat="45.0358065" lon="11.7935316"><ele>4.75</ele><time>2026-04-07T16:24:27.566Z</time></trkpt><trkpt lat="45.0357406" lon="11.7936976"><ele>4.5</ele><time>2026-04-07T16:24:28.564Z</time></trkpt><trkpt lat="45.0356778" lon="11.7938685"><ele>4.25</ele><time>2026-04-07T16:24:29.561Z</time></trkpt><trkpt lat="45.0356303" lon="11.7940037"><ele>4.0</ele><time>2026-04-07T16:24:30.558Z</time></trkpt><trkpt lat="45.0355875" lon="11.7941492"><ele>4.0</ele><time>2026-04-07T16:24:31.565Z</time></trkpt><trkpt lat="45.0355305" lon="11.7943171"><ele>4.0</ele><time>2026-04-07T16:24:32.566Z</time></trkpt><trkpt lat="45.0354538" lon="11.7945071"><ele>4.0</ele><time>2026-04-07T16:24:33.564Z</time></trkpt><trkpt lat="45.0353604" lon="11.7947079"><ele>4.0</ele><time>2026-04-07T16:24:34.567Z</time></trkpt><trkpt lat="45.0352649" lon="11.7948885"><ele>4.0</ele><time>2026-04-07T16:24:35.582Z</time></trkpt><trkpt lat="45.0352003" lon="11.7950871"><ele>4.0</ele><time>2026-04-07T16:24:36.567Z</time></trkpt><trkpt lat="45.0351155" lon="11.7952958"><ele>4.0</ele><time>2026-04-07T16:24:37.558Z</time></trkpt><trkpt lat="45.0350484" lon="11.7954759"><ele>4.0</ele><time>2026-04-07T16:24:38.566Z</time></trkpt><trkpt lat="45.0350092" lon="11.7956372"><ele>4.0</ele><time>2026-04-07T16:24:39.57Z</time></trkpt><trkpt lat="45.0350011" lon="11.7957804"><ele>4.0</ele><time>2026-04-07T16:24:40.553Z</time></trkpt><trkpt lat="45.0349784" lon="11.7958706"><ele>4.0</ele><time>2026-04-07T16:24:42.589Z</time></trkpt><trkpt lat="45.0348958" lon="11.7958825"><ele>4.0</ele><time>2026-04-07T16:24:44.584Z</time></trkpt><trkpt lat="45.0348075" lon="11.7958051"><ele>4.0</ele><time>2026-04-07T16:24:46.562Z</time></trkpt><trkpt lat="45.0347307" lon="11.7957162"><ele>4.0</ele><time>2026-04-07T16:24:47.561Z</time></trkpt><trkpt lat="45.0346184" lon="11.7956049"><ele>4.0</ele><time>2026-04-07T16:24:48.566Z</time></trkpt><trkpt lat="45.0344974" lon="11.7954874"><ele>4.0</ele><time>2026-04-07T16:24:49.559Z</time></trkpt><trkpt lat="45.0343596" lon="11.7953467"><ele>4.0</ele><time>2026-04-07T16:24:50.569Z</time></trkpt><trkpt lat="45.0342045" lon="11.7951891"><ele>4.0</ele><time>2026-04-07T16:24:51.558Z</time></trkpt><trkpt lat="45.0340138" lon="11.7949749"><ele>3.333333333333333</ele><time>2026-04-07T16:24:52.567Z</time></trkpt><trkpt lat="45.033855" lon="11.794784"><ele>2.6666666666666665</ele><time>2026-04-07T16:24:53.574Z</time></trkpt><trkpt lat="45.033699" lon="11.7946319"><ele>2.0</ele><time>2026-04-07T16:24:54.558Z</time></trkpt><trkpt lat="45.0335688" lon="11.7945027"><ele>2.0</ele><time>2026-04-07T16:24:55.565Z</time></trkpt><trkpt lat="45.033422" lon="11.7943775"><ele>2.0</ele><time>2026-04-07T16:24:56.563Z</time></trkpt><trkpt lat="45.0332516" lon="11.7942348"><ele>2.0</ele><time>2026-04-07T16:24:57.562Z</time></trkpt><trkpt lat="45.0331007" lon="11.7940946"><ele>1.6666666666666665</ele><time>2026-04-07T16:24:58.563Z</time></trkpt><trkpt lat="45.0329561" lon="11.7939536"><ele>1.3333333333333333</ele><time>2026-04-07T16:24:59.57Z</time></trkpt><trkpt lat="45.0328373" lon="11.7938303"><ele>1.0</ele><time>2026-04-07T16:25:00.557Z</time></trkpt><trkpt lat="45.0327039" lon="11.7937073"><ele>1.0</ele><time>2026-04-07T16:25:01.566Z</time></trkpt><trkpt lat="45.032582" lon="11.7935867"><ele>1.0</ele><time>2026-04-07T16:25:02.583Z</time></trkpt><trkpt lat="45.0324468" lon="11.793458"><ele>1.0</ele><time>2026-04-07T16:25:03.565Z</time></trkpt><trkpt lat="45.0323194" lon="11.7933223"><ele>1.0</ele><time>2026-04-07T16:25:04.557Z</time></trkpt><trkpt lat="45.0321962" lon="11.7932103"><ele>1.0</ele><time>2026-04-07T16:25:05.571Z</time></trkpt><trkpt lat="45.0320758" lon="11.7931176"><ele>1.0</ele><time>2026-04-07T16:25:06.569Z</time></trkpt><trkpt lat="45.0319632" lon="11.7930156"><ele>1.0</ele><time>2026-04-07T16:25:07.57Z</time></trkpt><trkpt lat="45.0318582" lon="11.7929034"><ele>1.0</ele><time>2026-04-07T16:25:08.566Z</time></trkpt><trkpt lat="45.0317828" lon="11.7927942"><ele>1.0</ele><time>2026-04-07T16:25:09.576Z</time></trkpt><trkpt lat="45.0317145" lon="11.7927004"><ele>1.0</ele><time>2026-04-07T16:25:10.573Z</time></trkpt><trkpt lat="45.031634" lon="11.7926245"><ele>1.0</ele><time>2026-04-07T16:25:11.563Z</time></trkpt><trkpt lat="45.0315526" lon="11.7925779"><ele>1.0</ele><time>2026-04-07T16:25:12.568Z</time></trkpt><trkpt lat="45.0314754" lon="11.7925579"><ele>0.8333333333333333</ele><time>2026-04-07T16:25:13.569Z</time></trkpt><trkpt lat="45.0313818" lon="11.7925571"><ele>0.6666666666666666</ele><time>2026-04-07T16:25:14.572Z</time></trkpt><trkpt lat="45.0313132" lon="11.7925598"><ele>0.5</ele><time>2026-04-07T16:25:15.565Z</time></trkpt><trkpt lat="45.0312394" lon="11.792502"><ele>0.3333333333333333</ele><time>2026-04-07T16:25:17.568Z</time></trkpt><trkpt lat="45.0312364" lon="11.7923839"><ele>0.16666666666666666</ele><time>2026-04-07T16:25:19.571Z</time></trkpt><trkpt lat="45.0312642" lon="11.7922935"><ele>0.0</ele><time>2026-04-07T16:25:21.575Z</time></trkpt><trkpt lat="45.0312826" lon="11.7921685"><ele>0.0</ele><time>2026-04-07T16:25:23.572Z</time></trkpt><trkpt lat="45.031282" lon="11.7920293"><ele>0.0</ele><time>2026-04-07T16:25:25.571Z</time></trkpt><trkpt lat="45.0312696" lon="11.7919412"><ele>0.0</ele><time>2026-04-07T16:25:26.563Z</time></trkpt><trkpt lat="45.0312571" lon="11.7918344"><ele>0.0</ele><time>2026-04-07T16:25:27.586Z</time></trkpt><trkpt lat="45.0312468" lon="11.7917323"><ele>0.0</ele><time>2026-04-07T16:25:28.568Z</time></trkpt><trkpt lat="45.0312486" lon="11.7916162"><ele>0.0</ele><time>2026-04-07T16:25:29.582Z</time></trkpt><trkpt lat="45.0312588" lon="11.7914868"><ele>0.0</ele><time>2026-04-07T16:25:30.576Z</time></trkpt><trkpt lat="45.031263" lon="11.7913612"><ele>0.0</ele><time>2026-04-07T16:25:31.564Z</time></trkpt><trkpt lat="45.0312674" lon="11.7912357"><ele>0.0</ele><time>2026-04-07T16:25:32.569Z</time></trkpt><trkpt lat="45.0312686" lon="11.7911189"><ele>0.0</ele><time>2026-04-07T16:25:33.568Z</time></trkpt><trkpt lat="45.0312578" lon="11.791015"><ele>0.0</ele><time>2026-04-07T16:25:34.572Z</time></trkpt><trkpt lat="45.0312344" lon="11.7909125"><ele>0.0</ele><time>2026-04-07T16:25:35.568Z</time></trkpt><trkpt lat="45.0311988" lon="11.7907903"><ele>0.0</ele><time>2026-04-07T16:25:36.563Z</time></trkpt><trkpt lat="45.0311612" lon="11.790663"><ele>0.0</ele><time>2026-04-07T16:25:37.571Z</time></trkpt><trkpt lat="45.0311102" lon="11.7905264"><ele>0.0</ele><time>2026-04-07T16:25:38.566Z</time></trkpt><trkpt lat="45.0310513" lon="11.790372"><ele>0.0</ele><time>2026-04-07T16:25:39.57Z</time></trkpt><trkpt lat="45.0309839" lon="11.7902037"><ele>0.0</ele><time>2026-04-07T16:25:40.571Z</time></trkpt><trkpt lat="45.0309269" lon="11.7900471"><ele>0.0</ele><time>2026-04-07T16:25:41.572Z</time></trkpt><trkpt lat="45.0308887" lon="11.7899157"><ele>0.0</ele><time>2026-04-07T16:25:42.572Z</time></trkpt><trkpt lat="45.0308513" lon="11.7897924"><ele>0.0</ele><time>2026-04-07T16:25:43.567Z</time></trkpt><trkpt lat="45.0308107" lon="11.7896542"><ele>0.0</ele><time>2026-04-07T16:25:44.576Z</time></trkpt><trkpt lat="45.0307651" lon="11.7895187"><ele>0.0</ele><time>2026-04-07T16:25:45.567Z</time></trkpt><trkpt lat="45.030722" lon="11.7894034"><ele>0.0</ele><time>2026-04-07T16:25:46.572Z</time></trkpt><trkpt lat="45.0306638" lon="11.7892706"><ele>0.0</ele><time>2026-04-07T16:25:47.565Z</time></trkpt><trkpt lat="45.030601" lon="11.7891325"><ele>0.0</ele><time>2026-04-07T16:25:48.569Z</time></trkpt><trkpt lat="45.0305253" lon="11.7890191"><ele>0.0</ele><time>2026-04-07T16:25:49.581Z</time></trkpt><trkpt lat="45.0304555" lon="11.788949"><ele>-0.14285714285714285</ele><time>2026-04-07T16:25:50.57Z</time></trkpt><trkpt lat="45.0303988" lon="11.7889041"><ele>-0.2857142857142857</ele><time>2026-04-07T16:25:51.568Z</time></trkpt><trkpt lat="45.0303336" lon="11.7888475"><ele>-0.42857142857142855</ele><time>2026-04-07T16:25:52.583Z</time></trkpt><trkpt lat="45.0302667" lon="11.7888446"><ele>-0.5714285714285714</ele><time>2026-04-07T16:25:53.571Z</time></trkpt><trkpt lat="45.0301831" lon="11.7888491"><ele>-0.7142857142857142</ele><time>2026-04-07T16:25:55.576Z</time></trkpt><trkpt lat="45.0301229" lon="11.7888209"><ele>-0.8571428571428571</ele><time>2026-04-07T16:26:56.569Z</time></trkpt><trkpt lat="45.0300621" lon="11.7887911"><ele>-1.0</ele><time>2026-04-07T16:27:09.562Z</time></trkpt><trkpt lat="45.0299992" lon="11.788777"><ele>-0.75</ele><time>2026-04-07T16:27:11.573Z</time></trkpt><trkpt lat="45.0298981" lon="11.7887518"><ele>-0.5</ele><time>2026-04-07T16:27:13.589Z</time></trkpt><trkpt lat="45.0297855" lon="11.7887405"><ele>-0.25</ele><time>2026-04-07T16:27:14.572Z</time></trkpt><trkpt lat="45.0296556" lon="11.7887383"><ele>0.0</ele><time>2026-04-07T16:27:15.562Z</time></trkpt><trkpt lat="45.0295172" lon="11.7887393"><ele>0.0</ele><time>2026-04-07T16:27:16.575Z</time></trkpt><trkpt lat="45.0293678" lon="11.78873"><ele>0.0</ele><time>2026-04-07T16:27:17.57Z</time></trkpt><trkpt lat="45.0292013" lon="11.7887248"><ele>0.0</ele><time>2026-04-07T16:27:18.565Z</time></trkpt><trkpt lat="45.0290535" lon="11.788698"><ele>0.0</ele><time>2026-04-07T16:27:19.572Z</time></trkpt><trkpt lat="45.0288949" lon="11.7886746"><ele>0.0</ele><time>2026-04-07T16:27:20.571Z</time></trkpt><trkpt lat="45.0287375" lon="11.7886517"><ele>0.0</ele><time>2026-04-07T16:27:21.565Z</time></trkpt><trkpt lat="45.0285801" lon="11.7886336"><ele>0.0</ele><time>2026-04-07T16:27:22.573Z</time></trkpt><trkpt lat="45.0284491" lon="11.788612"><ele>0.0</ele><time>2026-04-07T16:27:23.574Z</time></trkpt><trkpt lat="45.0283196" lon="11.7885944"><ele>0.0</ele><time>2026-04-07T16:27:24.565Z</time></trkpt><trkpt lat="45.0282104" lon="11.788566"><ele>0.0</ele><time>2026-04-07T16:27:25.567Z</time></trkpt><trkpt lat="45.0280972" lon="11.7885381"><ele>-0.2</ele><time>2026-04-07T16:27:26.567Z</time></trkpt><trkpt lat="45.0279899" lon="11.7885"><ele>-0.4</ele><time>2026-04-07T16:27:27.558Z</time></trkpt><trkpt lat="45.0279079" lon="11.7884685"><ele>-0.6000000000000001</ele><time>2026-04-07T16:27:28.573Z</time></trkpt><trkpt lat="45.0278268" lon="11.7884443"><ele>-0.8</ele><time>2026-04-07T16:27:29.568Z</time></trkpt><trkpt lat="45.0277558" lon="11.7884157"><ele>-1.0</ele><time>2026-04-07T16:27:30.565Z</time></trkpt><trkpt lat="45.0276394" lon="11.7883915"><ele>-0.9999999999999999</ele><time>2026-04-07T16:27:32.567Z</time></trkpt><trkpt lat="45.0275733" lon="11.7883771"><ele>-1.0</ele><time>2026-04-07T16:27:33.563Z</time></trkpt><trkpt lat="45.0275038" lon="11.7883513"><ele>-1.0</ele><time>2026-04-07T16:27:34.568Z</time></trkpt><trkpt lat="45.0274303" lon="11.7883277"><ele>-1.0</ele><time>2026-04-07T16:27:35.578Z</time></trkpt><trkpt lat="45.0273499" lon="11.788306"><ele>-0.9999999999999999</ele><time>2026-04-07T16:27:36.569Z</time></trkpt><trkpt lat="45.0272627" lon="11.7882792"><ele>-1.0</ele><time>2026-04-07T16:27:37.571Z</time></trkpt><trkpt lat="45.0271763" lon="11.7882445"><ele>-0.8333333333333333</ele><time>2026-04-07T16:27:38.569Z</time></trkpt><trkpt lat="45.0270874" lon="11.7881975"><ele>-0.6666666666666666</ele><time>2026-04-07T16:27:39.568Z</time></trkpt><trkpt lat="45.0270048" lon="11.7881551"><ele>-0.5</ele><time>2026-04-07T16:27:40.571Z</time></trkpt><trkpt lat="45.0269341" lon="11.788101"><ele>-0.3333333333333333</ele><time>2026-04-07T16:27:41.569Z</time></trkpt><trkpt lat="45.0268741" lon="11.788045"><ele>-0.16666666666666666</ele><time>2026-04-07T16:27:42.564Z</time></trkpt><trkpt lat="45.0268121" lon="11.787969"><ele>0.0</ele><time>2026-04-07T16:27:43.566Z</time></trkpt><trkpt lat="45.0267498" lon="11.7878767"><ele>0.0</ele><time>2026-04-07T16:27:44.569Z</time></trkpt><trkpt lat="45.0266908" lon="11.787762"><ele>0.0</ele><time>2026-04-07T16:27:45.56Z</time></trkpt><trkpt lat="45.0266443" lon="11.7876421"><ele>0.0</ele><time>2026-04-07T16:27:46.563Z</time></trkpt><trkpt lat="45.0266143" lon="11.7874954"><ele>0.0</ele><time>2026-04-07T16:27:47.589Z</time></trkpt><trkpt lat="45.0265815" lon="11.7873149"><ele>0.0</ele><time>2026-04-07T16:27:48.564Z</time></trkpt><trkpt lat="45.0265449" lon="11.7871211"><ele>0.0</ele><time>2026-04-07T16:27:49.577Z</time></trkpt><trkpt lat="45.0265125" lon="11.7869196"><ele>0.0</ele><time>2026-04-07T16:27:50.572Z</time></trkpt><trkpt lat="45.0264769" lon="11.7866969"><ele>0.0</ele><time>2026-04-07T16:27:51.564Z</time></trkpt><trkpt lat="45.0264284" lon="11.7864571"><ele>0.0</ele><time>2026-04-07T16:27:52.574Z</time></trkpt><trkpt lat="45.0264144" lon="11.7862418"><ele>0.0</ele><time>2026-04-07T16:27:53.569Z</time></trkpt><trkpt lat="45.0263684" lon="11.7860543"><ele>0.0</ele><time>2026-04-07T16:27:54.563Z</time></trkpt><trkpt lat="45.026323" lon="11.7858377"><ele>0.0</ele><time>2026-04-07T16:27:55.567Z</time></trkpt><trkpt lat="45.0262797" lon="11.7856429"><ele>0.0</ele><time>2026-04-07T16:27:56.575Z</time></trkpt><trkpt lat="45.0261899" lon="11.7854521"><ele>0.0</ele><time>2026-04-07T16:27:57.567Z</time></trkpt><trkpt lat="45.0261359" lon="11.785286"><ele>0.0</ele><time>2026-04-07T16:27:58.571Z</time></trkpt><trkpt lat="45.0260838" lon="11.7851336"><ele>0.4</ele><time>2026-04-07T16:27:59.56Z</time></trkpt><trkpt lat="45.026031" lon="11.7849836"><ele>0.8</ele><time>2026-04-07T16:28:00.571Z</time></trkpt><trkpt lat="45.0259659" lon="11.7848672"><ele>1.2000000000000002</ele><time>2026-04-07T16:28:01.565Z</time></trkpt><trkpt lat="45.0259058" lon="11.7847727"><ele>1.6</ele><time>2026-04-07T16:28:03.596Z</time></trkpt><trkpt lat="45.0258248" lon="11.7847118"><ele>2.0</ele><time>2026-04-07T16:28:05.574Z</time></trkpt><trkpt lat="45.0257425" lon="11.7846245"><ele>1.6666666666666665</ele><time>2026-04-07T16:28:07.57Z</time></trkpt><trkpt lat="45.025665" lon="11.7845624"><ele>1.3333333333333333</ele><time>2026-04-07T16:28:09.579Z</time></trkpt><trkpt lat="45.0255971" lon="11.784502"><ele>1.0</ele><time>2026-04-07T16:28:11.58Z</time></trkpt><trkpt lat="45.0255098" lon="11.7844258"><ele>0.6666666666666666</ele><time>2026-04-07T16:28:13.573Z</time></trkpt><trkpt lat="45.0254472" lon="11.7843794"><ele>0.3333333333333333</ele><time>2026-04-07T16:28:14.575Z</time></trkpt><trkpt lat="45.0253747" lon="11.7843393"><ele>0.0</ele><time>2026-04-07T16:28:15.574Z</time></trkpt><trkpt lat="45.0252932" lon="11.7843041"><ele>0.0</ele><time>2026-04-07T16:28:16.567Z</time></trkpt><trkpt lat="45.0252016" lon="11.7842778"><ele>0.0</ele><time>2026-04-07T16:28:17.572Z</time></trkpt><trkpt lat="45.0251037" lon="11.7842572"><ele>0.0</ele><time>2026-04-07T16:28:18.571Z</time></trkpt><trkpt lat="45.0250037" lon="11.7842505"><ele>0.0</ele><time>2026-04-07T16:28:19.571Z</time></trkpt><trkpt lat="45.0249094" lon="11.7842439"><ele>0.0</ele><time>2026-04-07T16:28:20.578Z</time></trkpt><trkpt lat="45.0248139" lon="11.7842343"><ele>0.0</ele><time>2026-04-07T16:28:21.569Z</time></trkpt><trkpt lat="45.024711" lon="11.7842239"><ele>0.0</ele><time>2026-04-07T16:28:22.564Z</time></trkpt><trkpt lat="45.0246063" lon="11.7842016"><ele>0.0</ele><time>2026-04-07T16:28:23.566Z</time></trkpt><trkpt lat="45.0245059" lon="11.7841901"><ele>0.0</ele><time>2026-04-07T16:28:24.57Z</time></trkpt><trkpt lat="45.0244034" lon="11.7841884"><ele>0.0</ele><time>2026-04-07T16:28:25.569Z</time></trkpt><trkpt lat="45.0243059" lon="11.7842038"><ele>0.0</ele><time>2026-04-07T16:28:26.576Z</time></trkpt><trkpt lat="45.0242216" lon="11.7842369"><ele>0.0</ele><time>2026-04-07T16:28:27.57Z</time></trkpt><trkpt lat="45.0241511" lon="11.7842765"><ele>0.0</ele><time>2026-04-07T16:28:28.567Z</time></trkpt><trkpt lat="45.0240871" lon="11.7843298"><ele>0.0</ele><time>2026-04-07T16:28:29.578Z</time></trkpt><trkpt lat="45.0240256" lon="11.7843946"><ele>0.0</ele><time>2026-04-07T16:28:30.568Z</time></trkpt><trkpt lat="45.0239632" lon="11.7844745"><ele>0.0</ele><time>2026-04-07T16:28:31.592Z</time></trkpt><trkpt lat="45.023896" lon="11.7845687"><ele>0.25</ele><time>2026-04-07T16:28:32.566Z</time></trkpt><trkpt lat="45.0238278" lon="11.7846873"><ele>0.5</ele><time>2026-04-07T16:28:33.57Z</time></trkpt><trkpt lat="45.0237705" lon="11.7848127"><ele>0.75</ele><time>2026-04-07T16:28:34.569Z</time></trkpt><trkpt lat="45.0237023" lon="11.7849569"><ele>1.0</ele><time>2026-04-07T16:28:35.574Z</time></trkpt><trkpt lat="45.0236479" lon="11.7851022"><ele>0.5</ele><time>2026-04-07T16:28:36.571Z</time></trkpt><trkpt lat="45.0235675" lon="11.7852415"><ele>0.0</ele><time>2026-04-07T16:28:37.565Z</time></trkpt><trkpt lat="45.0234902" lon="11.7853954"><ele>-0.5</ele><time>2026-04-07T16:28:38.593Z</time></trkpt><trkpt lat="45.0234159" lon="11.7855424"><ele>-1.0</ele><time>2026-04-07T16:28:39.574Z</time></trkpt><trkpt lat="45.0233356" lon="11.7856905"><ele>-0.8</ele><time>2026-04-07T16:28:40.572Z</time></trkpt><trkpt lat="45.0232687" lon="11.7858079"><ele>-0.6000000000000001</ele><time>2026-04-07T16:28:41.577Z</time></trkpt><trkpt lat="45.0232064" lon="11.7859219"><ele>-0.4</ele><time>2026-04-07T16:28:42.575Z</time></trkpt><trkpt lat="45.023147" lon="11.7860251"><ele>-0.2</ele><time>2026-04-07T16:28:43.575Z</time></trkpt><trkpt lat="45.023093" lon="11.7861052"><ele>0.0</ele><time>2026-04-07T16:28:44.583Z</time></trkpt><trkpt lat="45.0230276" lon="11.7861879"><ele>0.0</ele><time>2026-04-07T16:28:45.575Z</time></trkpt><trkpt lat="45.022956" lon="11.7862703"><ele>0.0</ele><time>2026-04-07T16:28:46.579Z</time></trkpt><trkpt lat="45.022883" lon="11.7863458"><ele>0.0</ele><time>2026-04-07T16:28:47.579Z</time></trkpt><trkpt lat="45.0228059" lon="11.7863874"><ele>0.0</ele><time>2026-04-07T16:28:48.575Z</time></trkpt><trkpt lat="45.0227367" lon="11.7863852"><ele>0.0</ele><time>2026-04-07T16:28:49.578Z</time></trkpt><trkpt lat="45.0226662" lon="11.7863662"><ele>0.0</ele><time>2026-04-07T16:28:50.577Z</time></trkpt><trkpt lat="45.0225963" lon="11.7863415"><ele>0.0</ele><time>2026-04-07T16:28:51.577Z</time></trkpt><trkpt lat="45.0225471" lon="11.78627"><ele>0.0</ele><time>2026-04-07T16:28:52.576Z</time></trkpt><trkpt lat="45.0225028" lon="11.7861536"><ele>0.0</ele><time>2026-04-07T16:28:53.57Z</time></trkpt><trkpt lat="45.022442" lon="11.7860106"><ele>0.0</ele><time>2026-04-07T16:28:54.567Z</time></trkpt><trkpt lat="45.0223684" lon="11.7858478"><ele>0.0</ele><time>2026-04-07T16:28:55.577Z</time></trkpt><trkpt lat="45.0223005" lon="11.7856771"><ele>0.2</ele><time>2026-04-07T16:28:56.571Z</time></trkpt><trkpt lat="45.0222342" lon="11.7855367"><ele>0.4</ele><time>2026-04-07T16:28:57.575Z</time></trkpt><trkpt lat="45.0221755" lon="11.7854182"><ele>0.6000000000000001</ele><time>2026-04-07T16:28:58.591Z</time></trkpt><trkpt lat="45.0221301" lon="11.7852753"><ele>0.8</ele><time>2026-04-07T16:28:59.572Z</time></trkpt><trkpt lat="45.022078" lon="11.7851357"><ele>1.0</ele><time>2026-04-07T16:29:00.566Z</time></trkpt><trkpt lat="45.0220197" lon="11.7849954"><ele>1.0</ele><time>2026-04-07T16:29:01.577Z</time></trkpt><trkpt lat="45.0219529" lon="11.7848583"><ele>1.0</ele><time>2026-04-07T16:29:02.559Z</time></trkpt><trkpt lat="45.0218854" lon="11.7847212"><ele>1.0</ele><time>2026-04-07T16:29:03.56Z</time></trkpt><trkpt lat="45.0218112" lon="11.7845897"><ele>1.0</ele><time>2026-04-07T16:29:04.569Z</time></trkpt><trkpt lat="45.0217202" lon="11.7844713"><ele>0.8</ele><time>2026-04-07T16:29:05.563Z</time></trkpt><trkpt lat="45.0216387" lon="11.7843829"><ele>0.6000000000000001</ele><time>2026-04-07T16:29:06.562Z</time></trkpt><trkpt lat="45.0215525" lon="11.7843132"><ele>0.4</ele><time>2026-04-07T16:29:07.583Z</time></trkpt><trkpt lat="45.0214616" lon="11.7842544"><ele>0.2</ele><time>2026-04-07T16:29:08.575Z</time></trkpt><trkpt lat="45.0213663" lon="11.7841952"><ele>0.0</ele><time>2026-04-07T16:29:09.586Z</time></trkpt><trkpt lat="45.0212699" lon="11.7841319"><ele>0.0</ele><time>2026-04-07T16:29:10.575Z</time></trkpt><trkpt lat="45.0211843" lon="11.7840788"><ele>0.0</ele><time>2026-04-07T16:29:11.572Z</time></trkpt><trkpt lat="45.0211058" lon="11.7840386"><ele>0.0</ele><time>2026-04-07T16:29:12.576Z</time></trkpt><trkpt lat="45.0210397" lon="11.7839875"><ele>0.0</ele><time>2026-04-07T16:29:13.569Z</time></trkpt><trkpt lat="45.020982" lon="11.783898"><ele>0.0</ele><time>2026-04-07T16:29:14.574Z</time></trkpt><trkpt lat="45.0209384" lon="11.7837934"><ele>0.0</ele><time>2026-04-07T16:29:15.568Z</time></trkpt><trkpt lat="45.0209102" lon="11.7836653"><ele>0.0</ele><time>2026-04-07T16:29:16.559Z</time></trkpt><trkpt lat="45.0208872" lon="11.7835201"><ele>0.0</ele><time>2026-04-07T16:29:17.568Z</time></trkpt><trkpt lat="45.0208708" lon="11.7833574"><ele>0.0</ele><time>2026-04-07T16:29:18.566Z</time></trkpt><trkpt lat="45.0208571" lon="11.7832046"><ele>0.0</ele><time>2026-04-07T16:29:19.564Z</time></trkpt><trkpt lat="45.0208228" lon="11.7830519"><ele>0.0</ele><time>2026-04-07T16:29:20.558Z</time></trkpt><trkpt lat="45.0207712" lon="11.7829144"><ele>0.0</ele><time>2026-04-07T16:29:21.571Z</time></trkpt><trkpt lat="45.0207103" lon="11.7827961"><ele>0.0</ele><time>2026-04-07T16:29:22.588Z</time></trkpt><trkpt lat="45.0206313" lon="11.7826839"><ele>0.0</ele><time>2026-04-07T16:29:23.576Z</time></trkpt><trkpt lat="45.0205388" lon="11.7825717"><ele>0.0</ele><time>2026-04-07T16:29:24.566Z</time></trkpt><trkpt lat="45.0204298" lon="11.7824561"><ele>0.3333333333333333</ele><time>2026-04-07T16:29:25.57Z</time></trkpt><trkpt lat="45.0203084" lon="11.7823367"><ele>0.6666666666666666</ele><time>2026-04-07T16:29:26.575Z</time></trkpt><trkpt lat="45.0201692" lon="11.7822512"><ele>1.0</ele><time>2026-04-07T16:29:27.57Z</time></trkpt><trkpt lat="45.0200319" lon="11.7821355"><ele>1.0</ele><time>2026-04-07T16:29:28.574Z</time></trkpt><trkpt lat="45.0198859" lon="11.7820189"><ele>1.0</ele><time>2026-04-07T16:29:29.574Z</time></trkpt><trkpt lat="45.0197885" lon="11.7819444"><ele>1.0</ele><time>2026-04-07T16:29:30.569Z</time></trkpt><trkpt lat="45.0197087" lon="11.7818847"><ele>1.0</ele><time>2026-04-07T16:29:31.571Z</time></trkpt><trkpt lat="45.0196719" lon="11.7817989"><ele>1.0</ele><time>2026-04-07T16:29:32.585Z</time></trkpt><trkpt lat="45.0196026" lon="11.7816899"><ele>1.3333333333333333</ele><time>2026-04-07T16:29:33.579Z</time></trkpt><trkpt lat="45.0195436" lon="11.7815983"><ele>1.6666666666666665</ele><time>2026-04-07T16:29:34.581Z</time></trkpt><trkpt lat="45.0194836" lon="11.7815182"><ele>2.0</ele><time>2026-04-07T16:29:35.586Z</time></trkpt><trkpt lat="45.0194296" lon="11.7814445"><ele>2.3333333333333335</ele><time>2026-04-07T16:29:36.575Z</time></trkpt><trkpt lat="45.0193698" lon="11.7813546"><ele>2.6666666666666665</ele><time>2026-04-07T16:29:37.577Z</time></trkpt><trkpt lat="45.0193061" lon="11.7812647"><ele>3.0</ele><time>2026-04-07T16:29:38.578Z</time></trkpt><trkpt lat="45.0192486" lon="11.7811603"><ele>3.0</ele><time>2026-04-07T16:29:39.577Z</time></trkpt><trkpt lat="45.0192021" lon="11.7810346"><ele>3.0</ele><time>2026-04-07T16:29:40.576Z</time></trkpt><trkpt lat="45.0191535" lon="11.7808883"><ele>3.0</ele><time>2026-04-07T16:29:41.581Z</time></trkpt><trkpt lat="45.0191056" lon="11.7807619"><ele>3.0</ele><time>2026-04-07T16:29:42.569Z</time></trkpt><trkpt lat="45.0190631" lon="11.7806451"><ele>3.0</ele><time>2026-04-07T16:29:43.569Z</time></trkpt><trkpt lat="45.0190005" lon="11.7805164"><ele>2.5</ele><time>2026-04-07T16:29:44.592Z</time></trkpt><trkpt lat="45.0189169" lon="11.7803946"><ele>2.0</ele><time>2026-04-07T16:29:45.575Z</time></trkpt><trkpt lat="45.0188357" lon="11.7802868"><ele>1.5</ele><time>2026-04-07T16:29:46.567Z</time></trkpt><trkpt lat="45.0187446" lon="11.7801791"><ele>1.0</ele><time>2026-04-07T16:29:47.578Z</time></trkpt><trkpt lat="45.0186483" lon="11.7800582"><ele>1.0</ele><time>2026-04-07T16:29:48.588Z</time></trkpt><trkpt lat="45.0185626" lon="11.7799405"><ele>1.0</ele><time>2026-04-07T16:29:49.596Z</time></trkpt><trkpt lat="45.0184902" lon="11.7798408"><ele>1.0</ele><time>2026-04-07T16:29:50.571Z</time></trkpt><trkpt lat="45.0184328" lon="11.7797144"><ele>1.0</ele><time>2026-04-07T16:29:51.562Z</time></trkpt><trkpt lat="45.0184069" lon="11.7795705"><ele>1.0</ele><time>2026-04-07T16:29:52.558Z</time></trkpt><trkpt lat="45.0183926" lon="11.7794068"><ele>1.25</ele><time>2026-04-07T16:29:53.566Z</time></trkpt><trkpt lat="45.0183883" lon="11.779219"><ele>1.5</ele><time>2026-04-07T16:29:54.569Z</time></trkpt><trkpt lat="45.0184126" lon="11.7790512"><ele>1.75</ele><time>2026-04-07T16:29:55.576Z</time></trkpt><trkpt lat="45.0184306" lon="11.7788838"><ele>2.0</ele><time>2026-04-07T16:29:56.573Z</time></trkpt><trkpt lat="45.0184409" lon="11.7787218"><ele>2.0</ele><time>2026-04-07T16:29:57.572Z</time></trkpt><trkpt lat="45.0184523" lon="11.7785768"><ele>2.0</ele><time>2026-04-07T16:29:58.576Z</time></trkpt><trkpt lat="45.0184614" lon="11.778434"><ele>2.0</ele><time>2026-04-07T16:29:59.587Z</time></trkpt><trkpt lat="45.0184704" lon="11.7782937"><ele>2.0</ele><time>2026-04-07T16:30:00.565Z</time></trkpt><trkpt lat="45.0184872" lon="11.7781596"><ele>2.0</ele><time>2026-04-07T16:30:01.579Z</time></trkpt><trkpt lat="45.0184991" lon="11.7780148"><ele>2.1666666666666665</ele><time>2026-04-07T16:30:02.569Z</time></trkpt><trkpt lat="45.0185059" lon="11.7778702"><ele>2.333333333333333</ele><time>2026-04-07T16:30:03.571Z</time></trkpt><trkpt lat="45.0185153" lon="11.7777409"><ele>2.5</ele><time>2026-04-07T16:30:04.563Z</time></trkpt><trkpt lat="45.0185181" lon="11.7776167"><ele>2.6666666666666665</ele><time>2026-04-07T16:30:05.566Z</time></trkpt><trkpt lat="45.0185082" lon="11.7775106"><ele>2.8333333333333335</ele><time>2026-04-07T16:30:06.567Z</time></trkpt><trkpt lat="45.0184763" lon="11.7774165"><ele>3.0</ele><time>2026-04-07T16:30:07.57Z</time></trkpt><trkpt lat="45.0184256" lon="11.7773142"><ele>2.6</ele><time>2026-04-07T16:30:08.567Z</time></trkpt><trkpt lat="45.0183552" lon="11.7772102"><ele>2.1999999999999997</ele><time>2026-04-07T16:30:09.566Z</time></trkpt><trkpt lat="45.01827" lon="11.7771073"><ele>1.8</ele><time>2026-04-07T16:30:10.567Z</time></trkpt><trkpt lat="45.01818" lon="11.7770062"><ele>1.4</ele><time>2026-04-07T16:30:11.569Z</time></trkpt><trkpt lat="45.0181002" lon="11.7769072"><ele>1.0</ele><time>2026-04-07T16:30:12.578Z</time></trkpt><trkpt lat="45.0180364" lon="11.7768119"><ele>0.8333333333333333</ele><time>2026-04-07T16:30:13.568Z</time></trkpt><trkpt lat="45.0179773" lon="11.7767139"><ele>0.6666666666666666</ele><time>2026-04-07T16:30:14.575Z</time></trkpt><trkpt lat="45.0179221" lon="11.7766036"><ele>0.5</ele><time>2026-04-07T16:30:15.571Z</time></trkpt><trkpt lat="45.01787" lon="11.7765071"><ele>0.3333333333333333</ele><time>2026-04-07T16:30:16.576Z</time></trkpt><trkpt lat="45.0178182" lon="11.7764181"><ele>0.16666666666666666</ele><time>2026-04-07T16:30:17.582Z</time></trkpt><trkpt lat="45.0177635" lon="11.7763375"><ele>0.0</ele><time>2026-04-07T16:30:18.575Z</time></trkpt><trkpt lat="45.0177001" lon="11.7762744"><ele>0.0</ele><time>2026-04-07T16:30:19.574Z</time></trkpt><trkpt lat="45.0176216" lon="11.7762254"><ele>0.0</ele><time>2026-04-07T16:30:20.571Z</time></trkpt><trkpt lat="45.0175337" lon="11.7762123"><ele>0.0</ele><time>2026-04-07T16:30:21.569Z</time></trkpt><trkpt lat="45.0174447" lon="11.7762208"><ele>0.0</ele><time>2026-04-07T16:30:22.579Z</time></trkpt><trkpt lat="45.0173493" lon="11.7762409"><ele>0.0</ele><time>2026-04-07T16:30:23.572Z</time></trkpt><trkpt lat="45.0172627" lon="11.7762551"><ele>0.0</ele><time>2026-04-07T16:30:24.575Z</time></trkpt><trkpt lat="45.0171832" lon="11.7762651"><ele>0.14285714285714285</ele><time>2026-04-07T16:30:25.598Z</time></trkpt><trkpt lat="45.0171116" lon="11.776258"><ele>0.2857142857142857</ele><time>2026-04-07T16:30:26.573Z</time></trkpt><trkpt lat="45.0170465" lon="11.7762359"><ele>0.42857142857142855</ele><time>2026-04-07T16:30:27.567Z</time></trkpt><trkpt lat="45.0169893" lon="11.7761945"><ele>0.5714285714285714</ele><time>2026-04-07T16:30:28.577Z</time></trkpt><trkpt lat="45.0169389" lon="11.7761378"><ele>0.7142857142857142</ele><time>2026-04-07T16:30:29.573Z</time></trkpt><trkpt lat="45.0168862" lon="11.7760789"><ele>0.8571428571428571</ele><time>2026-04-07T16:30:30.576Z</time></trkpt><trkpt lat="45.0168284" lon="11.7760221"><ele>1.0</ele><time>2026-04-07T16:30:31.581Z</time></trkpt><trkpt lat="45.016769" lon="11.7759716"><ele>1.0</ele><time>2026-04-07T16:30:32.577Z</time></trkpt><trkpt lat="45.0167056" lon="11.7759283"><ele>0.9999999999999999</ele><time>2026-04-07T16:30:33.571Z</time></trkpt><trkpt lat="45.0166391" lon="11.7758844"><ele>1.0</ele><time>2026-04-07T16:30:34.574Z</time></trkpt><trkpt lat="45.0165785" lon="11.7758419"><ele>1.0</ele><time>2026-04-07T16:30:35.568Z</time></trkpt><trkpt lat="45.0165169" lon="11.7758002"><ele>0.9999999999999999</ele><time>2026-04-07T16:30:36.571Z</time></trkpt><trkpt lat="45.0164598" lon="11.7757591"><ele>1.0</ele><time>2026-04-07T16:30:37.572Z</time></trkpt><trkpt lat="45.0164022" lon="11.7757119"><ele>1.0</ele><time>2026-04-07T16:30:38.576Z</time></trkpt><trkpt lat="45.0163499" lon="11.7756504"><ele>1.2000000000000002</ele><time>2026-04-07T16:30:39.582Z</time></trkpt><trkpt lat="45.0162829" lon="11.7755828"><ele>1.4000000000000001</ele><time>2026-04-07T16:30:40.571Z</time></trkpt><trkpt lat="45.0162164" lon="11.7754942"><ele>1.6</ele><time>2026-04-07T16:30:41.575Z</time></trkpt><trkpt lat="45.0161399" lon="11.7754005"><ele>1.8</ele><time>2026-04-07T16:30:42.571Z</time></trkpt><trkpt lat="45.0160569" lon="11.7753047"><ele>2.0</ele><time>2026-04-07T16:30:43.577Z</time></trkpt><trkpt lat="45.0159729" lon="11.7752047"><ele>1.75</ele><time>2026-04-07T16:30:44.576Z</time></trkpt><trkpt lat="45.0158871" lon="11.7751109"><ele>1.5</ele><time>2026-04-07T16:30:45.572Z</time></trkpt><trkpt lat="45.0157888" lon="11.7750112"><ele>1.25</ele><time>2026-04-07T16:30:46.57Z</time></trkpt><trkpt lat="45.0156931" lon="11.774917"><ele>1.0</ele><time>2026-04-07T16:30:47.578Z</time></trkpt><trkpt lat="45.0156035" lon="11.7748232"><ele>1.0</ele><time>2026-04-07T16:30:48.571Z</time></trkpt><trkpt lat="45.0155211" lon="11.7747109"><ele>1.0</ele><time>2026-04-07T16:30:49.579Z</time></trkpt><trkpt lat="45.0154482" lon="11.774592"><ele>1.0</ele><time>2026-04-07T16:30:50.578Z</time></trkpt><trkpt lat="45.0153842" lon="11.7744812"><ele>1.0</ele><time>2026-04-07T16:30:51.578Z</time></trkpt><trkpt lat="45.0153273" lon="11.7743834"><ele>1.0</ele><time>2026-04-07T16:30:52.579Z</time></trkpt><trkpt lat="45.0152748" lon="11.774306"><ele>0.9999999999999999</ele><time>2026-04-07T16:30:53.578Z</time></trkpt><trkpt lat="45.015214" lon="11.7742468"><ele>1.0</ele><time>2026-04-07T16:30:54.567Z</time></trkpt><trkpt lat="45.0151495" lon="11.7742048"><ele>1.0</ele><time>2026-04-07T16:30:55.572Z</time></trkpt><trkpt lat="45.0150663" lon="11.7741736"><ele>1.0</ele><time>2026-04-07T16:30:56.571Z</time></trkpt><trkpt lat="45.0149899" lon="11.7741584"><ele>0.9999999999999999</ele><time>2026-04-07T16:30:57.573Z</time></trkpt><trkpt lat="45.0149171" lon="11.7741126"><ele>1.0</ele><time>2026-04-07T16:30:58.568Z</time></trkpt><trkpt lat="45.0148537" lon="11.7740449"><ele>1.0</ele><time>2026-04-07T16:30:59.566Z</time></trkpt><trkpt lat="45.0147823" lon="11.7739473"><ele>1.0</ele><time>2026-04-07T16:31:00.569Z</time></trkpt><trkpt lat="45.0147163" lon="11.7738308"><ele>1.0</ele><time>2026-04-07T16:31:01.577Z</time></trkpt><trkpt lat="45.0146548" lon="11.7736929"><ele>1.0</ele><time>2026-04-07T16:31:02.57Z</time></trkpt><trkpt lat="45.0146026" lon="11.7735315"><ele>1.0</ele><time>2026-04-07T16:31:03.57Z</time></trkpt><trkpt lat="45.0145612" lon="11.7733719"><ele>0.8</ele><time>2026-04-07T16:31:04.575Z</time></trkpt><trkpt lat="45.0145186" lon="11.7732308"><ele>0.6000000000000001</ele><time>2026-04-07T16:31:05.57Z</time></trkpt><trkpt lat="45.0144716" lon="11.773073"><ele>0.4</ele><time>2026-04-07T16:31:06.568Z</time></trkpt><trkpt lat="45.0144306" lon="11.7729334"><ele>0.2</ele><time>2026-04-07T16:31:07.569Z</time></trkpt><trkpt lat="45.0143715" lon="11.7728339"><ele>0.0</ele><time>2026-04-07T16:31:08.57Z</time></trkpt><trkpt lat="45.0142961" lon="11.7727324"><ele>0.0</ele><time>2026-04-07T16:31:09.565Z</time></trkpt><trkpt lat="45.0142079" lon="11.7726425"><ele>0.0</ele><time>2026-04-07T16:31:10.566Z</time></trkpt><trkpt lat="45.0141064" lon="11.7725762"><ele>0.0</ele><time>2026-04-07T16:31:11.568Z</time></trkpt><trkpt lat="45.014001" lon="11.7725154"><ele>0.0</ele><time>2026-04-07T16:31:12.65Z</time></trkpt><trkpt lat="45.0138941" lon="11.7724571"><ele>0.0</ele><time>2026-04-07T16:31:13.578Z</time></trkpt><trkpt lat="45.013794" lon="11.7723905"><ele>0.25</ele><time>2026-04-07T16:31:14.568Z</time></trkpt><trkpt lat="45.0137021" lon="11.7723124"><ele>0.5</ele><time>2026-04-07T16:31:15.574Z</time></trkpt><trkpt lat="45.0136209" lon="11.7722377"><ele>0.75</ele><time>2026-04-07T16:31:16.734Z</time></trkpt><trkpt lat="45.0134439" lon="11.7721198"><ele>1.0</ele><time>2026-04-07T16:31:18.593Z</time></trkpt><trkpt lat="45.013347" lon="11.7720927"><ele>0.9999999999999999</ele><time>2026-04-07T16:31:19.58Z</time></trkpt><trkpt lat="45.0132563" lon="11.7720676"><ele>1.0</ele><time>2026-04-07T16:31:20.574Z</time></trkpt><trkpt lat="45.0131786" lon="11.772037"><ele>1.0</ele><time>2026-04-07T16:31:21.571Z</time></trkpt><trkpt lat="45.0131105" lon="11.7719877"><ele>1.0</ele><time>2026-04-07T16:31:22.562Z</time></trkpt><trkpt lat="45.0130436" lon="11.7719106"><ele>0.9999999999999999</ele><time>2026-04-07T16:31:23.568Z</time></trkpt><trkpt lat="45.0129882" lon="11.771817"><ele>1.0</ele><time>2026-04-07T16:31:24.569Z</time></trkpt><trkpt lat="45.0129402" lon="11.771719"><ele>0.8</ele><time>2026-04-07T16:31:25.568Z</time></trkpt><trkpt lat="45.0128946" lon="11.7716148"><ele>0.6000000000000001</ele><time>2026-04-07T16:31:26.569Z</time></trkpt><trkpt lat="45.0128515" lon="11.7714889"><ele>0.4</ele><time>2026-04-07T16:31:27.571Z</time></trkpt><trkpt lat="45.0128164" lon="11.7713138"><ele>0.2</ele><time>2026-04-07T16:31:28.565Z</time></trkpt><trkpt lat="45.0127666" lon="11.7711377"><ele>0.0</ele><time>2026-04-07T16:31:29.576Z</time></trkpt><trkpt lat="45.0127114" lon="11.7709492"><ele>0.6666666666666666</ele><time>2026-04-07T16:31:30.567Z</time></trkpt><trkpt lat="45.0126754" lon="11.7707025"><ele>1.3333333333333333</ele><time>2026-04-07T16:31:31.574Z</time></trkpt><trkpt lat="45.0126535" lon="11.7704719"><ele>2.0</ele><time>2026-04-07T16:31:32.572Z</time></trkpt><trkpt lat="45.0126127" lon="11.7702642"><ele>2.25</ele><time>2026-04-07T16:31:33.568Z</time></trkpt><trkpt lat="45.0125843" lon="11.7700881"><ele>2.5</ele><time>2026-04-07T16:31:34.568Z</time></trkpt><trkpt lat="45.0125226" lon="11.7699388"><ele>2.75</ele><time>2026-04-07T16:31:35.569Z</time></trkpt><trkpt lat="45.0124786" lon="11.7698224"><ele>3.0</ele><time>2026-04-07T16:31:36.564Z</time></trkpt><trkpt lat="45.012374" lon="11.7696986"><ele>2.6666666666666665</ele><time>2026-04-07T16:31:37.567Z</time></trkpt><trkpt lat="45.012331" lon="11.7696332"><ele>2.3333333333333335</ele><time>2026-04-07T16:31:38.568Z</time></trkpt><trkpt lat="45.0122477" lon="11.769558"><ele>2.0</ele><time>2026-04-07T16:31:39.569Z</time></trkpt><trkpt lat="45.0121877" lon="11.7695087"><ele>1.6666666666666665</ele><time>2026-04-07T16:31:40.569Z</time></trkpt><trkpt lat="45.0121233" lon="11.7694274"><ele>1.3333333333333333</ele><time>2026-04-07T16:31:42.562Z</time></trkpt><trkpt lat="45.0121062" lon="11.7693184"><ele>1.0</ele><time>2026-04-07T16:31:45.565Z</time></trkpt><trkpt lat="45.0121351" lon="11.7692211"><ele>1.0</ele><time>2026-04-07T16:31:46.572Z</time></trkpt><trkpt lat="45.0121869" lon="11.7690934"><ele>1.0</ele><time>2026-04-07T16:31:47.569Z</time></trkpt><trkpt lat="45.0122467" lon="11.7689505"><ele>1.0</ele><time>2026-04-07T16:31:48.562Z</time></trkpt><trkpt lat="45.0122958" lon="11.7688007"><ele>1.0</ele><time>2026-04-07T16:31:49.575Z</time></trkpt><trkpt lat="45.0123251" lon="11.7686346"><ele>1.25</ele><time>2026-04-07T16:31:50.561Z</time></trkpt><trkpt lat="45.0123394" lon="11.7684748"><ele>1.5</ele><time>2026-04-07T16:31:51.567Z</time></trkpt><trkpt lat="45.012347" lon="11.768289"><ele>1.75</ele><time>2026-04-07T16:31:52.583Z</time></trkpt><trkpt lat="45.0123174" lon="11.7681063"><ele>2.0</ele><time>2026-04-07T16:31:53.57Z</time></trkpt><trkpt lat="45.012275" lon="11.767933"><ele>1.9999999999999998</ele><time>2026-04-07T16:31:54.56Z</time></trkpt><trkpt lat="45.0122361" lon="11.7677868"><ele>2.0</ele><time>2026-04-07T16:31:55.567Z</time></trkpt><trkpt lat="45.0121958" lon="11.7676578"><ele>2.0</ele><time>2026-04-07T16:31:56.558Z</time></trkpt><trkpt lat="45.0121614" lon="11.7675589"><ele>2.0</ele><time>2026-04-07T16:31:57.565Z</time></trkpt><trkpt lat="45.012136" lon="11.7674578"><ele>1.9999999999999998</ele><time>2026-04-07T16:31:59.56Z</time></trkpt><trkpt lat="45.0121282" lon="11.7673493"><ele>2.0</ele><time>2026-04-07T16:32:41.572Z</time></trkpt><trkpt lat="45.0120257" lon="11.7672804"><ele>2.333333333333333</ele><time>2026-04-07T16:32:43.571Z</time></trkpt><trkpt lat="45.0118995" lon="11.7672088"><ele>2.6666666666666665</ele><time>2026-04-07T16:32:44.595Z</time></trkpt><trkpt lat="45.0117329" lon="11.7670993"><ele>3.0</ele><time>2026-04-07T16:32:45.565Z</time></trkpt><trkpt lat="45.0115469" lon="11.7670049"><ele>3.0</ele><time>2026-04-07T16:32:46.573Z</time></trkpt><trkpt lat="45.01128" lon="11.7669074"><ele>3.0</ele><time>2026-04-07T16:32:47.575Z</time></trkpt><trkpt lat="45.0110427" lon="11.7668227"><ele>3.5</ele><time>2026-04-07T16:32:48.569Z</time></trkpt><trkpt lat="45.0108157" lon="11.7667355"><ele>4.0</ele><time>2026-04-07T16:32:49.577Z</time></trkpt><trkpt lat="45.0105919" lon="11.7666224"><ele>4.0</ele><time>2026-04-07T16:32:50.575Z</time></trkpt><trkpt lat="45.0104127" lon="11.7665698"><ele>4.0</ele><time>2026-04-07T16:32:51.566Z</time></trkpt><trkpt lat="45.01024" lon="11.7664903"><ele>4.0</ele><time>2026-04-07T16:32:52.576Z</time></trkpt><trkpt lat="45.0100876" lon="11.7664066"><ele>3.333333333333333</ele><time>2026-04-07T16:32:53.57Z</time></trkpt><trkpt lat="45.0099539" lon="11.7663407"><ele>2.6666666666666665</ele><time>2026-04-07T16:32:54.569Z</time></trkpt><trkpt lat="45.0098285" lon="11.7662272"><ele>2.0</ele><time>2026-04-07T16:32:55.573Z</time></trkpt><trkpt lat="45.0096516" lon="11.7661364"><ele>2.0</ele><time>2026-04-07T16:32:56.572Z</time></trkpt><trkpt lat="45.0095091" lon="11.766055"><ele>2.0</ele><time>2026-04-07T16:32:57.571Z</time></trkpt><trkpt lat="45.0093391" lon="11.7659742"><ele>2.0</ele><time>2026-04-07T16:32:58.574Z</time></trkpt><trkpt lat="45.0091512" lon="11.7658941"><ele>2.6666666666666665</ele><time>2026-04-07T16:32:59.57Z</time></trkpt><trkpt lat="45.0089856" lon="11.7658183"><ele>3.333333333333333</ele><time>2026-04-07T16:33:00.565Z</time></trkpt><trkpt lat="45.0088384" lon="11.7657211"><ele>4.0</ele><time>2026-04-07T16:33:01.572Z</time></trkpt><trkpt lat="45.0086659" lon="11.7656275"><ele>4.0</ele><time>2026-04-07T16:33:02.563Z</time></trkpt><trkpt lat="45.0084839" lon="11.7655529"><ele>4.0</ele><time>2026-04-07T16:33:03.568Z</time></trkpt><trkpt lat="45.0083497" lon="11.765506"><ele>4.0</ele><time>2026-04-07T16:33:04.57Z</time></trkpt><trkpt lat="45.0082215" lon="11.7654341"><ele>4.0</ele><time>2026-04-07T16:33:05.574Z</time></trkpt><trkpt lat="45.008079" lon="11.7653649"><ele>4.0</ele><time>2026-04-07T16:33:06.568Z</time></trkpt><trkpt lat="45.0079185" lon="11.7652883"><ele>4.0</ele><time>2026-04-07T16:33:07.575Z</time></trkpt><trkpt lat="45.0077547" lon="11.765211"><ele>4.0</ele><time>2026-04-07T16:33:08.571Z</time></trkpt><trkpt lat="45.0076035" lon="11.7651443"><ele>4.0</ele><time>2026-04-07T16:33:09.574Z</time></trkpt><trkpt lat="45.0074783" lon="11.7650779"><ele>4.0</ele><time>2026-04-07T16:33:10.57Z</time></trkpt><trkpt lat="45.0073557" lon="11.7650203"><ele>4.0</ele><time>2026-04-07T16:33:11.577Z</time></trkpt><trkpt lat="45.0072371" lon="11.7649398"><ele>3.75</ele><time>2026-04-07T16:33:12.569Z</time></trkpt><trkpt lat="45.0071141" lon="11.7648722"><ele>3.5</ele><time>2026-04-07T16:33:13.577Z</time></trkpt><trkpt lat="45.0069811" lon="11.7648095"><ele>3.25</ele><time>2026-04-07T16:33:14.572Z</time></trkpt><trkpt lat="45.0068406" lon="11.7647344"><ele>3.0</ele><time>2026-04-07T16:33:15.572Z</time></trkpt><trkpt lat="45.0066961" lon="11.7646503"><ele>2.5</ele><time>2026-04-07T16:33:16.571Z</time></trkpt><trkpt lat="45.0065515" lon="11.7646025"><ele>2.0</ele><time>2026-04-07T16:33:17.576Z</time></trkpt><trkpt lat="45.0064285" lon="11.7645747"><ele>1.5</ele><time>2026-04-07T16:33:18.57Z</time></trkpt><trkpt lat="45.0062896" lon="11.7645604"><ele>1.0</ele><time>2026-04-07T16:33:19.577Z</time></trkpt><trkpt lat="45.0061633" lon="11.7645355"><ele>1.0</ele><time>2026-04-07T16:33:20.573Z</time></trkpt><trkpt lat="45.0060111" lon="11.7645065"><ele>1.0</ele><time>2026-04-07T16:33:21.578Z</time></trkpt><trkpt lat="45.0058333" lon="11.7644439"><ele>1.0</ele><time>2026-04-07T16:33:22.575Z</time></trkpt><trkpt lat="45.0056651" lon="11.7643982"><ele>1.0</ele><time>2026-04-07T16:33:23.577Z</time></trkpt><trkpt lat="45.0054942" lon="11.7643837"><ele>1.0</ele><time>2026-04-07T16:33:24.573Z</time></trkpt><trkpt lat="45.0053322" lon="11.7643693"><ele>1.0</ele><time>2026-04-07T16:33:25.569Z</time></trkpt><trkpt lat="45.0051666" lon="11.7643357"><ele>1.3333333333333333</ele><time>2026-04-07T16:33:26.573Z</time></trkpt><trkpt lat="45.0049596" lon="11.7642916"><ele>1.6666666666666665</ele><time>2026-04-07T16:33:27.574Z</time></trkpt><trkpt lat="45.0047869" lon="11.7642551"><ele>2.0</ele><time>2026-04-07T16:33:28.579Z</time></trkpt><trkpt lat="45.0046163" lon="11.7642078"><ele>2.0</ele><time>2026-04-07T16:33:29.575Z</time></trkpt><trkpt lat="45.0044443" lon="11.7641747"><ele>2.0</ele><time>2026-04-07T16:33:30.564Z</time></trkpt><trkpt lat="45.0043087" lon="11.764155"><ele>2.0</ele><time>2026-04-07T16:33:31.574Z</time></trkpt><trkpt lat="45.0041834" lon="11.7641395"><ele>2.0</ele><time>2026-04-07T16:33:32.573Z</time></trkpt><trkpt lat="45.0040519" lon="11.7640755"><ele>2.4000000000000004</ele><time>2026-04-07T16:33:33.568Z</time></trkpt><trkpt lat="45.0039551" lon="11.7640313"><ele>2.8000000000000003</ele><time>2026-04-07T16:33:34.568Z</time></trkpt><trkpt lat="45.0038611" lon="11.764032"><ele>3.2</ele><time>2026-04-07T16:33:36.607Z</time></trkpt><trkpt lat="45.0037913" lon="11.7640002"><ele>3.6</ele><time>2026-04-07T16:35:09.565Z</time></trkpt><trkpt lat="45.0036825" lon="11.7639703"><ele>4.0</ele><time>2026-04-07T16:35:14.571Z</time></trkpt><trkpt lat="45.0035975" lon="11.7639534"><ele>4.0</ele><time>2026-04-07T16:35:15.569Z</time></trkpt><trkpt lat="45.003492" lon="11.7639284"><ele>4.0</ele><time>2026-04-07T16:35:16.576Z</time></trkpt><trkpt lat="45.0033802" lon="11.763903"><ele>4.0</ele><time>2026-04-07T16:35:17.573Z</time></trkpt><trkpt lat="45.0032738" lon="11.7638921"><ele>4.0</ele><time>2026-04-07T16:35:18.562Z</time></trkpt><trkpt lat="45.0031465" lon="11.7638834"><ele>3.333333333333333</ele><time>2026-04-07T16:35:19.573Z</time></trkpt><trkpt lat="45.0030029" lon="11.7638708"><ele>2.6666666666666665</ele><time>2026-04-07T16:35:20.571Z</time></trkpt><trkpt lat="45.0028528" lon="11.763854"><ele>2.0</ele><time>2026-04-07T16:35:21.576Z</time></trkpt><trkpt lat="45.0026599" lon="11.7638001"><ele>2.333333333333333</ele><time>2026-04-07T16:35:22.583Z</time></trkpt><trkpt lat="45.0024791" lon="11.7637636"><ele>2.6666666666666665</ele><time>2026-04-07T16:35:23.573Z</time></trkpt><trkpt lat="45.0023404" lon="11.7637076"><ele>3.0</ele><time>2026-04-07T16:35:24.563Z</time></trkpt><trkpt lat="45.002188" lon="11.7636561"><ele>3.0</ele><time>2026-04-07T16:35:25.576Z</time></trkpt><trkpt lat="45.0020406" lon="11.7636206"><ele>3.0</ele><time>2026-04-07T16:35:26.574Z</time></trkpt><trkpt lat="45.0019075" lon="11.7636064"><ele>3.0</ele><time>2026-04-07T16:35:27.567Z</time></trkpt><trkpt lat="45.0017214" lon="11.7635287"><ele>3.666666666666667</ele><time>2026-04-07T16:35:28.575Z</time></trkpt><trkpt lat="45.0015281" lon="11.7634515"><ele>4.333333333333334</ele><time>2026-04-07T16:35:29.596Z</time></trkpt><trkpt lat="45.0013393" lon="11.7634001"><ele>5.0</ele><time>2026-04-07T16:35:30.564Z</time></trkpt><trkpt lat="45.0011561" lon="11.7633922"><ele>5.0</ele><time>2026-04-07T16:35:31.578Z</time></trkpt><trkpt lat="45.0009791" lon="11.7633842"><ele>5.0</ele><time>2026-04-07T16:35:32.593Z</time></trkpt><trkpt lat="45.0008117" lon="11.7633486"><ele>5.0</ele><time>2026-04-07T16:35:33.576Z</time></trkpt><trkpt lat="45.0006584" lon="11.7633119"><ele>4.75</ele><time>2026-04-07T16:35:34.573Z</time></trkpt><trkpt lat="45.0005359" lon="11.7632785"><ele>4.5</ele><time>2026-04-07T16:35:35.572Z</time></trkpt><trkpt lat="45.0004152" lon="11.7632541"><ele>4.25</ele><time>2026-04-07T16:35:36.564Z</time></trkpt><trkpt lat="45.0003019" lon="11.7632324"><ele>4.0</ele><time>2026-04-07T16:35:37.571Z</time></trkpt><trkpt lat="45.000176" lon="11.7632066"><ele>4.0</ele><time>2026-04-07T16:35:38.57Z</time></trkpt><trkpt lat="45.0000379" lon="11.7631741"><ele>4.0</ele><time>2026-04-07T16:35:39.566Z</time></trkpt><trkpt lat="44.9999125" lon="11.7631433"><ele>4.0</ele><time>2026-04-07T16:35:40.577Z</time></trkpt><trkpt lat="44.9997871" lon="11.7631159"><ele>4.0</ele><time>2026-04-07T16:35:41.572Z</time></trkpt><trkpt lat="44.9996612" lon="11.7630802"><ele>4.0</ele><time>2026-04-07T16:35:42.585Z</time></trkpt><trkpt lat="44.9995344" lon="11.7630464"><ele>4.0</ele><time>2026-04-07T16:35:43.57Z</time></trkpt><trkpt lat="44.9994033" lon="11.7630177"><ele>4.0</ele><time>2026-04-07T16:35:44.593Z</time></trkpt><trkpt lat="44.9992698" lon="11.7629887"><ele>4.0</ele><time>2026-04-07T16:35:45.595Z</time></trkpt><trkpt lat="44.9991295" lon="11.7629732"><ele>3.75</ele><time>2026-04-07T16:35:46.572Z</time></trkpt><trkpt lat="44.9989838" lon="11.7629482"><ele>3.5</ele><time>2026-04-07T16:35:47.576Z</time></trkpt><trkpt lat="44.9988586" lon="11.7629385"><ele>3.25</ele><time>2026-04-07T16:35:48.572Z</time></trkpt><trkpt lat="44.9986961" lon="11.7628988"><ele>3.0</ele><time>2026-04-07T16:35:49.562Z</time></trkpt><trkpt lat="44.9985321" lon="11.7628771"><ele>2.5</ele><time>2026-04-07T16:35:50.733Z</time></trkpt><trkpt lat="44.998236" lon="11.7627907"><ele>2.0</ele><time>2026-04-07T16:35:52.568Z</time></trkpt><trkpt lat="44.998073" lon="11.7627517"><ele>2.0</ele><time>2026-04-07T16:35:53.592Z</time></trkpt><trkpt lat="44.9979073" lon="11.7627092"><ele>2.0</ele><time>2026-04-07T16:35:54.73Z</time></trkpt><trkpt lat="44.9976135" lon="11.7626543"><ele>2.5</ele><time>2026-04-07T16:35:56.572Z</time></trkpt><trkpt lat="44.9974615" lon="11.7626292"><ele>3.0</ele><time>2026-04-07T16:35:57.732Z</time></trkpt><trkpt lat="44.9971429" lon="11.7625699"><ele>3.0</ele><time>2026-04-07T16:35:59.575Z</time></trkpt><trkpt lat="44.9969791" lon="11.7625255"><ele>3.0</ele><time>2026-04-07T16:36:00.59Z</time></trkpt><trkpt lat="44.9968021" lon="11.7624909"><ele>3.0</ele><time>2026-04-07T16:36:01.57Z</time></trkpt><trkpt lat="44.9966306" lon="11.7624598"><ele>2.6666666666666665</ele><time>2026-04-07T16:36:02.569Z</time></trkpt><trkpt lat="44.9964592" lon="11.7624379"><ele>2.333333333333333</ele><time>2026-04-07T16:36:03.566Z</time></trkpt><trkpt lat="44.9962863" lon="11.7624002"><ele>2.0</ele><time>2026-04-07T16:36:04.566Z</time></trkpt><trkpt lat="44.9961022" lon="11.7623543"><ele>2.0</ele><time>2026-04-07T16:36:05.575Z</time></trkpt><trkpt lat="44.9959148" lon="11.7623112"><ele>2.0</ele><time>2026-04-07T16:36:06.567Z</time></trkpt><trkpt lat="44.9956966" lon="11.7622545"><ele>2.0</ele><time>2026-04-07T16:36:07.57Z</time></trkpt><trkpt lat="44.9954766" lon="11.7622093"><ele>2.333333333333333</ele><time>2026-04-07T16:36:08.578Z</time></trkpt><trkpt lat="44.9952578" lon="11.7621727"><ele>2.6666666666666665</ele><time>2026-04-07T16:36:09.572Z</time></trkpt><trkpt lat="44.9950441" lon="11.7621386"><ele>3.0</ele><time>2026-04-07T16:36:10.567Z</time></trkpt><trkpt lat="44.9948359" lon="11.7620957"><ele>3.0</ele><time>2026-04-07T16:36:11.579Z</time></trkpt><trkpt lat="44.9946489" lon="11.7620665"><ele>3.0</ele><time>2026-04-07T16:36:12.566Z</time></trkpt><trkpt lat="44.9944853" lon="11.7620367"><ele>3.0</ele><time>2026-04-07T16:36:13.59Z</time></trkpt><trkpt lat="44.9943006" lon="11.7619794"><ele>2.6666666666666665</ele><time>2026-04-07T16:36:14.569Z</time></trkpt><trkpt lat="44.9941208" lon="11.7619234"><ele>2.333333333333333</ele><time>2026-04-07T16:36:15.571Z</time></trkpt><trkpt lat="44.993944" lon="11.7618951"><ele>2.0</ele><time>2026-04-07T16:36:16.568Z</time></trkpt><trkpt lat="44.9937719" lon="11.7618338"><ele>2.0</ele><time>2026-04-07T16:36:17.572Z</time></trkpt><trkpt lat="44.9935996" lon="11.7618112"><ele>2.0</ele><time>2026-04-07T16:36:18.566Z</time></trkpt><trkpt lat="44.9934331" lon="11.7617941"><ele>2.0</ele><time>2026-04-07T16:36:19.565Z</time></trkpt><trkpt lat="44.9932613" lon="11.7617649"><ele>2.25</ele><time>2026-04-07T16:36:20.571Z</time></trkpt><trkpt lat="44.9931032" lon="11.7617329"><ele>2.5</ele><time>2026-04-07T16:36:21.566Z</time></trkpt><trkpt lat="44.9929547" lon="11.7617016"><ele>2.75</ele><time>2026-04-07T16:36:22.566Z</time></trkpt><trkpt lat="44.9928267" lon="11.7616729"><ele>3.0</ele><time>2026-04-07T16:36:23.565Z</time></trkpt><trkpt lat="44.9926825" lon="11.7616531"><ele>3.0</ele><time>2026-04-07T16:36:24.566Z</time></trkpt><trkpt lat="44.9925002" lon="11.7616332"><ele>3.0</ele><time>2026-04-07T16:36:25.569Z</time></trkpt><trkpt lat="44.9923055" lon="11.7616214"><ele>3.0</ele><time>2026-04-07T16:36:26.572Z</time></trkpt><trkpt lat="44.9920917" lon="11.7615893"><ele>3.0</ele><time>2026-04-07T16:36:27.569Z</time></trkpt><trkpt lat="44.9918654" lon="11.7615235"><ele>3.0</ele><time>2026-04-07T16:36:28.574Z</time></trkpt><trkpt lat="44.9916092" lon="11.7614568"><ele>3.0</ele><time>2026-04-07T16:36:29.574Z</time></trkpt><trkpt lat="44.9913781" lon="11.7613837"><ele>3.0</ele><time>2026-04-07T16:36:30.569Z</time></trkpt><trkpt lat="44.9911335" lon="11.7613265"><ele>3.0</ele><time>2026-04-07T16:36:31.572Z</time></trkpt><trkpt lat="44.9909015" lon="11.7612756"><ele>3.0</ele><time>2026-04-07T16:36:32.572Z</time></trkpt><trkpt lat="44.9906829" lon="11.7612101"><ele>3.0</ele><time>2026-04-07T16:36:33.564Z</time></trkpt><trkpt lat="44.990447" lon="11.7611597"><ele>3.0</ele><time>2026-04-07T16:36:34.572Z</time></trkpt><trkpt lat="44.990243" lon="11.7611076"><ele>3.0</ele><time>2026-04-07T16:36:35.882Z</time></trkpt><trkpt lat="44.9897595" lon="11.7610214"><ele>1.5</ele><time>2026-04-07T16:36:37.565Z</time></trkpt><trkpt lat="44.9895055" lon="11.7609615"><ele>0.0</ele><time>2026-04-07T16:36:38.565Z</time></trkpt><trkpt lat="44.9892414" lon="11.7608998"><ele>0.0</ele><time>2026-04-07T16:36:39.553Z</time></trkpt><trkpt lat="44.988972" lon="11.7608532"><ele>0.0</ele><time>2026-04-07T16:36:40.564Z</time></trkpt><trkpt lat="44.9886893" lon="11.7607901"><ele>0.0</ele><time>2026-04-07T16:36:41.565Z</time></trkpt><trkpt lat="44.9884321" lon="11.7607435"><ele>0.0</ele><time>2026-04-07T16:36:42.56Z</time></trkpt><trkpt lat="44.988191" lon="11.7607047"><ele>-0.5</ele><time>2026-04-07T16:36:43.571Z</time></trkpt><trkpt lat="44.987912" lon="11.7606555"><ele>-1.0</ele><time>2026-04-07T16:36:44.576Z</time></trkpt><trkpt lat="44.9876498" lon="11.760602"><ele>-0.5</ele><time>2026-04-07T16:36:45.567Z</time></trkpt><trkpt lat="44.9873827" lon="11.760538"><ele>0.0</ele><time>2026-04-07T16:36:46.569Z</time></trkpt><trkpt lat="44.9871295" lon="11.7604755"><ele>0.0</ele><time>2026-04-07T16:36:47.576Z</time></trkpt><trkpt lat="44.9868877" lon="11.7604209"><ele>0.0</ele><time>2026-04-07T16:36:48.564Z</time></trkpt><trkpt lat="44.9866496" lon="11.76037"><ele>0.0</ele><time>2026-04-07T16:36:49.573Z</time></trkpt><trkpt lat="44.9864183" lon="11.7603477"><ele>0.0</ele><time>2026-04-07T16:36:50.567Z</time></trkpt><trkpt lat="44.9861942" lon="11.7602955"><ele>0.0</ele><time>2026-04-07T16:36:51.563Z</time></trkpt><trkpt lat="44.985954" lon="11.7602325"><ele>0.0</ele><time>2026-04-07T16:36:52.569Z</time></trkpt><trkpt lat="44.985708" lon="11.7601684"><ele>0.0</ele><time>2026-04-07T16:36:53.574Z</time></trkpt><trkpt lat="44.9854688" lon="11.7601226"><ele>0.0</ele><time>2026-04-07T16:36:54.566Z</time></trkpt><trkpt lat="44.9852355" lon="11.7600856"><ele>0.0</ele><time>2026-04-07T16:36:55.572Z</time></trkpt><trkpt lat="44.9849938" lon="11.7600266"><ele>0.0</ele><time>2026-04-07T16:36:56.57Z</time></trkpt><trkpt lat="44.9847366" lon="11.7599786"><ele>0.0</ele><time>2026-04-07T16:36:57.566Z</time></trkpt><trkpt lat="44.984472" lon="11.7599276"><ele>0.0</ele><time>2026-04-07T16:36:58.567Z</time></trkpt><trkpt lat="44.984216" lon="11.7598885"><ele>0.5</ele><time>2026-04-07T16:36:59.565Z</time></trkpt><trkpt lat="44.983977" lon="11.7598463"><ele>1.0</ele><time>2026-04-07T16:37:00.563Z</time></trkpt><trkpt lat="44.9837305" lon="11.7597934"><ele>1.0</ele><time>2026-04-07T16:37:01.567Z</time></trkpt><trkpt lat="44.9835118" lon="11.7597362"><ele>1.0</ele><time>2026-04-07T16:37:02.566Z</time></trkpt><trkpt lat="44.9832905" lon="11.7596843"><ele>1.0</ele><time>2026-04-07T16:37:03.561Z</time></trkpt><trkpt lat="44.9830586" lon="11.7596334"><ele>0.5</ele><time>2026-04-07T16:37:04.562Z</time></trkpt><trkpt lat="44.9828383" lon="11.7595836"><ele>0.0</ele><time>2026-04-07T16:37:05.562Z</time></trkpt><trkpt lat="44.9826096" lon="11.7595285"><ele>0.0</ele><time>2026-04-07T16:37:06.591Z</time></trkpt><trkpt lat="44.9823773" lon="11.7594822"><ele>0.0</ele><time>2026-04-07T16:37:07.566Z</time></trkpt><trkpt lat="44.9821321" lon="11.7594289"><ele>0.0</ele><time>2026-04-07T16:37:08.586Z</time></trkpt><trkpt lat="44.9818939" lon="11.7593725"><ele>0.0</ele><time>2026-04-07T16:37:09.57Z</time></trkpt><trkpt lat="44.9816491" lon="11.7593117"><ele>0.3333333333333333</ele><time>2026-04-07T16:37:10.567Z</time></trkpt><trkpt lat="44.9814239" lon="11.7592551"><ele>0.6666666666666666</ele><time>2026-04-07T16:37:11.566Z</time></trkpt><trkpt lat="44.9812102" lon="11.7592054"><ele>1.0</ele><time>2026-04-07T16:37:12.569Z</time></trkpt><trkpt lat="44.9810099" lon="11.7591932"><ele>1.0</ele><time>2026-04-07T16:37:13.561Z</time></trkpt><trkpt lat="44.9808655" lon="11.7592032"><ele>1.0</ele><time>2026-04-07T16:37:14.573Z</time></trkpt><trkpt lat="44.9807045" lon="11.7591716"><ele>1.0</ele><time>2026-04-07T16:37:15.568Z</time></trkpt><trkpt lat="44.9805845" lon="11.7591373"><ele>1.0</ele><time>2026-04-07T16:37:16.566Z</time></trkpt><trkpt lat="44.9804614" lon="11.7591"><ele>1.0</ele><time>2026-04-07T16:37:17.568Z</time></trkpt><trkpt lat="44.9803104" lon="11.7590308"><ele>1.0</ele><time>2026-04-07T16:37:18.564Z</time></trkpt><trkpt lat="44.9801702" lon="11.7589929"><ele>1.0</ele><time>2026-04-07T16:37:19.564Z</time></trkpt><trkpt lat="44.9800298" lon="11.7590002"><ele>1.0</ele><time>2026-04-07T16:37:20.571Z</time></trkpt><trkpt lat="44.9798698" lon="11.7589898"><ele>1.0</ele><time>2026-04-07T16:37:21.572Z</time></trkpt><trkpt lat="44.9797132" lon="11.758946"><ele>1.0</ele><time>2026-04-07T16:37:22.561Z</time></trkpt><trkpt lat="44.9795745" lon="11.7588992"><ele>1.0</ele><time>2026-04-07T16:37:23.573Z</time></trkpt><trkpt lat="44.9794208" lon="11.7588866"><ele>1.0</ele><time>2026-04-07T16:37:24.566Z</time></trkpt><trkpt lat="44.9792697" lon="11.7588611"><ele>1.0</ele><time>2026-04-07T16:37:25.558Z</time></trkpt><trkpt lat="44.9791249" lon="11.7588202"><ele>1.0</ele><time>2026-04-07T16:37:26.56Z</time></trkpt><trkpt lat="44.9789628" lon="11.7587761"><ele>1.0</ele><time>2026-04-07T16:37:27.562Z</time></trkpt><trkpt lat="44.9787877" lon="11.758725"><ele>1.0</ele><time>2026-04-07T16:37:28.56Z</time></trkpt><trkpt lat="44.9786012" lon="11.7586968"><ele>1.0</ele><time>2026-04-07T16:37:29.566Z</time></trkpt><trkpt lat="44.9783971" lon="11.7586601"><ele>1.3333333333333333</ele><time>2026-04-07T16:37:30.562Z</time></trkpt><trkpt lat="44.97819" lon="11.7586167"><ele>1.6666666666666665</ele><time>2026-04-07T16:37:31.561Z</time></trkpt><trkpt lat="44.9780032" lon="11.7585941"><ele>2.0</ele><time>2026-04-07T16:37:32.566Z</time></trkpt><trkpt lat="44.9778309" lon="11.7585472"><ele>2.333333333333333</ele><time>2026-04-07T16:37:33.561Z</time></trkpt><trkpt lat="44.9776674" lon="11.7584457"><ele>2.6666666666666665</ele><time>2026-04-07T16:37:34.561Z</time></trkpt><trkpt lat="44.9775094" lon="11.7583127"><ele>3.0</ele><time>2026-04-07T16:37:35.563Z</time></trkpt><trkpt lat="44.9773279" lon="11.7581725"><ele>3.0</ele><time>2026-04-07T16:37:36.622Z</time></trkpt><trkpt lat="44.9771527" lon="11.7580109"><ele>3.0</ele><time>2026-04-07T16:37:37.554Z</time></trkpt><trkpt lat="44.97695" lon="11.7578645"><ele>3.0</ele><time>2026-04-07T16:37:38.561Z</time></trkpt><trkpt lat="44.9767465" lon="11.7577134"><ele>3.0</ele><time>2026-04-07T16:37:39.56Z</time></trkpt><trkpt lat="44.9765578" lon="11.7575758"><ele>3.0</ele><time>2026-04-07T16:37:40.579Z</time></trkpt><trkpt lat="44.9763847" lon="11.7574423"><ele>3.0</ele><time>2026-04-07T16:37:41.59Z</time></trkpt><trkpt lat="44.9762109" lon="11.7573019"><ele>3.0</ele><time>2026-04-07T16:37:42.564Z</time></trkpt><trkpt lat="44.9760303" lon="11.7571789"><ele>3.0</ele><time>2026-04-07T16:37:43.569Z</time></trkpt><trkpt lat="44.9758505" lon="11.7570334"><ele>3.0</ele><time>2026-04-07T16:37:44.573Z</time></trkpt><trkpt lat="44.9756498" lon="11.7568697"><ele>3.5</ele><time>2026-04-07T16:37:45.567Z</time></trkpt><trkpt lat="44.975465" lon="11.7567017"><ele>4.0</ele><time>2026-04-07T16:37:46.566Z</time></trkpt><trkpt lat="44.9752525" lon="11.7565497"><ele>4.0</ele><time>2026-04-07T16:37:47.572Z</time></trkpt><trkpt lat="44.9750271" lon="11.7563886"><ele>4.0</ele><time>2026-04-07T16:37:48.647Z</time></trkpt><trkpt lat="44.9748372" lon="11.7562628"><ele>4.666666666666666</ele><time>2026-04-07T16:37:49.591Z</time></trkpt><trkpt lat="44.9746745" lon="11.7561517"><ele>5.333333333333333</ele><time>2026-04-07T16:37:50.571Z</time></trkpt><trkpt lat="44.974511" lon="11.7560373"><ele>6.0</ele><time>2026-04-07T16:37:51.572Z</time></trkpt><trkpt lat="44.9743292" lon="11.7559057"><ele>6.0</ele><time>2026-04-07T16:37:52.567Z</time></trkpt><trkpt lat="44.9741362" lon="11.755769"><ele>6.0</ele><time>2026-04-07T16:37:53.568Z</time></trkpt><trkpt lat="44.9739738" lon="11.7556581"><ele>6.0</ele><time>2026-04-07T16:37:54.567Z</time></trkpt><trkpt lat="44.9738268" lon="11.7555579"><ele>6.0</ele><time>2026-04-07T16:37:55.563Z</time></trkpt><trkpt lat="44.9736764" lon="11.7554472"><ele>6.0</ele><time>2026-04-07T16:37:56.566Z</time></trkpt><trkpt lat="44.9735086" lon="11.7553198"><ele>6.0</ele><time>2026-04-07T16:37:57.566Z</time></trkpt><trkpt lat="44.9733426" lon="11.755201"><ele>5.0</ele><time>2026-04-07T16:37:58.562Z</time></trkpt><trkpt lat="44.9731654" lon="11.7550819"><ele>4.0</ele><time>2026-04-07T16:37:59.577Z</time></trkpt><trkpt lat="44.9729679" lon="11.7549489"><ele>3.0</ele><time>2026-04-07T16:38:00.568Z</time></trkpt><trkpt lat="44.9727623" lon="11.7548002"><ele>3.0</ele><time>2026-04-07T16:38:01.566Z</time></trkpt><trkpt lat="44.9725591" lon="11.7546712"><ele>3.0</ele><time>2026-04-07T16:38:02.568Z</time></trkpt><trkpt lat="44.9723648" lon="11.7545529"><ele>3.0</ele><time>2026-04-07T16:38:03.573Z</time></trkpt><trkpt lat="44.9721622" lon="11.7544214"><ele>2.6666666666666665</ele><time>2026-04-07T16:38:04.565Z</time></trkpt><trkpt lat="44.9719752" lon="11.754321"><ele>2.333333333333333</ele><time>2026-04-07T16:38:05.59Z</time></trkpt><trkpt lat="44.9717996" lon="11.7542273"><ele>2.0</ele><time>2026-04-07T16:38:06.582Z</time></trkpt><trkpt lat="44.9716381" lon="11.7541587"><ele>2.5</ele><time>2026-04-07T16:38:07.566Z</time></trkpt><trkpt lat="44.9714968" lon="11.754093"><ele>3.0</ele><time>2026-04-07T16:38:08.566Z</time></trkpt><trkpt lat="44.9713738" lon="11.7540219"><ele>3.5</ele><time>2026-04-07T16:38:09.569Z</time></trkpt><trkpt lat="44.9712455" lon="11.7539488"><ele>4.0</ele><time>2026-04-07T16:38:10.567Z</time></trkpt><trkpt lat="44.97111" lon="11.7538723"><ele>4.0</ele><time>2026-04-07T16:38:11.569Z</time></trkpt><trkpt lat="44.9709735" lon="11.7538093"><ele>4.0</ele><time>2026-04-07T16:38:12.568Z</time></trkpt><trkpt lat="44.9708469" lon="11.7537685"><ele>4.0</ele><time>2026-04-07T16:38:13.563Z</time></trkpt><trkpt lat="44.9707271" lon="11.7537372"><ele>4.0</ele><time>2026-04-07T16:38:14.566Z</time></trkpt><trkpt lat="44.9706217" lon="11.7536726"><ele>3.833333333333333</ele><time>2026-04-07T16:38:15.571Z</time></trkpt><trkpt lat="44.9705265" lon="11.7536125"><ele>3.6666666666666665</ele><time>2026-04-07T16:38:16.558Z</time></trkpt><trkpt lat="44.9704604" lon="11.75358"><ele>3.5</ele><time>2026-04-07T16:38:17.595Z</time></trkpt><trkpt lat="44.9703683" lon="11.7535765"><ele>3.333333333333333</ele><time>2026-04-07T16:38:18.567Z</time></trkpt><trkpt lat="44.9702902" lon="11.7536128"><ele>3.1666666666666665</ele><time>2026-04-07T16:38:19.565Z</time></trkpt><trkpt lat="44.9702086" lon="11.7536931"><ele>3.0</ele><time>2026-04-07T16:38:20.586Z</time></trkpt><trkpt lat="44.9701049" lon="11.7537936"><ele>3.0</ele><time>2026-04-07T16:38:21.572Z</time></trkpt><trkpt lat="44.9699925" lon="11.7538965"><ele>3.0</ele><time>2026-04-07T16:38:22.568Z</time></trkpt><trkpt lat="44.9698761" lon="11.7540106"><ele>3.0</ele><time>2026-04-07T16:38:23.566Z</time></trkpt><trkpt lat="44.9697893" lon="11.7541229"><ele>3.0</ele><time>2026-04-07T16:38:24.571Z</time></trkpt><trkpt lat="44.9696465" lon="11.7541987"><ele>3.0</ele><time>2026-04-07T16:38:25.564Z</time></trkpt><trkpt lat="44.96953" lon="11.7542904"><ele>3.0</ele><time>2026-04-07T16:38:26.565Z</time></trkpt><trkpt lat="44.9694053" lon="11.7543881"><ele>3.0</ele><time>2026-04-07T16:38:27.573Z</time></trkpt><trkpt lat="44.9692636" lon="11.7544797"><ele>3.0</ele><time>2026-04-07T16:38:28.563Z</time></trkpt><trkpt lat="44.9691035" lon="11.75458"><ele>3.333333333333333</ele><time>2026-04-07T16:38:29.564Z</time></trkpt><trkpt lat="44.9689474" lon="11.7546714"><ele>3.6666666666666665</ele><time>2026-04-07T16:38:30.565Z</time></trkpt><trkpt lat="44.9687875" lon="11.7547815"><ele>4.0</ele><time>2026-04-07T16:38:31.561Z</time></trkpt><trkpt lat="44.9686084" lon="11.7548698"><ele>4.0</ele><time>2026-04-07T16:38:32.569Z</time></trkpt><trkpt lat="44.9684171" lon="11.754977"><ele>4.0</ele><time>2026-04-07T16:38:33.565Z</time></trkpt><trkpt lat="44.9682105" lon="11.7550863"><ele>4.0</ele><time>2026-04-07T16:38:34.558Z</time></trkpt><trkpt lat="44.9680234" lon="11.7551935"><ele>3.6666666666666665</ele><time>2026-04-07T16:38:35.562Z</time></trkpt><trkpt lat="44.9678484" lon="11.7553256"><ele>3.333333333333333</ele><time>2026-04-07T16:38:36.566Z</time></trkpt><trkpt lat="44.9676612" lon="11.7554885"><ele>3.0</ele><time>2026-04-07T16:38:37.56Z</time></trkpt><trkpt lat="44.9674883" lon="11.7556153"><ele>3.0</ele><time>2026-04-07T16:38:38.564Z</time></trkpt><trkpt lat="44.9673156" lon="11.7557289"><ele>3.0</ele><time>2026-04-07T16:38:39.567Z</time></trkpt><trkpt lat="44.9671453" lon="11.7558361"><ele>3.0</ele><time>2026-04-07T16:38:40.566Z</time></trkpt><trkpt lat="44.9669907" lon="11.7559334"><ele>3.0</ele><time>2026-04-07T16:38:41.568Z</time></trkpt><trkpt lat="44.9668014" lon="11.7560013"><ele>3.0</ele><time>2026-04-07T16:38:42.584Z</time></trkpt><trkpt lat="44.9665943" lon="11.7560297"><ele>3.0</ele><time>2026-04-07T16:38:43.591Z</time></trkpt><trkpt lat="44.9663595" lon="11.7560472"><ele>3.0</ele><time>2026-04-07T16:38:44.57Z</time></trkpt><trkpt lat="44.966144" lon="11.756036"><ele>3.0</ele><time>2026-04-07T16:38:45.566Z</time></trkpt><trkpt lat="44.9659255" lon="11.7560224"><ele>3.0</ele><time>2026-04-07T16:38:46.567Z</time></trkpt><trkpt lat="44.9656931" lon="11.7559967"><ele>3.0</ele><time>2026-04-07T16:38:47.566Z</time></trkpt><trkpt lat="44.9654703" lon="11.7559853"><ele>3.0</ele><time>2026-04-07T16:38:48.567Z</time></trkpt><trkpt lat="44.96526" lon="11.7559715"><ele>3.0</ele><time>2026-04-07T16:38:49.57Z</time></trkpt><trkpt lat="44.9650358" lon="11.7559648"><ele>2.5</ele><time>2026-04-07T16:38:50.565Z</time></trkpt><trkpt lat="44.964812" lon="11.7559712"><ele>2.0</ele><time>2026-04-07T16:38:51.57Z</time></trkpt><trkpt lat="44.9645855" lon="11.7559798"><ele>2.0</ele><time>2026-04-07T16:38:52.565Z</time></trkpt><trkpt lat="44.9643707" lon="11.7559959"><ele>2.0</ele><time>2026-04-07T16:38:53.572Z</time></trkpt><trkpt lat="44.9641677" lon="11.756014"><ele>2.0</ele><time>2026-04-07T16:38:54.566Z</time></trkpt><trkpt lat="44.9639524" lon="11.7560472"><ele>2.333333333333333</ele><time>2026-04-07T16:38:55.567Z</time></trkpt><trkpt lat="44.9637378" lon="11.7560812"><ele>2.6666666666666665</ele><time>2026-04-07T16:38:56.573Z</time></trkpt><trkpt lat="44.9635059" lon="11.7560731"><ele>3.0</ele><time>2026-04-07T16:38:57.562Z</time></trkpt><trkpt lat="44.9632612" lon="11.7560594"><ele>4.5</ele><time>2026-04-07T16:38:58.577Z</time></trkpt><trkpt lat="44.9630091" lon="11.7560597"><ele>6.0</ele><time>2026-04-07T16:38:59.573Z</time></trkpt><trkpt lat="44.9627977" lon="11.7560691"><ele>6.0</ele><time>2026-04-07T16:39:00.565Z</time></trkpt><trkpt lat="44.9626012" lon="11.7560696"><ele>6.0</ele><time>2026-04-07T16:39:01.572Z</time></trkpt><trkpt lat="44.9624108" lon="11.7560977"><ele>6.0</ele><time>2026-04-07T16:39:02.57Z</time></trkpt><trkpt lat="44.9622241" lon="11.7561244"><ele>6.333333333333334</ele><time>2026-04-07T16:39:03.565Z</time></trkpt><trkpt lat="44.9620584" lon="11.7561374"><ele>6.666666666666667</ele><time>2026-04-07T16:39:04.574Z</time></trkpt><trkpt lat="44.9619019" lon="11.7561551"><ele>7.0</ele><time>2026-04-07T16:39:05.573Z</time></trkpt><trkpt lat="44.9617423" lon="11.7561844"><ele>7.333333333333334</ele><time>2026-04-07T16:39:06.595Z</time></trkpt><trkpt lat="44.9615558" lon="11.7562037"><ele>7.666666666666666</ele><time>2026-04-07T16:39:07.595Z</time></trkpt><trkpt lat="44.9613843" lon="11.7562236"><ele>8.0</ele><time>2026-04-07T16:39:08.575Z</time></trkpt><trkpt lat="44.9611887" lon="11.7562435"><ele>8.0</ele><time>2026-04-07T16:39:09.59Z</time></trkpt><trkpt lat="44.9609757" lon="11.756264"><ele>8.0</ele><time>2026-04-07T16:39:10.579Z</time></trkpt><trkpt lat="44.9607709" lon="11.7562777"><ele>8.0</ele><time>2026-04-07T16:39:11.577Z</time></trkpt><trkpt lat="44.960564" lon="11.7563045"><ele>6.666666666666666</ele><time>2026-04-07T16:39:12.576Z</time></trkpt><trkpt lat="44.9603669" lon="11.756287"><ele>5.333333333333333</ele><time>2026-04-07T16:39:13.571Z</time></trkpt><trkpt lat="44.9601547" lon="11.7562698"><ele>4.0</ele><time>2026-04-07T16:39:14.571Z</time></trkpt><trkpt lat="44.9599774" lon="11.7562487"><ele>3.0</ele><time>2026-04-07T16:39:15.567Z</time></trkpt><trkpt lat="44.9598158" lon="11.7562455"><ele>2.0</ele><time>2026-04-07T16:39:16.569Z</time></trkpt><trkpt lat="44.9596435" lon="11.7562711"><ele>1.0</ele><time>2026-04-07T16:39:17.58Z</time></trkpt><trkpt lat="44.9594712" lon="11.7562809"><ele>1.0</ele><time>2026-04-07T16:39:18.589Z</time></trkpt><trkpt lat="44.9593027" lon="11.756274"><ele>1.0</ele><time>2026-04-07T16:39:19.574Z</time></trkpt><trkpt lat="44.9591135" lon="11.7562724"><ele>1.0</ele><time>2026-04-07T16:39:20.575Z</time></trkpt><trkpt lat="44.9589048" lon="11.7562804"><ele>1.0</ele><time>2026-04-07T16:39:21.573Z</time></trkpt><trkpt lat="44.9586976" lon="11.7563001"><ele>1.0</ele><time>2026-04-07T16:39:22.57Z</time></trkpt><trkpt lat="44.9584703" lon="11.7563462"><ele>1.0</ele><time>2026-04-07T16:39:23.569Z</time></trkpt><trkpt lat="44.9582467" lon="11.7563417"><ele>2.0</ele><time>2026-04-07T16:39:24.593Z</time></trkpt><trkpt lat="44.9580097" lon="11.7563355"><ele>3.0</ele><time>2026-04-07T16:39:25.591Z</time></trkpt><trkpt lat="44.9577785" lon="11.7563407"><ele>3.0</ele><time>2026-04-07T16:39:26.564Z</time></trkpt><trkpt lat="44.9575492" lon="11.7563657"><ele>3.0</ele><time>2026-04-07T16:39:27.572Z</time></trkpt><trkpt lat="44.9573165" lon="11.7563863"><ele>6.0</ele><time>2026-04-07T16:39:28.571Z</time></trkpt><trkpt lat="44.9570892" lon="11.7563857"><ele>9.0</ele><time>2026-04-07T16:39:29.593Z</time></trkpt><trkpt lat="44.9568456" lon="11.756408"><ele>9.0</ele><time>2026-04-07T16:39:30.568Z</time></trkpt><trkpt lat="44.9565912" lon="11.7564889"><ele>9.0</ele><time>2026-04-07T16:39:31.569Z</time></trkpt><trkpt lat="44.9563416" lon="11.7565202"><ele>9.0</ele><time>2026-04-07T16:39:32.567Z</time></trkpt><trkpt lat="44.956088" lon="11.7565099"><ele>9.0</ele><time>2026-04-07T16:39:33.59Z</time></trkpt><trkpt lat="44.9558305" lon="11.7565124"><ele>7.5</ele><time>2026-04-07T16:39:34.576Z</time></trkpt><trkpt lat="44.9555803" lon="11.7565167"><ele>6.0</ele><time>2026-04-07T16:39:35.571Z</time></trkpt><trkpt lat="44.9553392" lon="11.756518"><ele>6.0</ele><time>2026-04-07T16:39:36.564Z</time></trkpt><trkpt lat="44.955127" lon="11.7564977"><ele>6.0</ele><time>2026-04-07T16:39:37.559Z</time></trkpt><trkpt lat="44.9549161" lon="11.7564932"><ele>6.0</ele><time>2026-04-07T16:39:38.563Z</time></trkpt><trkpt lat="44.9547261" lon="11.7565187"><ele>5.666666666666667</ele><time>2026-04-07T16:39:39.557Z</time></trkpt><trkpt lat="44.9545178" lon="11.756526"><ele>5.333333333333334</ele><time>2026-04-07T16:39:40.561Z</time></trkpt><trkpt lat="44.9543022" lon="11.7565134"><ele>5.0</ele><time>2026-04-07T16:39:41.567Z</time></trkpt><trkpt lat="44.954084" lon="11.7565071"><ele>5.0</ele><time>2026-04-07T16:39:42.555Z</time></trkpt><trkpt lat="44.9538735" lon="11.7565027"><ele>5.0</ele><time>2026-04-07T16:39:43.562Z</time></trkpt><trkpt lat="44.953651" lon="11.7565016"><ele>5.0</ele><time>2026-04-07T16:39:44.569Z</time></trkpt><trkpt lat="44.9534401" lon="11.7565288"><ele>5.0</ele><time>2026-04-07T16:39:45.568Z</time></trkpt><trkpt lat="44.9532479" lon="11.756555"><ele>5.0</ele><time>2026-04-07T16:39:46.567Z</time></trkpt><trkpt lat="44.9530582" lon="11.756546"><ele>5.0</ele><time>2026-04-07T16:39:47.573Z</time></trkpt><trkpt lat="44.9528728" lon="11.7565819"><ele>5.0</ele><time>2026-04-07T16:39:48.57Z</time></trkpt><trkpt lat="44.9526542" lon="11.7566499"><ele>5.0</ele><time>2026-04-07T16:39:49.576Z</time></trkpt><trkpt lat="44.952438" lon="11.7566407"><ele>5.0</ele><time>2026-04-07T16:39:50.572Z</time></trkpt><trkpt lat="44.9521988" lon="11.7566035"><ele>4.5</ele><time>2026-04-07T16:39:51.561Z</time></trkpt><trkpt lat="44.9519458" lon="11.7565634"><ele>4.0</ele><time>2026-04-07T16:39:52.569Z</time></trkpt><trkpt lat="44.9517291" lon="11.7565402"><ele>3.6666666666666665</ele><time>2026-04-07T16:39:53.569Z</time></trkpt><trkpt lat="44.9515283" lon="11.7565036"><ele>3.333333333333333</ele><time>2026-04-07T16:39:54.567Z</time></trkpt><trkpt lat="44.9513379" lon="11.7564774"><ele>3.0</ele><time>2026-04-07T16:39:55.558Z</time></trkpt><trkpt lat="44.9511429" lon="11.7564081"><ele>3.0</ele><time>2026-04-07T16:39:56.561Z</time></trkpt><trkpt lat="44.950954" lon="11.7563355"><ele>3.0</ele><time>2026-04-07T16:39:57.56Z</time></trkpt><trkpt lat="44.9507601" lon="11.756265"><ele>3.0</ele><time>2026-04-07T16:39:58.567Z</time></trkpt><trkpt lat="44.9505568" lon="11.7561909"><ele>3.0</ele><time>2026-04-07T16:39:59.566Z</time></trkpt><trkpt lat="44.9503472" lon="11.7561288"><ele>3.0</ele><time>2026-04-07T16:40:00.562Z</time></trkpt><trkpt lat="44.9501462" lon="11.7560636"><ele>3.0</ele><time>2026-04-07T16:40:01.571Z</time></trkpt><trkpt lat="44.9499355" lon="11.7560152"><ele>3.0</ele><time>2026-04-07T16:40:02.569Z</time></trkpt><trkpt lat="44.9497357" lon="11.7559509"><ele>3.0</ele><time>2026-04-07T16:40:03.565Z</time></trkpt><trkpt lat="44.9495327" lon="11.7559083"><ele>3.0</ele><time>2026-04-07T16:40:04.568Z</time></trkpt><trkpt lat="44.9493257" lon="11.7558729"><ele>3.666666666666667</ele><time>2026-04-07T16:40:05.569Z</time></trkpt><trkpt lat="44.9491446" lon="11.7558188"><ele>4.333333333333334</ele><time>2026-04-07T16:40:06.561Z</time></trkpt><trkpt lat="44.9489695" lon="11.7557696"><ele>5.0</ele><time>2026-04-07T16:40:07.567Z</time></trkpt><trkpt lat="44.9488052" lon="11.7557096"><ele>5.0</ele><time>2026-04-07T16:40:08.569Z</time></trkpt><trkpt lat="44.9486345" lon="11.755672"><ele>5.0</ele><time>2026-04-07T16:40:09.57Z</time></trkpt><trkpt lat="44.9484562" lon="11.7556324"><ele>5.0</ele><time>2026-04-07T16:40:10.564Z</time></trkpt><trkpt lat="44.9482888" lon="11.7555978"><ele>5.0</ele><time>2026-04-07T16:40:11.571Z</time></trkpt><trkpt lat="44.9481361" lon="11.7555591"><ele>5.0</ele><time>2026-04-07T16:40:12.565Z</time></trkpt><trkpt lat="44.9479936" lon="11.7555146"><ele>5.0</ele><time>2026-04-07T16:40:13.575Z</time></trkpt><trkpt lat="44.9478237" lon="11.7554918"><ele>5.0</ele><time>2026-04-07T16:40:14.57Z</time></trkpt><trkpt lat="44.9476708" lon="11.7554698"><ele>5.0</ele><time>2026-04-07T16:40:15.566Z</time></trkpt><trkpt lat="44.9475393" lon="11.7554621"><ele>5.0</ele><time>2026-04-07T16:40:16.569Z</time></trkpt><trkpt lat="44.9474175" lon="11.7554528"><ele>5.0</ele><time>2026-04-07T16:40:17.573Z</time></trkpt><trkpt lat="44.9472932" lon="11.7554034"><ele>4.75</ele><time>2026-04-07T16:40:18.555Z</time></trkpt><trkpt lat="44.9471484" lon="11.7553503"><ele>4.5</ele><time>2026-04-07T16:40:19.642Z</time></trkpt><trkpt lat="44.9470416" lon="11.7552901"><ele>4.25</ele><time>2026-04-07T16:40:20.59Z</time></trkpt><trkpt lat="44.9469243" lon="11.7552311"><ele>4.0</ele><time>2026-04-07T16:40:22.568Z</time></trkpt><trkpt lat="44.9468626" lon="11.7551799"><ele>4.0</ele><time>2026-04-07T16:40:23.568Z</time></trkpt><trkpt lat="44.9467859" lon="11.7551337"><ele>4.0</ele><time>2026-04-07T16:40:24.566Z</time></trkpt><trkpt lat="44.9466891" lon="11.7551155"><ele>4.0</ele><time>2026-04-07T16:40:25.565Z</time></trkpt><trkpt lat="44.9465451" lon="11.7551232"><ele>4.0</ele><time>2026-04-07T16:40:26.583Z</time></trkpt><trkpt lat="44.9463834" lon="11.7551013"><ele>4.0</ele><time>2026-04-07T16:40:27.556Z</time></trkpt><trkpt lat="44.9462184" lon="11.7550393"><ele>4.0</ele><time>2026-04-07T16:40:28.559Z</time></trkpt><trkpt lat="44.9460476" lon="11.754997"><ele>4.0</ele><time>2026-04-07T16:40:29.561Z</time></trkpt><trkpt lat="44.9458502" lon="11.7549373"><ele>5.5</ele><time>2026-04-07T16:40:30.557Z</time></trkpt><trkpt lat="44.9456152" lon="11.7548761"><ele>7.0</ele><time>2026-04-07T16:40:31.565Z</time></trkpt><trkpt lat="44.9453901" lon="11.7547951"><ele>7.0</ele><time>2026-04-07T16:40:32.562Z</time></trkpt><trkpt lat="44.9451604" lon="11.7547329"><ele>7.0</ele><time>2026-04-07T16:40:33.56Z</time></trkpt><trkpt lat="44.9449115" lon="11.7546442"><ele>6.0</ele><time>2026-04-07T16:40:34.563Z</time></trkpt><trkpt lat="44.944648" lon="11.7545543"><ele>5.0</ele><time>2026-04-07T16:40:35.558Z</time></trkpt><trkpt lat="44.9443816" lon="11.7544497"><ele>5.5</ele><time>2026-04-07T16:40:36.557Z</time></trkpt><trkpt lat="44.9441308" lon="11.7543457"><ele>6.0</ele><time>2026-04-07T16:40:37.559Z</time></trkpt><trkpt lat="44.9439083" lon="11.7542849"><ele>6.0</ele><time>2026-04-07T16:40:38.566Z</time></trkpt><trkpt lat="44.943712" lon="11.7541703"><ele>6.0</ele><time>2026-04-07T16:40:39.556Z</time></trkpt><trkpt lat="44.9434952" lon="11.7541018"><ele>6.0</ele><time>2026-04-07T16:40:40.559Z</time></trkpt><trkpt lat="44.9432936" lon="11.7540353"><ele>5.666666666666667</ele><time>2026-04-07T16:40:41.557Z</time></trkpt><trkpt lat="44.9430911" lon="11.7539715"><ele>5.333333333333334</ele><time>2026-04-07T16:40:42.558Z</time></trkpt><trkpt lat="44.9428703" lon="11.7538903"><ele>5.0</ele><time>2026-04-07T16:40:43.564Z</time></trkpt><trkpt lat="44.942667" lon="11.753773"><ele>4.333333333333334</ele><time>2026-04-07T16:40:44.564Z</time></trkpt><trkpt lat="44.9424804" lon="11.7536669"><ele>3.666666666666667</ele><time>2026-04-07T16:40:45.561Z</time></trkpt><trkpt lat="44.9423196" lon="11.7535737"><ele>3.0</ele><time>2026-04-07T16:40:46.57Z</time></trkpt><trkpt lat="44.9421421" lon="11.7534578"><ele>3.0</ele><time>2026-04-07T16:40:47.641Z</time></trkpt><trkpt lat="44.9420038" lon="11.7533282"><ele>3.0</ele><time>2026-04-07T16:40:48.56Z</time></trkpt><trkpt lat="44.9418646" lon="11.7531555"><ele>3.0</ele><time>2026-04-07T16:40:49.575Z</time></trkpt><trkpt lat="44.9417297" lon="11.7529695"><ele>3.333333333333333</ele><time>2026-04-07T16:40:50.567Z</time></trkpt><trkpt lat="44.9415822" lon="11.7527741"><ele>3.6666666666666665</ele><time>2026-04-07T16:40:51.565Z</time></trkpt><trkpt lat="44.9414336" lon="11.752602"><ele>4.0</ele><time>2026-04-07T16:40:52.565Z</time></trkpt><trkpt lat="44.9412723" lon="11.7523943"><ele>4.0</ele><time>2026-04-07T16:40:53.562Z</time></trkpt><trkpt lat="44.9411335" lon="11.752211"><ele>4.0</ele><time>2026-04-07T16:40:54.556Z</time></trkpt><trkpt lat="44.940988" lon="11.7520306"><ele>4.0</ele><time>2026-04-07T16:40:55.874Z</time></trkpt><trkpt lat="44.9408381" lon="11.7518196"><ele>4.0</ele><time>2026-04-07T16:40:56.878Z</time></trkpt><trkpt lat="44.9405516" lon="11.7513801"><ele>4.0</ele><time>2026-04-07T16:40:58.551Z</time></trkpt><trkpt lat="44.9404443" lon="11.7511904"><ele>4.0</ele><time>2026-04-07T16:40:59.587Z</time></trkpt><trkpt lat="44.9403164" lon="11.750982"><ele>4.0</ele><time>2026-04-07T16:41:00.56Z</time></trkpt><trkpt lat="44.9401818" lon="11.7507597"><ele>4.0</ele><time>2026-04-07T16:41:01.585Z</time></trkpt><trkpt lat="44.9400177" lon="11.7505596"><ele>4.5</ele><time>2026-04-07T16:41:02.557Z</time></trkpt><trkpt lat="44.9398367" lon="11.7503478"><ele>5.0</ele><time>2026-04-07T16:41:03.559Z</time></trkpt><trkpt lat="44.9396237" lon="11.750109"><ele>5.5</ele><time>2026-04-07T16:41:04.561Z</time></trkpt><trkpt lat="44.939444" lon="11.7498763"><ele>6.0</ele><time>2026-04-07T16:41:05.558Z</time></trkpt><trkpt lat="44.9392451" lon="11.7496481"><ele>5.0</ele><time>2026-04-07T16:41:06.55Z</time></trkpt><trkpt lat="44.9390723" lon="11.7494679"><ele>4.0</ele><time>2026-04-07T16:41:07.559Z</time></trkpt><trkpt lat="44.9389282" lon="11.7492804"><ele>3.0</ele><time>2026-04-07T16:41:08.551Z</time></trkpt><trkpt lat="44.9388081" lon="11.7491165"><ele>2.3333333333333335</ele><time>2026-04-07T16:41:09.556Z</time></trkpt><trkpt lat="44.9386569" lon="11.7489464"><ele>1.6666666666666665</ele><time>2026-04-07T16:41:10.553Z</time></trkpt><trkpt lat="44.9385419" lon="11.748838"><ele>1.0</ele><time>2026-04-07T16:41:11.583Z</time></trkpt><trkpt lat="44.9384085" lon="11.7487714"><ele>1.3333333333333333</ele><time>2026-04-07T16:41:12.549Z</time></trkpt><trkpt lat="44.938269" lon="11.7487112"><ele>1.6666666666666665</ele><time>2026-04-07T16:41:13.557Z</time></trkpt><trkpt lat="44.9381142" lon="11.7486812"><ele>2.0</ele><time>2026-04-07T16:41:14.554Z</time></trkpt><trkpt lat="44.9379639" lon="11.7486637"><ele>2.0</ele><time>2026-04-07T16:41:15.558Z</time></trkpt><trkpt lat="44.9377934" lon="11.7486936"><ele>2.0</ele><time>2026-04-07T16:41:16.556Z</time></trkpt><trkpt lat="44.9376364" lon="11.748742"><ele>2.0</ele><time>2026-04-07T16:41:17.563Z</time></trkpt><trkpt lat="44.9374661" lon="11.7487724"><ele>2.6666666666666665</ele><time>2026-04-07T16:41:18.566Z</time></trkpt><trkpt lat="44.9373006" lon="11.7488009"><ele>3.333333333333333</ele><time>2026-04-07T16:41:19.573Z</time></trkpt><trkpt lat="44.9371264" lon="11.7488491"><ele>4.0</ele><time>2026-04-07T16:41:20.562Z</time></trkpt><trkpt lat="44.9369414" lon="11.7489165"><ele>4.0</ele><time>2026-04-07T16:41:21.578Z</time></trkpt><trkpt lat="44.9367587" lon="11.7489602"><ele>4.0</ele><time>2026-04-07T16:41:22.561Z</time></trkpt><trkpt lat="44.936566" lon="11.7490054"><ele>4.0</ele><time>2026-04-07T16:41:23.581Z</time></trkpt><trkpt lat="44.9363784" lon="11.7490405"><ele>4.0</ele><time>2026-04-07T16:41:24.565Z</time></trkpt><trkpt lat="44.9361759" lon="11.7490771"><ele>4.0</ele><time>2026-04-07T16:41:25.56Z</time></trkpt><trkpt lat="44.9359789" lon="11.7491137"><ele>4.0</ele><time>2026-04-07T16:41:26.573Z</time></trkpt><trkpt lat="44.9357778" lon="11.7491476"><ele>4.0</ele><time>2026-04-07T16:41:27.568Z</time></trkpt><trkpt lat="44.9355819" lon="11.7491923"><ele>4.0</ele><time>2026-04-07T16:41:28.558Z</time></trkpt><trkpt lat="44.9353929" lon="11.7492043"><ele>4.0</ele><time>2026-04-07T16:41:29.564Z</time></trkpt><trkpt lat="44.9352165" lon="11.749234"><ele>4.333333333333333</ele><time>2026-04-07T16:41:30.573Z</time></trkpt><trkpt lat="44.935052" lon="11.7492763"><ele>4.666666666666667</ele><time>2026-04-07T16:41:31.561Z</time></trkpt><trkpt lat="44.9348929" lon="11.7493194"><ele>5.0</ele><time>2026-04-07T16:41:32.573Z</time></trkpt><trkpt lat="44.9347302" lon="11.7493604"><ele>5.0</ele><time>2026-04-07T16:41:33.567Z</time></trkpt><trkpt lat="44.9345523" lon="11.749397"><ele>5.0</ele><time>2026-04-07T16:41:34.561Z</time></trkpt><trkpt lat="44.9343953" lon="11.7494244"><ele>5.0</ele><time>2026-04-07T16:41:35.571Z</time></trkpt><trkpt lat="44.9342741" lon="11.7494505"><ele>5.666666666666667</ele><time>2026-04-07T16:41:36.568Z</time></trkpt><trkpt lat="44.9341328" lon="11.7494877"><ele>6.333333333333334</ele><time>2026-04-07T16:41:37.564Z</time></trkpt><trkpt lat="44.9339726" lon="11.749534"><ele>7.0</ele><time>2026-04-07T16:41:38.568Z</time></trkpt><trkpt lat="44.9338012" lon="11.7495763"><ele>7.0</ele><time>2026-04-07T16:41:39.569Z</time></trkpt><trkpt lat="44.9336165" lon="11.7496205"><ele>7.0</ele><time>2026-04-07T16:41:40.559Z</time></trkpt><trkpt lat="44.9334208" lon="11.7496909"><ele>7.0</ele><time>2026-04-07T16:41:41.569Z</time></trkpt><trkpt lat="44.9332113" lon="11.7497494"><ele>6.666666666666667</ele><time>2026-04-07T16:41:42.561Z</time></trkpt><trkpt lat="44.933039" lon="11.7498419"><ele>6.333333333333334</ele><time>2026-04-07T16:41:43.56Z</time></trkpt><trkpt lat="44.9329059" lon="11.7499353"><ele>6.0</ele><time>2026-04-07T16:41:44.574Z</time></trkpt><trkpt lat="44.9327641" lon="11.7500198"><ele>6.0</ele><time>2026-04-07T16:41:45.561Z</time></trkpt><trkpt lat="44.9326139" lon="11.7501183"><ele>6.0</ele><time>2026-04-07T16:41:46.563Z</time></trkpt><trkpt lat="44.9324812" lon="11.7502341"><ele>6.0</ele><time>2026-04-07T16:41:47.591Z</time></trkpt><trkpt lat="44.9323571" lon="11.7503322"><ele>5.666666666666667</ele><time>2026-04-07T16:41:48.588Z</time></trkpt><trkpt lat="44.9322031" lon="11.7504413"><ele>5.333333333333334</ele><time>2026-04-07T16:41:49.565Z</time></trkpt><trkpt lat="44.9320383" lon="11.7505313"><ele>5.0</ele><time>2026-04-07T16:41:50.562Z</time></trkpt><trkpt lat="44.9318899" lon="11.750629"><ele>5.0</ele><time>2026-04-07T16:41:51.572Z</time></trkpt><trkpt lat="44.9317308" lon="11.7507312"><ele>5.0</ele><time>2026-04-07T16:41:52.565Z</time></trkpt><trkpt lat="44.931563" lon="11.7508102"><ele>5.0</ele><time>2026-04-07T16:41:53.569Z</time></trkpt><trkpt lat="44.9313891" lon="11.7508922"><ele>5.0</ele><time>2026-04-07T16:41:54.57Z</time></trkpt><trkpt lat="44.9312038" lon="11.7509864"><ele>5.0</ele><time>2026-04-07T16:41:55.583Z</time></trkpt><trkpt lat="44.9309814" lon="11.7510673"><ele>5.0</ele><time>2026-04-07T16:41:56.591Z</time></trkpt><trkpt lat="44.9308089" lon="11.7511836"><ele>5.0</ele><time>2026-04-07T16:41:57.591Z</time></trkpt><trkpt lat="44.9306402" lon="11.7512829"><ele>5.0</ele><time>2026-04-07T16:41:58.585Z</time></trkpt><trkpt lat="44.9304733" lon="11.7513659"><ele>5.0</ele><time>2026-04-07T16:41:59.572Z</time></trkpt><trkpt lat="44.9303098" lon="11.7514465"><ele>5.0</ele><time>2026-04-07T16:42:00.566Z</time></trkpt><trkpt lat="44.9301359" lon="11.7515244"><ele>5.0</ele><time>2026-04-07T16:42:01.56Z</time></trkpt><trkpt lat="44.9299651" lon="11.751602"><ele>5.0</ele><time>2026-04-07T16:42:02.585Z</time></trkpt><trkpt lat="44.929798" lon="11.7516725"><ele>5.0</ele><time>2026-04-07T16:42:03.61Z</time></trkpt><trkpt lat="44.929613" lon="11.7517562"><ele>5.0</ele><time>2026-04-07T16:42:04.589Z</time></trkpt><trkpt lat="44.929439" lon="11.7518417"><ele>5.0</ele><time>2026-04-07T16:42:05.563Z</time></trkpt><trkpt lat="44.9292609" lon="11.7519373"><ele>4.666666666666667</ele><time>2026-04-07T16:42:06.59Z</time></trkpt><trkpt lat="44.9290888" lon="11.7520429"><ele>4.333333333333333</ele><time>2026-04-07T16:42:07.565Z</time></trkpt><trkpt lat="44.9289026" lon="11.7521721"><ele>4.0</ele><time>2026-04-07T16:42:08.585Z</time></trkpt><trkpt lat="44.9287032" lon="11.7522773"><ele>4.0</ele><time>2026-04-07T16:42:09.59Z</time></trkpt><trkpt lat="44.9285273" lon="11.752376"><ele>4.0</ele><time>2026-04-07T16:42:10.59Z</time></trkpt><trkpt lat="44.9283616" lon="11.7524958"><ele>4.0</ele><time>2026-04-07T16:42:11.573Z</time></trkpt><trkpt lat="44.928182" lon="11.7526284"><ele>3.6666666666666665</ele><time>2026-04-07T16:42:12.574Z</time></trkpt><trkpt lat="44.9279987" lon="11.7527359"><ele>3.333333333333333</ele><time>2026-04-07T16:42:13.563Z</time></trkpt><trkpt lat="44.9278292" lon="11.7528676"><ele>3.0</ele><time>2026-04-07T16:42:14.573Z</time></trkpt><trkpt lat="44.9276434" lon="11.7530094"><ele>3.0</ele><time>2026-04-07T16:42:15.574Z</time></trkpt><trkpt lat="44.9274387" lon="11.7531069"><ele>3.0</ele><time>2026-04-07T16:42:16.574Z</time></trkpt><trkpt lat="44.9272479" lon="11.7531998"><ele>3.0</ele><time>2026-04-07T16:42:17.574Z</time></trkpt><trkpt lat="44.9270528" lon="11.7532831"><ele>3.0</ele><time>2026-04-07T16:42:18.575Z</time></trkpt><trkpt lat="44.9268346" lon="11.7534042"><ele>3.0</ele><time>2026-04-07T16:42:19.575Z</time></trkpt><trkpt lat="44.9266052" lon="11.7535174"><ele>3.0</ele><time>2026-04-07T16:42:20.573Z</time></trkpt><trkpt lat="44.9263739" lon="11.7536399"><ele>3.0</ele><time>2026-04-07T16:42:21.574Z</time></trkpt><trkpt lat="44.9261429" lon="11.7537372"><ele>3.0</ele><time>2026-04-07T16:42:22.567Z</time></trkpt><trkpt lat="44.9259215" lon="11.7538464"><ele>3.0</ele><time>2026-04-07T16:42:23.574Z</time></trkpt><trkpt lat="44.9257015" lon="11.7539662"><ele>3.0</ele><time>2026-04-07T16:42:24.573Z</time></trkpt><trkpt lat="44.9254779" lon="11.754075"><ele>3.0</ele><time>2026-04-07T16:42:25.57Z</time></trkpt><trkpt lat="44.9252502" lon="11.7541746"><ele>2.5</ele><time>2026-04-07T16:42:26.573Z</time></trkpt><trkpt lat="44.9250242" lon="11.7542932"><ele>2.0</ele><time>2026-04-07T16:42:27.577Z</time></trkpt><trkpt lat="44.9248121" lon="11.7544275"><ele>2.0</ele><time>2026-04-07T16:42:28.575Z</time></trkpt><trkpt lat="44.924585" lon="11.7545219"><ele>2.0</ele><time>2026-04-07T16:42:29.574Z</time></trkpt><trkpt lat="44.9243734" lon="11.7546546"><ele>2.5</ele><time>2026-04-07T16:42:30.578Z</time></trkpt><trkpt lat="44.9241531" lon="11.7547578"><ele>3.0</ele><time>2026-04-07T16:42:31.571Z</time></trkpt><trkpt lat="44.9239471" lon="11.7548609"><ele>3.0</ele><time>2026-04-07T16:42:32.566Z</time></trkpt><trkpt lat="44.9237638" lon="11.7549582"><ele>3.0</ele><time>2026-04-07T16:42:33.57Z</time></trkpt><trkpt lat="44.9235666" lon="11.7550531"><ele>3.0</ele><time>2026-04-07T16:42:34.561Z</time></trkpt><trkpt lat="44.9233879" lon="11.7551495"><ele>2.6666666666666665</ele><time>2026-04-07T16:42:35.572Z</time></trkpt><trkpt lat="44.9231884" lon="11.7551983"><ele>2.333333333333333</ele><time>2026-04-07T16:42:36.567Z</time></trkpt><trkpt lat="44.9229867" lon="11.7552894"><ele>2.0</ele><time>2026-04-07T16:42:37.561Z</time></trkpt><trkpt lat="44.9228095" lon="11.7553698"><ele>2.0</ele><time>2026-04-07T16:42:38.565Z</time></trkpt><trkpt lat="44.9226771" lon="11.7554657"><ele>2.0</ele><time>2026-04-07T16:42:39.572Z</time></trkpt><trkpt lat="44.9225207" lon="11.755576"><ele>2.0</ele><time>2026-04-07T16:42:40.57Z</time></trkpt><trkpt lat="44.9223566" lon="11.7556934"><ele>2.333333333333333</ele><time>2026-04-07T16:42:41.577Z</time></trkpt><trkpt lat="44.9221717" lon="11.7558361"><ele>2.6666666666666665</ele><time>2026-04-07T16:42:42.575Z</time></trkpt><trkpt lat="44.9219742" lon="11.7559342"><ele>3.0</ele><time>2026-04-07T16:42:43.568Z</time></trkpt><trkpt lat="44.9218073" lon="11.7560305"><ele>3.0</ele><time>2026-04-07T16:42:44.573Z</time></trkpt><trkpt lat="44.9216577" lon="11.7561344"><ele>3.0</ele><time>2026-04-07T16:42:45.57Z</time></trkpt><trkpt lat="44.9215079" lon="11.7562117"><ele>3.0</ele><time>2026-04-07T16:42:46.57Z</time></trkpt><trkpt lat="44.9213687" lon="11.7562834"><ele>3.0</ele><time>2026-04-07T16:42:47.595Z</time></trkpt><trkpt lat="44.921231" lon="11.7563472"><ele>3.0</ele><time>2026-04-07T16:42:48.587Z</time></trkpt><trkpt lat="44.9210776" lon="11.7563455"><ele>3.0</ele><time>2026-04-07T16:42:49.57Z</time></trkpt><trkpt lat="44.9209133" lon="11.7563002"><ele>3.333333333333333</ele><time>2026-04-07T16:42:50.57Z</time></trkpt><trkpt lat="44.9207263" lon="11.7562627"><ele>3.6666666666666665</ele><time>2026-04-07T16:42:51.565Z</time></trkpt><trkpt lat="44.9205623" lon="11.7562005"><ele>4.0</ele><time>2026-04-07T16:42:52.57Z</time></trkpt><trkpt lat="44.9203898" lon="11.7561366"><ele>4.0</ele><time>2026-04-07T16:42:53.569Z</time></trkpt><trkpt lat="44.9202374" lon="11.7560087"><ele>4.0</ele><time>2026-04-07T16:42:54.558Z</time></trkpt><trkpt lat="44.9200827" lon="11.7558839"><ele>4.0</ele><time>2026-04-07T16:42:55.571Z</time></trkpt><trkpt lat="44.9199557" lon="11.7557108"><ele>4.0</ele><time>2026-04-07T16:42:56.586Z</time></trkpt><trkpt lat="44.9198151" lon="11.7554675"><ele>4.0</ele><time>2026-04-07T16:42:57.561Z</time></trkpt><trkpt lat="44.9196797" lon="11.7552335"><ele>4.0</ele><time>2026-04-07T16:42:58.569Z</time></trkpt><trkpt lat="44.9195311" lon="11.7550078"><ele>4.0</ele><time>2026-04-07T16:42:59.571Z</time></trkpt><trkpt lat="44.9193766" lon="11.754778"><ele>4.0</ele><time>2026-04-07T16:43:00.559Z</time></trkpt><trkpt lat="44.9191989" lon="11.7545315"><ele>3.0</ele><time>2026-04-07T16:43:01.572Z</time></trkpt><trkpt lat="44.9190326" lon="11.7542808"><ele>2.0</ele><time>2026-04-07T16:43:02.563Z</time></trkpt><trkpt lat="44.9188336" lon="11.7540133"><ele>2.0</ele><time>2026-04-07T16:43:03.565Z</time></trkpt><trkpt lat="44.9186798" lon="11.7537614"><ele>2.0</ele><time>2026-04-07T16:43:04.564Z</time></trkpt><trkpt lat="44.9185204" lon="11.7535179"><ele>1.0</ele><time>2026-04-07T16:43:05.562Z</time></trkpt><trkpt lat="44.9183306" lon="11.7532474"><ele>0.0</ele><time>2026-04-07T16:43:06.566Z</time></trkpt><trkpt lat="44.9181395" lon="11.752976"><ele>1.0</ele><time>2026-04-07T16:43:07.574Z</time></trkpt><trkpt lat="44.917949" lon="11.7526666"><ele>2.0</ele><time>2026-04-07T16:43:08.565Z</time></trkpt><trkpt lat="44.9177718" lon="11.7523847"><ele>2.0</ele><time>2026-04-07T16:43:09.572Z</time></trkpt><trkpt lat="44.9176053" lon="11.7520993"><ele>2.0</ele><time>2026-04-07T16:43:10.571Z</time></trkpt><trkpt lat="44.9174008" lon="11.7518101"><ele>1.5</ele><time>2026-04-07T16:43:11.571Z</time></trkpt><trkpt lat="44.9172094" lon="11.7515171"><ele>1.0</ele><time>2026-04-07T16:43:12.575Z</time></trkpt><trkpt lat="44.9170068" lon="11.7512432"><ele>1.5</ele><time>2026-04-07T16:43:13.572Z</time></trkpt><trkpt lat="44.9168037" lon="11.7509774"><ele>2.0</ele><time>2026-04-07T16:43:14.573Z</time></trkpt><trkpt lat="44.9166216" lon="11.7507229"><ele>2.0</ele><time>2026-04-07T16:43:15.576Z</time></trkpt><trkpt lat="44.9164404" lon="11.7504698"><ele>2.0</ele><time>2026-04-07T16:43:16.578Z</time></trkpt><trkpt lat="44.9162957" lon="11.7502499"><ele>3.0</ele><time>2026-04-07T16:43:17.57Z</time></trkpt><trkpt lat="44.9161337" lon="11.7500292"><ele>4.0</ele><time>2026-04-07T16:43:18.579Z</time></trkpt><trkpt lat="44.9159728" lon="11.7497969"><ele>4.0</ele><time>2026-04-07T16:43:19.582Z</time></trkpt><trkpt lat="44.9157962" lon="11.7495583"><ele>4.0</ele><time>2026-04-07T16:43:20.565Z</time></trkpt><trkpt lat="44.9156247" lon="11.7492886"><ele>3.5</ele><time>2026-04-07T16:43:21.576Z</time></trkpt><trkpt lat="44.9154671" lon="11.7490122"><ele>3.0</ele><time>2026-04-07T16:43:22.578Z</time></trkpt><trkpt lat="44.9152861" lon="11.7487529"><ele>2.0</ele><time>2026-04-07T16:43:23.575Z</time></trkpt><trkpt lat="44.9151036" lon="11.7484751"><ele>1.0</ele><time>2026-04-07T16:43:24.579Z</time></trkpt><trkpt lat="44.9149271" lon="11.7481994"><ele>1.0</ele><time>2026-04-07T16:43:25.571Z</time></trkpt><trkpt lat="44.9147377" lon="11.7479204"><ele>1.0</ele><time>2026-04-07T16:43:26.574Z</time></trkpt><trkpt lat="44.9145414" lon="11.7476227"><ele>1.0</ele><time>2026-04-07T16:43:27.575Z</time></trkpt><trkpt lat="44.9143433" lon="11.7473286"><ele>1.0</ele><time>2026-04-07T16:43:28.576Z</time></trkpt><trkpt lat="44.9141539" lon="11.7470549"><ele>2.5</ele><time>2026-04-07T16:43:29.571Z</time></trkpt><trkpt lat="44.9139651" lon="11.7467769"><ele>4.0</ele><time>2026-04-07T16:43:30.574Z</time></trkpt><trkpt lat="44.9137783" lon="11.7464897"><ele>4.0</ele><time>2026-04-07T16:43:31.564Z</time></trkpt><trkpt lat="44.9135991" lon="11.7462129"><ele>4.0</ele><time>2026-04-07T16:43:32.572Z</time></trkpt><trkpt lat="44.9134147" lon="11.7459377"><ele>3.0</ele><time>2026-04-07T16:43:33.57Z</time></trkpt><trkpt lat="44.9132358" lon="11.7456811"><ele>2.0</ele><time>2026-04-07T16:43:34.567Z</time></trkpt><trkpt lat="44.9130529" lon="11.745403"><ele>2.5</ele><time>2026-04-07T16:43:35.571Z</time></trkpt><trkpt lat="44.9128738" lon="11.7451348"><ele>3.0</ele><time>2026-04-07T16:43:36.57Z</time></trkpt><trkpt lat="44.912704" lon="11.7448791"><ele>3.0</ele><time>2026-04-07T16:43:37.566Z</time></trkpt><trkpt lat="44.9125402" lon="11.7446468"><ele>3.0</ele><time>2026-04-07T16:43:38.57Z</time></trkpt><trkpt lat="44.9123753" lon="11.7444023"><ele>2.6666666666666665</ele><time>2026-04-07T16:43:39.569Z</time></trkpt><trkpt lat="44.9122393" lon="11.7442092"><ele>2.333333333333333</ele><time>2026-04-07T16:43:40.566Z</time></trkpt><trkpt lat="44.9120964" lon="11.7440199"><ele>2.0</ele><time>2026-04-07T16:43:41.57Z</time></trkpt><trkpt lat="44.9119809" lon="11.7438606"><ele>2.0</ele><time>2026-04-07T16:43:42.569Z</time></trkpt><trkpt lat="44.9118548" lon="11.7437011"><ele>2.0</ele><time>2026-04-07T16:43:43.571Z</time></trkpt><trkpt lat="44.9117134" lon="11.7435267"><ele>2.0</ele><time>2026-04-07T16:43:44.574Z</time></trkpt><trkpt lat="44.9116229" lon="11.7433828"><ele>2.0</ele><time>2026-04-07T16:43:45.574Z</time></trkpt><trkpt lat="44.9115315" lon="11.743245"><ele>2.0</ele><time>2026-04-07T16:43:46.568Z</time></trkpt><trkpt lat="44.9114537" lon="11.7431323"><ele>2.0</ele><time>2026-04-07T16:43:47.571Z</time></trkpt><trkpt lat="44.9113783" lon="11.7430056"><ele>2.0</ele><time>2026-04-07T16:43:48.571Z</time></trkpt><trkpt lat="44.9113341" lon="11.7429352"><ele>2.0</ele><time>2026-04-07T16:43:49.572Z</time></trkpt><trkpt lat="44.9112851" lon="11.7428424"><ele>1.9999999999999998</ele><time>2026-04-07T16:43:50.572Z</time></trkpt><trkpt lat="44.9112382" lon="11.7427644"><ele>2.0</ele><time>2026-04-07T16:43:51.559Z</time></trkpt><trkpt lat="44.9111852" lon="11.7426871"><ele>2.0</ele><time>2026-04-07T16:43:52.569Z</time></trkpt><trkpt lat="44.9111168" lon="11.742569"><ele>2.0</ele><time>2026-04-07T16:43:54.563Z</time></trkpt><trkpt lat="44.9110793" lon="11.7424883"><ele>1.9999999999999998</ele><time>2026-04-07T16:43:56.574Z</time></trkpt><trkpt lat="44.9110454" lon="11.7424119"><ele>2.0</ele><time>2026-04-07T16:44:15.559Z</time></trkpt><trkpt lat="44.9109465" lon="11.742394"><ele>2.0</ele><time>2026-04-07T16:44:18.562Z</time></trkpt><trkpt lat="44.9108585" lon="11.7425402"><ele>2.0</ele><time>2026-04-07T16:44:20.588Z</time></trkpt><trkpt lat="44.9107725" lon="11.7426559"><ele>2.0</ele><time>2026-04-07T16:44:21.555Z</time></trkpt><trkpt lat="44.9106763" lon="11.742789"><ele>2.0</ele><time>2026-04-07T16:44:22.566Z</time></trkpt><trkpt lat="44.9105638" lon="11.7429124"><ele>2.0</ele><time>2026-04-07T16:44:23.562Z</time></trkpt><trkpt lat="44.910446" lon="11.7430503"><ele>2.0</ele><time>2026-04-07T16:44:24.579Z</time></trkpt><trkpt lat="44.910304" lon="11.7432405"><ele>2.0</ele><time>2026-04-07T16:44:25.591Z</time></trkpt><trkpt lat="44.9101548" lon="11.7435"><ele>1.5</ele><time>2026-04-07T16:44:26.572Z</time></trkpt><trkpt lat="44.909979" lon="11.743744"><ele>1.0</ele><time>2026-04-07T16:44:27.573Z</time></trkpt><trkpt lat="44.9098092" lon="11.7440089"><ele>1.0</ele><time>2026-04-07T16:44:28.578Z</time></trkpt><trkpt lat="44.9096457" lon="11.7442403"><ele>1.0</ele><time>2026-04-07T16:44:29.576Z</time></trkpt><trkpt lat="44.9095194" lon="11.7444152"><ele>1.0</ele><time>2026-04-07T16:44:30.564Z</time></trkpt><trkpt lat="44.9094012" lon="11.7445982"><ele>1.0</ele><time>2026-04-07T16:44:31.572Z</time></trkpt><trkpt lat="44.9092987" lon="11.7447526"><ele>1.0</ele><time>2026-04-07T16:44:32.569Z</time></trkpt><trkpt lat="44.909188" lon="11.7448388"><ele>1.0</ele><time>2026-04-07T16:44:33.562Z</time></trkpt><trkpt lat="44.9091057" lon="11.7449337"><ele>1.0</ele><time>2026-04-07T16:44:34.561Z</time></trkpt><trkpt lat="44.9090078" lon="11.7449765"><ele>1.1666666666666665</ele><time>2026-04-07T16:44:35.561Z</time></trkpt><trkpt lat="44.9089221" lon="11.74496"><ele>1.3333333333333333</ele><time>2026-04-07T16:44:36.549Z</time></trkpt><trkpt lat="44.9089752" lon="11.7448772"><ele>1.5</ele><time>2026-04-07T16:44:44.569Z</time></trkpt><trkpt lat="44.9090384" lon="11.7447953"><ele>1.6666666666666665</ele><time>2026-04-07T16:44:46.567Z</time></trkpt><trkpt lat="44.9091127" lon="11.7446791"><ele>1.8333333333333333</ele><time>2026-04-07T16:44:48.555Z</time></trkpt><trkpt lat="44.9091681" lon="11.744615"><ele>2.0</ele><time>2026-04-07T16:44:49.566Z</time></trkpt><trkpt lat="44.9092289" lon="11.7445636"><ele>1.8</ele><time>2026-04-07T16:44:50.569Z</time></trkpt><trkpt lat="44.9092956" lon="11.7445086"><ele>1.6</ele><time>2026-04-07T16:44:51.571Z</time></trkpt><trkpt lat="44.9093659" lon="11.7444421"><ele>1.4000000000000001</ele><time>2026-04-07T16:44:52.567Z</time></trkpt><trkpt lat="44.9094337" lon="11.7443554"><ele>1.2000000000000002</ele><time>2026-04-07T16:44:53.562Z</time></trkpt><trkpt lat="44.9095142" lon="11.7442639"><ele>1.0</ele><time>2026-04-07T16:44:54.565Z</time></trkpt><trkpt lat="44.9095979" lon="11.744159"><ele>1.0</ele><time>2026-04-07T16:44:55.573Z</time></trkpt><trkpt lat="44.9096858" lon="11.7440534"><ele>1.0</ele><time>2026-04-07T16:44:56.571Z</time></trkpt><trkpt lat="44.9097797" lon="11.7439446"><ele>1.0</ele><time>2026-04-07T16:44:57.571Z</time></trkpt><trkpt lat="44.9098735" lon="11.7438307"><ele>1.0</ele><time>2026-04-07T16:44:58.583Z</time></trkpt><trkpt lat="44.909968" lon="11.7437112"><ele>1.0</ele><time>2026-04-07T16:44:59.571Z</time></trkpt><trkpt lat="44.9100618" lon="11.7435842"><ele>1.0</ele><time>2026-04-07T16:45:00.568Z</time></trkpt><trkpt lat="44.9101596" lon="11.7434659"><ele>1.0</ele><time>2026-04-07T16:45:01.563Z</time></trkpt><trkpt lat="44.9102578" lon="11.7433607"><ele>1.0</ele><time>2026-04-07T16:45:02.563Z</time></trkpt><trkpt lat="44.9103433" lon="11.7432638"><ele>1.2000000000000002</ele><time>2026-04-07T16:45:03.565Z</time></trkpt><trkpt lat="44.9104219" lon="11.7431722"><ele>1.4000000000000001</ele><time>2026-04-07T16:45:04.562Z</time></trkpt><trkpt lat="44.9104969" lon="11.7430783"><ele>1.6</ele><time>2026-04-07T16:45:05.566Z</time></trkpt><trkpt lat="44.910573" lon="11.7429825"><ele>1.8</ele><time>2026-04-07T16:45:06.56Z</time></trkpt><trkpt lat="44.9106511" lon="11.7428818"><ele>2.0</ele><time>2026-04-07T16:45:07.568Z</time></trkpt><trkpt lat="44.9107234" lon="11.742794"><ele>1.9999999999999998</ele><time>2026-04-07T16:45:08.56Z</time></trkpt><trkpt lat="44.9107807" lon="11.74271"><ele>2.0</ele><time>2026-04-07T16:45:09.563Z</time></trkpt><trkpt lat="44.9108309" lon="11.7426367"><ele>2.0</ele><time>2026-04-07T16:45:10.56Z</time></trkpt><trkpt lat="44.9108733" lon="11.7425694"><ele>2.0</ele><time>2026-04-07T16:45:11.561Z</time></trkpt><trkpt lat="44.910953" lon="11.742475"><ele>1.9999999999999998</ele><time>2026-04-07T16:45:13.565Z</time></trkpt><trkpt lat="44.9110183" lon="11.742398"><ele>2.0</ele><time>2026-04-07T16:45:16.564Z</time></trkpt><trkpt lat="44.9110673" lon="11.7423326"><ele>2.0</ele><time>2026-04-07T16:45:19.562Z</time></trkpt><trkpt lat="44.9109662" lon="11.7421721"><ele>2.0</ele><time>2026-04-07T16:45:21.557Z</time></trkpt><trkpt lat="44.910897" lon="11.7420884"><ele>2.0</ele><time>2026-04-07T16:45:22.549Z</time></trkpt><trkpt lat="44.9108163" lon="11.7419944"><ele>2.0</ele><time>2026-04-07T16:45:23.558Z</time></trkpt><trkpt lat="44.9107217" lon="11.7418896"><ele>2.25</ele><time>2026-04-07T16:45:24.559Z</time></trkpt><trkpt lat="44.9106215" lon="11.7417564"><ele>2.5</ele><time>2026-04-07T16:45:25.56Z</time></trkpt><trkpt lat="44.9105194" lon="11.7416151"><ele>2.75</ele><time>2026-04-07T16:45:26.561Z</time></trkpt><trkpt lat="44.9104081" lon="11.7414661"><ele>3.0</ele><time>2026-04-07T16:45:27.563Z</time></trkpt><trkpt lat="44.9102875" lon="11.7413035"><ele>3.0</ele><time>2026-04-07T16:45:28.556Z</time></trkpt><trkpt lat="44.9101341" lon="11.7411918"><ele>3.0</ele><time>2026-04-07T16:45:29.567Z</time></trkpt><trkpt lat="44.9099856" lon="11.7410952"><ele>3.0</ele><time>2026-04-07T16:45:30.557Z</time></trkpt><trkpt lat="44.9098406" lon="11.7410181"><ele>2.3333333333333335</ele><time>2026-04-07T16:45:31.56Z</time></trkpt><trkpt lat="44.9096527" lon="11.740941"><ele>1.6666666666666665</ele><time>2026-04-07T16:45:32.56Z</time></trkpt><trkpt lat="44.9094629" lon="11.7409029"><ele>1.0</ele><time>2026-04-07T16:45:33.561Z</time></trkpt><trkpt lat="44.9092799" lon="11.7408914"><ele>1.3333333333333333</ele><time>2026-04-07T16:45:34.559Z</time></trkpt><trkpt lat="44.9091086" lon="11.7408856"><ele>1.6666666666666665</ele><time>2026-04-07T16:45:35.568Z</time></trkpt><trkpt lat="44.9089384" lon="11.7408754"><ele>2.0</ele><time>2026-04-07T16:45:36.564Z</time></trkpt><trkpt lat="44.9087483" lon="11.7408467"><ele>2.0</ele><time>2026-04-07T16:45:37.561Z</time></trkpt><trkpt lat="44.9085524" lon="11.7407941"><ele>2.0</ele><time>2026-04-07T16:45:38.565Z</time></trkpt><trkpt lat="44.9083495" lon="11.7407497"><ele>2.0</ele><time>2026-04-07T16:45:39.559Z</time></trkpt><trkpt lat="44.9081378" lon="11.7407025"><ele>0.0</ele><time>2026-04-07T16:45:40.559Z</time></trkpt><trkpt lat="44.9079192" lon="11.7406188"><ele>-2.0</ele><time>2026-04-07T16:45:41.562Z</time></trkpt><trkpt lat="44.9076934" lon="11.7405139"><ele>-2.333333333333333</ele><time>2026-04-07T16:45:42.557Z</time></trkpt><trkpt lat="44.9074898" lon="11.7404519"><ele>-2.6666666666666665</ele><time>2026-04-07T16:45:43.556Z</time></trkpt><trkpt lat="44.907285" lon="11.7404206"><ele>-3.0</ele><time>2026-04-07T16:45:44.556Z</time></trkpt><trkpt lat="44.9070752" lon="11.7404043"><ele>-3.0</ele><time>2026-04-07T16:45:45.558Z</time></trkpt><trkpt lat="44.9068734" lon="11.7404322"><ele>-3.0</ele><time>2026-04-07T16:45:46.559Z</time></trkpt><trkpt lat="44.9066832" lon="11.7404927"><ele>-3.0</ele><time>2026-04-07T16:45:47.561Z</time></trkpt><trkpt lat="44.9064917" lon="11.7405683"><ele>-1.6666666666666667</ele><time>2026-04-07T16:45:48.559Z</time></trkpt><trkpt lat="44.9062888" lon="11.7406576"><ele>-0.33333333333333337</ele><time>2026-04-07T16:45:49.588Z</time></trkpt><trkpt lat="44.9060724" lon="11.7407249"><ele>1.0</ele><time>2026-04-07T16:45:50.565Z</time></trkpt><trkpt lat="44.905846" lon="11.7408005"><ele>1.0</ele><time>2026-04-07T16:45:51.567Z</time></trkpt><trkpt lat="44.905616" lon="11.7408825"><ele>1.0</ele><time>2026-04-07T16:45:52.563Z</time></trkpt><trkpt lat="44.9053948" lon="11.7409733"><ele>0.6666666666666666</ele><time>2026-04-07T16:45:53.568Z</time></trkpt><trkpt lat="44.9052044" lon="11.7410559"><ele>0.3333333333333333</ele><time>2026-04-07T16:45:54.568Z</time></trkpt><trkpt lat="44.9050144" lon="11.7411363"><ele>0.0</ele><time>2026-04-07T16:45:55.565Z</time></trkpt><trkpt lat="44.904825" lon="11.7412024"><ele>0.0</ele><time>2026-04-07T16:45:56.561Z</time></trkpt><trkpt lat="44.9046325" lon="11.7412751"><ele>0.0</ele><time>2026-04-07T16:45:57.573Z</time></trkpt><trkpt lat="44.904438" lon="11.741308"><ele>0.0</ele><time>2026-04-07T16:45:58.558Z</time></trkpt><trkpt lat="44.9042414" lon="11.7413118"><ele>1.0</ele><time>2026-04-07T16:45:59.562Z</time></trkpt><trkpt lat="44.9040252" lon="11.7412957"><ele>2.0</ele><time>2026-04-07T16:46:00.562Z</time></trkpt><trkpt lat="44.9037878" lon="11.741258"><ele>2.0</ele><time>2026-04-07T16:46:01.559Z</time></trkpt><trkpt lat="44.9035582" lon="11.7412003"><ele>2.0</ele><time>2026-04-07T16:46:02.557Z</time></trkpt><trkpt lat="44.9033484" lon="11.7411462"><ele>2.0</ele><time>2026-04-07T16:46:03.558Z</time></trkpt><trkpt lat="44.9031446" lon="11.7410746"><ele>2.0</ele><time>2026-04-07T16:46:04.552Z</time></trkpt><trkpt lat="44.902934" lon="11.7410202"><ele>2.0</ele><time>2026-04-07T16:46:05.559Z</time></trkpt><trkpt lat="44.9027564" lon="11.7409658"><ele>2.0</ele><time>2026-04-07T16:46:06.558Z</time></trkpt><trkpt lat="44.902576" lon="11.7409321"><ele>2.333333333333333</ele><time>2026-04-07T16:46:07.556Z</time></trkpt><trkpt lat="44.9023703" lon="11.7409254"><ele>2.6666666666666665</ele><time>2026-04-07T16:46:08.558Z</time></trkpt><trkpt lat="44.9021586" lon="11.7409647"><ele>3.0</ele><time>2026-04-07T16:46:09.561Z</time></trkpt><trkpt lat="44.9019512" lon="11.7410619"><ele>3.0</ele><time>2026-04-07T16:46:10.557Z</time></trkpt><trkpt lat="44.9017203" lon="11.7411874"><ele>3.0</ele><time>2026-04-07T16:46:11.567Z</time></trkpt><trkpt lat="44.9015039" lon="11.7413231"><ele>3.0</ele><time>2026-04-07T16:46:12.556Z</time></trkpt><trkpt lat="44.9012843" lon="11.7414442"><ele>3.0</ele><time>2026-04-07T16:46:13.555Z</time></trkpt><trkpt lat="44.9010701" lon="11.741589"><ele>2.6666666666666665</ele><time>2026-04-07T16:46:14.566Z</time></trkpt><trkpt lat="44.9008771" lon="11.7417376"><ele>2.333333333333333</ele><time>2026-04-07T16:46:15.564Z</time></trkpt><trkpt lat="44.9006747" lon="11.7418772"><ele>2.0</ele><time>2026-04-07T16:46:16.559Z</time></trkpt><trkpt lat="44.9005141" lon="11.7420195"><ele>2.0</ele><time>2026-04-07T16:46:17.572Z</time></trkpt><trkpt lat="44.9003491" lon="11.7421156"><ele>2.0</ele><time>2026-04-07T16:46:18.562Z</time></trkpt><trkpt lat="44.9001656" lon="11.7421888"><ele>2.0</ele><time>2026-04-07T16:46:19.561Z</time></trkpt><trkpt lat="44.8999594" lon="11.7422214"><ele>1.0</ele><time>2026-04-07T16:46:20.565Z</time></trkpt><trkpt lat="44.8997355" lon="11.7421818"><ele>0.0</ele><time>2026-04-07T16:46:21.56Z</time></trkpt><trkpt lat="44.8994949" lon="11.7421636"><ele>0.0</ele><time>2026-04-07T16:46:22.562Z</time></trkpt><trkpt lat="44.8992645" lon="11.742135"><ele>0.0</ele><time>2026-04-07T16:46:23.561Z</time></trkpt><trkpt lat="44.8990534" lon="11.74211"><ele>0.0</ele><time>2026-04-07T16:46:24.584Z</time></trkpt><trkpt lat="44.8988308" lon="11.7420858"><ele>1.0</ele><time>2026-04-07T16:46:25.553Z</time></trkpt><trkpt lat="44.898603" lon="11.742085"><ele>2.0</ele><time>2026-04-07T16:46:26.561Z</time></trkpt><trkpt lat="44.8983663" lon="11.7420841"><ele>2.0</ele><time>2026-04-07T16:46:27.562Z</time></trkpt><trkpt lat="44.8981218" lon="11.7420858"><ele>2.0</ele><time>2026-04-07T16:46:28.561Z</time></trkpt><trkpt lat="44.8978692" lon="11.7420852"><ele>2.0</ele><time>2026-04-07T16:46:29.564Z</time></trkpt><trkpt lat="44.897602" lon="11.7420795"><ele>2.0</ele><time>2026-04-07T16:46:30.581Z</time></trkpt><trkpt lat="44.8973415" lon="11.7420735"><ele>1.0</ele><time>2026-04-07T16:46:31.551Z</time></trkpt><trkpt lat="44.8971031" lon="11.7420788"><ele>0.0</ele><time>2026-04-07T16:46:32.559Z</time></trkpt><trkpt lat="44.8968764" lon="11.7420727"><ele>0.3333333333333333</ele><time>2026-04-07T16:46:33.55Z</time></trkpt><trkpt lat="44.8966621" lon="11.7420806"><ele>0.6666666666666666</ele><time>2026-04-07T16:46:34.553Z</time></trkpt><trkpt lat="44.8964565" lon="11.7420763"><ele>1.0</ele><time>2026-04-07T16:46:35.565Z</time></trkpt><trkpt lat="44.8962581" lon="11.7420904"><ele>1.0</ele><time>2026-04-07T16:46:36.558Z</time></trkpt><trkpt lat="44.8960747" lon="11.7421122"><ele>1.0</ele><time>2026-04-07T16:46:37.557Z</time></trkpt><trkpt lat="44.8959257" lon="11.7421095"><ele>1.0</ele><time>2026-04-07T16:46:38.563Z</time></trkpt><trkpt lat="44.895794" lon="11.742119"><ele>1.0</ele><time>2026-04-07T16:46:39.561Z</time></trkpt><trkpt lat="44.8956773" lon="11.7421339"><ele>1.0</ele><time>2026-04-07T16:46:40.566Z</time></trkpt><trkpt lat="44.8955682" lon="11.7421333"><ele>1.0</ele><time>2026-04-07T16:46:41.57Z</time></trkpt><trkpt lat="44.895459" lon="11.7421329"><ele>1.0</ele><time>2026-04-07T16:46:42.57Z</time></trkpt><trkpt lat="44.8953654" lon="11.742134"><ele>1.0</ele><time>2026-04-07T16:46:43.564Z</time></trkpt><trkpt lat="44.8952734" lon="11.7421398"><ele>1.0</ele><time>2026-04-07T16:46:44.575Z</time></trkpt><trkpt lat="44.89519" lon="11.7421582"><ele>1.0</ele><time>2026-04-07T16:46:45.563Z</time></trkpt><trkpt lat="44.8951269" lon="11.7421852"><ele>1.0</ele><time>2026-04-07T16:46:46.572Z</time></trkpt><trkpt lat="44.8950584" lon="11.7422049"><ele>1.0</ele><time>2026-04-07T16:46:47.569Z</time></trkpt><trkpt lat="44.8949501" lon="11.7421859"><ele>1.0</ele><time>2026-04-07T16:46:49.569Z</time></trkpt><trkpt lat="44.8948733" lon="11.7420532"><ele>0.8</ele><time>2026-04-07T16:46:51.566Z</time></trkpt><trkpt lat="44.8948135" lon="11.7419598"><ele>0.6000000000000001</ele><time>2026-04-07T16:46:52.563Z</time></trkpt><trkpt lat="44.8947394" lon="11.7418541"><ele>0.4</ele><time>2026-04-07T16:46:53.563Z</time></trkpt><trkpt lat="44.8946478" lon="11.7417309"><ele>0.2</ele><time>2026-04-07T16:46:54.563Z</time></trkpt><trkpt lat="44.8945604" lon="11.7416096"><ele>0.0</ele><time>2026-04-07T16:46:55.562Z</time></trkpt><trkpt lat="44.8944742" lon="11.7414877"><ele>0.25</ele><time>2026-04-07T16:46:56.568Z</time></trkpt><trkpt lat="44.8943831" lon="11.7413542"><ele>0.5</ele><time>2026-04-07T16:46:57.557Z</time></trkpt><trkpt lat="44.8942866" lon="11.7412219"><ele>0.75</ele><time>2026-04-07T16:46:58.571Z</time></trkpt><trkpt lat="44.8941872" lon="11.7410835"><ele>1.0</ele><time>2026-04-07T16:46:59.569Z</time></trkpt><trkpt lat="44.8940906" lon="11.7409419"><ele>1.0</ele><time>2026-04-07T16:47:00.565Z</time></trkpt><trkpt lat="44.8939883" lon="11.7408065"><ele>1.0</ele><time>2026-04-07T16:47:01.569Z</time></trkpt><trkpt lat="44.8938894" lon="11.7406768"><ele>1.0</ele><time>2026-04-07T16:47:02.563Z</time></trkpt><trkpt lat="44.8937864" lon="11.7405389"><ele>1.0</ele><time>2026-04-07T16:47:03.572Z</time></trkpt><trkpt lat="44.8936752" lon="11.7403901"><ele>0.6666666666666666</ele><time>2026-04-07T16:47:04.57Z</time></trkpt><trkpt lat="44.8935526" lon="11.7402147"><ele>0.3333333333333333</ele><time>2026-04-07T16:47:05.573Z</time></trkpt><trkpt lat="44.8934345" lon="11.740036"><ele>0.0</ele><time>2026-04-07T16:47:06.57Z</time></trkpt><trkpt lat="44.8933214" lon="11.7398783"><ele>0.0</ele><time>2026-04-07T16:47:07.566Z</time></trkpt><trkpt lat="44.8932329" lon="11.7397405"><ele>0.0</ele><time>2026-04-07T16:47:08.567Z</time></trkpt><trkpt lat="44.8931359" lon="11.7395872"><ele>0.0</ele><time>2026-04-07T16:47:09.569Z</time></trkpt><trkpt lat="44.8930449" lon="11.7394328"><ele>0.0</ele><time>2026-04-07T16:47:10.572Z</time></trkpt><trkpt lat="44.8929378" lon="11.7393134"><ele>0.0</ele><time>2026-04-07T16:47:11.566Z</time></trkpt><trkpt lat="44.892837" lon="11.7391626"><ele>0.0</ele><time>2026-04-07T16:47:12.573Z</time></trkpt><trkpt lat="44.8927218" lon="11.7390004"><ele>0.0</ele><time>2026-04-07T16:47:13.567Z</time></trkpt><trkpt lat="44.8926118" lon="11.7388622"><ele>0.3333333333333333</ele><time>2026-04-07T16:47:14.565Z</time></trkpt><trkpt lat="44.8925115" lon="11.7387195"><ele>0.6666666666666666</ele><time>2026-04-07T16:47:15.566Z</time></trkpt><trkpt lat="44.8923872" lon="11.7385645"><ele>1.0</ele><time>2026-04-07T16:47:16.571Z</time></trkpt><trkpt lat="44.8922821" lon="11.7384277"><ele>1.25</ele><time>2026-04-07T16:47:17.568Z</time></trkpt><trkpt lat="44.8921912" lon="11.7382949"><ele>1.5</ele><time>2026-04-07T16:47:18.57Z</time></trkpt><trkpt lat="44.892112" lon="11.7381627"><ele>1.75</ele><time>2026-04-07T16:47:19.573Z</time></trkpt><trkpt lat="44.8920137" lon="11.7380266"><ele>2.0</ele><time>2026-04-07T16:47:20.571Z</time></trkpt><trkpt lat="44.8919014" lon="11.7378766"><ele>2.0</ele><time>2026-04-07T16:47:21.577Z</time></trkpt><trkpt lat="44.8918014" lon="11.7377114"><ele>2.0</ele><time>2026-04-07T16:47:22.572Z</time></trkpt><trkpt lat="44.8916854" lon="11.73754"><ele>2.0</ele><time>2026-04-07T16:47:23.654Z</time></trkpt><trkpt lat="44.8915822" lon="11.7373822"><ele>2.0</ele><time>2026-04-07T16:47:24.586Z</time></trkpt><trkpt lat="44.8914666" lon="11.737221"><ele>2.0</ele><time>2026-04-07T16:47:25.567Z</time></trkpt><trkpt lat="44.8913679" lon="11.737068"><ele>2.0</ele><time>2026-04-07T16:47:26.572Z</time></trkpt><trkpt lat="44.8912573" lon="11.7368978"><ele>2.0</ele><time>2026-04-07T16:47:27.573Z</time></trkpt><trkpt lat="44.8911403" lon="11.7367326"><ele>2.0</ele><time>2026-04-07T16:47:28.573Z</time></trkpt><trkpt lat="44.891028" lon="11.7365919"><ele>2.0</ele><time>2026-04-07T16:47:29.572Z</time></trkpt><trkpt lat="44.8909163" lon="11.7364431"><ele>2.0</ele><time>2026-04-07T16:47:30.579Z</time></trkpt><trkpt lat="44.8908005" lon="11.7362951"><ele>2.0</ele><time>2026-04-07T16:47:31.561Z</time></trkpt><trkpt lat="44.8907037" lon="11.7361504"><ele>2.0</ele><time>2026-04-07T16:47:32.573Z</time></trkpt><trkpt lat="44.8906042" lon="11.7359898"><ele>2.0</ele><time>2026-04-07T16:47:33.573Z</time></trkpt><trkpt lat="44.8905027" lon="11.735852"><ele>1.6666666666666665</ele><time>2026-04-07T16:47:34.57Z</time></trkpt><trkpt lat="44.890402" lon="11.7357028"><ele>1.3333333333333333</ele><time>2026-04-07T16:47:35.573Z</time></trkpt><trkpt lat="44.8902915" lon="11.7355541"><ele>1.0</ele><time>2026-04-07T16:47:36.576Z</time></trkpt><trkpt lat="44.8901778" lon="11.7353902"><ele>1.0</ele><time>2026-04-07T16:47:37.562Z</time></trkpt><trkpt lat="44.8900467" lon="11.7352146"><ele>1.0</ele><time>2026-04-07T16:47:38.575Z</time></trkpt><trkpt lat="44.8899257" lon="11.7350513"><ele>1.0</ele><time>2026-04-07T16:47:39.573Z</time></trkpt><trkpt lat="44.8897954" lon="11.7348718"><ele>1.0</ele><time>2026-04-07T16:47:40.574Z</time></trkpt><trkpt lat="44.8897033" lon="11.7347142"><ele>1.0</ele><time>2026-04-07T16:47:41.577Z</time></trkpt><trkpt lat="44.8896102" lon="11.7345585"><ele>1.0</ele><time>2026-04-07T16:47:42.576Z</time></trkpt><trkpt lat="44.8895123" lon="11.7344118"><ele>1.0</ele><time>2026-04-07T16:47:43.562Z</time></trkpt><trkpt lat="44.8894046" lon="11.7342432"><ele>1.0</ele><time>2026-04-07T16:47:44.573Z</time></trkpt><trkpt lat="44.8892855" lon="11.7340775"><ele>1.0</ele><time>2026-04-07T16:47:45.577Z</time></trkpt><trkpt lat="44.8891756" lon="11.7339223"><ele>1.0</ele><time>2026-04-07T16:47:46.575Z</time></trkpt><trkpt lat="44.8890723" lon="11.7337866"><ele>0.75</ele><time>2026-04-07T16:47:47.583Z</time></trkpt><trkpt lat="44.8889608" lon="11.7336595"><ele>0.5</ele><time>2026-04-07T16:47:48.601Z</time></trkpt><trkpt lat="44.8888469" lon="11.7335448"><ele>0.25</ele><time>2026-04-07T16:47:49.568Z</time></trkpt><trkpt lat="44.8887392" lon="11.7334362"><ele>0.0</ele><time>2026-04-07T16:47:50.573Z</time></trkpt><trkpt lat="44.8886401" lon="11.7333523"><ele>0.0</ele><time>2026-04-07T16:47:51.571Z</time></trkpt><trkpt lat="44.8885814" lon="11.7333023"><ele>0.0</ele><time>2026-04-07T16:47:52.561Z</time></trkpt><trkpt lat="44.8885155" lon="11.7332557"><ele>0.0</ele><time>2026-04-07T16:47:53.575Z</time></trkpt><trkpt lat="44.8884288" lon="11.7331506"><ele>0.0</ele><time>2026-04-07T16:47:55.562Z</time></trkpt><trkpt lat="44.8883769" lon="11.7330909"><ele>0.0</ele><time>2026-04-07T16:47:56.568Z</time></trkpt><trkpt lat="44.8883131" lon="11.7330138"><ele>0.0</ele><time>2026-04-07T16:47:57.569Z</time></trkpt><trkpt lat="44.8882432" lon="11.73292"><ele>0.0</ele><time>2026-04-07T16:47:58.568Z</time></trkpt><trkpt lat="44.8881662" lon="11.7328268"><ele>0.0</ele><time>2026-04-07T16:47:59.573Z</time></trkpt><trkpt lat="44.8880823" lon="11.7327249"><ele>0.0</ele><time>2026-04-07T16:48:00.569Z</time></trkpt><trkpt lat="44.8879937" lon="11.7326208"><ele>0.0</ele><time>2026-04-07T16:48:01.576Z</time></trkpt><trkpt lat="44.8879041" lon="11.732518"><ele>0.0</ele><time>2026-04-07T16:48:02.569Z</time></trkpt><trkpt lat="44.8878117" lon="11.7324163"><ele>0.0</ele><time>2026-04-07T16:48:03.572Z</time></trkpt><trkpt lat="44.8877161" lon="11.7323065"><ele>0.0</ele><time>2026-04-07T16:48:04.56Z</time></trkpt><trkpt lat="44.8876227" lon="11.7321942"><ele>0.0</ele><time>2026-04-07T16:48:05.575Z</time></trkpt><trkpt lat="44.8875304" lon="11.7320938"><ele>0.0</ele><time>2026-04-07T16:48:06.565Z</time></trkpt><trkpt lat="44.8874333" lon="11.7319872"><ele>-0.25</ele><time>2026-04-07T16:48:07.57Z</time></trkpt><trkpt lat="44.8873302" lon="11.7318698"><ele>-0.5</ele><time>2026-04-07T16:48:08.572Z</time></trkpt><trkpt lat="44.8872203" lon="11.7317503"><ele>-0.75</ele><time>2026-04-07T16:48:09.567Z</time></trkpt><trkpt lat="44.8870893" lon="11.7316165"><ele>-1.0</ele><time>2026-04-07T16:48:10.568Z</time></trkpt><trkpt lat="44.8869657" lon="11.7314873"><ele>-1.0</ele><time>2026-04-07T16:48:11.577Z</time></trkpt><trkpt lat="44.8868517" lon="11.7313512"><ele>-1.0</ele><time>2026-04-07T16:48:12.575Z</time></trkpt><trkpt lat="44.8867287" lon="11.7312113"><ele>-1.0</ele><time>2026-04-07T16:48:13.57Z</time></trkpt><trkpt lat="44.8866118" lon="11.7310702"><ele>-0.6666666666666666</ele><time>2026-04-07T16:48:14.575Z</time></trkpt><trkpt lat="44.8864697" lon="11.7309029"><ele>-0.3333333333333333</ele><time>2026-04-07T16:48:15.566Z</time></trkpt><trkpt lat="44.8863409" lon="11.7307437"><ele>0.0</ele><time>2026-04-07T16:48:16.575Z</time></trkpt><trkpt lat="44.8862014" lon="11.7305845"><ele>0.0</ele><time>2026-04-07T16:48:17.576Z</time></trkpt><trkpt lat="44.8860805" lon="11.7304527"><ele>0.0</ele><time>2026-04-07T16:48:18.57Z</time></trkpt><trkpt lat="44.8859915" lon="11.730357"><ele>0.0</ele><time>2026-04-07T16:48:19.567Z</time></trkpt><trkpt lat="44.8858617" lon="11.7302115"><ele>0.0</ele><time>2026-04-07T16:48:20.571Z</time></trkpt><trkpt lat="44.8857429" lon="11.7300795"><ele>0.6666666666666666</ele><time>2026-04-07T16:48:21.575Z</time></trkpt><trkpt lat="44.8856241" lon="11.7299476"><ele>1.3333333333333333</ele><time>2026-04-07T16:48:22.575Z</time></trkpt><trkpt lat="44.8855006" lon="11.7298013"><ele>2.0</ele><time>2026-04-07T16:48:23.576Z</time></trkpt><trkpt lat="44.8853723" lon="11.7296642"><ele>2.0</ele><time>2026-04-07T16:48:24.572Z</time></trkpt><trkpt lat="44.8852399" lon="11.7295318"><ele>2.0</ele><time>2026-04-07T16:48:25.56Z</time></trkpt><trkpt lat="44.8851182" lon="11.7294035"><ele>2.0</ele><time>2026-04-07T16:48:26.572Z</time></trkpt><trkpt lat="44.8849905" lon="11.7292723"><ele>1.75</ele><time>2026-04-07T16:48:27.565Z</time></trkpt><trkpt lat="44.8848722" lon="11.7291557"><ele>1.5</ele><time>2026-04-07T16:48:28.571Z</time></trkpt><trkpt lat="44.8847582" lon="11.7290324"><ele>1.25</ele><time>2026-04-07T16:48:29.57Z</time></trkpt><trkpt lat="44.8846592" lon="11.7289336"><ele>1.0</ele><time>2026-04-07T16:48:30.568Z</time></trkpt><trkpt lat="44.8845525" lon="11.7288301"><ele>1.0</ele><time>2026-04-07T16:48:31.57Z</time></trkpt><trkpt lat="44.8844495" lon="11.7287294"><ele>1.0</ele><time>2026-04-07T16:48:32.569Z</time></trkpt><trkpt lat="44.8843506" lon="11.7286358"><ele>1.0</ele><time>2026-04-07T16:48:33.567Z</time></trkpt><trkpt lat="44.8842342" lon="11.7285391"><ele>1.0</ele><time>2026-04-07T16:48:34.568Z</time></trkpt><trkpt lat="44.884121" lon="11.7284351"><ele>1.25</ele><time>2026-04-07T16:48:35.569Z</time></trkpt><trkpt lat="44.8840151" lon="11.7283503"><ele>1.5</ele><time>2026-04-07T16:48:36.562Z</time></trkpt><trkpt lat="44.8838981" lon="11.7282574"><ele>1.75</ele><time>2026-04-07T16:48:37.564Z</time></trkpt><trkpt lat="44.8837941" lon="11.7281753"><ele>2.0</ele><time>2026-04-07T16:48:38.641Z</time></trkpt><trkpt lat="44.8836901" lon="11.728091"><ele>2.0</ele><time>2026-04-07T16:48:39.568Z</time></trkpt><trkpt lat="44.8835862" lon="11.7280163"><ele>2.0</ele><time>2026-04-07T16:48:40.561Z</time></trkpt><trkpt lat="44.8834867" lon="11.7279314"><ele>2.0</ele><time>2026-04-07T16:48:41.573Z</time></trkpt><trkpt lat="44.8833815" lon="11.7278458"><ele>2.0</ele><time>2026-04-07T16:48:42.565Z</time></trkpt><trkpt lat="44.8832727" lon="11.7277641"><ele>2.0</ele><time>2026-04-07T16:48:43.566Z</time></trkpt><trkpt lat="44.8831578" lon="11.7276644"><ele>2.0</ele><time>2026-04-07T16:48:44.565Z</time></trkpt><trkpt lat="44.8830156" lon="11.7275329"><ele>2.0</ele><time>2026-04-07T16:48:45.564Z</time></trkpt><trkpt lat="44.8828848" lon="11.7274364"><ele>2.0</ele><time>2026-04-07T16:48:46.558Z</time></trkpt><trkpt lat="44.8827662" lon="11.7273498"><ele>2.0</ele><time>2026-04-07T16:48:47.569Z</time></trkpt><trkpt lat="44.8826345" lon="11.7272441"><ele>2.0</ele><time>2026-04-07T16:48:48.57Z</time></trkpt><trkpt lat="44.8825056" lon="11.7271383"><ele>2.0</ele><time>2026-04-07T16:48:49.572Z</time></trkpt><trkpt lat="44.8823688" lon="11.7270249"><ele>2.0</ele><time>2026-04-07T16:48:50.722Z</time></trkpt><trkpt lat="44.8821121" lon="11.726801"><ele>2.0</ele><time>2026-04-07T16:48:52.565Z</time></trkpt><trkpt lat="44.881989" lon="11.7266922"><ele>2.0</ele><time>2026-04-07T16:48:53.568Z</time></trkpt><trkpt lat="44.881866" lon="11.7266028"><ele>2.0</ele><time>2026-04-07T16:48:54.569Z</time></trkpt><trkpt lat="44.8817285" lon="11.7265"><ele>2.0</ele><time>2026-04-07T16:48:55.569Z</time></trkpt><trkpt lat="44.8815952" lon="11.7263829"><ele>2.0</ele><time>2026-04-07T16:48:56.57Z</time></trkpt><trkpt lat="44.8814573" lon="11.726269"><ele>2.0</ele><time>2026-04-07T16:48:57.571Z</time></trkpt><trkpt lat="44.8813293" lon="11.7261669"><ele>2.0</ele><time>2026-04-07T16:48:58.568Z</time></trkpt><trkpt lat="44.8812162" lon="11.726061"><ele>2.0</ele><time>2026-04-07T16:48:59.57Z</time></trkpt><trkpt lat="44.8810927" lon="11.7259332"><ele>2.0</ele><time>2026-04-07T16:49:00.572Z</time></trkpt><trkpt lat="44.880957" lon="11.725791"><ele>2.0</ele><time>2026-04-07T16:49:01.562Z</time></trkpt><trkpt lat="44.8808138" lon="11.7256397"><ele>2.0</ele><time>2026-04-07T16:49:02.619Z</time></trkpt><trkpt lat="44.8806791" lon="11.7254806"><ele>2.0</ele><time>2026-04-07T16:49:03.568Z</time></trkpt><trkpt lat="44.880551" lon="11.7253208"><ele>1.6666666666666665</ele><time>2026-04-07T16:49:04.559Z</time></trkpt><trkpt lat="44.8804206" lon="11.7251539"><ele>1.3333333333333333</ele><time>2026-04-07T16:49:05.568Z</time></trkpt><trkpt lat="44.8802961" lon="11.7249905"><ele>1.0</ele><time>2026-04-07T16:49:06.564Z</time></trkpt><trkpt lat="44.8801838" lon="11.7248669"><ele>0.6666666666666666</ele><time>2026-04-07T16:49:07.554Z</time></trkpt><trkpt lat="44.8800413" lon="11.7247056"><ele>0.3333333333333333</ele><time>2026-04-07T16:49:08.573Z</time></trkpt><trkpt lat="44.8799264" lon="11.7245593"><ele>0.0</ele><time>2026-04-07T16:49:09.567Z</time></trkpt><trkpt lat="44.8798165" lon="11.7243933"><ele>-0.5</ele><time>2026-04-07T16:49:10.567Z</time></trkpt><trkpt lat="44.8797137" lon="11.7242518"><ele>-1.0</ele><time>2026-04-07T16:49:11.585Z</time></trkpt><trkpt lat="44.8796076" lon="11.7241055"><ele>-1.5</ele><time>2026-04-07T16:49:12.568Z</time></trkpt><trkpt lat="44.8795244" lon="11.7239692"><ele>-2.0</ele><time>2026-04-07T16:49:13.582Z</time></trkpt><trkpt lat="44.8794146" lon="11.7238342"><ele>-2.0</ele><time>2026-04-07T16:49:14.597Z</time></trkpt><trkpt lat="44.8793136" lon="11.7236632"><ele>-2.0</ele><time>2026-04-07T16:49:15.591Z</time></trkpt><trkpt lat="44.879206" lon="11.7234936"><ele>-2.0</ele><time>2026-04-07T16:49:16.563Z</time></trkpt><trkpt lat="44.8791038" lon="11.7232952"><ele>-1.6666666666666665</ele><time>2026-04-07T16:49:17.572Z</time></trkpt><trkpt lat="44.878978" lon="11.7230779"><ele>-1.3333333333333333</ele><time>2026-04-07T16:49:18.56Z</time></trkpt><trkpt lat="44.8788751" lon="11.7228944"><ele>-1.0</ele><time>2026-04-07T16:49:19.568Z</time></trkpt><trkpt lat="44.8787823" lon="11.722715"><ele>-1.0</ele><time>2026-04-07T16:49:20.57Z</time></trkpt><trkpt lat="44.8786828" lon="11.7225286"><ele>-1.0</ele><time>2026-04-07T16:49:21.572Z</time></trkpt><trkpt lat="44.8785809" lon="11.7223589"><ele>-1.0</ele><time>2026-04-07T16:49:22.566Z</time></trkpt><trkpt lat="44.8785073" lon="11.7222116"><ele>-0.5</ele><time>2026-04-07T16:49:23.568Z</time></trkpt><trkpt lat="44.8784299" lon="11.7220636"><ele>0.0</ele><time>2026-04-07T16:49:24.569Z</time></trkpt><trkpt lat="44.8783549" lon="11.7218862"><ele>0.5</ele><time>2026-04-07T16:49:25.57Z</time></trkpt><trkpt lat="44.8782884" lon="11.7217486"><ele>1.0</ele><time>2026-04-07T16:49:26.565Z</time></trkpt><trkpt lat="44.8782115" lon="11.7216438"><ele>0.9999999999999999</ele><time>2026-04-07T16:49:27.571Z</time></trkpt><trkpt lat="44.8781633" lon="11.7215709"><ele>1.0</ele><time>2026-04-07T16:49:28.565Z</time></trkpt><trkpt lat="44.8781029" lon="11.7214942"><ele>1.0</ele><time>2026-04-07T16:49:29.724Z</time></trkpt><trkpt lat="44.8780224" lon="11.7214709"><ele>1.0</ele><time>2026-04-07T16:49:31.585Z</time></trkpt><trkpt lat="44.8779405" lon="11.7214329"><ele>0.9999999999999999</ele><time>2026-04-07T16:49:32.615Z</time></trkpt><trkpt lat="44.87788" lon="11.7214584"><ele>1.0</ele><time>2026-04-07T16:49:33.586Z</time></trkpt><trkpt lat="44.8777989" lon="11.7215553"><ele>1.0</ele><time>2026-04-07T16:49:35.587Z</time></trkpt><trkpt lat="44.8777043" lon="11.7214781"><ele>1.0</ele><time>2026-04-07T16:49:38.57Z</time></trkpt><trkpt lat="44.8776515" lon="11.7213542"><ele>1.0</ele><time>2026-04-07T16:49:39.564Z</time></trkpt><trkpt lat="44.877578" lon="11.7211834"><ele>1.0</ele><time>2026-04-07T16:49:40.56Z</time></trkpt><trkpt lat="44.8775228" lon="11.7209927"><ele>1.6666666666666665</ele><time>2026-04-07T16:49:41.559Z</time></trkpt><trkpt lat="44.8774548" lon="11.7208132"><ele>2.3333333333333335</ele><time>2026-04-07T16:49:42.558Z</time></trkpt><trkpt lat="44.8773585" lon="11.7206288"><ele>3.0</ele><time>2026-04-07T16:49:43.56Z</time></trkpt><trkpt lat="44.8772098" lon="11.7203822"><ele>2.5</ele><time>2026-04-07T16:49:44.564Z</time></trkpt><trkpt lat="44.8770586" lon="11.7201357"><ele>2.0</ele><time>2026-04-07T16:49:45.562Z</time></trkpt><trkpt lat="44.876909" lon="11.7199038"><ele>1.6666666666666665</ele><time>2026-04-07T16:49:46.562Z</time></trkpt><trkpt lat="44.8767634" lon="11.7197081"><ele>1.3333333333333333</ele><time>2026-04-07T16:49:47.564Z</time></trkpt><trkpt lat="44.8766249" lon="11.719511"><ele>1.0</ele><time>2026-04-07T16:49:48.561Z</time></trkpt><trkpt lat="44.8764685" lon="11.7193165"><ele>1.0</ele><time>2026-04-07T16:49:49.567Z</time></trkpt><trkpt lat="44.8763283" lon="11.7191501"><ele>1.0</ele><time>2026-04-07T16:49:50.562Z</time></trkpt><trkpt lat="44.8761916" lon="11.7189966"><ele>1.0</ele><time>2026-04-07T16:49:51.563Z</time></trkpt><trkpt lat="44.8760566" lon="11.7188485"><ele>1.0</ele><time>2026-04-07T16:49:52.564Z</time></trkpt><trkpt lat="44.8759365" lon="11.7187272"><ele>1.0</ele><time>2026-04-07T16:49:53.566Z</time></trkpt><trkpt lat="44.8758191" lon="11.7186184"><ele>1.0</ele><time>2026-04-07T16:49:54.569Z</time></trkpt><trkpt lat="44.8757164" lon="11.7185358"><ele>1.0</ele><time>2026-04-07T16:49:55.566Z</time></trkpt><trkpt lat="44.8756213" lon="11.7184606"><ele>0.9999999999999999</ele><time>2026-04-07T16:49:56.577Z</time></trkpt><trkpt lat="44.8755386" lon="11.7183897"><ele>1.0</ele><time>2026-04-07T16:49:57.572Z</time></trkpt><trkpt lat="44.8754681" lon="11.7183243"><ele>1.0</ele><time>2026-04-07T16:49:58.575Z</time></trkpt><trkpt lat="44.8754008" lon="11.718281"><ele>1.0</ele><time>2026-04-07T16:49:59.568Z</time></trkpt><trkpt lat="44.8753264" lon="11.7182425"><ele>0.9999999999999999</ele><time>2026-04-07T16:50:00.567Z</time></trkpt><trkpt lat="44.8752348" lon="11.7182505"><ele>1.0</ele><time>2026-04-07T16:50:02.571Z</time></trkpt><trkpt lat="44.8752199" lon="11.7183406"><ele>1.0</ele><time>2026-04-07T16:50:04.574Z</time></trkpt><trkpt lat="44.8751882" lon="11.7184916"><ele>1.0</ele><time>2026-04-07T16:50:06.569Z</time></trkpt><trkpt lat="44.8751454" lon="11.7186101"><ele>1.0</ele><time>2026-04-07T16:50:07.57Z</time></trkpt><trkpt lat="44.8750799" lon="11.718737"><ele>1.0</ele><time>2026-04-07T16:50:08.562Z</time></trkpt><trkpt lat="44.8750157" lon="11.7188623"><ele>1.0</ele><time>2026-04-07T16:50:09.568Z</time></trkpt><trkpt lat="44.874944" lon="11.7189691"><ele>1.25</ele><time>2026-04-07T16:50:10.566Z</time></trkpt><trkpt lat="44.8748603" lon="11.7190579"><ele>1.5</ele><time>2026-04-07T16:50:11.567Z</time></trkpt><trkpt lat="44.874763" lon="11.7191488"><ele>1.75</ele><time>2026-04-07T16:50:12.564Z</time></trkpt><trkpt lat="44.8746518" lon="11.7192285"><ele>2.0</ele><time>2026-04-07T16:50:13.565Z</time></trkpt><trkpt lat="44.8745428" lon="11.7193069"><ele>2.0</ele><time>2026-04-07T16:50:14.573Z</time></trkpt><trkpt lat="44.8744362" lon="11.719374"><ele>2.0</ele><time>2026-04-07T16:50:15.565Z</time></trkpt><trkpt lat="44.8743354" lon="11.7194241"><ele>2.0</ele><time>2026-04-07T16:50:16.57Z</time></trkpt><trkpt lat="44.8742382" lon="11.7194696"><ele>2.0</ele><time>2026-04-07T16:50:17.571Z</time></trkpt><trkpt lat="44.8741488" lon="11.7195119"><ele>2.0</ele><time>2026-04-07T16:50:18.562Z</time></trkpt><trkpt lat="44.8740692" lon="11.7195703"><ele>1.8</ele><time>2026-04-07T16:50:19.567Z</time></trkpt><trkpt lat="44.8739907" lon="11.71964"><ele>1.6</ele><time>2026-04-07T16:50:20.568Z</time></trkpt><trkpt lat="44.873913" lon="11.7197126"><ele>1.4000000000000001</ele><time>2026-04-07T16:50:21.56Z</time></trkpt><trkpt lat="44.8738374" lon="11.7198429"><ele>1.2000000000000002</ele><time>2026-04-07T16:50:22.576Z</time></trkpt><trkpt lat="44.873743" lon="11.7199731"><ele>1.0</ele><time>2026-04-07T16:50:23.57Z</time></trkpt><trkpt lat="44.8736437" lon="11.7201006"><ele>1.0</ele><time>2026-04-07T16:50:24.582Z</time></trkpt><trkpt lat="44.8735466" lon="11.7202187"><ele>1.0</ele><time>2026-04-07T16:50:25.564Z</time></trkpt><trkpt lat="44.8734543" lon="11.7203511"><ele>1.0</ele><time>2026-04-07T16:50:26.563Z</time></trkpt><trkpt lat="44.8733615" lon="11.7204914"><ele>1.0</ele><time>2026-04-07T16:50:27.562Z</time></trkpt><trkpt lat="44.8732735" lon="11.7206474"><ele>1.0</ele><time>2026-04-07T16:50:28.564Z</time></trkpt><trkpt lat="44.8732008" lon="11.7208711"><ele>1.0</ele><time>2026-04-07T16:50:29.57Z</time></trkpt><trkpt lat="44.873146" lon="11.7210553"><ele>1.0</ele><time>2026-04-07T16:50:30.564Z</time></trkpt><trkpt lat="44.8730839" lon="11.7212074"><ele>1.0</ele><time>2026-04-07T16:50:31.562Z</time></trkpt><trkpt lat="44.8730235" lon="11.7213062"><ele>0.6666666666666666</ele><time>2026-04-07T16:50:32.564Z</time></trkpt><trkpt lat="44.872855" lon="11.7214248"><ele>0.3333333333333333</ele><time>2026-04-07T16:50:34.553Z</time></trkpt><trkpt lat="44.8727362" lon="11.7215126"><ele>0.0</ele><time>2026-04-07T16:50:35.56Z</time></trkpt><trkpt lat="44.872588" lon="11.7215423"><ele>0.75</ele><time>2026-04-07T16:50:36.554Z</time></trkpt><trkpt lat="44.8724486" lon="11.721603"><ele>1.5</ele><time>2026-04-07T16:50:37.552Z</time></trkpt><trkpt lat="44.8723232" lon="11.7216396"><ele>2.25</ele><time>2026-04-07T16:50:38.554Z</time></trkpt><trkpt lat="44.8722027" lon="11.7215996"><ele>3.0</ele><time>2026-04-07T16:50:39.549Z</time></trkpt><trkpt lat="44.8720813" lon="11.7216245"><ele>3.0</ele><time>2026-04-07T16:50:40.547Z</time></trkpt><trkpt lat="44.871969" lon="11.7216858"><ele>3.0</ele><time>2026-04-07T16:50:41.561Z</time></trkpt><trkpt lat="44.8718747" lon="11.7217332"><ele>3.0</ele><time>2026-04-07T16:50:42.548Z</time></trkpt><trkpt lat="44.8717726" lon="11.7217694"><ele>3.0</ele><time>2026-04-07T16:50:43.547Z</time></trkpt><trkpt lat="44.8717243" lon="11.7218484"><ele>3.0</ele><time>2026-04-07T16:50:44.554Z</time></trkpt><trkpt lat="44.8716638" lon="11.721921"><ele>2.8</ele><time>2026-04-07T16:50:45.552Z</time></trkpt><trkpt lat="44.8716132" lon="11.7219922"><ele>2.5999999999999996</ele><time>2026-04-07T16:50:46.564Z</time></trkpt><trkpt lat="44.8715598" lon="11.7221098"><ele>2.4000000000000004</ele><time>2026-04-07T16:50:47.56Z</time></trkpt><trkpt lat="44.8714891" lon="11.722271"><ele>2.2</ele><time>2026-04-07T16:50:48.554Z</time></trkpt><trkpt lat="44.8714134" lon="11.7224124"><ele>2.0</ele><time>2026-04-07T16:50:49.564Z</time></trkpt><trkpt lat="44.8713362" lon="11.7225877"><ele>2.0</ele><time>2026-04-07T16:50:50.557Z</time></trkpt><trkpt lat="44.871269" lon="11.722753"><ele>2.0</ele><time>2026-04-07T16:50:51.561Z</time></trkpt><trkpt lat="44.8711985" lon="11.7229058"><ele>2.0</ele><time>2026-04-07T16:50:52.565Z</time></trkpt><trkpt lat="44.8711257" lon="11.7230606"><ele>2.0</ele><time>2026-04-07T16:50:53.555Z</time></trkpt><trkpt lat="44.8710941" lon="11.7232073"><ele>2.0</ele><time>2026-04-07T16:50:54.566Z</time></trkpt><trkpt lat="44.871066" lon="11.7233795"><ele>2.0</ele><time>2026-04-07T16:50:55.574Z</time></trkpt><trkpt lat="44.871044" lon="11.7235704"><ele>2.0</ele><time>2026-04-07T16:50:56.559Z</time></trkpt><trkpt lat="44.8710166" lon="11.7237368"><ele>2.0</ele><time>2026-04-07T16:50:57.557Z</time></trkpt><trkpt lat="44.8710191" lon="11.7239376"><ele>2.0</ele><time>2026-04-07T16:50:58.564Z</time></trkpt><trkpt lat="44.8710105" lon="11.7241197"><ele>2.0</ele><time>2026-04-07T16:50:59.56Z</time></trkpt><trkpt lat="44.8710145" lon="11.7243016"><ele>2.0</ele><time>2026-04-07T16:51:00.56Z</time></trkpt><trkpt lat="44.8710382" lon="11.7244885"><ele>2.0</ele><time>2026-04-07T16:51:01.572Z</time></trkpt><trkpt lat="44.8710647" lon="11.7246813"><ele>2.0</ele><time>2026-04-07T16:51:02.567Z</time></trkpt><trkpt lat="44.8711446" lon="11.7248988"><ele>2.0</ele><time>2026-04-07T16:51:03.56Z</time></trkpt><trkpt lat="44.8711942" lon="11.7251176"><ele>2.0</ele><time>2026-04-07T16:51:04.572Z</time></trkpt><trkpt lat="44.87123" lon="11.7253011"><ele>2.2</ele><time>2026-04-07T16:51:05.57Z</time></trkpt><trkpt lat="44.8712239" lon="11.7254517"><ele>2.4000000000000004</ele><time>2026-04-07T16:51:06.556Z</time></trkpt><trkpt lat="44.8712054" lon="11.7255992"><ele>2.5999999999999996</ele><time>2026-04-07T16:51:07.567Z</time></trkpt><trkpt lat="44.871194" lon="11.7257399"><ele>2.8</ele><time>2026-04-07T16:51:08.562Z</time></trkpt><trkpt lat="44.8712081" lon="11.7258588"><ele>3.0</ele><time>2026-04-07T16:51:09.573Z</time></trkpt><trkpt lat="44.8712254" lon="11.7259663"><ele>3.0</ele><time>2026-04-07T16:51:10.564Z</time></trkpt><trkpt lat="44.8712538" lon="11.7260763"><ele>3.0</ele><time>2026-04-07T16:51:11.564Z</time></trkpt><trkpt lat="44.8712938" lon="11.7261876"><ele>3.0</ele><time>2026-04-07T16:51:12.565Z</time></trkpt><trkpt lat="44.8713421" lon="11.726278"><ele>3.0</ele><time>2026-04-07T16:51:13.562Z</time></trkpt><trkpt lat="44.8713783" lon="11.7263647"><ele>3.0</ele><time>2026-04-07T16:51:14.591Z</time></trkpt><trkpt lat="44.8714085" lon="11.7264615"><ele>3.0</ele><time>2026-04-07T16:51:15.563Z</time></trkpt><trkpt lat="44.8714303" lon="11.7265608"><ele>3.0</ele><time>2026-04-07T16:51:16.558Z</time></trkpt><trkpt lat="44.8714489" lon="11.7266694"><ele>3.0</ele><time>2026-04-07T16:51:17.564Z</time></trkpt><trkpt lat="44.8714509" lon="11.7267743"><ele>3.0</ele><time>2026-04-07T16:51:18.581Z</time></trkpt><trkpt lat="44.8714269" lon="11.7268779"><ele>3.0</ele><time>2026-04-07T16:51:19.56Z</time></trkpt><trkpt lat="44.8714051" lon="11.7269823"><ele>3.0</ele><time>2026-04-07T16:51:20.547Z</time></trkpt><trkpt lat="44.8713602" lon="11.7271332"><ele>3.0</ele><time>2026-04-07T16:51:21.576Z</time></trkpt><trkpt lat="44.8712886" lon="11.7272915"><ele>3.0</ele><time>2026-04-07T16:51:22.55Z</time></trkpt><trkpt lat="44.8712043" lon="11.7274857"><ele>3.0</ele><time>2026-04-07T16:51:23.556Z</time></trkpt><trkpt lat="44.8710987" lon="11.7276922"><ele>3.0</ele><time>2026-04-07T16:51:24.559Z</time></trkpt><trkpt lat="44.8710355" lon="11.7278976"><ele>3.0</ele><time>2026-04-07T16:51:25.562Z</time></trkpt><trkpt lat="44.8709479" lon="11.7280761"><ele>3.0</ele><time>2026-04-07T16:51:26.566Z</time></trkpt><trkpt lat="44.8708801" lon="11.7282439"><ele>3.0</ele><time>2026-04-07T16:51:27.565Z</time></trkpt><trkpt lat="44.8708142" lon="11.7284128"><ele>3.0</ele><time>2026-04-07T16:51:28.563Z</time></trkpt><trkpt lat="44.8707522" lon="11.7285495"><ele>3.2</ele><time>2026-04-07T16:51:29.557Z</time></trkpt><trkpt lat="44.8706947" lon="11.7286697"><ele>3.4</ele><time>2026-04-07T16:51:30.564Z</time></trkpt><trkpt lat="44.870633" lon="11.7287838"><ele>3.6000000000000005</ele><time>2026-04-07T16:51:31.554Z</time></trkpt><trkpt lat="44.8705889" lon="11.7288662"><ele>3.8000000000000003</ele><time>2026-04-07T16:51:32.552Z</time></trkpt><trkpt lat="44.870535" lon="11.7289291"><ele>4.0</ele><time>2026-04-07T16:51:34.554Z</time></trkpt><trkpt lat="44.8704393" lon="11.7288677"><ele>4.0</ele><time>2026-04-07T16:51:38.555Z</time></trkpt><trkpt lat="44.8703421" lon="11.7287912"><ele>4.0</ele><time>2026-04-07T16:51:39.56Z</time></trkpt><trkpt lat="44.8702126" lon="11.7286947"><ele>4.0</ele><time>2026-04-07T16:51:40.556Z</time></trkpt><trkpt lat="44.8700828" lon="11.7286164"><ele>4.0</ele><time>2026-04-07T16:51:41.56Z</time></trkpt><trkpt lat="44.8699407" lon="11.7285172"><ele>3.6666666666666665</ele><time>2026-04-07T16:51:42.577Z</time></trkpt><trkpt lat="44.869814" lon="11.728421"><ele>3.333333333333333</ele><time>2026-04-07T16:51:43.557Z</time></trkpt><trkpt lat="44.869684" lon="11.7283416"><ele>3.0</ele><time>2026-04-07T16:51:44.553Z</time></trkpt><trkpt lat="44.869517" lon="11.7282672"><ele>3.0</ele><time>2026-04-07T16:51:45.555Z</time></trkpt><trkpt lat="44.8693352" lon="11.7281863"><ele>3.0</ele><time>2026-04-07T16:51:46.559Z</time></trkpt><trkpt lat="44.8691232" lon="11.7280857"><ele>3.0</ele><time>2026-04-07T16:51:47.558Z</time></trkpt><trkpt lat="44.8689408" lon="11.7280048"><ele>3.0</ele><time>2026-04-07T16:51:48.56Z</time></trkpt><trkpt lat="44.8687639" lon="11.7279347"><ele>3.0</ele><time>2026-04-07T16:51:49.559Z</time></trkpt><trkpt lat="44.868597" lon="11.7278555"><ele>3.0</ele><time>2026-04-07T16:51:50.559Z</time></trkpt><trkpt lat="44.868418" lon="11.7277851"><ele>3.0</ele><time>2026-04-07T16:51:51.559Z</time></trkpt><trkpt lat="44.8682362" lon="11.7276959"><ele>3.0</ele><time>2026-04-07T16:51:52.566Z</time></trkpt><trkpt lat="44.8680392" lon="11.7276264"><ele>3.0</ele><time>2026-04-07T16:51:53.557Z</time></trkpt><trkpt lat="44.8678623" lon="11.7275617"><ele>3.0</ele><time>2026-04-07T16:51:54.572Z</time></trkpt><trkpt lat="44.8677109" lon="11.7275092"><ele>3.0</ele><time>2026-04-07T16:51:55.549Z</time></trkpt><trkpt lat="44.8675469" lon="11.7274438"><ele>3.0</ele><time>2026-04-07T16:51:56.558Z</time></trkpt><trkpt lat="44.867414" lon="11.727346"><ele>2.75</ele><time>2026-04-07T16:51:57.557Z</time></trkpt><trkpt lat="44.8672872" lon="11.7272536"><ele>2.5</ele><time>2026-04-07T16:51:58.555Z</time></trkpt><trkpt lat="44.8671563" lon="11.7271386"><ele>2.25</ele><time>2026-04-07T16:51:59.562Z</time></trkpt><trkpt lat="44.8670309" lon="11.7270217"><ele>2.0</ele><time>2026-04-07T16:52:00.552Z</time></trkpt><trkpt lat="44.8669076" lon="11.7268973"><ele>2.0</ele><time>2026-04-07T16:52:01.548Z</time></trkpt><trkpt lat="44.8667876" lon="11.7267536"><ele>2.0</ele><time>2026-04-07T16:52:02.556Z</time></trkpt><trkpt lat="44.8666328" lon="11.7266353"><ele>2.0</ele><time>2026-04-07T16:52:03.548Z</time></trkpt><trkpt lat="44.8664687" lon="11.7265241"><ele>2.333333333333333</ele><time>2026-04-07T16:52:04.553Z</time></trkpt><trkpt lat="44.8663325" lon="11.7264077"><ele>2.6666666666666665</ele><time>2026-04-07T16:52:05.547Z</time></trkpt><trkpt lat="44.8661756" lon="11.7263015"><ele>3.0</ele><time>2026-04-07T16:52:06.546Z</time></trkpt><trkpt lat="44.866011" lon="11.7262235"><ele>3.0</ele><time>2026-04-07T16:52:07.549Z</time></trkpt><trkpt lat="44.8658307" lon="11.7261466"><ele>3.0</ele><time>2026-04-07T16:52:08.551Z</time></trkpt><trkpt lat="44.8656198" lon="11.7260786"><ele>3.0</ele><time>2026-04-07T16:52:09.547Z</time></trkpt><trkpt lat="44.8654339" lon="11.7260188"><ele>3.0</ele><time>2026-04-07T16:52:10.558Z</time></trkpt><trkpt lat="44.8652444" lon="11.7259375"><ele>3.0</ele><time>2026-04-07T16:52:11.56Z</time></trkpt><trkpt lat="44.8650548" lon="11.7258661"><ele>3.0</ele><time>2026-04-07T16:52:12.554Z</time></trkpt><trkpt lat="44.8648814" lon="11.7258231"><ele>3.333333333333333</ele><time>2026-04-07T16:52:13.571Z</time></trkpt><trkpt lat="44.8646954" lon="11.7257942"><ele>3.6666666666666665</ele><time>2026-04-07T16:52:14.551Z</time></trkpt><trkpt lat="44.8645212" lon="11.725772"><ele>4.0</ele><time>2026-04-07T16:52:15.549Z</time></trkpt><trkpt lat="44.8643448" lon="11.7257598"><ele>3.6666666666666665</ele><time>2026-04-07T16:52:16.554Z</time></trkpt><trkpt lat="44.8641864" lon="11.7257882"><ele>3.333333333333333</ele><time>2026-04-07T16:52:17.548Z</time></trkpt><trkpt lat="44.864009" lon="11.7258161"><ele>3.0</ele><time>2026-04-07T16:52:18.552Z</time></trkpt><trkpt lat="44.8638299" lon="11.7258612"><ele>3.0</ele><time>2026-04-07T16:52:19.556Z</time></trkpt><trkpt lat="44.8636374" lon="11.7258665"><ele>3.0</ele><time>2026-04-07T16:52:20.556Z</time></trkpt><trkpt lat="44.8634242" lon="11.7258325"><ele>3.0</ele><time>2026-04-07T16:52:21.554Z</time></trkpt><trkpt lat="44.8632255" lon="11.725792"><ele>3.0</ele><time>2026-04-07T16:52:22.554Z</time></trkpt><trkpt lat="44.8629966" lon="11.7257171"><ele>3.0</ele><time>2026-04-07T16:52:23.556Z</time></trkpt><trkpt lat="44.8627983" lon="11.7256555"><ele>3.0</ele><time>2026-04-07T16:52:24.552Z</time></trkpt><trkpt lat="44.8625958" lon="11.7255939"><ele>2.6666666666666665</ele><time>2026-04-07T16:52:25.546Z</time></trkpt><trkpt lat="44.8624408" lon="11.725565"><ele>2.333333333333333</ele><time>2026-04-07T16:52:26.553Z</time></trkpt><trkpt lat="44.8622966" lon="11.7255126"><ele>2.0</ele><time>2026-04-07T16:52:27.553Z</time></trkpt><trkpt lat="44.8621428" lon="11.7254394"><ele>2.0</ele><time>2026-04-07T16:52:28.557Z</time></trkpt><trkpt lat="44.8619782" lon="11.7253787"><ele>2.0</ele><time>2026-04-07T16:52:29.558Z</time></trkpt><trkpt lat="44.8618213" lon="11.7253257"><ele>2.0</ele><time>2026-04-07T16:52:30.569Z</time></trkpt><trkpt lat="44.8616768" lon="11.7252774"><ele>2.25</ele><time>2026-04-07T16:52:31.56Z</time></trkpt><trkpt lat="44.861546" lon="11.7252664"><ele>2.5</ele><time>2026-04-07T16:52:32.56Z</time></trkpt><trkpt lat="44.8614111" lon="11.7252823"><ele>2.75</ele><time>2026-04-07T16:52:33.554Z</time></trkpt><trkpt lat="44.8612835" lon="11.7253577"><ele>3.0</ele><time>2026-04-07T16:52:34.582Z</time></trkpt><trkpt lat="44.8611607" lon="11.7254744"><ele>3.0</ele><time>2026-04-07T16:52:35.56Z</time></trkpt><trkpt lat="44.861016" lon="11.725549"><ele>3.0</ele><time>2026-04-07T16:52:36.55Z</time></trkpt><trkpt lat="44.8608876" lon="11.7256649"><ele>3.0</ele><time>2026-04-07T16:52:37.55Z</time></trkpt><trkpt lat="44.8607338" lon="11.7257534"><ele>3.0</ele><time>2026-04-07T16:52:38.549Z</time></trkpt><trkpt lat="44.8605839" lon="11.7257811"><ele>3.0</ele><time>2026-04-07T16:52:39.549Z</time></trkpt><trkpt lat="44.8604467" lon="11.7257586"><ele>3.0</ele><time>2026-04-07T16:52:40.546Z</time></trkpt><trkpt lat="44.8603256" lon="11.725733"><ele>3.0</ele><time>2026-04-07T16:52:41.557Z</time></trkpt><trkpt lat="44.8602051" lon="11.7256897"><ele>3.0</ele><time>2026-04-07T16:52:42.555Z</time></trkpt><trkpt lat="44.8600532" lon="11.7256003"><ele>3.0</ele><time>2026-04-07T16:52:43.554Z</time></trkpt><trkpt lat="44.8598671" lon="11.7254994"><ele>3.0</ele><time>2026-04-07T16:52:44.55Z</time></trkpt><trkpt lat="44.8597066" lon="11.725426"><ele>3.0</ele><time>2026-04-07T16:52:45.544Z</time></trkpt><trkpt lat="44.8595485" lon="11.7253425"><ele>3.0</ele><time>2026-04-07T16:52:46.549Z</time></trkpt><trkpt lat="44.859381" lon="11.7252257"><ele>3.0</ele><time>2026-04-07T16:52:47.545Z</time></trkpt><trkpt lat="44.8592275" lon="11.7250813"><ele>3.666666666666667</ele><time>2026-04-07T16:52:48.631Z</time></trkpt><trkpt lat="44.8590487" lon="11.7249155"><ele>4.333333333333334</ele><time>2026-04-07T16:52:49.693Z</time></trkpt><trkpt lat="44.8588517" lon="11.7247491"><ele>5.0</ele><time>2026-04-07T16:52:50.707Z</time></trkpt><trkpt lat="44.8586641" lon="11.7245934"><ele>4.0</ele><time>2026-04-07T16:52:51.707Z</time></trkpt><trkpt lat="44.8583199" lon="11.7242983"><ele>3.0</ele><time>2026-04-07T16:52:53.548Z</time></trkpt><trkpt lat="44.8581785" lon="11.7241591"><ele>3.0</ele><time>2026-04-07T16:52:54.55Z</time></trkpt><trkpt lat="44.8580493" lon="11.7240026"><ele>3.0</ele><time>2026-04-07T16:52:55.555Z</time></trkpt><trkpt lat="44.8579096" lon="11.7238019"><ele>3.0</ele><time>2026-04-07T16:52:56.559Z</time></trkpt><trkpt lat="44.8577832" lon="11.7236228"><ele>3.0</ele><time>2026-04-07T16:52:57.55Z</time></trkpt><trkpt lat="44.8576478" lon="11.7233909"><ele>3.0</ele><time>2026-04-07T16:52:58.559Z</time></trkpt><trkpt lat="44.8575172" lon="11.7231517"><ele>3.0</ele><time>2026-04-07T16:52:59.549Z</time></trkpt><trkpt lat="44.8574032" lon="11.7229278"><ele>3.0</ele><time>2026-04-07T16:53:00.552Z</time></trkpt><trkpt lat="44.8573142" lon="11.7226946"><ele>3.0</ele><time>2026-04-07T16:53:01.554Z</time></trkpt><trkpt lat="44.8572137" lon="11.7224656"><ele>3.0</ele><time>2026-04-07T16:53:02.554Z</time></trkpt><trkpt lat="44.8571066" lon="11.7222601"><ele>3.0</ele><time>2026-04-07T16:53:03.555Z</time></trkpt><trkpt lat="44.8569834" lon="11.7220587"><ele>3.0</ele><time>2026-04-07T16:53:04.552Z</time></trkpt><trkpt lat="44.8568485" lon="11.7218723"><ele>3.0</ele><time>2026-04-07T16:53:05.634Z</time></trkpt><trkpt lat="44.8567428" lon="11.7217007"><ele>3.5</ele><time>2026-04-07T16:53:06.715Z</time></trkpt><trkpt lat="44.8564751" lon="11.7214164"><ele>4.0</ele><time>2026-04-07T16:53:08.554Z</time></trkpt><trkpt lat="44.856325" lon="11.7212833"><ele>4.0</ele><time>2026-04-07T16:53:09.552Z</time></trkpt><trkpt lat="44.8561766" lon="11.7212251"><ele>4.0</ele><time>2026-04-07T16:53:10.555Z</time></trkpt><trkpt lat="44.8560085" lon="11.7211314"><ele>4.0</ele><time>2026-04-07T16:53:11.56Z</time></trkpt><trkpt lat="44.8557981" lon="11.7209817"><ele>4.333333333333333</ele><time>2026-04-07T16:53:12.556Z</time></trkpt><trkpt lat="44.8555993" lon="11.7208684"><ele>4.666666666666667</ele><time>2026-04-07T16:53:13.559Z</time></trkpt><trkpt lat="44.8554335" lon="11.7207856"><ele>5.0</ele><time>2026-04-07T16:53:14.581Z</time></trkpt><trkpt lat="44.8552559" lon="11.7206642"><ele>4.333333333333334</ele><time>2026-04-07T16:53:15.557Z</time></trkpt><trkpt lat="44.8550766" lon="11.7205569"><ele>3.666666666666667</ele><time>2026-04-07T16:53:16.563Z</time></trkpt><trkpt lat="44.8548788" lon="11.7204517"><ele>3.0</ele><time>2026-04-07T16:53:17.563Z</time></trkpt><trkpt lat="44.8547076" lon="11.7203367"><ele>3.0</ele><time>2026-04-07T16:53:18.568Z</time></trkpt><trkpt lat="44.8545251" lon="11.7202093"><ele>3.0</ele><time>2026-04-07T16:53:19.56Z</time></trkpt><trkpt lat="44.8543718" lon="11.7200923"><ele>3.0</ele><time>2026-04-07T16:53:20.562Z</time></trkpt><trkpt lat="44.85422" lon="11.7199785"><ele>3.25</ele><time>2026-04-07T16:53:21.559Z</time></trkpt><trkpt lat="44.8540937" lon="11.719892"><ele>3.5</ele><time>2026-04-07T16:53:22.565Z</time></trkpt><trkpt lat="44.85395" lon="11.719772"><ele>3.75</ele><time>2026-04-07T16:53:23.627Z</time></trkpt><trkpt lat="44.8538423" lon="11.7196809"><ele>4.0</ele><time>2026-04-07T16:53:24.552Z</time></trkpt><trkpt lat="44.8536887" lon="11.7195692"><ele>4.0</ele><time>2026-04-07T16:53:25.705Z</time></trkpt><trkpt lat="44.8535761" lon="11.7194793"><ele>4.0</ele><time>2026-04-07T16:53:26.708Z</time></trkpt><trkpt lat="44.8533615" lon="11.7193401"><ele>4.0</ele><time>2026-04-07T16:53:28.547Z</time></trkpt><trkpt lat="44.853268" lon="11.7192499"><ele>4.25</ele><time>2026-04-07T16:53:29.622Z</time></trkpt><trkpt lat="44.853164" lon="11.7191297"><ele>4.5</ele><time>2026-04-07T16:53:30.54Z</time></trkpt><trkpt lat="44.8530597" lon="11.7190249"><ele>4.75</ele><time>2026-04-07T16:53:31.536Z</time></trkpt><trkpt lat="44.8529668" lon="11.7189442"><ele>5.0</ele><time>2026-04-07T16:53:32.539Z</time></trkpt><trkpt lat="44.8528919" lon="11.7188546"><ele>5.0</ele><time>2026-04-07T16:53:33.538Z</time></trkpt><trkpt lat="44.8528164" lon="11.7187755"><ele>5.0</ele><time>2026-04-07T16:53:34.539Z</time></trkpt><trkpt lat="44.8527386" lon="11.7187108"><ele>5.0</ele><time>2026-04-07T16:53:35.54Z</time></trkpt><trkpt lat="44.8526542" lon="11.7186556"><ele>5.0</ele><time>2026-04-07T16:53:36.619Z</time></trkpt><trkpt lat="44.8525726" lon="11.7185958"><ele>5.0</ele><time>2026-04-07T16:53:37.545Z</time></trkpt><trkpt lat="44.8524813" lon="11.7185736"><ele>5.2</ele><time>2026-04-07T16:53:38.552Z</time></trkpt><trkpt lat="44.852404" lon="11.7185772"><ele>5.4</ele><time>2026-04-07T16:53:39.546Z</time></trkpt><trkpt lat="44.8523155" lon="11.7186128"><ele>5.6</ele><time>2026-04-07T16:53:40.543Z</time></trkpt><trkpt lat="44.8522064" lon="11.7186714"><ele>5.8</ele><time>2026-04-07T16:53:41.541Z</time></trkpt><trkpt lat="44.8520883" lon="11.7187274"><ele>6.0</ele><time>2026-04-07T16:53:42.543Z</time></trkpt><trkpt lat="44.8519487" lon="11.7188286"><ele>6.0</ele><time>2026-04-07T16:53:43.535Z</time></trkpt><trkpt lat="44.8518187" lon="11.7189145"><ele>6.0</ele><time>2026-04-07T16:53:44.55Z</time></trkpt><trkpt lat="44.8516642" lon="11.719045"><ele>6.0</ele><time>2026-04-07T16:53:45.548Z</time></trkpt><trkpt lat="44.8514967" lon="11.7192589"><ele>5.75</ele><time>2026-04-07T16:53:46.548Z</time></trkpt><trkpt lat="44.851335" lon="11.7194146"><ele>5.5</ele><time>2026-04-07T16:53:47.543Z</time></trkpt><trkpt lat="44.8512271" lon="11.7194674"><ele>5.25</ele><time>2026-04-07T16:53:48.547Z</time></trkpt><trkpt lat="44.8511405" lon="11.7195028"><ele>5.0</ele><time>2026-04-07T16:53:49.539Z</time></trkpt><trkpt lat="44.8510397" lon="11.7195383"><ele>5.2</ele><time>2026-04-07T16:53:50.548Z</time></trkpt><trkpt lat="44.8509458" lon="11.7195988"><ele>5.4</ele><time>2026-04-07T16:53:51.543Z</time></trkpt><trkpt lat="44.8508337" lon="11.7196478"><ele>5.6</ele><time>2026-04-07T16:53:52.548Z</time></trkpt><trkpt lat="44.8507305" lon="11.7196847"><ele>5.8</ele><time>2026-04-07T16:53:53.544Z</time></trkpt><trkpt lat="44.8506268" lon="11.7197223"><ele>6.0</ele><time>2026-04-07T16:53:54.547Z</time></trkpt><trkpt lat="44.8505175" lon="11.7197689"><ele>6.0</ele><time>2026-04-07T16:53:55.538Z</time></trkpt><trkpt lat="44.8504068" lon="11.7198128"><ele>6.0</ele><time>2026-04-07T16:53:56.552Z</time></trkpt><trkpt lat="44.850306" lon="11.7198688"><ele>6.0</ele><time>2026-04-07T16:53:57.557Z</time></trkpt><trkpt lat="44.8501833" lon="11.7199209"><ele>6.0</ele><time>2026-04-07T16:53:58.541Z</time></trkpt><trkpt lat="44.8500486" lon="11.7199673"><ele>6.0</ele><time>2026-04-07T16:53:59.55Z</time></trkpt><trkpt lat="44.8499148" lon="11.720016"><ele>6.0</ele><time>2026-04-07T16:54:00.547Z</time></trkpt><trkpt lat="44.8497769" lon="11.7201132"><ele>6.0</ele><time>2026-04-07T16:54:01.544Z</time></trkpt><trkpt lat="44.8496429" lon="11.7202341"><ele>6.0</ele><time>2026-04-07T16:54:02.543Z</time></trkpt><trkpt lat="44.8495069" lon="11.7203643"><ele>6.0</ele><time>2026-04-07T16:54:03.565Z</time></trkpt><trkpt lat="44.8493973" lon="11.7204883"><ele>6.0</ele><time>2026-04-07T16:54:04.542Z</time></trkpt><trkpt lat="44.849308" lon="11.7205973"><ele>6.0</ele><time>2026-04-07T16:54:05.545Z</time></trkpt><trkpt lat="44.8492462" lon="11.7206848"><ele>6.0</ele><time>2026-04-07T16:54:06.543Z</time></trkpt><trkpt lat="44.8491823" lon="11.720738"><ele>6.0</ele><time>2026-04-07T16:54:07.545Z</time></trkpt><trkpt lat="44.8491169" lon="11.7208202"><ele>6.0</ele><time>2026-04-07T16:54:08.551Z</time></trkpt><trkpt lat="44.8490462" lon="11.720899"><ele>6.0</ele><time>2026-04-07T16:54:09.555Z</time></trkpt><trkpt lat="44.8489756" lon="11.7209632"><ele>6.0</ele><time>2026-04-07T16:54:10.54Z</time></trkpt><trkpt lat="44.8489159" lon="11.7210014"><ele>6.0</ele><time>2026-04-07T16:54:11.553Z</time></trkpt><trkpt lat="44.8488202" lon="11.7210122"><ele>6.0</ele><time>2026-04-07T16:54:13.544Z</time></trkpt><trkpt lat="44.848763" lon="11.72094"><ele>6.0</ele><time>2026-04-07T16:54:14.558Z</time></trkpt><trkpt lat="44.8486937" lon="11.7208056"><ele>6.0</ele><time>2026-04-07T16:54:15.631Z</time></trkpt><trkpt lat="44.8486345" lon="11.7206186"><ele>6.0</ele><time>2026-04-07T16:54:16.561Z</time></trkpt><trkpt lat="44.8485624" lon="11.7204261"><ele>6.0</ele><time>2026-04-07T16:54:17.563Z</time></trkpt><trkpt lat="44.8484886" lon="11.7202357"><ele>6.0</ele><time>2026-04-07T16:54:18.537Z</time></trkpt><trkpt lat="44.8484022" lon="11.7200702"><ele>6.0</ele><time>2026-04-07T16:54:19.537Z</time></trkpt><trkpt lat="44.8483053" lon="11.7199091"><ele>6.0</ele><time>2026-04-07T16:54:20.562Z</time></trkpt><trkpt lat="44.8482213" lon="11.7197463"><ele>5.333333333333333</ele><time>2026-04-07T16:54:21.554Z</time></trkpt><trkpt lat="44.8481323" lon="11.719567"><ele>4.666666666666666</ele><time>2026-04-07T16:54:22.545Z</time></trkpt><trkpt lat="44.848042" lon="11.7193951"><ele>4.0</ele><time>2026-04-07T16:54:23.551Z</time></trkpt><trkpt lat="44.8479493" lon="11.7192246"><ele>4.0</ele><time>2026-04-07T16:54:24.557Z</time></trkpt><trkpt lat="44.8478657" lon="11.7190412"><ele>4.0</ele><time>2026-04-07T16:54:25.548Z</time></trkpt><trkpt lat="44.8478313" lon="11.7188964"><ele>4.0</ele><time>2026-04-07T16:54:26.553Z</time></trkpt><trkpt lat="44.8478313" lon="11.718758"><ele>4.0</ele><time>2026-04-07T16:54:27.555Z</time></trkpt><trkpt lat="44.8478265" lon="11.7186002"><ele>4.0</ele><time>2026-04-07T16:54:28.542Z</time></trkpt><trkpt lat="44.8478426" lon="11.7183926"><ele>4.0</ele><time>2026-04-07T16:54:30.538Z</time></trkpt><trkpt lat="44.8478425" lon="11.7182732"><ele>4.0</ele><time>2026-04-07T16:54:31.545Z</time></trkpt><trkpt lat="44.8477486" lon="11.7182212"><ele>4.0</ele><time>2026-04-07T16:54:36.573Z</time></trkpt><trkpt lat="44.8476607" lon="11.7182141"><ele>4.0</ele><time>2026-04-07T16:54:37.54Z</time></trkpt><trkpt lat="44.8475616" lon="11.7182233"><ele>4.25</ele><time>2026-04-07T16:54:38.548Z</time></trkpt><trkpt lat="44.8474676" lon="11.7182445"><ele>4.5</ele><time>2026-04-07T16:54:39.548Z</time></trkpt><trkpt lat="44.8473446" lon="11.7182757"><ele>4.75</ele><time>2026-04-07T16:54:40.535Z</time></trkpt><trkpt lat="44.8472139" lon="11.7182851"><ele>5.0</ele><time>2026-04-07T16:54:41.542Z</time></trkpt><trkpt lat="44.8470779" lon="11.718255"><ele>5.0</ele><time>2026-04-07T16:54:42.54Z</time></trkpt><trkpt lat="44.8469597" lon="11.7182088"><ele>5.0</ele><time>2026-04-07T16:54:43.54Z</time></trkpt><trkpt lat="44.8468164" lon="11.7181303"><ele>5.0</ele><time>2026-04-07T16:54:44.538Z</time></trkpt><trkpt lat="44.8466293" lon="11.7180051"><ele>5.0</ele><time>2026-04-07T16:54:45.537Z</time></trkpt><trkpt lat="44.8464489" lon="11.7178658"><ele>5.0</ele><time>2026-04-07T16:54:46.536Z</time></trkpt><trkpt lat="44.8460674" lon="11.7175749"><ele>5.333333333333334</ele><time>2026-04-07T16:54:48.438Z</time></trkpt><trkpt lat="44.8458842" lon="11.717431"><ele>5.666666666666667</ele><time>2026-04-07T16:54:49.344Z</time></trkpt><trkpt lat="44.8456855" lon="11.7172799"><ele>6.0</ele><time>2026-04-07T16:54:50.342Z</time></trkpt><trkpt lat="44.8455143" lon="11.7171356"><ele>6.0</ele><time>2026-04-07T16:54:51.251Z</time></trkpt><trkpt lat="44.8452392" lon="11.7168663"><ele>6.0</ele><time>2026-04-07T16:54:53.05Z</time></trkpt><trkpt lat="44.8449964" lon="11.7166284"><ele>6.0</ele><time>2026-04-07T16:54:54.85Z</time></trkpt><trkpt lat="44.8447572" lon="11.7163934"><ele>6.0</ele><time>2026-04-07T16:54:56.663Z</time></trkpt><trkpt lat="44.8444739" lon="11.716158"><ele>6.0</ele><time>2026-04-07T16:54:58.56Z</time></trkpt><trkpt lat="44.8443327" lon="11.7160553"><ele>6.0</ele><time>2026-04-07T16:54:59.551Z</time></trkpt><trkpt lat="44.8442416" lon="11.7160239"><ele>6.0</ele><time>2026-04-07T16:55:00.568Z</time></trkpt><trkpt lat="44.8441102" lon="11.7159621"><ele>6.0</ele><time>2026-04-07T16:55:01.565Z</time></trkpt><trkpt lat="44.8440228" lon="11.7159213"><ele>5.833333333333333</ele><time>2026-04-07T16:55:02.564Z</time></trkpt><trkpt lat="44.8439519" lon="11.7158312"><ele>5.666666666666667</ele><time>2026-04-07T16:55:03.562Z</time></trkpt><trkpt lat="44.8439083" lon="11.7157403"><ele>5.5</ele><time>2026-04-07T16:55:04.564Z</time></trkpt><trkpt lat="44.8438542" lon="11.7156652"><ele>5.333333333333334</ele><time>2026-04-07T16:55:05.564Z</time></trkpt><trkpt lat="44.843799" lon="11.715573"><ele>5.166666666666667</ele><time>2026-04-07T16:55:06.566Z</time></trkpt><trkpt lat="44.8437224" lon="11.7155608"><ele>5.0</ele><time>2026-04-07T16:55:07.559Z</time></trkpt><trkpt lat="44.8436381" lon="11.7155706"><ele>5.0</ele><time>2026-04-07T16:55:08.565Z</time></trkpt><trkpt lat="44.8435659" lon="11.7156251"><ele>5.0</ele><time>2026-04-07T16:55:09.556Z</time></trkpt><trkpt lat="44.8435088" lon="11.7157066"><ele>5.0</ele><time>2026-04-07T16:55:10.559Z</time></trkpt><trkpt lat="44.8434655" lon="11.7158385"><ele>5.0</ele><time>2026-04-07T16:55:11.557Z</time></trkpt><trkpt lat="44.8434242" lon="11.7159687"><ele>5.0</ele><time>2026-04-07T16:55:12.558Z</time></trkpt><trkpt lat="44.8433839" lon="11.7160979"><ele>5.2</ele><time>2026-04-07T16:55:13.553Z</time></trkpt><trkpt lat="44.8433458" lon="11.7162317"><ele>5.4</ele><time>2026-04-07T16:55:14.556Z</time></trkpt><trkpt lat="44.8433195" lon="11.7163548"><ele>5.6</ele><time>2026-04-07T16:55:15.552Z</time></trkpt><trkpt lat="44.8432982" lon="11.7164882"><ele>5.8</ele><time>2026-04-07T16:55:16.558Z</time></trkpt><trkpt lat="44.8432848" lon="11.7166363"><ele>6.0</ele><time>2026-04-07T16:55:17.556Z</time></trkpt><trkpt lat="44.8432711" lon="11.7168081"><ele>6.0</ele><time>2026-04-07T16:55:18.557Z</time></trkpt><trkpt lat="44.8432288" lon="11.7169815"><ele>6.0</ele><time>2026-04-07T16:55:19.556Z</time></trkpt><trkpt lat="44.8431884" lon="11.7171494"><ele>6.0</ele><time>2026-04-07T16:55:20.556Z</time></trkpt><trkpt lat="44.8431508" lon="11.7173262"><ele>6.0</ele><time>2026-04-07T16:55:21.553Z</time></trkpt><trkpt lat="44.843102" lon="11.7174916"><ele>6.0</ele><time>2026-04-07T16:55:22.552Z</time></trkpt><trkpt lat="44.8430558" lon="11.7176928"><ele>6.0</ele><time>2026-04-07T16:55:23.552Z</time></trkpt><trkpt lat="44.8430096" lon="11.7179023"><ele>6.0</ele><time>2026-04-07T16:55:24.557Z</time></trkpt><trkpt lat="44.8429497" lon="11.7181233"><ele>5.666666666666667</ele><time>2026-04-07T16:55:25.564Z</time></trkpt><trkpt lat="44.8428875" lon="11.7184096"><ele>5.333333333333334</ele><time>2026-04-07T16:55:26.562Z</time></trkpt><trkpt lat="44.8428408" lon="11.7185996"><ele>5.0</ele><time>2026-04-07T16:55:27.554Z</time></trkpt><trkpt lat="44.8427773" lon="11.7187812"><ele>5.0</ele><time>2026-04-07T16:55:28.566Z</time></trkpt><trkpt lat="44.8427353" lon="11.7189364"><ele>5.0</ele><time>2026-04-07T16:55:29.565Z</time></trkpt><trkpt lat="44.8426996" lon="11.7191197"><ele>5.0</ele><time>2026-04-07T16:55:30.565Z</time></trkpt><trkpt lat="44.8426438" lon="11.719306"><ele>5.0</ele><time>2026-04-07T16:55:31.556Z</time></trkpt><trkpt lat="44.8425861" lon="11.7195019"><ele>5.333333333333334</ele><time>2026-04-07T16:55:32.566Z</time></trkpt><trkpt lat="44.8425259" lon="11.7197006"><ele>5.666666666666667</ele><time>2026-04-07T16:55:33.552Z</time></trkpt><trkpt lat="44.842427" lon="11.7199001"><ele>6.0</ele><time>2026-04-07T16:55:34.557Z</time></trkpt><trkpt lat="44.8423459" lon="11.7200829"><ele>6.0</ele><time>2026-04-07T16:55:35.556Z</time></trkpt><trkpt lat="44.8422969" lon="11.7202988"><ele>6.0</ele><time>2026-04-07T16:55:36.55Z</time></trkpt><trkpt lat="44.8422587" lon="11.720489"><ele>6.0</ele><time>2026-04-07T16:55:37.551Z</time></trkpt><trkpt lat="44.8422352" lon="11.7206671"><ele>6.0</ele><time>2026-04-07T16:55:38.553Z</time></trkpt><trkpt lat="44.8422472" lon="11.7208512"><ele>6.0</ele><time>2026-04-07T16:55:39.553Z</time></trkpt><trkpt lat="44.8422786" lon="11.7210005"><ele>6.0</ele><time>2026-04-07T16:55:40.555Z</time></trkpt><trkpt lat="44.8422762" lon="11.7211691"><ele>6.0</ele><time>2026-04-07T16:55:41.557Z</time></trkpt><trkpt lat="44.8422379" lon="11.7212817"><ele>6.0</ele><time>2026-04-07T16:55:42.543Z</time></trkpt><trkpt lat="44.8422072" lon="11.7213976"><ele>6.0</ele><time>2026-04-07T16:55:43.558Z</time></trkpt><trkpt lat="44.8421458" lon="11.7214661"><ele>5.75</ele><time>2026-04-07T16:55:44.551Z</time></trkpt><trkpt lat="44.8420691" lon="11.7214807"><ele>5.5</ele><time>2026-04-07T16:55:45.555Z</time></trkpt><trkpt lat="44.8419384" lon="11.7214543"><ele>5.25</ele><time>2026-04-07T16:55:46.549Z</time></trkpt><trkpt lat="44.841766" lon="11.7213991"><ele>5.0</ele><time>2026-04-07T16:55:47.552Z</time></trkpt><trkpt lat="44.8416087" lon="11.7213473"><ele>4.333333333333334</ele><time>2026-04-07T16:55:48.551Z</time></trkpt><trkpt lat="44.8414418" lon="11.7212944"><ele>3.666666666666667</ele><time>2026-04-07T16:55:49.554Z</time></trkpt><trkpt lat="44.8412828" lon="11.7212349"><ele>3.0</ele><time>2026-04-07T16:55:50.555Z</time></trkpt><trkpt lat="44.8411577" lon="11.7211923"><ele>3.0</ele><time>2026-04-07T16:55:51.56Z</time></trkpt><trkpt lat="44.8410421" lon="11.7211654"><ele>3.0</ele><time>2026-04-07T16:55:52.56Z</time></trkpt><trkpt lat="44.8409316" lon="11.7211464"><ele>3.0</ele><time>2026-04-07T16:55:53.562Z</time></trkpt><trkpt lat="44.8408331" lon="11.7211311"><ele>3.0</ele><time>2026-04-07T16:55:54.566Z</time></trkpt><trkpt lat="44.8407263" lon="11.7211092"><ele>3.0</ele><time>2026-04-07T16:55:55.566Z</time></trkpt><trkpt lat="44.8406191" lon="11.7210978"><ele>3.0</ele><time>2026-04-07T16:55:56.568Z</time></trkpt><trkpt lat="44.8405209" lon="11.7210969"><ele>3.0</ele><time>2026-04-07T16:55:57.558Z</time></trkpt><trkpt lat="44.8404169" lon="11.7210881"><ele>3.0</ele><time>2026-04-07T16:55:58.564Z</time></trkpt><trkpt lat="44.8403217" lon="11.721086"><ele>3.0</ele><time>2026-04-07T16:55:59.561Z</time></trkpt><trkpt lat="44.8402151" lon="11.7210742"><ele>3.0</ele><time>2026-04-07T16:56:00.558Z</time></trkpt><trkpt lat="44.8400961" lon="11.7210651"><ele>3.4</ele><time>2026-04-07T16:56:01.566Z</time></trkpt><trkpt lat="44.8400015" lon="11.720996"><ele>3.8</ele><time>2026-04-07T16:56:02.566Z</time></trkpt><trkpt lat="44.8399119" lon="11.7209344"><ele>4.2</ele><time>2026-04-07T16:56:03.568Z</time></trkpt><trkpt lat="44.8398149" lon="11.720879"><ele>4.6</ele><time>2026-04-07T16:56:04.57Z</time></trkpt><trkpt lat="44.8397036" lon="11.7208051"><ele>5.0</ele><time>2026-04-07T16:56:05.561Z</time></trkpt><trkpt lat="44.8395602" lon="11.7207181"><ele>5.0</ele><time>2026-04-07T16:56:06.572Z</time></trkpt><trkpt lat="44.8394131" lon="11.7206107"><ele>5.0</ele><time>2026-04-07T16:56:07.558Z</time></trkpt><trkpt lat="44.839306" lon="11.7204922"><ele>5.0</ele><time>2026-04-07T16:56:08.56Z</time></trkpt><trkpt lat="44.8392195" lon="11.7203817"><ele>5.0</ele><time>2026-04-07T16:56:09.556Z</time></trkpt><trkpt lat="44.8391545" lon="11.7202284"><ele>4.0</ele><time>2026-04-07T16:56:10.638Z</time></trkpt><trkpt lat="44.8391006" lon="11.7200424"><ele>3.0</ele><time>2026-04-07T16:56:11.712Z</time></trkpt><trkpt lat="44.8390261" lon="11.7198257"><ele>2.0</ele><time>2026-04-07T16:56:12.629Z</time></trkpt><trkpt lat="44.8389363" lon="11.7195793"><ele>2.333333333333333</ele><time>2026-04-07T16:56:13.586Z</time></trkpt><trkpt lat="44.8388846" lon="11.7193437"><ele>2.6666666666666665</ele><time>2026-04-07T16:56:14.558Z</time></trkpt><trkpt lat="44.8388499" lon="11.7191497"><ele>3.0</ele><time>2026-04-07T16:56:15.558Z</time></trkpt><trkpt lat="44.8388021" lon="11.7189601"><ele>3.0</ele><time>2026-04-07T16:56:16.56Z</time></trkpt><trkpt lat="44.8387823" lon="11.7188307"><ele>3.0</ele><time>2026-04-07T16:56:17.568Z</time></trkpt><trkpt lat="44.8387403" lon="11.7187177"><ele>3.0</ele><time>2026-04-07T16:56:18.571Z</time></trkpt><trkpt lat="44.8386783" lon="11.7186357"><ele>3.0</ele><time>2026-04-07T16:56:19.568Z</time></trkpt><trkpt lat="44.8386048" lon="11.7185711"><ele>3.0</ele><time>2026-04-07T16:56:20.567Z</time></trkpt><trkpt lat="44.8384717" lon="11.7185528"><ele>3.666666666666667</ele><time>2026-04-07T16:56:21.568Z</time></trkpt><trkpt lat="44.8383288" lon="11.7185807"><ele>4.333333333333334</ele><time>2026-04-07T16:56:22.559Z</time></trkpt><trkpt lat="44.8381737" lon="11.7186419"><ele>5.0</ele><time>2026-04-07T16:56:23.562Z</time></trkpt><trkpt lat="44.8379678" lon="11.7188048"><ele>5.0</ele><time>2026-04-07T16:56:24.562Z</time></trkpt><trkpt lat="44.8377638" lon="11.7188993"><ele>5.0</ele><time>2026-04-07T16:56:25.566Z</time></trkpt><trkpt lat="44.8375876" lon="11.7189771"><ele>5.0</ele><time>2026-04-07T16:56:26.563Z</time></trkpt><trkpt lat="44.8374088" lon="11.7190109"><ele>5.0</ele><time>2026-04-07T16:56:27.566Z</time></trkpt><trkpt lat="44.8372357" lon="11.7190789"><ele>5.0</ele><time>2026-04-07T16:56:28.566Z</time></trkpt><trkpt lat="44.8370662" lon="11.7191476"><ele>5.0</ele><time>2026-04-07T16:56:29.567Z</time></trkpt><trkpt lat="44.8368756" lon="11.7192141"><ele>5.0</ele><time>2026-04-07T16:56:30.569Z</time></trkpt><trkpt lat="44.8366951" lon="11.7192719"><ele>5.0</ele><time>2026-04-07T16:56:31.556Z</time></trkpt><trkpt lat="44.8364928" lon="11.7193264"><ele>5.0</ele><time>2026-04-07T16:56:32.561Z</time></trkpt><trkpt lat="44.8363" lon="11.7194207"><ele>5.0</ele><time>2026-04-07T16:56:33.571Z</time></trkpt><trkpt lat="44.8361477" lon="11.7194264"><ele>5.0</ele><time>2026-04-07T16:56:34.568Z</time></trkpt><trkpt lat="44.8359594" lon="11.7194491"><ele>5.0</ele><time>2026-04-07T16:56:35.566Z</time></trkpt><trkpt lat="44.8357817" lon="11.7194732"><ele>5.0</ele><time>2026-04-07T16:56:36.572Z</time></trkpt><trkpt lat="44.8356227" lon="11.7194812"><ele>5.0</ele><time>2026-04-07T16:56:37.574Z</time></trkpt><trkpt lat="44.8354827" lon="11.7194808"><ele>5.0</ele><time>2026-04-07T16:56:38.568Z</time></trkpt><trkpt lat="44.8353334" lon="11.719467"><ele>5.0</ele><time>2026-04-07T16:56:39.566Z</time></trkpt><trkpt lat="44.8351588" lon="11.7194231"><ele>4.666666666666667</ele><time>2026-04-07T16:56:40.565Z</time></trkpt><trkpt lat="44.8349796" lon="11.7194005"><ele>4.333333333333333</ele><time>2026-04-07T16:56:41.568Z</time></trkpt><trkpt lat="44.8347972" lon="11.7193357"><ele>4.0</ele><time>2026-04-07T16:56:42.568Z</time></trkpt><trkpt lat="44.8346078" lon="11.7192668"><ele>4.666666666666666</ele><time>2026-04-07T16:56:43.562Z</time></trkpt><trkpt lat="44.834406" lon="11.7191852"><ele>5.333333333333333</ele><time>2026-04-07T16:56:44.569Z</time></trkpt><trkpt lat="44.8341819" lon="11.7191096"><ele>6.0</ele><time>2026-04-07T16:56:45.562Z</time></trkpt><trkpt lat="44.8339641" lon="11.7190239"><ele>6.0</ele><time>2026-04-07T16:56:46.568Z</time></trkpt><trkpt lat="44.8337428" lon="11.7189409"><ele>6.0</ele><time>2026-04-07T16:56:47.559Z</time></trkpt><trkpt lat="44.8335406" lon="11.7188615"><ele>6.0</ele><time>2026-04-07T16:56:48.562Z</time></trkpt><trkpt lat="44.8333175" lon="11.7188069"><ele>5.5</ele><time>2026-04-07T16:56:49.56Z</time></trkpt><trkpt lat="44.8330827" lon="11.7187205"><ele>5.0</ele><time>2026-04-07T16:56:50.554Z</time></trkpt><trkpt lat="44.8328628" lon="11.7186614"><ele>4.666666666666667</ele><time>2026-04-07T16:56:51.568Z</time></trkpt><trkpt lat="44.8326347" lon="11.7185995"><ele>4.333333333333333</ele><time>2026-04-07T16:56:52.563Z</time></trkpt><trkpt lat="44.83243" lon="11.7185519"><ele>4.0</ele><time>2026-04-07T16:56:53.563Z</time></trkpt><trkpt lat="44.8322179" lon="11.7185114"><ele>4.0</ele><time>2026-04-07T16:56:54.569Z</time></trkpt><trkpt lat="44.8320267" lon="11.7184514"><ele>4.0</ele><time>2026-04-07T16:56:55.573Z</time></trkpt><trkpt lat="44.831834" lon="11.7183734"><ele>4.0</ele><time>2026-04-07T16:56:56.566Z</time></trkpt><trkpt lat="44.8316383" lon="11.7182808"><ele>4.0</ele><time>2026-04-07T16:56:57.651Z</time></trkpt><trkpt lat="44.8314438" lon="11.718185"><ele>4.0</ele><time>2026-04-07T16:56:58.562Z</time></trkpt><trkpt lat="44.8312519" lon="11.7180818"><ele>4.0</ele><time>2026-04-07T16:56:59.568Z</time></trkpt><trkpt lat="44.8310694" lon="11.717948"><ele>4.0</ele><time>2026-04-07T16:57:00.56Z</time></trkpt><trkpt lat="44.8308875" lon="11.7178104"><ele>4.0</ele><time>2026-04-07T16:57:01.574Z</time></trkpt><trkpt lat="44.8307147" lon="11.717669"><ele>4.0</ele><time>2026-04-07T16:57:02.564Z</time></trkpt><trkpt lat="44.8305345" lon="11.717532"><ele>4.333333333333333</ele><time>2026-04-07T16:57:03.577Z</time></trkpt><trkpt lat="44.8303734" lon="11.7174025"><ele>4.666666666666667</ele><time>2026-04-07T16:57:04.565Z</time></trkpt><trkpt lat="44.8301765" lon="11.7172582"><ele>5.0</ele><time>2026-04-07T16:57:05.734Z</time></trkpt><trkpt lat="44.829973" lon="11.7171276"><ele>5.0</ele><time>2026-04-07T16:57:06.724Z</time></trkpt><trkpt lat="44.8297979" lon="11.7170345"><ele>5.0</ele><time>2026-04-07T16:57:07.735Z</time></trkpt><trkpt lat="44.8296479" lon="11.7169784"><ele>5.0</ele><time>2026-04-07T16:57:08.724Z</time></trkpt><trkpt lat="44.8294588" lon="11.7168702"><ele>6.0</ele><time>2026-04-07T16:57:09.714Z</time></trkpt><trkpt lat="44.8290629" lon="11.7166251"><ele>7.0</ele><time>2026-04-07T16:57:11.574Z</time></trkpt><trkpt lat="44.8288674" lon="11.7164962"><ele>7.0</ele><time>2026-04-07T16:57:12.564Z</time></trkpt><trkpt lat="44.8286792" lon="11.7163767"><ele>7.0</ele><time>2026-04-07T16:57:13.737Z</time></trkpt><trkpt lat="44.8283641" lon="11.7161842"><ele>6.333333333333334</ele><time>2026-04-07T16:57:15.569Z</time></trkpt><trkpt lat="44.8282023" lon="11.7161072"><ele>5.666666666666667</ele><time>2026-04-07T16:57:16.565Z</time></trkpt><trkpt lat="44.8280194" lon="11.7160157"><ele>5.0</ele><time>2026-04-07T16:57:17.571Z</time></trkpt><trkpt lat="44.8278402" lon="11.7159249"><ele>5.0</ele><time>2026-04-07T16:57:18.584Z</time></trkpt><trkpt lat="44.8276589" lon="11.7158487"><ele>5.0</ele><time>2026-04-07T16:57:19.568Z</time></trkpt><trkpt lat="44.8274744" lon="11.7157815"><ele>5.0</ele><time>2026-04-07T16:57:20.569Z</time></trkpt><trkpt lat="44.8273379" lon="11.7157555"><ele>5.0</ele><time>2026-04-07T16:57:21.563Z</time></trkpt><trkpt lat="44.8272384" lon="11.7157378"><ele>5.0</ele><time>2026-04-07T16:57:22.562Z</time></trkpt><trkpt lat="44.8271582" lon="11.7157242"><ele>5.0</ele><time>2026-04-07T16:57:23.565Z</time></trkpt><trkpt lat="44.8270848" lon="11.715701"><ele>5.0</ele><time>2026-04-07T16:57:24.56Z</time></trkpt><trkpt lat="44.8269844" lon="11.7156801"><ele>5.0</ele><time>2026-04-07T16:57:25.564Z</time></trkpt><trkpt lat="44.826843" lon="11.7156792"><ele>5.0</ele><time>2026-04-07T16:57:26.563Z</time></trkpt><trkpt lat="44.826712" lon="11.7157013"><ele>5.0</ele><time>2026-04-07T16:57:27.582Z</time></trkpt><trkpt lat="44.8265161" lon="11.7156935"><ele>5.0</ele><time>2026-04-07T16:57:28.57Z</time></trkpt><trkpt lat="44.8263296" lon="11.7156859"><ele>5.0</ele><time>2026-04-07T16:57:29.56Z</time></trkpt><trkpt lat="44.8261632" lon="11.7156928"><ele>5.0</ele><time>2026-04-07T16:57:30.563Z</time></trkpt><trkpt lat="44.8259702" lon="11.7156844"><ele>5.0</ele><time>2026-04-07T16:57:31.562Z</time></trkpt><trkpt lat="44.8257664" lon="11.715691"><ele>4.666666666666667</ele><time>2026-04-07T16:57:32.562Z</time></trkpt><trkpt lat="44.8255897" lon="11.7157047"><ele>4.333333333333333</ele><time>2026-04-07T16:57:33.557Z</time></trkpt><trkpt lat="44.8253995" lon="11.7157364"><ele>4.0</ele><time>2026-04-07T16:57:34.589Z</time></trkpt><trkpt lat="44.8252079" lon="11.7157502"><ele>4.333333333333333</ele><time>2026-04-07T16:57:35.567Z</time></trkpt><trkpt lat="44.8250182" lon="11.715766"><ele>4.666666666666667</ele><time>2026-04-07T16:57:36.565Z</time></trkpt><trkpt lat="44.8248301" lon="11.7158048"><ele>5.0</ele><time>2026-04-07T16:57:37.57Z</time></trkpt><trkpt lat="44.8246486" lon="11.7158371"><ele>5.0</ele><time>2026-04-07T16:57:38.566Z</time></trkpt><trkpt lat="44.8244591" lon="11.7158335"><ele>5.0</ele><time>2026-04-07T16:57:39.563Z</time></trkpt><trkpt lat="44.8242857" lon="11.7158335"><ele>5.0</ele><time>2026-04-07T16:57:40.577Z</time></trkpt><trkpt lat="44.8240891" lon="11.7158631"><ele>5.333333333333334</ele><time>2026-04-07T16:57:41.564Z</time></trkpt><trkpt lat="44.8239163" lon="11.7158647"><ele>5.666666666666667</ele><time>2026-04-07T16:57:42.571Z</time></trkpt><trkpt lat="44.823734" lon="11.7158912"><ele>6.0</ele><time>2026-04-07T16:57:43.568Z</time></trkpt><trkpt lat="44.8235611" lon="11.7159031"><ele>5.666666666666667</ele><time>2026-04-07T16:57:44.562Z</time></trkpt><trkpt lat="44.8234031" lon="11.7159092"><ele>5.333333333333334</ele><time>2026-04-07T16:57:45.565Z</time></trkpt><trkpt lat="44.8232375" lon="11.7159336"><ele>5.0</ele><time>2026-04-07T16:57:46.571Z</time></trkpt><trkpt lat="44.8230642" lon="11.7159362"><ele>5.0</ele><time>2026-04-07T16:57:47.569Z</time></trkpt><trkpt lat="44.8229023" lon="11.715969"><ele>5.0</ele><time>2026-04-07T16:57:48.568Z</time></trkpt><trkpt lat="44.822751" lon="11.7159879"><ele>5.0</ele><time>2026-04-07T16:57:49.571Z</time></trkpt><trkpt lat="44.8226223" lon="11.7160243"><ele>5.0</ele><time>2026-04-07T16:57:50.573Z</time></trkpt><trkpt lat="44.8225059" lon="11.7160479"><ele>5.25</ele><time>2026-04-07T16:57:51.572Z</time></trkpt><trkpt lat="44.8223732" lon="11.7160561"><ele>5.5</ele><time>2026-04-07T16:57:52.576Z</time></trkpt><trkpt lat="44.8222565" lon="11.7160675"><ele>5.75</ele><time>2026-04-07T16:57:53.57Z</time></trkpt><trkpt lat="44.8221362" lon="11.7160771"><ele>6.0</ele><time>2026-04-07T16:57:54.567Z</time></trkpt><trkpt lat="44.8220124" lon="11.7160595"><ele>6.0</ele><time>2026-04-07T16:57:55.575Z</time></trkpt><trkpt lat="44.8218945" lon="11.7160305"><ele>6.0</ele><time>2026-04-07T16:57:56.571Z</time></trkpt><trkpt lat="44.8217999" lon="11.7160098"><ele>6.0</ele><time>2026-04-07T16:57:57.561Z</time></trkpt><trkpt lat="44.8217143" lon="11.7159981"><ele>6.0</ele><time>2026-04-07T16:57:58.574Z</time></trkpt><trkpt lat="44.821646" lon="11.7159957"><ele>6.0</ele><time>2026-04-07T16:57:59.562Z</time></trkpt><trkpt lat="44.8215731" lon="11.7160507"><ele>5.6</ele><time>2026-04-07T16:58:01.566Z</time></trkpt><trkpt lat="44.8215809" lon="11.7161884"><ele>5.199999999999999</ele><time>2026-04-07T16:58:03.556Z</time></trkpt><trkpt lat="44.8215992" lon="11.7163191"><ele>4.800000000000001</ele><time>2026-04-07T16:58:04.551Z</time></trkpt><trkpt lat="44.8216171" lon="11.7164712"><ele>4.4</ele><time>2026-04-07T16:58:05.554Z</time></trkpt><trkpt lat="44.8216365" lon="11.7166298"><ele>4.0</ele><time>2026-04-07T16:58:06.555Z</time></trkpt><trkpt lat="44.8216588" lon="11.716773"><ele>4.0</ele><time>2026-04-07T16:58:07.567Z</time></trkpt><trkpt lat="44.8216721" lon="11.7169163"><ele>4.0</ele><time>2026-04-07T16:58:08.559Z</time></trkpt><trkpt lat="44.8216951" lon="11.7170858"><ele>4.0</ele><time>2026-04-07T16:58:09.56Z</time></trkpt><trkpt lat="44.8217116" lon="11.7172563"><ele>4.0</ele><time>2026-04-07T16:58:10.559Z</time></trkpt><trkpt lat="44.8217261" lon="11.717446"><ele>4.0</ele><time>2026-04-07T16:58:11.561Z</time></trkpt><trkpt lat="44.82174" lon="11.7176555"><ele>4.0</ele><time>2026-04-07T16:58:12.556Z</time></trkpt><trkpt lat="44.8217761" lon="11.7179018"><ele>4.0</ele><time>2026-04-07T16:58:13.564Z</time></trkpt><trkpt lat="44.821811" lon="11.7181248"><ele>3.8000000000000003</ele><time>2026-04-07T16:58:14.554Z</time></trkpt><trkpt lat="44.8217862" lon="11.7183068"><ele>3.6000000000000005</ele><time>2026-04-07T16:58:15.562Z</time></trkpt><trkpt lat="44.8218162" lon="11.7184541"><ele>3.4</ele><time>2026-04-07T16:58:16.56Z</time></trkpt><trkpt lat="44.8217964" lon="11.7185539"><ele>3.2</ele><time>2026-04-07T16:58:17.561Z</time></trkpt><trkpt lat="44.8217564" lon="11.7187179"><ele>3.0</ele><time>2026-04-07T16:58:18.563Z</time></trkpt><trkpt lat="44.8216931" lon="11.7189236"><ele>3.0</ele><time>2026-04-07T16:58:19.563Z</time></trkpt><trkpt lat="44.8216281" lon="11.7191187"><ele>3.0</ele><time>2026-04-07T16:58:20.567Z</time></trkpt><trkpt lat="44.8215448" lon="11.7193038"><ele>3.0</ele><time>2026-04-07T16:58:21.561Z</time></trkpt><trkpt lat="44.8214868" lon="11.719497"><ele>3.25</ele><time>2026-04-07T16:58:22.557Z</time></trkpt><trkpt lat="44.8214324" lon="11.7197035"><ele>3.5</ele><time>2026-04-07T16:58:23.568Z</time></trkpt><trkpt lat="44.8213855" lon="11.7198725"><ele>3.75</ele><time>2026-04-07T16:58:24.562Z</time></trkpt><trkpt lat="44.8213485" lon="11.7200298"><ele>4.0</ele><time>2026-04-07T16:58:25.568Z</time></trkpt><trkpt lat="44.8213186" lon="11.72015"><ele>3.833333333333333</ele><time>2026-04-07T16:58:26.57Z</time></trkpt><trkpt lat="44.8212936" lon="11.720259"><ele>3.6666666666666665</ele><time>2026-04-07T16:58:27.57Z</time></trkpt><trkpt lat="44.8212761" lon="11.7203509"><ele>3.5</ele><time>2026-04-07T16:58:28.593Z</time></trkpt><trkpt lat="44.8212588" lon="11.7205168"><ele>3.333333333333333</ele><time>2026-04-07T16:58:30.567Z</time></trkpt><trkpt lat="44.8212299" lon="11.7206448"><ele>3.1666666666666665</ele><time>2026-04-07T16:58:32.563Z</time></trkpt><trkpt lat="44.8211856" lon="11.7207357"><ele>3.0</ele><time>2026-04-07T16:58:34.56Z</time></trkpt><trkpt lat="44.82107" lon="11.7207145"><ele>3.25</ele><time>2026-04-07T16:58:37.563Z</time></trkpt><trkpt lat="44.8209744" lon="11.7206507"><ele>3.5</ele><time>2026-04-07T16:58:38.559Z</time></trkpt><trkpt lat="44.820866" lon="11.7205858"><ele>3.75</ele><time>2026-04-07T16:58:39.566Z</time></trkpt><trkpt lat="44.8207503" lon="11.7205202"><ele>4.0</ele><time>2026-04-07T16:58:40.561Z</time></trkpt><trkpt lat="44.8206241" lon="11.7204586"><ele>4.0</ele><time>2026-04-07T16:58:41.566Z</time></trkpt><trkpt lat="44.8205046" lon="11.720407"><ele>4.0</ele><time>2026-04-07T16:58:42.564Z</time></trkpt><trkpt lat="44.8203856" lon="11.720353"><ele>4.0</ele><time>2026-04-07T16:58:43.567Z</time></trkpt><trkpt lat="44.8202706" lon="11.7202967"><ele>4.0</ele><time>2026-04-07T16:58:44.562Z</time></trkpt><trkpt lat="44.8201672" lon="11.7202595"><ele>3.75</ele><time>2026-04-07T16:58:45.57Z</time></trkpt><trkpt lat="44.8200708" lon="11.7202147"><ele>3.5</ele><time>2026-04-07T16:58:46.565Z</time></trkpt><trkpt lat="44.8199753" lon="11.720155"><ele>3.25</ele><time>2026-04-07T16:58:47.563Z</time></trkpt><trkpt lat="44.8198804" lon="11.7200707"><ele>3.0</ele><time>2026-04-07T16:58:48.556Z</time></trkpt><trkpt lat="44.8197678" lon="11.7199668"><ele>3.0</ele><time>2026-04-07T16:58:49.568Z</time></trkpt><trkpt lat="44.8196588" lon="11.7198635"><ele>3.0</ele><time>2026-04-07T16:58:50.557Z</time></trkpt><trkpt lat="44.8195547" lon="11.7197478"><ele>3.0</ele><time>2026-04-07T16:58:51.559Z</time></trkpt><trkpt lat="44.8194786" lon="11.7196287"><ele>3.0</ele><time>2026-04-07T16:58:52.563Z</time></trkpt><trkpt lat="44.8193978" lon="11.7195234"><ele>3.0</ele><time>2026-04-07T16:58:53.558Z</time></trkpt><trkpt lat="44.8193053" lon="11.7194079"><ele>3.0</ele><time>2026-04-07T16:58:54.561Z</time></trkpt><trkpt lat="44.8192523" lon="11.719295"><ele>3.0</ele><time>2026-04-07T16:58:55.568Z</time></trkpt><trkpt lat="44.8191597" lon="11.7191871"><ele>3.0</ele><time>2026-04-07T16:58:56.557Z</time></trkpt><trkpt lat="44.8190714" lon="11.7190474"><ele>3.0</ele><time>2026-04-07T16:58:57.56Z</time></trkpt><trkpt lat="44.8189762" lon="11.7188573"><ele>3.0</ele><time>2026-04-07T16:58:58.56Z</time></trkpt><trkpt lat="44.818891" lon="11.718711"><ele>3.0</ele><time>2026-04-07T16:58:59.568Z</time></trkpt><trkpt lat="44.8188167" lon="11.7185574"><ele>3.0</ele><time>2026-04-07T16:59:00.563Z</time></trkpt><trkpt lat="44.8187424" lon="11.7184186"><ele>3.0</ele><time>2026-04-07T16:59:01.558Z</time></trkpt><trkpt lat="44.8186787" lon="11.7182714"><ele>3.0</ele><time>2026-04-07T16:59:02.566Z</time></trkpt><trkpt lat="44.8186196" lon="11.7181145"><ele>3.0</ele><time>2026-04-07T16:59:03.557Z</time></trkpt><trkpt lat="44.8185683" lon="11.7179455"><ele>3.0</ele><time>2026-04-07T16:59:04.561Z</time></trkpt><trkpt lat="44.8185141" lon="11.7177791"><ele>3.5999999999999996</ele><time>2026-04-07T16:59:05.566Z</time></trkpt><trkpt lat="44.8184618" lon="11.717633"><ele>4.199999999999999</ele><time>2026-04-07T16:59:06.571Z</time></trkpt><trkpt lat="44.8184121" lon="11.7175006"><ele>4.8</ele><time>2026-04-07T16:59:07.572Z</time></trkpt><trkpt lat="44.8183671" lon="11.7173683"><ele>5.3999999999999995</ele><time>2026-04-07T16:59:08.565Z</time></trkpt><trkpt lat="44.8183232" lon="11.7172383"><ele>6.0</ele><time>2026-04-07T16:59:09.572Z</time></trkpt><trkpt lat="44.8182774" lon="11.7171109"><ele>6.0</ele><time>2026-04-07T16:59:10.569Z</time></trkpt><trkpt lat="44.8182375" lon="11.7169973"><ele>6.0</ele><time>2026-04-07T16:59:11.566Z</time></trkpt><trkpt lat="44.8181929" lon="11.7168913"><ele>6.0</ele><time>2026-04-07T16:59:12.566Z</time></trkpt><trkpt lat="44.8181491" lon="11.7167982"><ele>6.0</ele><time>2026-04-07T16:59:13.559Z</time></trkpt><trkpt lat="44.8180819" lon="11.7166658"><ele>6.0</ele><time>2026-04-07T16:59:15.558Z</time></trkpt><trkpt lat="44.8180433" lon="11.7165784"><ele>6.0</ele><time>2026-04-07T16:59:18.559Z</time></trkpt><trkpt lat="44.817943" lon="11.7165915"><ele>6.0</ele><time>2026-04-07T16:59:20.562Z</time></trkpt><trkpt lat="44.817867" lon="11.7166272"><ele>6.0</ele><time>2026-04-07T16:59:21.56Z</time></trkpt><trkpt lat="44.8177897" lon="11.7166726"><ele>6.0</ele><time>2026-04-07T16:59:23.565Z</time></trkpt><trkpt lat="44.8177162" lon="11.7166781"><ele>6.0</ele><time>2026-04-07T16:59:26.566Z</time></trkpt><trkpt lat="44.8176532" lon="11.7166828"><ele>6.0</ele><time>2026-04-07T16:59:27.559Z</time></trkpt><trkpt lat="44.8175149" lon="11.7166975"><ele>6.0</ele><time>2026-04-07T16:59:29.563Z</time></trkpt><trkpt lat="44.8174326" lon="11.7166952"><ele>6.25</ele><time>2026-04-07T16:59:30.563Z</time></trkpt><trkpt lat="44.8173367" lon="11.7166959"><ele>6.5</ele><time>2026-04-07T16:59:31.565Z</time></trkpt><trkpt lat="44.8172259" lon="11.7166904"><ele>6.75</ele><time>2026-04-07T16:59:32.562Z</time></trkpt><trkpt lat="44.817105" lon="11.7166841"><ele>7.0</ele><time>2026-04-07T16:59:33.562Z</time></trkpt><trkpt lat="44.8169768" lon="11.7166884"><ele>7.000000000000001</ele><time>2026-04-07T16:59:34.567Z</time></trkpt><trkpt lat="44.8168614" lon="11.7166844"><ele>7.0</ele><time>2026-04-07T16:59:35.564Z</time></trkpt><trkpt lat="44.8167619" lon="11.7166763"><ele>7.0</ele><time>2026-04-07T16:59:36.561Z</time></trkpt><trkpt lat="44.8166758" lon="11.7166624"><ele>7.0</ele><time>2026-04-07T16:59:37.568Z</time></trkpt><trkpt lat="44.8166015" lon="11.7166472"><ele>7.000000000000001</ele><time>2026-04-07T16:59:38.575Z</time></trkpt><trkpt lat="44.8165327" lon="11.7166329"><ele>7.0</ele><time>2026-04-07T16:59:39.57Z</time></trkpt><trkpt lat="44.8164277" lon="11.7166207"><ele>7.199999999999999</ele><time>2026-04-07T16:59:41.572Z</time></trkpt><trkpt lat="44.8163577" lon="11.7166001"><ele>7.3999999999999995</ele><time>2026-04-07T16:59:43.559Z</time></trkpt><trkpt lat="44.8162796" lon="11.7166632"><ele>7.6000000000000005</ele><time>2026-04-07T16:59:45.567Z</time></trkpt><trkpt lat="44.816232" lon="11.716834"><ele>7.800000000000001</ele><time>2026-04-07T16:59:47.572Z</time></trkpt><trkpt lat="44.8162225" lon="11.7169618"><ele>8.0</ele><time>2026-04-07T16:59:48.573Z</time></trkpt><trkpt lat="44.8162106" lon="11.7171162"><ele>7.25</ele><time>2026-04-07T16:59:49.56Z</time></trkpt><trkpt lat="44.8161911" lon="11.7172958"><ele>6.5</ele><time>2026-04-07T16:59:50.564Z</time></trkpt><trkpt lat="44.8161641" lon="11.7174719"><ele>5.75</ele><time>2026-04-07T16:59:51.557Z</time></trkpt><trkpt lat="44.8161425" lon="11.7176251"><ele>5.0</ele><time>2026-04-07T16:59:52.566Z</time></trkpt><trkpt lat="44.816128" lon="11.7177664"><ele>5.0</ele><time>2026-04-07T16:59:53.566Z</time></trkpt><trkpt lat="44.8161133" lon="11.7178893"><ele>5.0</ele><time>2026-04-07T16:59:54.57Z</time></trkpt><trkpt lat="44.8161055" lon="11.7179962"><ele>5.0</ele><time>2026-04-07T16:59:55.562Z</time></trkpt><trkpt lat="44.8160987" lon="11.7180987"><ele>5.0</ele><time>2026-04-07T16:59:56.571Z</time></trkpt><trkpt lat="44.8160507" lon="11.7182527"><ele>5.0</ele><time>2026-04-07T16:59:58.572Z</time></trkpt><trkpt lat="44.815954" lon="11.718271"><ele>5.0</ele><time>2026-04-07T17:00:00.567Z</time></trkpt><trkpt lat="44.815894" lon="11.7182435"><ele>5.0</ele><time>2026-04-07T17:00:01.564Z</time></trkpt><trkpt lat="44.8158174" lon="11.7182055"><ele>5.0</ele><time>2026-04-07T17:00:02.564Z</time></trkpt><trkpt lat="44.8157286" lon="11.7181577"><ele>5.0</ele><time>2026-04-07T17:00:03.57Z</time></trkpt><trkpt lat="44.8156206" lon="11.7181104"><ele>5.0</ele><time>2026-04-07T17:00:04.567Z</time></trkpt><trkpt lat="44.8155088" lon="11.7180628"><ele>5.0</ele><time>2026-04-07T17:00:05.587Z</time></trkpt><trkpt lat="44.8153966" lon="11.7180134"><ele>5.0</ele><time>2026-04-07T17:00:06.587Z</time></trkpt><trkpt lat="44.815284" lon="11.7179698"><ele>5.0</ele><time>2026-04-07T17:00:07.579Z</time></trkpt><trkpt lat="44.8151713" lon="11.7179283"><ele>5.0</ele><time>2026-04-07T17:00:08.573Z</time></trkpt><trkpt lat="44.8150579" lon="11.7178815"><ele>5.0</ele><time>2026-04-07T17:00:09.577Z</time></trkpt><trkpt lat="44.8149532" lon="11.7178336"><ele>5.0</ele><time>2026-04-07T17:00:10.565Z</time></trkpt><trkpt lat="44.8148681" lon="11.7177975"><ele>5.0</ele><time>2026-04-07T17:00:11.57Z</time></trkpt><trkpt lat="44.8147959" lon="11.717768"><ele>5.0</ele><time>2026-04-07T17:00:12.575Z</time></trkpt><trkpt lat="44.8147288" lon="11.7177311"><ele>5.0</ele><time>2026-04-07T17:00:13.566Z</time></trkpt><trkpt lat="44.8146524" lon="11.7176727"><ele>5.0</ele><time>2026-04-07T17:00:14.576Z</time></trkpt><trkpt lat="44.8145695" lon="11.7176009"><ele>5.0</ele><time>2026-04-07T17:00:15.567Z</time></trkpt><trkpt lat="44.8144847" lon="11.717509"><ele>5.0</ele><time>2026-04-07T17:00:16.573Z</time></trkpt><trkpt lat="44.8144012" lon="11.7174079"><ele>5.0</ele><time>2026-04-07T17:00:17.576Z</time></trkpt><trkpt lat="44.8143192" lon="11.7172995"><ele>5.0</ele><time>2026-04-07T17:00:18.563Z</time></trkpt><trkpt lat="44.8142251" lon="11.7171944"><ele>5.0</ele><time>2026-04-07T17:00:19.562Z</time></trkpt><trkpt lat="44.8141211" lon="11.7170831"><ele>4.5</ele><time>2026-04-07T17:00:20.583Z</time></trkpt><trkpt lat="44.8140267" lon="11.7169777"><ele>4.0</ele><time>2026-04-07T17:00:21.566Z</time></trkpt><trkpt lat="44.8139215" lon="11.7168567"><ele>3.5</ele><time>2026-04-07T17:00:22.585Z</time></trkpt><trkpt lat="44.8138205" lon="11.7167305"><ele>3.0</ele><time>2026-04-07T17:00:23.588Z</time></trkpt><trkpt lat="44.8137103" lon="11.7165917"><ele>3.0</ele><time>2026-04-07T17:00:24.589Z</time></trkpt><trkpt lat="44.8135823" lon="11.7164222"><ele>3.0</ele><time>2026-04-07T17:00:25.604Z</time></trkpt><trkpt lat="44.8134477" lon="11.7162641"><ele>3.0</ele><time>2026-04-07T17:00:26.568Z</time></trkpt><trkpt lat="44.8133242" lon="11.716119"><ele>3.0</ele><time>2026-04-07T17:00:27.565Z</time></trkpt><trkpt lat="44.8131922" lon="11.7159664"><ele>3.0</ele><time>2026-04-07T17:00:28.572Z</time></trkpt><trkpt lat="44.8130608" lon="11.7158331"><ele>3.0</ele><time>2026-04-07T17:00:29.581Z</time></trkpt><trkpt lat="44.8129434" lon="11.7157056"><ele>3.0</ele><time>2026-04-07T17:00:30.568Z</time></trkpt><trkpt lat="44.812816" lon="11.7155657"><ele>3.0</ele><time>2026-04-07T17:00:31.565Z</time></trkpt><trkpt lat="44.8126947" lon="11.7154174"><ele>3.0</ele><time>2026-04-07T17:00:32.56Z</time></trkpt><trkpt lat="44.8125599" lon="11.7152449"><ele>3.666666666666667</ele><time>2026-04-07T17:00:33.568Z</time></trkpt><trkpt lat="44.8124237" lon="11.715096"><ele>4.333333333333334</ele><time>2026-04-07T17:00:34.572Z</time></trkpt><trkpt lat="44.8123046" lon="11.7149593"><ele>5.0</ele><time>2026-04-07T17:00:35.56Z</time></trkpt><trkpt lat="44.8122006" lon="11.7148537"><ele>5.0</ele><time>2026-04-07T17:00:36.561Z</time></trkpt><trkpt lat="44.8121029" lon="11.714748"><ele>5.0</ele><time>2026-04-07T17:00:37.552Z</time></trkpt><trkpt lat="44.8120066" lon="11.7146235"><ele>5.0</ele><time>2026-04-07T17:00:38.554Z</time></trkpt><trkpt lat="44.8119189" lon="11.7145214"><ele>5.0</ele><time>2026-04-07T17:00:39.557Z</time></trkpt><trkpt lat="44.8118466" lon="11.7144471"><ele>4.8</ele><time>2026-04-07T17:00:40.555Z</time></trkpt><trkpt lat="44.8117483" lon="11.7143667"><ele>4.6</ele><time>2026-04-07T17:00:42.557Z</time></trkpt><trkpt lat="44.8116555" lon="11.7143392"><ele>4.4</ele><time>2026-04-07T17:00:43.564Z</time></trkpt><trkpt lat="44.8115543" lon="11.7144193"><ele>4.2</ele><time>2026-04-07T17:00:45.555Z</time></trkpt><trkpt lat="44.8115189" lon="11.714505"><ele>4.0</ele><time>2026-04-07T17:00:46.555Z</time></trkpt><trkpt lat="44.8114846" lon="11.7146152"><ele>4.0</ele><time>2026-04-07T17:00:47.559Z</time></trkpt><trkpt lat="44.8114406" lon="11.7147588"><ele>4.0</ele><time>2026-04-07T17:00:48.557Z</time></trkpt><trkpt lat="44.8113898" lon="11.7149026"><ele>4.0</ele><time>2026-04-07T17:00:49.558Z</time></trkpt><trkpt lat="44.8113455" lon="11.7150372"><ele>4.0</ele><time>2026-04-07T17:00:50.552Z</time></trkpt><trkpt lat="44.811315" lon="11.7151518"><ele>4.0</ele><time>2026-04-07T17:00:51.557Z</time></trkpt><trkpt lat="44.811284" lon="11.7152479"><ele>3.833333333333333</ele><time>2026-04-07T17:00:52.556Z</time></trkpt><trkpt lat="44.8112507" lon="11.7153258"><ele>3.6666666666666665</ele><time>2026-04-07T17:00:53.555Z</time></trkpt><trkpt lat="44.8112037" lon="11.7154146"><ele>3.5</ele><time>2026-04-07T17:00:54.546Z</time></trkpt><trkpt lat="44.8111568" lon="11.7155095"><ele>3.333333333333333</ele><time>2026-04-07T17:00:55.549Z</time></trkpt><trkpt lat="44.8111213" lon="11.7155899"><ele>3.1666666666666665</ele><time>2026-04-07T17:00:56.555Z</time></trkpt><trkpt lat="44.8110738" lon="11.7156628"><ele>3.0</ele><time>2026-04-07T17:00:58.56Z</time></trkpt><trkpt lat="44.8109965" lon="11.7155941"><ele>3.2</ele><time>2026-04-07T17:01:00.551Z</time></trkpt><trkpt lat="44.8109107" lon="11.7155019"><ele>3.4</ele><time>2026-04-07T17:01:02.555Z</time></trkpt><trkpt lat="44.8108297" lon="11.7154866"><ele>3.6000000000000005</ele><time>2026-04-07T17:01:06.55Z</time></trkpt><trkpt lat="44.8107362" lon="11.7156243"><ele>3.8000000000000003</ele><time>2026-04-07T17:01:08.569Z</time></trkpt><trkpt lat="44.8106683" lon="11.715758"><ele>4.0</ele><time>2026-04-07T17:01:09.555Z</time></trkpt><trkpt lat="44.8105803" lon="11.7159276"><ele>3.6666666666666665</ele><time>2026-04-07T17:01:10.551Z</time></trkpt><trkpt lat="44.8104864" lon="11.7161104"><ele>3.333333333333333</ele><time>2026-04-07T17:01:11.552Z</time></trkpt><trkpt lat="44.8103831" lon="11.7162969"><ele>3.0</ele><time>2026-04-07T17:01:12.543Z</time></trkpt><trkpt lat="44.8102483" lon="11.7165724"><ele>3.0</ele><time>2026-04-07T17:01:13.548Z</time></trkpt><trkpt lat="44.8101177" lon="11.716836"><ele>3.0</ele><time>2026-04-07T17:01:14.553Z</time></trkpt><trkpt lat="44.8100027" lon="11.7170694"><ele>3.0</ele><time>2026-04-07T17:01:15.547Z</time></trkpt><trkpt lat="44.8098896" lon="11.7172632"><ele>3.0</ele><time>2026-04-07T17:01:16.56Z</time></trkpt><trkpt lat="44.8097595" lon="11.7174605"><ele>3.0</ele><time>2026-04-07T17:01:17.563Z</time></trkpt><trkpt lat="44.8096059" lon="11.7176416"><ele>3.0</ele><time>2026-04-07T17:01:18.563Z</time></trkpt><trkpt lat="44.8094255" lon="11.7178294"><ele>2.6666666666666665</ele><time>2026-04-07T17:01:19.558Z</time></trkpt><trkpt lat="44.8092384" lon="11.7179809"><ele>2.333333333333333</ele><time>2026-04-07T17:01:20.563Z</time></trkpt><trkpt lat="44.8090369" lon="11.7181185"><ele>2.0</ele><time>2026-04-07T17:01:21.568Z</time></trkpt><trkpt lat="44.8088223" lon="11.7182696"><ele>2.0</ele><time>2026-04-07T17:01:22.563Z</time></trkpt><trkpt lat="44.8086209" lon="11.7184041"><ele>2.0</ele><time>2026-04-07T17:01:23.574Z</time></trkpt><trkpt lat="44.8083889" lon="11.7185207"><ele>2.0</ele><time>2026-04-07T17:01:24.566Z</time></trkpt><trkpt lat="44.8081729" lon="11.718606"><ele>2.0</ele><time>2026-04-07T17:01:25.594Z</time></trkpt><trkpt lat="44.8079475" lon="11.7187417"><ele>2.0</ele><time>2026-04-07T17:01:26.568Z</time></trkpt><trkpt lat="44.8077039" lon="11.718838"><ele>2.0</ele><time>2026-04-07T17:01:27.564Z</time></trkpt><trkpt lat="44.8074666" lon="11.7189253"><ele>1.6666666666666665</ele><time>2026-04-07T17:01:28.571Z</time></trkpt><trkpt lat="44.8072546" lon="11.7190071"><ele>1.3333333333333333</ele><time>2026-04-07T17:01:29.565Z</time></trkpt><trkpt lat="44.8070453" lon="11.719115"><ele>1.0</ele><time>2026-04-07T17:01:30.569Z</time></trkpt><trkpt lat="44.8068568" lon="11.7192131"><ele>1.6666666666666665</ele><time>2026-04-07T17:01:31.559Z</time></trkpt><trkpt lat="44.8066787" lon="11.719336"><ele>2.3333333333333335</ele><time>2026-04-07T17:01:32.564Z</time></trkpt><trkpt lat="44.8064976" lon="11.719416"><ele>3.0</ele><time>2026-04-07T17:01:33.56Z</time></trkpt><trkpt lat="44.8063325" lon="11.7194817"><ele>3.0</ele><time>2026-04-07T17:01:34.564Z</time></trkpt><trkpt lat="44.8061729" lon="11.7195271"><ele>3.0</ele><time>2026-04-07T17:01:35.563Z</time></trkpt><trkpt lat="44.8060222" lon="11.7195637"><ele>3.0</ele><time>2026-04-07T17:01:36.586Z</time></trkpt><trkpt lat="44.8058701" lon="11.7195764"><ele>3.333333333333333</ele><time>2026-04-07T17:01:37.557Z</time></trkpt><trkpt lat="44.8057106" lon="11.7195511"><ele>3.6666666666666665</ele><time>2026-04-07T17:01:38.562Z</time></trkpt><trkpt lat="44.8055596" lon="11.7195187"><ele>4.0</ele><time>2026-04-07T17:01:39.614Z</time></trkpt><trkpt lat="44.8054234" lon="11.7195604"><ele>4.0</ele><time>2026-04-07T17:01:40.581Z</time></trkpt><trkpt lat="44.805284" lon="11.7196094"><ele>4.0</ele><time>2026-04-07T17:01:41.558Z</time></trkpt><trkpt lat="44.8051757" lon="11.7196211"><ele>4.0</ele><time>2026-04-07T17:01:42.551Z</time></trkpt><trkpt lat="44.805077" lon="11.7195994"><ele>4.0</ele><time>2026-04-07T17:01:43.559Z</time></trkpt><trkpt lat="44.8049859" lon="11.7195274"><ele>4.0</ele><time>2026-04-07T17:01:44.559Z</time></trkpt><trkpt lat="44.8049043" lon="11.7194432"><ele>4.0</ele><time>2026-04-07T17:01:45.563Z</time></trkpt><trkpt lat="44.8048355" lon="11.7193132"><ele>4.0</ele><time>2026-04-07T17:01:46.551Z</time></trkpt><trkpt lat="44.8047579" lon="11.7191282"><ele>4.0</ele><time>2026-04-07T17:01:47.552Z</time></trkpt><trkpt lat="44.8046866" lon="11.7189482"><ele>4.0</ele><time>2026-04-07T17:01:48.567Z</time></trkpt><trkpt lat="44.8046237" lon="11.7187444"><ele>4.0</ele><time>2026-04-07T17:01:49.557Z</time></trkpt><trkpt lat="44.8045697" lon="11.7184884"><ele>4.0</ele><time>2026-04-07T17:01:50.557Z</time></trkpt><trkpt lat="44.8045567" lon="11.7182143"><ele>4.0</ele><time>2026-04-07T17:01:51.573Z</time></trkpt><trkpt lat="44.8045262" lon="11.7179497"><ele>4.0</ele><time>2026-04-07T17:01:52.582Z</time></trkpt><trkpt lat="44.8045198" lon="11.7176941"><ele>4.0</ele><time>2026-04-07T17:01:53.557Z</time></trkpt><trkpt lat="44.8045279" lon="11.7174194"><ele>4.0</ele><time>2026-04-07T17:01:54.575Z</time></trkpt><trkpt lat="44.8045123" lon="11.7171227"><ele>4.0</ele><time>2026-04-07T17:01:55.572Z</time></trkpt><trkpt lat="44.8044845" lon="11.7168725"><ele>4.0</ele><time>2026-04-07T17:01:56.556Z</time></trkpt><trkpt lat="44.8044844" lon="11.7166389"><ele>3.6666666666666665</ele><time>2026-04-07T17:01:57.558Z</time></trkpt><trkpt lat="44.8044689" lon="11.716402"><ele>3.333333333333333</ele><time>2026-04-07T17:01:58.562Z</time></trkpt><trkpt lat="44.8044705" lon="11.7161844"><ele>3.0</ele><time>2026-04-07T17:01:59.559Z</time></trkpt><trkpt lat="44.8044795" lon="11.7159404"><ele>3.0</ele><time>2026-04-07T17:02:00.557Z</time></trkpt><trkpt lat="44.804498" lon="11.7156854"><ele>3.0</ele><time>2026-04-07T17:02:01.558Z</time></trkpt><trkpt lat="44.8045425" lon="11.7154451"><ele>3.0</ele><time>2026-04-07T17:02:02.56Z</time></trkpt><trkpt lat="44.804581" lon="11.7152162"><ele>3.0</ele><time>2026-04-07T17:02:03.557Z</time></trkpt><trkpt lat="44.8046143" lon="11.7149541"><ele>3.0</ele><time>2026-04-07T17:02:04.571Z</time></trkpt><trkpt lat="44.8046422" lon="11.7147095"><ele>3.0</ele><time>2026-04-07T17:02:05.558Z</time></trkpt><trkpt lat="44.8046689" lon="11.714458"><ele>3.333333333333333</ele><time>2026-04-07T17:02:06.644Z</time></trkpt><trkpt lat="44.8046736" lon="11.7142133"><ele>3.6666666666666665</ele><time>2026-04-07T17:02:07.555Z</time></trkpt><trkpt lat="44.8046894" lon="11.7139928"><ele>4.0</ele><time>2026-04-07T17:02:08.552Z</time></trkpt><trkpt lat="44.8047009" lon="11.7137575"><ele>4.0</ele><time>2026-04-07T17:02:09.551Z</time></trkpt><trkpt lat="44.8047091" lon="11.7135985"><ele>4.0</ele><time>2026-04-07T17:02:10.555Z</time></trkpt><trkpt lat="44.8047369" lon="11.7134444"><ele>4.0</ele><time>2026-04-07T17:02:11.548Z</time></trkpt><trkpt lat="44.8047472" lon="11.7133364"><ele>4.0</ele><time>2026-04-07T17:02:12.552Z</time></trkpt><trkpt lat="44.8047056" lon="11.7132309"><ele>4.0</ele><time>2026-04-07T17:02:15.602Z</time></trkpt><trkpt lat="44.804612" lon="11.7131906"><ele>4.25</ele><time>2026-04-07T17:02:17.555Z</time></trkpt><trkpt lat="44.8045186" lon="11.7132046"><ele>4.5</ele><time>2026-04-07T17:02:18.574Z</time></trkpt><trkpt lat="44.8044067" lon="11.7132452"><ele>4.75</ele><time>2026-04-07T17:02:19.554Z</time></trkpt><trkpt lat="44.8042586" lon="11.7133237"><ele>5.0</ele><time>2026-04-07T17:02:20.557Z</time></trkpt><trkpt lat="44.8041213" lon="11.713391"><ele>5.0</ele><time>2026-04-07T17:02:21.557Z</time></trkpt><trkpt lat="44.8039887" lon="11.7134568"><ele>5.0</ele><time>2026-04-07T17:02:22.566Z</time></trkpt><trkpt lat="44.8038723" lon="11.7135691"><ele>5.0</ele><time>2026-04-07T17:02:23.561Z</time></trkpt><trkpt lat="44.8037913" lon="11.7136262"><ele>5.0</ele><time>2026-04-07T17:02:24.559Z</time></trkpt><trkpt lat="44.8037097" lon="11.7136929"><ele>5.0</ele><time>2026-04-07T17:02:25.56Z</time></trkpt><trkpt lat="44.803626" lon="11.7137398"><ele>5.0</ele><time>2026-04-07T17:02:26.564Z</time></trkpt><trkpt lat="44.8035154" lon="11.7137609"><ele>5.0</ele><time>2026-04-07T17:02:27.559Z</time></trkpt><trkpt lat="44.8034049" lon="11.7138127"><ele>5.0</ele><time>2026-04-07T17:02:28.567Z</time></trkpt><trkpt lat="44.8033073" lon="11.7138916"><ele>5.0</ele><time>2026-04-07T17:02:29.566Z</time></trkpt><trkpt lat="44.8032033" lon="11.7139791"><ele>5.0</ele><time>2026-04-07T17:02:30.562Z</time></trkpt><trkpt lat="44.8031153" lon="11.7140556"><ele>5.0</ele><time>2026-04-07T17:02:31.562Z</time></trkpt><trkpt lat="44.8030231" lon="11.7141508"><ele>5.0</ele><time>2026-04-07T17:02:32.569Z</time></trkpt><trkpt lat="44.8029219" lon="11.7142576"><ele>5.0</ele><time>2026-04-07T17:02:33.565Z</time></trkpt><trkpt lat="44.8028151" lon="11.714373"><ele>5.25</ele><time>2026-04-07T17:02:34.563Z</time></trkpt><trkpt lat="44.8027018" lon="11.7144902"><ele>5.5</ele><time>2026-04-07T17:02:35.569Z</time></trkpt><trkpt lat="44.8025925" lon="11.7146009"><ele>5.75</ele><time>2026-04-07T17:02:36.568Z</time></trkpt><trkpt lat="44.80247" lon="11.7147195"><ele>6.0</ele><time>2026-04-07T17:02:37.569Z</time></trkpt><trkpt lat="44.8023161" lon="11.7148601"><ele>5.333333333333333</ele><time>2026-04-07T17:02:38.562Z</time></trkpt><trkpt lat="44.8021429" lon="11.7149663"><ele>4.666666666666666</ele><time>2026-04-07T17:02:39.567Z</time></trkpt><trkpt lat="44.8019886" lon="11.7150521"><ele>4.0</ele><time>2026-04-07T17:02:40.559Z</time></trkpt><trkpt lat="44.8018635" lon="11.7151197"><ele>3.75</ele><time>2026-04-07T17:02:41.564Z</time></trkpt><trkpt lat="44.8017324" lon="11.7151026"><ele>3.5</ele><time>2026-04-07T17:02:42.557Z</time></trkpt><trkpt lat="44.8016155" lon="11.7151105"><ele>3.25</ele><time>2026-04-07T17:02:43.549Z</time></trkpt><trkpt lat="44.8014648" lon="11.7151179"><ele>3.0</ele><time>2026-04-07T17:02:44.553Z</time></trkpt><trkpt lat="44.8013481" lon="11.7150998"><ele>3.0</ele><time>2026-04-07T17:02:45.561Z</time></trkpt><trkpt lat="44.8012298" lon="11.7150512"><ele>3.0</ele><time>2026-04-07T17:02:46.553Z</time></trkpt><trkpt lat="44.8011559" lon="11.7149929"><ele>3.0</ele><time>2026-04-07T17:02:47.552Z</time></trkpt><trkpt lat="44.8010696" lon="11.7148911"><ele>3.0</ele><time>2026-04-07T17:02:48.571Z</time></trkpt><trkpt lat="44.8009906" lon="11.7147754"><ele>3.0</ele><time>2026-04-07T17:02:49.557Z</time></trkpt><trkpt lat="44.8009167" lon="11.7146536"><ele>2.6666666666666665</ele><time>2026-04-07T17:02:50.565Z</time></trkpt><trkpt lat="44.8008593" lon="11.7144686"><ele>2.333333333333333</ele><time>2026-04-07T17:02:51.565Z</time></trkpt><trkpt lat="44.8008193" lon="11.7142519"><ele>2.0</ele><time>2026-04-07T17:02:52.562Z</time></trkpt><trkpt lat="44.8007711" lon="11.713996"><ele>2.6666666666666665</ele><time>2026-04-07T17:02:53.567Z</time></trkpt><trkpt lat="44.8007084" lon="11.7137651"><ele>3.333333333333333</ele><time>2026-04-07T17:02:54.56Z</time></trkpt><trkpt lat="44.8006221" lon="11.713536"><ele>4.0</ele><time>2026-04-07T17:02:55.563Z</time></trkpt><trkpt lat="44.8005267" lon="11.7133283"><ele>4.0</ele><time>2026-04-07T17:02:56.56Z</time></trkpt><trkpt lat="44.8004538" lon="11.7131657"><ele>4.0</ele><time>2026-04-07T17:02:57.557Z</time></trkpt><trkpt lat="44.8003729" lon="11.7130159"><ele>4.0</ele><time>2026-04-07T17:02:58.568Z</time></trkpt><trkpt lat="44.8002941" lon="11.712859"><ele>4.0</ele><time>2026-04-07T17:02:59.559Z</time></trkpt><trkpt lat="44.8002092" lon="11.7126817"><ele>4.0</ele><time>2026-04-07T17:03:00.586Z</time></trkpt><trkpt lat="44.8001196" lon="11.7124824"><ele>4.0</ele><time>2026-04-07T17:03:01.562Z</time></trkpt><trkpt lat="44.8000455" lon="11.712252"><ele>4.0</ele><time>2026-04-07T17:03:02.586Z</time></trkpt><trkpt lat="44.7999697" lon="11.7120583"><ele>3.6666666666666665</ele><time>2026-04-07T17:03:03.583Z</time></trkpt><trkpt lat="44.7998759" lon="11.7118387"><ele>3.333333333333333</ele><time>2026-04-07T17:03:04.586Z</time></trkpt><trkpt lat="44.7997729" lon="11.7115946"><ele>3.0</ele><time>2026-04-07T17:03:05.566Z</time></trkpt><trkpt lat="44.7996786" lon="11.7113444"><ele>3.0</ele><time>2026-04-07T17:03:06.562Z</time></trkpt><trkpt lat="44.7995701" lon="11.7111044"><ele>3.0</ele><time>2026-04-07T17:03:07.564Z</time></trkpt><trkpt lat="44.7994733" lon="11.7108876"><ele>3.0</ele><time>2026-04-07T17:03:08.562Z</time></trkpt><trkpt lat="44.7994117" lon="11.71068"><ele>2.6666666666666665</ele><time>2026-04-07T17:03:09.566Z</time></trkpt><trkpt lat="44.799341" lon="11.7104686"><ele>2.333333333333333</ele><time>2026-04-07T17:03:10.567Z</time></trkpt><trkpt lat="44.7992566" lon="11.710289"><ele>2.0</ele><time>2026-04-07T17:03:11.561Z</time></trkpt><trkpt lat="44.7991708" lon="11.7100799"><ele>2.0</ele><time>2026-04-07T17:03:12.571Z</time></trkpt><trkpt lat="44.7990831" lon="11.7099087"><ele>2.0</ele><time>2026-04-07T17:03:13.559Z</time></trkpt><trkpt lat="44.7989939" lon="11.7097736"><ele>2.0</ele><time>2026-04-07T17:03:14.566Z</time></trkpt><trkpt lat="44.7989096" lon="11.7096119"><ele>2.0</ele><time>2026-04-07T17:03:15.566Z</time></trkpt><trkpt lat="44.7988819" lon="11.7094278"><ele>2.25</ele><time>2026-04-07T17:03:16.573Z</time></trkpt><trkpt lat="44.7989077" lon="11.7092537"><ele>2.5</ele><time>2026-04-07T17:03:17.558Z</time></trkpt><trkpt lat="44.7989194" lon="11.7090718"><ele>2.75</ele><time>2026-04-07T17:03:18.585Z</time></trkpt><trkpt lat="44.7989188" lon="11.7088998"><ele>3.0</ele><time>2026-04-07T17:03:19.581Z</time></trkpt><trkpt lat="44.7988759" lon="11.7087404"><ele>3.0</ele><time>2026-04-07T17:03:20.563Z</time></trkpt><trkpt lat="44.7987957" lon="11.708616"><ele>3.0</ele><time>2026-04-07T17:03:21.554Z</time></trkpt><trkpt lat="44.7986944" lon="11.7085363"><ele>3.0</ele><time>2026-04-07T17:03:22.565Z</time></trkpt><trkpt lat="44.7985881" lon="11.7084977"><ele>3.0</ele><time>2026-04-07T17:03:23.566Z</time></trkpt><trkpt lat="44.7984659" lon="11.7084671"><ele>2.75</ele><time>2026-04-07T17:03:24.556Z</time></trkpt><trkpt lat="44.7983583" lon="11.7084124"><ele>2.5</ele><time>2026-04-07T17:03:25.557Z</time></trkpt><trkpt lat="44.7982542" lon="11.7083356"><ele>2.25</ele><time>2026-04-07T17:03:26.567Z</time></trkpt><trkpt lat="44.7981635" lon="11.7081907"><ele>2.0</ele><time>2026-04-07T17:03:27.56Z</time></trkpt><trkpt lat="44.7980708" lon="11.708008"><ele>2.0</ele><time>2026-04-07T17:03:28.573Z</time></trkpt><trkpt lat="44.7979568" lon="11.7077797"><ele>2.0</ele><time>2026-04-07T17:03:29.564Z</time></trkpt><trkpt lat="44.7978385" lon="11.7075653"><ele>2.0</ele><time>2026-04-07T17:03:30.561Z</time></trkpt><trkpt lat="44.7977251" lon="11.7073686"><ele>2.333333333333333</ele><time>2026-04-07T17:03:31.565Z</time></trkpt><trkpt lat="44.7976258" lon="11.7071515"><ele>2.6666666666666665</ele><time>2026-04-07T17:03:32.561Z</time></trkpt><trkpt lat="44.797533" lon="11.7069433"><ele>3.0</ele><time>2026-04-07T17:03:33.557Z</time></trkpt><trkpt lat="44.7974633" lon="11.7066827"><ele>3.0</ele><time>2026-04-07T17:03:34.562Z</time></trkpt><trkpt lat="44.797414" lon="11.7064302"><ele>3.0</ele><time>2026-04-07T17:03:35.561Z</time></trkpt><trkpt lat="44.7973603" lon="11.7061779"><ele>3.0</ele><time>2026-04-07T17:03:36.557Z</time></trkpt><trkpt lat="44.7973119" lon="11.7059019"><ele>3.0</ele><time>2026-04-07T17:03:37.569Z</time></trkpt><trkpt lat="44.7972819" lon="11.7056174"><ele>3.0</ele><time>2026-04-07T17:03:38.566Z</time></trkpt><trkpt lat="44.7972317" lon="11.7053295"><ele>3.0</ele><time>2026-04-07T17:03:39.562Z</time></trkpt><trkpt lat="44.797199" lon="11.7050119"><ele>3.333333333333333</ele><time>2026-04-07T17:03:40.562Z</time></trkpt><trkpt lat="44.7971502" lon="11.7047313"><ele>3.6666666666666665</ele><time>2026-04-07T17:03:41.561Z</time></trkpt><trkpt lat="44.7971049" lon="11.7044805"><ele>4.0</ele><time>2026-04-07T17:03:42.558Z</time></trkpt><trkpt lat="44.7970591" lon="11.7042555"><ele>3.333333333333333</ele><time>2026-04-07T17:03:43.553Z</time></trkpt><trkpt lat="44.7970251" lon="11.703973"><ele>2.6666666666666665</ele><time>2026-04-07T17:03:44.559Z</time></trkpt><trkpt lat="44.7969734" lon="11.7037647"><ele>2.0</ele><time>2026-04-07T17:03:45.561Z</time></trkpt><trkpt lat="44.7969204" lon="11.7035523"><ele>1.75</ele><time>2026-04-07T17:03:46.569Z</time></trkpt><trkpt lat="44.7968814" lon="11.703427"><ele>1.5</ele><time>2026-04-07T17:03:47.562Z</time></trkpt><trkpt lat="44.7968804" lon="11.7032998"><ele>1.25</ele><time>2026-04-07T17:03:48.567Z</time></trkpt><trkpt lat="44.7969126" lon="11.7031148"><ele>1.0</ele><time>2026-04-07T17:03:49.573Z</time></trkpt><trkpt lat="44.7969689" lon="11.7029454"><ele>1.0</ele><time>2026-04-07T17:03:50.554Z</time></trkpt><trkpt lat="44.797018" lon="11.702813"><ele>1.0</ele><time>2026-04-07T17:03:51.563Z</time></trkpt><trkpt lat="44.797014" lon="11.7026623"><ele>1.0</ele><time>2026-04-07T17:03:52.568Z</time></trkpt><trkpt lat="44.7969566" lon="11.7025277"><ele>1.0</ele><time>2026-04-07T17:03:53.576Z</time></trkpt><trkpt lat="44.7968736" lon="11.7024278"><ele>1.0</ele><time>2026-04-07T17:03:54.563Z</time></trkpt><trkpt lat="44.7967569" lon="11.7023898"><ele>1.5</ele><time>2026-04-07T17:03:55.573Z</time></trkpt><trkpt lat="44.7966358" lon="11.7024319"><ele>2.0</ele><time>2026-04-07T17:03:56.558Z</time></trkpt><trkpt lat="44.7965194" lon="11.7025153"><ele>2.5</ele><time>2026-04-07T17:03:57.604Z</time></trkpt><trkpt lat="44.7963997" lon="11.7026245"><ele>3.0</ele><time>2026-04-07T17:03:58.635Z</time></trkpt><trkpt lat="44.7962797" lon="11.7026935"><ele>3.0</ele><time>2026-04-07T17:03:59.584Z</time></trkpt><trkpt lat="44.7961585" lon="11.7027078"><ele>3.0</ele><time>2026-04-07T17:04:00.557Z</time></trkpt><trkpt lat="44.7960084" lon="11.7026883"><ele>3.0</ele><time>2026-04-07T17:04:01.558Z</time></trkpt><trkpt lat="44.7958426" lon="11.7026473"><ele>3.0</ele><time>2026-04-07T17:04:02.57Z</time></trkpt><trkpt lat="44.7956384" lon="11.7025861"><ele>3.666666666666667</ele><time>2026-04-07T17:04:03.582Z</time></trkpt><trkpt lat="44.7954468" lon="11.7025315"><ele>4.333333333333334</ele><time>2026-04-07T17:04:04.565Z</time></trkpt><trkpt lat="44.7952344" lon="11.7024781"><ele>5.0</ele><time>2026-04-07T17:04:05.554Z</time></trkpt><trkpt lat="44.7950438" lon="11.7024086"><ele>5.0</ele><time>2026-04-07T17:04:06.56Z</time></trkpt><trkpt lat="44.7948299" lon="11.7023926"><ele>5.0</ele><time>2026-04-07T17:04:07.56Z</time></trkpt><trkpt lat="44.7946052" lon="11.7023921"><ele>5.0</ele><time>2026-04-07T17:04:08.561Z</time></trkpt><trkpt lat="44.7944008" lon="11.7023728"><ele>4.5</ele><time>2026-04-07T17:04:09.561Z</time></trkpt><trkpt lat="44.7941724" lon="11.7023364"><ele>4.0</ele><time>2026-04-07T17:04:10.563Z</time></trkpt><trkpt lat="44.7939268" lon="11.7023078"><ele>4.0</ele><time>2026-04-07T17:04:11.559Z</time></trkpt><trkpt lat="44.7937177" lon="11.702296"><ele>4.0</ele><time>2026-04-07T17:04:12.562Z</time></trkpt><trkpt lat="44.7935442" lon="11.7022907"><ele>4.0</ele><time>2026-04-07T17:04:13.562Z</time></trkpt><trkpt lat="44.7933563" lon="11.7022708"><ele>3.6666666666666665</ele><time>2026-04-07T17:04:14.559Z</time></trkpt><trkpt lat="44.7931597" lon="11.7022588"><ele>3.333333333333333</ele><time>2026-04-07T17:04:15.564Z</time></trkpt><trkpt lat="44.7929829" lon="11.7022523"><ele>3.0</ele><time>2026-04-07T17:04:16.562Z</time></trkpt><trkpt lat="44.7928302" lon="11.7022626"><ele>3.0</ele><time>2026-04-07T17:04:17.559Z</time></trkpt><trkpt lat="44.7927083" lon="11.7022649"><ele>3.0</ele><time>2026-04-07T17:04:18.566Z</time></trkpt><trkpt lat="44.7926052" lon="11.7022506"><ele>3.0</ele><time>2026-04-07T17:04:19.568Z</time></trkpt><trkpt lat="44.7924961" lon="11.7021589"><ele>3.0</ele><time>2026-04-07T17:04:21.568Z</time></trkpt><trkpt lat="44.7924637" lon="11.7020489"><ele>3.0</ele><time>2026-04-07T17:04:22.551Z</time></trkpt><trkpt lat="44.7924084" lon="11.7018773"><ele>3.4</ele><time>2026-04-07T17:04:23.576Z</time></trkpt><trkpt lat="44.7923629" lon="11.7016881"><ele>3.8</ele><time>2026-04-07T17:04:24.552Z</time></trkpt><trkpt lat="44.7923095" lon="11.7015675"><ele>4.2</ele><time>2026-04-07T17:04:25.544Z</time></trkpt><trkpt lat="44.7922379" lon="11.7014697"><ele>4.6</ele><time>2026-04-07T17:04:26.556Z</time></trkpt><trkpt lat="44.7921466" lon="11.7014429"><ele>5.0</ele><time>2026-04-07T17:04:27.553Z</time></trkpt><trkpt lat="44.7920643" lon="11.7014917"><ele>5.0</ele><time>2026-04-07T17:04:28.561Z</time></trkpt><trkpt lat="44.7919713" lon="11.7015776"><ele>5.0</ele><time>2026-04-07T17:04:29.549Z</time></trkpt><trkpt lat="44.7918995" lon="11.7017266"><ele>5.0</ele><time>2026-04-07T17:04:30.551Z</time></trkpt><trkpt lat="44.7918262" lon="11.7019076"><ele>5.0</ele><time>2026-04-07T17:04:31.554Z</time></trkpt><trkpt lat="44.7917481" lon="11.7020556"><ele>4.25</ele><time>2026-04-07T17:04:32.553Z</time></trkpt><trkpt lat="44.7916349" lon="11.7021336"><ele>3.5</ele><time>2026-04-07T17:04:33.561Z</time></trkpt><trkpt lat="44.7915012" lon="11.7021671"><ele>2.75</ele><time>2026-04-07T17:04:34.56Z</time></trkpt><trkpt lat="44.7913685" lon="11.7021807"><ele>2.0</ele><time>2026-04-07T17:04:35.56Z</time></trkpt><trkpt lat="44.7912144" lon="11.7021821"><ele>2.0</ele><time>2026-04-07T17:04:36.56Z</time></trkpt><trkpt lat="44.7910143" lon="11.7021657"><ele>2.0</ele><time>2026-04-07T17:04:37.557Z</time></trkpt><trkpt lat="44.790829" lon="11.7021742"><ele>2.0</ele><time>2026-04-07T17:04:38.562Z</time></trkpt><trkpt lat="44.790624" lon="11.7021555"><ele>1.6666666666666665</ele><time>2026-04-07T17:04:39.552Z</time></trkpt><trkpt lat="44.7904347" lon="11.7020948"><ele>1.3333333333333333</ele><time>2026-04-07T17:04:40.556Z</time></trkpt><trkpt lat="44.7902408" lon="11.7020052"><ele>1.0</ele><time>2026-04-07T17:04:41.556Z</time></trkpt><trkpt lat="44.7900339" lon="11.7019317"><ele>1.0</ele><time>2026-04-07T17:04:42.555Z</time></trkpt><trkpt lat="44.7898258" lon="11.7018652"><ele>1.0</ele><time>2026-04-07T17:04:43.554Z</time></trkpt><trkpt lat="44.7896141" lon="11.7017896"><ele>1.0</ele><time>2026-04-07T17:04:44.554Z</time></trkpt><trkpt lat="44.7893756" lon="11.7016906"><ele>0.5</ele><time>2026-04-07T17:04:45.558Z</time></trkpt><trkpt lat="44.789138" lon="11.7016136"><ele>0.0</ele><time>2026-04-07T17:04:46.556Z</time></trkpt><trkpt lat="44.7889241" lon="11.7015568"><ele>0.0</ele><time>2026-04-07T17:04:47.557Z</time></trkpt><trkpt lat="44.7887136" lon="11.701479"><ele>0.0</ele><time>2026-04-07T17:04:48.557Z</time></trkpt><trkpt lat="44.788508" lon="11.7013964"><ele>0.0</ele><time>2026-04-07T17:04:49.556Z</time></trkpt><trkpt lat="44.7883046" lon="11.7013282"><ele>1.0</ele><time>2026-04-07T17:04:50.56Z</time></trkpt><trkpt lat="44.7880935" lon="11.7012583"><ele>2.0</ele><time>2026-04-07T17:04:51.582Z</time></trkpt><trkpt lat="44.7878696" lon="11.7011962"><ele>3.0</ele><time>2026-04-07T17:04:52.553Z</time></trkpt><trkpt lat="44.7876528" lon="11.7011288"><ele>3.0</ele><time>2026-04-07T17:04:53.565Z</time></trkpt><trkpt lat="44.787441" lon="11.7010699"><ele>3.0</ele><time>2026-04-07T17:04:54.553Z</time></trkpt><trkpt lat="44.7872273" lon="11.7009921"><ele>3.0</ele><time>2026-04-07T17:04:55.563Z</time></trkpt><trkpt lat="44.7870417" lon="11.7008934"><ele>3.0</ele><time>2026-04-07T17:04:56.551Z</time></trkpt><trkpt lat="44.7868793" lon="11.7008287"><ele>3.0</ele><time>2026-04-07T17:04:57.557Z</time></trkpt><trkpt lat="44.7867034" lon="11.7007655"><ele>3.0</ele><time>2026-04-07T17:04:58.559Z</time></trkpt><trkpt lat="44.786542" lon="11.7007279"><ele>2.6666666666666665</ele><time>2026-04-07T17:04:59.547Z</time></trkpt><trkpt lat="44.7863628" lon="11.7006698"><ele>2.333333333333333</ele><time>2026-04-07T17:05:00.55Z</time></trkpt><trkpt lat="44.7861665" lon="11.7006295"><ele>2.0</ele><time>2026-04-07T17:05:01.548Z</time></trkpt><trkpt lat="44.785957" lon="11.7006232"><ele>2.0</ele><time>2026-04-07T17:05:02.552Z</time></trkpt><trkpt lat="44.7857402" lon="11.7006093"><ele>2.0</ele><time>2026-04-07T17:05:03.555Z</time></trkpt><trkpt lat="44.7855581" lon="11.70062"><ele>2.0</ele><time>2026-04-07T17:05:04.556Z</time></trkpt><trkpt lat="44.7853814" lon="11.7006268"><ele>2.0</ele><time>2026-04-07T17:05:05.549Z</time></trkpt><trkpt lat="44.7852223" lon="11.7006442"><ele>2.0</ele><time>2026-04-07T17:05:06.551Z</time></trkpt><trkpt lat="44.7851012" lon="11.7006776"><ele>2.0</ele><time>2026-04-07T17:05:07.552Z</time></trkpt><trkpt lat="44.7850041" lon="11.7006739"><ele>2.0</ele><time>2026-04-07T17:05:08.546Z</time></trkpt><trkpt lat="44.7849435" lon="11.7006357"><ele>2.0</ele><time>2026-04-07T17:05:09.548Z</time></trkpt><trkpt lat="44.7848603" lon="11.7005627"><ele>1.75</ele><time>2026-04-07T17:05:10.548Z</time></trkpt><trkpt lat="44.7847807" lon="11.700457"><ele>1.5</ele><time>2026-04-07T17:05:11.549Z</time></trkpt><trkpt lat="44.7846986" lon="11.7003318"><ele>1.25</ele><time>2026-04-07T17:05:12.555Z</time></trkpt><trkpt lat="44.7846101" lon="11.7002036"><ele>1.0</ele><time>2026-04-07T17:05:13.553Z</time></trkpt><trkpt lat="44.7845151" lon="11.700083"><ele>0.75</ele><time>2026-04-07T17:05:14.545Z</time></trkpt><trkpt lat="44.7844124" lon="11.699948"><ele>0.5</ele><time>2026-04-07T17:05:15.559Z</time></trkpt><trkpt lat="44.7843038" lon="11.6998036"><ele>0.25</ele><time>2026-04-07T17:05:16.561Z</time></trkpt><trkpt lat="44.7841924" lon="11.6996461"><ele>0.0</ele><time>2026-04-07T17:05:17.554Z</time></trkpt><trkpt lat="44.784061" lon="11.6994841"><ele>-0.3333333333333333</ele><time>2026-04-07T17:05:18.584Z</time></trkpt><trkpt lat="44.783929" lon="11.6993213"><ele>-0.6666666666666666</ele><time>2026-04-07T17:05:19.588Z</time></trkpt><trkpt lat="44.7838012" lon="11.6991698"><ele>-1.0</ele><time>2026-04-07T17:05:20.554Z</time></trkpt><trkpt lat="44.783665" lon="11.6989871"><ele>-1.0</ele><time>2026-04-07T17:05:21.562Z</time></trkpt><trkpt lat="44.7835203" lon="11.6987969"><ele>-1.0</ele><time>2026-04-07T17:05:22.564Z</time></trkpt><trkpt lat="44.7833714" lon="11.6986157"><ele>-1.0</ele><time>2026-04-07T17:05:23.563Z</time></trkpt><trkpt lat="44.7832091" lon="11.6984268"><ele>-0.3333333333333333</ele><time>2026-04-07T17:05:24.582Z</time></trkpt><trkpt lat="44.7830454" lon="11.6982288"><ele>0.3333333333333333</ele><time>2026-04-07T17:05:25.561Z</time></trkpt><trkpt lat="44.7828889" lon="11.6980428"><ele>1.0</ele><time>2026-04-07T17:05:26.566Z</time></trkpt><trkpt lat="44.7827248" lon="11.6978423"><ele>1.0</ele><time>2026-04-07T17:05:27.563Z</time></trkpt><trkpt lat="44.7825606" lon="11.6976322"><ele>1.0</ele><time>2026-04-07T17:05:28.565Z</time></trkpt><trkpt lat="44.782387" lon="11.6974215"><ele>1.0</ele><time>2026-04-07T17:05:29.557Z</time></trkpt><trkpt lat="44.782226" lon="11.6972232"><ele>1.0</ele><time>2026-04-07T17:05:30.565Z</time></trkpt><trkpt lat="44.7820756" lon="11.6970421"><ele>1.0</ele><time>2026-04-07T17:05:31.558Z</time></trkpt><trkpt lat="44.7819122" lon="11.6968605"><ele>1.0</ele><time>2026-04-07T17:05:32.561Z</time></trkpt><trkpt lat="44.7817495" lon="11.696669"><ele>1.0</ele><time>2026-04-07T17:05:33.562Z</time></trkpt><trkpt lat="44.781579" lon="11.6964604"><ele>1.0</ele><time>2026-04-07T17:05:34.564Z</time></trkpt><trkpt lat="44.7814061" lon="11.6962381"><ele>0.5</ele><time>2026-04-07T17:05:35.557Z</time></trkpt><trkpt lat="44.7812393" lon="11.6960317"><ele>0.0</ele><time>2026-04-07T17:05:36.563Z</time></trkpt><trkpt lat="44.7810636" lon="11.6958083"><ele>0.5</ele><time>2026-04-07T17:05:37.562Z</time></trkpt><trkpt lat="44.7808968" lon="11.6955986"><ele>1.0</ele><time>2026-04-07T17:05:38.558Z</time></trkpt><trkpt lat="44.7807234" lon="11.6953823"><ele>1.3333333333333333</ele><time>2026-04-07T17:05:39.565Z</time></trkpt><trkpt lat="44.7805728" lon="11.6951851"><ele>1.6666666666666665</ele><time>2026-04-07T17:05:40.559Z</time></trkpt><trkpt lat="44.7804317" lon="11.695016"><ele>2.0</ele><time>2026-04-07T17:05:41.56Z</time></trkpt><trkpt lat="44.7803074" lon="11.6948714"><ele>2.0</ele><time>2026-04-07T17:05:42.581Z</time></trkpt><trkpt lat="44.7801781" lon="11.6947173"><ele>2.0</ele><time>2026-04-07T17:05:43.555Z</time></trkpt><trkpt lat="44.7800546" lon="11.6945621"><ele>2.0</ele><time>2026-04-07T17:05:44.556Z</time></trkpt><trkpt lat="44.7799468" lon="11.6944234"><ele>2.0</ele><time>2026-04-07T17:05:45.557Z</time></trkpt><trkpt lat="44.7798413" lon="11.6942919"><ele>2.0</ele><time>2026-04-07T17:05:46.559Z</time></trkpt><trkpt lat="44.7797428" lon="11.6941601"><ele>2.0</ele><time>2026-04-07T17:05:47.552Z</time></trkpt><trkpt lat="44.7796624" lon="11.6939846"><ele>2.0</ele><time>2026-04-07T17:05:48.563Z</time></trkpt><trkpt lat="44.7795925" lon="11.693757"><ele>1.75</ele><time>2026-04-07T17:05:49.56Z</time></trkpt><trkpt lat="44.7795437" lon="11.6935427"><ele>1.5</ele><time>2026-04-07T17:05:50.561Z</time></trkpt><trkpt lat="44.7794822" lon="11.6933907"><ele>1.25</ele><time>2026-04-07T17:05:51.562Z</time></trkpt><trkpt lat="44.7794259" lon="11.6932423"><ele>1.0</ele><time>2026-04-07T17:05:52.554Z</time></trkpt><trkpt lat="44.7793614" lon="11.6930814"><ele>1.0</ele><time>2026-04-07T17:05:53.569Z</time></trkpt><trkpt lat="44.7792874" lon="11.6930034"><ele>1.0</ele><time>2026-04-07T17:05:54.555Z</time></trkpt><trkpt lat="44.7791976" lon="11.6928782"><ele>1.0</ele><time>2026-04-07T17:05:55.552Z</time></trkpt><trkpt lat="44.7791345" lon="11.6927345"><ele>1.0</ele><time>2026-04-07T17:05:56.566Z</time></trkpt><trkpt lat="44.7791165" lon="11.6925622"><ele>1.0</ele><time>2026-04-07T17:05:57.549Z</time></trkpt><trkpt lat="44.7791133" lon="11.6923546"><ele>1.0</ele><time>2026-04-07T17:05:58.558Z</time></trkpt><trkpt lat="44.7791164" lon="11.692091"><ele>1.0</ele><time>2026-04-07T17:05:59.543Z</time></trkpt><trkpt lat="44.7791277" lon="11.691817"><ele>1.0</ele><time>2026-04-07T17:06:00.571Z</time></trkpt><trkpt lat="44.779142" lon="11.6915442"><ele>1.0</ele><time>2026-04-07T17:06:01.552Z</time></trkpt><trkpt lat="44.7791295" lon="11.6912581"><ele>1.0</ele><time>2026-04-07T17:06:02.562Z</time></trkpt><trkpt lat="44.7791147" lon="11.6909811"><ele>1.0</ele><time>2026-04-07T17:06:03.556Z</time></trkpt><trkpt lat="44.7791022" lon="11.6906959"><ele>1.0</ele><time>2026-04-07T17:06:04.564Z</time></trkpt><trkpt lat="44.7790745" lon="11.6903733"><ele>1.0</ele><time>2026-04-07T17:06:05.555Z</time></trkpt><trkpt lat="44.7790523" lon="11.6900247"><ele>1.0</ele><time>2026-04-07T17:06:06.562Z</time></trkpt><trkpt lat="44.7790332" lon="11.6896867"><ele>1.0</ele><time>2026-04-07T17:06:07.561Z</time></trkpt><trkpt lat="44.7790194" lon="11.6893851"><ele>0.6666666666666666</ele><time>2026-04-07T17:06:08.562Z</time></trkpt><trkpt lat="44.7790181" lon="11.6891225"><ele>0.3333333333333333</ele><time>2026-04-07T17:06:09.554Z</time></trkpt><trkpt lat="44.7790058" lon="11.68885"><ele>0.0</ele><time>2026-04-07T17:06:10.56Z</time></trkpt><trkpt lat="44.7789952" lon="11.6885513"><ele>0.0</ele><time>2026-04-07T17:06:11.557Z</time></trkpt><trkpt lat="44.7789817" lon="11.688273"><ele>0.0</ele><time>2026-04-07T17:06:12.561Z</time></trkpt><trkpt lat="44.7789392" lon="11.6880057"><ele>0.0</ele><time>2026-04-07T17:06:13.558Z</time></trkpt><trkpt lat="44.778905" lon="11.6877297"><ele>0.3333333333333333</ele><time>2026-04-07T17:06:14.56Z</time></trkpt><trkpt lat="44.7788512" lon="11.6874553"><ele>0.6666666666666666</ele><time>2026-04-07T17:06:15.555Z</time></trkpt><trkpt lat="44.7787815" lon="11.6871809"><ele>1.0</ele><time>2026-04-07T17:06:16.566Z</time></trkpt><trkpt lat="44.7787093" lon="11.6869345"><ele>1.0</ele><time>2026-04-07T17:06:17.555Z</time></trkpt><trkpt lat="44.7786171" lon="11.6866673"><ele>1.0</ele><time>2026-04-07T17:06:18.587Z</time></trkpt><trkpt lat="44.7785292" lon="11.6863938"><ele>1.0</ele><time>2026-04-07T17:06:19.56Z</time></trkpt><trkpt lat="44.7784376" lon="11.6861129"><ele>1.3333333333333333</ele><time>2026-04-07T17:06:20.562Z</time></trkpt><trkpt lat="44.7783478" lon="11.6858437"><ele>1.6666666666666665</ele><time>2026-04-07T17:06:21.563Z</time></trkpt><trkpt lat="44.7782761" lon="11.6855583"><ele>2.0</ele><time>2026-04-07T17:06:22.557Z</time></trkpt><trkpt lat="44.7782359" lon="11.6852866"><ele>2.0</ele><time>2026-04-07T17:06:23.562Z</time></trkpt><trkpt lat="44.7782078" lon="11.6849979"><ele>2.0</ele><time>2026-04-07T17:06:24.556Z</time></trkpt><trkpt lat="44.7781862" lon="11.6846749"><ele>2.0</ele><time>2026-04-07T17:06:25.553Z</time></trkpt><trkpt lat="44.7781509" lon="11.6843517"><ele>1.5</ele><time>2026-04-07T17:06:26.565Z</time></trkpt><trkpt lat="44.7780945" lon="11.6840263"><ele>1.0</ele><time>2026-04-07T17:06:27.561Z</time></trkpt><trkpt lat="44.7780208" lon="11.6837364"><ele>1.0</ele><time>2026-04-07T17:06:28.573Z</time></trkpt><trkpt lat="44.7779504" lon="11.6834383"><ele>1.0</ele><time>2026-04-07T17:06:29.559Z</time></trkpt><trkpt lat="44.7778925" lon="11.6831442"><ele>1.0</ele><time>2026-04-07T17:06:30.567Z</time></trkpt><trkpt lat="44.7778298" lon="11.6828716"><ele>1.0</ele><time>2026-04-07T17:06:31.554Z</time></trkpt><trkpt lat="44.7777589" lon="11.6825726"><ele>1.0</ele><time>2026-04-07T17:06:32.559Z</time></trkpt><trkpt lat="44.7776738" lon="11.6822727"><ele>0.5</ele><time>2026-04-07T17:06:33.568Z</time></trkpt><trkpt lat="44.7775806" lon="11.6819786"><ele>0.0</ele><time>2026-04-07T17:06:34.562Z</time></trkpt><trkpt lat="44.7774725" lon="11.6816783"><ele>0.0</ele><time>2026-04-07T17:06:35.566Z</time></trkpt><trkpt lat="44.7773737" lon="11.6813966"><ele>0.0</ele><time>2026-04-07T17:06:36.564Z</time></trkpt><trkpt lat="44.7772807" lon="11.6811333"><ele>0.0</ele><time>2026-04-07T17:06:37.562Z</time></trkpt><trkpt lat="44.7771843" lon="11.6808836"><ele>-0.3333333333333333</ele><time>2026-04-07T17:06:38.566Z</time></trkpt><trkpt lat="44.7771187" lon="11.6806574"><ele>-0.6666666666666666</ele><time>2026-04-07T17:06:39.564Z</time></trkpt><trkpt lat="44.7770645" lon="11.6803663"><ele>-1.0</ele><time>2026-04-07T17:06:40.563Z</time></trkpt><trkpt lat="44.7770369" lon="11.6800708"><ele>-1.0</ele><time>2026-04-07T17:06:41.565Z</time></trkpt><trkpt lat="44.7770281" lon="11.6797814"><ele>-1.0</ele><time>2026-04-07T17:06:42.558Z</time></trkpt><trkpt lat="44.7770156" lon="11.6795521"><ele>-1.0</ele><time>2026-04-07T17:06:43.565Z</time></trkpt><trkpt lat="44.777009" lon="11.6793089"><ele>-1.0</ele><time>2026-04-07T17:06:44.558Z</time></trkpt><trkpt lat="44.777016" lon="11.6790339"><ele>-1.0</ele><time>2026-04-07T17:06:45.587Z</time></trkpt><trkpt lat="44.7769998" lon="11.6787652"><ele>-1.0</ele><time>2026-04-07T17:06:46.562Z</time></trkpt><trkpt lat="44.776974" lon="11.67848"><ele>-0.6666666666666666</ele><time>2026-04-07T17:06:47.561Z</time></trkpt><trkpt lat="44.7769293" lon="11.6781894"><ele>-0.3333333333333333</ele><time>2026-04-07T17:06:48.564Z</time></trkpt><trkpt lat="44.7768793" lon="11.6778715"><ele>0.0</ele><time>2026-04-07T17:06:49.568Z</time></trkpt><trkpt lat="44.776822" lon="11.6775777"><ele>0.0</ele><time>2026-04-07T17:06:50.562Z</time></trkpt><trkpt lat="44.776791" lon="11.677286"><ele>0.0</ele><time>2026-04-07T17:06:51.564Z</time></trkpt><trkpt lat="44.7767576" lon="11.6770193"><ele>0.0</ele><time>2026-04-07T17:06:52.59Z</time></trkpt><trkpt lat="44.7767216" lon="11.6767665"><ele>0.0</ele><time>2026-04-07T17:06:53.564Z</time></trkpt><trkpt lat="44.7767007" lon="11.6764923"><ele>0.0</ele><time>2026-04-07T17:06:54.561Z</time></trkpt><trkpt lat="44.7766678" lon="11.6762468"><ele>0.0</ele><time>2026-04-07T17:06:55.598Z</time></trkpt><trkpt lat="44.7766262" lon="11.6760054"><ele>0.3333333333333333</ele><time>2026-04-07T17:06:56.56Z</time></trkpt><trkpt lat="44.7765921" lon="11.6757532"><ele>0.6666666666666666</ele><time>2026-04-07T17:06:57.569Z</time></trkpt><trkpt lat="44.7765558" lon="11.675497"><ele>1.0</ele><time>2026-04-07T17:06:58.56Z</time></trkpt><trkpt lat="44.776528" lon="11.6752419"><ele>1.0</ele><time>2026-04-07T17:06:59.567Z</time></trkpt><trkpt lat="44.7765017" lon="11.6750042"><ele>1.0</ele><time>2026-04-07T17:07:00.562Z</time></trkpt><trkpt lat="44.7765037" lon="11.6747833"><ele>1.0</ele><time>2026-04-07T17:07:01.559Z</time></trkpt><trkpt lat="44.7764636" lon="11.674541"><ele>1.0</ele><time>2026-04-07T17:07:02.564Z</time></trkpt><trkpt lat="44.7764367" lon="11.6743218"><ele>1.0</ele><time>2026-04-07T17:07:03.589Z</time></trkpt><trkpt lat="44.7764302" lon="11.6741302"><ele>1.0</ele><time>2026-04-07T17:07:04.558Z</time></trkpt><trkpt lat="44.7764239" lon="11.6739591"><ele>1.0</ele><time>2026-04-07T17:07:05.555Z</time></trkpt><trkpt lat="44.7764243" lon="11.6737642"><ele>1.6666666666666665</ele><time>2026-04-07T17:07:06.561Z</time></trkpt><trkpt lat="44.7764325" lon="11.673561"><ele>2.3333333333333335</ele><time>2026-04-07T17:07:07.564Z</time></trkpt><trkpt lat="44.7764453" lon="11.6733381"><ele>3.0</ele><time>2026-04-07T17:07:08.563Z</time></trkpt><trkpt lat="44.7764394" lon="11.6730819"><ele>3.0</ele><time>2026-04-07T17:07:09.568Z</time></trkpt><trkpt lat="44.7764201" lon="11.6728069"><ele>3.0</ele><time>2026-04-07T17:07:10.566Z</time></trkpt><trkpt lat="44.7763877" lon="11.6725307"><ele>3.0</ele><time>2026-04-07T17:07:11.567Z</time></trkpt><trkpt lat="44.7763583" lon="11.6722377"><ele>3.0</ele><time>2026-04-07T17:07:12.562Z</time></trkpt><trkpt lat="44.776319" lon="11.6719225"><ele>3.0</ele><time>2026-04-07T17:07:13.561Z</time></trkpt><trkpt lat="44.7762788" lon="11.6715876"><ele>3.0</ele><time>2026-04-07T17:07:14.586Z</time></trkpt><trkpt lat="44.7762572" lon="11.6712564"><ele>3.0</ele><time>2026-04-07T17:07:15.565Z</time></trkpt><trkpt lat="44.7762053" lon="11.6709268"><ele>4.0</ele><time>2026-04-07T17:07:16.56Z</time></trkpt><trkpt lat="44.7761549" lon="11.6705935"><ele>5.0</ele><time>2026-04-07T17:07:17.568Z</time></trkpt><trkpt lat="44.7761097" lon="11.6702628"><ele>5.5</ele><time>2026-04-07T17:07:18.566Z</time></trkpt><trkpt lat="44.776065" lon="11.6699294"><ele>6.0</ele><time>2026-04-07T17:07:19.567Z</time></trkpt><trkpt lat="44.7760297" lon="11.6696249"><ele>5.0</ele><time>2026-04-07T17:07:20.564Z</time></trkpt><trkpt lat="44.7759867" lon="11.6693413"><ele>4.0</ele><time>2026-04-07T17:07:21.565Z</time></trkpt><trkpt lat="44.775954" lon="11.6690712"><ele>3.0</ele><time>2026-04-07T17:07:22.562Z</time></trkpt><trkpt lat="44.7759356" lon="11.668825"><ele>3.0</ele><time>2026-04-07T17:07:23.569Z</time></trkpt><trkpt lat="44.7759253" lon="11.6685602"><ele>3.0</ele><time>2026-04-07T17:07:24.562Z</time></trkpt><trkpt lat="44.7758929" lon="11.6683125"><ele>3.0</ele><time>2026-04-07T17:07:25.561Z</time></trkpt><trkpt lat="44.7758723" lon="11.6680843"><ele>3.0</ele><time>2026-04-07T17:07:26.559Z</time></trkpt><trkpt lat="44.7758526" lon="11.6678522"><ele>3.0</ele><time>2026-04-07T17:07:27.559Z</time></trkpt><trkpt lat="44.7758142" lon="11.6676007"><ele>3.0</ele><time>2026-04-07T17:07:28.562Z</time></trkpt><trkpt lat="44.7757682" lon="11.6673518"><ele>2.6666666666666665</ele><time>2026-04-07T17:07:29.568Z</time></trkpt><trkpt lat="44.7757409" lon="11.6671055"><ele>2.333333333333333</ele><time>2026-04-07T17:07:30.568Z</time></trkpt><trkpt lat="44.7757147" lon="11.6668736"><ele>2.0</ele><time>2026-04-07T17:07:31.588Z</time></trkpt><trkpt lat="44.7756882" lon="11.6666174"><ele>2.0</ele><time>2026-04-07T17:07:32.562Z</time></trkpt><trkpt lat="44.7756741" lon="11.6663278"><ele>2.0</ele><time>2026-04-07T17:07:33.569Z</time></trkpt><trkpt lat="44.7756434" lon="11.6660525"><ele>2.0</ele><time>2026-04-07T17:07:34.562Z</time></trkpt><trkpt lat="44.77563" lon="11.6657898"><ele>2.0</ele><time>2026-04-07T17:07:35.569Z</time></trkpt><trkpt lat="44.7756071" lon="11.6655447"><ele>2.0</ele><time>2026-04-07T17:07:36.56Z</time></trkpt><trkpt lat="44.7755798" lon="11.6653006"><ele>2.0</ele><time>2026-04-07T17:07:37.568Z</time></trkpt><trkpt lat="44.7755444" lon="11.6650314"><ele>2.0</ele><time>2026-04-07T17:07:38.557Z</time></trkpt><trkpt lat="44.7754952" lon="11.6647377"><ele>2.0</ele><time>2026-04-07T17:07:39.554Z</time></trkpt><trkpt lat="44.7754593" lon="11.6644258"><ele>2.0</ele><time>2026-04-07T17:07:40.558Z</time></trkpt><trkpt lat="44.7754196" lon="11.6641084"><ele>2.0</ele><time>2026-04-07T17:07:41.553Z</time></trkpt><trkpt lat="44.7753938" lon="11.6638371"><ele>2.0</ele><time>2026-04-07T17:07:42.555Z</time></trkpt><trkpt lat="44.7753697" lon="11.6635937"><ele>2.0</ele><time>2026-04-07T17:07:43.558Z</time></trkpt><trkpt lat="44.7753288" lon="11.6633411"><ele>2.0</ele><time>2026-04-07T17:07:44.561Z</time></trkpt><trkpt lat="44.7752869" lon="11.6630952"><ele>2.0</ele><time>2026-04-07T17:07:45.559Z</time></trkpt><trkpt lat="44.7752543" lon="11.66285"><ele>2.0</ele><time>2026-04-07T17:07:46.563Z</time></trkpt><trkpt lat="44.7752168" lon="11.6626249"><ele>2.333333333333333</ele><time>2026-04-07T17:07:47.557Z</time></trkpt><trkpt lat="44.7751746" lon="11.6623878"><ele>2.6666666666666665</ele><time>2026-04-07T17:07:48.553Z</time></trkpt><trkpt lat="44.7751309" lon="11.6621647"><ele>3.0</ele><time>2026-04-07T17:07:49.569Z</time></trkpt><trkpt lat="44.7750655" lon="11.6619527"><ele>3.333333333333333</ele><time>2026-04-07T17:07:50.564Z</time></trkpt><trkpt lat="44.7750042" lon="11.6617347"><ele>3.6666666666666665</ele><time>2026-04-07T17:07:51.562Z</time></trkpt><trkpt lat="44.7749368" lon="11.6615287"><ele>4.0</ele><time>2026-04-07T17:07:52.567Z</time></trkpt><trkpt lat="44.7748746" lon="11.6613429"><ele>4.0</ele><time>2026-04-07T17:07:53.563Z</time></trkpt><trkpt lat="44.7748244" lon="11.6611493"><ele>4.0</ele><time>2026-04-07T17:07:54.568Z</time></trkpt><trkpt lat="44.7747791" lon="11.6609417"><ele>4.0</ele><time>2026-04-07T17:07:55.561Z</time></trkpt><trkpt lat="44.7747394" lon="11.6607398"><ele>4.0</ele><time>2026-04-07T17:07:56.562Z</time></trkpt><trkpt lat="44.7746783" lon="11.6605614"><ele>4.0</ele><time>2026-04-07T17:07:57.565Z</time></trkpt><trkpt lat="44.774625" lon="11.6603861"><ele>4.0</ele><time>2026-04-07T17:07:58.561Z</time></trkpt><trkpt lat="44.7745934" lon="11.6602051"><ele>4.0</ele><time>2026-04-07T17:07:59.563Z</time></trkpt><trkpt lat="44.7745385" lon="11.6600381"><ele>4.0</ele><time>2026-04-07T17:08:00.571Z</time></trkpt><trkpt lat="44.7744776" lon="11.6598825"><ele>4.0</ele><time>2026-04-07T17:08:01.563Z</time></trkpt><trkpt lat="44.7744011" lon="11.659707"><ele>4.0</ele><time>2026-04-07T17:08:02.563Z</time></trkpt><trkpt lat="44.7743249" lon="11.6595169"><ele>4.0</ele><time>2026-04-07T17:08:03.565Z</time></trkpt><trkpt lat="44.7742665" lon="11.6592975"><ele>4.0</ele><time>2026-04-07T17:08:04.567Z</time></trkpt><trkpt lat="44.7742051" lon="11.6590752"><ele>4.0</ele><time>2026-04-07T17:08:05.563Z</time></trkpt><trkpt lat="44.7741678" lon="11.6589078"><ele>4.0</ele><time>2026-04-07T17:08:06.558Z</time></trkpt><trkpt lat="44.7741198" lon="11.6587087"><ele>4.0</ele><time>2026-04-07T17:08:07.55Z</time></trkpt><trkpt lat="44.7740883" lon="11.6585101"><ele>4.333333333333333</ele><time>2026-04-07T17:08:08.558Z</time></trkpt><trkpt lat="44.7740858" lon="11.6583782"><ele>4.666666666666666</ele><time>2026-04-07T17:08:09.551Z</time></trkpt><trkpt lat="44.7740669" lon="11.6582511"><ele>5.0</ele><time>2026-04-07T17:08:10.557Z</time></trkpt><trkpt lat="44.7740523" lon="11.6581179"><ele>5.333333333333333</ele><time>2026-04-07T17:08:11.554Z</time></trkpt><trkpt lat="44.7740472" lon="11.6580125"><ele>5.666666666666667</ele><time>2026-04-07T17:08:12.557Z</time></trkpt><trkpt lat="44.7740437" lon="11.6579095"><ele>6.0</ele><time>2026-04-07T17:08:13.551Z</time></trkpt><trkpt lat="44.7740563" lon="11.6577707"><ele>6.0</ele><time>2026-04-07T17:08:15.558Z</time></trkpt><trkpt lat="44.7740731" lon="11.6576312"><ele>6.0</ele><time>2026-04-07T17:08:17.552Z</time></trkpt><trkpt lat="44.7740583" lon="11.6574497"><ele>6.0</ele><time>2026-04-07T17:08:19.552Z</time></trkpt><trkpt lat="44.7740402" lon="11.6573566"><ele>6.0</ele><time>2026-04-07T17:08:20.559Z</time></trkpt><trkpt lat="44.7739895" lon="11.6572919"><ele>6.0</ele><time>2026-04-07T17:08:21.551Z</time></trkpt><trkpt lat="44.7739142" lon="11.6572479"><ele>6.0</ele><time>2026-04-07T17:08:22.554Z</time></trkpt><trkpt lat="44.7737992" lon="11.6572247"><ele>6.0</ele><time>2026-04-07T17:08:23.555Z</time></trkpt><trkpt lat="44.7736794" lon="11.6571946"><ele>6.0</ele><time>2026-04-07T17:08:24.549Z</time></trkpt><trkpt lat="44.7735543" lon="11.6571554"><ele>6.0</ele><time>2026-04-07T17:08:25.556Z</time></trkpt><trkpt lat="44.7734247" lon="11.6571192"><ele>6.0</ele><time>2026-04-07T17:08:26.552Z</time></trkpt><trkpt lat="44.7732902" lon="11.6570823"><ele>5.5</ele><time>2026-04-07T17:08:27.556Z</time></trkpt><trkpt lat="44.7731566" lon="11.6570397"><ele>5.0</ele><time>2026-04-07T17:08:28.555Z</time></trkpt><trkpt lat="44.773026" lon="11.6569861"><ele>4.5</ele><time>2026-04-07T17:08:29.555Z</time></trkpt><trkpt lat="44.7729027" lon="11.6569301"><ele>4.0</ele><time>2026-04-07T17:08:30.556Z</time></trkpt><trkpt lat="44.7727734" lon="11.6568714"><ele>4.0</ele><time>2026-04-07T17:08:31.556Z</time></trkpt><trkpt lat="44.7726295" lon="11.6568169"><ele>4.0</ele><time>2026-04-07T17:08:32.559Z</time></trkpt><trkpt lat="44.7724614" lon="11.6567537"><ele>4.0</ele><time>2026-04-07T17:08:33.551Z</time></trkpt><trkpt lat="44.7723246" lon="11.6566984"><ele>4.0</ele><time>2026-04-07T17:08:34.558Z</time></trkpt><trkpt lat="44.7721797" lon="11.6566378"><ele>4.0</ele><time>2026-04-07T17:08:35.556Z</time></trkpt><trkpt lat="44.7720316" lon="11.6566014"><ele>4.0</ele><time>2026-04-07T17:08:36.559Z</time></trkpt><trkpt lat="44.7718842" lon="11.6565735"><ele>4.333333333333333</ele><time>2026-04-07T17:08:37.553Z</time></trkpt><trkpt lat="44.7717327" lon="11.6565365"><ele>4.666666666666667</ele><time>2026-04-07T17:08:38.562Z</time></trkpt><trkpt lat="44.7715604" lon="11.6564877"><ele>5.0</ele><time>2026-04-07T17:08:39.551Z</time></trkpt><trkpt lat="44.7713735" lon="11.6563945"><ele>5.0</ele><time>2026-04-07T17:08:40.558Z</time></trkpt><trkpt lat="44.7711804" lon="11.6562927"><ele>5.0</ele><time>2026-04-07T17:08:41.56Z</time></trkpt><trkpt lat="44.7709469" lon="11.6561616"><ele>5.333333333333334</ele><time>2026-04-07T17:08:42.556Z</time></trkpt><trkpt lat="44.7707288" lon="11.6560342"><ele>5.666666666666667</ele><time>2026-04-07T17:08:43.557Z</time></trkpt><trkpt lat="44.7705619" lon="11.655963"><ele>6.0</ele><time>2026-04-07T17:08:44.552Z</time></trkpt><trkpt lat="44.7704099" lon="11.6559164"><ele>6.0</ele><time>2026-04-07T17:08:45.555Z</time></trkpt><trkpt lat="44.7702696" lon="11.6558779"><ele>6.0</ele><time>2026-04-07T17:08:46.554Z</time></trkpt><trkpt lat="44.7701184" lon="11.6558342"><ele>6.0</ele><time>2026-04-07T17:08:47.559Z</time></trkpt><trkpt lat="44.7699971" lon="11.6558115"><ele>6.0</ele><time>2026-04-07T17:08:48.55Z</time></trkpt><trkpt lat="44.7698833" lon="11.6557499"><ele>6.0</ele><time>2026-04-07T17:08:49.557Z</time></trkpt><trkpt lat="44.7697671" lon="11.655683"><ele>6.0</ele><time>2026-04-07T17:08:50.55Z</time></trkpt><trkpt lat="44.7696485" lon="11.6556328"><ele>6.0</ele><time>2026-04-07T17:08:51.552Z</time></trkpt><trkpt lat="44.7695323" lon="11.6555795"><ele>6.0</ele><time>2026-04-07T17:08:52.548Z</time></trkpt><trkpt lat="44.7694136" lon="11.6555057"><ele>6.0</ele><time>2026-04-07T17:08:53.556Z</time></trkpt><trkpt lat="44.7692942" lon="11.6554341"><ele>6.0</ele><time>2026-04-07T17:08:54.548Z</time></trkpt><trkpt lat="44.7691605" lon="11.6553543"><ele>6.0</ele><time>2026-04-07T17:08:55.553Z</time></trkpt><trkpt lat="44.7689932" lon="11.6552713"><ele>5.666666666666667</ele><time>2026-04-07T17:08:56.554Z</time></trkpt><trkpt lat="44.7687851" lon="11.6552189"><ele>5.333333333333334</ele><time>2026-04-07T17:08:57.552Z</time></trkpt><trkpt lat="44.7685875" lon="11.6551863"><ele>5.0</ele><time>2026-04-07T17:08:58.553Z</time></trkpt><trkpt lat="44.7684404" lon="11.6551594"><ele>5.0</ele><time>2026-04-07T17:08:59.55Z</time></trkpt><trkpt lat="44.7682867" lon="11.6551401"><ele>5.0</ele><time>2026-04-07T17:09:00.553Z</time></trkpt><trkpt lat="44.7681437" lon="11.6550984"><ele>5.0</ele><time>2026-04-07T17:09:01.553Z</time></trkpt><trkpt lat="44.7680116" lon="11.655061"><ele>5.0</ele><time>2026-04-07T17:09:02.554Z</time></trkpt><trkpt lat="44.7678923" lon="11.6550519"><ele>5.0</ele><time>2026-04-07T17:09:03.557Z</time></trkpt><trkpt lat="44.7678016" lon="11.6550242"><ele>5.0</ele><time>2026-04-07T17:09:04.556Z</time></trkpt><trkpt lat="44.7677146" lon="11.6550054"><ele>5.0</ele><time>2026-04-07T17:09:05.552Z</time></trkpt><trkpt lat="44.7676081" lon="11.654968"><ele>5.0</ele><time>2026-04-07T17:09:06.578Z</time></trkpt><trkpt lat="44.7674928" lon="11.6549474"><ele>5.0</ele><time>2026-04-07T17:09:07.559Z</time></trkpt><trkpt lat="44.7673712" lon="11.6549285"><ele>4.666666666666667</ele><time>2026-04-07T17:09:08.562Z</time></trkpt><trkpt lat="44.7672289" lon="11.6548857"><ele>4.333333333333333</ele><time>2026-04-07T17:09:09.575Z</time></trkpt><trkpt lat="44.7670523" lon="11.6548366"><ele>4.0</ele><time>2026-04-07T17:09:10.562Z</time></trkpt><trkpt lat="44.7669021" lon="11.65478"><ele>4.2</ele><time>2026-04-07T17:09:11.555Z</time></trkpt><trkpt lat="44.7667788" lon="11.6547985"><ele>4.4</ele><time>2026-04-07T17:09:12.562Z</time></trkpt><trkpt lat="44.766695" lon="11.6547824"><ele>4.6</ele><time>2026-04-07T17:09:13.561Z</time></trkpt><trkpt lat="44.7666084" lon="11.654701"><ele>4.8</ele><time>2026-04-07T17:09:15.547Z</time></trkpt><trkpt lat="44.766507" lon="11.6546646"><ele>5.0</ele><time>2026-04-07T17:09:19.562Z</time></trkpt><trkpt lat="44.766405" lon="11.6546969"><ele>5.0</ele><time>2026-04-07T17:09:21.563Z</time></trkpt><trkpt lat="44.7663408" lon="11.6547687"><ele>5.0</ele><time>2026-04-07T17:09:22.554Z</time></trkpt><trkpt lat="44.7662657" lon="11.6548675"><ele>5.0</ele><time>2026-04-07T17:09:23.559Z</time></trkpt><trkpt lat="44.7661781" lon="11.6549871"><ele>5.0</ele><time>2026-04-07T17:09:24.559Z</time></trkpt><trkpt lat="44.7660759" lon="11.6551187"><ele>5.0</ele><time>2026-04-07T17:09:25.561Z</time></trkpt><trkpt lat="44.7659703" lon="11.6552551"><ele>5.75</ele><time>2026-04-07T17:09:26.586Z</time></trkpt><trkpt lat="44.7658587" lon="11.6553671"><ele>6.5</ele><time>2026-04-07T17:09:27.557Z</time></trkpt><trkpt lat="44.7657428" lon="11.6554794"><ele>7.25</ele><time>2026-04-07T17:09:28.561Z</time></trkpt><trkpt lat="44.7656178" lon="11.6555944"><ele>8.0</ele><time>2026-04-07T17:09:29.548Z</time></trkpt><trkpt lat="44.7654545" lon="11.6557077"><ele>8.0</ele><time>2026-04-07T17:09:30.554Z</time></trkpt><trkpt lat="44.7652618" lon="11.6558153"><ele>8.0</ele><time>2026-04-07T17:09:31.556Z</time></trkpt><trkpt lat="44.765092" lon="11.6558701"><ele>8.0</ele><time>2026-04-07T17:09:32.554Z</time></trkpt><trkpt lat="44.7649098" lon="11.6559352"><ele>8.0</ele><time>2026-04-07T17:09:33.557Z</time></trkpt><trkpt lat="44.764709" lon="11.6560112"><ele>8.0</ele><time>2026-04-07T17:09:34.552Z</time></trkpt><trkpt lat="44.7644737" lon="11.6560437"><ele>8.0</ele><time>2026-04-07T17:09:35.563Z</time></trkpt><trkpt lat="44.7642576" lon="11.6560888"><ele>7.666666666666666</ele><time>2026-04-07T17:09:36.579Z</time></trkpt><trkpt lat="44.7640518" lon="11.6561595"><ele>7.333333333333334</ele><time>2026-04-07T17:09:37.565Z</time></trkpt><trkpt lat="44.76387" lon="11.6562216"><ele>7.0</ele><time>2026-04-07T17:09:38.555Z</time></trkpt><trkpt lat="44.7637018" lon="11.6563003"><ele>7.0</ele><time>2026-04-07T17:09:39.57Z</time></trkpt><trkpt lat="44.7635819" lon="11.6563894"><ele>7.0</ele><time>2026-04-07T17:09:40.554Z</time></trkpt><trkpt lat="44.7634568" lon="11.6565257"><ele>7.0</ele><time>2026-04-07T17:09:41.553Z</time></trkpt><trkpt lat="44.763358" lon="11.6566875"><ele>7.0</ele><time>2026-04-07T17:09:42.552Z</time></trkpt><trkpt lat="44.7632581" lon="11.6568363"><ele>7.666666666666667</ele><time>2026-04-07T17:09:43.544Z</time></trkpt><trkpt lat="44.7631622" lon="11.6570614"><ele>8.333333333333334</ele><time>2026-04-07T17:09:44.546Z</time></trkpt><trkpt lat="44.7630698" lon="11.6572885"><ele>9.0</ele><time>2026-04-07T17:09:45.549Z</time></trkpt><trkpt lat="44.7629903" lon="11.6574847"><ele>9.0</ele><time>2026-04-07T17:09:46.537Z</time></trkpt><trkpt lat="44.762881" lon="11.6577461"><ele>9.0</ele><time>2026-04-07T17:09:47.548Z</time></trkpt><trkpt lat="44.762773" lon="11.6579638"><ele>9.0</ele><time>2026-04-07T17:09:48.547Z</time></trkpt><trkpt lat="44.7626567" lon="11.6581984"><ele>8.333333333333334</ele><time>2026-04-07T17:09:49.55Z</time></trkpt><trkpt lat="44.7625272" lon="11.6583813"><ele>7.666666666666667</ele><time>2026-04-07T17:09:50.54Z</time></trkpt><trkpt lat="44.7624067" lon="11.6585174"><ele>7.0</ele><time>2026-04-07T17:09:51.546Z</time></trkpt><trkpt lat="44.7623032" lon="11.6585945"><ele>7.0</ele><time>2026-04-07T17:09:52.543Z</time></trkpt><trkpt lat="44.7621689" lon="11.6586694"><ele>7.0</ele><time>2026-04-07T17:09:53.546Z</time></trkpt><trkpt lat="44.7620166" lon="11.6587051"><ele>7.0</ele><time>2026-04-07T17:09:54.545Z</time></trkpt><trkpt lat="44.7618358" lon="11.6587052"><ele>7.0</ele><time>2026-04-07T17:09:55.543Z</time></trkpt><trkpt lat="44.7616386" lon="11.6586725"><ele>7.0</ele><time>2026-04-07T17:09:56.545Z</time></trkpt><trkpt lat="44.7614252" lon="11.658641"><ele>7.0</ele><time>2026-04-07T17:09:57.552Z</time></trkpt><trkpt lat="44.7612095" lon="11.6586324"><ele>6.0</ele><time>2026-04-07T17:09:58.559Z</time></trkpt><trkpt lat="44.760998" lon="11.6586349"><ele>5.0</ele><time>2026-04-07T17:09:59.551Z</time></trkpt><trkpt lat="44.7607818" lon="11.6586345"><ele>4.0</ele><time>2026-04-07T17:10:00.547Z</time></trkpt><trkpt lat="44.7605531" lon="11.6586375"><ele>4.0</ele><time>2026-04-07T17:10:01.55Z</time></trkpt><trkpt lat="44.7603248" lon="11.6586251"><ele>4.0</ele><time>2026-04-07T17:10:02.552Z</time></trkpt><trkpt lat="44.7601121" lon="11.6586131"><ele>4.0</ele><time>2026-04-07T17:10:03.552Z</time></trkpt><trkpt lat="44.7598985" lon="11.6586191"><ele>3.6666666666666665</ele><time>2026-04-07T17:10:04.552Z</time></trkpt><trkpt lat="44.759681" lon="11.658622"><ele>3.333333333333333</ele><time>2026-04-07T17:10:05.552Z</time></trkpt><trkpt lat="44.7594835" lon="11.6586351"><ele>3.0</ele><time>2026-04-07T17:10:06.551Z</time></trkpt><trkpt lat="44.7593156" lon="11.6586427"><ele>3.0</ele><time>2026-04-07T17:10:07.552Z</time></trkpt><trkpt lat="44.7591479" lon="11.6586284"><ele>3.0</ele><time>2026-04-07T17:10:08.544Z</time></trkpt><trkpt lat="44.758994" lon="11.6585713"><ele>3.0</ele><time>2026-04-07T17:10:09.548Z</time></trkpt><trkpt lat="44.7588613" lon="11.658482"><ele>3.333333333333333</ele><time>2026-04-07T17:10:10.543Z</time></trkpt><trkpt lat="44.758714" lon="11.6583994"><ele>3.6666666666666665</ele><time>2026-04-07T17:10:11.553Z</time></trkpt><trkpt lat="44.7585433" lon="11.658239"><ele>4.0</ele><time>2026-04-07T17:10:12.542Z</time></trkpt><trkpt lat="44.7584111" lon="11.6580812"><ele>4.333333333333333</ele><time>2026-04-07T17:10:13.551Z</time></trkpt><trkpt lat="44.758269" lon="11.657872"><ele>4.666666666666667</ele><time>2026-04-07T17:10:14.545Z</time></trkpt><trkpt lat="44.75811" lon="11.6576358"><ele>5.0</ele><time>2026-04-07T17:10:15.626Z</time></trkpt><trkpt lat="44.7579446" lon="11.6573933"><ele>5.0</ele><time>2026-04-07T17:10:16.552Z</time></trkpt><trkpt lat="44.7577949" lon="11.6571763"><ele>5.0</ele><time>2026-04-07T17:10:17.565Z</time></trkpt><trkpt lat="44.7576438" lon="11.6569807"><ele>5.0</ele><time>2026-04-07T17:10:18.55Z</time></trkpt><trkpt lat="44.7575076" lon="11.6568067"><ele>4.666666666666667</ele><time>2026-04-07T17:10:19.555Z</time></trkpt><trkpt lat="44.7573543" lon="11.656605"><ele>4.333333333333333</ele><time>2026-04-07T17:10:20.558Z</time></trkpt><trkpt lat="44.7572197" lon="11.6564556"><ele>4.0</ele><time>2026-04-07T17:10:21.559Z</time></trkpt><trkpt lat="44.7570596" lon="11.6563169"><ele>4.0</ele><time>2026-04-07T17:10:22.554Z</time></trkpt><trkpt lat="44.7568861" lon="11.6562337"><ele>4.0</ele><time>2026-04-07T17:10:23.556Z</time></trkpt><trkpt lat="44.7566892" lon="11.6561564"><ele>4.0</ele><time>2026-04-07T17:10:24.557Z</time></trkpt><trkpt lat="44.7565069" lon="11.6560586"><ele>4.333333333333333</ele><time>2026-04-07T17:10:25.566Z</time></trkpt><trkpt lat="44.7563033" lon="11.655944"><ele>4.666666666666667</ele><time>2026-04-07T17:10:26.551Z</time></trkpt><trkpt lat="44.7561097" lon="11.655833"><ele>5.0</ele><time>2026-04-07T17:10:27.561Z</time></trkpt><trkpt lat="44.7559423" lon="11.6557549"><ele>5.333333333333334</ele><time>2026-04-07T17:10:28.561Z</time></trkpt><trkpt lat="44.7557518" lon="11.6556794"><ele>5.666666666666667</ele><time>2026-04-07T17:10:29.554Z</time></trkpt><trkpt lat="44.755552" lon="11.6556212"><ele>6.0</ele><time>2026-04-07T17:10:30.556Z</time></trkpt><trkpt lat="44.7553408" lon="11.6555743"><ele>6.5</ele><time>2026-04-07T17:10:31.658Z</time></trkpt><trkpt lat="44.7549541" lon="11.6555464"><ele>7.0</ele><time>2026-04-07T17:10:33.56Z</time></trkpt><trkpt lat="44.75477" lon="11.6555331"><ele>7.0</ele><time>2026-04-07T17:10:34.555Z</time></trkpt><trkpt lat="44.7545645" lon="11.65549"><ele>7.0</ele><time>2026-04-07T17:10:35.564Z</time></trkpt><trkpt lat="44.7543284" lon="11.6554092"><ele>7.0</ele><time>2026-04-07T17:10:36.564Z</time></trkpt><trkpt lat="44.7541011" lon="11.6553368"><ele>7.0</ele><time>2026-04-07T17:10:37.582Z</time></trkpt><trkpt lat="44.7538981" lon="11.655276"><ele>7.0</ele><time>2026-04-07T17:10:38.557Z</time></trkpt><trkpt lat="44.7537067" lon="11.6552349"><ele>7.666666666666667</ele><time>2026-04-07T17:10:39.562Z</time></trkpt><trkpt lat="44.7534916" lon="11.6551844"><ele>8.333333333333334</ele><time>2026-04-07T17:10:40.557Z</time></trkpt><trkpt lat="44.7532908" lon="11.6551481"><ele>9.0</ele><time>2026-04-07T17:10:41.562Z</time></trkpt><trkpt lat="44.7531096" lon="11.6551044"><ele>9.0</ele><time>2026-04-07T17:10:42.559Z</time></trkpt><trkpt lat="44.7529285" lon="11.655042"><ele>9.0</ele><time>2026-04-07T17:10:43.556Z</time></trkpt><trkpt lat="44.7527457" lon="11.6550415"><ele>9.0</ele><time>2026-04-07T17:10:44.56Z</time></trkpt><trkpt lat="44.7525819" lon="11.655075"><ele>8.333333333333334</ele><time>2026-04-07T17:10:45.554Z</time></trkpt><trkpt lat="44.7524162" lon="11.6551658"><ele>7.666666666666667</ele><time>2026-04-07T17:10:46.558Z</time></trkpt><trkpt lat="44.7522779" lon="11.6552237"><ele>7.0</ele><time>2026-04-07T17:10:47.543Z</time></trkpt><trkpt lat="44.7521512" lon="11.6553287"><ele>7.0</ele><time>2026-04-07T17:10:48.547Z</time></trkpt><trkpt lat="44.7519812" lon="11.6554603"><ele>7.0</ele><time>2026-04-07T17:10:49.548Z</time></trkpt><trkpt lat="44.751833" lon="11.6556205"><ele>7.0</ele><time>2026-04-07T17:10:50.546Z</time></trkpt><trkpt lat="44.7516625" lon="11.6557433"><ele>7.0</ele><time>2026-04-07T17:10:51.545Z</time></trkpt><trkpt lat="44.7514691" lon="11.6558743"><ele>7.0</ele><time>2026-04-07T17:10:52.542Z</time></trkpt><trkpt lat="44.7512697" lon="11.6560261"><ele>7.0</ele><time>2026-04-07T17:10:53.551Z</time></trkpt><trkpt lat="44.7510857" lon="11.6561291"><ele>6.666666666666667</ele><time>2026-04-07T17:10:54.54Z</time></trkpt><trkpt lat="44.7508779" lon="11.6562399"><ele>6.333333333333334</ele><time>2026-04-07T17:10:55.569Z</time></trkpt><trkpt lat="44.7507002" lon="11.6563805"><ele>6.0</ele><time>2026-04-07T17:10:56.547Z</time></trkpt><trkpt lat="44.7505318" lon="11.6564848"><ele>6.0</ele><time>2026-04-07T17:10:57.542Z</time></trkpt><trkpt lat="44.7503651" lon="11.6565745"><ele>6.0</ele><time>2026-04-07T17:10:58.545Z</time></trkpt><trkpt lat="44.7502067" lon="11.6566743"><ele>6.0</ele><time>2026-04-07T17:10:59.548Z</time></trkpt><trkpt lat="44.7500744" lon="11.6567373"><ele>6.0</ele><time>2026-04-07T17:11:00.551Z</time></trkpt><trkpt lat="44.7499444" lon="11.6568168"><ele>6.0</ele><time>2026-04-07T17:11:01.543Z</time></trkpt><trkpt lat="44.7498248" lon="11.6568474"><ele>6.0</ele><time>2026-04-07T17:11:02.549Z</time></trkpt><trkpt lat="44.7497263" lon="11.656909"><ele>6.0</ele><time>2026-04-07T17:11:03.547Z</time></trkpt><trkpt lat="44.7496138" lon="11.6569662"><ele>6.0</ele><time>2026-04-07T17:11:04.549Z</time></trkpt><trkpt lat="44.7495084" lon="11.6569942"><ele>6.0</ele><time>2026-04-07T17:11:05.547Z</time></trkpt><trkpt lat="44.7493971" lon="11.6569001"><ele>6.0</ele><time>2026-04-07T17:11:06.551Z</time></trkpt><trkpt lat="44.7492888" lon="11.6568302"><ele>6.0</ele><time>2026-04-07T17:11:07.55Z</time></trkpt><trkpt lat="44.7492053" lon="11.6568173"><ele>6.0</ele><time>2026-04-07T17:11:08.55Z</time></trkpt><trkpt lat="44.749108" lon="11.6567989"><ele>6.333333333333333</ele><time>2026-04-07T17:11:09.548Z</time></trkpt><trkpt lat="44.7490178" lon="11.6567738"><ele>6.666666666666666</ele><time>2026-04-07T17:11:10.553Z</time></trkpt><trkpt lat="44.7489407" lon="11.6567456"><ele>7.0</ele><time>2026-04-07T17:11:11.55Z</time></trkpt><trkpt lat="44.7488761" lon="11.6567008"><ele>7.333333333333333</ele><time>2026-04-07T17:11:12.552Z</time></trkpt><trkpt lat="44.748833" lon="11.6566289"><ele>7.666666666666666</ele><time>2026-04-07T17:11:13.557Z</time></trkpt><trkpt lat="44.7488099" lon="11.6565253"><ele>8.0</ele><time>2026-04-07T17:11:14.555Z</time></trkpt><trkpt lat="44.7488045" lon="11.6563644"><ele>8.0</ele><time>2026-04-07T17:11:15.557Z</time></trkpt><trkpt lat="44.7488138" lon="11.6561761"><ele>8.0</ele><time>2026-04-07T17:11:16.548Z</time></trkpt><trkpt lat="44.7488368" lon="11.6559951"><ele>8.0</ele><time>2026-04-07T17:11:17.557Z</time></trkpt><trkpt lat="44.7488366" lon="11.6558212"><ele>8.0</ele><time>2026-04-07T17:11:18.547Z</time></trkpt><trkpt lat="44.7488233" lon="11.6556357"><ele>7.666666666666666</ele><time>2026-04-07T17:11:19.555Z</time></trkpt><trkpt lat="44.7488186" lon="11.6554297"><ele>7.333333333333334</ele><time>2026-04-07T17:11:20.548Z</time></trkpt><trkpt lat="44.748775" lon="11.6551794"><ele>7.0</ele><time>2026-04-07T17:11:21.554Z</time></trkpt><trkpt lat="44.7487042" lon="11.6548898"><ele>7.0</ele><time>2026-04-07T17:11:22.552Z</time></trkpt><trkpt lat="44.7486395" lon="11.6546553"><ele>7.0</ele><time>2026-04-07T17:11:23.56Z</time></trkpt><trkpt lat="44.7485806" lon="11.6544048"><ele>7.0</ele><time>2026-04-07T17:11:24.553Z</time></trkpt><trkpt lat="44.7485153" lon="11.6541841"><ele>7.0</ele><time>2026-04-07T17:11:25.556Z</time></trkpt><trkpt lat="44.7484729" lon="11.6539854"><ele>7.0</ele><time>2026-04-07T17:11:26.551Z</time></trkpt><trkpt lat="44.7484711" lon="11.653823"><ele>7.0</ele><time>2026-04-07T17:11:27.551Z</time></trkpt><trkpt lat="44.7484229" lon="11.6536591"><ele>7.0</ele><time>2026-04-07T17:11:28.554Z</time></trkpt><trkpt lat="44.74838" lon="11.6535138"><ele>7.166666666666667</ele><time>2026-04-07T17:11:29.554Z</time></trkpt><trkpt lat="44.7483405" lon="11.6533988"><ele>7.333333333333334</ele><time>2026-04-07T17:11:30.57Z</time></trkpt><trkpt lat="44.7483225" lon="11.6533019"><ele>7.5</ele><time>2026-04-07T17:11:34.549Z</time></trkpt><trkpt lat="44.7483683" lon="11.6532198"><ele>7.666666666666666</ele><time>2026-04-07T17:11:36.569Z</time></trkpt><trkpt lat="44.7483124" lon="11.6531474"><ele>7.833333333333333</ele><time>2026-04-07T17:11:43.549Z</time></trkpt><trkpt lat="44.7482793" lon="11.6530257"><ele>8.0</ele><time>2026-04-07T17:11:45.549Z</time></trkpt><trkpt lat="44.7482638" lon="11.6529126"><ele>7.25</ele><time>2026-04-07T17:11:46.554Z</time></trkpt><trkpt lat="44.7482393" lon="11.6527818"><ele>6.5</ele><time>2026-04-07T17:11:47.57Z</time></trkpt><trkpt lat="44.7482115" lon="11.6526349"><ele>5.75</ele><time>2026-04-07T17:11:48.546Z</time></trkpt><trkpt lat="44.7481852" lon="11.6524614"><ele>5.0</ele><time>2026-04-07T17:11:49.55Z</time></trkpt><trkpt lat="44.7481635" lon="11.6522578"><ele>5.0</ele><time>2026-04-07T17:11:50.547Z</time></trkpt><trkpt lat="44.7481332" lon="11.6520417"><ele>5.0</ele><time>2026-04-07T17:11:51.571Z</time></trkpt><trkpt lat="44.7480809" lon="11.6517656"><ele>5.0</ele><time>2026-04-07T17:11:52.549Z</time></trkpt><trkpt lat="44.7480563" lon="11.6514942"><ele>5.0</ele><time>2026-04-07T17:11:53.548Z</time></trkpt><trkpt lat="44.7480356" lon="11.6511996"><ele>5.0</ele><time>2026-04-07T17:11:54.551Z</time></trkpt><trkpt lat="44.7479876" lon="11.6509357"><ele>5.0</ele><time>2026-04-07T17:11:55.555Z</time></trkpt><trkpt lat="44.7479653" lon="11.6506583"><ele>5.0</ele><time>2026-04-07T17:11:56.552Z</time></trkpt><trkpt lat="44.7479333" lon="11.6503943"><ele>5.0</ele><time>2026-04-07T17:11:57.552Z</time></trkpt><trkpt lat="44.7478935" lon="11.6501418"><ele>5.0</ele><time>2026-04-07T17:11:58.563Z</time></trkpt><trkpt lat="44.7478479" lon="11.6498578"><ele>5.0</ele><time>2026-04-07T17:11:59.55Z</time></trkpt><trkpt lat="44.7477885" lon="11.6496135"><ele>5.0</ele><time>2026-04-07T17:12:00.553Z</time></trkpt><trkpt lat="44.7477463" lon="11.6494245"><ele>5.0</ele><time>2026-04-07T17:12:01.547Z</time></trkpt><trkpt lat="44.7477126" lon="11.6492559"><ele>5.0</ele><time>2026-04-07T17:12:02.559Z</time></trkpt><trkpt lat="44.7476479" lon="11.6490933"><ele>5.0</ele><time>2026-04-07T17:12:03.554Z</time></trkpt><trkpt lat="44.7476091" lon="11.6489555"><ele>5.0</ele><time>2026-04-07T17:12:04.554Z</time></trkpt><trkpt lat="44.7475914" lon="11.6488468"><ele>5.0</ele><time>2026-04-07T17:12:05.553Z</time></trkpt><trkpt lat="44.7475631" lon="11.6487569"><ele>5.0</ele><time>2026-04-07T17:12:06.557Z</time></trkpt><trkpt lat="44.7475419" lon="11.6486453"><ele>5.0</ele><time>2026-04-07T17:12:10.557Z</time></trkpt><trkpt lat="44.7475281" lon="11.6485397"><ele>5.0</ele><time>2026-04-07T17:12:12.555Z</time></trkpt><trkpt lat="44.7475089" lon="11.6484028"><ele>5.0</ele><time>2026-04-07T17:12:14.553Z</time></trkpt><trkpt lat="44.7475123" lon="11.6483065"><ele>5.0</ele><time>2026-04-07T17:12:15.553Z</time></trkpt><trkpt lat="44.747509" lon="11.6482154"><ele>5.0</ele><time>2026-04-07T17:12:16.552Z</time></trkpt><trkpt lat="44.7475163" lon="11.6481147"><ele>5.0</ele><time>2026-04-07T17:12:17.626Z</time></trkpt><trkpt lat="44.747506" lon="11.648"><ele>5.0</ele><time>2026-04-07T17:12:18.566Z</time></trkpt><trkpt lat="44.7474948" lon="11.6478945"><ele>5.0</ele><time>2026-04-07T17:12:19.551Z</time></trkpt><trkpt lat="44.7474798" lon="11.6478044"><ele>5.0</ele><time>2026-04-07T17:12:20.574Z</time></trkpt><trkpt lat="44.7474169" lon="11.64772"><ele>5.0</ele><time>2026-04-07T17:12:22.556Z</time></trkpt><trkpt lat="44.7473459" lon="11.647775"><ele>5.0</ele><time>2026-04-07T17:12:24.555Z</time></trkpt><trkpt lat="44.7472776" lon="11.6478167"><ele>5.0</ele><time>2026-04-07T17:12:25.556Z</time></trkpt><trkpt lat="44.7472071" lon="11.6478743"><ele>5.0</ele><time>2026-04-07T17:12:26.555Z</time></trkpt><trkpt lat="44.7471362" lon="11.6479352"><ele>5.0</ele><time>2026-04-07T17:12:27.551Z</time></trkpt><trkpt lat="44.7470617" lon="11.6480012"><ele>5.0</ele><time>2026-04-07T17:12:28.557Z</time></trkpt><trkpt lat="44.7469732" lon="11.6480753"><ele>5.0</ele><time>2026-04-07T17:12:29.556Z</time></trkpt><trkpt lat="44.7468782" lon="11.6481545"><ele>5.0</ele><time>2026-04-07T17:12:30.561Z</time></trkpt><trkpt lat="44.7467882" lon="11.6482481"><ele>5.0</ele><time>2026-04-07T17:12:31.559Z</time></trkpt><trkpt lat="44.7466851" lon="11.6483264"><ele>5.0</ele><time>2026-04-07T17:12:32.55Z</time></trkpt><trkpt lat="44.7465956" lon="11.6483794"><ele>5.0</ele><time>2026-04-07T17:12:33.555Z</time></trkpt><trkpt lat="44.7464967" lon="11.6484082"><ele>5.0</ele><time>2026-04-07T17:12:34.549Z</time></trkpt><trkpt lat="44.7463774" lon="11.6483974"><ele>5.0</ele><time>2026-04-07T17:12:35.55Z</time></trkpt><trkpt lat="44.7462585" lon="11.6483935"><ele>5.0</ele><time>2026-04-07T17:12:36.549Z</time></trkpt><trkpt lat="44.7461345" lon="11.6483895"><ele>5.0</ele><time>2026-04-07T17:12:37.558Z</time></trkpt><trkpt lat="44.7460179" lon="11.6483759"><ele>5.0</ele><time>2026-04-07T17:12:38.56Z</time></trkpt><trkpt lat="44.7458991" lon="11.6483598"><ele>5.0</ele><time>2026-04-07T17:12:39.552Z</time></trkpt><trkpt lat="44.7457787" lon="11.648358"><ele>5.0</ele><time>2026-04-07T17:12:40.558Z</time></trkpt><trkpt lat="44.7456571" lon="11.648359"><ele>5.0</ele><time>2026-04-07T17:12:41.559Z</time></trkpt><trkpt lat="44.7455335" lon="11.6483647"><ele>5.0</ele><time>2026-04-07T17:12:42.553Z</time></trkpt><trkpt lat="44.7454053" lon="11.6483677"><ele>5.0</ele><time>2026-04-07T17:12:43.56Z</time></trkpt><trkpt lat="44.745276" lon="11.6483746"><ele>5.0</ele><time>2026-04-07T17:12:44.558Z</time></trkpt><trkpt lat="44.7451511" lon="11.6483813"><ele>5.0</ele><time>2026-04-07T17:12:45.56Z</time></trkpt><trkpt lat="44.7450226" lon="11.648392"><ele>5.0</ele><time>2026-04-07T17:12:46.559Z</time></trkpt><trkpt lat="44.744896" lon="11.6484014"><ele>5.0</ele><time>2026-04-07T17:12:47.566Z</time></trkpt><trkpt lat="44.7447779" lon="11.648417"><ele>5.0</ele><time>2026-04-07T17:12:48.555Z</time></trkpt><trkpt lat="44.74465" lon="11.6484284"><ele>5.0</ele><time>2026-04-07T17:12:49.561Z</time></trkpt><trkpt lat="44.7445046" lon="11.6484315"><ele>5.5</ele><time>2026-04-07T17:12:50.559Z</time></trkpt><trkpt lat="44.7443759" lon="11.6484246"><ele>6.0</ele><time>2026-04-07T17:12:51.555Z</time></trkpt><trkpt lat="44.7442345" lon="11.6484127"><ele>6.5</ele><time>2026-04-07T17:12:52.558Z</time></trkpt><trkpt lat="44.7440909" lon="11.6483649"><ele>7.0</ele><time>2026-04-07T17:12:53.555Z</time></trkpt><trkpt lat="44.7439562" lon="11.6483392"><ele>7.0</ele><time>2026-04-07T17:12:54.548Z</time></trkpt><trkpt lat="44.7438352" lon="11.6483609"><ele>7.0</ele><time>2026-04-07T17:12:55.558Z</time></trkpt><trkpt lat="44.7437117" lon="11.6483801"><ele>7.0</ele><time>2026-04-07T17:12:56.552Z</time></trkpt><trkpt lat="44.7435692" lon="11.6484096"><ele>7.0</ele><time>2026-04-07T17:12:57.575Z</time></trkpt><trkpt lat="44.7434162" lon="11.648402"><ele>6.75</ele><time>2026-04-07T17:12:58.556Z</time></trkpt><trkpt lat="44.7432945" lon="11.6483942"><ele>6.5</ele><time>2026-04-07T17:12:59.549Z</time></trkpt><trkpt lat="44.7431686" lon="11.6483888"><ele>6.25</ele><time>2026-04-07T17:13:00.556Z</time></trkpt><trkpt lat="44.7430407" lon="11.6483702"><ele>6.0</ele><time>2026-04-07T17:13:01.555Z</time></trkpt><trkpt lat="44.742925" lon="11.648369"><ele>6.0</ele><time>2026-04-07T17:13:02.547Z</time></trkpt><trkpt lat="44.7428182" lon="11.6483451"><ele>6.0</ele><time>2026-04-07T17:13:03.554Z</time></trkpt><trkpt lat="44.7427154" lon="11.6483317"><ele>6.0</ele><time>2026-04-07T17:13:04.547Z</time></trkpt><trkpt lat="44.7426428" lon="11.6483388"><ele>6.0</ele><time>2026-04-07T17:13:05.551Z</time></trkpt><trkpt lat="44.7425733" lon="11.6483557"><ele>6.0</ele><time>2026-04-07T17:13:06.546Z</time></trkpt><trkpt lat="44.7424742" lon="11.6484047"><ele>6.6</ele><time>2026-04-07T17:13:08.543Z</time></trkpt><trkpt lat="44.7424115" lon="11.6484219"><ele>7.199999999999999</ele><time>2026-04-07T17:13:10.551Z</time></trkpt><trkpt lat="44.742309" lon="11.6484269"><ele>7.800000000000001</ele><time>2026-04-07T17:13:14.553Z</time></trkpt><trkpt lat="44.7422259" lon="11.648316"><ele>8.4</ele><time>2026-04-07T17:13:16.556Z</time></trkpt><trkpt lat="44.7421822" lon="11.6481708"><ele>9.0</ele><time>2026-04-07T17:13:17.556Z</time></trkpt><trkpt lat="44.7421501" lon="11.647999"><ele>9.0</ele><time>2026-04-07T17:13:18.561Z</time></trkpt><trkpt lat="44.7420896" lon="11.6478005"><ele>9.0</ele><time>2026-04-07T17:13:19.556Z</time></trkpt><trkpt lat="44.7420366" lon="11.6475895"><ele>9.0</ele><time>2026-04-07T17:13:20.552Z</time></trkpt><trkpt lat="44.7419765" lon="11.6473881"><ele>8.0</ele><time>2026-04-07T17:13:21.545Z</time></trkpt><trkpt lat="44.7418874" lon="11.6471344"><ele>7.0</ele><time>2026-04-07T17:13:22.551Z</time></trkpt><trkpt lat="44.7417989" lon="11.6468274"><ele>6.0</ele><time>2026-04-07T17:13:23.552Z</time></trkpt><trkpt lat="44.7417101" lon="11.6465869"><ele>6.0</ele><time>2026-04-07T17:13:24.572Z</time></trkpt><trkpt lat="44.7416074" lon="11.6464337"><ele>6.0</ele><time>2026-04-07T17:13:25.542Z</time></trkpt><trkpt lat="44.7415014" lon="11.6463105"><ele>6.0</ele><time>2026-04-07T17:13:26.548Z</time></trkpt><trkpt lat="44.7413785" lon="11.6462044"><ele>6.0</ele><time>2026-04-07T17:13:27.546Z</time></trkpt><trkpt lat="44.7412663" lon="11.6460947"><ele>6.0</ele><time>2026-04-07T17:13:28.557Z</time></trkpt><trkpt lat="44.7411189" lon="11.6459959"><ele>6.0</ele><time>2026-04-07T17:13:29.546Z</time></trkpt><trkpt lat="44.7409553" lon="11.6459527"><ele>6.0</ele><time>2026-04-07T17:13:30.543Z</time></trkpt><trkpt lat="44.7407816" lon="11.6458856"><ele>5.666666666666667</ele><time>2026-04-07T17:13:31.541Z</time></trkpt><trkpt lat="44.7406209" lon="11.6458171"><ele>5.333333333333334</ele><time>2026-04-07T17:13:32.558Z</time></trkpt><trkpt lat="44.740456" lon="11.6457738"><ele>5.0</ele><time>2026-04-07T17:13:33.549Z</time></trkpt><trkpt lat="44.74029" lon="11.6457618"><ele>5.333333333333334</ele><time>2026-04-07T17:13:34.546Z</time></trkpt><trkpt lat="44.7401295" lon="11.6457415"><ele>5.666666666666667</ele><time>2026-04-07T17:13:35.545Z</time></trkpt><trkpt lat="44.7399595" lon="11.6457873"><ele>6.0</ele><time>2026-04-07T17:13:36.548Z</time></trkpt><trkpt lat="44.7397718" lon="11.6458981"><ele>6.0</ele><time>2026-04-07T17:13:37.545Z</time></trkpt><trkpt lat="44.7396011" lon="11.6460485"><ele>6.0</ele><time>2026-04-07T17:13:38.546Z</time></trkpt><trkpt lat="44.7394431" lon="11.6462324"><ele>6.0</ele><time>2026-04-07T17:13:39.546Z</time></trkpt><trkpt lat="44.7392769" lon="11.6463672"><ele>6.0</ele><time>2026-04-07T17:13:40.539Z</time></trkpt><trkpt lat="44.7391162" lon="11.6464693"><ele>6.0</ele><time>2026-04-07T17:13:41.555Z</time></trkpt><trkpt lat="44.7389502" lon="11.6465842"><ele>6.0</ele><time>2026-04-07T17:13:42.555Z</time></trkpt><trkpt lat="44.738801" lon="11.6467009"><ele>6.0</ele><time>2026-04-07T17:13:43.547Z</time></trkpt><trkpt lat="44.7386432" lon="11.6468015"><ele>6.0</ele><time>2026-04-07T17:13:44.547Z</time></trkpt><trkpt lat="44.7384997" lon="11.6469405"><ele>6.0</ele><time>2026-04-07T17:13:45.543Z</time></trkpt><trkpt lat="44.7383859" lon="11.6470402"><ele>5.666666666666667</ele><time>2026-04-07T17:13:46.548Z</time></trkpt><trkpt lat="44.738284" lon="11.6471335"><ele>5.333333333333334</ele><time>2026-04-07T17:13:47.552Z</time></trkpt><trkpt lat="44.738137" lon="11.6471851"><ele>5.0</ele><time>2026-04-07T17:13:48.545Z</time></trkpt><trkpt lat="44.7379656" lon="11.6472574"><ele>5.0</ele><time>2026-04-07T17:13:49.547Z</time></trkpt><trkpt lat="44.7378343" lon="11.647336"><ele>5.0</ele><time>2026-04-07T17:13:50.549Z</time></trkpt><trkpt lat="44.7377124" lon="11.6474447"><ele>5.0</ele><time>2026-04-07T17:13:51.55Z</time></trkpt><trkpt lat="44.7376031" lon="11.6475317"><ele>5.0</ele><time>2026-04-07T17:13:52.548Z</time></trkpt><trkpt lat="44.7374917" lon="11.6476256"><ele>5.4</ele><time>2026-04-07T17:13:53.553Z</time></trkpt><trkpt lat="44.7374035" lon="11.6477417"><ele>5.8</ele><time>2026-04-07T17:13:54.547Z</time></trkpt><trkpt lat="44.7373144" lon="11.6477818"><ele>6.199999999999999</ele><time>2026-04-07T17:13:55.542Z</time></trkpt><trkpt lat="44.7372515" lon="11.6477723"><ele>6.6</ele><time>2026-04-07T17:13:56.545Z</time></trkpt><trkpt lat="44.7371619" lon="11.6477077"><ele>7.0</ele><time>2026-04-07T17:13:57.54Z</time></trkpt><trkpt lat="44.7370909" lon="11.6476462"><ele>7.0</ele><time>2026-04-07T17:13:58.543Z</time></trkpt><trkpt lat="44.737022" lon="11.6475301"><ele>7.0</ele><time>2026-04-07T17:13:59.549Z</time></trkpt><trkpt lat="44.7369342" lon="11.6473344"><ele>7.0</ele><time>2026-04-07T17:14:00.542Z</time></trkpt><trkpt lat="44.7368589" lon="11.6471256"><ele>7.0</ele><time>2026-04-07T17:14:01.544Z</time></trkpt><trkpt lat="44.73678" lon="11.6469078"><ele>8.0</ele><time>2026-04-07T17:14:02.543Z</time></trkpt><trkpt lat="44.7367012" lon="11.6466694"><ele>9.0</ele><time>2026-04-07T17:14:03.539Z</time></trkpt><trkpt lat="44.73661" lon="11.6464964"><ele>10.0</ele><time>2026-04-07T17:14:04.556Z</time></trkpt><trkpt lat="44.7365509" lon="11.6463595"><ele>10.0</ele><time>2026-04-07T17:14:05.541Z</time></trkpt><trkpt lat="44.7365218" lon="11.6462558"><ele>10.0</ele><time>2026-04-07T17:14:06.536Z</time></trkpt><trkpt lat="44.7364902" lon="11.6461677"><ele>10.0</ele><time>2026-04-07T17:15:32.54Z</time></trkpt><trkpt lat="44.7364501" lon="11.6460346"><ele>10.0</ele><time>2026-04-07T17:15:35.531Z</time></trkpt><trkpt lat="44.7364164" lon="11.6459288"><ele>10.0</ele><time>2026-04-07T17:15:36.536Z</time></trkpt><trkpt lat="44.7363606" lon="11.6457603"><ele>9.666666666666668</ele><time>2026-04-07T17:15:37.532Z</time></trkpt><trkpt lat="44.7362813" lon="11.6455542"><ele>9.333333333333334</ele><time>2026-04-07T17:15:38.532Z</time></trkpt><trkpt lat="44.7361903" lon="11.6453327"><ele>9.0</ele><time>2026-04-07T17:15:39.55Z</time></trkpt><trkpt lat="44.7360862" lon="11.6450414"><ele>9.0</ele><time>2026-04-07T17:15:40.53Z</time></trkpt><trkpt lat="44.735942" lon="11.6447342"><ele>9.0</ele><time>2026-04-07T17:15:41.538Z</time></trkpt><trkpt lat="44.7357969" lon="11.6444527"><ele>9.0</ele><time>2026-04-07T17:15:42.545Z</time></trkpt><trkpt lat="44.7356611" lon="11.6441975"><ele>9.0</ele><time>2026-04-07T17:15:43.544Z</time></trkpt><trkpt lat="44.7355435" lon="11.6439334"><ele>9.0</ele><time>2026-04-07T17:15:44.541Z</time></trkpt><trkpt lat="44.7354409" lon="11.6436989"><ele>8.333333333333334</ele><time>2026-04-07T17:15:45.541Z</time></trkpt><trkpt lat="44.7353478" lon="11.6434809"><ele>7.666666666666667</ele><time>2026-04-07T17:15:46.542Z</time></trkpt><trkpt lat="44.7352571" lon="11.643254"><ele>7.0</ele><time>2026-04-07T17:15:47.544Z</time></trkpt><trkpt lat="44.7351585" lon="11.6429865"><ele>8.0</ele><time>2026-04-07T17:15:48.541Z</time></trkpt><trkpt lat="44.7350612" lon="11.6427185"><ele>9.0</ele><time>2026-04-07T17:15:49.539Z</time></trkpt><trkpt lat="44.7349472" lon="11.6424523"><ele>10.0</ele><time>2026-04-07T17:15:50.542Z</time></trkpt><trkpt lat="44.7348337" lon="11.6421716"><ele>9.666666666666668</ele><time>2026-04-07T17:15:51.542Z</time></trkpt><trkpt lat="44.7347465" lon="11.6419586"><ele>9.333333333333334</ele><time>2026-04-07T17:15:52.542Z</time></trkpt><trkpt lat="44.7346601" lon="11.6417431"><ele>9.0</ele><time>2026-04-07T17:15:53.538Z</time></trkpt><trkpt lat="44.7345846" lon="11.6415095"><ele>9.0</ele><time>2026-04-07T17:15:54.544Z</time></trkpt><trkpt lat="44.7345139" lon="11.6412877"><ele>9.0</ele><time>2026-04-07T17:15:55.541Z</time></trkpt><trkpt lat="44.7344165" lon="11.641043"><ele>9.0</ele><time>2026-04-07T17:15:56.534Z</time></trkpt><trkpt lat="44.7343085" lon="11.6408034"><ele>9.0</ele><time>2026-04-07T17:15:57.54Z</time></trkpt><trkpt lat="44.7342251" lon="11.640599"><ele>9.0</ele><time>2026-04-07T17:15:58.541Z</time></trkpt><trkpt lat="44.734153" lon="11.6404114"><ele>9.0</ele><time>2026-04-07T17:15:59.537Z</time></trkpt><trkpt lat="44.7340995" lon="11.6402969"><ele>9.0</ele><time>2026-04-07T17:16:00.531Z</time></trkpt><trkpt lat="44.7340538" lon="11.6401944"><ele>9.0</ele><time>2026-04-07T17:16:01.545Z</time></trkpt><trkpt lat="44.7340144" lon="11.6401085"><ele>9.0</ele><time>2026-04-07T17:16:02.543Z</time></trkpt><trkpt lat="44.7339876" lon="11.6400064"><ele>9.0</ele><time>2026-04-07T17:16:04.543Z</time></trkpt><trkpt lat="44.7339246" lon="11.6398814"><ele>9.0</ele><time>2026-04-07T17:16:49.543Z</time></trkpt><trkpt lat="44.7338734" lon="11.6397626"><ele>9.0</ele><time>2026-04-07T17:16:50.539Z</time></trkpt><trkpt lat="44.7338162" lon="11.6396211"><ele>9.0</ele><time>2026-04-07T17:16:51.541Z</time></trkpt><trkpt lat="44.7337503" lon="11.6394626"><ele>9.0</ele><time>2026-04-07T17:16:52.539Z</time></trkpt><trkpt lat="44.7336756" lon="11.6392886"><ele>9.0</ele><time>2026-04-07T17:16:53.534Z</time></trkpt><trkpt lat="44.7336047" lon="11.6391261"><ele>9.0</ele><time>2026-04-07T17:16:54.532Z</time></trkpt><trkpt lat="44.7335479" lon="11.6389675"><ele>9.25</ele><time>2026-04-07T17:16:55.535Z</time></trkpt><trkpt lat="44.7334856" lon="11.6388196"><ele>9.5</ele><time>2026-04-07T17:16:56.536Z</time></trkpt><trkpt lat="44.7334237" lon="11.6386621"><ele>9.75</ele><time>2026-04-07T17:16:57.547Z</time></trkpt><trkpt lat="44.7333552" lon="11.6384978"><ele>10.0</ele><time>2026-04-07T17:16:58.547Z</time></trkpt><trkpt lat="44.7332809" lon="11.6383198"><ele>10.0</ele><time>2026-04-07T17:16:59.571Z</time></trkpt><trkpt lat="44.7331914" lon="11.63809"><ele>10.0</ele><time>2026-04-07T17:17:00.54Z</time></trkpt><trkpt lat="44.7330906" lon="11.6378506"><ele>10.0</ele><time>2026-04-07T17:17:01.547Z</time></trkpt><trkpt lat="44.7329852" lon="11.6376345"><ele>9.666666666666668</ele><time>2026-04-07T17:17:02.538Z</time></trkpt><trkpt lat="44.7328872" lon="11.6373925"><ele>9.333333333333334</ele><time>2026-04-07T17:17:03.54Z</time></trkpt><trkpt lat="44.7327841" lon="11.6371562"><ele>9.0</ele><time>2026-04-07T17:17:04.541Z</time></trkpt><trkpt lat="44.7326915" lon="11.6369562"><ele>9.666666666666666</ele><time>2026-04-07T17:17:05.54Z</time></trkpt><trkpt lat="44.7325951" lon="11.6367151"><ele>10.333333333333332</ele><time>2026-04-07T17:17:06.535Z</time></trkpt><trkpt lat="44.7324859" lon="11.6364617"><ele>11.0</ele><time>2026-04-07T17:17:07.535Z</time></trkpt><trkpt lat="44.7323896" lon="11.636199"><ele>11.333333333333332</ele><time>2026-04-07T17:17:08.544Z</time></trkpt><trkpt lat="44.7322931" lon="11.6359639"><ele>11.666666666666666</ele><time>2026-04-07T17:17:09.541Z</time></trkpt><trkpt lat="44.7321945" lon="11.6356987"><ele>12.0</ele><time>2026-04-07T17:17:10.547Z</time></trkpt><trkpt lat="44.7320842" lon="11.6354376"><ele>12.333333333333332</ele><time>2026-04-07T17:17:11.54Z</time></trkpt><trkpt lat="44.7319877" lon="11.6352332"><ele>12.666666666666666</ele><time>2026-04-07T17:17:12.539Z</time></trkpt><trkpt lat="44.7318936" lon="11.6350259"><ele>13.0</ele><time>2026-04-07T17:17:13.537Z</time></trkpt><trkpt lat="44.7318163" lon="11.6348194"><ele>12.5</ele><time>2026-04-07T17:17:14.543Z</time></trkpt><trkpt lat="44.7317624" lon="11.6346823"><ele>12.0</ele><time>2026-04-07T17:17:15.538Z</time></trkpt><trkpt lat="44.7316959" lon="11.6345417"><ele>11.5</ele><time>2026-04-07T17:17:16.547Z</time></trkpt><trkpt lat="44.731612" lon="11.6344062"><ele>11.0</ele><time>2026-04-07T17:17:17.563Z</time></trkpt><trkpt lat="44.7315454" lon="11.634244"><ele>11.0</ele><time>2026-04-07T17:17:18.546Z</time></trkpt><trkpt lat="44.7314981" lon="11.6340784"><ele>11.0</ele><time>2026-04-07T17:17:19.548Z</time></trkpt><trkpt lat="44.7314245" lon="11.6339033"><ele>11.0</ele><time>2026-04-07T17:17:20.545Z</time></trkpt><trkpt lat="44.7313648" lon="11.6337106"><ele>11.0</ele><time>2026-04-07T17:17:21.543Z</time></trkpt><trkpt lat="44.7312874" lon="11.6335196"><ele>11.0</ele><time>2026-04-07T17:17:22.548Z</time></trkpt><trkpt lat="44.7312074" lon="11.6333149"><ele>11.0</ele><time>2026-04-07T17:17:23.542Z</time></trkpt><trkpt lat="44.7311232" lon="11.6330713"><ele>11.0</ele><time>2026-04-07T17:17:24.544Z</time></trkpt><trkpt lat="44.7310218" lon="11.6328111"><ele>10.666666666666666</ele><time>2026-04-07T17:17:25.536Z</time></trkpt><trkpt lat="44.7309169" lon="11.6325518"><ele>10.333333333333334</ele><time>2026-04-07T17:17:26.541Z</time></trkpt><trkpt lat="44.7308282" lon="11.6323301"><ele>10.0</ele><time>2026-04-07T17:17:27.537Z</time></trkpt><trkpt lat="44.7307252" lon="11.6320866"><ele>10.333333333333334</ele><time>2026-04-07T17:17:28.547Z</time></trkpt><trkpt lat="44.730635" lon="11.6318469"><ele>10.666666666666666</ele><time>2026-04-07T17:17:29.541Z</time></trkpt><trkpt lat="44.7305394" lon="11.6316152"><ele>11.0</ele><time>2026-04-07T17:17:30.544Z</time></trkpt><trkpt lat="44.7304237" lon="11.6313894"><ele>10.333333333333332</ele><time>2026-04-07T17:17:31.542Z</time></trkpt><trkpt lat="44.7303163" lon="11.6311394"><ele>9.666666666666666</ele><time>2026-04-07T17:17:32.541Z</time></trkpt><trkpt lat="44.7302053" lon="11.6308547"><ele>9.0</ele><time>2026-04-07T17:17:33.539Z</time></trkpt><trkpt lat="44.7300909" lon="11.6305804"><ele>9.0</ele><time>2026-04-07T17:17:34.549Z</time></trkpt><trkpt lat="44.7299976" lon="11.6303403"><ele>9.0</ele><time>2026-04-07T17:17:35.538Z</time></trkpt><trkpt lat="44.7299091" lon="11.6301259"><ele>9.0</ele><time>2026-04-07T17:17:36.547Z</time></trkpt><trkpt lat="44.7298199" lon="11.6299145"><ele>9.0</ele><time>2026-04-07T17:17:37.538Z</time></trkpt><trkpt lat="44.7297193" lon="11.629697"><ele>9.0</ele><time>2026-04-07T17:17:38.551Z</time></trkpt><trkpt lat="44.7296329" lon="11.6294768"><ele>9.0</ele><time>2026-04-07T17:17:39.545Z</time></trkpt><trkpt lat="44.7295528" lon="11.629256"><ele>9.0</ele><time>2026-04-07T17:17:40.549Z</time></trkpt><trkpt lat="44.729469" lon="11.6290368"><ele>9.0</ele><time>2026-04-07T17:17:41.546Z</time></trkpt><trkpt lat="44.7293775" lon="11.6287846"><ele>9.0</ele><time>2026-04-07T17:17:42.544Z</time></trkpt><trkpt lat="44.7293003" lon="11.6285423"><ele>9.0</ele><time>2026-04-07T17:17:43.547Z</time></trkpt><trkpt lat="44.7292004" lon="11.6282727"><ele>9.0</ele><time>2026-04-07T17:17:44.543Z</time></trkpt><trkpt lat="44.7291108" lon="11.6280464"><ele>9.0</ele><time>2026-04-07T17:17:45.548Z</time></trkpt><trkpt lat="44.7290173" lon="11.627811"><ele>8.666666666666666</ele><time>2026-04-07T17:17:46.535Z</time></trkpt><trkpt lat="44.7289327" lon="11.627581"><ele>8.333333333333332</ele><time>2026-04-07T17:17:47.547Z</time></trkpt><trkpt lat="44.728861" lon="11.627345"><ele>8.0</ele><time>2026-04-07T17:17:48.541Z</time></trkpt><trkpt lat="44.7287659" lon="11.6271024"><ele>8.333333333333332</ele><time>2026-04-07T17:17:49.543Z</time></trkpt><trkpt lat="44.7286602" lon="11.6268576"><ele>8.666666666666666</ele><time>2026-04-07T17:17:50.544Z</time></trkpt><trkpt lat="44.7285613" lon="11.6265946"><ele>9.0</ele><time>2026-04-07T17:17:51.546Z</time></trkpt><trkpt lat="44.7284553" lon="11.6263422"><ele>9.0</ele><time>2026-04-07T17:17:52.545Z</time></trkpt><trkpt lat="44.7283314" lon="11.6260833"><ele>9.0</ele><time>2026-04-07T17:17:53.543Z</time></trkpt><trkpt lat="44.7282238" lon="11.6258189"><ele>9.0</ele><time>2026-04-07T17:17:54.537Z</time></trkpt><trkpt lat="44.7281032" lon="11.6255464"><ele>8.333333333333334</ele><time>2026-04-07T17:17:55.546Z</time></trkpt><trkpt lat="44.7279963" lon="11.6252844"><ele>7.666666666666667</ele><time>2026-04-07T17:17:56.537Z</time></trkpt><trkpt lat="44.7278939" lon="11.6250377"><ele>7.0</ele><time>2026-04-07T17:17:57.548Z</time></trkpt><trkpt lat="44.7278054" lon="11.6247986"><ele>7.333333333333334</ele><time>2026-04-07T17:17:58.542Z</time></trkpt><trkpt lat="44.7277179" lon="11.6245539"><ele>7.666666666666666</ele><time>2026-04-07T17:17:59.543Z</time></trkpt><trkpt lat="44.7276164" lon="11.624305"><ele>8.0</ele><time>2026-04-07T17:18:00.539Z</time></trkpt><trkpt lat="44.7275141" lon="11.6240436"><ele>8.0</ele><time>2026-04-07T17:18:01.539Z</time></trkpt><trkpt lat="44.7274029" lon="11.6237785"><ele>8.0</ele><time>2026-04-07T17:18:02.534Z</time></trkpt><trkpt lat="44.7272712" lon="11.623498"><ele>7.5</ele><time>2026-04-07T17:18:03.537Z</time></trkpt><trkpt lat="44.7271349" lon="11.6231873"><ele>7.0</ele><time>2026-04-07T17:18:04.563Z</time></trkpt><trkpt lat="44.7269995" lon="11.6228694"><ele>5.5</ele><time>2026-04-07T17:18:05.575Z</time></trkpt><trkpt lat="44.726855" lon="11.6225369"><ele>4.0</ele><time>2026-04-07T17:18:06.547Z</time></trkpt><trkpt lat="44.7267231" lon="11.6222356"><ele>4.5</ele><time>2026-04-07T17:18:07.555Z</time></trkpt><trkpt lat="44.7266045" lon="11.6219404"><ele>5.0</ele><time>2026-04-07T17:18:08.552Z</time></trkpt><trkpt lat="44.726488" lon="11.6216509"><ele>5.0</ele><time>2026-04-07T17:18:09.552Z</time></trkpt><trkpt lat="44.7263585" lon="11.6213495"><ele>5.0</ele><time>2026-04-07T17:18:10.547Z</time></trkpt><trkpt lat="44.7262286" lon="11.621062"><ele>5.333333333333334</ele><time>2026-04-07T17:18:11.55Z</time></trkpt><trkpt lat="44.7261138" lon="11.6207829"><ele>5.666666666666667</ele><time>2026-04-07T17:18:12.546Z</time></trkpt><trkpt lat="44.7260081" lon="11.620511"><ele>6.0</ele><time>2026-04-07T17:18:13.544Z</time></trkpt><trkpt lat="44.7259046" lon="11.6202535"><ele>6.0</ele><time>2026-04-07T17:18:14.548Z</time></trkpt><trkpt lat="44.7257928" lon="11.6200079"><ele>6.0</ele><time>2026-04-07T17:18:15.553Z</time></trkpt><trkpt lat="44.7256848" lon="11.6197537"><ele>6.0</ele><time>2026-04-07T17:18:16.548Z</time></trkpt><trkpt lat="44.7255783" lon="11.6194854"><ele>6.5</ele><time>2026-04-07T17:18:17.551Z</time></trkpt><trkpt lat="44.7254682" lon="11.6192046"><ele>7.0</ele><time>2026-04-07T17:18:18.544Z</time></trkpt><trkpt lat="44.7253536" lon="11.6189224"><ele>7.0</ele><time>2026-04-07T17:18:19.555Z</time></trkpt><trkpt lat="44.7252362" lon="11.6186382"><ele>7.0</ele><time>2026-04-07T17:18:20.548Z</time></trkpt><trkpt lat="44.7251225" lon="11.6183485"><ele>7.5</ele><time>2026-04-07T17:18:21.553Z</time></trkpt><trkpt lat="44.7249953" lon="11.618051"><ele>8.0</ele><time>2026-04-07T17:18:22.549Z</time></trkpt><trkpt lat="44.7248623" lon="11.6177499"><ele>8.0</ele><time>2026-04-07T17:18:23.549Z</time></trkpt><trkpt lat="44.7247306" lon="11.6174452"><ele>8.0</ele><time>2026-04-07T17:18:24.55Z</time></trkpt><trkpt lat="44.7246054" lon="11.6171163"><ele>7.5</ele><time>2026-04-07T17:18:25.548Z</time></trkpt><trkpt lat="44.7244823" lon="11.6167851"><ele>7.0</ele><time>2026-04-07T17:18:26.548Z</time></trkpt><trkpt lat="44.7243527" lon="11.6164524"><ele>7.5</ele><time>2026-04-07T17:18:27.546Z</time></trkpt><trkpt lat="44.7242267" lon="11.6161472"><ele>8.0</ele><time>2026-04-07T17:18:28.558Z</time></trkpt><trkpt lat="44.7240889" lon="11.6158183"><ele>8.0</ele><time>2026-04-07T17:18:29.55Z</time></trkpt><trkpt lat="44.7239599" lon="11.6155021"><ele>8.0</ele><time>2026-04-07T17:18:30.543Z</time></trkpt><trkpt lat="44.7238334" lon="11.6151871"><ele>7.5</ele><time>2026-04-07T17:18:31.548Z</time></trkpt><trkpt lat="44.7237032" lon="11.6148733"><ele>7.0</ele><time>2026-04-07T17:18:32.546Z</time></trkpt><trkpt lat="44.7235804" lon="11.6145589"><ele>7.0</ele><time>2026-04-07T17:18:33.549Z</time></trkpt><trkpt lat="44.7234364" lon="11.6142301"><ele>7.0</ele><time>2026-04-07T17:18:34.558Z</time></trkpt><trkpt lat="44.7232943" lon="11.6139007"><ele>6.5</ele><time>2026-04-07T17:18:35.547Z</time></trkpt><trkpt lat="44.7231545" lon="11.6136056"><ele>6.0</ele><time>2026-04-07T17:18:36.573Z</time></trkpt><trkpt lat="44.7230075" lon="11.6132798"><ele>6.0</ele><time>2026-04-07T17:18:37.552Z</time></trkpt><trkpt lat="44.722877" lon="11.6129678"><ele>6.0</ele><time>2026-04-07T17:18:38.55Z</time></trkpt><trkpt lat="44.7227348" lon="11.6126584"><ele>6.0</ele><time>2026-04-07T17:18:39.55Z</time></trkpt><trkpt lat="44.7226013" lon="11.6123511"><ele>6.0</ele><time>2026-04-07T17:18:40.55Z</time></trkpt><trkpt lat="44.7224699" lon="11.6120358"><ele>6.0</ele><time>2026-04-07T17:18:41.547Z</time></trkpt><trkpt lat="44.7223335" lon="11.6117273"><ele>6.0</ele><time>2026-04-07T17:18:42.553Z</time></trkpt><trkpt lat="44.7222049" lon="11.6114203"><ele>5.5</ele><time>2026-04-07T17:18:43.549Z</time></trkpt><trkpt lat="44.7220763" lon="11.611113"><ele>5.0</ele><time>2026-04-07T17:18:44.551Z</time></trkpt><trkpt lat="44.7219362" lon="11.6108071"><ele>4.5</ele><time>2026-04-07T17:18:45.548Z</time></trkpt><trkpt lat="44.7218055" lon="11.6104974"><ele>4.0</ele><time>2026-04-07T17:18:46.55Z</time></trkpt><trkpt lat="44.7216762" lon="11.6101952"><ele>5.0</ele><time>2026-04-07T17:18:47.547Z</time></trkpt><trkpt lat="44.7215441" lon="11.6098972"><ele>6.0</ele><time>2026-04-07T17:18:48.552Z</time></trkpt><trkpt lat="44.7214135" lon="11.609574"><ele>6.0</ele><time>2026-04-07T17:18:49.55Z</time></trkpt><trkpt lat="44.7212765" lon="11.6092586"><ele>6.0</ele><time>2026-04-07T17:18:50.549Z</time></trkpt><trkpt lat="44.7211577" lon="11.6089509"><ele>6.0</ele><time>2026-04-07T17:18:51.552Z</time></trkpt><trkpt lat="44.7210335" lon="11.6086348"><ele>6.0</ele><time>2026-04-07T17:18:52.56Z</time></trkpt><trkpt lat="44.7209029" lon="11.6083209"><ele>6.0</ele><time>2026-04-07T17:18:53.555Z</time></trkpt><trkpt lat="44.7207688" lon="11.6080172"><ele>6.0</ele><time>2026-04-07T17:18:54.552Z</time></trkpt><trkpt lat="44.7206361" lon="11.6077237"><ele>6.0</ele><time>2026-04-07T17:18:55.557Z</time></trkpt><trkpt lat="44.7204991" lon="11.6074099"><ele>6.0</ele><time>2026-04-07T17:18:56.548Z</time></trkpt><trkpt lat="44.7203687" lon="11.6070836"><ele>6.0</ele><time>2026-04-07T17:18:57.554Z</time></trkpt><trkpt lat="44.7202346" lon="11.6067659"><ele>6.0</ele><time>2026-04-07T17:18:58.556Z</time></trkpt><trkpt lat="44.7200895" lon="11.6064341"><ele>7.0</ele><time>2026-04-07T17:18:59.553Z</time></trkpt><trkpt lat="44.7199491" lon="11.6060978"><ele>8.0</ele><time>2026-04-07T17:19:00.552Z</time></trkpt><trkpt lat="44.7198175" lon="11.6057733"><ele>8.0</ele><time>2026-04-07T17:19:01.551Z</time></trkpt><trkpt lat="44.7196789" lon="11.6054275"><ele>8.0</ele><time>2026-04-07T17:19:02.548Z</time></trkpt><trkpt lat="44.7195312" lon="11.6051226"><ele>7.5</ele><time>2026-04-07T17:19:03.549Z</time></trkpt><trkpt lat="44.7193984" lon="11.6047897"><ele>7.0</ele><time>2026-04-07T17:19:04.55Z</time></trkpt><trkpt lat="44.7192567" lon="11.6044509"><ele>6.5</ele><time>2026-04-07T17:19:05.55Z</time></trkpt><trkpt lat="44.7191227" lon="11.6041226"><ele>6.0</ele><time>2026-04-07T17:19:06.553Z</time></trkpt><trkpt lat="44.7189933" lon="11.6037897"><ele>6.0</ele><time>2026-04-07T17:19:07.551Z</time></trkpt><trkpt lat="44.7188523" lon="11.6034465"><ele>6.0</ele><time>2026-04-07T17:19:08.548Z</time></trkpt><trkpt lat="44.7187171" lon="11.6031161"><ele>6.0</ele><time>2026-04-07T17:19:09.551Z</time></trkpt><trkpt lat="44.7185987" lon="11.6028275"><ele>6.0</ele><time>2026-04-07T17:19:10.555Z</time></trkpt><trkpt lat="44.7184911" lon="11.6025545"><ele>6.0</ele><time>2026-04-07T17:19:11.55Z</time></trkpt><trkpt lat="44.7183747" lon="11.6022711"><ele>6.0</ele><time>2026-04-07T17:19:12.543Z</time></trkpt><trkpt lat="44.7182849" lon="11.6019896"><ele>6.0</ele><time>2026-04-07T17:19:13.55Z</time></trkpt><trkpt lat="44.7181948" lon="11.6017466"><ele>6.0</ele><time>2026-04-07T17:19:14.549Z</time></trkpt><trkpt lat="44.718122" lon="11.6014732"><ele>6.0</ele><time>2026-04-07T17:19:15.544Z</time></trkpt><trkpt lat="44.7180521" lon="11.6012102"><ele>5.666666666666667</ele><time>2026-04-07T17:19:16.55Z</time></trkpt><trkpt lat="44.7179734" lon="11.600948"><ele>5.333333333333334</ele><time>2026-04-07T17:19:17.544Z</time></trkpt><trkpt lat="44.7179334" lon="11.6006801"><ele>5.0</ele><time>2026-04-07T17:19:18.553Z</time></trkpt><trkpt lat="44.7178916" lon="11.6004168"><ele>4.666666666666667</ele><time>2026-04-07T17:19:19.543Z</time></trkpt><trkpt lat="44.7178328" lon="11.6001567"><ele>4.333333333333333</ele><time>2026-04-07T17:19:20.546Z</time></trkpt><trkpt lat="44.7177075" lon="11.5999375"><ele>4.0</ele><time>2026-04-07T17:19:21.542Z</time></trkpt><trkpt lat="44.7175716" lon="11.5997062"><ele>5.0</ele><time>2026-04-07T17:19:22.554Z</time></trkpt><trkpt lat="44.7174288" lon="11.5993937"><ele>6.0</ele><time>2026-04-07T17:19:23.552Z</time></trkpt><trkpt lat="44.717307" lon="11.599119"><ele>6.0</ele><time>2026-04-07T17:19:24.548Z</time></trkpt><trkpt lat="44.717158" lon="11.598825"><ele>6.0</ele><time>2026-04-07T17:19:25.544Z</time></trkpt><trkpt lat="44.7170434" lon="11.5985599"><ele>5.666666666666667</ele><time>2026-04-07T17:19:26.543Z</time></trkpt><trkpt lat="44.7169004" lon="11.5983021"><ele>5.333333333333334</ele><time>2026-04-07T17:19:27.548Z</time></trkpt><trkpt lat="44.7168056" lon="11.5980542"><ele>5.0</ele><time>2026-04-07T17:19:28.555Z</time></trkpt><trkpt lat="44.7166646" lon="11.5977627"><ele>4.5</ele><time>2026-04-07T17:19:29.546Z</time></trkpt><trkpt lat="44.7165496" lon="11.5974702"><ele>4.0</ele><time>2026-04-07T17:19:30.551Z</time></trkpt><trkpt lat="44.7164163" lon="11.5971787"><ele>4.5</ele><time>2026-04-07T17:19:31.551Z</time></trkpt><trkpt lat="44.7162907" lon="11.5969037"><ele>5.0</ele><time>2026-04-07T17:19:32.551Z</time></trkpt><trkpt lat="44.7161465" lon="11.5966068"><ele>5.5</ele><time>2026-04-07T17:19:33.546Z</time></trkpt><trkpt lat="44.7160062" lon="11.5963032"><ele>6.0</ele><time>2026-04-07T17:19:34.549Z</time></trkpt><trkpt lat="44.7158678" lon="11.5959747"><ele>6.0</ele><time>2026-04-07T17:19:35.548Z</time></trkpt><trkpt lat="44.7157204" lon="11.5956062"><ele>6.0</ele><time>2026-04-07T17:19:36.545Z</time></trkpt><trkpt lat="44.7155647" lon="11.595285"><ele>6.5</ele><time>2026-04-07T17:19:37.549Z</time></trkpt><trkpt lat="44.715436" lon="11.5950015"><ele>7.0</ele><time>2026-04-07T17:19:38.544Z</time></trkpt><trkpt lat="44.7153126" lon="11.594727"><ele>7.0</ele><time>2026-04-07T17:19:39.55Z</time></trkpt><trkpt lat="44.7151813" lon="11.594447"><ele>7.0</ele><time>2026-04-07T17:19:40.545Z</time></trkpt><trkpt lat="44.7150575" lon="11.5941611"><ele>7.0</ele><time>2026-04-07T17:19:41.547Z</time></trkpt><trkpt lat="44.7149226" lon="11.593861"><ele>7.0</ele><time>2026-04-07T17:19:42.544Z</time></trkpt><trkpt lat="44.7148088" lon="11.5935719"><ele>7.0</ele><time>2026-04-07T17:19:43.549Z</time></trkpt><trkpt lat="44.7146738" lon="11.5932852"><ele>7.0</ele><time>2026-04-07T17:19:44.544Z</time></trkpt><trkpt lat="44.7145349" lon="11.5929877"><ele>6.666666666666667</ele><time>2026-04-07T17:19:45.549Z</time></trkpt><trkpt lat="44.714409" lon="11.5927132"><ele>6.333333333333334</ele><time>2026-04-07T17:19:46.548Z</time></trkpt><trkpt lat="44.7143023" lon="11.5924722"><ele>6.0</ele><time>2026-04-07T17:19:47.547Z</time></trkpt><trkpt lat="44.7142078" lon="11.5922436"><ele>6.0</ele><time>2026-04-07T17:19:48.546Z</time></trkpt><trkpt lat="44.7141168" lon="11.5920203"><ele>6.0</ele><time>2026-04-07T17:19:49.544Z</time></trkpt><trkpt lat="44.7140256" lon="11.591808"><ele>6.0</ele><time>2026-04-07T17:19:50.541Z</time></trkpt><trkpt lat="44.7139397" lon="11.5916416"><ele>5.8</ele><time>2026-04-07T17:19:51.543Z</time></trkpt><trkpt lat="44.7138666" lon="11.5914681"><ele>5.6</ele><time>2026-04-07T17:19:52.541Z</time></trkpt><trkpt lat="44.7138143" lon="11.5913257"><ele>5.4</ele><time>2026-04-07T17:19:53.541Z</time></trkpt><trkpt lat="44.7137794" lon="11.5912271"><ele>5.2</ele><time>2026-04-07T17:19:54.551Z</time></trkpt><trkpt lat="44.7137539" lon="11.5911435"><ele>5.0</ele><time>2026-04-07T17:19:55.544Z</time></trkpt><trkpt lat="44.7137102" lon="11.5910182"><ele>5.0</ele><time>2026-04-07T17:19:57.551Z</time></trkpt><trkpt lat="44.7136394" lon="11.5910121"><ele>5.0</ele><time>2026-04-07T17:19:59.548Z</time></trkpt><trkpt lat="44.7135236" lon="11.591058"><ele>5.0</ele><time>2026-04-07T17:20:01.54Z</time></trkpt><trkpt lat="44.7134373" lon="11.5911221"><ele>5.0</ele><time>2026-04-07T17:20:02.553Z</time></trkpt><trkpt lat="44.7133431" lon="11.5912214"><ele>5.0</ele><time>2026-04-07T17:20:03.555Z</time></trkpt><trkpt lat="44.713233" lon="11.5913453"><ele>5.333333333333334</ele><time>2026-04-07T17:20:04.55Z</time></trkpt><trkpt lat="44.7131137" lon="11.5914922"><ele>5.666666666666667</ele><time>2026-04-07T17:20:05.554Z</time></trkpt><trkpt lat="44.7129904" lon="11.5916405"><ele>6.0</ele><time>2026-04-07T17:20:06.574Z</time></trkpt><trkpt lat="44.7128243" lon="11.5918545"><ele>5.666666666666667</ele><time>2026-04-07T17:20:07.556Z</time></trkpt><trkpt lat="44.7126729" lon="11.592032"><ele>5.333333333333334</ele><time>2026-04-07T17:20:08.549Z</time></trkpt><trkpt lat="44.7125128" lon="11.5922216"><ele>5.0</ele><time>2026-04-07T17:20:09.575Z</time></trkpt><trkpt lat="44.7123476" lon="11.592384"><ele>5.0</ele><time>2026-04-07T17:20:10.57Z</time></trkpt><trkpt lat="44.7121887" lon="11.5925465"><ele>5.0</ele><time>2026-04-07T17:20:11.554Z</time></trkpt><trkpt lat="44.7120075" lon="11.5927273"><ele>5.0</ele><time>2026-04-07T17:20:12.543Z</time></trkpt><trkpt lat="44.7118347" lon="11.5929017"><ele>5.0</ele><time>2026-04-07T17:20:13.545Z</time></trkpt><trkpt lat="44.7116494" lon="11.5930894"><ele>5.0</ele><time>2026-04-07T17:20:14.555Z</time></trkpt><trkpt lat="44.7114463" lon="11.5932861"><ele>5.0</ele><time>2026-04-07T17:20:15.545Z</time></trkpt><trkpt lat="44.7112386" lon="11.5934788"><ele>5.0</ele><time>2026-04-07T17:20:16.551Z</time></trkpt><trkpt lat="44.711032" lon="11.5936756"><ele>5.5</ele><time>2026-04-07T17:20:17.555Z</time></trkpt><trkpt lat="44.710843" lon="11.5938655"><ele>6.0</ele><time>2026-04-07T17:20:18.552Z</time></trkpt><trkpt lat="44.7106514" lon="11.5940649"><ele>6.0</ele><time>2026-04-07T17:20:19.552Z</time></trkpt><trkpt lat="44.7104599" lon="11.5942618"><ele>6.0</ele><time>2026-04-07T17:20:20.553Z</time></trkpt><trkpt lat="44.7102563" lon="11.5944727"><ele>6.0</ele><time>2026-04-07T17:20:21.558Z</time></trkpt><trkpt lat="44.710056" lon="11.5946607"><ele>6.0</ele><time>2026-04-07T17:20:22.555Z</time></trkpt><trkpt lat="44.7098702" lon="11.5948679"><ele>6.0</ele><time>2026-04-07T17:20:23.722Z</time></trkpt><trkpt lat="44.7094802" lon="11.5952817"><ele>5.5</ele><time>2026-04-07T17:20:25.576Z</time></trkpt><trkpt lat="44.7092835" lon="11.5954867"><ele>5.0</ele><time>2026-04-07T17:20:26.556Z</time></trkpt><trkpt lat="44.7090622" lon="11.5956958"><ele>5.0</ele><time>2026-04-07T17:20:27.554Z</time></trkpt><trkpt lat="44.7088788" lon="11.5959195"><ele>5.0</ele><time>2026-04-07T17:20:28.551Z</time></trkpt><trkpt lat="44.7086822" lon="11.5961424"><ele>6.0</ele><time>2026-04-07T17:20:29.55Z</time></trkpt><trkpt lat="44.7084722" lon="11.5963385"><ele>7.0</ele><time>2026-04-07T17:20:30.557Z</time></trkpt><trkpt lat="44.7082682" lon="11.596538"><ele>7.0</ele><time>2026-04-07T17:20:31.551Z</time></trkpt><trkpt lat="44.7080807" lon="11.5967357"><ele>7.0</ele><time>2026-04-07T17:20:32.552Z</time></trkpt><trkpt lat="44.7078695" lon="11.5969174"><ele>7.0</ele><time>2026-04-07T17:20:33.542Z</time></trkpt><trkpt lat="44.7076869" lon="11.5971018"><ele>7.0</ele><time>2026-04-07T17:20:34.551Z</time></trkpt><trkpt lat="44.7075208" lon="11.59731"><ele>7.0</ele><time>2026-04-07T17:20:35.547Z</time></trkpt><trkpt lat="44.7073632" lon="11.5975068"><ele>7.0</ele><time>2026-04-07T17:20:36.547Z</time></trkpt><trkpt lat="44.7071614" lon="11.5976705"><ele>7.0</ele><time>2026-04-07T17:20:37.552Z</time></trkpt><trkpt lat="44.7069435" lon="11.5978618"><ele>6.5</ele><time>2026-04-07T17:20:38.544Z</time></trkpt><trkpt lat="44.7067341" lon="11.5980563"><ele>6.0</ele><time>2026-04-07T17:20:39.556Z</time></trkpt><trkpt lat="44.7065351" lon="11.5982695"><ele>6.0</ele><time>2026-04-07T17:20:40.552Z</time></trkpt><trkpt lat="44.7063114" lon="11.5985101"><ele>6.0</ele><time>2026-04-07T17:20:41.556Z</time></trkpt><trkpt lat="44.7060951" lon="11.5987317"><ele>5.5</ele><time>2026-04-07T17:20:42.55Z</time></trkpt><trkpt lat="44.7058758" lon="11.5989537"><ele>5.0</ele><time>2026-04-07T17:20:43.555Z</time></trkpt><trkpt lat="44.7056596" lon="11.5992082"><ele>5.0</ele><time>2026-04-07T17:20:44.559Z</time></trkpt><trkpt lat="44.705448" lon="11.5994439"><ele>5.0</ele><time>2026-04-07T17:20:45.55Z</time></trkpt><trkpt lat="44.7052299" lon="11.599685"><ele>5.5</ele><time>2026-04-07T17:20:46.551Z</time></trkpt><trkpt lat="44.7050077" lon="11.5998901"><ele>6.0</ele><time>2026-04-07T17:20:47.556Z</time></trkpt><trkpt lat="44.7048036" lon="11.6000898"><ele>6.0</ele><time>2026-04-07T17:20:48.549Z</time></trkpt><trkpt lat="44.7045957" lon="11.6003156"><ele>6.0</ele><time>2026-04-07T17:20:49.554Z</time></trkpt><trkpt lat="44.7043839" lon="11.6005394"><ele>5.5</ele><time>2026-04-07T17:20:50.553Z</time></trkpt><trkpt lat="44.7041607" lon="11.6007658"><ele>5.0</ele><time>2026-04-07T17:20:51.555Z</time></trkpt><trkpt lat="44.7039412" lon="11.6009849"><ele>5.0</ele><time>2026-04-07T17:20:52.552Z</time></trkpt><trkpt lat="44.7037233" lon="11.6012199"><ele>5.0</ele><time>2026-04-07T17:20:53.559Z</time></trkpt></trkseg><trkseg><trkpt lat="44.6947474" lon="11.5998226"><ele>7.999999999999999</ele><time>2026-04-07T17:24:49.348Z</time></trkpt><trkpt lat="44.6946798" lon="11.5998065"><ele>8.0</ele><time>2026-04-07T17:25:52.548Z</time></trkpt><trkpt lat="44.6946501" lon="11.5998954"><ele>8.0</ele><time>2026-04-07T17:26:35.544Z</time></trkpt><trkpt lat="44.6946014" lon="11.5999731"><ele>8.0</ele><time>2026-04-07T17:26:36.55Z</time></trkpt><trkpt lat="44.6945519" lon="11.6000821"><ele>7.999999999999999</ele><time>2026-04-07T17:26:37.545Z</time></trkpt><trkpt lat="44.694494" lon="11.6001883"><ele>8.0</ele><time>2026-04-07T17:26:38.551Z</time></trkpt><trkpt lat="44.6944427" lon="11.6002815"><ele>8.166666666666666</ele><time>2026-04-07T17:26:39.547Z</time></trkpt><trkpt lat="44.6944019" lon="11.6003596"><ele>8.333333333333332</ele><time>2026-04-07T17:26:40.551Z</time></trkpt><trkpt lat="44.69436" lon="11.6004397"><ele>8.5</ele><time>2026-04-07T17:26:41.547Z</time></trkpt><trkpt lat="44.6943231" lon="11.6005296"><ele>8.666666666666666</ele><time>2026-04-07T17:26:42.548Z</time></trkpt><trkpt lat="44.6942897" lon="11.60063"><ele>8.833333333333334</ele><time>2026-04-07T17:26:43.546Z</time></trkpt><trkpt lat="44.6942654" lon="11.6007494"><ele>9.0</ele><time>2026-04-07T17:26:44.544Z</time></trkpt><trkpt lat="44.6942661" lon="11.6009087"><ele>9.0</ele><time>2026-04-07T17:26:45.544Z</time></trkpt><trkpt lat="44.6942761" lon="11.6010865"><ele>9.0</ele><time>2026-04-07T17:26:46.566Z</time></trkpt><trkpt lat="44.6942962" lon="11.6012919"><ele>9.0</ele><time>2026-04-07T17:26:47.545Z</time></trkpt><trkpt lat="44.6943161" lon="11.6015604"><ele>8.333333333333334</ele><time>2026-04-07T17:26:48.547Z</time></trkpt><trkpt lat="44.6943511" lon="11.6018601"><ele>7.666666666666667</ele><time>2026-04-07T17:26:49.551Z</time></trkpt><trkpt lat="44.6943772" lon="11.6021101"><ele>7.0</ele><time>2026-04-07T17:26:50.551Z</time></trkpt><trkpt lat="44.6943925" lon="11.6024257"><ele>7.0</ele><time>2026-04-07T17:26:51.576Z</time></trkpt><trkpt lat="44.6944" lon="11.6027104"><ele>7.0</ele><time>2026-04-07T17:26:52.569Z</time></trkpt><trkpt lat="44.6944089" lon="11.6029784"><ele>7.0</ele><time>2026-04-07T17:26:53.552Z</time></trkpt><trkpt lat="44.6944196" lon="11.6032193"><ele>7.0</ele><time>2026-04-07T17:26:54.544Z</time></trkpt><trkpt lat="44.6944144" lon="11.60345"><ele>7.0</ele><time>2026-04-07T17:26:55.541Z</time></trkpt><trkpt lat="44.6944343" lon="11.603682"><ele>7.0</ele><time>2026-04-07T17:26:56.552Z</time></trkpt><trkpt lat="44.6944459" lon="11.6038912"><ele>7.0</ele><time>2026-04-07T17:26:57.547Z</time></trkpt><trkpt lat="44.6944569" lon="11.604112"><ele>7.0</ele><time>2026-04-07T17:26:58.551Z</time></trkpt><trkpt lat="44.694457" lon="11.6042749"><ele>7.0</ele><time>2026-04-07T17:26:59.554Z</time></trkpt><trkpt lat="44.6944862" lon="11.6045031"><ele>7.0</ele><time>2026-04-07T17:27:00.551Z</time></trkpt><trkpt lat="44.6944951" lon="11.6047554"><ele>7.0</ele><time>2026-04-07T17:27:01.551Z</time></trkpt><trkpt lat="44.6945213" lon="11.6050313"><ele>7.0</ele><time>2026-04-07T17:27:02.558Z</time></trkpt><trkpt lat="44.6945353" lon="11.605284"><ele>7.0</ele><time>2026-04-07T17:27:03.55Z</time></trkpt><trkpt lat="44.6945603" lon="11.6055696"><ele>6.5</ele><time>2026-04-07T17:27:04.547Z</time></trkpt><trkpt lat="44.6945846" lon="11.6059094"><ele>6.0</ele><time>2026-04-07T17:27:05.55Z</time></trkpt><trkpt lat="44.6946138" lon="11.6062523"><ele>6.0</ele><time>2026-04-07T17:27:06.553Z</time></trkpt><trkpt lat="44.6946463" lon="11.6066082"><ele>6.0</ele><time>2026-04-07T17:27:07.553Z</time></trkpt><trkpt lat="44.694675" lon="11.6069566"><ele>6.5</ele><time>2026-04-07T17:27:08.554Z</time></trkpt><trkpt lat="44.6947015" lon="11.6073"><ele>7.0</ele><time>2026-04-07T17:27:09.556Z</time></trkpt><trkpt lat="44.6947196" lon="11.6076039"><ele>6.666666666666667</ele><time>2026-04-07T17:27:10.547Z</time></trkpt><trkpt lat="44.6947266" lon="11.6078753"><ele>6.333333333333334</ele><time>2026-04-07T17:27:11.555Z</time></trkpt><trkpt lat="44.6947408" lon="11.6081658"><ele>6.0</ele><time>2026-04-07T17:27:12.55Z</time></trkpt><trkpt lat="44.6947661" lon="11.6084182"><ele>6.333333333333334</ele><time>2026-04-07T17:27:13.553Z</time></trkpt><trkpt lat="44.694785" lon="11.6086752"><ele>6.666666666666667</ele><time>2026-04-07T17:27:14.553Z</time></trkpt><trkpt lat="44.6947952" lon="11.6089071"><ele>7.0</ele><time>2026-04-07T17:27:15.549Z</time></trkpt><trkpt lat="44.6948097" lon="11.6091354"><ele>7.0</ele><time>2026-04-07T17:27:16.587Z</time></trkpt><trkpt lat="44.6948244" lon="11.6093256"><ele>7.0</ele><time>2026-04-07T17:27:17.548Z</time></trkpt><trkpt lat="44.6948286" lon="11.609488"><ele>7.0</ele><time>2026-04-07T17:27:18.556Z</time></trkpt><trkpt lat="44.694838" lon="11.6096376"><ele>7.0</ele><time>2026-04-07T17:27:19.547Z</time></trkpt><trkpt lat="44.6948515" lon="11.6097649"><ele>7.6</ele><time>2026-04-07T17:27:20.552Z</time></trkpt><trkpt lat="44.6948522" lon="11.6098547"><ele>8.2</ele><time>2026-04-07T17:27:21.552Z</time></trkpt><trkpt lat="44.69484" lon="11.6100384"><ele>8.8</ele><time>2026-04-07T17:27:23.558Z</time></trkpt><trkpt lat="44.6948118" lon="11.6101381"><ele>9.4</ele><time>2026-04-07T17:27:24.542Z</time></trkpt><trkpt lat="44.694742" lon="11.610247"><ele>10.0</ele><time>2026-04-07T17:27:25.539Z</time></trkpt><trkpt lat="44.6946325" lon="11.6103542"><ele>10.666666666666668</ele><time>2026-04-07T17:27:26.547Z</time></trkpt><trkpt lat="44.6945098" lon="11.6104687"><ele>11.333333333333334</ele><time>2026-04-07T17:27:27.547Z</time></trkpt><trkpt lat="44.6943584" lon="11.610635"><ele>12.0</ele><time>2026-04-07T17:27:28.542Z</time></trkpt><trkpt lat="44.6942093" lon="11.6108112"><ele>10.333333333333334</ele><time>2026-04-07T17:27:29.548Z</time></trkpt><trkpt lat="44.6940426" lon="11.6109503"><ele>8.666666666666668</ele><time>2026-04-07T17:27:30.545Z</time></trkpt><trkpt lat="44.6938669" lon="11.6111209"><ele>7.0</ele><time>2026-04-07T17:27:31.543Z</time></trkpt><trkpt lat="44.6937269" lon="11.6112853"><ele>6.666666666666667</ele><time>2026-04-07T17:27:32.543Z</time></trkpt><trkpt lat="44.6935849" lon="11.6114482"><ele>6.333333333333334</ele><time>2026-04-07T17:27:33.545Z</time></trkpt><trkpt lat="44.6934237" lon="11.6116171"><ele>6.0</ele><time>2026-04-07T17:27:34.55Z</time></trkpt><trkpt lat="44.6932548" lon="11.6117846"><ele>6.0</ele><time>2026-04-07T17:27:35.552Z</time></trkpt><trkpt lat="44.6930796" lon="11.6119857"><ele>6.0</ele><time>2026-04-07T17:27:36.558Z</time></trkpt><trkpt lat="44.692895" lon="11.6121805"><ele>5.5</ele><time>2026-04-07T17:27:37.553Z</time></trkpt><trkpt lat="44.6926968" lon="11.6123751"><ele>5.0</ele><time>2026-04-07T17:27:38.555Z</time></trkpt><trkpt lat="44.6925046" lon="11.6125713"><ele>5.0</ele><time>2026-04-07T17:27:39.554Z</time></trkpt><trkpt lat="44.6923132" lon="11.6127689"><ele>5.0</ele><time>2026-04-07T17:27:40.557Z</time></trkpt><trkpt lat="44.6921354" lon="11.6129189"><ele>5.0</ele><time>2026-04-07T17:27:41.569Z</time></trkpt><trkpt lat="44.6919526" lon="11.6130918"><ele>5.0</ele><time>2026-04-07T17:27:42.591Z</time></trkpt><trkpt lat="44.6917598" lon="11.6132924"><ele>5.0</ele><time>2026-04-07T17:27:43.562Z</time></trkpt><trkpt lat="44.6915584" lon="11.6135127"><ele>4.5</ele><time>2026-04-07T17:27:44.564Z</time></trkpt><trkpt lat="44.6913507" lon="11.6137515"><ele>4.0</ele><time>2026-04-07T17:27:45.568Z</time></trkpt><trkpt lat="44.6911594" lon="11.6139588"><ele>4.333333333333333</ele><time>2026-04-07T17:27:46.569Z</time></trkpt><trkpt lat="44.6909866" lon="11.6141353"><ele>4.666666666666667</ele><time>2026-04-07T17:27:47.563Z</time></trkpt><trkpt lat="44.6908184" lon="11.6143137"><ele>5.0</ele><time>2026-04-07T17:27:48.568Z</time></trkpt><trkpt lat="44.6906489" lon="11.6144734"><ele>5.0</ele><time>2026-04-07T17:27:49.556Z</time></trkpt><trkpt lat="44.6904547" lon="11.6146247"><ele>5.0</ele><time>2026-04-07T17:27:50.562Z</time></trkpt><trkpt lat="44.6902688" lon="11.6148179"><ele>5.5</ele><time>2026-04-07T17:27:51.554Z</time></trkpt><trkpt lat="44.690104" lon="11.6150288"><ele>6.0</ele><time>2026-04-07T17:27:52.562Z</time></trkpt><trkpt lat="44.6899244" lon="11.6152632"><ele>5.666666666666667</ele><time>2026-04-07T17:27:53.561Z</time></trkpt><trkpt lat="44.689776" lon="11.6154338"><ele>5.333333333333334</ele><time>2026-04-07T17:27:54.562Z</time></trkpt><trkpt lat="44.6896227" lon="11.6156035"><ele>5.0</ele><time>2026-04-07T17:27:55.553Z</time></trkpt><trkpt lat="44.6894477" lon="11.6157632"><ele>4.666666666666667</ele><time>2026-04-07T17:27:56.557Z</time></trkpt><trkpt lat="44.6893035" lon="11.6159424"><ele>4.333333333333333</ele><time>2026-04-07T17:27:57.559Z</time></trkpt><trkpt lat="44.6891462" lon="11.6161351"><ele>4.0</ele><time>2026-04-07T17:27:58.55Z</time></trkpt><trkpt lat="44.6889895" lon="11.6162904"><ele>4.0</ele><time>2026-04-07T17:27:59.565Z</time></trkpt><trkpt lat="44.6888174" lon="11.6164577"><ele>4.0</ele><time>2026-04-07T17:28:00.56Z</time></trkpt><trkpt lat="44.6886175" lon="11.6166231"><ele>4.0</ele><time>2026-04-07T17:28:01.554Z</time></trkpt><trkpt lat="44.6884155" lon="11.6167924"><ele>4.5</ele><time>2026-04-07T17:28:02.562Z</time></trkpt><trkpt lat="44.6882012" lon="11.6169971"><ele>5.0</ele><time>2026-04-07T17:28:03.566Z</time></trkpt><trkpt lat="44.6879976" lon="11.6171916"><ele>5.0</ele><time>2026-04-07T17:28:04.552Z</time></trkpt><trkpt lat="44.6877765" lon="11.6173791"><ele>5.0</ele><time>2026-04-07T17:28:05.562Z</time></trkpt><trkpt lat="44.6875521" lon="11.6176159"><ele>5.5</ele><time>2026-04-07T17:28:06.563Z</time></trkpt><trkpt lat="44.6873439" lon="11.6178518"><ele>6.0</ele><time>2026-04-07T17:28:07.554Z</time></trkpt><trkpt lat="44.6871791" lon="11.6180502"><ele>6.0</ele><time>2026-04-07T17:28:08.565Z</time></trkpt><trkpt lat="44.686976" lon="11.6182386"><ele>6.0</ele><time>2026-04-07T17:28:09.566Z</time></trkpt><trkpt lat="44.6867971" lon="11.6184193"><ele>6.5</ele><time>2026-04-07T17:28:10.566Z</time></trkpt><trkpt lat="44.6866191" lon="11.6186053"><ele>7.0</ele><time>2026-04-07T17:28:11.569Z</time></trkpt><trkpt lat="44.68642" lon="11.6188216"><ele>7.0</ele><time>2026-04-07T17:28:12.585Z</time></trkpt><trkpt lat="44.6861968" lon="11.6190417"><ele>7.0</ele><time>2026-04-07T17:28:13.554Z</time></trkpt><trkpt lat="44.685969" lon="11.6192619"><ele>7.0</ele><time>2026-04-07T17:28:14.558Z</time></trkpt><trkpt lat="44.685755" lon="11.619494"><ele>7.0</ele><time>2026-04-07T17:28:15.578Z</time></trkpt><trkpt lat="44.6855477" lon="11.6197376"><ele>7.0</ele><time>2026-04-07T17:28:16.566Z</time></trkpt><trkpt lat="44.6853256" lon="11.619993"><ele>7.0</ele><time>2026-04-07T17:28:17.561Z</time></trkpt><trkpt lat="44.6851219" lon="11.6201963"><ele>6.0</ele><time>2026-04-07T17:28:18.554Z</time></trkpt><trkpt lat="44.6849122" lon="11.6203849"><ele>5.0</ele><time>2026-04-07T17:28:19.55Z</time></trkpt><trkpt lat="44.6847149" lon="11.6205698"><ele>5.0</ele><time>2026-04-07T17:28:20.558Z</time></trkpt><trkpt lat="44.6845435" lon="11.6207522"><ele>5.0</ele><time>2026-04-07T17:28:21.55Z</time></trkpt><trkpt lat="44.6843688" lon="11.6209544"><ele>5.0</ele><time>2026-04-07T17:28:22.549Z</time></trkpt><trkpt lat="44.684174" lon="11.6211289"><ele>5.0</ele><time>2026-04-07T17:28:23.559Z</time></trkpt><trkpt lat="44.6839651" lon="11.6213323"><ele>5.0</ele><time>2026-04-07T17:28:24.554Z</time></trkpt><trkpt lat="44.683757" lon="11.6215766"><ele>5.0</ele><time>2026-04-07T17:28:25.545Z</time></trkpt><trkpt lat="44.6835739" lon="11.6217879"><ele>5.0</ele><time>2026-04-07T17:28:26.557Z</time></trkpt><trkpt lat="44.6833839" lon="11.6219922"><ele>4.5</ele><time>2026-04-07T17:28:27.555Z</time></trkpt><trkpt lat="44.6832081" lon="11.6221811"><ele>4.0</ele><time>2026-04-07T17:28:28.553Z</time></trkpt><trkpt lat="44.6830317" lon="11.6223884"><ele>4.0</ele><time>2026-04-07T17:28:29.556Z</time></trkpt><trkpt lat="44.6828539" lon="11.6225873"><ele>4.0</ele><time>2026-04-07T17:28:30.551Z</time></trkpt><trkpt lat="44.6826482" lon="11.6227683"><ele>3.5</ele><time>2026-04-07T17:28:31.551Z</time></trkpt><trkpt lat="44.6824374" lon="11.6229822"><ele>3.0</ele><time>2026-04-07T17:28:32.555Z</time></trkpt><trkpt lat="44.6822255" lon="11.6231473"><ele>3.0</ele><time>2026-04-07T17:28:33.548Z</time></trkpt><trkpt lat="44.6820201" lon="11.6233311"><ele>3.0</ele><time>2026-04-07T17:28:34.552Z</time></trkpt><trkpt lat="44.6818092" lon="11.6234987"><ele>3.0</ele><time>2026-04-07T17:28:35.559Z</time></trkpt><trkpt lat="44.6816039" lon="11.6236828"><ele>3.0</ele><time>2026-04-07T17:28:36.551Z</time></trkpt><trkpt lat="44.6814178" lon="11.6238716"><ele>3.0</ele><time>2026-04-07T17:28:37.553Z</time></trkpt><trkpt lat="44.6812286" lon="11.6240676"><ele>3.0</ele><time>2026-04-07T17:28:38.556Z</time></trkpt><trkpt lat="44.6810344" lon="11.6242796"><ele>3.0</ele><time>2026-04-07T17:28:39.557Z</time></trkpt><trkpt lat="44.6808332" lon="11.6244941"><ele>3.0</ele><time>2026-04-07T17:28:40.558Z</time></trkpt><trkpt lat="44.680607" lon="11.6246932"><ele>3.0</ele><time>2026-04-07T17:28:41.554Z</time></trkpt><trkpt lat="44.6803922" lon="11.6248869"><ele>3.0</ele><time>2026-04-07T17:28:42.56Z</time></trkpt><trkpt lat="44.680208" lon="11.6250766"><ele>4.0</ele><time>2026-04-07T17:28:43.557Z</time></trkpt><trkpt lat="44.6800223" lon="11.6252722"><ele>5.0</ele><time>2026-04-07T17:28:44.561Z</time></trkpt><trkpt lat="44.6798403" lon="11.6254551"><ele>5.0</ele><time>2026-04-07T17:28:45.564Z</time></trkpt><trkpt lat="44.6796518" lon="11.6256475"><ele>5.0</ele><time>2026-04-07T17:28:46.579Z</time></trkpt><trkpt lat="44.679469" lon="11.6258448"><ele>4.666666666666667</ele><time>2026-04-07T17:28:47.559Z</time></trkpt><trkpt lat="44.6792905" lon="11.6260276"><ele>4.333333333333333</ele><time>2026-04-07T17:28:48.56Z</time></trkpt><trkpt lat="44.6791113" lon="11.6262008"><ele>4.0</ele><time>2026-04-07T17:28:49.552Z</time></trkpt><trkpt lat="44.6789365" lon="11.6263606"><ele>4.0</ele><time>2026-04-07T17:28:50.557Z</time></trkpt><trkpt lat="44.6787696" lon="11.6265489"><ele>4.0</ele><time>2026-04-07T17:28:51.559Z</time></trkpt><trkpt lat="44.678582" lon="11.6267435"><ele>4.0</ele><time>2026-04-07T17:28:52.556Z</time></trkpt><trkpt lat="44.6784" lon="11.6269175"><ele>4.5</ele><time>2026-04-07T17:28:53.557Z</time></trkpt><trkpt lat="44.6782114" lon="11.6271207"><ele>5.0</ele><time>2026-04-07T17:28:54.556Z</time></trkpt><trkpt lat="44.6780168" lon="11.6273253"><ele>5.0</ele><time>2026-04-07T17:28:55.553Z</time></trkpt><trkpt lat="44.6777992" lon="11.6275505"><ele>5.0</ele><time>2026-04-07T17:28:56.557Z</time></trkpt><trkpt lat="44.6775958" lon="11.627783"><ele>6.0</ele><time>2026-04-07T17:28:57.566Z</time></trkpt><trkpt lat="44.6773815" lon="11.6279581"><ele>7.0</ele><time>2026-04-07T17:28:58.56Z</time></trkpt><trkpt lat="44.6771873" lon="11.6281294"><ele>7.0</ele><time>2026-04-07T17:28:59.561Z</time></trkpt><trkpt lat="44.6770109" lon="11.6283034"><ele>7.0</ele><time>2026-04-07T17:29:00.566Z</time></trkpt><trkpt lat="44.6768543" lon="11.6284966"><ele>7.0</ele><time>2026-04-07T17:29:01.552Z</time></trkpt><trkpt lat="44.6766921" lon="11.6286716"><ele>6.666666666666667</ele><time>2026-04-07T17:29:02.555Z</time></trkpt><trkpt lat="44.6765146" lon="11.6288158"><ele>6.333333333333334</ele><time>2026-04-07T17:29:03.563Z</time></trkpt><trkpt lat="44.676336" lon="11.6289885"><ele>6.0</ele><time>2026-04-07T17:29:04.56Z</time></trkpt><trkpt lat="44.6761566" lon="11.6291817"><ele>6.0</ele><time>2026-04-07T17:29:05.565Z</time></trkpt><trkpt lat="44.675988" lon="11.6293626"><ele>6.0</ele><time>2026-04-07T17:29:06.557Z</time></trkpt><trkpt lat="44.6758293" lon="11.6295357"><ele>6.0</ele><time>2026-04-07T17:29:07.562Z</time></trkpt><trkpt lat="44.6756694" lon="11.6296919"><ele>6.0</ele><time>2026-04-07T17:29:08.556Z</time></trkpt><trkpt lat="44.675493" lon="11.6298457"><ele>6.0</ele><time>2026-04-07T17:29:09.56Z</time></trkpt><trkpt lat="44.6753219" lon="11.6300161"><ele>6.0</ele><time>2026-04-07T17:29:10.562Z</time></trkpt><trkpt lat="44.6751575" lon="11.6301836"><ele>6.333333333333334</ele><time>2026-04-07T17:29:11.554Z</time></trkpt><trkpt lat="44.6749853" lon="11.6303517"><ele>6.666666666666667</ele><time>2026-04-07T17:29:12.552Z</time></trkpt><trkpt lat="44.6748178" lon="11.6305379"><ele>7.0</ele><time>2026-04-07T17:29:13.555Z</time></trkpt><trkpt lat="44.6746545" lon="11.6307204"><ele>7.0</ele><time>2026-04-07T17:29:14.547Z</time></trkpt><trkpt lat="44.6744812" lon="11.6309292"><ele>7.0</ele><time>2026-04-07T17:29:15.558Z</time></trkpt><trkpt lat="44.6742961" lon="11.6311639"><ele>6.0</ele><time>2026-04-07T17:29:16.569Z</time></trkpt><trkpt lat="44.6741144" lon="11.6313687"><ele>5.0</ele><time>2026-04-07T17:29:17.55Z</time></trkpt><trkpt lat="44.6739421" lon="11.631585"><ele>5.0</ele><time>2026-04-07T17:29:18.558Z</time></trkpt><trkpt lat="44.6737387" lon="11.6317773"><ele>5.0</ele><time>2026-04-07T17:29:19.552Z</time></trkpt><trkpt lat="44.6735387" lon="11.6319733"><ele>5.0</ele><time>2026-04-07T17:29:20.552Z</time></trkpt><trkpt lat="44.6733283" lon="11.6321952"><ele>5.0</ele><time>2026-04-07T17:29:21.553Z</time></trkpt><trkpt lat="44.6731181" lon="11.6324439"><ele>5.0</ele><time>2026-04-07T17:29:22.546Z</time></trkpt><trkpt lat="44.6728907" lon="11.6326891"><ele>5.0</ele><time>2026-04-07T17:29:23.554Z</time></trkpt><trkpt lat="44.6726511" lon="11.632936"><ele>5.0</ele><time>2026-04-07T17:29:24.553Z</time></trkpt><trkpt lat="44.6724414" lon="11.6331557"><ele>5.0</ele><time>2026-04-07T17:29:25.548Z</time></trkpt><trkpt lat="44.6722354" lon="11.6333454"><ele>5.0</ele><time>2026-04-07T17:29:26.555Z</time></trkpt><trkpt lat="44.672033" lon="11.6335367"><ele>5.0</ele><time>2026-04-07T17:29:27.553Z</time></trkpt><trkpt lat="44.67184" lon="11.6337335"><ele>5.0</ele><time>2026-04-07T17:29:28.546Z</time></trkpt><trkpt lat="44.6716409" lon="11.6339217"><ele>5.0</ele><time>2026-04-07T17:29:29.544Z</time></trkpt><trkpt lat="44.6714291" lon="11.6341334"><ele>5.0</ele><time>2026-04-07T17:29:30.551Z</time></trkpt><trkpt lat="44.6712195" lon="11.6343441"><ele>5.0</ele><time>2026-04-07T17:29:31.543Z</time></trkpt><trkpt lat="44.6710218" lon="11.6345482"><ele>5.0</ele><time>2026-04-07T17:29:32.55Z</time></trkpt><trkpt lat="44.6708376" lon="11.6347518"><ele>5.0</ele><time>2026-04-07T17:29:33.572Z</time></trkpt><trkpt lat="44.6706323" lon="11.6349608"><ele>5.0</ele><time>2026-04-07T17:29:34.569Z</time></trkpt><trkpt lat="44.6704388" lon="11.6351554"><ele>5.0</ele><time>2026-04-07T17:29:35.554Z</time></trkpt><trkpt lat="44.6702368" lon="11.635356"><ele>5.5</ele><time>2026-04-07T17:29:36.551Z</time></trkpt><trkpt lat="44.6700211" lon="11.6355448"><ele>6.0</ele><time>2026-04-07T17:29:37.543Z</time></trkpt><trkpt lat="44.6698051" lon="11.6357563"><ele>6.0</ele><time>2026-04-07T17:29:38.553Z</time></trkpt><trkpt lat="44.6695658" lon="11.6359973"><ele>6.0</ele><time>2026-04-07T17:29:39.554Z</time></trkpt><trkpt lat="44.6693342" lon="11.6362267"><ele>6.0</ele><time>2026-04-07T17:29:40.544Z</time></trkpt><trkpt lat="44.669105" lon="11.6364354"><ele>6.0</ele><time>2026-04-07T17:29:41.55Z</time></trkpt><trkpt lat="44.6688977" lon="11.6366373"><ele>6.0</ele><time>2026-04-07T17:29:42.553Z</time></trkpt><trkpt lat="44.6687185" lon="11.6368283"><ele>6.0</ele><time>2026-04-07T17:29:43.548Z</time></trkpt><trkpt lat="44.6685524" lon="11.6370034"><ele>6.0</ele><time>2026-04-07T17:29:44.55Z</time></trkpt><trkpt lat="44.6683888" lon="11.6371731"><ele>6.333333333333334</ele><time>2026-04-07T17:29:45.554Z</time></trkpt><trkpt lat="44.6682299" lon="11.6373621"><ele>6.666666666666667</ele><time>2026-04-07T17:29:46.558Z</time></trkpt><trkpt lat="44.6680577" lon="11.6375571"><ele>7.0</ele><time>2026-04-07T17:29:47.547Z</time></trkpt><trkpt lat="44.667869" lon="11.6377524"><ele>7.0</ele><time>2026-04-07T17:29:48.549Z</time></trkpt><trkpt lat="44.6676909" lon="11.6379615"><ele>7.0</ele><time>2026-04-07T17:29:49.543Z</time></trkpt><trkpt lat="44.6674946" lon="11.6381764"><ele>7.0</ele><time>2026-04-07T17:29:50.55Z</time></trkpt><trkpt lat="44.6672847" lon="11.6383788"><ele>7.0</ele><time>2026-04-07T17:29:51.545Z</time></trkpt><trkpt lat="44.6670745" lon="11.6385958"><ele>7.666666666666667</ele><time>2026-04-07T17:29:52.541Z</time></trkpt><trkpt lat="44.6669044" lon="11.6387759"><ele>8.333333333333334</ele><time>2026-04-07T17:29:53.554Z</time></trkpt><trkpt lat="44.6667432" lon="11.6389334"><ele>9.0</ele><time>2026-04-07T17:29:54.553Z</time></trkpt><trkpt lat="44.6665658" lon="11.6390937"><ele>9.0</ele><time>2026-04-07T17:29:55.546Z</time></trkpt><trkpt lat="44.6663591" lon="11.6392593"><ele>9.0</ele><time>2026-04-07T17:29:56.55Z</time></trkpt><trkpt lat="44.6661699" lon="11.6394439"><ele>8.0</ele><time>2026-04-07T17:29:57.551Z</time></trkpt><trkpt lat="44.6659771" lon="11.6396418"><ele>7.0</ele><time>2026-04-07T17:29:58.547Z</time></trkpt><trkpt lat="44.665798" lon="11.6397855"><ele>6.0</ele><time>2026-04-07T17:29:59.547Z</time></trkpt><trkpt lat="44.665616" lon="11.6399319"><ele>6.0</ele><time>2026-04-07T17:30:00.542Z</time></trkpt><trkpt lat="44.6654618" lon="11.6400926"><ele>6.0</ele><time>2026-04-07T17:30:01.547Z</time></trkpt><trkpt lat="44.6652925" lon="11.640253"><ele>6.0</ele><time>2026-04-07T17:30:02.545Z</time></trkpt><trkpt lat="44.6651016" lon="11.6404592"><ele>6.666666666666666</ele><time>2026-04-07T17:30:03.547Z</time></trkpt><trkpt lat="44.6649449" lon="11.6406021"><ele>7.333333333333333</ele><time>2026-04-07T17:30:04.537Z</time></trkpt><trkpt lat="44.6648036" lon="11.6407319"><ele>8.0</ele><time>2026-04-07T17:30:05.549Z</time></trkpt><trkpt lat="44.6646732" lon="11.6408738"><ele>8.0</ele><time>2026-04-07T17:30:06.542Z</time></trkpt><trkpt lat="44.6645444" lon="11.6410316"><ele>8.0</ele><time>2026-04-07T17:30:07.537Z</time></trkpt><trkpt lat="44.6644052" lon="11.6411938"><ele>8.0</ele><time>2026-04-07T17:30:08.538Z</time></trkpt><trkpt lat="44.6642302" lon="11.6413725"><ele>8.333333333333332</ele><time>2026-04-07T17:30:09.545Z</time></trkpt><trkpt lat="44.6640602" lon="11.6415561"><ele>8.666666666666666</ele><time>2026-04-07T17:30:10.534Z</time></trkpt><trkpt lat="44.6639076" lon="11.6417104"><ele>9.0</ele><time>2026-04-07T17:30:11.543Z</time></trkpt><trkpt lat="44.6637804" lon="11.6418651"><ele>9.0</ele><time>2026-04-07T17:30:12.538Z</time></trkpt><trkpt lat="44.6636579" lon="11.6420106"><ele>9.0</ele><time>2026-04-07T17:30:13.535Z</time></trkpt><trkpt lat="44.6635209" lon="11.6421566"><ele>9.0</ele><time>2026-04-07T17:30:14.538Z</time></trkpt><trkpt lat="44.6633886" lon="11.6423023"><ele>8.666666666666666</ele><time>2026-04-07T17:30:15.549Z</time></trkpt><trkpt lat="44.6632234" lon="11.6424667"><ele>8.333333333333332</ele><time>2026-04-07T17:30:16.571Z</time></trkpt><trkpt lat="44.6630541" lon="11.6426492"><ele>8.0</ele><time>2026-04-07T17:30:17.546Z</time></trkpt><trkpt lat="44.6629254" lon="11.6428062"><ele>8.0</ele><time>2026-04-07T17:30:18.55Z</time></trkpt><trkpt lat="44.6627958" lon="11.6429579"><ele>8.0</ele><time>2026-04-07T17:30:19.545Z</time></trkpt><trkpt lat="44.6626631" lon="11.6430877"><ele>8.0</ele><time>2026-04-07T17:30:20.545Z</time></trkpt><trkpt lat="44.6625331" lon="11.6432"><ele>8.0</ele><time>2026-04-07T17:30:21.541Z</time></trkpt><trkpt lat="44.6623901" lon="11.6433128"><ele>8.0</ele><time>2026-04-07T17:30:22.549Z</time></trkpt><trkpt lat="44.6622594" lon="11.6434353"><ele>8.0</ele><time>2026-04-07T17:30:23.545Z</time></trkpt><trkpt lat="44.662126" lon="11.6435729"><ele>8.25</ele><time>2026-04-07T17:30:24.545Z</time></trkpt><trkpt lat="44.6620047" lon="11.6436927"><ele>8.5</ele><time>2026-04-07T17:30:25.547Z</time></trkpt><trkpt lat="44.6618881" lon="11.6438098"><ele>8.75</ele><time>2026-04-07T17:30:26.549Z</time></trkpt><trkpt lat="44.6617651" lon="11.6439473"><ele>9.0</ele><time>2026-04-07T17:30:27.546Z</time></trkpt><trkpt lat="44.6616503" lon="11.6440757"><ele>9.0</ele><time>2026-04-07T17:30:28.549Z</time></trkpt><trkpt lat="44.6615477" lon="11.6441747"><ele>9.0</ele><time>2026-04-07T17:30:29.552Z</time></trkpt><trkpt lat="44.6614509" lon="11.6442521"><ele>9.0</ele><time>2026-04-07T17:30:30.548Z</time></trkpt><trkpt lat="44.6613625" lon="11.6443173"><ele>9.0</ele><time>2026-04-07T17:30:31.553Z</time></trkpt><trkpt lat="44.661271" lon="11.6443725"><ele>9.0</ele><time>2026-04-07T17:30:32.548Z</time></trkpt><trkpt lat="44.661197" lon="11.6444559"><ele>9.0</ele><time>2026-04-07T17:30:33.55Z</time></trkpt><trkpt lat="44.6611341" lon="11.6445292"><ele>9.0</ele><time>2026-04-07T17:30:34.55Z</time></trkpt><trkpt lat="44.6610635" lon="11.6445928"><ele>9.0</ele><time>2026-04-07T17:30:35.541Z</time></trkpt><trkpt lat="44.6610034" lon="11.6446506"><ele>9.0</ele><time>2026-04-07T17:30:36.55Z</time></trkpt><trkpt lat="44.6609503" lon="11.6447011"><ele>9.0</ele><time>2026-04-07T17:30:37.535Z</time></trkpt><trkpt lat="44.6608811" lon="11.6447197"><ele>9.0</ele><time>2026-04-07T17:30:38.541Z</time></trkpt><trkpt lat="44.6607972" lon="11.6446956"><ele>8.75</ele><time>2026-04-07T17:30:39.53Z</time></trkpt><trkpt lat="44.6607035" lon="11.6446428"><ele>8.5</ele><time>2026-04-07T17:30:40.527Z</time></trkpt><trkpt lat="44.6605946" lon="11.6445635"><ele>8.25</ele><time>2026-04-07T17:30:41.533Z</time></trkpt><trkpt lat="44.6604703" lon="11.6444618"><ele>8.0</ele><time>2026-04-07T17:30:42.533Z</time></trkpt><trkpt lat="44.6603463" lon="11.644361"><ele>9.0</ele><time>2026-04-07T17:30:43.528Z</time></trkpt><trkpt lat="44.6602259" lon="11.6442948"><ele>10.0</ele><time>2026-04-07T17:30:44.525Z</time></trkpt><trkpt lat="44.6601186" lon="11.6442294"><ele>11.0</ele><time>2026-04-07T17:30:45.529Z</time></trkpt><trkpt lat="44.6600306" lon="11.6441691"><ele>12.0</ele><time>2026-04-07T17:30:46.548Z</time></trkpt><trkpt lat="44.6599281" lon="11.644111"><ele>12.0</ele><time>2026-04-07T17:30:48.533Z</time></trkpt><trkpt lat="44.6598155" lon="11.6441355"><ele>12.0</ele><time>2026-04-07T17:32:15.549Z</time></trkpt><trkpt lat="44.6597466" lon="11.6441745"><ele>12.0</ele><time>2026-04-07T17:32:16.554Z</time></trkpt><trkpt lat="44.6596811" lon="11.6441976"><ele>12.0</ele><time>2026-04-07T17:32:17.547Z</time></trkpt><trkpt lat="44.6596081" lon="11.6442042"><ele>12.0</ele><time>2026-04-07T17:32:18.561Z</time></trkpt><trkpt lat="44.6595377" lon="11.6441807"><ele>12.0</ele><time>2026-04-07T17:32:19.565Z</time></trkpt><trkpt lat="44.659473" lon="11.6441161"><ele>11.5</ele><time>2026-04-07T17:32:20.562Z</time></trkpt><trkpt lat="44.6594022" lon="11.6440141"><ele>11.0</ele><time>2026-04-07T17:32:21.54Z</time></trkpt><trkpt lat="44.659331" lon="11.6438856"><ele>10.5</ele><time>2026-04-07T17:32:22.54Z</time></trkpt><trkpt lat="44.6592476" lon="11.6437485"><ele>10.0</ele><time>2026-04-07T17:32:23.544Z</time></trkpt><trkpt lat="44.6591669" lon="11.6436292"><ele>10.0</ele><time>2026-04-07T17:32:24.544Z</time></trkpt><trkpt lat="44.6590973" lon="11.6435237"><ele>10.0</ele><time>2026-04-07T17:32:25.571Z</time></trkpt><trkpt lat="44.6590357" lon="11.6434376"><ele>10.0</ele><time>2026-04-07T17:32:26.544Z</time></trkpt><trkpt lat="44.6589881" lon="11.6433707"><ele>10.0</ele><time>2026-04-07T17:32:27.543Z</time></trkpt><trkpt lat="44.6589436" lon="11.643287"><ele>10.0</ele><time>2026-04-07T17:32:31.554Z</time></trkpt><trkpt lat="44.6588858" lon="11.6433711"><ele>10.0</ele><time>2026-04-07T17:32:37.545Z</time></trkpt><trkpt lat="44.6589504" lon="11.6434213"><ele>10.0</ele><time>2026-04-07T17:32:46.628Z</time></trkpt><trkpt lat="44.6590369" lon="11.6435374"><ele>10.0</ele><time>2026-04-07T17:32:48.626Z</time></trkpt><trkpt lat="44.6591142" lon="11.643648"><ele>10.0</ele><time>2026-04-07T17:32:49.704Z</time></trkpt><trkpt lat="44.6592998" lon="11.6439146"><ele>10.0</ele><time>2026-04-07T17:32:51.57Z</time></trkpt><trkpt lat="44.6593781" lon="11.6440335"><ele>10.0</ele><time>2026-04-07T17:32:52.57Z</time></trkpt><trkpt lat="44.6594545" lon="11.6441298"><ele>10.0</ele><time>2026-04-07T17:32:53.549Z</time></trkpt><trkpt lat="44.659517" lon="11.644217"><ele>10.0</ele><time>2026-04-07T17:32:54.548Z</time></trkpt><trkpt lat="44.6595713" lon="11.6442857"><ele>10.0</ele><time>2026-04-07T17:32:55.587Z</time></trkpt><trkpt lat="44.6596259" lon="11.6443671"><ele>10.0</ele><time>2026-04-07T17:32:57.543Z</time></trkpt><trkpt lat="44.6595835" lon="11.6442586"><ele>10.0</ele><time>2026-04-07T17:34:45.535Z</time></trkpt><trkpt lat="44.6595237" lon="11.6441473"><ele>10.0</ele><time>2026-04-07T17:34:46.558Z</time></trkpt><trkpt lat="44.6594573" lon="11.6440286"><ele>10.0</ele><time>2026-04-07T17:34:47.545Z</time></trkpt><trkpt lat="44.6593823" lon="11.643913"><ele>10.0</ele><time>2026-04-07T17:34:48.541Z</time></trkpt><trkpt lat="44.6593067" lon="11.6437968"><ele>10.0</ele><time>2026-04-07T17:34:49.546Z</time></trkpt><trkpt lat="44.6592309" lon="11.6436905"><ele>10.0</ele><time>2026-04-07T17:34:50.549Z</time></trkpt><trkpt lat="44.6591685" lon="11.6435936"><ele>10.0</ele><time>2026-04-07T17:34:51.543Z</time></trkpt><trkpt lat="44.6591021" lon="11.6434909"><ele>10.0</ele><time>2026-04-07T17:34:52.547Z</time></trkpt><trkpt lat="44.6590252" lon="11.6433885"><ele>10.0</ele><time>2026-04-07T17:34:53.543Z</time></trkpt><trkpt lat="44.6589297" lon="11.6432973"><ele>10.0</ele><time>2026-04-07T17:34:54.546Z</time></trkpt><trkpt lat="44.6588082" lon="11.6432166"><ele>10.0</ele><time>2026-04-07T17:34:55.545Z</time></trkpt><trkpt lat="44.658678" lon="11.64314"><ele>10.0</ele><time>2026-04-07T17:34:56.544Z</time></trkpt><trkpt lat="44.6585297" lon="11.6430534"><ele>10.0</ele><time>2026-04-07T17:34:57.545Z</time></trkpt><trkpt lat="44.6583292" lon="11.6429289"><ele>10.0</ele><time>2026-04-07T17:34:58.544Z</time></trkpt><trkpt lat="44.6581474" lon="11.6428114"><ele>10.0</ele><time>2026-04-07T17:34:59.552Z</time></trkpt><trkpt lat="44.658011" lon="11.6427059"><ele>10.0</ele><time>2026-04-07T17:35:00.542Z</time></trkpt><trkpt lat="44.6578866" lon="11.6425923"><ele>9.25</ele><time>2026-04-07T17:35:01.543Z</time></trkpt><trkpt lat="44.6577629" lon="11.6424997"><ele>8.5</ele><time>2026-04-07T17:35:02.546Z</time></trkpt><trkpt lat="44.6576299" lon="11.6424034"><ele>7.75</ele><time>2026-04-07T17:35:03.547Z</time></trkpt><trkpt lat="44.657512" lon="11.6423191"><ele>7.0</ele><time>2026-04-07T17:35:04.554Z</time></trkpt><trkpt lat="44.657412" lon="11.6422548"><ele>7.000000000000001</ele><time>2026-04-07T17:35:05.538Z</time></trkpt><trkpt lat="44.6573198" lon="11.6421834"><ele>7.0</ele><time>2026-04-07T17:35:06.542Z</time></trkpt><trkpt lat="44.6572445" lon="11.6421296"><ele>7.0</ele><time>2026-04-07T17:35:07.551Z</time></trkpt><trkpt lat="44.6571827" lon="11.6420791"><ele>7.0</ele><time>2026-04-07T17:35:08.547Z</time></trkpt><trkpt lat="44.6571241" lon="11.642013"><ele>7.000000000000001</ele><time>2026-04-07T17:35:09.547Z</time></trkpt><trkpt lat="44.6570741" lon="11.641893"><ele>7.0</ele><time>2026-04-07T17:35:11.551Z</time></trkpt><trkpt lat="44.6571263" lon="11.6417347"><ele>7.199999999999999</ele><time>2026-04-07T17:35:13.55Z</time></trkpt><trkpt lat="44.6571905" lon="11.641657"><ele>7.3999999999999995</ele><time>2026-04-07T17:35:14.544Z</time></trkpt><trkpt lat="44.657269" lon="11.6415764"><ele>7.6000000000000005</ele><time>2026-04-07T17:35:15.54Z</time></trkpt><trkpt lat="44.6573627" lon="11.6414933"><ele>7.800000000000001</ele><time>2026-04-07T17:35:16.566Z</time></trkpt><trkpt lat="44.6574702" lon="11.6413886"><ele>8.0</ele><time>2026-04-07T17:35:17.544Z</time></trkpt><trkpt lat="44.6575917" lon="11.6412626"><ele>7.666666666666666</ele><time>2026-04-07T17:35:18.546Z</time></trkpt><trkpt lat="44.6577347" lon="11.6410936"><ele>7.333333333333334</ele><time>2026-04-07T17:35:19.546Z</time></trkpt><trkpt lat="44.6578876" lon="11.6409423"><ele>7.0</ele><time>2026-04-07T17:35:20.543Z</time></trkpt><trkpt lat="44.6580352" lon="11.6407702"><ele>7.0</ele><time>2026-04-07T17:35:21.538Z</time></trkpt><trkpt lat="44.658143" lon="11.6406388"><ele>7.0</ele><time>2026-04-07T17:35:22.545Z</time></trkpt><trkpt lat="44.6582534" lon="11.6404823"><ele>7.0</ele><time>2026-04-07T17:35:23.55Z</time></trkpt><trkpt lat="44.658351" lon="11.6403485"><ele>7.0</ele><time>2026-04-07T17:35:24.549Z</time></trkpt><trkpt lat="44.6584704" lon="11.6402376"><ele>6.75</ele><time>2026-04-07T17:35:25.567Z</time></trkpt><trkpt lat="44.6585708" lon="11.6401145"><ele>6.5</ele><time>2026-04-07T17:35:26.553Z</time></trkpt><trkpt lat="44.658704" lon="11.6399864"><ele>6.25</ele><time>2026-04-07T17:35:27.555Z</time></trkpt><trkpt lat="44.6588271" lon="11.6398721"><ele>6.0</ele><time>2026-04-07T17:35:28.551Z</time></trkpt><trkpt lat="44.6589724" lon="11.6397777"><ele>6.0</ele><time>2026-04-07T17:35:29.556Z</time></trkpt><trkpt lat="44.6591058" lon="11.6396713"><ele>6.0</ele><time>2026-04-07T17:35:30.551Z</time></trkpt><trkpt lat="44.6592398" lon="11.6395103"><ele>6.0</ele><time>2026-04-07T17:35:31.549Z</time></trkpt><trkpt lat="44.659364" lon="11.6394003"><ele>5.666666666666667</ele><time>2026-04-07T17:35:32.551Z</time></trkpt><trkpt lat="44.6594781" lon="11.6392851"><ele>5.333333333333334</ele><time>2026-04-07T17:35:33.554Z</time></trkpt><trkpt lat="44.6595981" lon="11.639167"><ele>5.0</ele><time>2026-04-07T17:35:34.549Z</time></trkpt><trkpt lat="44.6597343" lon="11.6390371"><ele>5.0</ele><time>2026-04-07T17:35:35.556Z</time></trkpt><trkpt lat="44.6598448" lon="11.6389216"><ele>5.0</ele><time>2026-04-07T17:35:36.557Z</time></trkpt><trkpt lat="44.6599385" lon="11.6388114"><ele>5.0</ele><time>2026-04-07T17:35:37.555Z</time></trkpt><trkpt lat="44.6600379" lon="11.638684"><ele>5.0</ele><time>2026-04-07T17:35:38.556Z</time></trkpt><trkpt lat="44.6601266" lon="11.6385733"><ele>5.25</ele><time>2026-04-07T17:35:39.559Z</time></trkpt><trkpt lat="44.6602321" lon="11.6384643"><ele>5.5</ele><time>2026-04-07T17:35:40.556Z</time></trkpt><trkpt lat="44.66034" lon="11.6383749"><ele>5.75</ele><time>2026-04-07T17:35:41.551Z</time></trkpt><trkpt lat="44.6604329" lon="11.6382758"><ele>6.0</ele><time>2026-04-07T17:35:42.553Z</time></trkpt><trkpt lat="44.6605066" lon="11.6382042"><ele>6.0</ele><time>2026-04-07T17:35:43.547Z</time></trkpt><trkpt lat="44.6606193" lon="11.6381351"><ele>6.0</ele><time>2026-04-07T17:35:45.549Z</time></trkpt><trkpt lat="44.6607322" lon="11.6380982"><ele>6.0</ele><time>2026-04-07T17:35:47.553Z</time></trkpt><trkpt lat="44.6608183" lon="11.6381338"><ele>6.0</ele><time>2026-04-07T17:35:49.55Z</time></trkpt><trkpt lat="44.660732" lon="11.6381205"><ele>6.0</ele><time>2026-04-07T17:36:05.536Z</time></trkpt><trkpt lat="44.6606231" lon="11.6381949"><ele>6.0</ele><time>2026-04-07T17:36:07.541Z</time></trkpt><trkpt lat="44.6605382" lon="11.6382624"><ele>6.0</ele><time>2026-04-07T17:36:08.568Z</time></trkpt><trkpt lat="44.6604289" lon="11.6383672"><ele>6.0</ele><time>2026-04-07T17:36:09.549Z</time></trkpt><trkpt lat="44.6603078" lon="11.6384822"><ele>6.0</ele><time>2026-04-07T17:36:10.544Z</time></trkpt><trkpt lat="44.66013" lon="11.6386665"><ele>5.666666666666667</ele><time>2026-04-07T17:36:11.55Z</time></trkpt><trkpt lat="44.6599748" lon="11.6388127"><ele>5.333333333333334</ele><time>2026-04-07T17:36:12.551Z</time></trkpt><trkpt lat="44.6598324" lon="11.6389679"><ele>5.0</ele><time>2026-04-07T17:36:13.547Z</time></trkpt><trkpt lat="44.6597232" lon="11.6390814"><ele>5.0</ele><time>2026-04-07T17:36:14.55Z</time></trkpt><trkpt lat="44.6595971" lon="11.6392144"><ele>5.0</ele><time>2026-04-07T17:36:15.552Z</time></trkpt><trkpt lat="44.6594753" lon="11.639338"><ele>5.0</ele><time>2026-04-07T17:36:16.564Z</time></trkpt><trkpt lat="44.6593737" lon="11.6394679"><ele>5.0</ele><time>2026-04-07T17:36:17.63Z</time></trkpt><trkpt lat="44.6592648" lon="11.6395798"><ele>5.333333333333334</ele><time>2026-04-07T17:36:18.548Z</time></trkpt><trkpt lat="44.6591403" lon="11.6397232"><ele>5.666666666666667</ele><time>2026-04-07T17:36:19.573Z</time></trkpt><trkpt lat="44.6589904" lon="11.6398528"><ele>6.0</ele><time>2026-04-07T17:36:20.554Z</time></trkpt><trkpt lat="44.6588919" lon="11.6399834"><ele>6.0</ele><time>2026-04-07T17:36:21.572Z</time></trkpt><trkpt lat="44.6587825" lon="11.6401202"><ele>6.0</ele><time>2026-04-07T17:36:22.543Z</time></trkpt><trkpt lat="44.6586603" lon="11.6402377"><ele>6.0</ele><time>2026-04-07T17:36:23.559Z</time></trkpt><trkpt lat="44.6585596" lon="11.6403457"><ele>6.0</ele><time>2026-04-07T17:36:24.573Z</time></trkpt><trkpt lat="44.6584559" lon="11.6404377"><ele>6.199999999999999</ele><time>2026-04-07T17:36:25.549Z</time></trkpt><trkpt lat="44.6583802" lon="11.6405103"><ele>6.3999999999999995</ele><time>2026-04-07T17:36:26.554Z</time></trkpt><trkpt lat="44.6583055" lon="11.6405644"><ele>6.6</ele><time>2026-04-07T17:36:27.558Z</time></trkpt><trkpt lat="44.6582126" lon="11.6406382"><ele>6.8</ele><time>2026-04-07T17:36:28.552Z</time></trkpt><trkpt lat="44.6581202" lon="11.6407242"><ele>7.0</ele><time>2026-04-07T17:36:29.556Z</time></trkpt><trkpt lat="44.6580123" lon="11.640833"><ele>7.0</ele><time>2026-04-07T17:36:30.548Z</time></trkpt><trkpt lat="44.6578998" lon="11.6409573"><ele>7.0</ele><time>2026-04-07T17:36:31.549Z</time></trkpt><trkpt lat="44.6577592" lon="11.6411077"><ele>7.0</ele><time>2026-04-07T17:36:32.543Z</time></trkpt><trkpt lat="44.65763" lon="11.6412436"><ele>7.25</ele><time>2026-04-07T17:36:33.547Z</time></trkpt><trkpt lat="44.6575119" lon="11.6413597"><ele>7.5</ele><time>2026-04-07T17:36:34.548Z</time></trkpt><trkpt lat="44.6574176" lon="11.6414689"><ele>7.75</ele><time>2026-04-07T17:36:35.541Z</time></trkpt><trkpt lat="44.6573245" lon="11.6415567"><ele>8.0</ele><time>2026-04-07T17:36:36.54Z</time></trkpt><trkpt lat="44.6572272" lon="11.6416648"><ele>7.999999999999999</ele><time>2026-04-07T17:36:37.572Z</time></trkpt><trkpt lat="44.6571477" lon="11.6417686"><ele>8.0</ele><time>2026-04-07T17:36:38.54Z</time></trkpt><trkpt lat="44.6570836" lon="11.6418585"><ele>8.0</ele><time>2026-04-07T17:36:39.547Z</time></trkpt><trkpt lat="44.6570377" lon="11.6419279"><ele>8.0</ele><time>2026-04-07T17:36:40.547Z</time></trkpt><trkpt lat="44.6569805" lon="11.641986"><ele>7.999999999999999</ele><time>2026-04-07T17:36:41.55Z</time></trkpt><trkpt lat="44.6569252" lon="11.6420557"><ele>8.0</ele><time>2026-04-07T17:36:42.549Z</time></trkpt><trkpt lat="44.6568542" lon="11.6421332"><ele>8.0</ele><time>2026-04-07T17:36:43.539Z</time></trkpt><trkpt lat="44.6567473" lon="11.6422519"><ele>8.0</ele><time>2026-04-07T17:36:44.551Z</time></trkpt><trkpt lat="44.6566197" lon="11.6423857"><ele>8.0</ele><time>2026-04-07T17:36:45.568Z</time></trkpt><trkpt lat="44.6564644" lon="11.6425334"><ele>8.0</ele><time>2026-04-07T17:36:46.558Z</time></trkpt><trkpt lat="44.6563156" lon="11.6426494"><ele>8.0</ele><time>2026-04-07T17:36:47.545Z</time></trkpt><trkpt lat="44.6561887" lon="11.6427979"><ele>8.0</ele><time>2026-04-07T17:36:48.554Z</time></trkpt><trkpt lat="44.6561106" lon="11.6429064"><ele>8.0</ele><time>2026-04-07T17:36:49.545Z</time></trkpt><trkpt lat="44.6560177" lon="11.6430112"><ele>8.4</ele><time>2026-04-07T17:36:50.543Z</time></trkpt><trkpt lat="44.6559186" lon="11.6430763"><ele>8.8</ele><time>2026-04-07T17:36:51.547Z</time></trkpt><trkpt lat="44.6558313" lon="11.6431658"><ele>9.2</ele><time>2026-04-07T17:36:52.543Z</time></trkpt><trkpt lat="44.655753" lon="11.6432466"><ele>9.6</ele><time>2026-04-07T17:36:53.544Z</time></trkpt><trkpt lat="44.6556816" lon="11.6433329"><ele>10.0</ele><time>2026-04-07T17:36:54.545Z</time></trkpt><trkpt lat="44.6556172" lon="11.6434086"><ele>10.0</ele><time>2026-04-07T17:36:55.543Z</time></trkpt><trkpt lat="44.6555423" lon="11.6435125"><ele>10.0</ele><time>2026-04-07T17:36:57.55Z</time></trkpt><trkpt lat="44.6554965" lon="11.6435838"><ele>10.0</ele><time>2026-04-07T17:38:27.561Z</time></trkpt><trkpt lat="44.6554425" lon="11.643648"><ele>10.0</ele><time>2026-04-07T17:38:29.559Z</time></trkpt><trkpt lat="44.6553468" lon="11.6437288"><ele>10.0</ele><time>2026-04-07T17:38:31.545Z</time></trkpt><trkpt lat="44.6552345" lon="11.6437024"><ele>9.5</ele><time>2026-04-07T17:38:33.554Z</time></trkpt><trkpt lat="44.6551762" lon="11.6436083"><ele>9.0</ele><time>2026-04-07T17:38:34.541Z</time></trkpt><trkpt lat="44.6551166" lon="11.643511"><ele>8.5</ele><time>2026-04-07T17:38:35.556Z</time></trkpt><trkpt lat="44.6550751" lon="11.6434004"><ele>8.0</ele><time>2026-04-07T17:38:36.549Z</time></trkpt><trkpt lat="44.6550292" lon="11.6432992"><ele>7.500000000000001</ele><time>2026-04-07T17:38:37.551Z</time></trkpt><trkpt lat="44.6549994" lon="11.6432041"><ele>7.0</ele><time>2026-04-07T17:38:38.552Z</time></trkpt><trkpt lat="44.6549693" lon="11.6431023"><ele>7.0</ele><time>2026-04-07T17:38:39.546Z</time></trkpt><trkpt lat="44.6550081" lon="11.6429302"><ele>7.0</ele><time>2026-04-07T17:38:41.554Z</time></trkpt><trkpt lat="44.655088" lon="11.6428229"><ele>7.0</ele><time>2026-04-07T17:38:42.553Z</time></trkpt><trkpt lat="44.65522" lon="11.6427143"><ele>7.0</ele><time>2026-04-07T17:38:43.558Z</time></trkpt><trkpt lat="44.6553853" lon="11.642569"><ele>7.5</ele><time>2026-04-07T17:38:44.552Z</time></trkpt><trkpt lat="44.6556275" lon="11.6423758"><ele>8.0</ele><time>2026-04-07T17:38:45.556Z</time></trkpt><trkpt lat="44.655855" lon="11.6421668"><ele>8.0</ele><time>2026-04-07T17:38:46.566Z</time></trkpt><trkpt lat="44.6560717" lon="11.6419302"><ele>8.0</ele><time>2026-04-07T17:38:47.578Z</time></trkpt><trkpt lat="44.6562931" lon="11.6417234"><ele>8.0</ele><time>2026-04-07T17:38:48.56Z</time></trkpt><trkpt lat="44.6564814" lon="11.6415266"><ele>8.0</ele><time>2026-04-07T17:38:49.558Z</time></trkpt><trkpt lat="44.6566842" lon="11.6413044"><ele>7.0</ele><time>2026-04-07T17:38:50.565Z</time></trkpt><trkpt lat="44.6568788" lon="11.6410778"><ele>6.0</ele><time>2026-04-07T17:38:51.563Z</time></trkpt><trkpt lat="44.657089" lon="11.6408617"><ele>6.0</ele><time>2026-04-07T17:38:52.559Z</time></trkpt><trkpt lat="44.6572874" lon="11.6406656"><ele>6.0</ele><time>2026-04-07T17:38:53.565Z</time></trkpt><trkpt lat="44.6574666" lon="11.6404805"><ele>6.0</ele><time>2026-04-07T17:38:54.554Z</time></trkpt><trkpt lat="44.6576495" lon="11.6402802"><ele>6.0</ele><time>2026-04-07T17:38:55.561Z</time></trkpt><trkpt lat="44.6578268" lon="11.6400487"><ele>6.0</ele><time>2026-04-07T17:38:56.56Z</time></trkpt><trkpt lat="44.6579921" lon="11.6398098"><ele>6.0</ele><time>2026-04-07T17:38:57.558Z</time></trkpt><trkpt lat="44.6581309" lon="11.639545"><ele>6.0</ele><time>2026-04-07T17:38:58.56Z</time></trkpt><trkpt lat="44.6582551" lon="11.6393139"><ele>6.0</ele><time>2026-04-07T17:38:59.562Z</time></trkpt><trkpt lat="44.6583727" lon="11.6390786"><ele>6.0</ele><time>2026-04-07T17:39:00.566Z</time></trkpt><trkpt lat="44.6584781" lon="11.6388084"><ele>5.5</ele><time>2026-04-07T17:39:01.562Z</time></trkpt><trkpt lat="44.6585747" lon="11.638526"><ele>5.0</ele><time>2026-04-07T17:39:02.559Z</time></trkpt><trkpt lat="44.6586732" lon="11.6382241"><ele>6.5</ele><time>2026-04-07T17:39:03.559Z</time></trkpt><trkpt lat="44.6587563" lon="11.6379007"><ele>8.0</ele><time>2026-04-07T17:39:04.557Z</time></trkpt><trkpt lat="44.6588264" lon="11.6375717"><ele>8.0</ele><time>2026-04-07T17:39:05.555Z</time></trkpt><trkpt lat="44.6588824" lon="11.637257"><ele>8.0</ele><time>2026-04-07T17:39:06.553Z</time></trkpt><trkpt lat="44.6589522" lon="11.6369211"><ele>7.5</ele><time>2026-04-07T17:39:07.558Z</time></trkpt><trkpt lat="44.6590396" lon="11.6366039"><ele>7.0</ele><time>2026-04-07T17:39:08.552Z</time></trkpt><trkpt lat="44.6591045" lon="11.6362608"><ele>6.0</ele><time>2026-04-07T17:39:09.557Z</time></trkpt><trkpt lat="44.6591732" lon="11.635895"><ele>5.0</ele><time>2026-04-07T17:39:10.553Z</time></trkpt><trkpt lat="44.6592549" lon="11.6355419"><ele>5.5</ele><time>2026-04-07T17:39:11.558Z</time></trkpt><trkpt lat="44.6593185" lon="11.6351683"><ele>6.0</ele><time>2026-04-07T17:39:12.552Z</time></trkpt><trkpt lat="44.6593889" lon="11.6347533"><ele>5.5</ele><time>2026-04-07T17:39:13.571Z</time></trkpt><trkpt lat="44.6594468" lon="11.6343366"><ele>5.0</ele><time>2026-04-07T17:39:14.557Z</time></trkpt><trkpt lat="44.6595353" lon="11.6339813"><ele>6.5</ele><time>2026-04-07T17:39:15.56Z</time></trkpt><trkpt lat="44.6596095" lon="11.6336533"><ele>8.0</ele><time>2026-04-07T17:39:16.575Z</time></trkpt><trkpt lat="44.6596805" lon="11.6333115"><ele>8.0</ele><time>2026-04-07T17:39:17.563Z</time></trkpt><trkpt lat="44.6597383" lon="11.6329668"><ele>8.0</ele><time>2026-04-07T17:39:18.56Z</time></trkpt><trkpt lat="44.6597885" lon="11.6326218"><ele>6.5</ele><time>2026-04-07T17:39:19.563Z</time></trkpt><trkpt lat="44.6598315" lon="11.63228"><ele>5.0</ele><time>2026-04-07T17:39:20.558Z</time></trkpt><trkpt lat="44.6598908" lon="11.6319451"><ele>4.5</ele><time>2026-04-07T17:39:21.567Z</time></trkpt><trkpt lat="44.6599537" lon="11.6315951"><ele>4.0</ele><time>2026-04-07T17:39:22.559Z</time></trkpt><trkpt lat="44.6600145" lon="11.631255"><ele>4.0</ele><time>2026-04-07T17:39:23.565Z</time></trkpt><trkpt lat="44.6600736" lon="11.6309006"><ele>4.0</ele><time>2026-04-07T17:39:24.567Z</time></trkpt><trkpt lat="44.6601464" lon="11.6305505"><ele>4.0</ele><time>2026-04-07T17:39:25.559Z</time></trkpt><trkpt lat="44.6602176" lon="11.6301669"><ele>4.0</ele><time>2026-04-07T17:39:26.563Z</time></trkpt><trkpt lat="44.6602893" lon="11.6297843"><ele>4.5</ele><time>2026-04-07T17:39:27.555Z</time></trkpt><trkpt lat="44.6603658" lon="11.6293975"><ele>5.0</ele><time>2026-04-07T17:39:28.564Z</time></trkpt><trkpt lat="44.6604453" lon="11.6289998"><ele>5.5</ele><time>2026-04-07T17:39:29.561Z</time></trkpt><trkpt lat="44.6605303" lon="11.6285898"><ele>6.0</ele><time>2026-04-07T17:39:30.566Z</time></trkpt><trkpt lat="44.6606113" lon="11.6281633"><ele>5.5</ele><time>2026-04-07T17:39:31.563Z</time></trkpt><trkpt lat="44.660699" lon="11.6277478"><ele>5.0</ele><time>2026-04-07T17:39:32.558Z</time></trkpt><trkpt lat="44.6607545" lon="11.6273687"><ele>5.0</ele><time>2026-04-07T17:39:33.558Z</time></trkpt><trkpt lat="44.6608214" lon="11.6270325"><ele>5.0</ele><time>2026-04-07T17:39:34.564Z</time></trkpt><trkpt lat="44.6608773" lon="11.6267034"><ele>4.5</ele><time>2026-04-07T17:39:35.549Z</time></trkpt><trkpt lat="44.6609383" lon="11.6263826"><ele>4.0</ele><time>2026-04-07T17:39:36.57Z</time></trkpt><trkpt lat="44.6610048" lon="11.6260553"><ele>3.5</ele><time>2026-04-07T17:39:37.552Z</time></trkpt><trkpt lat="44.6610782" lon="11.625729"><ele>3.0</ele><time>2026-04-07T17:39:38.556Z</time></trkpt><trkpt lat="44.6611525" lon="11.6254195"><ele>4.0</ele><time>2026-04-07T17:39:39.552Z</time></trkpt><trkpt lat="44.6612258" lon="11.6251096"><ele>5.0</ele><time>2026-04-07T17:39:40.547Z</time></trkpt><trkpt lat="44.6613336" lon="11.6248161"><ele>5.0</ele><time>2026-04-07T17:39:41.551Z</time></trkpt><trkpt lat="44.6614532" lon="11.6245566"><ele>5.0</ele><time>2026-04-07T17:39:42.552Z</time></trkpt><trkpt lat="44.6615641" lon="11.6242952"><ele>5.0</ele><time>2026-04-07T17:39:43.542Z</time></trkpt><trkpt lat="44.6617215" lon="11.6240589"><ele>5.0</ele><time>2026-04-07T17:39:44.552Z</time></trkpt><trkpt lat="44.6619172" lon="11.6238356"><ele>5.0</ele><time>2026-04-07T17:39:45.551Z</time></trkpt><trkpt lat="44.6621515" lon="11.623662"><ele>4.5</ele><time>2026-04-07T17:39:46.58Z</time></trkpt><trkpt lat="44.662382" lon="11.6234932"><ele>4.0</ele><time>2026-04-07T17:39:47.546Z</time></trkpt><trkpt lat="44.6626165" lon="11.6233419"><ele>5.0</ele><time>2026-04-07T17:39:48.559Z</time></trkpt><trkpt lat="44.6628504" lon="11.6232019"><ele>6.0</ele><time>2026-04-07T17:39:49.554Z</time></trkpt><trkpt lat="44.6630527" lon="11.6230561"><ele>6.0</ele><time>2026-04-07T17:39:50.553Z</time></trkpt><trkpt lat="44.6632557" lon="11.6229077"><ele>6.0</ele><time>2026-04-07T17:39:51.556Z</time></trkpt><trkpt lat="44.6634819" lon="11.62273"><ele>5.5</ele><time>2026-04-07T17:39:52.555Z</time></trkpt><trkpt lat="44.6637216" lon="11.6225629"><ele>5.0</ele><time>2026-04-07T17:39:53.561Z</time></trkpt><trkpt lat="44.6639646" lon="11.6223886"><ele>5.0</ele><time>2026-04-07T17:39:54.576Z</time></trkpt><trkpt lat="44.6642279" lon="11.622233"><ele>5.0</ele><time>2026-04-07T17:39:55.549Z</time></trkpt><trkpt lat="44.6644847" lon="11.6220648"><ele>4.5</ele><time>2026-04-07T17:39:56.558Z</time></trkpt><trkpt lat="44.6647494" lon="11.6218857"><ele>4.0</ele><time>2026-04-07T17:39:57.572Z</time></trkpt><trkpt lat="44.6650027" lon="11.6216843"><ele>4.0</ele><time>2026-04-07T17:39:58.555Z</time></trkpt><trkpt lat="44.6652321" lon="11.6215372"><ele>4.0</ele><time>2026-04-07T17:39:59.555Z</time></trkpt><trkpt lat="44.6654557" lon="11.6213607"><ele>4.0</ele><time>2026-04-07T17:40:00.556Z</time></trkpt><trkpt lat="44.6656614" lon="11.6211768"><ele>4.0</ele><time>2026-04-07T17:40:01.563Z</time></trkpt><trkpt lat="44.6658726" lon="11.621006"><ele>4.0</ele><time>2026-04-07T17:40:02.562Z</time></trkpt><trkpt lat="44.6660898" lon="11.6208505"><ele>4.0</ele><time>2026-04-07T17:40:03.558Z</time></trkpt><trkpt lat="44.6663271" lon="11.6206769"><ele>4.5</ele><time>2026-04-07T17:40:04.568Z</time></trkpt><trkpt lat="44.6665848" lon="11.6204869"><ele>5.0</ele><time>2026-04-07T17:40:05.558Z</time></trkpt><trkpt lat="44.6668402" lon="11.6203013"><ele>5.0</ele><time>2026-04-07T17:40:06.564Z</time></trkpt><trkpt lat="44.6670719" lon="11.6201579"><ele>5.0</ele><time>2026-04-07T17:40:07.564Z</time></trkpt><trkpt lat="44.667294" lon="11.6199993"><ele>5.0</ele><time>2026-04-07T17:40:08.559Z</time></trkpt><trkpt lat="44.6675179" lon="11.6198313"><ele>5.0</ele><time>2026-04-07T17:40:09.557Z</time></trkpt><trkpt lat="44.6677366" lon="11.6196646"><ele>5.0</ele><time>2026-04-07T17:40:10.566Z</time></trkpt><trkpt lat="44.6679564" lon="11.619512"><ele>5.0</ele><time>2026-04-07T17:40:11.558Z</time></trkpt><trkpt lat="44.6681559" lon="11.619373"><ele>4.666666666666667</ele><time>2026-04-07T17:40:12.556Z</time></trkpt><trkpt lat="44.6683345" lon="11.6192317"><ele>4.333333333333333</ele><time>2026-04-07T17:40:13.559Z</time></trkpt><trkpt lat="44.6685179" lon="11.6190885"><ele>4.0</ele><time>2026-04-07T17:40:14.564Z</time></trkpt><trkpt lat="44.6686744" lon="11.618947"><ele>4.0</ele><time>2026-04-07T17:40:15.557Z</time></trkpt><trkpt lat="44.6688208" lon="11.6188091"><ele>4.0</ele><time>2026-04-07T17:40:16.567Z</time></trkpt><trkpt lat="44.6689473" lon="11.6186313"><ele>4.0</ele><time>2026-04-07T17:40:17.555Z</time></trkpt><trkpt lat="44.6690543" lon="11.6184096"><ele>4.0</ele><time>2026-04-07T17:40:18.55Z</time></trkpt><trkpt lat="44.6691609" lon="11.6181571"><ele>4.0</ele><time>2026-04-07T17:40:19.557Z</time></trkpt><trkpt lat="44.6692719" lon="11.6179123"><ele>4.0</ele><time>2026-04-07T17:40:20.551Z</time></trkpt><trkpt lat="44.6693671" lon="11.6176911"><ele>4.666666666666666</ele><time>2026-04-07T17:40:21.546Z</time></trkpt><trkpt lat="44.669459" lon="11.6174988"><ele>5.333333333333333</ele><time>2026-04-07T17:40:22.551Z</time></trkpt><trkpt lat="44.6695534" lon="11.6173103"><ele>6.0</ele><time>2026-04-07T17:40:23.538Z</time></trkpt><trkpt lat="44.6696158" lon="11.6171325"><ele>6.0</ele><time>2026-04-07T17:40:24.544Z</time></trkpt><trkpt lat="44.669667" lon="11.6170152"><ele>6.0</ele><time>2026-04-07T17:40:25.537Z</time></trkpt><trkpt lat="44.6697228" lon="11.6169718"><ele>6.0</ele><time>2026-04-07T17:40:26.526Z</time></trkpt><trkpt lat="44.6697155" lon="11.6168657"><ele>6.0</ele><time>2026-04-07T17:41:11.575Z</time></trkpt><trkpt lat="44.6696458" lon="11.6166979"><ele>6.0</ele><time>2026-04-07T17:41:13.552Z</time></trkpt><trkpt lat="44.6695961" lon="11.6165706"><ele>6.0</ele><time>2026-04-07T17:41:14.558Z</time></trkpt><trkpt lat="44.6695273" lon="11.6163988"><ele>6.0</ele><time>2026-04-07T17:41:15.56Z</time></trkpt><trkpt lat="44.6694543" lon="11.6162086"><ele>6.0</ele><time>2026-04-07T17:41:16.573Z</time></trkpt><trkpt lat="44.6693438" lon="11.6159531"><ele>6.0</ele><time>2026-04-07T17:41:17.559Z</time></trkpt><trkpt lat="44.6692771" lon="11.6157297"><ele>6.0</ele><time>2026-04-07T17:41:18.558Z</time></trkpt><trkpt lat="44.6692473" lon="11.6155152"><ele>6.0</ele><time>2026-04-07T17:41:19.55Z</time></trkpt><trkpt lat="44.6692248" lon="11.6152719"><ele>6.0</ele><time>2026-04-07T17:41:20.561Z</time></trkpt><trkpt lat="44.6692276" lon="11.6149759"><ele>6.0</ele><time>2026-04-07T17:41:21.553Z</time></trkpt><trkpt lat="44.669226" lon="11.6146703"><ele>6.0</ele><time>2026-04-07T17:41:22.573Z</time></trkpt><trkpt lat="44.6692397" lon="11.6143736"><ele>6.0</ele><time>2026-04-07T17:41:23.556Z</time></trkpt><trkpt lat="44.6692322" lon="11.6140562"><ele>6.0</ele><time>2026-04-07T17:41:24.558Z</time></trkpt><trkpt lat="44.669234" lon="11.6136899"><ele>6.0</ele><time>2026-04-07T17:41:25.557Z</time></trkpt><trkpt lat="44.6692283" lon="11.6132994"><ele>6.0</ele><time>2026-04-07T17:41:26.557Z</time></trkpt><trkpt lat="44.6692288" lon="11.6129241"><ele>6.0</ele><time>2026-04-07T17:41:27.558Z</time></trkpt><trkpt lat="44.6692471" lon="11.6125683"><ele>6.0</ele><time>2026-04-07T17:41:28.578Z</time></trkpt><trkpt lat="44.6692879" lon="11.6122228"><ele>5.5</ele><time>2026-04-07T17:41:29.548Z</time></trkpt><trkpt lat="44.6692953" lon="11.6118486"><ele>5.0</ele><time>2026-04-07T17:41:30.556Z</time></trkpt><trkpt lat="44.6693183" lon="11.6115055"><ele>5.0</ele><time>2026-04-07T17:41:31.555Z</time></trkpt><trkpt lat="44.6693426" lon="11.6111601"><ele>5.0</ele><time>2026-04-07T17:41:32.554Z</time></trkpt><trkpt lat="44.6693574" lon="11.6107883"><ele>5.0</ele><time>2026-04-07T17:41:33.557Z</time></trkpt><trkpt lat="44.6693845" lon="11.6104379"><ele>5.0</ele><time>2026-04-07T17:41:34.552Z</time></trkpt><trkpt lat="44.6694085" lon="11.6101128"><ele>5.0</ele><time>2026-04-07T17:41:35.55Z</time></trkpt><trkpt lat="44.669417" lon="11.6098039"><ele>5.0</ele><time>2026-04-07T17:41:36.56Z</time></trkpt><trkpt lat="44.6694383" lon="11.6095196"><ele>5.0</ele><time>2026-04-07T17:41:37.553Z</time></trkpt><trkpt lat="44.6694567" lon="11.6092418"><ele>5.0</ele><time>2026-04-07T17:41:38.559Z</time></trkpt><trkpt lat="44.6694832" lon="11.6089499"><ele>5.0</ele><time>2026-04-07T17:41:39.554Z</time></trkpt><trkpt lat="44.6695067" lon="11.6086657"><ele>5.0</ele><time>2026-04-07T17:41:40.558Z</time></trkpt><trkpt lat="44.6695267" lon="11.608386"><ele>5.0</ele><time>2026-04-07T17:41:41.549Z</time></trkpt><trkpt lat="44.6695528" lon="11.6081099"><ele>5.0</ele><time>2026-04-07T17:41:42.55Z</time></trkpt><trkpt lat="44.66958" lon="11.6078501"><ele>5.0</ele><time>2026-04-07T17:41:43.557Z</time></trkpt><trkpt lat="44.6696033" lon="11.6076102"><ele>5.333333333333334</ele><time>2026-04-07T17:41:44.556Z</time></trkpt><trkpt lat="44.669629" lon="11.6073502"><ele>5.666666666666667</ele><time>2026-04-07T17:41:45.554Z</time></trkpt><trkpt lat="44.6696405" lon="11.6070787"><ele>6.0</ele><time>2026-04-07T17:41:46.568Z</time></trkpt><trkpt lat="44.6696847" lon="11.6067948"><ele>6.0</ele><time>2026-04-07T17:41:47.552Z</time></trkpt><trkpt lat="44.6697308" lon="11.6064884"><ele>6.0</ele><time>2026-04-07T17:41:48.547Z</time></trkpt><trkpt lat="44.6697512" lon="11.6061585"><ele>6.0</ele><time>2026-04-07T17:41:49.557Z</time></trkpt><trkpt lat="44.669759" lon="11.6058171"><ele>6.0</ele><time>2026-04-07T17:41:50.547Z</time></trkpt><trkpt lat="44.6697421" lon="11.6054887"><ele>5.666666666666667</ele><time>2026-04-07T17:41:51.556Z</time></trkpt><trkpt lat="44.6697151" lon="11.6051962"><ele>5.333333333333334</ele><time>2026-04-07T17:41:52.546Z</time></trkpt><trkpt lat="44.6696996" lon="11.6049625"><ele>5.0</ele><time>2026-04-07T17:41:53.561Z</time></trkpt><trkpt lat="44.6696866" lon="11.6047237"><ele>5.0</ele><time>2026-04-07T17:41:54.557Z</time></trkpt><trkpt lat="44.6696726" lon="11.6045051"><ele>5.0</ele><time>2026-04-07T17:41:55.554Z</time></trkpt><trkpt lat="44.6696659" lon="11.6042967"><ele>5.0</ele><time>2026-04-07T17:41:56.548Z</time></trkpt><trkpt lat="44.6696562" lon="11.6040909"><ele>5.25</ele><time>2026-04-07T17:41:57.561Z</time></trkpt><trkpt lat="44.6696448" lon="11.6039228"><ele>5.5</ele><time>2026-04-07T17:41:58.553Z</time></trkpt><trkpt lat="44.6696279" lon="11.6037639"><ele>5.75</ele><time>2026-04-07T17:41:59.553Z</time></trkpt><trkpt lat="44.6696137" lon="11.6036091"><ele>6.0</ele><time>2026-04-07T17:42:00.546Z</time></trkpt><trkpt lat="44.6696113" lon="11.6034187"><ele>6.0</ele><time>2026-04-07T17:42:01.571Z</time></trkpt><trkpt lat="44.6695948" lon="11.603215"><ele>6.0</ele><time>2026-04-07T17:42:02.569Z</time></trkpt><trkpt lat="44.6695757" lon="11.6030268"><ele>6.0</ele><time>2026-04-07T17:42:03.554Z</time></trkpt><trkpt lat="44.6695422" lon="11.6028033"><ele>6.0</ele><time>2026-04-07T17:42:04.54Z</time></trkpt><trkpt lat="44.6694913" lon="11.6025372"><ele>6.0</ele><time>2026-04-07T17:42:05.547Z</time></trkpt><trkpt lat="44.669473" lon="11.6022447"><ele>6.0</ele><time>2026-04-07T17:42:06.55Z</time></trkpt><trkpt lat="44.6694529" lon="11.6019575"><ele>6.0</ele><time>2026-04-07T17:42:07.544Z</time></trkpt><trkpt lat="44.6694309" lon="11.6016715"><ele>6.0</ele><time>2026-04-07T17:42:08.55Z</time></trkpt><trkpt lat="44.6694063" lon="11.6013676"><ele>6.0</ele><time>2026-04-07T17:42:09.545Z</time></trkpt><trkpt lat="44.6693865" lon="11.6010547"><ele>6.0</ele><time>2026-04-07T17:42:10.536Z</time></trkpt><trkpt lat="44.6693573" lon="11.6007331"><ele>6.333333333333334</ele><time>2026-04-07T17:42:11.535Z</time></trkpt><trkpt lat="44.6693419" lon="11.6004319"><ele>6.666666666666667</ele><time>2026-04-07T17:42:12.535Z</time></trkpt><trkpt lat="44.6693382" lon="11.6001458"><ele>7.0</ele><time>2026-04-07T17:42:13.54Z</time></trkpt><trkpt lat="44.6692919" lon="11.5998428"><ele>7.0</ele><time>2026-04-07T17:42:14.539Z</time></trkpt><trkpt lat="44.6692457" lon="11.5995458"><ele>7.0</ele><time>2026-04-07T17:42:15.558Z</time></trkpt><trkpt lat="44.669197" lon="11.5992587"><ele>7.0</ele><time>2026-04-07T17:42:16.568Z</time></trkpt><trkpt lat="44.6691576" lon="11.598934"><ele>7.0</ele><time>2026-04-07T17:42:17.55Z</time></trkpt><trkpt lat="44.6691023" lon="11.59859"><ele>7.0</ele><time>2026-04-07T17:42:18.551Z</time></trkpt><trkpt lat="44.6690584" lon="11.59827"><ele>7.0</ele><time>2026-04-07T17:42:19.57Z</time></trkpt><trkpt lat="44.6690007" lon="11.5979647"><ele>7.0</ele><time>2026-04-07T17:42:20.546Z</time></trkpt><trkpt lat="44.6689551" lon="11.5976575"><ele>7.0</ele><time>2026-04-07T17:42:21.55Z</time></trkpt><trkpt lat="44.6689244" lon="11.5973269"><ele>7.0</ele><time>2026-04-07T17:42:22.553Z</time></trkpt><trkpt lat="44.6688867" lon="11.5970005"><ele>7.0</ele><time>2026-04-07T17:42:23.544Z</time></trkpt><trkpt lat="44.6688375" lon="11.5966376"><ele>7.0</ele><time>2026-04-07T17:42:24.551Z</time></trkpt><trkpt lat="44.6687794" lon="11.5962614"><ele>7.0</ele><time>2026-04-07T17:42:25.543Z</time></trkpt><trkpt lat="44.6687263" lon="11.5958795"><ele>7.0</ele><time>2026-04-07T17:42:26.55Z</time></trkpt><trkpt lat="44.6686577" lon="11.5954856"><ele>7.0</ele><time>2026-04-07T17:42:27.54Z</time></trkpt><trkpt lat="44.6685924" lon="11.5951032"><ele>7.0</ele><time>2026-04-07T17:42:28.55Z</time></trkpt><trkpt lat="44.668543" lon="11.5947622"><ele>7.0</ele><time>2026-04-07T17:42:29.546Z</time></trkpt><trkpt lat="44.6684863" lon="11.5944224"><ele>6.5</ele><time>2026-04-07T17:42:30.557Z</time></trkpt><trkpt lat="44.6684257" lon="11.5940962"><ele>6.0</ele><time>2026-04-07T17:42:31.549Z</time></trkpt><trkpt lat="44.6683577" lon="11.5937945"><ele>6.0</ele><time>2026-04-07T17:42:32.552Z</time></trkpt><trkpt lat="44.6682806" lon="11.5934877"><ele>6.0</ele><time>2026-04-07T17:42:33.55Z</time></trkpt><trkpt lat="44.6682348" lon="11.5931746"><ele>6.0</ele><time>2026-04-07T17:42:34.549Z</time></trkpt><trkpt lat="44.6681913" lon="11.592859"><ele>6.0</ele><time>2026-04-07T17:42:35.632Z</time></trkpt><trkpt lat="44.6681423" lon="11.5925522"><ele>6.5</ele><time>2026-04-07T17:42:36.549Z</time></trkpt><trkpt lat="44.6680779" lon="11.5922218"><ele>7.0</ele><time>2026-04-07T17:42:37.553Z</time></trkpt><trkpt lat="44.6680131" lon="11.5918877"><ele>7.0</ele><time>2026-04-07T17:42:38.576Z</time></trkpt><trkpt lat="44.6679625" lon="11.5915197"><ele>7.0</ele><time>2026-04-07T17:42:39.572Z</time></trkpt><trkpt lat="44.667906" lon="11.5911413"><ele>7.0</ele><time>2026-04-07T17:42:40.549Z</time></trkpt><trkpt lat="44.6678407" lon="11.5907527"><ele>7.0</ele><time>2026-04-07T17:42:41.552Z</time></trkpt><trkpt lat="44.6676905" lon="11.5899598"><ele>7.0</ele><time>2026-04-07T17:42:43.576Z</time></trkpt><trkpt lat="44.6676207" lon="11.589567"><ele>7.0</ele><time>2026-04-07T17:42:44.564Z</time></trkpt><trkpt lat="44.6675504" lon="11.5891885"><ele>7.0</ele><time>2026-04-07T17:42:45.555Z</time></trkpt><trkpt lat="44.6674805" lon="11.5888185"><ele>7.0</ele><time>2026-04-07T17:42:46.572Z</time></trkpt><trkpt lat="44.6674146" lon="11.5884501"><ele>7.0</ele><time>2026-04-07T17:42:47.556Z</time></trkpt><trkpt lat="44.6673624" lon="11.5880697"><ele>7.0</ele><time>2026-04-07T17:42:48.555Z</time></trkpt><trkpt lat="44.6672976" lon="11.5876926"><ele>7.0</ele><time>2026-04-07T17:42:49.557Z</time></trkpt><trkpt lat="44.6672314" lon="11.5872961"><ele>7.0</ele><time>2026-04-07T17:42:50.554Z</time></trkpt><trkpt lat="44.6671757" lon="11.5869085"><ele>6.5</ele><time>2026-04-07T17:42:51.574Z</time></trkpt><trkpt lat="44.6671059" lon="11.586558"><ele>6.0</ele><time>2026-04-07T17:42:52.554Z</time></trkpt><trkpt lat="44.6670541" lon="11.5862402"><ele>6.333333333333334</ele><time>2026-04-07T17:42:53.639Z</time></trkpt><trkpt lat="44.6670012" lon="11.5859296"><ele>6.666666666666667</ele><time>2026-04-07T17:42:54.575Z</time></trkpt><trkpt lat="44.6669512" lon="11.5856302"><ele>7.0</ele><time>2026-04-07T17:42:55.558Z</time></trkpt><trkpt lat="44.6668975" lon="11.5853454"><ele>7.333333333333334</ele><time>2026-04-07T17:42:56.553Z</time></trkpt><trkpt lat="44.6668514" lon="11.5850628"><ele>7.666666666666666</ele><time>2026-04-07T17:42:57.546Z</time></trkpt><trkpt lat="44.6667965" lon="11.5847626"><ele>8.0</ele><time>2026-04-07T17:42:58.556Z</time></trkpt><trkpt lat="44.666746" lon="11.5844649"><ele>8.5</ele><time>2026-04-07T17:42:59.569Z</time></trkpt><trkpt lat="44.6666908" lon="11.5841434"><ele>9.0</ele><time>2026-04-07T17:43:00.55Z</time></trkpt><trkpt lat="44.6666248" lon="11.5838339"><ele>8.5</ele><time>2026-04-07T17:43:01.551Z</time></trkpt><trkpt lat="44.6665634" lon="11.5835116"><ele>8.0</ele><time>2026-04-07T17:43:02.551Z</time></trkpt><trkpt lat="44.6665101" lon="11.5831851"><ele>8.0</ele><time>2026-04-07T17:43:03.553Z</time></trkpt><trkpt lat="44.6664616" lon="11.5828574"><ele>8.0</ele><time>2026-04-07T17:43:04.555Z</time></trkpt><trkpt lat="44.6664115" lon="11.5825556"><ele>8.0</ele><time>2026-04-07T17:43:05.555Z</time></trkpt><trkpt lat="44.6663632" lon="11.5822317"><ele>8.0</ele><time>2026-04-07T17:43:06.556Z</time></trkpt><trkpt lat="44.6663121" lon="11.5819122"><ele>8.0</ele><time>2026-04-07T17:43:07.548Z</time></trkpt><trkpt lat="44.6662649" lon="11.5816282"><ele>8.0</ele><time>2026-04-07T17:43:08.547Z</time></trkpt><trkpt lat="44.6662327" lon="11.5814117"><ele>8.0</ele><time>2026-04-07T17:43:09.54Z</time></trkpt><trkpt lat="44.6662093" lon="11.5812621"><ele>8.0</ele><time>2026-04-07T17:43:10.548Z</time></trkpt><trkpt lat="44.6661573" lon="11.5811261"><ele>8.0</ele><time>2026-04-07T17:43:12.547Z</time></trkpt><trkpt lat="44.6661" lon="11.5809425"><ele>8.0</ele><time>2026-04-07T17:43:14.541Z</time></trkpt><trkpt lat="44.6660722" lon="11.5807792"><ele>8.0</ele><time>2026-04-07T17:43:15.549Z</time></trkpt><trkpt lat="44.6660333" lon="11.5806094"><ele>7.666666666666666</ele><time>2026-04-07T17:43:16.556Z</time></trkpt><trkpt lat="44.6659942" lon="11.5804254"><ele>7.333333333333334</ele><time>2026-04-07T17:43:17.545Z</time></trkpt><trkpt lat="44.6659614" lon="11.5802199"><ele>7.0</ele><time>2026-04-07T17:43:18.556Z</time></trkpt><trkpt lat="44.6659416" lon="11.5799846"><ele>8.0</ele><time>2026-04-07T17:43:19.542Z</time></trkpt><trkpt lat="44.6659074" lon="11.5797575"><ele>9.0</ele><time>2026-04-07T17:43:20.552Z</time></trkpt><trkpt lat="44.6658684" lon="11.5795497"><ele>10.0</ele><time>2026-04-07T17:43:21.549Z</time></trkpt><trkpt lat="44.6658215" lon="11.5793411"><ele>10.0</ele><time>2026-04-07T17:43:22.549Z</time></trkpt><trkpt lat="44.6658059" lon="11.5790818"><ele>10.0</ele><time>2026-04-07T17:43:23.543Z</time></trkpt><trkpt lat="44.6657765" lon="11.5788472"><ele>10.0</ele><time>2026-04-07T17:43:24.548Z</time></trkpt><trkpt lat="44.6657518" lon="11.5786379"><ele>10.25</ele><time>2026-04-07T17:43:25.56Z</time></trkpt><trkpt lat="44.665728" lon="11.578446"><ele>10.5</ele><time>2026-04-07T17:43:26.538Z</time></trkpt><trkpt lat="44.6657144" lon="11.5782625"><ele>10.75</ele><time>2026-04-07T17:43:27.535Z</time></trkpt><trkpt lat="44.6657112" lon="11.5780395"><ele>11.0</ele><time>2026-04-07T17:43:28.532Z</time></trkpt><trkpt lat="44.6656719" lon="11.5778364"><ele>10.333333333333332</ele><time>2026-04-07T17:43:29.548Z</time></trkpt><trkpt lat="44.6656381" lon="11.5776067"><ele>9.666666666666666</ele><time>2026-04-07T17:43:30.54Z</time></trkpt><trkpt lat="44.6655939" lon="11.5773805"><ele>9.0</ele><time>2026-04-07T17:43:31.587Z</time></trkpt><trkpt lat="44.6655533" lon="11.5771414"><ele>8.666666666666666</ele><time>2026-04-07T17:43:32.547Z</time></trkpt><trkpt lat="44.6655121" lon="11.5769112"><ele>8.333333333333332</ele><time>2026-04-07T17:43:33.538Z</time></trkpt><trkpt lat="44.6654433" lon="11.5766691"><ele>8.0</ele><time>2026-04-07T17:43:34.54Z</time></trkpt><trkpt lat="44.6653913" lon="11.5764127"><ele>8.0</ele><time>2026-04-07T17:43:35.549Z</time></trkpt><trkpt lat="44.6653383" lon="11.5761483"><ele>8.0</ele><time>2026-04-07T17:43:36.551Z</time></trkpt><trkpt lat="44.6652885" lon="11.5758588"><ele>8.0</ele><time>2026-04-07T17:43:37.549Z</time></trkpt><trkpt lat="44.665227" lon="11.5755875"><ele>8.333333333333332</ele><time>2026-04-07T17:43:38.547Z</time></trkpt><trkpt lat="44.6651881" lon="11.5753423"><ele>8.666666666666666</ele><time>2026-04-07T17:43:39.557Z</time></trkpt><trkpt lat="44.6651534" lon="11.5751202"><ele>9.0</ele><time>2026-04-07T17:43:40.548Z</time></trkpt><trkpt lat="44.6651147" lon="11.5748796"><ele>9.0</ele><time>2026-04-07T17:43:41.555Z</time></trkpt><trkpt lat="44.6650611" lon="11.5746336"><ele>9.0</ele><time>2026-04-07T17:43:42.555Z</time></trkpt><trkpt lat="44.6650019" lon="11.5743767"><ele>9.0</ele><time>2026-04-07T17:43:43.554Z</time></trkpt><trkpt lat="44.6649346" lon="11.5740917"><ele>8.5</ele><time>2026-04-07T17:43:44.552Z</time></trkpt><trkpt lat="44.6648779" lon="11.5737949"><ele>8.0</ele><time>2026-04-07T17:43:45.553Z</time></trkpt><trkpt lat="44.6648418" lon="11.5734652"><ele>8.0</ele><time>2026-04-07T17:43:46.57Z</time></trkpt><trkpt lat="44.6648052" lon="11.5731817"><ele>8.0</ele><time>2026-04-07T17:43:47.551Z</time></trkpt><trkpt lat="44.6647694" lon="11.572899"><ele>8.0</ele><time>2026-04-07T17:43:48.544Z</time></trkpt><trkpt lat="44.6647382" lon="11.5726549"><ele>8.333333333333332</ele><time>2026-04-07T17:43:49.554Z</time></trkpt><trkpt lat="44.664689" lon="11.5723947"><ele>8.666666666666666</ele><time>2026-04-07T17:43:50.573Z</time></trkpt><trkpt lat="44.6646558" lon="11.5721532"><ele>9.0</ele><time>2026-04-07T17:43:51.549Z</time></trkpt><trkpt lat="44.6646184" lon="11.5719122"><ele>9.0</ele><time>2026-04-07T17:43:52.54Z</time></trkpt><trkpt lat="44.6645795" lon="11.5716537"><ele>9.0</ele><time>2026-04-07T17:43:53.555Z</time></trkpt><trkpt lat="44.6645274" lon="11.5713971"><ele>9.0</ele><time>2026-04-07T17:43:54.547Z</time></trkpt><trkpt lat="44.6644765" lon="11.5711434"><ele>9.0</ele><time>2026-04-07T17:43:55.555Z</time></trkpt><trkpt lat="44.6644312" lon="11.5708806"><ele>9.0</ele><time>2026-04-07T17:43:56.549Z</time></trkpt><trkpt lat="44.6643748" lon="11.5706361"><ele>9.0</ele><time>2026-04-07T17:43:57.552Z</time></trkpt><trkpt lat="44.6643074" lon="11.570382"><ele>9.0</ele><time>2026-04-07T17:43:58.551Z</time></trkpt><trkpt lat="44.6642558" lon="11.5701284"><ele>9.0</ele><time>2026-04-07T17:43:59.561Z</time></trkpt><trkpt lat="44.6641964" lon="11.5698785"><ele>9.0</ele><time>2026-04-07T17:44:00.558Z</time></trkpt><trkpt lat="44.664157" lon="11.5696443"><ele>9.333333333333334</ele><time>2026-04-07T17:44:01.554Z</time></trkpt><trkpt lat="44.6641109" lon="11.5693826"><ele>9.666666666666668</ele><time>2026-04-07T17:44:02.556Z</time></trkpt><trkpt lat="44.6640615" lon="11.569115"><ele>10.0</ele><time>2026-04-07T17:44:03.559Z</time></trkpt><trkpt lat="44.6640051" lon="11.5688557"><ele>9.666666666666668</ele><time>2026-04-07T17:44:04.554Z</time></trkpt><trkpt lat="44.663959" lon="11.5685719"><ele>9.333333333333334</ele><time>2026-04-07T17:44:05.556Z</time></trkpt><trkpt lat="44.6639221" lon="11.5682988"><ele>9.0</ele><time>2026-04-07T17:44:06.579Z</time></trkpt><trkpt lat="44.6638822" lon="11.5680028"><ele>8.666666666666666</ele><time>2026-04-07T17:44:07.549Z</time></trkpt><trkpt lat="44.6638409" lon="11.5677323"><ele>8.333333333333332</ele><time>2026-04-07T17:44:08.553Z</time></trkpt><trkpt lat="44.6638231" lon="11.5674649"><ele>8.0</ele><time>2026-04-07T17:44:09.551Z</time></trkpt><trkpt lat="44.6637966" lon="11.5672127"><ele>8.0</ele><time>2026-04-07T17:44:10.58Z</time></trkpt><trkpt lat="44.663749" lon="11.5669764"><ele>8.0</ele><time>2026-04-07T17:44:11.572Z</time></trkpt><trkpt lat="44.6636752" lon="11.5667291"><ele>8.0</ele><time>2026-04-07T17:44:12.55Z</time></trkpt><trkpt lat="44.6636111" lon="11.5664836"><ele>7.666666666666666</ele><time>2026-04-07T17:44:13.556Z</time></trkpt><trkpt lat="44.6635605" lon="11.5662482"><ele>7.333333333333334</ele><time>2026-04-07T17:44:14.546Z</time></trkpt><trkpt lat="44.663496" lon="11.566028"><ele>7.0</ele><time>2026-04-07T17:44:15.548Z</time></trkpt><trkpt lat="44.6634136" lon="11.5658155"><ele>7.666666666666667</ele><time>2026-04-07T17:44:16.584Z</time></trkpt><trkpt lat="44.6633059" lon="11.5656047"><ele>8.333333333333334</ele><time>2026-04-07T17:44:17.546Z</time></trkpt><trkpt lat="44.6631909" lon="11.5653843"><ele>9.0</ele><time>2026-04-07T17:44:18.546Z</time></trkpt><trkpt lat="44.6630718" lon="11.5651559"><ele>9.0</ele><time>2026-04-07T17:44:19.558Z</time></trkpt><trkpt lat="44.6629518" lon="11.5649063"><ele>9.0</ele><time>2026-04-07T17:44:20.551Z</time></trkpt><trkpt lat="44.6628391" lon="11.5646323"><ele>9.0</ele><time>2026-04-07T17:44:21.547Z</time></trkpt><trkpt lat="44.6627141" lon="11.5643596"><ele>9.0</ele><time>2026-04-07T17:44:22.565Z</time></trkpt><trkpt lat="44.6625807" lon="11.5641064"><ele>9.0</ele><time>2026-04-07T17:44:23.547Z</time></trkpt><trkpt lat="44.6624524" lon="11.563858"><ele>9.0</ele><time>2026-04-07T17:44:24.549Z</time></trkpt><trkpt lat="44.6623417" lon="11.5636325"><ele>9.0</ele><time>2026-04-07T17:44:25.574Z</time></trkpt><trkpt lat="44.6622277" lon="11.5633911"><ele>9.0</ele><time>2026-04-07T17:44:26.548Z</time></trkpt><trkpt lat="44.6621176" lon="11.5631556"><ele>9.0</ele><time>2026-04-07T17:44:27.549Z</time></trkpt><trkpt lat="44.6620058" lon="11.562914"><ele>8.333333333333334</ele><time>2026-04-07T17:44:28.544Z</time></trkpt><trkpt lat="44.6618982" lon="11.5626727"><ele>7.666666666666667</ele><time>2026-04-07T17:44:29.538Z</time></trkpt><trkpt lat="44.6617718" lon="11.5624314"><ele>7.0</ele><time>2026-04-07T17:44:30.555Z</time></trkpt><trkpt lat="44.6616426" lon="11.562175"><ele>8.0</ele><time>2026-04-07T17:44:31.545Z</time></trkpt><trkpt lat="44.6615176" lon="11.5618991"><ele>9.0</ele><time>2026-04-07T17:44:32.547Z</time></trkpt><trkpt lat="44.6613919" lon="11.5616124"><ele>9.0</ele><time>2026-04-07T17:44:33.549Z</time></trkpt><trkpt lat="44.6612647" lon="11.5613305"><ele>9.0</ele><time>2026-04-07T17:44:34.549Z</time></trkpt><trkpt lat="44.6611444" lon="11.5610504"><ele>8.5</ele><time>2026-04-07T17:44:35.554Z</time></trkpt><trkpt lat="44.6610128" lon="11.5607757"><ele>8.0</ele><time>2026-04-07T17:44:36.554Z</time></trkpt><trkpt lat="44.660883" lon="11.5605036"><ele>8.0</ele><time>2026-04-07T17:44:37.544Z</time></trkpt><trkpt lat="44.6607612" lon="11.5602319"><ele>8.0</ele><time>2026-04-07T17:44:38.547Z</time></trkpt><trkpt lat="44.660623" lon="11.5599416"><ele>8.0</ele><time>2026-04-07T17:44:39.552Z</time></trkpt><trkpt lat="44.6604844" lon="11.5596518"><ele>8.0</ele><time>2026-04-07T17:44:40.548Z</time></trkpt><trkpt lat="44.6603523" lon="11.5593515"><ele>7.5</ele><time>2026-04-07T17:44:41.552Z</time></trkpt><trkpt lat="44.6602221" lon="11.5590492"><ele>7.0</ele><time>2026-04-07T17:44:42.559Z</time></trkpt><trkpt lat="44.6600784" lon="11.5587409"><ele>8.0</ele><time>2026-04-07T17:44:43.556Z</time></trkpt><trkpt lat="44.6599333" lon="11.5584285"><ele>9.0</ele><time>2026-04-07T17:44:44.561Z</time></trkpt><trkpt lat="44.659796" lon="11.5581136"><ele>8.5</ele><time>2026-04-07T17:44:45.561Z</time></trkpt><trkpt lat="44.6596656" lon="11.5578255"><ele>8.0</ele><time>2026-04-07T17:44:46.57Z</time></trkpt><trkpt lat="44.6595401" lon="11.5575542"><ele>8.0</ele><time>2026-04-07T17:44:47.561Z</time></trkpt><trkpt lat="44.6594205" lon="11.5572761"><ele>8.0</ele><time>2026-04-07T17:44:48.564Z</time></trkpt><trkpt lat="44.6593051" lon="11.5570043"><ele>8.0</ele><time>2026-04-07T17:44:49.558Z</time></trkpt><trkpt lat="44.6591802" lon="11.556723"><ele>8.0</ele><time>2026-04-07T17:44:50.559Z</time></trkpt><trkpt lat="44.6590529" lon="11.5564402"><ele>8.5</ele><time>2026-04-07T17:44:51.56Z</time></trkpt><trkpt lat="44.6589148" lon="11.5561653"><ele>9.0</ele><time>2026-04-07T17:44:52.55Z</time></trkpt><trkpt lat="44.6587817" lon="11.5558727"><ele>9.0</ele><time>2026-04-07T17:44:53.564Z</time></trkpt><trkpt lat="44.6586405" lon="11.5555721"><ele>9.0</ele><time>2026-04-07T17:44:54.56Z</time></trkpt><trkpt lat="44.6584991" lon="11.555276"><ele>9.0</ele><time>2026-04-07T17:44:55.55Z</time></trkpt><trkpt lat="44.6583676" lon="11.5549817"><ele>9.0</ele><time>2026-04-07T17:44:56.559Z</time></trkpt><trkpt lat="44.6582295" lon="11.5546874"><ele>9.0</ele><time>2026-04-07T17:44:57.556Z</time></trkpt><trkpt lat="44.6581011" lon="11.5543966"><ele>9.0</ele><time>2026-04-07T17:44:58.557Z</time></trkpt><trkpt lat="44.6579584" lon="11.5540911"><ele>9.0</ele><time>2026-04-07T17:44:59.561Z</time></trkpt><trkpt lat="44.6578193" lon="11.5537642"><ele>9.0</ele><time>2026-04-07T17:45:00.556Z</time></trkpt><trkpt lat="44.65768" lon="11.5534397"><ele>9.0</ele><time>2026-04-07T17:45:01.545Z</time></trkpt><trkpt lat="44.6575543" lon="11.5531319"><ele>9.0</ele><time>2026-04-07T17:45:02.553Z</time></trkpt><trkpt lat="44.6574384" lon="11.55285"><ele>9.5</ele><time>2026-04-07T17:45:03.548Z</time></trkpt><trkpt lat="44.657311" lon="11.5525795"><ele>10.0</ele><time>2026-04-07T17:45:04.549Z</time></trkpt><trkpt lat="44.6571916" lon="11.5523181"><ele>10.0</ele><time>2026-04-07T17:45:05.549Z</time></trkpt><trkpt lat="44.657064" lon="11.5520452"><ele>10.0</ele><time>2026-04-07T17:45:06.545Z</time></trkpt><trkpt lat="44.6569363" lon="11.5517781"><ele>10.0</ele><time>2026-04-07T17:45:07.547Z</time></trkpt><trkpt lat="44.6567968" lon="11.5515186"><ele>10.0</ele><time>2026-04-07T17:45:08.55Z</time></trkpt><trkpt lat="44.6566496" lon="11.5512677"><ele>10.333333333333334</ele><time>2026-04-07T17:45:09.543Z</time></trkpt><trkpt lat="44.6565282" lon="11.5510098"><ele>10.666666666666666</ele><time>2026-04-07T17:45:10.545Z</time></trkpt><trkpt lat="44.6563962" lon="11.5507555"><ele>11.0</ele><time>2026-04-07T17:45:11.556Z</time></trkpt><trkpt lat="44.6562684" lon="11.550494"><ele>11.333333333333332</ele><time>2026-04-07T17:45:12.545Z</time></trkpt><trkpt lat="44.6561518" lon="11.5502314"><ele>11.666666666666666</ele><time>2026-04-07T17:45:13.543Z</time></trkpt><trkpt lat="44.6560274" lon="11.5499796"><ele>12.0</ele><time>2026-04-07T17:45:14.555Z</time></trkpt><trkpt lat="44.6559158" lon="11.5497512"><ele>11.333333333333334</ele><time>2026-04-07T17:45:15.549Z</time></trkpt><trkpt lat="44.6558069" lon="11.5495285"><ele>10.666666666666668</ele><time>2026-04-07T17:45:16.572Z</time></trkpt><trkpt lat="44.6556894" lon="11.5492974"><ele>10.0</ele><time>2026-04-07T17:45:17.546Z</time></trkpt><trkpt lat="44.6555737" lon="11.5490748"><ele>10.0</ele><time>2026-04-07T17:45:18.554Z</time></trkpt><trkpt lat="44.6554786" lon="11.5488579"><ele>10.0</ele><time>2026-04-07T17:45:19.545Z</time></trkpt><trkpt lat="44.6553829" lon="11.54864"><ele>10.0</ele><time>2026-04-07T17:45:20.554Z</time></trkpt><trkpt lat="44.6552971" lon="11.5484323"><ele>10.0</ele><time>2026-04-07T17:45:21.556Z</time></trkpt><trkpt lat="44.6552048" lon="11.5482269"><ele>10.0</ele><time>2026-04-07T17:45:22.545Z</time></trkpt><trkpt lat="44.655097" lon="11.5480226"><ele>10.0</ele><time>2026-04-07T17:45:23.551Z</time></trkpt><trkpt lat="44.6549968" lon="11.5478099"><ele>10.0</ele><time>2026-04-07T17:45:24.548Z</time></trkpt><trkpt lat="44.6548934" lon="11.5476013"><ele>10.0</ele><time>2026-04-07T17:45:25.556Z</time></trkpt><trkpt lat="44.6547885" lon="11.5473829"><ele>10.0</ele><time>2026-04-07T17:45:26.537Z</time></trkpt><trkpt lat="44.6546878" lon="11.5471737"><ele>10.0</ele><time>2026-04-07T17:45:27.551Z</time></trkpt><trkpt lat="44.6545739" lon="11.5469592"><ele>10.0</ele><time>2026-04-07T17:45:28.554Z</time></trkpt><trkpt lat="44.6544516" lon="11.5467255"><ele>10.0</ele><time>2026-04-07T17:45:29.546Z</time></trkpt><trkpt lat="44.6543216" lon="11.546474"><ele>10.0</ele><time>2026-04-07T17:45:30.552Z</time></trkpt><trkpt lat="44.6541731" lon="11.5462133"><ele>10.0</ele><time>2026-04-07T17:45:31.558Z</time></trkpt><trkpt lat="44.6540367" lon="11.5459602"><ele>10.333333333333334</ele><time>2026-04-07T17:45:32.545Z</time></trkpt><trkpt lat="44.6538945" lon="11.5457342"><ele>10.666666666666666</ele><time>2026-04-07T17:45:33.55Z</time></trkpt><trkpt lat="44.6537439" lon="11.5455039"><ele>11.0</ele><time>2026-04-07T17:45:34.556Z</time></trkpt><trkpt lat="44.6535872" lon="11.5452737"><ele>10.0</ele><time>2026-04-07T17:45:35.555Z</time></trkpt><trkpt lat="44.6534387" lon="11.5450348"><ele>9.0</ele><time>2026-04-07T17:45:36.558Z</time></trkpt><trkpt lat="44.6532903" lon="11.5447695"><ele>9.0</ele><time>2026-04-07T17:45:37.55Z</time></trkpt><trkpt lat="44.6531524" lon="11.5445245"><ele>9.0</ele><time>2026-04-07T17:45:38.55Z</time></trkpt><trkpt lat="44.6530161" lon="11.5443004"><ele>9.0</ele><time>2026-04-07T17:45:39.552Z</time></trkpt><trkpt lat="44.6528789" lon="11.5440842"><ele>9.0</ele><time>2026-04-07T17:45:40.557Z</time></trkpt><trkpt lat="44.6527296" lon="11.5438604"><ele>9.0</ele><time>2026-04-07T17:45:41.555Z</time></trkpt><trkpt lat="44.6525847" lon="11.5436379"><ele>9.0</ele><time>2026-04-07T17:45:42.552Z</time></trkpt><trkpt lat="44.6524269" lon="11.5434082"><ele>9.5</ele><time>2026-04-07T17:45:43.555Z</time></trkpt><trkpt lat="44.6522733" lon="11.5431598"><ele>10.0</ele><time>2026-04-07T17:45:44.553Z</time></trkpt><trkpt lat="44.6521232" lon="11.5429263"><ele>10.0</ele><time>2026-04-07T17:45:45.551Z</time></trkpt><trkpt lat="44.6519656" lon="11.5426882"><ele>10.0</ele><time>2026-04-07T17:45:46.587Z</time></trkpt><trkpt lat="44.6518043" lon="11.5424468"><ele>10.0</ele><time>2026-04-07T17:45:47.551Z</time></trkpt><trkpt lat="44.6516452" lon="11.5421969"><ele>10.0</ele><time>2026-04-07T17:45:48.559Z</time></trkpt><trkpt lat="44.6514814" lon="11.5419489"><ele>9.0</ele><time>2026-04-07T17:45:49.558Z</time></trkpt><trkpt lat="44.6513225" lon="11.5417088"><ele>8.0</ele><time>2026-04-07T17:45:50.555Z</time></trkpt><trkpt lat="44.6511719" lon="11.5414738"><ele>8.666666666666666</ele><time>2026-04-07T17:45:51.556Z</time></trkpt><trkpt lat="44.6510336" lon="11.5412518"><ele>9.333333333333334</ele><time>2026-04-07T17:45:52.554Z</time></trkpt><trkpt lat="44.650887" lon="11.5410368"><ele>10.0</ele><time>2026-04-07T17:45:53.553Z</time></trkpt><trkpt lat="44.6507347" lon="11.5408186"><ele>10.333333333333334</ele><time>2026-04-07T17:45:54.553Z</time></trkpt><trkpt lat="44.6506" lon="11.5405944"><ele>10.666666666666666</ele><time>2026-04-07T17:45:55.554Z</time></trkpt><trkpt lat="44.6504577" lon="11.5403723"><ele>11.0</ele><time>2026-04-07T17:45:56.555Z</time></trkpt><trkpt lat="44.6503111" lon="11.54013"><ele>11.0</ele><time>2026-04-07T17:45:57.556Z</time></trkpt><trkpt lat="44.6501581" lon="11.5398832"><ele>11.0</ele><time>2026-04-07T17:45:58.555Z</time></trkpt><trkpt lat="44.6500233" lon="11.5396625"><ele>11.0</ele><time>2026-04-07T17:45:59.553Z</time></trkpt><trkpt lat="44.6498996" lon="11.5394515"><ele>11.0</ele><time>2026-04-07T17:46:00.56Z</time></trkpt><trkpt lat="44.6497782" lon="11.5392397"><ele>11.0</ele><time>2026-04-07T17:46:01.55Z</time></trkpt><trkpt lat="44.6496563" lon="11.5390109"><ele>11.0</ele><time>2026-04-07T17:46:02.551Z</time></trkpt><trkpt lat="44.6495287" lon="11.5387737"><ele>10.666666666666666</ele><time>2026-04-07T17:46:03.548Z</time></trkpt><trkpt lat="44.6494031" lon="11.538534"><ele>10.333333333333334</ele><time>2026-04-07T17:46:04.551Z</time></trkpt><trkpt lat="44.6492752" lon="11.5383212"><ele>10.0</ele><time>2026-04-07T17:46:05.548Z</time></trkpt><trkpt lat="44.6491605" lon="11.5381042"><ele>10.0</ele><time>2026-04-07T17:46:06.554Z</time></trkpt><trkpt lat="44.6490427" lon="11.5378852"><ele>10.0</ele><time>2026-04-07T17:46:07.549Z</time></trkpt><trkpt lat="44.6489156" lon="11.5376724"><ele>10.0</ele><time>2026-04-07T17:46:08.554Z</time></trkpt><trkpt lat="44.6487963" lon="11.5374621"><ele>9.333333333333334</ele><time>2026-04-07T17:46:09.56Z</time></trkpt><trkpt lat="44.648679" lon="11.5372483"><ele>8.666666666666666</ele><time>2026-04-07T17:46:10.557Z</time></trkpt><trkpt lat="44.6485663" lon="11.5370473"><ele>8.0</ele><time>2026-04-07T17:46:11.556Z</time></trkpt><trkpt lat="44.6484642" lon="11.5368398"><ele>8.0</ele><time>2026-04-07T17:46:12.551Z</time></trkpt><trkpt lat="44.6483413" lon="11.5366258"><ele>8.0</ele><time>2026-04-07T17:46:13.553Z</time></trkpt><trkpt lat="44.6482272" lon="11.5364142"><ele>8.0</ele><time>2026-04-07T17:46:14.558Z</time></trkpt><trkpt lat="44.6481199" lon="11.5362288"><ele>8.0</ele><time>2026-04-07T17:46:15.555Z</time></trkpt><trkpt lat="44.6480153" lon="11.5360471"><ele>8.0</ele><time>2026-04-07T17:46:16.558Z</time></trkpt><trkpt lat="44.6479214" lon="11.5359098"><ele>8.0</ele><time>2026-04-07T17:46:17.549Z</time></trkpt><trkpt lat="44.6478769" lon="11.5357744"><ele>8.0</ele><time>2026-04-07T17:46:18.552Z</time></trkpt><trkpt lat="44.6477994" lon="11.5356584"><ele>8.0</ele><time>2026-04-07T17:46:19.544Z</time></trkpt><trkpt lat="44.6477147" lon="11.5355237"><ele>8.0</ele><time>2026-04-07T17:46:20.553Z</time></trkpt><trkpt lat="44.6476437" lon="11.5353774"><ele>8.0</ele><time>2026-04-07T17:46:21.549Z</time></trkpt><trkpt lat="44.6475674" lon="11.5352364"><ele>8.0</ele><time>2026-04-07T17:46:22.547Z</time></trkpt><trkpt lat="44.6474763" lon="11.5350734"><ele>8.25</ele><time>2026-04-07T17:46:23.553Z</time></trkpt><trkpt lat="44.6473822" lon="11.5348907"><ele>8.5</ele><time>2026-04-07T17:46:24.552Z</time></trkpt><trkpt lat="44.6473076" lon="11.5347125"><ele>8.75</ele><time>2026-04-07T17:46:25.552Z</time></trkpt><trkpt lat="44.6472266" lon="11.5345498"><ele>9.0</ele><time>2026-04-07T17:46:26.556Z</time></trkpt><trkpt lat="44.6471362" lon="11.5343974"><ele>9.333333333333334</ele><time>2026-04-07T17:46:27.549Z</time></trkpt><trkpt lat="44.6470476" lon="11.5342293"><ele>9.666666666666668</ele><time>2026-04-07T17:46:28.557Z</time></trkpt><trkpt lat="44.646951" lon="11.5340615"><ele>10.0</ele><time>2026-04-07T17:46:29.543Z</time></trkpt><trkpt lat="44.6468416" lon="11.5338721"><ele>10.0</ele><time>2026-04-07T17:46:30.577Z</time></trkpt><trkpt lat="44.6467407" lon="11.5336998"><ele>10.0</ele><time>2026-04-07T17:46:31.552Z</time></trkpt><trkpt lat="44.6466549" lon="11.5335214"><ele>10.0</ele><time>2026-04-07T17:46:32.581Z</time></trkpt><trkpt lat="44.6465622" lon="11.5333727"><ele>10.0</ele><time>2026-04-07T17:46:33.569Z</time></trkpt><trkpt lat="44.6464647" lon="11.5332442"><ele>10.0</ele><time>2026-04-07T17:46:34.574Z</time></trkpt><trkpt lat="44.6463844" lon="11.53312"><ele>10.0</ele><time>2026-04-07T17:46:35.566Z</time></trkpt><trkpt lat="44.6462896" lon="11.5329927"><ele>10.0</ele><time>2026-04-07T17:46:36.548Z</time></trkpt><trkpt lat="44.6461838" lon="11.5328237"><ele>10.0</ele><time>2026-04-07T17:46:37.547Z</time></trkpt><trkpt lat="44.6460512" lon="11.5326276"><ele>10.0</ele><time>2026-04-07T17:46:38.545Z</time></trkpt><trkpt lat="44.64594" lon="11.5324199"><ele>10.0</ele><time>2026-04-07T17:46:39.546Z</time></trkpt><trkpt lat="44.6458177" lon="11.5322812"><ele>10.0</ele><time>2026-04-07T17:46:40.55Z</time></trkpt><trkpt lat="44.645692" lon="11.5320642"><ele>10.0</ele><time>2026-04-07T17:46:41.554Z</time></trkpt><trkpt lat="44.6455546" lon="11.5318263"><ele>10.0</ele><time>2026-04-07T17:46:42.546Z</time></trkpt><trkpt lat="44.6454239" lon="11.5316026"><ele>9.75</ele><time>2026-04-07T17:46:43.556Z</time></trkpt><trkpt lat="44.6453183" lon="11.5314094"><ele>9.5</ele><time>2026-04-07T17:46:44.553Z</time></trkpt><trkpt lat="44.6452479" lon="11.5312306"><ele>9.25</ele><time>2026-04-07T17:46:45.543Z</time></trkpt><trkpt lat="44.6451866" lon="11.5311002"><ele>9.0</ele><time>2026-04-07T17:46:46.56Z</time></trkpt><trkpt lat="44.6451417" lon="11.5309755"><ele>9.0</ele><time>2026-04-07T17:46:47.543Z</time></trkpt><trkpt lat="44.645234" lon="11.5308892"><ele>9.0</ele><time>2026-04-07T17:46:50.543Z</time></trkpt><trkpt lat="44.6453185" lon="11.530878"><ele>9.0</ele><time>2026-04-07T17:46:51.554Z</time></trkpt><trkpt lat="44.6454113" lon="11.5308541"><ele>9.0</ele><time>2026-04-07T17:46:52.551Z</time></trkpt><trkpt lat="44.6454877" lon="11.5308265"><ele>9.0</ele><time>2026-04-07T17:46:53.559Z</time></trkpt><trkpt lat="44.645583" lon="11.530818"><ele>9.0</ele><time>2026-04-07T17:46:55.552Z</time></trkpt><trkpt lat="44.6456497" lon="11.53078"><ele>9.0</ele><time>2026-04-07T17:46:56.556Z</time></trkpt><trkpt lat="44.6457481" lon="11.5306781"><ele>9.0</ele><time>2026-04-07T17:46:57.575Z</time></trkpt><trkpt lat="44.6458582" lon="11.5305496"><ele>9.0</ele><time>2026-04-07T17:46:58.565Z</time></trkpt><trkpt lat="44.6459309" lon="11.5304072"><ele>9.0</ele><time>2026-04-07T17:46:59.556Z</time></trkpt><trkpt lat="44.6460308" lon="11.5302757"><ele>9.0</ele><time>2026-04-07T17:47:00.552Z</time></trkpt><trkpt lat="44.6461352" lon="11.5301324"><ele>9.0</ele><time>2026-04-07T17:47:01.551Z</time></trkpt><trkpt lat="44.6462436" lon="11.5299759"><ele>9.0</ele><time>2026-04-07T17:47:02.553Z</time></trkpt><trkpt lat="44.6463679" lon="11.52979"><ele>9.0</ele><time>2026-04-07T17:47:03.549Z</time></trkpt><trkpt lat="44.6464925" lon="11.5295912"><ele>9.0</ele><time>2026-04-07T17:47:04.558Z</time></trkpt><trkpt lat="44.6466197" lon="11.5293863"><ele>9.0</ele><time>2026-04-07T17:47:05.551Z</time></trkpt><trkpt lat="44.6467594" lon="11.5291775"><ele>9.0</ele><time>2026-04-07T17:47:06.55Z</time></trkpt><trkpt lat="44.6468973" lon="11.5289558"><ele>9.0</ele><time>2026-04-07T17:47:07.549Z</time></trkpt><trkpt lat="44.6470271" lon="11.5287658"><ele>9.0</ele><time>2026-04-07T17:47:08.547Z</time></trkpt><trkpt lat="44.647149" lon="11.528567"><ele>9.0</ele><time>2026-04-07T17:47:09.559Z</time></trkpt><trkpt lat="44.6472762" lon="11.528359"><ele>9.0</ele><time>2026-04-07T17:47:10.549Z</time></trkpt><trkpt lat="44.6474058" lon="11.5281519"><ele>9.0</ele><time>2026-04-07T17:47:11.547Z</time></trkpt><trkpt lat="44.6475505" lon="11.5279231"><ele>8.666666666666666</ele><time>2026-04-07T17:47:12.554Z</time></trkpt><trkpt lat="44.647709" lon="11.5277022"><ele>8.333333333333332</ele><time>2026-04-07T17:47:13.541Z</time></trkpt><trkpt lat="44.6478474" lon="11.5274941"><ele>8.0</ele><time>2026-04-07T17:47:14.548Z</time></trkpt><trkpt lat="44.6479754" lon="11.5273067"><ele>8.0</ele><time>2026-04-07T17:47:15.545Z</time></trkpt><trkpt lat="44.6480936" lon="11.5271537"><ele>8.0</ele><time>2026-04-07T17:47:16.559Z</time></trkpt><trkpt lat="44.6481971" lon="11.5270154"><ele>8.0</ele><time>2026-04-07T17:47:17.552Z</time></trkpt><trkpt lat="44.648282" lon="11.5268851"><ele>8.0</ele><time>2026-04-07T17:47:18.557Z</time></trkpt><trkpt lat="44.6483538" lon="11.5267564"><ele>7.666666666666666</ele><time>2026-04-07T17:47:19.549Z</time></trkpt><trkpt lat="44.6484422" lon="11.5266045"><ele>7.333333333333334</ele><time>2026-04-07T17:47:20.556Z</time></trkpt><trkpt lat="44.6485486" lon="11.5264401"><ele>7.0</ele><time>2026-04-07T17:47:21.552Z</time></trkpt><trkpt lat="44.6486683" lon="11.5262598"><ele>7.0</ele><time>2026-04-07T17:47:22.552Z</time></trkpt><trkpt lat="44.6488064" lon="11.5260616"><ele>7.0</ele><time>2026-04-07T17:47:23.551Z</time></trkpt><trkpt lat="44.6489391" lon="11.5258705"><ele>7.0</ele><time>2026-04-07T17:47:24.551Z</time></trkpt><trkpt lat="44.6490692" lon="11.5256877"><ele>7.0</ele><time>2026-04-07T17:47:25.555Z</time></trkpt><trkpt lat="44.6492085" lon="11.5254658"><ele>7.0</ele><time>2026-04-07T17:47:26.555Z</time></trkpt><trkpt lat="44.6493348" lon="11.5252294"><ele>7.0</ele><time>2026-04-07T17:47:27.547Z</time></trkpt><trkpt lat="44.6494705" lon="11.5250211"><ele>7.333333333333334</ele><time>2026-04-07T17:47:28.553Z</time></trkpt><trkpt lat="44.6496222" lon="11.5248219"><ele>7.666666666666666</ele><time>2026-04-07T17:47:29.555Z</time></trkpt><trkpt lat="44.649773" lon="11.5246042"><ele>8.0</ele><time>2026-04-07T17:47:30.546Z</time></trkpt><trkpt lat="44.6499313" lon="11.5243624"><ele>7.0</ele><time>2026-04-07T17:47:31.551Z</time></trkpt><trkpt lat="44.6500966" lon="11.5241218"><ele>6.0</ele><time>2026-04-07T17:47:32.555Z</time></trkpt><trkpt lat="44.6502523" lon="11.5238847"><ele>7.5</ele><time>2026-04-07T17:47:33.554Z</time></trkpt><trkpt lat="44.6504086" lon="11.5236366"><ele>9.0</ele><time>2026-04-07T17:47:34.556Z</time></trkpt><trkpt lat="44.6505834" lon="11.5233703"><ele>9.0</ele><time>2026-04-07T17:47:35.558Z</time></trkpt><trkpt lat="44.6507754" lon="11.523087"><ele>9.0</ele><time>2026-04-07T17:47:36.547Z</time></trkpt><trkpt lat="44.6509598" lon="11.5228269"><ele>9.0</ele><time>2026-04-07T17:47:37.551Z</time></trkpt><trkpt lat="44.651108" lon="11.5225836"><ele>9.0</ele><time>2026-04-07T17:47:38.559Z</time></trkpt><trkpt lat="44.6512481" lon="11.5223408"><ele>9.0</ele><time>2026-04-07T17:47:39.548Z</time></trkpt><trkpt lat="44.6514031" lon="11.5221113"><ele>9.0</ele><time>2026-04-07T17:47:40.558Z</time></trkpt><trkpt lat="44.6515783" lon="11.5218682"><ele>9.5</ele><time>2026-04-07T17:47:41.555Z</time></trkpt><trkpt lat="44.6517544" lon="11.5216122"><ele>10.0</ele><time>2026-04-07T17:47:42.557Z</time></trkpt><trkpt lat="44.6519293" lon="11.5213513"><ele>10.0</ele><time>2026-04-07T17:47:43.554Z</time></trkpt><trkpt lat="44.6521008" lon="11.5210884"><ele>10.0</ele><time>2026-04-07T17:47:44.557Z</time></trkpt><trkpt lat="44.6522747" lon="11.5208105"><ele>10.0</ele><time>2026-04-07T17:47:45.558Z</time></trkpt><trkpt lat="44.6524561" lon="11.5205393"><ele>10.0</ele><time>2026-04-07T17:47:46.566Z</time></trkpt><trkpt lat="44.6526156" lon="11.5202993"><ele>10.5</ele><time>2026-04-07T17:47:47.554Z</time></trkpt><trkpt lat="44.6527677" lon="11.5200623"><ele>11.0</ele><time>2026-04-07T17:47:48.553Z</time></trkpt><trkpt lat="44.6529302" lon="11.519848"><ele>11.0</ele><time>2026-04-07T17:47:49.563Z</time></trkpt><trkpt lat="44.6530834" lon="11.5196189"><ele>11.0</ele><time>2026-04-07T17:47:50.554Z</time></trkpt><trkpt lat="44.6532433" lon="11.5193729"><ele>10.5</ele><time>2026-04-07T17:47:51.553Z</time></trkpt><trkpt lat="44.6533952" lon="11.5191376"><ele>10.0</ele><time>2026-04-07T17:47:52.562Z</time></trkpt><trkpt lat="44.6535442" lon="11.5188974"><ele>9.0</ele><time>2026-04-07T17:47:53.554Z</time></trkpt><trkpt lat="44.6537111" lon="11.5186479"><ele>8.0</ele><time>2026-04-07T17:47:54.56Z</time></trkpt><trkpt lat="44.6538823" lon="11.5183929"><ele>8.0</ele><time>2026-04-07T17:47:55.557Z</time></trkpt><trkpt lat="44.6540666" lon="11.5181308"><ele>8.0</ele><time>2026-04-07T17:47:56.557Z</time></trkpt><trkpt lat="44.6542266" lon="11.5178832"><ele>7.666666666666666</ele><time>2026-04-07T17:47:57.556Z</time></trkpt><trkpt lat="44.6543802" lon="11.5176597"><ele>7.333333333333334</ele><time>2026-04-07T17:47:58.555Z</time></trkpt><trkpt lat="44.6545283" lon="11.5174283"><ele>7.0</ele><time>2026-04-07T17:47:59.562Z</time></trkpt><trkpt lat="44.6546741" lon="11.5171978"><ele>7.666666666666667</ele><time>2026-04-07T17:48:00.557Z</time></trkpt><trkpt lat="44.6548056" lon="11.5169865"><ele>8.333333333333334</ele><time>2026-04-07T17:48:01.553Z</time></trkpt><trkpt lat="44.6549414" lon="11.5167909"><ele>9.0</ele><time>2026-04-07T17:48:02.549Z</time></trkpt><trkpt lat="44.6551122" lon="11.5166388"><ele>9.0</ele><time>2026-04-07T17:48:03.56Z</time></trkpt><trkpt lat="44.6552748" lon="11.5165172"><ele>9.0</ele><time>2026-04-07T17:48:04.55Z</time></trkpt><trkpt lat="44.6554559" lon="11.5164142"><ele>9.0</ele><time>2026-04-07T17:48:05.551Z</time></trkpt><trkpt lat="44.6556418" lon="11.5163432"><ele>9.666666666666666</ele><time>2026-04-07T17:48:06.554Z</time></trkpt><trkpt lat="44.6558581" lon="11.5163037"><ele>10.333333333333332</ele><time>2026-04-07T17:48:07.544Z</time></trkpt><trkpt lat="44.6560709" lon="11.5162638"><ele>11.0</ele><time>2026-04-07T17:48:08.558Z</time></trkpt><trkpt lat="44.6562815" lon="11.5162115"><ele>11.0</ele><time>2026-04-07T17:48:09.558Z</time></trkpt><trkpt lat="44.6565017" lon="11.5161425"><ele>11.0</ele><time>2026-04-07T17:48:10.546Z</time></trkpt><trkpt lat="44.6567203" lon="11.5160782"><ele>11.0</ele><time>2026-04-07T17:48:11.553Z</time></trkpt><trkpt lat="44.6569194" lon="11.5160138"><ele>11.0</ele><time>2026-04-07T17:48:12.549Z</time></trkpt><trkpt lat="44.6571214" lon="11.5159532"><ele>11.0</ele><time>2026-04-07T17:48:13.554Z</time></trkpt><trkpt lat="44.6573278" lon="11.5159086"><ele>11.0</ele><time>2026-04-07T17:48:14.544Z</time></trkpt><trkpt lat="44.6575093" lon="11.5158681"><ele>11.0</ele><time>2026-04-07T17:48:15.548Z</time></trkpt><trkpt lat="44.6576977" lon="11.5158052"><ele>11.0</ele><time>2026-04-07T17:48:16.564Z</time></trkpt><trkpt lat="44.6578753" lon="11.5157314"><ele>11.0</ele><time>2026-04-07T17:48:17.548Z</time></trkpt><trkpt lat="44.6580321" lon="11.5156207"><ele>11.0</ele><time>2026-04-07T17:48:18.543Z</time></trkpt><trkpt lat="44.6581885" lon="11.5154929"><ele>11.0</ele><time>2026-04-07T17:48:19.549Z</time></trkpt><trkpt lat="44.6583261" lon="11.5153193"><ele>11.0</ele><time>2026-04-07T17:48:20.546Z</time></trkpt><trkpt lat="44.6584332" lon="11.5150834"><ele>11.0</ele><time>2026-04-07T17:48:21.552Z</time></trkpt><trkpt lat="44.6585213" lon="11.5148235"><ele>11.0</ele><time>2026-04-07T17:48:22.548Z</time></trkpt><trkpt lat="44.6585889" lon="11.5145384"><ele>11.0</ele><time>2026-04-07T17:48:23.546Z</time></trkpt><trkpt lat="44.6586077" lon="11.5141942"><ele>10.5</ele><time>2026-04-07T17:48:24.554Z</time></trkpt><trkpt lat="44.6586219" lon="11.5138483"><ele>10.0</ele><time>2026-04-07T17:48:25.548Z</time></trkpt><trkpt lat="44.6586295" lon="11.5135406"><ele>10.0</ele><time>2026-04-07T17:48:26.55Z</time></trkpt><trkpt lat="44.6586442" lon="11.5132329"><ele>10.0</ele><time>2026-04-07T17:48:27.559Z</time></trkpt><trkpt lat="44.658684" lon="11.5129242"><ele>10.0</ele><time>2026-04-07T17:48:28.551Z</time></trkpt><trkpt lat="44.6587218" lon="11.5125996"><ele>10.0</ele><time>2026-04-07T17:48:29.556Z</time></trkpt><trkpt lat="44.6587507" lon="11.5122497"><ele>10.0</ele><time>2026-04-07T17:48:30.56Z</time></trkpt><trkpt lat="44.6587895" lon="11.5119049"><ele>10.0</ele><time>2026-04-07T17:48:31.548Z</time></trkpt><trkpt lat="44.6588223" lon="11.5115513"><ele>10.0</ele><time>2026-04-07T17:48:32.557Z</time></trkpt><trkpt lat="44.6588506" lon="11.5111976"><ele>10.5</ele><time>2026-04-07T17:48:33.552Z</time></trkpt><trkpt lat="44.658894" lon="11.5108361"><ele>11.0</ele><time>2026-04-07T17:48:34.556Z</time></trkpt><trkpt lat="44.6589209" lon="11.5104685"><ele>11.0</ele><time>2026-04-07T17:48:35.55Z</time></trkpt><trkpt lat="44.6589452" lon="11.5101103"><ele>11.0</ele><time>2026-04-07T17:48:36.555Z</time></trkpt><trkpt lat="44.6589773" lon="11.5097318"><ele>11.5</ele><time>2026-04-07T17:48:37.556Z</time></trkpt><trkpt lat="44.6589999" lon="11.5093498"><ele>12.0</ele><time>2026-04-07T17:48:38.554Z</time></trkpt><trkpt lat="44.6590302" lon="11.5089676"><ele>11.5</ele><time>2026-04-07T17:48:39.555Z</time></trkpt><trkpt lat="44.6590579" lon="11.508602"><ele>11.0</ele><time>2026-04-07T17:48:40.573Z</time></trkpt><trkpt lat="44.6590932" lon="11.5082258"><ele>10.0</ele><time>2026-04-07T17:48:41.557Z</time></trkpt><trkpt lat="44.659118" lon="11.507842"><ele>9.0</ele><time>2026-04-07T17:48:42.559Z</time></trkpt><trkpt lat="44.6591558" lon="11.5074422"><ele>9.0</ele><time>2026-04-07T17:48:43.554Z</time></trkpt><trkpt lat="44.6591852" lon="11.507046"><ele>9.0</ele><time>2026-04-07T17:48:44.557Z</time></trkpt><trkpt lat="44.6592132" lon="11.5066796"><ele>9.0</ele><time>2026-04-07T17:48:45.553Z</time></trkpt><trkpt lat="44.6592464" lon="11.5063351"><ele>9.0</ele><time>2026-04-07T17:48:46.575Z</time></trkpt><trkpt lat="44.6592615" lon="11.5059981"><ele>10.0</ele><time>2026-04-07T17:48:47.556Z</time></trkpt><trkpt lat="44.6592855" lon="11.50566"><ele>11.0</ele><time>2026-04-07T17:48:48.549Z</time></trkpt><trkpt lat="44.6593197" lon="11.5053109"><ele>11.0</ele><time>2026-04-07T17:48:49.546Z</time></trkpt><trkpt lat="44.6593448" lon="11.504951"><ele>11.0</ele><time>2026-04-07T17:48:50.556Z</time></trkpt><trkpt lat="44.6593864" lon="11.5045942"><ele>11.0</ele><time>2026-04-07T17:48:51.552Z</time></trkpt><trkpt lat="44.6594431" lon="11.50426"><ele>11.0</ele><time>2026-04-07T17:48:52.556Z</time></trkpt><trkpt lat="44.6595088" lon="11.5039219"><ele>11.0</ele><time>2026-04-07T17:48:53.555Z</time></trkpt><trkpt lat="44.6595912" lon="11.503565"><ele>11.0</ele><time>2026-04-07T17:48:54.553Z</time></trkpt><trkpt lat="44.6596729" lon="11.5032128"><ele>12.0</ele><time>2026-04-07T17:48:55.556Z</time></trkpt><trkpt lat="44.6597617" lon="11.5028607"><ele>13.0</ele><time>2026-04-07T17:48:56.579Z</time></trkpt><trkpt lat="44.6598689" lon="11.5025054"><ele>13.0</ele><time>2026-04-07T17:48:57.556Z</time></trkpt><trkpt lat="44.6599941" lon="11.5021818"><ele>13.0</ele><time>2026-04-07T17:48:58.555Z</time></trkpt><trkpt lat="44.6601208" lon="11.5018347"><ele>13.0</ele><time>2026-04-07T17:48:59.558Z</time></trkpt><trkpt lat="44.6602483" lon="11.5014894"><ele>13.0</ele><time>2026-04-07T17:49:00.546Z</time></trkpt><trkpt lat="44.6603627" lon="11.5011565"><ele>13.0</ele><time>2026-04-07T17:49:01.555Z</time></trkpt><trkpt lat="44.66046" lon="11.5008436"><ele>13.0</ele><time>2026-04-07T17:49:02.553Z</time></trkpt><trkpt lat="44.6605591" lon="11.5005479"><ele>12.666666666666666</ele><time>2026-04-07T17:49:03.552Z</time></trkpt><trkpt lat="44.6606633" lon="11.5002779"><ele>12.333333333333332</ele><time>2026-04-07T17:49:04.545Z</time></trkpt><trkpt lat="44.6607708" lon="11.5000224"><ele>12.0</ele><time>2026-04-07T17:49:05.559Z</time></trkpt><trkpt lat="44.6608718" lon="11.4997385"><ele>12.0</ele><time>2026-04-07T17:49:06.552Z</time></trkpt><trkpt lat="44.6609644" lon="11.499447"><ele>12.0</ele><time>2026-04-07T17:49:07.546Z</time></trkpt><trkpt lat="44.6610537" lon="11.4991114"><ele>11.5</ele><time>2026-04-07T17:49:08.553Z</time></trkpt><trkpt lat="44.6611357" lon="11.4987876"><ele>11.0</ele><time>2026-04-07T17:49:09.557Z</time></trkpt><trkpt lat="44.6612257" lon="11.498481"><ele>11.0</ele><time>2026-04-07T17:49:10.555Z</time></trkpt><trkpt lat="44.6613198" lon="11.4981886"><ele>11.0</ele><time>2026-04-07T17:49:11.554Z</time></trkpt><trkpt lat="44.6614045" lon="11.4978832"><ele>11.0</ele><time>2026-04-07T17:49:12.55Z</time></trkpt><trkpt lat="44.661511" lon="11.4975729"><ele>11.0</ele><time>2026-04-07T17:49:13.549Z</time></trkpt><trkpt lat="44.6615811" lon="11.4972879"><ele>11.666666666666666</ele><time>2026-04-07T17:49:14.551Z</time></trkpt><trkpt lat="44.6616433" lon="11.4970227"><ele>12.333333333333332</ele><time>2026-04-07T17:49:15.552Z</time></trkpt><trkpt lat="44.6616983" lon="11.4967474"><ele>13.0</ele><time>2026-04-07T17:49:16.568Z</time></trkpt><trkpt lat="44.6617531" lon="11.4964831"><ele>13.0</ele><time>2026-04-07T17:49:17.552Z</time></trkpt><trkpt lat="44.6618191" lon="11.4962446"><ele>13.0</ele><time>2026-04-07T17:49:18.544Z</time></trkpt><trkpt lat="44.6618782" lon="11.4959948"><ele>13.0</ele><time>2026-04-07T17:49:19.552Z</time></trkpt><trkpt lat="44.6619408" lon="11.4957205"><ele>13.0</ele><time>2026-04-07T17:49:20.562Z</time></trkpt><trkpt lat="44.6619991" lon="11.4954717"><ele>13.0</ele><time>2026-04-07T17:49:21.548Z</time></trkpt><trkpt lat="44.6620353" lon="11.4952457"><ele>13.0</ele><time>2026-04-07T17:49:22.553Z</time></trkpt><trkpt lat="44.6620751" lon="11.4950175"><ele>13.0</ele><time>2026-04-07T17:49:23.543Z</time></trkpt><trkpt lat="44.6621325" lon="11.4947844"><ele>13.0</ele><time>2026-04-07T17:49:24.567Z</time></trkpt><trkpt lat="44.6621715" lon="11.4945713"><ele>13.0</ele><time>2026-04-07T17:49:25.574Z</time></trkpt><trkpt lat="44.6622153" lon="11.4943959"><ele>13.4</ele><time>2026-04-07T17:49:26.569Z</time></trkpt><trkpt lat="44.6622538" lon="11.4942434"><ele>13.8</ele><time>2026-04-07T17:49:27.536Z</time></trkpt><trkpt lat="44.6623003" lon="11.4940986"><ele>14.2</ele><time>2026-04-07T17:49:28.559Z</time></trkpt><trkpt lat="44.6623368" lon="11.4939937"><ele>14.6</ele><time>2026-04-07T17:49:29.55Z</time></trkpt><trkpt lat="44.6623427" lon="11.4938563"><ele>15.0</ele><time>2026-04-07T17:49:31.553Z</time></trkpt><trkpt lat="44.6622778" lon="11.4937805"><ele>14.75</ele><time>2026-04-07T17:49:33.546Z</time></trkpt><trkpt lat="44.662204" lon="11.4937466"><ele>14.5</ele><time>2026-04-07T17:49:34.553Z</time></trkpt><trkpt lat="44.6621143" lon="11.4936859"><ele>14.25</ele><time>2026-04-07T17:49:35.549Z</time></trkpt><trkpt lat="44.6620002" lon="11.4935959"><ele>14.0</ele><time>2026-04-07T17:49:36.556Z</time></trkpt><trkpt lat="44.661877" lon="11.4934811"><ele>14.0</ele><time>2026-04-07T17:49:37.555Z</time></trkpt><trkpt lat="44.6617288" lon="11.493333"><ele>14.0</ele><time>2026-04-07T17:49:38.548Z</time></trkpt><trkpt lat="44.6615706" lon="11.4931889"><ele>14.0</ele><time>2026-04-07T17:49:39.567Z</time></trkpt><trkpt lat="44.6614083" lon="11.4930388"><ele>13.75</ele><time>2026-04-07T17:49:40.561Z</time></trkpt><trkpt lat="44.6612956" lon="11.4929209"><ele>13.5</ele><time>2026-04-07T17:49:41.559Z</time></trkpt><trkpt lat="44.6611749" lon="11.4927997"><ele>13.25</ele><time>2026-04-07T17:49:42.558Z</time></trkpt><trkpt lat="44.6610642" lon="11.4927029"><ele>13.0</ele><time>2026-04-07T17:49:43.56Z</time></trkpt><trkpt lat="44.6609741" lon="11.492603"><ele>13.333333333333332</ele><time>2026-04-07T17:49:44.555Z</time></trkpt><trkpt lat="44.6608965" lon="11.4925267"><ele>13.666666666666666</ele><time>2026-04-07T17:49:45.559Z</time></trkpt><trkpt lat="44.6608362" lon="11.4924438"><ele>14.0</ele><time>2026-04-07T17:49:46.57Z</time></trkpt><trkpt lat="44.6607921" lon="11.4923701"><ele>14.333333333333332</ele><time>2026-04-07T17:49:47.545Z</time></trkpt><trkpt lat="44.6607432" lon="11.4922891"><ele>14.666666666666666</ele><time>2026-04-07T17:49:48.602Z</time></trkpt><trkpt lat="44.6607011" lon="11.4921919"><ele>15.0</ele><time>2026-04-07T17:49:49.554Z</time></trkpt><trkpt lat="44.6606683" lon="11.4920918"><ele>14.4</ele><time>2026-04-07T17:49:50.553Z</time></trkpt><trkpt lat="44.6606524" lon="11.4919741"><ele>13.8</ele><time>2026-04-07T17:49:51.551Z</time></trkpt><trkpt lat="44.660653" lon="11.4918209"><ele>13.2</ele><time>2026-04-07T17:49:52.545Z</time></trkpt><trkpt lat="44.6606756" lon="11.491657"><ele>12.6</ele><time>2026-04-07T17:49:53.55Z</time></trkpt><trkpt lat="44.6607146" lon="11.4915101"><ele>12.0</ele><time>2026-04-07T17:49:54.551Z</time></trkpt><trkpt lat="44.6607477" lon="11.4913846"><ele>12.0</ele><time>2026-04-07T17:49:55.551Z</time></trkpt><trkpt lat="44.6607332" lon="11.4912662"><ele>12.0</ele><time>2026-04-07T17:49:56.555Z</time></trkpt><trkpt lat="44.6606876" lon="11.4911679"><ele>12.0</ele><time>2026-04-07T17:49:57.546Z</time></trkpt><trkpt lat="44.6606121" lon="11.4911021"><ele>12.0</ele><time>2026-04-07T17:49:58.548Z</time></trkpt><trkpt lat="44.6605213" lon="11.4910979"><ele>12.0</ele><time>2026-04-07T17:49:59.551Z</time></trkpt><trkpt lat="44.660425" lon="11.4911523"><ele>12.0</ele><time>2026-04-07T17:50:00.546Z</time></trkpt><trkpt lat="44.6603205" lon="11.4912634"><ele>12.0</ele><time>2026-04-07T17:50:01.544Z</time></trkpt><trkpt lat="44.6602134" lon="11.4913741"><ele>12.0</ele><time>2026-04-07T17:50:02.555Z</time></trkpt><trkpt lat="44.6600925" lon="11.4914475"><ele>12.0</ele><time>2026-04-07T17:50:03.546Z</time></trkpt><trkpt lat="44.6599624" lon="11.4914534"><ele>12.0</ele><time>2026-04-07T17:50:04.547Z</time></trkpt><trkpt lat="44.6598196" lon="11.4914092"><ele>12.0</ele><time>2026-04-07T17:50:05.54Z</time></trkpt><trkpt lat="44.6596615" lon="11.4912852"><ele>12.0</ele><time>2026-04-07T17:50:06.548Z</time></trkpt><trkpt lat="44.6595073" lon="11.4911345"><ele>12.333333333333332</ele><time>2026-04-07T17:50:07.539Z</time></trkpt><trkpt lat="44.6593449" lon="11.4909741"><ele>12.666666666666666</ele><time>2026-04-07T17:50:08.564Z</time></trkpt><trkpt lat="44.6591517" lon="11.4907985"><ele>13.0</ele><time>2026-04-07T17:50:09.55Z</time></trkpt><trkpt lat="44.658971" lon="11.4906332"><ele>13.0</ele><time>2026-04-07T17:50:10.54Z</time></trkpt><trkpt lat="44.658803" lon="11.4904848"><ele>13.0</ele><time>2026-04-07T17:50:11.547Z</time></trkpt><trkpt lat="44.6586452" lon="11.4903089"><ele>13.0</ele><time>2026-04-07T17:50:12.549Z</time></trkpt><trkpt lat="44.6584754" lon="11.4901044"><ele>13.0</ele><time>2026-04-07T17:50:13.544Z</time></trkpt><trkpt lat="44.6582485" lon="11.4899013"><ele>13.0</ele><time>2026-04-07T17:50:14.544Z</time></trkpt><trkpt lat="44.6580336" lon="11.4897003"><ele>12.0</ele><time>2026-04-07T17:50:15.551Z</time></trkpt><trkpt lat="44.6578338" lon="11.4895206"><ele>11.0</ele><time>2026-04-07T17:50:16.557Z</time></trkpt><trkpt lat="44.6576256" lon="11.4893366"><ele>11.0</ele><time>2026-04-07T17:50:17.553Z</time></trkpt><trkpt lat="44.6574166" lon="11.4891646"><ele>11.0</ele><time>2026-04-07T17:50:18.547Z</time></trkpt><trkpt lat="44.65721" lon="11.4889795"><ele>11.0</ele><time>2026-04-07T17:50:19.549Z</time></trkpt><trkpt lat="44.6569957" lon="11.488771"><ele>11.0</ele><time>2026-04-07T17:50:20.545Z</time></trkpt><trkpt lat="44.6567744" lon="11.4885565"><ele>11.0</ele><time>2026-04-07T17:50:21.543Z</time></trkpt><trkpt lat="44.6565588" lon="11.48834"><ele>11.0</ele><time>2026-04-07T17:50:22.554Z</time></trkpt><trkpt lat="44.6563657" lon="11.4881636"><ele>11.0</ele><time>2026-04-07T17:50:23.55Z</time></trkpt><trkpt lat="44.6561662" lon="11.4879772"><ele>11.0</ele><time>2026-04-07T17:50:24.55Z</time></trkpt><trkpt lat="44.6559905" lon="11.4878076"><ele>12.0</ele><time>2026-04-07T17:50:25.55Z</time></trkpt><trkpt lat="44.6558037" lon="11.4876163"><ele>13.0</ele><time>2026-04-07T17:50:26.549Z</time></trkpt><trkpt lat="44.6556074" lon="11.4874324"><ele>13.0</ele><time>2026-04-07T17:50:27.553Z</time></trkpt><trkpt lat="44.6553957" lon="11.4872393"><ele>13.0</ele><time>2026-04-07T17:50:28.55Z</time></trkpt><trkpt lat="44.6551857" lon="11.4870516"><ele>12.666666666666666</ele><time>2026-04-07T17:50:29.552Z</time></trkpt><trkpt lat="44.6549851" lon="11.486869"><ele>12.333333333333332</ele><time>2026-04-07T17:50:30.549Z</time></trkpt><trkpt lat="44.6548117" lon="11.4867191"><ele>12.0</ele><time>2026-04-07T17:50:31.554Z</time></trkpt><trkpt lat="44.6546201" lon="11.4865585"><ele>12.5</ele><time>2026-04-07T17:50:32.549Z</time></trkpt><trkpt lat="44.6544324" lon="11.4863907"><ele>13.0</ele><time>2026-04-07T17:50:33.551Z</time></trkpt><trkpt lat="44.6542383" lon="11.4861948"><ele>13.0</ele><time>2026-04-07T17:50:34.546Z</time></trkpt><trkpt lat="44.6540468" lon="11.4859888"><ele>13.0</ele><time>2026-04-07T17:50:35.554Z</time></trkpt><trkpt lat="44.6538628" lon="11.4857942"><ele>13.0</ele><time>2026-04-07T17:50:36.547Z</time></trkpt><trkpt lat="44.6536962" lon="11.4856155"><ele>13.0</ele><time>2026-04-07T17:50:37.549Z</time></trkpt><trkpt lat="44.6535202" lon="11.4854142"><ele>13.0</ele><time>2026-04-07T17:50:38.547Z</time></trkpt><trkpt lat="44.6533334" lon="11.4852198"><ele>13.333333333333332</ele><time>2026-04-07T17:50:39.55Z</time></trkpt><trkpt lat="44.653149" lon="11.485045"><ele>13.666666666666668</ele><time>2026-04-07T17:50:40.56Z</time></trkpt><trkpt lat="44.6529751" lon="11.4848845"><ele>14.0</ele><time>2026-04-07T17:50:41.556Z</time></trkpt><trkpt lat="44.6527723" lon="11.4847179"><ele>13.5</ele><time>2026-04-07T17:50:42.554Z</time></trkpt><trkpt lat="44.6525715" lon="11.4845449"><ele>13.0</ele><time>2026-04-07T17:50:43.555Z</time></trkpt><trkpt lat="44.6523894" lon="11.4843814"><ele>13.0</ele><time>2026-04-07T17:50:44.554Z</time></trkpt><trkpt lat="44.6522143" lon="11.4842268"><ele>13.0</ele><time>2026-04-07T17:50:45.552Z</time></trkpt><trkpt lat="44.6520514" lon="11.4840737"><ele>13.0</ele><time>2026-04-07T17:50:46.558Z</time></trkpt><trkpt lat="44.6518879" lon="11.4839252"><ele>13.0</ele><time>2026-04-07T17:50:47.554Z</time></trkpt><trkpt lat="44.6517287" lon="11.4837847"><ele>13.0</ele><time>2026-04-07T17:50:48.55Z</time></trkpt><trkpt lat="44.6515617" lon="11.4836434"><ele>13.0</ele><time>2026-04-07T17:50:49.546Z</time></trkpt><trkpt lat="44.6513819" lon="11.4835012"><ele>12.666666666666666</ele><time>2026-04-07T17:50:50.55Z</time></trkpt><trkpt lat="44.6511918" lon="11.4833512"><ele>12.333333333333332</ele><time>2026-04-07T17:50:51.553Z</time></trkpt><trkpt lat="44.6509917" lon="11.4831941"><ele>12.0</ele><time>2026-04-07T17:50:52.55Z</time></trkpt><trkpt lat="44.6507926" lon="11.4830235"><ele>11.5</ele><time>2026-04-07T17:50:53.552Z</time></trkpt><trkpt lat="44.6505801" lon="11.4828507"><ele>11.0</ele><time>2026-04-07T17:50:54.551Z</time></trkpt><trkpt lat="44.6503943" lon="11.4826709"><ele>12.0</ele><time>2026-04-07T17:50:55.557Z</time></trkpt><trkpt lat="44.6501946" lon="11.482485"><ele>13.0</ele><time>2026-04-07T17:50:56.547Z</time></trkpt><trkpt lat="44.6499875" lon="11.4822952"><ele>13.0</ele><time>2026-04-07T17:50:57.557Z</time></trkpt><trkpt lat="44.6497706" lon="11.4821026"><ele>13.0</ele><time>2026-04-07T17:50:58.567Z</time></trkpt><trkpt lat="44.649556" lon="11.4819081"><ele>13.5</ele><time>2026-04-07T17:50:59.558Z</time></trkpt><trkpt lat="44.6493294" lon="11.4816963"><ele>14.0</ele><time>2026-04-07T17:51:00.553Z</time></trkpt><trkpt lat="44.6491438" lon="11.481507"><ele>14.0</ele><time>2026-04-07T17:51:01.563Z</time></trkpt><trkpt lat="44.6489595" lon="11.4813142"><ele>14.0</ele><time>2026-04-07T17:51:02.554Z</time></trkpt><trkpt lat="44.6487838" lon="11.4811482"><ele>14.0</ele><time>2026-04-07T17:51:03.581Z</time></trkpt><trkpt lat="44.6486253" lon="11.4809931"><ele>14.0</ele><time>2026-04-07T17:51:04.548Z</time></trkpt><trkpt lat="44.6484559" lon="11.480838"><ele>14.0</ele><time>2026-04-07T17:51:05.554Z</time></trkpt><trkpt lat="44.6482955" lon="11.480688"><ele>14.0</ele><time>2026-04-07T17:51:06.553Z</time></trkpt><trkpt lat="44.6481345" lon="11.4805495"><ele>14.0</ele><time>2026-04-07T17:51:07.556Z</time></trkpt><trkpt lat="44.647993" lon="11.4804048"><ele>14.0</ele><time>2026-04-07T17:51:08.55Z</time></trkpt><trkpt lat="44.6478254" lon="11.4802611"><ele>14.0</ele><time>2026-04-07T17:51:09.557Z</time></trkpt><trkpt lat="44.6476642" lon="11.4801181"><ele>14.0</ele><time>2026-04-07T17:51:10.555Z</time></trkpt><trkpt lat="44.647503" lon="11.4799712"><ele>14.0</ele><time>2026-04-07T17:51:11.56Z</time></trkpt><trkpt lat="44.6473452" lon="11.4798177"><ele>14.0</ele><time>2026-04-07T17:51:12.551Z</time></trkpt><trkpt lat="44.6471748" lon="11.479666"><ele>13.666666666666668</ele><time>2026-04-07T17:51:13.555Z</time></trkpt><trkpt lat="44.6470191" lon="11.4795318"><ele>13.333333333333332</ele><time>2026-04-07T17:51:14.559Z</time></trkpt><trkpt lat="44.6468756" lon="11.4793905"><ele>13.0</ele><time>2026-04-07T17:51:15.561Z</time></trkpt><trkpt lat="44.646718" lon="11.4792452"><ele>13.0</ele><time>2026-04-07T17:51:16.577Z</time></trkpt><trkpt lat="44.6465382" lon="11.4791086"><ele>13.0</ele><time>2026-04-07T17:51:17.56Z</time></trkpt><trkpt lat="44.6463274" lon="11.4789401"><ele>13.0</ele><time>2026-04-07T17:51:18.583Z</time></trkpt><trkpt lat="44.6461171" lon="11.4787479"><ele>13.5</ele><time>2026-04-07T17:51:19.561Z</time></trkpt><trkpt lat="44.6459097" lon="11.4785453"><ele>14.0</ele><time>2026-04-07T17:51:20.559Z</time></trkpt><trkpt lat="44.6457094" lon="11.4783501"><ele>14.0</ele><time>2026-04-07T17:51:21.557Z</time></trkpt><trkpt lat="44.6455082" lon="11.4781593"><ele>14.0</ele><time>2026-04-07T17:51:22.557Z</time></trkpt><trkpt lat="44.6452976" lon="11.4779582"><ele>13.5</ele><time>2026-04-07T17:51:23.568Z</time></trkpt><trkpt lat="44.6450866" lon="11.4777603"><ele>13.0</ele><time>2026-04-07T17:51:24.563Z</time></trkpt><trkpt lat="44.6448828" lon="11.4775447"><ele>13.0</ele><time>2026-04-07T17:51:25.563Z</time></trkpt><trkpt lat="44.6446782" lon="11.4773334"><ele>13.0</ele><time>2026-04-07T17:51:26.561Z</time></trkpt><trkpt lat="44.6444926" lon="11.4771456"><ele>12.333333333333332</ele><time>2026-04-07T17:51:27.566Z</time></trkpt><trkpt lat="44.6443087" lon="11.4769711"><ele>11.666666666666666</ele><time>2026-04-07T17:51:28.565Z</time></trkpt><trkpt lat="44.6441345" lon="11.4768171"><ele>11.0</ele><time>2026-04-07T17:51:29.565Z</time></trkpt><trkpt lat="44.6439691" lon="11.4766717"><ele>11.0</ele><time>2026-04-07T17:51:30.559Z</time></trkpt><trkpt lat="44.6438081" lon="11.4765294"><ele>11.0</ele><time>2026-04-07T17:51:31.567Z</time></trkpt><trkpt lat="44.6436496" lon="11.476389"><ele>11.0</ele><time>2026-04-07T17:51:32.562Z</time></trkpt><trkpt lat="44.6435085" lon="11.4762529"><ele>11.0</ele><time>2026-04-07T17:51:33.568Z</time></trkpt><trkpt lat="44.6433635" lon="11.476102"><ele>11.0</ele><time>2026-04-07T17:51:34.567Z</time></trkpt><trkpt lat="44.6432172" lon="11.4759493"><ele>11.0</ele><time>2026-04-07T17:51:35.57Z</time></trkpt><trkpt lat="44.6430751" lon="11.4758305"><ele>11.0</ele><time>2026-04-07T17:51:36.554Z</time></trkpt><trkpt lat="44.6429407" lon="11.4757035"><ele>11.0</ele><time>2026-04-07T17:51:37.557Z</time></trkpt><trkpt lat="44.6427976" lon="11.4755756"><ele>11.0</ele><time>2026-04-07T17:51:38.559Z</time></trkpt><trkpt lat="44.6426408" lon="11.4754352"><ele>11.333333333333332</ele><time>2026-04-07T17:51:39.557Z</time></trkpt><trkpt lat="44.6424723" lon="11.4752859"><ele>11.666666666666666</ele><time>2026-04-07T17:51:40.558Z</time></trkpt><trkpt lat="44.6423057" lon="11.4751462"><ele>12.0</ele><time>2026-04-07T17:51:41.558Z</time></trkpt><trkpt lat="44.6420985" lon="11.4749685"><ele>11.5</ele><time>2026-04-07T17:51:42.56Z</time></trkpt><trkpt lat="44.6418855" lon="11.4747774"><ele>11.0</ele><time>2026-04-07T17:51:43.553Z</time></trkpt><trkpt lat="44.6416812" lon="11.4745793"><ele>11.0</ele><time>2026-04-07T17:51:44.561Z</time></trkpt><trkpt lat="44.6414866" lon="11.474381"><ele>11.0</ele><time>2026-04-07T17:51:45.556Z</time></trkpt><trkpt lat="44.641289" lon="11.4741949"><ele>12.0</ele><time>2026-04-07T17:51:46.585Z</time></trkpt><trkpt lat="44.6410731" lon="11.4739857"><ele>13.0</ele><time>2026-04-07T17:51:47.565Z</time></trkpt><trkpt lat="44.6408702" lon="11.4737922"><ele>12.0</ele><time>2026-04-07T17:51:48.556Z</time></trkpt><trkpt lat="44.6406842" lon="11.4736095"><ele>11.0</ele><time>2026-04-07T17:51:49.561Z</time></trkpt><trkpt lat="44.6404969" lon="11.4734361"><ele>11.0</ele><time>2026-04-07T17:51:50.558Z</time></trkpt><trkpt lat="44.6403159" lon="11.4732721"><ele>11.0</ele><time>2026-04-07T17:51:51.557Z</time></trkpt><trkpt lat="44.6401284" lon="11.4731126"><ele>11.0</ele><time>2026-04-07T17:51:52.56Z</time></trkpt><trkpt lat="44.6399483" lon="11.4729486"><ele>11.333333333333332</ele><time>2026-04-07T17:51:53.556Z</time></trkpt><trkpt lat="44.6397793" lon="11.4727955"><ele>11.666666666666666</ele><time>2026-04-07T17:51:54.556Z</time></trkpt><trkpt lat="44.6396126" lon="11.4726358"><ele>12.0</ele><time>2026-04-07T17:51:55.55Z</time></trkpt><trkpt lat="44.6394765" lon="11.4724933"><ele>12.5</ele><time>2026-04-07T17:51:56.55Z</time></trkpt><trkpt lat="44.6393559" lon="11.4723818"><ele>13.0</ele><time>2026-04-07T17:51:57.551Z</time></trkpt><trkpt lat="44.6392484" lon="11.4722958"><ele>13.5</ele><time>2026-04-07T17:51:58.559Z</time></trkpt><trkpt lat="44.6391368" lon="11.4721844"><ele>14.0</ele><time>2026-04-07T17:51:59.56Z</time></trkpt><trkpt lat="44.6390299" lon="11.4720754"><ele>14.0</ele><time>2026-04-07T17:52:00.562Z</time></trkpt><trkpt lat="44.6389138" lon="11.4719544"><ele>14.0</ele><time>2026-04-07T17:52:01.561Z</time></trkpt><trkpt lat="44.638772" lon="11.4718234"><ele>14.0</ele><time>2026-04-07T17:52:02.561Z</time></trkpt><trkpt lat="44.6386083" lon="11.471673"><ele>14.333333333333334</ele><time>2026-04-07T17:52:03.562Z</time></trkpt><trkpt lat="44.6384382" lon="11.4715258"><ele>14.666666666666668</ele><time>2026-04-07T17:52:04.562Z</time></trkpt><trkpt lat="44.6382871" lon="11.4713986"><ele>15.0</ele><time>2026-04-07T17:52:05.555Z</time></trkpt><trkpt lat="44.6381409" lon="11.4712648"><ele>14.333333333333332</ele><time>2026-04-07T17:52:06.56Z</time></trkpt><trkpt lat="44.6379804" lon="11.4711271"><ele>13.666666666666666</ele><time>2026-04-07T17:52:07.563Z</time></trkpt><trkpt lat="44.6378015" lon="11.4709539"><ele>13.0</ele><time>2026-04-07T17:52:08.553Z</time></trkpt><trkpt lat="44.6376245" lon="11.4707715"><ele>12.5</ele><time>2026-04-07T17:52:09.561Z</time></trkpt><trkpt lat="44.6374217" lon="11.4705843"><ele>12.0</ele><time>2026-04-07T17:52:10.567Z</time></trkpt><trkpt lat="44.6372244" lon="11.4704081"><ele>11.5</ele><time>2026-04-07T17:52:11.563Z</time></trkpt><trkpt lat="44.6370251" lon="11.4702294"><ele>11.0</ele><time>2026-04-07T17:52:12.562Z</time></trkpt><trkpt lat="44.6368109" lon="11.4700375"><ele>12.5</ele><time>2026-04-07T17:52:13.557Z</time></trkpt><trkpt lat="44.6366054" lon="11.4698458"><ele>14.0</ele><time>2026-04-07T17:52:14.556Z</time></trkpt><trkpt lat="44.6363967" lon="11.469656"><ele>14.0</ele><time>2026-04-07T17:52:15.563Z</time></trkpt><trkpt lat="44.6361625" lon="11.4694643"><ele>14.0</ele><time>2026-04-07T17:52:16.566Z</time></trkpt><trkpt lat="44.6359142" lon="11.4692542"><ele>14.0</ele><time>2026-04-07T17:52:17.569Z</time></trkpt><trkpt lat="44.6357063" lon="11.4690211"><ele>14.0</ele><time>2026-04-07T17:52:18.565Z</time></trkpt><trkpt lat="44.6354969" lon="11.4688043"><ele>13.5</ele><time>2026-04-07T17:52:19.565Z</time></trkpt><trkpt lat="44.6352854" lon="11.4685906"><ele>13.0</ele><time>2026-04-07T17:52:20.562Z</time></trkpt><trkpt lat="44.6350636" lon="11.4683715"><ele>13.0</ele><time>2026-04-07T17:52:21.566Z</time></trkpt><trkpt lat="44.6348368" lon="11.4681506"><ele>13.0</ele><time>2026-04-07T17:52:22.567Z</time></trkpt><trkpt lat="44.6346178" lon="11.467941"><ele>13.0</ele><time>2026-04-07T17:52:23.554Z</time></trkpt><trkpt lat="44.634396" lon="11.4677305"><ele>13.0</ele><time>2026-04-07T17:52:24.56Z</time></trkpt><trkpt lat="44.6341718" lon="11.4675305"><ele>13.0</ele><time>2026-04-07T17:52:25.555Z</time></trkpt><trkpt lat="44.6339549" lon="11.4673236"><ele>13.0</ele><time>2026-04-07T17:52:26.556Z</time></trkpt><trkpt lat="44.6337365" lon="11.4671141"><ele>13.0</ele><time>2026-04-07T17:52:27.565Z</time></trkpt><trkpt lat="44.6335238" lon="11.4669194"><ele>13.0</ele><time>2026-04-07T17:52:28.561Z</time></trkpt><trkpt lat="44.6333004" lon="11.4667212"><ele>13.0</ele><time>2026-04-07T17:52:29.564Z</time></trkpt><trkpt lat="44.6330875" lon="11.4665166"><ele>13.0</ele><time>2026-04-07T17:52:30.56Z</time></trkpt><trkpt lat="44.6328614" lon="11.4663029"><ele>13.0</ele><time>2026-04-07T17:52:31.562Z</time></trkpt><trkpt lat="44.6326313" lon="11.4660989"><ele>13.0</ele><time>2026-04-07T17:52:32.555Z</time></trkpt><trkpt lat="44.6323906" lon="11.4658828"><ele>13.0</ele><time>2026-04-07T17:52:33.563Z</time></trkpt><trkpt lat="44.632164" lon="11.4656482"><ele>13.0</ele><time>2026-04-07T17:52:34.556Z</time></trkpt><trkpt lat="44.6319457" lon="11.4654419"><ele>12.5</ele><time>2026-04-07T17:52:35.565Z</time></trkpt><trkpt lat="44.631727" lon="11.465239"><ele>12.0</ele><time>2026-04-07T17:52:36.561Z</time></trkpt><trkpt lat="44.6315084" lon="11.4650253"><ele>12.0</ele><time>2026-04-07T17:52:37.563Z</time></trkpt><trkpt lat="44.6313115" lon="11.4648456"><ele>12.0</ele><time>2026-04-07T17:52:38.563Z</time></trkpt><trkpt lat="44.6311199" lon="11.4646649"><ele>13.0</ele><time>2026-04-07T17:52:39.562Z</time></trkpt><trkpt lat="44.6309377" lon="11.4644841"><ele>14.0</ele><time>2026-04-07T17:52:40.565Z</time></trkpt><trkpt lat="44.6307306" lon="11.464297"><ele>14.0</ele><time>2026-04-07T17:52:41.561Z</time></trkpt><trkpt lat="44.6305535" lon="11.4641271"><ele>14.0</ele><time>2026-04-07T17:52:42.566Z</time></trkpt><trkpt lat="44.630382" lon="11.4639688"><ele>14.0</ele><time>2026-04-07T17:52:43.564Z</time></trkpt><trkpt lat="44.6301915" lon="11.4638189"><ele>14.333333333333334</ele><time>2026-04-07T17:52:44.563Z</time></trkpt><trkpt lat="44.6300307" lon="11.4636739"><ele>14.666666666666668</ele><time>2026-04-07T17:52:45.567Z</time></trkpt><trkpt lat="44.6298993" lon="11.4635457"><ele>15.0</ele><time>2026-04-07T17:52:46.585Z</time></trkpt><trkpt lat="44.6297686" lon="11.4634131"><ele>15.0</ele><time>2026-04-07T17:52:47.556Z</time></trkpt><trkpt lat="44.6296474" lon="11.4633025"><ele>15.0</ele><time>2026-04-07T17:52:48.558Z</time></trkpt><trkpt lat="44.629538" lon="11.4632256"><ele>15.0</ele><time>2026-04-07T17:52:49.565Z</time></trkpt><trkpt lat="44.6294281" lon="11.4631412"><ele>15.0</ele><time>2026-04-07T17:52:50.556Z</time></trkpt><trkpt lat="44.6293287" lon="11.463049"><ele>15.4</ele><time>2026-04-07T17:52:51.592Z</time></trkpt><trkpt lat="44.6292558" lon="11.4629867"><ele>15.8</ele><time>2026-04-07T17:52:52.559Z</time></trkpt><trkpt lat="44.6291749" lon="11.4629344"><ele>16.2</ele><time>2026-04-07T17:52:53.562Z</time></trkpt><trkpt lat="44.6290779" lon="11.4628342"><ele>16.6</ele><time>2026-04-07T17:52:54.554Z</time></trkpt><trkpt lat="44.6289613" lon="11.4627383"><ele>17.0</ele><time>2026-04-07T17:52:55.56Z</time></trkpt><trkpt lat="44.6288425" lon="11.4626503"><ele>17.0</ele><time>2026-04-07T17:52:56.545Z</time></trkpt><trkpt lat="44.6287232" lon="11.4625366"><ele>17.0</ele><time>2026-04-07T17:52:57.56Z</time></trkpt><trkpt lat="44.6286169" lon="11.4623982"><ele>17.0</ele><time>2026-04-07T17:52:58.563Z</time></trkpt><trkpt lat="44.6284889" lon="11.462249"><ele>17.0</ele><time>2026-04-07T17:52:59.564Z</time></trkpt><trkpt lat="44.6283623" lon="11.4620798"><ele>17.0</ele><time>2026-04-07T17:53:00.555Z</time></trkpt><trkpt lat="44.6282372" lon="11.4619327"><ele>17.0</ele><time>2026-04-07T17:53:01.559Z</time></trkpt><trkpt lat="44.6281226" lon="11.4618021"><ele>17.0</ele><time>2026-04-07T17:53:02.557Z</time></trkpt><trkpt lat="44.628009" lon="11.4617049"><ele>17.0</ele><time>2026-04-07T17:53:03.565Z</time></trkpt><trkpt lat="44.6278838" lon="11.4616002"><ele>17.0</ele><time>2026-04-07T17:53:04.561Z</time></trkpt><trkpt lat="44.627754" lon="11.4614886"><ele>17.0</ele><time>2026-04-07T17:53:05.566Z</time></trkpt><trkpt lat="44.6276352" lon="11.461358"><ele>16.333333333333336</ele><time>2026-04-07T17:53:06.557Z</time></trkpt><trkpt lat="44.6275139" lon="11.4612287"><ele>15.666666666666668</ele><time>2026-04-07T17:53:07.555Z</time></trkpt><trkpt lat="44.6273946" lon="11.4610961"><ele>15.0</ele><time>2026-04-07T17:53:08.563Z</time></trkpt><trkpt lat="44.6272616" lon="11.4609384"><ele>15.0</ele><time>2026-04-07T17:53:09.553Z</time></trkpt><trkpt lat="44.6271317" lon="11.4607968"><ele>15.0</ele><time>2026-04-07T17:53:10.561Z</time></trkpt><trkpt lat="44.626984" lon="11.4606334"><ele>15.0</ele><time>2026-04-07T17:53:11.565Z</time></trkpt><trkpt lat="44.6268459" lon="11.4605038"><ele>15.0</ele><time>2026-04-07T17:53:12.563Z</time></trkpt><trkpt lat="44.626716" lon="11.4603586"><ele>15.0</ele><time>2026-04-07T17:53:13.564Z</time></trkpt><trkpt lat="44.6265784" lon="11.4601891"><ele>15.0</ele><time>2026-04-07T17:53:14.565Z</time></trkpt><trkpt lat="44.6264212" lon="11.4600088"><ele>15.0</ele><time>2026-04-07T17:53:15.564Z</time></trkpt><trkpt lat="44.6262678" lon="11.4598194"><ele>15.0</ele><time>2026-04-07T17:53:16.575Z</time></trkpt><trkpt lat="44.6261067" lon="11.4596305"><ele>15.0</ele><time>2026-04-07T17:53:17.568Z</time></trkpt><trkpt lat="44.6259442" lon="11.4594276"><ele>15.0</ele><time>2026-04-07T17:53:18.563Z</time></trkpt><trkpt lat="44.6257787" lon="11.4591894"><ele>15.0</ele><time>2026-04-07T17:53:19.566Z</time></trkpt><trkpt lat="44.6256057" lon="11.4589556"><ele>15.0</ele><time>2026-04-07T17:53:20.566Z</time></trkpt><trkpt lat="44.6254312" lon="11.4587332"><ele>15.0</ele><time>2026-04-07T17:53:21.569Z</time></trkpt><trkpt lat="44.6252681" lon="11.4585409"><ele>15.0</ele><time>2026-04-07T17:53:22.565Z</time></trkpt><trkpt lat="44.6251021" lon="11.4583646"><ele>15.5</ele><time>2026-04-07T17:53:23.565Z</time></trkpt><trkpt lat="44.6249145" lon="11.4581912"><ele>16.0</ele><time>2026-04-07T17:53:24.564Z</time></trkpt><trkpt lat="44.6247168" lon="11.4580158"><ele>15.5</ele><time>2026-04-07T17:53:25.565Z</time></trkpt><trkpt lat="44.6245162" lon="11.457845"><ele>15.0</ele><time>2026-04-07T17:53:26.56Z</time></trkpt><trkpt lat="44.624306" lon="11.4576574"><ele>14.5</ele><time>2026-04-07T17:53:27.567Z</time></trkpt><trkpt lat="44.6240995" lon="11.4574722"><ele>14.0</ele><time>2026-04-07T17:53:28.561Z</time></trkpt><trkpt lat="44.6238869" lon="11.4572812"><ele>14.0</ele><time>2026-04-07T17:53:29.562Z</time></trkpt><trkpt lat="44.62369" lon="11.457112"><ele>14.0</ele><time>2026-04-07T17:53:30.563Z</time></trkpt><trkpt lat="44.6234839" lon="11.4569414"><ele>14.0</ele><time>2026-04-07T17:53:31.556Z</time></trkpt><trkpt lat="44.6232693" lon="11.456776"><ele>14.0</ele><time>2026-04-07T17:53:32.563Z</time></trkpt><trkpt lat="44.6230293" lon="11.4565946"><ele>14.0</ele><time>2026-04-07T17:53:33.559Z</time></trkpt><trkpt lat="44.6227977" lon="11.4564097"><ele>14.0</ele><time>2026-04-07T17:53:34.561Z</time></trkpt><trkpt lat="44.6225849" lon="11.4562424"><ele>14.666666666666668</ele><time>2026-04-07T17:53:35.56Z</time></trkpt><trkpt lat="44.6223938" lon="11.4561006"><ele>15.333333333333332</ele><time>2026-04-07T17:53:36.566Z</time></trkpt><trkpt lat="44.6222077" lon="11.4559636"><ele>16.0</ele><time>2026-04-07T17:53:37.562Z</time></trkpt><trkpt lat="44.6220196" lon="11.4558224"><ele>16.0</ele><time>2026-04-07T17:53:38.562Z</time></trkpt><trkpt lat="44.6218412" lon="11.4556878"><ele>16.0</ele><time>2026-04-07T17:53:39.567Z</time></trkpt><trkpt lat="44.6216538" lon="11.4555516"><ele>16.0</ele><time>2026-04-07T17:53:40.565Z</time></trkpt><trkpt lat="44.6214821" lon="11.4554249"><ele>16.0</ele><time>2026-04-07T17:53:41.561Z</time></trkpt><trkpt lat="44.6213192" lon="11.4553056"><ele>16.0</ele><time>2026-04-07T17:53:42.56Z</time></trkpt><trkpt lat="44.6211789" lon="11.4551919"><ele>16.0</ele><time>2026-04-07T17:53:43.561Z</time></trkpt><trkpt lat="44.6210405" lon="11.4550668"><ele>16.0</ele><time>2026-04-07T17:53:44.565Z</time></trkpt><trkpt lat="44.6208813" lon="11.454932"><ele>16.0</ele><time>2026-04-07T17:53:45.56Z</time></trkpt><trkpt lat="44.6207238" lon="11.4547998"><ele>16.0</ele><time>2026-04-07T17:53:46.577Z</time></trkpt><trkpt lat="44.6205875" lon="11.454678"><ele>16.666666666666664</ele><time>2026-04-07T17:53:47.562Z</time></trkpt><trkpt lat="44.6204348" lon="11.4545786"><ele>17.333333333333332</ele><time>2026-04-07T17:53:48.562Z</time></trkpt><trkpt lat="44.6202711" lon="11.4544722"><ele>18.0</ele><time>2026-04-07T17:53:49.564Z</time></trkpt><trkpt lat="44.6201153" lon="11.4543743"><ele>18.0</ele><time>2026-04-07T17:53:50.562Z</time></trkpt><trkpt lat="44.6199705" lon="11.4542493"><ele>18.0</ele><time>2026-04-07T17:53:51.563Z</time></trkpt><trkpt lat="44.6198256" lon="11.4541328"><ele>18.0</ele><time>2026-04-07T17:53:52.56Z</time></trkpt><trkpt lat="44.6196764" lon="11.454018"><ele>18.0</ele><time>2026-04-07T17:53:53.556Z</time></trkpt><trkpt lat="44.6195205" lon="11.4539442"><ele>18.0</ele><time>2026-04-07T17:53:54.548Z</time></trkpt><trkpt lat="44.6193726" lon="11.4538665"><ele>18.0</ele><time>2026-04-07T17:53:55.547Z</time></trkpt><trkpt lat="44.6192324" lon="11.4537762"><ele>18.333333333333332</ele><time>2026-04-07T17:53:56.552Z</time></trkpt><trkpt lat="44.6190967" lon="11.4536449"><ele>18.666666666666664</ele><time>2026-04-07T17:53:57.564Z</time></trkpt><trkpt lat="44.6189695" lon="11.4535241"><ele>19.0</ele><time>2026-04-07T17:53:58.551Z</time></trkpt><trkpt lat="44.6188427" lon="11.4534625"><ele>19.0</ele><time>2026-04-07T17:53:59.555Z</time></trkpt><trkpt lat="44.6187257" lon="11.4533634"><ele>19.0</ele><time>2026-04-07T17:54:00.552Z</time></trkpt><trkpt lat="44.6185802" lon="11.453292"><ele>19.0</ele><time>2026-04-07T17:54:01.55Z</time></trkpt><trkpt lat="44.61847" lon="11.4532116"><ele>19.0</ele><time>2026-04-07T17:54:02.535Z</time></trkpt><trkpt lat="44.6183543" lon="11.4531294"><ele>19.0</ele><time>2026-04-07T17:54:03.541Z</time></trkpt><trkpt lat="44.6182595" lon="11.4530605"><ele>19.0</ele><time>2026-04-07T17:54:04.529Z</time></trkpt><trkpt lat="44.6181553" lon="11.4530259"><ele>19.0</ele><time>2026-04-07T17:54:05.549Z</time></trkpt><trkpt lat="44.618068" lon="11.4529495"><ele>19.0</ele><time>2026-04-07T17:54:06.555Z</time></trkpt><trkpt lat="44.6179696" lon="11.4528562"><ele>19.0</ele><time>2026-04-07T17:54:07.557Z</time></trkpt><trkpt lat="44.61787" lon="11.4527586"><ele>18.25</ele><time>2026-04-07T17:54:08.558Z</time></trkpt><trkpt lat="44.6177652" lon="11.4526254"><ele>17.5</ele><time>2026-04-07T17:54:09.566Z</time></trkpt><trkpt lat="44.6176574" lon="11.4525164"><ele>16.75</ele><time>2026-04-07T17:54:10.56Z</time></trkpt><trkpt lat="44.6175397" lon="11.4524147"><ele>16.0</ele><time>2026-04-07T17:54:11.561Z</time></trkpt><trkpt lat="44.6174096" lon="11.4522972"><ele>16.0</ele><time>2026-04-07T17:54:12.558Z</time></trkpt><trkpt lat="44.6172666" lon="11.4521572"><ele>16.0</ele><time>2026-04-07T17:54:13.562Z</time></trkpt><trkpt lat="44.6171387" lon="11.4520366"><ele>16.0</ele><time>2026-04-07T17:54:14.565Z</time></trkpt><trkpt lat="44.6170018" lon="11.4519111"><ele>16.0</ele><time>2026-04-07T17:54:15.562Z</time></trkpt><trkpt lat="44.6168561" lon="11.4517984"><ele>16.0</ele><time>2026-04-07T17:54:16.583Z</time></trkpt><trkpt lat="44.6167073" lon="11.4516778"><ele>16.0</ele><time>2026-04-07T17:54:17.558Z</time></trkpt><trkpt lat="44.6165574" lon="11.4515744"><ele>16.0</ele><time>2026-04-07T17:54:18.585Z</time></trkpt><trkpt lat="44.6164042" lon="11.4514579"><ele>16.0</ele><time>2026-04-07T17:54:19.564Z</time></trkpt><trkpt lat="44.6162411" lon="11.4513312"><ele>16.0</ele><time>2026-04-07T17:54:20.565Z</time></trkpt><trkpt lat="44.616085" lon="11.4511994"><ele>15.333333333333332</ele><time>2026-04-07T17:54:21.561Z</time></trkpt><trkpt lat="44.6159172" lon="11.451085"><ele>14.666666666666668</ele><time>2026-04-07T17:54:22.569Z</time></trkpt><trkpt lat="44.6157327" lon="11.4509435"><ele>14.0</ele><time>2026-04-07T17:54:23.566Z</time></trkpt><trkpt lat="44.61556" lon="11.4508035"><ele>14.0</ele><time>2026-04-07T17:54:24.56Z</time></trkpt><trkpt lat="44.6153588" lon="11.4506586"><ele>14.0</ele><time>2026-04-07T17:54:25.564Z</time></trkpt><trkpt lat="44.6151319" lon="11.450486"><ele>14.5</ele><time>2026-04-07T17:54:26.562Z</time></trkpt><trkpt lat="44.6149236" lon="11.4503137"><ele>15.0</ele><time>2026-04-07T17:54:27.567Z</time></trkpt><trkpt lat="44.6147164" lon="11.4501455"><ele>15.0</ele><time>2026-04-07T17:54:28.562Z</time></trkpt><trkpt lat="44.6145152" lon="11.4500006"><ele>15.0</ele><time>2026-04-07T17:54:29.558Z</time></trkpt><trkpt lat="44.6143023" lon="11.4498357"><ele>15.5</ele><time>2026-04-07T17:54:30.567Z</time></trkpt><trkpt lat="44.6140773" lon="11.4496696"><ele>16.0</ele><time>2026-04-07T17:54:31.569Z</time></trkpt><trkpt lat="44.6138387" lon="11.4495039"><ele>16.0</ele><time>2026-04-07T17:54:32.555Z</time></trkpt><trkpt lat="44.6136023" lon="11.4493284"><ele>16.0</ele><time>2026-04-07T17:54:33.568Z</time></trkpt><trkpt lat="44.61337" lon="11.4491484"><ele>16.0</ele><time>2026-04-07T17:54:34.565Z</time></trkpt><trkpt lat="44.6131499" lon="11.4489836"><ele>16.0</ele><time>2026-04-07T17:54:35.563Z</time></trkpt><trkpt lat="44.6129116" lon="11.4488033"><ele>15.5</ele><time>2026-04-07T17:54:36.561Z</time></trkpt><trkpt lat="44.6126704" lon="11.4486156"><ele>15.0</ele><time>2026-04-07T17:54:37.566Z</time></trkpt><trkpt lat="44.6124132" lon="11.4484183"><ele>15.0</ele><time>2026-04-07T17:54:38.564Z</time></trkpt><trkpt lat="44.6121452" lon="11.4482094"><ele>15.0</ele><time>2026-04-07T17:54:39.561Z</time></trkpt><trkpt lat="44.6118804" lon="11.4479998"><ele>15.5</ele><time>2026-04-07T17:54:40.566Z</time></trkpt><trkpt lat="44.6116495" lon="11.4478174"><ele>16.0</ele><time>2026-04-07T17:54:41.558Z</time></trkpt><trkpt lat="44.6114309" lon="11.4476529"><ele>16.0</ele><time>2026-04-07T17:54:42.557Z</time></trkpt><trkpt lat="44.6112029" lon="11.4474873"><ele>16.0</ele><time>2026-04-07T17:54:43.562Z</time></trkpt><trkpt lat="44.6109848" lon="11.447314"><ele>16.0</ele><time>2026-04-07T17:54:44.564Z</time></trkpt><trkpt lat="44.61075" lon="11.4471506"><ele>16.0</ele><time>2026-04-07T17:54:45.565Z</time></trkpt><trkpt lat="44.6105096" lon="11.446971"><ele>16.5</ele><time>2026-04-07T17:54:46.595Z</time></trkpt><trkpt lat="44.6102817" lon="11.4468009"><ele>17.0</ele><time>2026-04-07T17:54:47.565Z</time></trkpt><trkpt lat="44.6100526" lon="11.4466274"><ele>17.0</ele><time>2026-04-07T17:54:48.564Z</time></trkpt><trkpt lat="44.6098136" lon="11.4464731"><ele>17.0</ele><time>2026-04-07T17:54:49.57Z</time></trkpt><trkpt lat="44.6095706" lon="11.4463105"><ele>16.5</ele><time>2026-04-07T17:54:50.561Z</time></trkpt><trkpt lat="44.6093405" lon="11.4461199"><ele>16.0</ele><time>2026-04-07T17:54:51.566Z</time></trkpt><trkpt lat="44.6091131" lon="11.4459328"><ele>16.0</ele><time>2026-04-07T17:54:52.575Z</time></trkpt><trkpt lat="44.6088866" lon="11.4457361"><ele>16.0</ele><time>2026-04-07T17:54:53.571Z</time></trkpt><trkpt lat="44.608673" lon="11.4455747"><ele>16.5</ele><time>2026-04-07T17:54:54.564Z</time></trkpt><trkpt lat="44.6084593" lon="11.4454339"><ele>17.0</ele><time>2026-04-07T17:54:55.571Z</time></trkpt><trkpt lat="44.6082231" lon="11.4452602"><ele>17.0</ele><time>2026-04-07T17:54:56.585Z</time></trkpt><trkpt lat="44.608" lon="11.4450809"><ele>17.0</ele><time>2026-04-07T17:54:57.576Z</time></trkpt><trkpt lat="44.6077798" lon="11.4449088"><ele>17.0</ele><time>2026-04-07T17:54:58.566Z</time></trkpt><trkpt lat="44.607584" lon="11.444737"><ele>17.0</ele><time>2026-04-07T17:54:59.566Z</time></trkpt><trkpt lat="44.6073711" lon="11.4445789"><ele>17.0</ele><time>2026-04-07T17:55:00.572Z</time></trkpt><trkpt lat="44.6071484" lon="11.444421"><ele>17.0</ele><time>2026-04-07T17:55:01.567Z</time></trkpt><trkpt lat="44.6069184" lon="11.4442537"><ele>18.0</ele><time>2026-04-07T17:55:02.568Z</time></trkpt><trkpt lat="44.606672" lon="11.4440767"><ele>19.0</ele><time>2026-04-07T17:55:03.574Z</time></trkpt><trkpt lat="44.6064223" lon="11.443884"><ele>19.0</ele><time>2026-04-07T17:55:04.573Z</time></trkpt><trkpt lat="44.6061648" lon="11.4437038"><ele>19.0</ele><time>2026-04-07T17:55:05.567Z</time></trkpt><trkpt lat="44.6059187" lon="11.4435231"><ele>18.0</ele><time>2026-04-07T17:55:06.576Z</time></trkpt><trkpt lat="44.6056868" lon="11.44333"><ele>17.0</ele><time>2026-04-07T17:55:07.568Z</time></trkpt><trkpt lat="44.6054402" lon="11.4431403"><ele>16.5</ele><time>2026-04-07T17:55:08.568Z</time></trkpt><trkpt lat="44.6051979" lon="11.4429378"><ele>16.0</ele><time>2026-04-07T17:55:09.574Z</time></trkpt><trkpt lat="44.6049644" lon="11.4427394"><ele>16.0</ele><time>2026-04-07T17:55:10.573Z</time></trkpt><trkpt lat="44.6047392" lon="11.4425772"><ele>16.0</ele><time>2026-04-07T17:55:11.575Z</time></trkpt><trkpt lat="44.604533" lon="11.4424161"><ele>16.5</ele><time>2026-04-07T17:55:12.572Z</time></trkpt><trkpt lat="44.6043252" lon="11.4422584"><ele>17.0</ele><time>2026-04-07T17:55:13.573Z</time></trkpt><trkpt lat="44.6041281" lon="11.4420945"><ele>17.0</ele><time>2026-04-07T17:55:14.572Z</time></trkpt><trkpt lat="44.6039195" lon="11.4419253"><ele>17.0</ele><time>2026-04-07T17:55:15.569Z</time></trkpt><trkpt lat="44.6036875" lon="11.4417412"><ele>18.0</ele><time>2026-04-07T17:55:16.583Z</time></trkpt><trkpt lat="44.6034718" lon="11.441569"><ele>19.0</ele><time>2026-04-07T17:55:17.568Z</time></trkpt><trkpt lat="44.6032538" lon="11.4414067"><ele>19.0</ele><time>2026-04-07T17:55:18.574Z</time></trkpt><trkpt lat="44.6030421" lon="11.4412498"><ele>19.0</ele><time>2026-04-07T17:55:19.568Z</time></trkpt><trkpt lat="44.6028308" lon="11.4410963"><ele>19.0</ele><time>2026-04-07T17:55:20.572Z</time></trkpt><trkpt lat="44.6026425" lon="11.4409465"><ele>19.0</ele><time>2026-04-07T17:55:21.568Z</time></trkpt><trkpt lat="44.6024327" lon="11.4407838"><ele>19.0</ele><time>2026-04-07T17:55:22.572Z</time></trkpt><trkpt lat="44.6022165" lon="11.4406215"><ele>19.0</ele><time>2026-04-07T17:55:23.571Z</time></trkpt><trkpt lat="44.6020175" lon="11.4404618"><ele>18.666666666666664</ele><time>2026-04-07T17:55:24.569Z</time></trkpt><trkpt lat="44.6018355" lon="11.440306"><ele>18.333333333333332</ele><time>2026-04-07T17:55:25.564Z</time></trkpt><trkpt lat="44.6016578" lon="11.4401558"><ele>18.0</ele><time>2026-04-07T17:55:26.569Z</time></trkpt><trkpt lat="44.6014672" lon="11.4400259"><ele>18.0</ele><time>2026-04-07T17:55:27.568Z</time></trkpt><trkpt lat="44.6012619" lon="11.4398943"><ele>18.0</ele><time>2026-04-07T17:55:28.563Z</time></trkpt><trkpt lat="44.6010474" lon="11.43978"><ele>18.0</ele><time>2026-04-07T17:55:29.58Z</time></trkpt><trkpt lat="44.6008485" lon="11.4396222"><ele>18.0</ele><time>2026-04-07T17:55:30.571Z</time></trkpt><trkpt lat="44.6006496" lon="11.4394342"><ele>18.0</ele><time>2026-04-07T17:55:31.557Z</time></trkpt><trkpt lat="44.6004592" lon="11.4392771"><ele>18.0</ele><time>2026-04-07T17:55:32.573Z</time></trkpt><trkpt lat="44.6002766" lon="11.4391131"><ele>18.0</ele><time>2026-04-07T17:55:33.563Z</time></trkpt><trkpt lat="44.6001004" lon="11.4389503"><ele>17.0</ele><time>2026-04-07T17:55:34.564Z</time></trkpt><trkpt lat="44.5999284" lon="11.4387867"><ele>16.0</ele><time>2026-04-07T17:55:35.559Z</time></trkpt><trkpt lat="44.5997595" lon="11.4386501"><ele>15.0</ele><time>2026-04-07T17:55:36.572Z</time></trkpt><trkpt lat="44.5996194" lon="11.4385293"><ele>16.0</ele><time>2026-04-07T17:55:37.562Z</time></trkpt><trkpt lat="44.5994613" lon="11.4384025"><ele>17.0</ele><time>2026-04-07T17:55:38.565Z</time></trkpt><trkpt lat="44.5992796" lon="11.4382996"><ele>18.0</ele><time>2026-04-07T17:55:39.565Z</time></trkpt><trkpt lat="44.5990532" lon="11.4382369"><ele>18.0</ele><time>2026-04-07T17:55:40.567Z</time></trkpt><trkpt lat="44.5988529" lon="11.4382157"><ele>18.0</ele><time>2026-04-07T17:55:41.563Z</time></trkpt><trkpt lat="44.598664" lon="11.43821"><ele>18.0</ele><time>2026-04-07T17:55:42.568Z</time></trkpt><trkpt lat="44.5984664" lon="11.4381853"><ele>18.0</ele><time>2026-04-07T17:55:43.562Z</time></trkpt><trkpt lat="44.598263" lon="11.4380964"><ele>18.0</ele><time>2026-04-07T17:55:44.559Z</time></trkpt><trkpt lat="44.5980574" lon="11.4379542"><ele>18.0</ele><time>2026-04-07T17:55:45.554Z</time></trkpt><trkpt lat="44.59782" lon="11.4377716"><ele>18.0</ele><time>2026-04-07T17:55:46.575Z</time></trkpt><trkpt lat="44.5975906" lon="11.4375951"><ele>18.0</ele><time>2026-04-07T17:55:47.564Z</time></trkpt><trkpt lat="44.597375" lon="11.4374314"><ele>18.0</ele><time>2026-04-07T17:55:48.556Z</time></trkpt><trkpt lat="44.5971816" lon="11.4372715"><ele>18.0</ele><time>2026-04-07T17:55:49.56Z</time></trkpt><trkpt lat="44.5969923" lon="11.4371241"><ele>18.0</ele><time>2026-04-07T17:55:50.559Z</time></trkpt><trkpt lat="44.5967938" lon="11.4369688"><ele>16.5</ele><time>2026-04-07T17:55:51.567Z</time></trkpt><trkpt lat="44.5966015" lon="11.4368004"><ele>15.0</ele><time>2026-04-07T17:55:52.571Z</time></trkpt><trkpt lat="44.5964081" lon="11.436644"><ele>15.0</ele><time>2026-04-07T17:55:53.57Z</time></trkpt><trkpt lat="44.5961996" lon="11.4364798"><ele>15.0</ele><time>2026-04-07T17:55:54.583Z</time></trkpt><trkpt lat="44.596" lon="11.43632"><ele>15.5</ele><time>2026-04-07T17:55:55.58Z</time></trkpt><trkpt lat="44.5957861" lon="11.4361397"><ele>16.0</ele><time>2026-04-07T17:55:56.573Z</time></trkpt><trkpt lat="44.5955902" lon="11.4359791"><ele>16.0</ele><time>2026-04-07T17:55:57.575Z</time></trkpt><trkpt lat="44.595414" lon="11.4358441"><ele>16.0</ele><time>2026-04-07T17:55:58.576Z</time></trkpt><trkpt lat="44.5952177" lon="11.4356876"><ele>16.0</ele><time>2026-04-07T17:55:59.573Z</time></trkpt><trkpt lat="44.5950332" lon="11.4355415"><ele>16.333333333333332</ele><time>2026-04-07T17:56:00.574Z</time></trkpt><trkpt lat="44.5948433" lon="11.4353856"><ele>16.666666666666668</ele><time>2026-04-07T17:56:01.574Z</time></trkpt><trkpt lat="44.5946622" lon="11.4352446"><ele>17.0</ele><time>2026-04-07T17:56:02.569Z</time></trkpt><trkpt lat="44.5945049" lon="11.4351018"><ele>17.0</ele><time>2026-04-07T17:56:03.575Z</time></trkpt><trkpt lat="44.5943083" lon="11.4349513"><ele>17.0</ele><time>2026-04-07T17:56:04.57Z</time></trkpt><trkpt lat="44.5941147" lon="11.4347869"><ele>17.0</ele><time>2026-04-07T17:56:05.568Z</time></trkpt><trkpt lat="44.5939143" lon="11.4346311"><ele>17.0</ele><time>2026-04-07T17:56:06.575Z</time></trkpt><trkpt lat="44.5937132" lon="11.4344772"><ele>17.0</ele><time>2026-04-07T17:56:07.57Z</time></trkpt><trkpt lat="44.593533" lon="11.4343329"><ele>17.0</ele><time>2026-04-07T17:56:08.576Z</time></trkpt><trkpt lat="44.5933292" lon="11.4341726"><ele>17.0</ele><time>2026-04-07T17:56:09.576Z</time></trkpt><trkpt lat="44.5931146" lon="11.4340002"><ele>17.0</ele><time>2026-04-07T17:56:10.576Z</time></trkpt><trkpt lat="44.592897" lon="11.433816"><ele>17.0</ele><time>2026-04-07T17:56:11.572Z</time></trkpt><trkpt lat="44.5926892" lon="11.4336437"><ele>18.0</ele><time>2026-04-07T17:56:12.576Z</time></trkpt><trkpt lat="44.5924598" lon="11.4334641"><ele>19.0</ele><time>2026-04-07T17:56:13.573Z</time></trkpt><trkpt lat="44.5922329" lon="11.4332849"><ele>19.0</ele><time>2026-04-07T17:56:14.572Z</time></trkpt><trkpt lat="44.5920344" lon="11.4331431"><ele>19.0</ele><time>2026-04-07T17:56:15.569Z</time></trkpt><trkpt lat="44.5918171" lon="11.4329823"><ele>18.5</ele><time>2026-04-07T17:56:16.592Z</time></trkpt><trkpt lat="44.5916107" lon="11.4328229"><ele>18.0</ele><time>2026-04-07T17:56:17.572Z</time></trkpt><trkpt lat="44.5914008" lon="11.4326715"><ele>18.0</ele><time>2026-04-07T17:56:18.582Z</time></trkpt><trkpt lat="44.5911942" lon="11.4325132"><ele>18.0</ele><time>2026-04-07T17:56:19.575Z</time></trkpt><trkpt lat="44.5909698" lon="11.4323411"><ele>17.5</ele><time>2026-04-07T17:56:20.578Z</time></trkpt><trkpt lat="44.5907623" lon="11.4321938"><ele>17.0</ele><time>2026-04-07T17:56:21.572Z</time></trkpt><trkpt lat="44.5905566" lon="11.4320513"><ele>17.0</ele><time>2026-04-07T17:56:22.58Z</time></trkpt><trkpt lat="44.5903615" lon="11.4319032"><ele>17.0</ele><time>2026-04-07T17:56:23.569Z</time></trkpt><trkpt lat="44.590161" lon="11.4317614"><ele>17.0</ele><time>2026-04-07T17:56:24.594Z</time></trkpt><trkpt lat="44.5899442" lon="11.4316142"><ele>17.0</ele><time>2026-04-07T17:56:25.578Z</time></trkpt><trkpt lat="44.5897337" lon="11.4314774"><ele>17.0</ele><time>2026-04-07T17:56:26.578Z</time></trkpt><trkpt lat="44.5895093" lon="11.4313066"><ele>19.0</ele><time>2026-04-07T17:56:27.58Z</time></trkpt><trkpt lat="44.5893112" lon="11.4311519"><ele>21.0</ele><time>2026-04-07T17:56:28.582Z</time></trkpt><trkpt lat="44.5891006" lon="11.4309984"><ele>21.0</ele><time>2026-04-07T17:56:29.566Z</time></trkpt><trkpt lat="44.5888777" lon="11.4308489"><ele>21.0</ele><time>2026-04-07T17:56:30.58Z</time></trkpt><trkpt lat="44.5886684" lon="11.4306954"><ele>20.666666666666668</ele><time>2026-04-07T17:56:31.573Z</time></trkpt><trkpt lat="44.588465" lon="11.4305427"><ele>20.333333333333336</ele><time>2026-04-07T17:56:32.576Z</time></trkpt><trkpt lat="44.5882717" lon="11.4304037"><ele>20.0</ele><time>2026-04-07T17:56:33.575Z</time></trkpt><trkpt lat="44.5880808" lon="11.4302444"><ele>19.333333333333336</ele><time>2026-04-07T17:56:34.581Z</time></trkpt><trkpt lat="44.587887" lon="11.4300894"><ele>18.666666666666668</ele><time>2026-04-07T17:56:35.571Z</time></trkpt><trkpt lat="44.5877271" lon="11.4299278"><ele>18.0</ele><time>2026-04-07T17:56:36.563Z</time></trkpt><trkpt lat="44.5875692" lon="11.4297347"><ele>18.0</ele><time>2026-04-07T17:56:37.574Z</time></trkpt><trkpt lat="44.5874044" lon="11.4295366"><ele>18.0</ele><time>2026-04-07T17:56:38.574Z</time></trkpt><trkpt lat="44.587225" lon="11.42932"><ele>18.0</ele><time>2026-04-07T17:56:39.567Z</time></trkpt><trkpt lat="44.5870589" lon="11.4290963"><ele>18.0</ele><time>2026-04-07T17:56:40.573Z</time></trkpt><trkpt lat="44.5869367" lon="11.4288651"><ele>18.0</ele><time>2026-04-07T17:56:41.573Z</time></trkpt><trkpt lat="44.5868265" lon="11.4286265"><ele>19.0</ele><time>2026-04-07T17:56:42.578Z</time></trkpt><trkpt lat="44.5867256" lon="11.428394"><ele>20.0</ele><time>2026-04-07T17:56:43.599Z</time></trkpt><trkpt lat="44.5865961" lon="11.4281596"><ele>21.0</ele><time>2026-04-07T17:56:44.575Z</time></trkpt><trkpt lat="44.5864654" lon="11.4279006"><ele>21.0</ele><time>2026-04-07T17:56:45.571Z</time></trkpt><trkpt lat="44.5863757" lon="11.4276706"><ele>21.0</ele><time>2026-04-07T17:56:46.59Z</time></trkpt><trkpt lat="44.586293" lon="11.4274663"><ele>21.0</ele><time>2026-04-07T17:56:47.574Z</time></trkpt><trkpt lat="44.5862232" lon="11.4272516"><ele>21.333333333333332</ele><time>2026-04-07T17:56:48.565Z</time></trkpt><trkpt lat="44.5861634" lon="11.4270478"><ele>21.666666666666664</ele><time>2026-04-07T17:56:49.564Z</time></trkpt><trkpt lat="44.5861473" lon="11.4268315"><ele>22.0</ele><time>2026-04-07T17:56:50.568Z</time></trkpt><trkpt lat="44.5861256" lon="11.4266251"><ele>22.0</ele><time>2026-04-07T17:56:51.561Z</time></trkpt><trkpt lat="44.5860856" lon="11.4264291"><ele>22.0</ele><time>2026-04-07T17:56:52.554Z</time></trkpt><trkpt lat="44.5860198" lon="11.4262324"><ele>22.0</ele><time>2026-04-07T17:56:53.56Z</time></trkpt><trkpt lat="44.5859266" lon="11.4260078"><ele>21.666666666666664</ele><time>2026-04-07T17:56:54.551Z</time></trkpt><trkpt lat="44.5858302" lon="11.4258519"><ele>21.333333333333332</ele><time>2026-04-07T17:56:55.563Z</time></trkpt><trkpt lat="44.5857249" lon="11.425714"><ele>21.0</ele><time>2026-04-07T17:56:56.565Z</time></trkpt><trkpt lat="44.5855891" lon="11.4255951"><ele>21.0</ele><time>2026-04-07T17:56:57.572Z</time></trkpt><trkpt lat="44.5854256" lon="11.4254586"><ele>21.0</ele><time>2026-04-07T17:56:58.565Z</time></trkpt><trkpt lat="44.5852411" lon="11.4253203"><ele>21.0</ele><time>2026-04-07T17:56:59.56Z</time></trkpt><trkpt lat="44.5850683" lon="11.4252025"><ele>21.0</ele><time>2026-04-07T17:57:00.567Z</time></trkpt><trkpt lat="44.5849149" lon="11.4250875"><ele>21.0</ele><time>2026-04-07T17:57:01.593Z</time></trkpt><trkpt lat="44.5847558" lon="11.4249374"><ele>21.0</ele><time>2026-04-07T17:57:02.569Z</time></trkpt><trkpt lat="44.5845979" lon="11.424806"><ele>20.666666666666668</ele><time>2026-04-07T17:57:03.568Z</time></trkpt><trkpt lat="44.5844537" lon="11.4246798"><ele>20.333333333333336</ele><time>2026-04-07T17:57:04.57Z</time></trkpt><trkpt lat="44.5843093" lon="11.4245436"><ele>20.0</ele><time>2026-04-07T17:57:05.569Z</time></trkpt><trkpt lat="44.5841612" lon="11.4244054"><ele>19.666666666666668</ele><time>2026-04-07T17:57:06.573Z</time></trkpt><trkpt lat="44.5840086" lon="11.4242789"><ele>19.333333333333332</ele><time>2026-04-07T17:57:07.571Z</time></trkpt><trkpt lat="44.583864" lon="11.424156"><ele>19.0</ele><time>2026-04-07T17:57:08.573Z</time></trkpt><trkpt lat="44.5836987" lon="11.4239977"><ele>19.0</ele><time>2026-04-07T17:57:09.572Z</time></trkpt><trkpt lat="44.5835305" lon="11.4238346"><ele>19.0</ele><time>2026-04-07T17:57:10.572Z</time></trkpt><trkpt lat="44.5833802" lon="11.4236813"><ele>19.0</ele><time>2026-04-07T17:57:11.568Z</time></trkpt><trkpt lat="44.583243" lon="11.4235328"><ele>19.0</ele><time>2026-04-07T17:57:12.572Z</time></trkpt><trkpt lat="44.5830949" lon="11.4233741"><ele>19.0</ele><time>2026-04-07T17:57:13.566Z</time></trkpt><trkpt lat="44.5829623" lon="11.4232147"><ele>19.0</ele><time>2026-04-07T17:57:14.571Z</time></trkpt><trkpt lat="44.5828138" lon="11.4230416"><ele>19.333333333333332</ele><time>2026-04-07T17:57:15.572Z</time></trkpt><trkpt lat="44.5826806" lon="11.4228858"><ele>19.666666666666668</ele><time>2026-04-07T17:57:16.586Z</time></trkpt><trkpt lat="44.5825285" lon="11.4227028"><ele>20.0</ele><time>2026-04-07T17:57:17.567Z</time></trkpt><trkpt lat="44.5823823" lon="11.4225048"><ele>20.0</ele><time>2026-04-07T17:57:18.568Z</time></trkpt><trkpt lat="44.5822374" lon="11.4222797"><ele>20.0</ele><time>2026-04-07T17:57:19.57Z</time></trkpt><trkpt lat="44.5820976" lon="11.4220277"><ele>20.0</ele><time>2026-04-07T17:57:20.565Z</time></trkpt><trkpt lat="44.58198" lon="11.4217971"><ele>20.333333333333336</ele><time>2026-04-07T17:57:21.565Z</time></trkpt><trkpt lat="44.5818631" lon="11.4215758"><ele>20.666666666666668</ele><time>2026-04-07T17:57:22.569Z</time></trkpt><trkpt lat="44.5817594" lon="11.4213523"><ele>21.0</ele><time>2026-04-07T17:57:23.571Z</time></trkpt><trkpt lat="44.5816555" lon="11.4211198"><ele>21.0</ele><time>2026-04-07T17:57:24.57Z</time></trkpt><trkpt lat="44.5815627" lon="11.4208956"><ele>21.0</ele><time>2026-04-07T17:57:25.569Z</time></trkpt><trkpt lat="44.5814638" lon="11.4206693"><ele>21.0</ele><time>2026-04-07T17:57:26.573Z</time></trkpt><trkpt lat="44.5813676" lon="11.4204708"><ele>21.0</ele><time>2026-04-07T17:57:27.564Z</time></trkpt><trkpt lat="44.5812922" lon="11.4202769"><ele>21.0</ele><time>2026-04-07T17:57:28.561Z</time></trkpt><trkpt lat="44.581215" lon="11.4201149"><ele>21.0</ele><time>2026-04-07T17:57:29.569Z</time></trkpt><trkpt lat="44.5811572" lon="11.4199578"><ele>21.0</ele><time>2026-04-07T17:57:30.561Z</time></trkpt><trkpt lat="44.5811142" lon="11.4197997"><ele>20.75</ele><time>2026-04-07T17:57:31.551Z</time></trkpt><trkpt lat="44.5810977" lon="11.4196245"><ele>20.5</ele><time>2026-04-07T17:57:32.56Z</time></trkpt><trkpt lat="44.5811055" lon="11.4194402"><ele>20.25</ele><time>2026-04-07T17:57:33.567Z</time></trkpt><trkpt lat="44.581166" lon="11.4192582"><ele>20.0</ele><time>2026-04-07T17:57:34.557Z</time></trkpt><trkpt lat="44.5812277" lon="11.4190796"><ele>20.0</ele><time>2026-04-07T17:57:35.548Z</time></trkpt><trkpt lat="44.5813311" lon="11.418893"><ele>20.0</ele><time>2026-04-07T17:57:36.557Z</time></trkpt><trkpt lat="44.5814285" lon="11.4186599"><ele>20.0</ele><time>2026-04-07T17:57:37.556Z</time></trkpt><trkpt lat="44.5815431" lon="11.4184393"><ele>19.666666666666668</ele><time>2026-04-07T17:57:38.56Z</time></trkpt><trkpt lat="44.5816547" lon="11.4182158"><ele>19.333333333333332</ele><time>2026-04-07T17:57:39.565Z</time></trkpt><trkpt lat="44.5817434" lon="11.4179976"><ele>19.0</ele><time>2026-04-07T17:57:40.564Z</time></trkpt><trkpt lat="44.5818228" lon="11.4177747"><ele>18.666666666666664</ele><time>2026-04-07T17:57:41.565Z</time></trkpt><trkpt lat="44.5818879" lon="11.4175482"><ele>18.333333333333332</ele><time>2026-04-07T17:57:42.567Z</time></trkpt><trkpt lat="44.5818997" lon="11.417331"><ele>18.0</ele><time>2026-04-07T17:57:43.566Z</time></trkpt><trkpt lat="44.5818742" lon="11.4170883"><ele>18.75</ele><time>2026-04-07T17:57:44.565Z</time></trkpt><trkpt lat="44.5818023" lon="11.4168714"><ele>19.5</ele><time>2026-04-07T17:57:45.565Z</time></trkpt><trkpt lat="44.581734" lon="11.4166728"><ele>20.25</ele><time>2026-04-07T17:57:46.587Z</time></trkpt><trkpt lat="44.5816927" lon="11.4165352"><ele>21.0</ele><time>2026-04-07T17:57:47.56Z</time></trkpt><trkpt lat="44.5816679" lon="11.4164388"><ele>21.0</ele><time>2026-04-07T17:57:48.562Z</time></trkpt><trkpt lat="44.5816311" lon="11.4163368"><ele>21.0</ele><time>2026-04-07T17:57:49.567Z</time></trkpt><trkpt lat="44.5816055" lon="11.416243"><ele>21.0</ele><time>2026-04-07T17:57:50.565Z</time></trkpt><trkpt lat="44.5815834" lon="11.4161376"><ele>21.0</ele><time>2026-04-07T17:57:51.559Z</time></trkpt><trkpt lat="44.5815678" lon="11.4160162"><ele>21.0</ele><time>2026-04-07T17:57:52.557Z</time></trkpt><trkpt lat="44.5815504" lon="11.4158663"><ele>21.0</ele><time>2026-04-07T17:57:53.568Z</time></trkpt><trkpt lat="44.5815463" lon="11.4156957"><ele>21.0</ele><time>2026-04-07T17:57:54.565Z</time></trkpt><trkpt lat="44.5815542" lon="11.4155381"><ele>21.0</ele><time>2026-04-07T17:57:55.568Z</time></trkpt><trkpt lat="44.5815717" lon="11.4153947"><ele>21.0</ele><time>2026-04-07T17:57:56.575Z</time></trkpt><trkpt lat="44.5815943" lon="11.415266"><ele>21.0</ele><time>2026-04-07T17:57:57.57Z</time></trkpt><trkpt lat="44.5816194" lon="11.4151423"><ele>21.0</ele><time>2026-04-07T17:57:58.566Z</time></trkpt><trkpt lat="44.581648" lon="11.4150182"><ele>20.8</ele><time>2026-04-07T17:57:59.568Z</time></trkpt><trkpt lat="44.5816836" lon="11.4149004"><ele>20.6</ele><time>2026-04-07T17:58:00.567Z</time></trkpt><trkpt lat="44.5817132" lon="11.4147835"><ele>20.4</ele><time>2026-04-07T17:58:01.557Z</time></trkpt><trkpt lat="44.5817478" lon="11.4146535"><ele>20.2</ele><time>2026-04-07T17:58:02.566Z</time></trkpt><trkpt lat="44.5817823" lon="11.414508"><ele>20.0</ele><time>2026-04-07T17:58:03.567Z</time></trkpt><trkpt lat="44.5818141" lon="11.4143611"><ele>20.0</ele><time>2026-04-07T17:58:04.564Z</time></trkpt><trkpt lat="44.5818536" lon="11.4142205"><ele>20.0</ele><time>2026-04-07T17:58:05.568Z</time></trkpt><trkpt lat="44.5818968" lon="11.4140745"><ele>20.0</ele><time>2026-04-07T17:58:06.566Z</time></trkpt><trkpt lat="44.5819458" lon="11.4139162"><ele>20.0</ele><time>2026-04-07T17:58:07.564Z</time></trkpt><trkpt lat="44.5819998" lon="11.4137372"><ele>20.0</ele><time>2026-04-07T17:58:08.565Z</time></trkpt><trkpt lat="44.5820598" lon="11.4135365"><ele>20.0</ele><time>2026-04-07T17:58:09.584Z</time></trkpt><trkpt lat="44.5821439" lon="11.4133307"><ele>20.0</ele><time>2026-04-07T17:58:10.575Z</time></trkpt><trkpt lat="44.5822217" lon="11.413098"><ele>20.0</ele><time>2026-04-07T17:58:11.571Z</time></trkpt><trkpt lat="44.5823037" lon="11.4128289"><ele>20.0</ele><time>2026-04-07T17:58:12.568Z</time></trkpt><trkpt lat="44.5823894" lon="11.4125583"><ele>20.0</ele><time>2026-04-07T17:58:13.568Z</time></trkpt><trkpt lat="44.5824617" lon="11.4122946"><ele>20.0</ele><time>2026-04-07T17:58:14.566Z</time></trkpt><trkpt lat="44.5825569" lon="11.4120203"><ele>20.0</ele><time>2026-04-07T17:58:15.569Z</time></trkpt><trkpt lat="44.5826663" lon="11.4117321"><ele>20.0</ele><time>2026-04-07T17:58:16.589Z</time></trkpt><trkpt lat="44.582761" lon="11.4114533"><ele>20.0</ele><time>2026-04-07T17:58:17.58Z</time></trkpt><trkpt lat="44.5828518" lon="11.4111993"><ele>20.0</ele><time>2026-04-07T17:58:18.58Z</time></trkpt><trkpt lat="44.5829398" lon="11.4109499"><ele>19.333333333333336</ele><time>2026-04-07T17:58:19.587Z</time></trkpt><trkpt lat="44.5830283" lon="11.4107096"><ele>18.666666666666668</ele><time>2026-04-07T17:58:20.583Z</time></trkpt><trkpt lat="44.58312" lon="11.4104634"><ele>18.0</ele><time>2026-04-07T17:58:21.578Z</time></trkpt><trkpt lat="44.5831984" lon="11.4101925"><ele>18.0</ele><time>2026-04-07T17:58:22.585Z</time></trkpt><trkpt lat="44.5833208" lon="11.4099238"><ele>18.0</ele><time>2026-04-07T17:58:23.576Z</time></trkpt><trkpt lat="44.5834208" lon="11.4096478"><ele>18.0</ele><time>2026-04-07T17:58:24.576Z</time></trkpt><trkpt lat="44.5835124" lon="11.4094028"><ele>18.0</ele><time>2026-04-07T17:58:25.581Z</time></trkpt><trkpt lat="44.5835966" lon="11.4091775"><ele>18.0</ele><time>2026-04-07T17:58:26.582Z</time></trkpt><trkpt lat="44.583681" lon="11.4089641"><ele>18.0</ele><time>2026-04-07T17:58:27.581Z</time></trkpt><trkpt lat="44.5837573" lon="11.4087607"><ele>18.5</ele><time>2026-04-07T17:58:28.586Z</time></trkpt><trkpt lat="44.583827" lon="11.4085784"><ele>19.0</ele><time>2026-04-07T17:58:29.582Z</time></trkpt><trkpt lat="44.5839006" lon="11.4084137"><ele>19.5</ele><time>2026-04-07T17:58:30.579Z</time></trkpt><trkpt lat="44.5839674" lon="11.4082304"><ele>20.0</ele><time>2026-04-07T17:58:31.584Z</time></trkpt><trkpt lat="44.5840313" lon="11.4080369"><ele>20.333333333333336</ele><time>2026-04-07T17:58:32.579Z</time></trkpt><trkpt lat="44.5840765" lon="11.4078383"><ele>20.666666666666668</ele><time>2026-04-07T17:58:33.576Z</time></trkpt><trkpt lat="44.5841282" lon="11.4076306"><ele>21.0</ele><time>2026-04-07T17:58:34.578Z</time></trkpt><trkpt lat="44.5841867" lon="11.4074162"><ele>21.0</ele><time>2026-04-07T17:58:35.578Z</time></trkpt><trkpt lat="44.584246" lon="11.4072186"><ele>21.0</ele><time>2026-04-07T17:58:36.592Z</time></trkpt><trkpt lat="44.5843016" lon="11.4070224"><ele>21.0</ele><time>2026-04-07T17:58:37.583Z</time></trkpt><trkpt lat="44.5843738" lon="11.4068386"><ele>20.75</ele><time>2026-04-07T17:58:38.582Z</time></trkpt><trkpt lat="44.5844231" lon="11.4066653"><ele>20.5</ele><time>2026-04-07T17:58:39.583Z</time></trkpt><trkpt lat="44.5844696" lon="11.4064794"><ele>20.25</ele><time>2026-04-07T17:58:40.579Z</time></trkpt><trkpt lat="44.5845295" lon="11.4062856"><ele>20.0</ele><time>2026-04-07T17:58:41.586Z</time></trkpt><trkpt lat="44.5845945" lon="11.4060917"><ele>20.0</ele><time>2026-04-07T17:58:42.586Z</time></trkpt><trkpt lat="44.5846694" lon="11.4059147"><ele>20.0</ele><time>2026-04-07T17:58:43.58Z</time></trkpt><trkpt lat="44.5847266" lon="11.4057364"><ele>20.0</ele><time>2026-04-07T17:58:44.584Z</time></trkpt><trkpt lat="44.5847994" lon="11.4055198"><ele>20.666666666666668</ele><time>2026-04-07T17:58:45.576Z</time></trkpt><trkpt lat="44.5848808" lon="11.4052876"><ele>21.333333333333332</ele><time>2026-04-07T17:58:46.594Z</time></trkpt><trkpt lat="44.5849747" lon="11.4050263"><ele>22.0</ele><time>2026-04-07T17:58:47.577Z</time></trkpt><trkpt lat="44.5850547" lon="11.4047619"><ele>21.333333333333332</ele><time>2026-04-07T17:58:48.583Z</time></trkpt><trkpt lat="44.5851309" lon="11.4045229"><ele>20.666666666666668</ele><time>2026-04-07T17:58:49.585Z</time></trkpt><trkpt lat="44.5852162" lon="11.4042754"><ele>20.0</ele><time>2026-04-07T17:58:50.58Z</time></trkpt><trkpt lat="44.5853124" lon="11.4040042"><ele>19.666666666666668</ele><time>2026-04-07T17:58:51.58Z</time></trkpt><trkpt lat="44.5854175" lon="11.4037225"><ele>19.333333333333332</ele><time>2026-04-07T17:58:52.577Z</time></trkpt><trkpt lat="44.5855026" lon="11.4034602"><ele>19.0</ele><time>2026-04-07T17:58:53.583Z</time></trkpt><trkpt lat="44.5855858" lon="11.4032189"><ele>19.0</ele><time>2026-04-07T17:58:54.578Z</time></trkpt><trkpt lat="44.585664" lon="11.4029983"><ele>19.0</ele><time>2026-04-07T17:58:55.58Z</time></trkpt><trkpt lat="44.58574" lon="11.4027555"><ele>19.0</ele><time>2026-04-07T17:58:56.578Z</time></trkpt><trkpt lat="44.585832" lon="11.4024976"><ele>19.666666666666664</ele><time>2026-04-07T17:58:57.579Z</time></trkpt><trkpt lat="44.5859107" lon="11.4022421"><ele>20.333333333333332</ele><time>2026-04-07T17:58:58.579Z</time></trkpt><trkpt lat="44.5859995" lon="11.4019882"><ele>21.0</ele><time>2026-04-07T17:58:59.576Z</time></trkpt><trkpt lat="44.5860936" lon="11.4017036"><ele>21.0</ele><time>2026-04-07T17:59:00.577Z</time></trkpt><trkpt lat="44.5861955" lon="11.4013993"><ele>21.0</ele><time>2026-04-07T17:59:01.575Z</time></trkpt><trkpt lat="44.5862914" lon="11.4010767"><ele>21.5</ele><time>2026-04-07T17:59:02.574Z</time></trkpt><trkpt lat="44.5864022" lon="11.4007373"><ele>22.0</ele><time>2026-04-07T17:59:03.578Z</time></trkpt><trkpt lat="44.5865295" lon="11.4003908"><ele>21.0</ele><time>2026-04-07T17:59:04.582Z</time></trkpt><trkpt lat="44.5866387" lon="11.4000563"><ele>20.0</ele><time>2026-04-07T17:59:05.575Z</time></trkpt><trkpt lat="44.5867766" lon="11.399732"><ele>20.5</ele><time>2026-04-07T17:59:06.58Z</time></trkpt><trkpt lat="44.5868868" lon="11.3993738"><ele>21.0</ele><time>2026-04-07T17:59:07.577Z</time></trkpt><trkpt lat="44.5869912" lon="11.3990498"><ele>21.5</ele><time>2026-04-07T17:59:08.58Z</time></trkpt><trkpt lat="44.5870972" lon="11.3987224"><ele>22.0</ele><time>2026-04-07T17:59:09.574Z</time></trkpt><trkpt lat="44.5872137" lon="11.398378"><ele>22.0</ele><time>2026-04-07T17:59:10.57Z</time></trkpt><trkpt lat="44.5873214" lon="11.3980264"><ele>22.0</ele><time>2026-04-07T17:59:11.578Z</time></trkpt><trkpt lat="44.587433" lon="11.3977196"><ele>22.0</ele><time>2026-04-07T17:59:12.572Z</time></trkpt><trkpt lat="44.5875217" lon="11.3974106"><ele>22.0</ele><time>2026-04-07T17:59:13.58Z</time></trkpt><trkpt lat="44.5876196" lon="11.3971236"><ele>22.0</ele><time>2026-04-07T17:59:14.576Z</time></trkpt><trkpt lat="44.587725" lon="11.3968182"><ele>22.0</ele><time>2026-04-07T17:59:15.573Z</time></trkpt><trkpt lat="44.5878212" lon="11.3965026"><ele>22.5</ele><time>2026-04-07T17:59:16.588Z</time></trkpt><trkpt lat="44.587937" lon="11.396172"><ele>23.0</ele><time>2026-04-07T17:59:17.575Z</time></trkpt><trkpt lat="44.5880537" lon="11.3958212"><ele>22.5</ele><time>2026-04-07T17:59:18.572Z</time></trkpt><trkpt lat="44.5881789" lon="11.3954765"><ele>22.0</ele><time>2026-04-07T17:59:19.566Z</time></trkpt><trkpt lat="44.5882862" lon="11.3951502"><ele>22.0</ele><time>2026-04-07T17:59:20.566Z</time></trkpt><trkpt lat="44.5883879" lon="11.3948435"><ele>22.0</ele><time>2026-04-07T17:59:21.564Z</time></trkpt><trkpt lat="44.5884849" lon="11.3945448"><ele>22.0</ele><time>2026-04-07T17:59:22.565Z</time></trkpt><trkpt lat="44.5885925" lon="11.3942887"><ele>22.0</ele><time>2026-04-07T17:59:23.566Z</time></trkpt><trkpt lat="44.5887083" lon="11.3940704"><ele>22.0</ele><time>2026-04-07T17:59:24.566Z</time></trkpt><trkpt lat="44.5888211" lon="11.3938785"><ele>21.75</ele><time>2026-04-07T17:59:25.569Z</time></trkpt><trkpt lat="44.5889456" lon="11.3937137"><ele>21.5</ele><time>2026-04-07T17:59:26.57Z</time></trkpt><trkpt lat="44.5890084" lon="11.3935432"><ele>21.25</ele><time>2026-04-07T17:59:27.571Z</time></trkpt><trkpt lat="44.5890846" lon="11.3934044"><ele>21.0</ele><time>2026-04-07T17:59:28.57Z</time></trkpt><trkpt lat="44.589165" lon="11.3932612"><ele>21.0</ele><time>2026-04-07T17:59:29.555Z</time></trkpt><trkpt lat="44.58925" lon="11.3931352"><ele>21.0</ele><time>2026-04-07T17:59:30.572Z</time></trkpt><trkpt lat="44.5893917" lon="11.3930702"><ele>21.0</ele><time>2026-04-07T17:59:31.576Z</time></trkpt><trkpt lat="44.5895456" lon="11.3930376"><ele>21.0</ele><time>2026-04-07T17:59:32.556Z</time></trkpt><trkpt lat="44.5897141" lon="11.3930124"><ele>21.0</ele><time>2026-04-07T17:59:33.564Z</time></trkpt><trkpt lat="44.5898893" lon="11.3930308"><ele>21.0</ele><time>2026-04-07T17:59:34.561Z</time></trkpt><trkpt lat="44.5900333" lon="11.3930452"><ele>21.0</ele><time>2026-04-07T17:59:35.57Z</time></trkpt><trkpt lat="44.590158" lon="11.3930583"><ele>21.0</ele><time>2026-04-07T17:59:36.568Z</time></trkpt><trkpt lat="44.5902833" lon="11.3930667"><ele>21.5</ele><time>2026-04-07T17:59:37.568Z</time></trkpt><trkpt lat="44.5904123" lon="11.3931248"><ele>22.0</ele><time>2026-04-07T17:59:38.571Z</time></trkpt><trkpt lat="44.5905138" lon="11.3932348"><ele>22.5</ele><time>2026-04-07T17:59:39.57Z</time></trkpt><trkpt lat="44.5906053" lon="11.3933934"><ele>23.0</ele><time>2026-04-07T17:59:40.564Z</time></trkpt><trkpt lat="44.5906788" lon="11.3935864"><ele>23.0</ele><time>2026-04-07T17:59:41.564Z</time></trkpt><trkpt lat="44.5907151" lon="11.3938001"><ele>23.0</ele><time>2026-04-07T17:59:42.568Z</time></trkpt><trkpt lat="44.5907335" lon="11.393995"><ele>23.0</ele><time>2026-04-07T17:59:43.592Z</time></trkpt><trkpt lat="44.5907308" lon="11.3941986"><ele>23.0</ele><time>2026-04-07T17:59:44.581Z</time></trkpt><trkpt lat="44.5907336" lon="11.3943556"><ele>22.75</ele><time>2026-04-07T17:59:45.592Z</time></trkpt><trkpt lat="44.5906738" lon="11.3945083"><ele>22.5</ele><time>2026-04-07T17:59:46.601Z</time></trkpt><trkpt lat="44.5905689" lon="11.394645"><ele>22.25</ele><time>2026-04-07T17:59:47.569Z</time></trkpt><trkpt lat="44.5904627" lon="11.3947302"><ele>22.0</ele><time>2026-04-07T17:59:48.601Z</time></trkpt><trkpt lat="44.5903385" lon="11.3947706"><ele>21.5</ele><time>2026-04-07T17:59:49.582Z</time></trkpt><trkpt lat="44.5901972" lon="11.3947593"><ele>21.0</ele><time>2026-04-07T17:59:50.574Z</time></trkpt><trkpt lat="44.5900714" lon="11.3946866"><ele>20.5</ele><time>2026-04-07T17:59:51.586Z</time></trkpt><trkpt lat="44.5899446" lon="11.3945733"><ele>20.0</ele><time>2026-04-07T17:59:52.585Z</time></trkpt><trkpt lat="44.5898053" lon="11.3943968"><ele>20.0</ele><time>2026-04-07T17:59:53.598Z</time></trkpt><trkpt lat="44.5896604" lon="11.3942124"><ele>20.0</ele><time>2026-04-07T17:59:54.576Z</time></trkpt><trkpt lat="44.58952" lon="11.3940176"><ele>20.0</ele><time>2026-04-07T17:59:55.575Z</time></trkpt><trkpt lat="44.5893889" lon="11.393821"><ele>20.333333333333336</ele><time>2026-04-07T17:59:56.582Z</time></trkpt><trkpt lat="44.5892775" lon="11.3936054"><ele>20.666666666666668</ele><time>2026-04-07T17:59:57.576Z</time></trkpt><trkpt lat="44.5891609" lon="11.3933716"><ele>21.0</ele><time>2026-04-07T17:59:58.58Z</time></trkpt><trkpt lat="44.5890365" lon="11.3931243"><ele>21.0</ele><time>2026-04-07T17:59:59.574Z</time></trkpt><trkpt lat="44.5889242" lon="11.3929208"><ele>21.0</ele><time>2026-04-07T18:00:00.574Z</time></trkpt><trkpt lat="44.5888114" lon="11.3927309"><ele>21.0</ele><time>2026-04-07T18:00:01.577Z</time></trkpt><trkpt lat="44.5886916" lon="11.3925309"><ele>21.0</ele><time>2026-04-07T18:00:02.568Z</time></trkpt><trkpt lat="44.5885762" lon="11.3923323"><ele>21.0</ele><time>2026-04-07T18:00:03.581Z</time></trkpt><trkpt lat="44.5884641" lon="11.3921204"><ele>21.0</ele><time>2026-04-07T18:00:04.578Z</time></trkpt><trkpt lat="44.588348" lon="11.391877"><ele>21.0</ele><time>2026-04-07T18:00:05.577Z</time></trkpt><trkpt lat="44.5882101" lon="11.391629"><ele>21.0</ele><time>2026-04-07T18:00:06.582Z</time></trkpt><trkpt lat="44.5880989" lon="11.3913786"><ele>21.0</ele><time>2026-04-07T18:00:07.574Z</time></trkpt><trkpt lat="44.5879856" lon="11.3911429"><ele>21.0</ele><time>2026-04-07T18:00:08.578Z</time></trkpt><trkpt lat="44.5878686" lon="11.3909339"><ele>21.0</ele><time>2026-04-07T18:00:09.597Z</time></trkpt><trkpt lat="44.5877282" lon="11.3907519"><ele>21.0</ele><time>2026-04-07T18:00:10.583Z</time></trkpt><trkpt lat="44.5875672" lon="11.3906207"><ele>21.333333333333332</ele><time>2026-04-07T18:00:11.575Z</time></trkpt><trkpt lat="44.5873888" lon="11.3905135"><ele>21.666666666666664</ele><time>2026-04-07T18:00:12.578Z</time></trkpt><trkpt lat="44.5871806" lon="11.390416"><ele>22.0</ele><time>2026-04-07T18:00:13.574Z</time></trkpt><trkpt lat="44.5869582" lon="11.3903427"><ele>22.0</ele><time>2026-04-07T18:00:14.581Z</time></trkpt><trkpt lat="44.5867445" lon="11.3902638"><ele>22.0</ele><time>2026-04-07T18:00:15.577Z</time></trkpt><trkpt lat="44.5865619" lon="11.3901826"><ele>22.0</ele><time>2026-04-07T18:00:16.592Z</time></trkpt><trkpt lat="44.5863821" lon="11.3901298"><ele>22.0</ele><time>2026-04-07T18:00:17.576Z</time></trkpt><trkpt lat="44.5862275" lon="11.3900739"><ele>22.0</ele><time>2026-04-07T18:00:18.57Z</time></trkpt><trkpt lat="44.5860832" lon="11.3900239"><ele>22.0</ele><time>2026-04-07T18:00:19.573Z</time></trkpt><trkpt lat="44.5859513" lon="11.3899884"><ele>22.0</ele><time>2026-04-07T18:00:20.573Z</time></trkpt><trkpt lat="44.5858124" lon="11.3899507"><ele>22.0</ele><time>2026-04-07T18:00:21.569Z</time></trkpt><trkpt lat="44.585672" lon="11.3899207"><ele>22.0</ele><time>2026-04-07T18:00:22.572Z</time></trkpt><trkpt lat="44.5855089" lon="11.3898795"><ele>22.0</ele><time>2026-04-07T18:00:23.573Z</time></trkpt><trkpt lat="44.585315" lon="11.3898315"><ele>22.0</ele><time>2026-04-07T18:00:24.564Z</time></trkpt><trkpt lat="44.5851217" lon="11.3897562"><ele>22.0</ele><time>2026-04-07T18:00:25.568Z</time></trkpt><trkpt lat="44.5849375" lon="11.3896735"><ele>22.0</ele><time>2026-04-07T18:00:26.573Z</time></trkpt><trkpt lat="44.5847722" lon="11.3895834"><ele>22.0</ele><time>2026-04-07T18:00:27.571Z</time></trkpt><trkpt lat="44.5846163" lon="11.3895093"><ele>22.0</ele><time>2026-04-07T18:00:28.572Z</time></trkpt><trkpt lat="44.58445" lon="11.3894202"><ele>22.0</ele><time>2026-04-07T18:00:29.58Z</time></trkpt><trkpt lat="44.5843047" lon="11.3893341"><ele>21.5</ele><time>2026-04-07T18:00:30.579Z</time></trkpt><trkpt lat="44.5841597" lon="11.3892581"><ele>21.0</ele><time>2026-04-07T18:00:31.576Z</time></trkpt><trkpt lat="44.5840373" lon="11.3891717"><ele>20.5</ele><time>2026-04-07T18:00:32.582Z</time></trkpt><trkpt lat="44.5839" lon="11.3890998"><ele>20.0</ele><time>2026-04-07T18:00:33.58Z</time></trkpt><trkpt lat="44.5837371" lon="11.3890012"><ele>20.0</ele><time>2026-04-07T18:00:34.567Z</time></trkpt><trkpt lat="44.5835894" lon="11.3889031"><ele>20.0</ele><time>2026-04-07T18:00:35.583Z</time></trkpt><trkpt lat="44.5834464" lon="11.388812"><ele>20.0</ele><time>2026-04-07T18:00:36.573Z</time></trkpt><trkpt lat="44.5833095" lon="11.388736"><ele>21.0</ele><time>2026-04-07T18:00:37.572Z</time></trkpt><trkpt lat="44.5831871" lon="11.3886752"><ele>22.0</ele><time>2026-04-07T18:00:38.575Z</time></trkpt><trkpt lat="44.5830875" lon="11.3886138"><ele>23.0</ele><time>2026-04-07T18:00:39.577Z</time></trkpt><trkpt lat="44.5829736" lon="11.3885422"><ele>24.0</ele><time>2026-04-07T18:00:40.581Z</time></trkpt><trkpt lat="44.5828549" lon="11.3884801"><ele>23.5</ele><time>2026-04-07T18:00:41.57Z</time></trkpt><trkpt lat="44.5827344" lon="11.3884043"><ele>23.0</ele><time>2026-04-07T18:00:42.571Z</time></trkpt><trkpt lat="44.5826069" lon="11.3883288"><ele>22.5</ele><time>2026-04-07T18:00:43.574Z</time></trkpt><trkpt lat="44.5824876" lon="11.3882574"><ele>22.0</ele><time>2026-04-07T18:00:44.581Z</time></trkpt><trkpt lat="44.5823696" lon="11.3881914"><ele>22.0</ele><time>2026-04-07T18:00:45.571Z</time></trkpt><trkpt lat="44.5822616" lon="11.3881219"><ele>22.0</ele><time>2026-04-07T18:00:46.6Z</time></trkpt><trkpt lat="44.5821515" lon="11.3880507"><ele>22.0</ele><time>2026-04-07T18:00:47.579Z</time></trkpt><trkpt lat="44.5820424" lon="11.3879784"><ele>22.0</ele><time>2026-04-07T18:00:48.576Z</time></trkpt><trkpt lat="44.5819349" lon="11.3879088"><ele>22.0</ele><time>2026-04-07T18:00:49.579Z</time></trkpt><trkpt lat="44.5818338" lon="11.387841"><ele>22.0</ele><time>2026-04-07T18:00:50.578Z</time></trkpt><trkpt lat="44.5817324" lon="11.3877749"><ele>22.0</ele><time>2026-04-07T18:00:51.578Z</time></trkpt><trkpt lat="44.5816278" lon="11.3877091"><ele>22.0</ele><time>2026-04-07T18:00:52.582Z</time></trkpt><trkpt lat="44.5815155" lon="11.3876398"><ele>22.0</ele><time>2026-04-07T18:00:53.576Z</time></trkpt><trkpt lat="44.5814019" lon="11.3875658"><ele>22.0</ele><time>2026-04-07T18:00:54.58Z</time></trkpt><trkpt lat="44.5812777" lon="11.3874894"><ele>22.0</ele><time>2026-04-07T18:00:55.577Z</time></trkpt><trkpt lat="44.5811497" lon="11.3874147"><ele>22.0</ele><time>2026-04-07T18:00:56.581Z</time></trkpt><trkpt lat="44.5810189" lon="11.3873383"><ele>21.5</ele><time>2026-04-07T18:00:57.578Z</time></trkpt><trkpt lat="44.5808961" lon="11.3872546"><ele>21.0</ele><time>2026-04-07T18:00:58.584Z</time></trkpt><trkpt lat="44.5807798" lon="11.387194"><ele>20.5</ele><time>2026-04-07T18:00:59.586Z</time></trkpt><trkpt lat="44.5806378" lon="11.3871119"><ele>20.0</ele><time>2026-04-07T18:01:00.577Z</time></trkpt><trkpt lat="44.5804734" lon="11.3870079"><ele>20.666666666666668</ele><time>2026-04-07T18:01:01.573Z</time></trkpt><trkpt lat="44.5802842" lon="11.3868922"><ele>21.333333333333332</ele><time>2026-04-07T18:01:02.584Z</time></trkpt><trkpt lat="44.5801115" lon="11.3867909"><ele>22.0</ele><time>2026-04-07T18:01:03.58Z</time></trkpt><trkpt lat="44.5799452" lon="11.3866635"><ele>22.0</ele><time>2026-04-07T18:01:04.575Z</time></trkpt><trkpt lat="44.5797398" lon="11.386511"><ele>22.0</ele><time>2026-04-07T18:01:05.578Z</time></trkpt><trkpt lat="44.5795207" lon="11.3863684"><ele>22.5</ele><time>2026-04-07T18:01:06.574Z</time></trkpt><trkpt lat="44.5792907" lon="11.3862465"><ele>23.0</ele><time>2026-04-07T18:01:07.579Z</time></trkpt><trkpt lat="44.5790709" lon="11.3861179"><ele>23.0</ele><time>2026-04-07T18:01:08.582Z</time></trkpt><trkpt lat="44.5788519" lon="11.3859739"><ele>23.0</ele><time>2026-04-07T18:01:09.584Z</time></trkpt><trkpt lat="44.5786351" lon="11.3858242"><ele>23.0</ele><time>2026-04-07T18:01:10.586Z</time></trkpt><trkpt lat="44.5784148" lon="11.3856899"><ele>23.0</ele><time>2026-04-07T18:01:11.573Z</time></trkpt><trkpt lat="44.5781907" lon="11.3855569"><ele>23.5</ele><time>2026-04-07T18:01:12.584Z</time></trkpt><trkpt lat="44.577957" lon="11.3854111"><ele>24.0</ele><time>2026-04-07T18:01:13.58Z</time></trkpt><trkpt lat="44.5777251" lon="11.3852724"><ele>23.0</ele><time>2026-04-07T18:01:14.579Z</time></trkpt><trkpt lat="44.5774881" lon="11.3851274"><ele>22.0</ele><time>2026-04-07T18:01:15.571Z</time></trkpt><trkpt lat="44.5772419" lon="11.3849797"><ele>23.0</ele><time>2026-04-07T18:01:16.585Z</time></trkpt><trkpt lat="44.5770083" lon="11.3848306"><ele>24.0</ele><time>2026-04-07T18:01:17.577Z</time></trkpt><trkpt lat="44.5767752" lon="11.3846872"><ele>23.5</ele><time>2026-04-07T18:01:18.582Z</time></trkpt><trkpt lat="44.5765412" lon="11.384556"><ele>23.0</ele><time>2026-04-07T18:01:19.59Z</time></trkpt><trkpt lat="44.5763318" lon="11.3844336"><ele>23.0</ele><time>2026-04-07T18:01:20.582Z</time></trkpt><trkpt lat="44.5761039" lon="11.3842955"><ele>23.0</ele><time>2026-04-07T18:01:21.586Z</time></trkpt><trkpt lat="44.575876" lon="11.3841599"><ele>23.0</ele><time>2026-04-07T18:01:22.581Z</time></trkpt><trkpt lat="44.5756658" lon="11.3840268"><ele>23.0</ele><time>2026-04-07T18:01:23.587Z</time></trkpt><trkpt lat="44.5754691" lon="11.3839003"><ele>23.0</ele><time>2026-04-07T18:01:24.582Z</time></trkpt><trkpt lat="44.575278" lon="11.3837828"><ele>22.333333333333336</ele><time>2026-04-07T18:01:25.583Z</time></trkpt><trkpt lat="44.5750924" lon="11.3836839"><ele>21.666666666666668</ele><time>2026-04-07T18:01:26.586Z</time></trkpt><trkpt lat="44.574907" lon="11.383556"><ele>21.0</ele><time>2026-04-07T18:01:27.581Z</time></trkpt><trkpt lat="44.5746994" lon="11.3834264"><ele>21.0</ele><time>2026-04-07T18:01:28.584Z</time></trkpt><trkpt lat="44.574495" lon="11.3833049"><ele>21.0</ele><time>2026-04-07T18:01:29.584Z</time></trkpt><trkpt lat="44.5742733" lon="11.3831724"><ele>21.0</ele><time>2026-04-07T18:01:30.58Z</time></trkpt><trkpt lat="44.5740447" lon="11.3830455"><ele>21.0</ele><time>2026-04-07T18:01:31.578Z</time></trkpt><trkpt lat="44.5738076" lon="11.3829089"><ele>22.0</ele><time>2026-04-07T18:01:32.583Z</time></trkpt><trkpt lat="44.5736163" lon="11.3827899"><ele>23.0</ele><time>2026-04-07T18:01:33.58Z</time></trkpt><trkpt lat="44.5734178" lon="11.3826638"><ele>24.0</ele><time>2026-04-07T18:01:34.576Z</time></trkpt><trkpt lat="44.5732211" lon="11.3825426"><ele>24.0</ele><time>2026-04-07T18:01:35.583Z</time></trkpt><trkpt lat="44.5730323" lon="11.3824283"><ele>24.0</ele><time>2026-04-07T18:01:36.581Z</time></trkpt><trkpt lat="44.5728502" lon="11.3822995"><ele>24.0</ele><time>2026-04-07T18:01:37.58Z</time></trkpt><trkpt lat="44.5726931" lon="11.3822083"><ele>23.0</ele><time>2026-04-07T18:01:38.578Z</time></trkpt><trkpt lat="44.5725376" lon="11.3821229"><ele>22.0</ele><time>2026-04-07T18:01:39.599Z</time></trkpt><trkpt lat="44.5723755" lon="11.3820278"><ele>21.0</ele><time>2026-04-07T18:01:40.578Z</time></trkpt><trkpt lat="44.5722306" lon="11.3819312"><ele>21.0</ele><time>2026-04-07T18:01:41.573Z</time></trkpt><trkpt lat="44.5721048" lon="11.3818429"><ele>21.0</ele><time>2026-04-07T18:01:42.579Z</time></trkpt><trkpt lat="44.5720043" lon="11.3817792"><ele>21.0</ele><time>2026-04-07T18:01:43.58Z</time></trkpt><trkpt lat="44.5718999" lon="11.3817194"><ele>21.0</ele><time>2026-04-07T18:01:44.574Z</time></trkpt><trkpt lat="44.5718166" lon="11.3816716"><ele>21.0</ele><time>2026-04-07T18:01:45.572Z</time></trkpt><trkpt lat="44.5717367" lon="11.3816272"><ele>21.0</ele><time>2026-04-07T18:01:46.589Z</time></trkpt><trkpt lat="44.5716802" lon="11.3815726"><ele>21.0</ele><time>2026-04-07T18:01:47.587Z</time></trkpt><trkpt lat="44.5715909" lon="11.3814709"><ele>21.0</ele><time>2026-04-07T18:01:49.588Z</time></trkpt><trkpt lat="44.5715366" lon="11.3813936"><ele>21.0</ele><time>2026-04-07T18:01:50.576Z</time></trkpt><trkpt lat="44.5714782" lon="11.381254"><ele>21.25</ele><time>2026-04-07T18:01:51.57Z</time></trkpt><trkpt lat="44.5714256" lon="11.3810897"><ele>21.5</ele><time>2026-04-07T18:01:52.568Z</time></trkpt><trkpt lat="44.5713741" lon="11.3809372"><ele>21.75</ele><time>2026-04-07T18:01:53.571Z</time></trkpt><trkpt lat="44.571306" lon="11.3808159"><ele>22.0</ele><time>2026-04-07T18:01:54.57Z</time></trkpt><trkpt lat="44.5712036" lon="11.3807517"><ele>22.0</ele><time>2026-04-07T18:01:55.577Z</time></trkpt><trkpt lat="44.5710853" lon="11.3807213"><ele>22.0</ele><time>2026-04-07T18:01:56.583Z</time></trkpt><trkpt lat="44.570948" lon="11.380747"><ele>22.0</ele><time>2026-04-07T18:01:57.581Z</time></trkpt><trkpt lat="44.570803" lon="11.3808183"><ele>22.0</ele><time>2026-04-07T18:01:58.572Z</time></trkpt><trkpt lat="44.5706583" lon="11.3809105"><ele>22.0</ele><time>2026-04-07T18:01:59.582Z</time></trkpt><trkpt lat="44.5705148" lon="11.3808721"><ele>22.0</ele><time>2026-04-07T18:02:00.577Z</time></trkpt><trkpt lat="44.57034" lon="11.3807915"><ele>22.0</ele><time>2026-04-07T18:02:01.568Z</time></trkpt><trkpt lat="44.5701553" lon="11.3806802"><ele>22.333333333333332</ele><time>2026-04-07T18:02:02.581Z</time></trkpt><trkpt lat="44.5699727" lon="11.3805694"><ele>22.666666666666668</ele><time>2026-04-07T18:02:03.584Z</time></trkpt><trkpt lat="44.5697915" lon="11.3804555"><ele>23.0</ele><time>2026-04-07T18:02:04.588Z</time></trkpt><trkpt lat="44.5695904" lon="11.3803306"><ele>22.5</ele><time>2026-04-07T18:02:05.578Z</time></trkpt><trkpt lat="44.5693787" lon="11.3801964"><ele>22.0</ele><time>2026-04-07T18:02:06.58Z</time></trkpt><trkpt lat="44.569168" lon="11.3800656"><ele>22.0</ele><time>2026-04-07T18:02:07.579Z</time></trkpt><trkpt lat="44.5689389" lon="11.3799262"><ele>22.0</ele><time>2026-04-07T18:02:08.583Z</time></trkpt><trkpt lat="44.5687199" lon="11.3797922"><ele>23.0</ele><time>2026-04-07T18:02:09.582Z</time></trkpt><trkpt lat="44.5685124" lon="11.3796702"><ele>24.0</ele><time>2026-04-07T18:02:10.584Z</time></trkpt><trkpt lat="44.5683049" lon="11.3795506"><ele>25.0</ele><time>2026-04-07T18:02:11.583Z</time></trkpt><trkpt lat="44.5680901" lon="11.3794284"><ele>24.5</ele><time>2026-04-07T18:02:12.572Z</time></trkpt><trkpt lat="44.5678398" lon="11.3792874"><ele>24.0</ele><time>2026-04-07T18:02:13.582Z</time></trkpt><trkpt lat="44.5675985" lon="11.3791369"><ele>24.0</ele><time>2026-04-07T18:02:14.581Z</time></trkpt><trkpt lat="44.5673728" lon="11.3789904"><ele>24.0</ele><time>2026-04-07T18:02:15.571Z</time></trkpt><trkpt lat="44.5671639" lon="11.3788549"><ele>23.5</ele><time>2026-04-07T18:02:16.577Z</time></trkpt><trkpt lat="44.5669427" lon="11.3786911"><ele>23.0</ele><time>2026-04-07T18:02:17.577Z</time></trkpt><trkpt lat="44.5667293" lon="11.3785163"><ele>23.0</ele><time>2026-04-07T18:02:18.582Z</time></trkpt><trkpt lat="44.5664942" lon="11.3783653"><ele>23.0</ele><time>2026-04-07T18:02:19.578Z</time></trkpt><trkpt lat="44.5662598" lon="11.3782297"><ele>23.0</ele><time>2026-04-07T18:02:20.578Z</time></trkpt><trkpt lat="44.5660563" lon="11.3780928"><ele>23.0</ele><time>2026-04-07T18:02:21.58Z</time></trkpt><trkpt lat="44.5658475" lon="11.3779445"><ele>22.5</ele><time>2026-04-07T18:02:22.581Z</time></trkpt><trkpt lat="44.5656255" lon="11.3778035"><ele>22.0</ele><time>2026-04-07T18:02:23.584Z</time></trkpt><trkpt lat="44.5653959" lon="11.3776722"><ele>23.5</ele><time>2026-04-07T18:02:24.579Z</time></trkpt><trkpt lat="44.5651815" lon="11.377562"><ele>25.0</ele><time>2026-04-07T18:02:25.582Z</time></trkpt><trkpt lat="44.564964" lon="11.3774664"><ele>25.0</ele><time>2026-04-07T18:02:26.58Z</time></trkpt><trkpt lat="44.5647459" lon="11.3773469"><ele>25.0</ele><time>2026-04-07T18:02:27.584Z</time></trkpt><trkpt lat="44.5645624" lon="11.3772303"><ele>25.0</ele><time>2026-04-07T18:02:28.585Z</time></trkpt><trkpt lat="44.5643656" lon="11.3770851"><ele>24.333333333333336</ele><time>2026-04-07T18:02:29.577Z</time></trkpt><trkpt lat="44.5641822" lon="11.3769488"><ele>23.666666666666668</ele><time>2026-04-07T18:02:30.576Z</time></trkpt><trkpt lat="44.5640106" lon="11.3768314"><ele>23.0</ele><time>2026-04-07T18:02:31.581Z</time></trkpt><trkpt lat="44.5638746" lon="11.3767361"><ele>23.0</ele><time>2026-04-07T18:02:32.58Z</time></trkpt><trkpt lat="44.5637546" lon="11.3766623"><ele>23.0</ele><time>2026-04-07T18:02:33.58Z</time></trkpt><trkpt lat="44.5636683" lon="11.3765985"><ele>23.0</ele><time>2026-04-07T18:02:34.581Z</time></trkpt><trkpt lat="44.5635754" lon="11.3765242"><ele>23.0</ele><time>2026-04-07T18:02:35.583Z</time></trkpt><trkpt lat="44.563459" lon="11.3764588"><ele>23.5</ele><time>2026-04-07T18:02:36.585Z</time></trkpt><trkpt lat="44.5633333" lon="11.376395"><ele>24.0</ele><time>2026-04-07T18:02:37.575Z</time></trkpt><trkpt lat="44.5632119" lon="11.3763151"><ele>24.5</ele><time>2026-04-07T18:02:38.579Z</time></trkpt><trkpt lat="44.5630832" lon="11.3762314"><ele>25.0</ele><time>2026-04-07T18:02:39.583Z</time></trkpt><trkpt lat="44.5629407" lon="11.3761464"><ele>25.666666666666668</ele><time>2026-04-07T18:02:40.577Z</time></trkpt><trkpt lat="44.5627539" lon="11.3760396"><ele>26.333333333333336</ele><time>2026-04-07T18:02:41.572Z</time></trkpt><trkpt lat="44.5625842" lon="11.3759199"><ele>27.0</ele><time>2026-04-07T18:02:42.58Z</time></trkpt><trkpt lat="44.5624143" lon="11.3758055"><ele>27.0</ele><time>2026-04-07T18:02:43.574Z</time></trkpt><trkpt lat="44.5622499" lon="11.3757003"><ele>27.0</ele><time>2026-04-07T18:02:44.585Z</time></trkpt><trkpt lat="44.5620896" lon="11.3756036"><ele>27.0</ele><time>2026-04-07T18:02:45.577Z</time></trkpt><trkpt lat="44.5619293" lon="11.3755274"><ele>27.333333333333336</ele><time>2026-04-07T18:02:46.577Z</time></trkpt><trkpt lat="44.5617701" lon="11.3754511"><ele>27.666666666666668</ele><time>2026-04-07T18:02:47.582Z</time></trkpt><trkpt lat="44.5616079" lon="11.3753618"><ele>28.0</ele><time>2026-04-07T18:02:48.583Z</time></trkpt><trkpt lat="44.5614624" lon="11.375273"><ele>28.0</ele><time>2026-04-07T18:02:49.58Z</time></trkpt><trkpt lat="44.5612907" lon="11.375169"><ele>28.0</ele><time>2026-04-07T18:02:50.575Z</time></trkpt><trkpt lat="44.5611257" lon="11.3750589"><ele>28.0</ele><time>2026-04-07T18:02:51.575Z</time></trkpt><trkpt lat="44.5609525" lon="11.374939"><ele>27.5</ele><time>2026-04-07T18:02:52.568Z</time></trkpt><trkpt lat="44.5607561" lon="11.374815"><ele>27.0</ele><time>2026-04-07T18:02:53.571Z</time></trkpt><trkpt lat="44.5605345" lon="11.3747045"><ele>27.0</ele><time>2026-04-07T18:02:54.573Z</time></trkpt><trkpt lat="44.5603131" lon="11.3746032"><ele>27.0</ele><time>2026-04-07T18:02:55.586Z</time></trkpt><trkpt lat="44.5600902" lon="11.3744975"><ele>27.0</ele><time>2026-04-07T18:02:56.578Z</time></trkpt><trkpt lat="44.5598853" lon="11.3744024"><ele>27.0</ele><time>2026-04-07T18:02:57.579Z</time></trkpt><trkpt lat="44.5597008" lon="11.3743076"><ele>27.0</ele><time>2026-04-07T18:02:58.589Z</time></trkpt><trkpt lat="44.5595154" lon="11.3742162"><ele>27.333333333333336</ele><time>2026-04-07T18:02:59.581Z</time></trkpt><trkpt lat="44.5593179" lon="11.3741247"><ele>27.666666666666668</ele><time>2026-04-07T18:03:00.576Z</time></trkpt><trkpt lat="44.5591156" lon="11.3740233"><ele>28.0</ele><time>2026-04-07T18:03:01.579Z</time></trkpt><trkpt lat="44.5589107" lon="11.373921"><ele>27.666666666666668</ele><time>2026-04-07T18:03:02.577Z</time></trkpt><trkpt lat="44.5587104" lon="11.3737872"><ele>27.333333333333336</ele><time>2026-04-07T18:03:03.581Z</time></trkpt><trkpt lat="44.5585074" lon="11.3736818"><ele>27.0</ele><time>2026-04-07T18:03:04.58Z</time></trkpt><trkpt lat="44.5583033" lon="11.3735753"><ele>27.0</ele><time>2026-04-07T18:03:05.581Z</time></trkpt><trkpt lat="44.5581092" lon="11.3734689"><ele>27.0</ele><time>2026-04-07T18:03:06.58Z</time></trkpt><trkpt lat="44.5579334" lon="11.3733687"><ele>27.0</ele><time>2026-04-07T18:03:07.578Z</time></trkpt><trkpt lat="44.5577716" lon="11.3732843"><ele>27.333333333333336</ele><time>2026-04-07T18:03:08.578Z</time></trkpt><trkpt lat="44.5576039" lon="11.3732163"><ele>27.666666666666668</ele><time>2026-04-07T18:03:09.582Z</time></trkpt><trkpt lat="44.5574411" lon="11.3731457"><ele>28.0</ele><time>2026-04-07T18:03:10.577Z</time></trkpt><trkpt lat="44.5572504" lon="11.3730342"><ele>28.333333333333336</ele><time>2026-04-07T18:03:11.574Z</time></trkpt><trkpt lat="44.5570474" lon="11.3729394"><ele>28.666666666666664</ele><time>2026-04-07T18:03:12.57Z</time></trkpt><trkpt lat="44.556869" lon="11.3728514"><ele>29.0</ele><time>2026-04-07T18:03:13.562Z</time></trkpt><trkpt lat="44.5566864" lon="11.3727646"><ele>29.0</ele><time>2026-04-07T18:03:14.572Z</time></trkpt><trkpt lat="44.5564721" lon="11.3726699"><ele>29.0</ele><time>2026-04-07T18:03:15.571Z</time></trkpt><trkpt lat="44.5562331" lon="11.3726153"><ele>29.0</ele><time>2026-04-07T18:03:16.572Z</time></trkpt><trkpt lat="44.5559979" lon="11.3725183"><ele>29.0</ele><time>2026-04-07T18:03:17.569Z</time></trkpt><trkpt lat="44.5558332" lon="11.3724563"><ele>29.0</ele><time>2026-04-07T18:03:18.566Z</time></trkpt><trkpt lat="44.5557041" lon="11.372453"><ele>29.0</ele><time>2026-04-07T18:03:19.563Z</time></trkpt><trkpt lat="44.5556068" lon="11.3724381"><ele>29.0</ele><time>2026-04-07T18:03:20.572Z</time></trkpt><trkpt lat="44.5555448" lon="11.3723934"><ele>29.0</ele><time>2026-04-07T18:03:21.564Z</time></trkpt><trkpt lat="44.5554987" lon="11.3722907"><ele>29.0</ele><time>2026-04-07T18:03:23.597Z</time></trkpt><trkpt lat="44.555526" lon="11.3721842"><ele>29.0</ele><time>2026-04-07T18:03:24.57Z</time></trkpt><trkpt lat="44.555582" lon="11.372032"><ele>29.0</ele><time>2026-04-07T18:03:25.592Z</time></trkpt><trkpt lat="44.5556365" lon="11.3718774"><ele>29.0</ele><time>2026-04-07T18:03:26.585Z</time></trkpt><trkpt lat="44.5556828" lon="11.3717188"><ele>29.0</ele><time>2026-04-07T18:03:27.597Z</time></trkpt><trkpt lat="44.5557287" lon="11.3715622"><ele>29.0</ele><time>2026-04-07T18:03:28.57Z</time></trkpt><trkpt lat="44.5557807" lon="11.3713781"><ele>28.666666666666664</ele><time>2026-04-07T18:03:29.568Z</time></trkpt><trkpt lat="44.55584" lon="11.3711627"><ele>28.333333333333336</ele><time>2026-04-07T18:03:30.573Z</time></trkpt><trkpt lat="44.5559152" lon="11.3709128"><ele>28.0</ele><time>2026-04-07T18:03:31.564Z</time></trkpt><trkpt lat="44.5559903" lon="11.3706721"><ele>27.333333333333336</ele><time>2026-04-07T18:03:32.576Z</time></trkpt><trkpt lat="44.5560555" lon="11.3704535"><ele>26.666666666666664</ele><time>2026-04-07T18:03:33.571Z</time></trkpt><trkpt lat="44.5561279" lon="11.3702241"><ele>26.0</ele><time>2026-04-07T18:03:34.583Z</time></trkpt><trkpt lat="44.5562146" lon="11.3699643"><ele>26.5</ele><time>2026-04-07T18:03:35.572Z</time></trkpt><trkpt lat="44.5563119" lon="11.3696841"><ele>27.0</ele><time>2026-04-07T18:03:36.574Z</time></trkpt><trkpt lat="44.5564043" lon="11.3693903"><ele>27.0</ele><time>2026-04-07T18:03:37.568Z</time></trkpt><trkpt lat="44.5564881" lon="11.3691395"><ele>27.0</ele><time>2026-04-07T18:03:38.575Z</time></trkpt><trkpt lat="44.5565714" lon="11.3688976"><ele>27.0</ele><time>2026-04-07T18:03:39.567Z</time></trkpt><trkpt lat="44.5566535" lon="11.3686608"><ele>27.0</ele><time>2026-04-07T18:03:40.579Z</time></trkpt><trkpt lat="44.556723" lon="11.3684231"><ele>27.0</ele><time>2026-04-07T18:03:41.576Z</time></trkpt><trkpt lat="44.5567852" lon="11.3681758"><ele>27.0</ele><time>2026-04-07T18:03:42.571Z</time></trkpt><trkpt lat="44.5568622" lon="11.3679357"><ele>27.333333333333336</ele><time>2026-04-07T18:03:43.578Z</time></trkpt><trkpt lat="44.5569458" lon="11.367692"><ele>27.666666666666668</ele><time>2026-04-07T18:03:44.569Z</time></trkpt><trkpt lat="44.5570326" lon="11.3674295"><ele>28.0</ele><time>2026-04-07T18:03:45.569Z</time></trkpt><trkpt lat="44.5571195" lon="11.3671779"><ele>27.0</ele><time>2026-04-07T18:03:46.577Z</time></trkpt><trkpt lat="44.5571958" lon="11.3669423"><ele>26.0</ele><time>2026-04-07T18:03:47.574Z</time></trkpt><trkpt lat="44.5572584" lon="11.3666789"><ele>25.0</ele><time>2026-04-07T18:03:48.568Z</time></trkpt><trkpt lat="44.5573204" lon="11.36643"><ele>25.0</ele><time>2026-04-07T18:03:49.577Z</time></trkpt><trkpt lat="44.5574253" lon="11.3661776"><ele>25.0</ele><time>2026-04-07T18:03:50.572Z</time></trkpt><trkpt lat="44.557521" lon="11.3659082"><ele>25.0</ele><time>2026-04-07T18:03:51.583Z</time></trkpt><trkpt lat="44.5576031" lon="11.3656697"><ele>25.333333333333336</ele><time>2026-04-07T18:03:52.578Z</time></trkpt><trkpt lat="44.557678" lon="11.3654428"><ele>25.666666666666664</ele><time>2026-04-07T18:03:53.583Z</time></trkpt><trkpt lat="44.5577663" lon="11.3652139"><ele>26.0</ele><time>2026-04-07T18:03:54.581Z</time></trkpt><trkpt lat="44.5578542" lon="11.3649576"><ele>26.0</ele><time>2026-04-07T18:03:55.579Z</time></trkpt><trkpt lat="44.5579449" lon="11.3647027"><ele>26.0</ele><time>2026-04-07T18:03:56.577Z</time></trkpt><trkpt lat="44.5580285" lon="11.3644655"><ele>26.0</ele><time>2026-04-07T18:03:57.573Z</time></trkpt><trkpt lat="44.5581152" lon="11.364224"><ele>26.0</ele><time>2026-04-07T18:03:58.572Z</time></trkpt><trkpt lat="44.5581796" lon="11.3639583"><ele>26.0</ele><time>2026-04-07T18:03:59.576Z</time></trkpt><trkpt lat="44.5582509" lon="11.3637231"><ele>26.0</ele><time>2026-04-07T18:04:00.573Z</time></trkpt><trkpt lat="44.5583196" lon="11.3635104"><ele>26.0</ele><time>2026-04-07T18:04:01.578Z</time></trkpt><trkpt lat="44.5583885" lon="11.3632891"><ele>26.0</ele><time>2026-04-07T18:04:02.6Z</time></trkpt><trkpt lat="44.55846" lon="11.3630947"><ele>26.0</ele><time>2026-04-07T18:04:03.576Z</time></trkpt><trkpt lat="44.55852" lon="11.362905"><ele>26.0</ele><time>2026-04-07T18:04:04.581Z</time></trkpt><trkpt lat="44.5585683" lon="11.3627146"><ele>26.0</ele><time>2026-04-07T18:04:05.577Z</time></trkpt><trkpt lat="44.5586394" lon="11.3624961"><ele>26.0</ele><time>2026-04-07T18:04:06.58Z</time></trkpt><trkpt lat="44.5587026" lon="11.3622898"><ele>26.333333333333332</ele><time>2026-04-07T18:04:07.574Z</time></trkpt><trkpt lat="44.5587776" lon="11.3620706"><ele>26.666666666666664</ele><time>2026-04-07T18:04:08.572Z</time></trkpt><trkpt lat="44.5588475" lon="11.36184"><ele>27.0</ele><time>2026-04-07T18:04:09.582Z</time></trkpt><trkpt lat="44.5589295" lon="11.3615979"><ele>27.0</ele><time>2026-04-07T18:04:10.58Z</time></trkpt><trkpt lat="44.5589982" lon="11.3613703"><ele>27.0</ele><time>2026-04-07T18:04:11.573Z</time></trkpt><trkpt lat="44.5590666" lon="11.3611637"><ele>27.0</ele><time>2026-04-07T18:04:12.577Z</time></trkpt><trkpt lat="44.5591423" lon="11.3609881"><ele>27.200000000000003</ele><time>2026-04-07T18:04:13.572Z</time></trkpt><trkpt lat="44.5592222" lon="11.360848"><ele>27.400000000000002</ele><time>2026-04-07T18:04:14.574Z</time></trkpt><trkpt lat="44.559296" lon="11.3607163"><ele>27.599999999999998</ele><time>2026-04-07T18:04:15.57Z</time></trkpt><trkpt lat="44.5593606" lon="11.3606004"><ele>27.799999999999997</ele><time>2026-04-07T18:04:16.576Z</time></trkpt><trkpt lat="44.5593931" lon="11.3604871"><ele>28.0</ele><time>2026-04-07T18:04:17.57Z</time></trkpt><trkpt lat="44.5593893" lon="11.3603825"><ele>28.0</ele><time>2026-04-07T18:04:18.571Z</time></trkpt><trkpt lat="44.559359" lon="11.3602962"><ele>27.999999999999996</ele><time>2026-04-07T18:04:19.573Z</time></trkpt><trkpt lat="44.5592964" lon="11.3602112"><ele>27.999999999999996</ele><time>2026-04-07T18:04:20.574Z</time></trkpt><trkpt lat="44.5592093" lon="11.360155"><ele>28.0</ele><time>2026-04-07T18:04:21.566Z</time></trkpt><trkpt lat="44.5591073" lon="11.3600846"><ele>28.0</ele><time>2026-04-07T18:04:22.573Z</time></trkpt><trkpt lat="44.5590174" lon="11.3599654"><ele>28.0</ele><time>2026-04-07T18:04:23.573Z</time></trkpt><trkpt lat="44.558936" lon="11.3598122"><ele>28.0</ele><time>2026-04-07T18:04:24.573Z</time></trkpt><trkpt lat="44.5588615" lon="11.3596538"><ele>28.0</ele><time>2026-04-07T18:04:25.563Z</time></trkpt><trkpt lat="44.5587751" lon="11.3594877"><ele>28.0</ele><time>2026-04-07T18:04:26.575Z</time></trkpt><trkpt lat="44.5586328" lon="11.3592629"><ele>27.666666666666668</ele><time>2026-04-07T18:04:27.564Z</time></trkpt><trkpt lat="44.5584872" lon="11.3590451"><ele>27.333333333333336</ele><time>2026-04-07T18:04:28.571Z</time></trkpt><trkpt lat="44.5583774" lon="11.3588603"><ele>27.0</ele><time>2026-04-07T18:04:29.571Z</time></trkpt><trkpt lat="44.5582729" lon="11.3586703"><ele>27.0</ele><time>2026-04-07T18:04:30.577Z</time></trkpt><trkpt lat="44.5582113" lon="11.3584864"><ele>27.0</ele><time>2026-04-07T18:04:31.574Z</time></trkpt><trkpt lat="44.558167" lon="11.358277"><ele>27.0</ele><time>2026-04-07T18:04:32.602Z</time></trkpt><trkpt lat="44.5581301" lon="11.3580734"><ele>27.0</ele><time>2026-04-07T18:04:33.567Z</time></trkpt><trkpt lat="44.5581169" lon="11.357826"><ele>27.0</ele><time>2026-04-07T18:04:34.571Z</time></trkpt><trkpt lat="44.558106" lon="11.3575808"><ele>27.0</ele><time>2026-04-07T18:04:35.569Z</time></trkpt><trkpt lat="44.5581311" lon="11.3573219"><ele>28.0</ele><time>2026-04-07T18:04:36.567Z</time></trkpt><trkpt lat="44.5581809" lon="11.3570174"><ele>29.0</ele><time>2026-04-07T18:04:37.555Z</time></trkpt><trkpt lat="44.5581619" lon="11.3567097"><ele>30.0</ele><time>2026-04-07T18:04:38.555Z</time></trkpt><trkpt lat="44.5581573" lon="11.3563798"><ele>29.666666666666664</ele><time>2026-04-07T18:04:39.565Z</time></trkpt><trkpt lat="44.5581518" lon="11.3561164"><ele>29.333333333333332</ele><time>2026-04-07T18:04:40.567Z</time></trkpt><trkpt lat="44.5581784" lon="11.3559016"><ele>29.0</ele><time>2026-04-07T18:04:41.574Z</time></trkpt><trkpt lat="44.5581661" lon="11.3557176"><ele>29.0</ele><time>2026-04-07T18:04:42.569Z</time></trkpt><trkpt lat="44.5581692" lon="11.3555557"><ele>29.0</ele><time>2026-04-07T18:04:43.563Z</time></trkpt><trkpt lat="44.5582014" lon="11.3554599"><ele>29.0</ele><time>2026-04-07T18:04:44.562Z</time></trkpt><trkpt lat="44.5582705" lon="11.3553575"><ele>29.0</ele><time>2026-04-07T18:04:45.567Z</time></trkpt><trkpt lat="44.5583749" lon="11.355287"><ele>29.0</ele><time>2026-04-07T18:04:46.581Z</time></trkpt><trkpt lat="44.5584942" lon="11.3552079"><ele>28.4</ele><time>2026-04-07T18:04:47.569Z</time></trkpt><trkpt lat="44.5585775" lon="11.3551078"><ele>27.799999999999997</ele><time>2026-04-07T18:04:48.576Z</time></trkpt><trkpt lat="44.5586073" lon="11.3549723"><ele>27.200000000000003</ele><time>2026-04-07T18:04:49.58Z</time></trkpt><trkpt lat="44.558615" lon="11.3548306"><ele>26.6</ele><time>2026-04-07T18:04:50.568Z</time></trkpt><trkpt lat="44.5585858" lon="11.3546853"><ele>26.0</ele><time>2026-04-07T18:04:51.583Z</time></trkpt><trkpt lat="44.5585223" lon="11.3545347"><ele>25.75</ele><time>2026-04-07T18:04:52.569Z</time></trkpt><trkpt lat="44.5584283" lon="11.3543848"><ele>25.5</ele><time>2026-04-07T18:04:53.562Z</time></trkpt><trkpt lat="44.55833" lon="11.3542434"><ele>25.25</ele><time>2026-04-07T18:04:54.564Z</time></trkpt><trkpt lat="44.558213" lon="11.3541342"><ele>25.0</ele><time>2026-04-07T18:04:55.572Z</time></trkpt><trkpt lat="44.5580755" lon="11.3540605"><ele>25.0</ele><time>2026-04-07T18:04:56.564Z</time></trkpt><trkpt lat="44.557915" lon="11.3540264"><ele>25.0</ele><time>2026-04-07T18:04:57.57Z</time></trkpt><trkpt lat="44.5578149" lon="11.3539391"><ele>25.0</ele><time>2026-04-07T18:04:58.571Z</time></trkpt><trkpt lat="44.5577415" lon="11.3537767"><ele>25.0</ele><time>2026-04-07T18:04:59.576Z</time></trkpt><trkpt lat="44.5576701" lon="11.3535662"><ele>25.333333333333336</ele><time>2026-04-07T18:05:00.579Z</time></trkpt><trkpt lat="44.5575695" lon="11.3533327"><ele>25.666666666666664</ele><time>2026-04-07T18:05:01.57Z</time></trkpt><trkpt lat="44.5574609" lon="11.3531083"><ele>26.0</ele><time>2026-04-07T18:05:02.568Z</time></trkpt><trkpt lat="44.557365" lon="11.3528927"><ele>26.0</ele><time>2026-04-07T18:05:03.568Z</time></trkpt><trkpt lat="44.5572905" lon="11.3526997"><ele>26.0</ele><time>2026-04-07T18:05:04.572Z</time></trkpt><trkpt lat="44.5572115" lon="11.3525266"><ele>26.0</ele><time>2026-04-07T18:05:05.566Z</time></trkpt><trkpt lat="44.5571094" lon="11.3523656"><ele>26.0</ele><time>2026-04-07T18:05:06.57Z</time></trkpt><trkpt lat="44.5569796" lon="11.3522103"><ele>26.0</ele><time>2026-04-07T18:05:07.576Z</time></trkpt><trkpt lat="44.5568429" lon="11.3520592"><ele>26.0</ele><time>2026-04-07T18:05:08.571Z</time></trkpt><trkpt lat="44.5566903" lon="11.351921"><ele>26.0</ele><time>2026-04-07T18:05:09.575Z</time></trkpt><trkpt lat="44.5565488" lon="11.3518173"><ele>26.0</ele><time>2026-04-07T18:05:10.571Z</time></trkpt><trkpt lat="44.5563999" lon="11.3517464"><ele>26.0</ele><time>2026-04-07T18:05:11.57Z</time></trkpt><trkpt lat="44.556245" lon="11.3516803"><ele>26.25</ele><time>2026-04-07T18:05:12.576Z</time></trkpt><trkpt lat="44.5561096" lon="11.3516423"><ele>26.5</ele><time>2026-04-07T18:05:13.572Z</time></trkpt><trkpt lat="44.555985" lon="11.3515753"><ele>26.75</ele><time>2026-04-07T18:05:14.569Z</time></trkpt><trkpt lat="44.555869" lon="11.3515435"><ele>27.0</ele><time>2026-04-07T18:05:15.572Z</time></trkpt><trkpt lat="44.5557461" lon="11.351509"><ele>27.0</ele><time>2026-04-07T18:05:16.576Z</time></trkpt><trkpt lat="44.55563" lon="11.3514816"><ele>27.0</ele><time>2026-04-07T18:05:17.572Z</time></trkpt><trkpt lat="44.5555074" lon="11.351455"><ele>27.0</ele><time>2026-04-07T18:05:18.573Z</time></trkpt><trkpt lat="44.5553882" lon="11.3514274"><ele>27.0</ele><time>2026-04-07T18:05:19.57Z</time></trkpt><trkpt lat="44.5552746" lon="11.3513953"><ele>27.6</ele><time>2026-04-07T18:05:20.57Z</time></trkpt><trkpt lat="44.5551715" lon="11.3513712"><ele>28.200000000000003</ele><time>2026-04-07T18:05:21.576Z</time></trkpt><trkpt lat="44.5550711" lon="11.3513515"><ele>28.8</ele><time>2026-04-07T18:05:22.568Z</time></trkpt><trkpt lat="44.5549808" lon="11.3513225"><ele>29.4</ele><time>2026-04-07T18:05:23.574Z</time></trkpt><trkpt lat="44.5549" lon="11.3513035"><ele>30.0</ele><time>2026-04-07T18:05:24.572Z</time></trkpt><trkpt lat="44.5548241" lon="11.3512877"><ele>30.0</ele><time>2026-04-07T18:05:25.572Z</time></trkpt><trkpt lat="44.5547462" lon="11.3512808"><ele>30.0</ele><time>2026-04-07T18:05:26.572Z</time></trkpt><trkpt lat="44.5546753" lon="11.3512715"><ele>30.0</ele><time>2026-04-07T18:05:27.572Z</time></trkpt><trkpt lat="44.5546026" lon="11.3512553"><ele>30.0</ele><time>2026-04-07T18:05:28.569Z</time></trkpt><trkpt lat="44.5545041" lon="11.351227"><ele>30.0</ele><time>2026-04-07T18:05:29.572Z</time></trkpt><trkpt lat="44.5543881" lon="11.3511779"><ele>30.0</ele><time>2026-04-07T18:05:30.565Z</time></trkpt><trkpt lat="44.5542547" lon="11.3511083"><ele>30.333333333333336</ele><time>2026-04-07T18:05:31.562Z</time></trkpt><trkpt lat="44.5541026" lon="11.3510364"><ele>30.666666666666668</ele><time>2026-04-07T18:05:32.593Z</time></trkpt><trkpt lat="44.5539365" lon="11.3509525"><ele>31.0</ele><time>2026-04-07T18:05:33.569Z</time></trkpt><trkpt lat="44.553792" lon="11.3508768"><ele>31.0</ele><time>2026-04-07T18:05:34.573Z</time></trkpt><trkpt lat="44.5536715" lon="11.3508318"><ele>31.0</ele><time>2026-04-07T18:05:35.566Z</time></trkpt><trkpt lat="44.5535455" lon="11.3507939"><ele>31.0</ele><time>2026-04-07T18:05:36.595Z</time></trkpt><trkpt lat="44.5534291" lon="11.3507616"><ele>31.0</ele><time>2026-04-07T18:05:37.573Z</time></trkpt><trkpt lat="44.5533223" lon="11.3507329"><ele>31.0</ele><time>2026-04-07T18:05:38.571Z</time></trkpt><trkpt lat="44.5532221" lon="11.350698"><ele>31.0</ele><time>2026-04-07T18:05:39.569Z</time></trkpt><trkpt lat="44.5531235" lon="11.3506522"><ele>31.0</ele><time>2026-04-07T18:05:40.588Z</time></trkpt><trkpt lat="44.5530264" lon="11.3506235"><ele>31.0</ele><time>2026-04-07T18:05:41.574Z</time></trkpt><trkpt lat="44.5529345" lon="11.3505938"><ele>31.0</ele><time>2026-04-07T18:05:42.571Z</time></trkpt><trkpt lat="44.5528337" lon="11.3505545"><ele>31.0</ele><time>2026-04-07T18:05:43.569Z</time></trkpt><trkpt lat="44.5527239" lon="11.3505036"><ele>31.0</ele><time>2026-04-07T18:05:44.564Z</time></trkpt><trkpt lat="44.552622" lon="11.3504314"><ele>31.0</ele><time>2026-04-07T18:05:45.572Z</time></trkpt><trkpt lat="44.55253" lon="11.3503507"><ele>31.0</ele><time>2026-04-07T18:05:46.576Z</time></trkpt><trkpt lat="44.5524444" lon="11.3502548"><ele>31.0</ele><time>2026-04-07T18:05:47.575Z</time></trkpt><trkpt lat="44.5523622" lon="11.3501429"><ele>31.0</ele><time>2026-04-07T18:05:48.576Z</time></trkpt><trkpt lat="44.5522912" lon="11.3500185"><ele>31.0</ele><time>2026-04-07T18:05:49.578Z</time></trkpt><trkpt lat="44.5522416" lon="11.3498685"><ele>31.0</ele><time>2026-04-07T18:05:50.577Z</time></trkpt><trkpt lat="44.5522118" lon="11.3497193"><ele>31.0</ele><time>2026-04-07T18:05:51.572Z</time></trkpt><trkpt lat="44.5521916" lon="11.3495675"><ele>31.0</ele><time>2026-04-07T18:05:52.566Z</time></trkpt><trkpt lat="44.5521727" lon="11.3494029"><ele>31.0</ele><time>2026-04-07T18:05:53.566Z</time></trkpt><trkpt lat="44.5521594" lon="11.349234"><ele>31.0</ele><time>2026-04-07T18:05:54.577Z</time></trkpt><trkpt lat="44.5521514" lon="11.3490803"><ele>31.0</ele><time>2026-04-07T18:05:55.568Z</time></trkpt><trkpt lat="44.5521466" lon="11.3489423"><ele>31.0</ele><time>2026-04-07T18:05:56.573Z</time></trkpt><trkpt lat="44.5521462" lon="11.3488197"><ele>31.000000000000004</ele><time>2026-04-07T18:05:57.572Z</time></trkpt><trkpt lat="44.5521474" lon="11.3487073"><ele>31.0</ele><time>2026-04-07T18:05:58.572Z</time></trkpt><trkpt lat="44.5521422" lon="11.3485952"><ele>31.0</ele><time>2026-04-07T18:05:59.574Z</time></trkpt><trkpt lat="44.5521397" lon="11.3484966"><ele>31.0</ele><time>2026-04-07T18:06:00.593Z</time></trkpt><trkpt lat="44.5521417" lon="11.3484061"><ele>31.000000000000004</ele><time>2026-04-07T18:06:01.564Z</time></trkpt><trkpt lat="44.5521307" lon="11.3482734"><ele>31.0</ele><time>2026-04-07T18:06:03.593Z</time></trkpt><trkpt lat="44.552124" lon="11.3481787"><ele>31.0</ele><time>2026-04-07T18:06:09.572Z</time></trkpt><trkpt lat="44.5521613" lon="11.3480498"><ele>31.0</ele><time>2026-04-07T18:06:14.575Z</time></trkpt><trkpt lat="44.5521648" lon="11.3478842"><ele>31.0</ele><time>2026-04-07T18:06:16.58Z</time></trkpt><trkpt lat="44.5520821" lon="11.347782"><ele>31.0</ele><time>2026-04-07T18:06:18.569Z</time></trkpt><trkpt lat="44.5519656" lon="11.3477937"><ele>31.0</ele><time>2026-04-07T18:06:20.578Z</time></trkpt><trkpt lat="44.5518973" lon="11.3478462"><ele>30.0</ele><time>2026-04-07T18:06:21.572Z</time></trkpt><trkpt lat="44.5518053" lon="11.3478874"><ele>29.0</ele><time>2026-04-07T18:06:22.573Z</time></trkpt><trkpt lat="44.5516832" lon="11.3478944"><ele>28.0</ele><time>2026-04-07T18:06:23.568Z</time></trkpt><trkpt lat="44.5515424" lon="11.347889"><ele>27.0</ele><time>2026-04-07T18:06:24.568Z</time></trkpt><trkpt lat="44.5514025" lon="11.3478811"><ele>27.0</ele><time>2026-04-07T18:06:25.572Z</time></trkpt><trkpt lat="44.5512501" lon="11.3478751"><ele>27.0</ele><time>2026-04-07T18:06:26.57Z</time></trkpt><trkpt lat="44.5510447" lon="11.3478666"><ele>27.0</ele><time>2026-04-07T18:06:27.57Z</time></trkpt><trkpt lat="44.5508406" lon="11.347861"><ele>27.0</ele><time>2026-04-07T18:06:28.56Z</time></trkpt><trkpt lat="44.5506276" lon="11.3478518"><ele>27.0</ele><time>2026-04-07T18:06:29.565Z</time></trkpt><trkpt lat="44.5504218" lon="11.3478493"><ele>27.0</ele><time>2026-04-07T18:06:30.563Z</time></trkpt><trkpt lat="44.5502104" lon="11.3478353"><ele>25.5</ele><time>2026-04-07T18:06:31.563Z</time></trkpt><trkpt lat="44.5499787" lon="11.3478235"><ele>24.0</ele><time>2026-04-07T18:06:32.563Z</time></trkpt><trkpt lat="44.5497224" lon="11.3478189"><ele>26.0</ele><time>2026-04-07T18:06:33.571Z</time></trkpt><trkpt lat="44.5494609" lon="11.3477981"><ele>28.0</ele><time>2026-04-07T18:06:34.57Z</time></trkpt><trkpt lat="44.5492141" lon="11.347784"><ele>28.0</ele><time>2026-04-07T18:06:35.577Z</time></trkpt><trkpt lat="44.5489595" lon="11.3477686"><ele>28.0</ele><time>2026-04-07T18:06:36.594Z</time></trkpt><trkpt lat="44.5486934" lon="11.3477505"><ele>28.5</ele><time>2026-04-07T18:06:37.592Z</time></trkpt><trkpt lat="44.5484485" lon="11.3477324"><ele>29.0</ele><time>2026-04-07T18:06:38.599Z</time></trkpt><trkpt lat="44.5482371" lon="11.3477356"><ele>29.0</ele><time>2026-04-07T18:06:39.578Z</time></trkpt><trkpt lat="44.548023" lon="11.3477317"><ele>29.0</ele><time>2026-04-07T18:06:40.597Z</time></trkpt><trkpt lat="44.5478136" lon="11.3476931"><ele>29.0</ele><time>2026-04-07T18:06:41.575Z</time></trkpt><trkpt lat="44.5475915" lon="11.3476338"><ele>29.0</ele><time>2026-04-07T18:06:42.574Z</time></trkpt><trkpt lat="44.5473869" lon="11.3475457"><ele>29.0</ele><time>2026-04-07T18:06:43.566Z</time></trkpt><trkpt lat="44.5471832" lon="11.3474493"><ele>29.0</ele><time>2026-04-07T18:06:44.571Z</time></trkpt><trkpt lat="44.5469822" lon="11.3473607"><ele>29.0</ele><time>2026-04-07T18:06:45.568Z</time></trkpt><trkpt lat="44.5467912" lon="11.347265"><ele>29.0</ele><time>2026-04-07T18:06:46.578Z</time></trkpt><trkpt lat="44.5465797" lon="11.3471396"><ele>29.0</ele><time>2026-04-07T18:06:47.572Z</time></trkpt><trkpt lat="44.5463746" lon="11.3470045"><ele>28.333333333333332</ele><time>2026-04-07T18:06:48.566Z</time></trkpt><trkpt lat="44.5461789" lon="11.3468729"><ele>27.666666666666664</ele><time>2026-04-07T18:06:49.58Z</time></trkpt><trkpt lat="44.5459888" lon="11.3467421"><ele>27.0</ele><time>2026-04-07T18:06:50.582Z</time></trkpt><trkpt lat="44.545783" lon="11.3466089"><ele>27.0</ele><time>2026-04-07T18:06:51.581Z</time></trkpt><trkpt lat="44.5455805" lon="11.3464726"><ele>27.0</ele><time>2026-04-07T18:06:52.59Z</time></trkpt><trkpt lat="44.5453661" lon="11.3463354"><ele>25.5</ele><time>2026-04-07T18:06:53.575Z</time></trkpt><trkpt lat="44.5451572" lon="11.3461752"><ele>24.0</ele><time>2026-04-07T18:06:54.579Z</time></trkpt><trkpt lat="44.5449572" lon="11.3460128"><ele>24.0</ele><time>2026-04-07T18:06:55.572Z</time></trkpt><trkpt lat="44.544728" lon="11.3458501"><ele>24.0</ele><time>2026-04-07T18:06:56.578Z</time></trkpt><trkpt lat="44.544498" lon="11.3456815"><ele>24.5</ele><time>2026-04-07T18:06:57.593Z</time></trkpt><trkpt lat="44.5442571" lon="11.3455174"><ele>25.0</ele><time>2026-04-07T18:06:58.567Z</time></trkpt><trkpt lat="44.5439991" lon="11.3453735"><ele>25.0</ele><time>2026-04-07T18:06:59.564Z</time></trkpt><trkpt lat="44.5437484" lon="11.3452031"><ele>25.0</ele><time>2026-04-07T18:07:00.561Z</time></trkpt><trkpt lat="44.5435239" lon="11.3450414"><ele>24.5</ele><time>2026-04-07T18:07:01.574Z</time></trkpt><trkpt lat="44.5432948" lon="11.3448784"><ele>24.0</ele><time>2026-04-07T18:07:02.577Z</time></trkpt><trkpt lat="44.543075" lon="11.3446806"><ele>23.0</ele><time>2026-04-07T18:07:03.568Z</time></trkpt><trkpt lat="44.5428348" lon="11.3445175"><ele>22.0</ele><time>2026-04-07T18:07:04.569Z</time></trkpt><trkpt lat="44.5426022" lon="11.3443499"><ele>22.0</ele><time>2026-04-07T18:07:05.564Z</time></trkpt><trkpt lat="44.5423977" lon="11.3442079"><ele>22.0</ele><time>2026-04-07T18:07:06.571Z</time></trkpt><trkpt lat="44.5422037" lon="11.3440684"><ele>22.0</ele><time>2026-04-07T18:07:07.571Z</time></trkpt><trkpt lat="44.5420282" lon="11.3439261"><ele>22.666666666666664</ele><time>2026-04-07T18:07:08.563Z</time></trkpt><trkpt lat="44.5418375" lon="11.3437886"><ele>23.333333333333332</ele><time>2026-04-07T18:07:09.572Z</time></trkpt><trkpt lat="44.5416362" lon="11.3436751"><ele>24.0</ele><time>2026-04-07T18:07:10.563Z</time></trkpt><trkpt lat="44.5414201" lon="11.3436022"><ele>24.5</ele><time>2026-04-07T18:07:11.653Z</time></trkpt><trkpt lat="44.5412006" lon="11.3435335"><ele>25.0</ele><time>2026-04-07T18:07:12.568Z</time></trkpt><trkpt lat="44.5409694" lon="11.3435145"><ele>25.0</ele><time>2026-04-07T18:07:13.561Z</time></trkpt><trkpt lat="44.5407483" lon="11.3435064"><ele>25.0</ele><time>2026-04-07T18:07:14.574Z</time></trkpt><trkpt lat="44.5405315" lon="11.3435173"><ele>25.0</ele><time>2026-04-07T18:07:15.571Z</time></trkpt><trkpt lat="44.5403362" lon="11.3435681"><ele>26.666666666666668</ele><time>2026-04-07T18:07:16.566Z</time></trkpt><trkpt lat="44.540161" lon="11.3436276"><ele>28.333333333333336</ele><time>2026-04-07T18:07:17.571Z</time></trkpt><trkpt lat="44.5399916" lon="11.3436607"><ele>30.0</ele><time>2026-04-07T18:07:18.558Z</time></trkpt><trkpt lat="44.5398708" lon="11.3437393"><ele>30.0</ele><time>2026-04-07T18:07:19.565Z</time></trkpt><trkpt lat="44.53979" lon="11.3437832"><ele>30.0</ele><time>2026-04-07T18:07:20.565Z</time></trkpt><trkpt lat="44.5397095" lon="11.3437873"><ele>30.0</ele><time>2026-04-07T18:07:21.558Z</time></trkpt><trkpt lat="44.5396313" lon="11.3438053"><ele>30.0</ele><time>2026-04-07T18:07:22.565Z</time></trkpt><trkpt lat="44.53954" lon="11.3438197"><ele>30.0</ele><time>2026-04-07T18:07:24.556Z</time></trkpt><trkpt lat="44.5394679" lon="11.3438056"><ele>30.0</ele><time>2026-04-07T18:07:29.578Z</time></trkpt><trkpt lat="44.5393758" lon="11.3438181"><ele>30.25</ele><time>2026-04-07T18:07:31.577Z</time></trkpt><trkpt lat="44.5393088" lon="11.3438182"><ele>30.5</ele><time>2026-04-07T18:07:32.587Z</time></trkpt><trkpt lat="44.5391908" lon="11.3438382"><ele>30.75</ele><time>2026-04-07T18:07:33.551Z</time></trkpt><trkpt lat="44.5390573" lon="11.3438524"><ele>31.0</ele><time>2026-04-07T18:07:34.571Z</time></trkpt><trkpt lat="44.5389023" lon="11.3438341"><ele>31.666666666666668</ele><time>2026-04-07T18:07:35.567Z</time></trkpt><trkpt lat="44.5386767" lon="11.3437753"><ele>32.333333333333336</ele><time>2026-04-07T18:07:36.571Z</time></trkpt><trkpt lat="44.5384751" lon="11.3437213"><ele>33.0</ele><time>2026-04-07T18:07:37.571Z</time></trkpt><trkpt lat="44.5382918" lon="11.3436518"><ele>33.0</ele><time>2026-04-07T18:07:38.567Z</time></trkpt><trkpt lat="44.5381034" lon="11.3435566"><ele>33.0</ele><time>2026-04-07T18:07:39.563Z</time></trkpt><trkpt lat="44.537921" lon="11.3434444"><ele>33.0</ele><time>2026-04-07T18:07:40.568Z</time></trkpt><trkpt lat="44.5377484" lon="11.3433325"><ele>32.666666666666664</ele><time>2026-04-07T18:07:41.576Z</time></trkpt><trkpt lat="44.5375606" lon="11.3432145"><ele>32.33333333333333</ele><time>2026-04-07T18:07:42.577Z</time></trkpt><trkpt lat="44.5373689" lon="11.3430913"><ele>32.0</ele><time>2026-04-07T18:07:43.575Z</time></trkpt><trkpt lat="44.5371668" lon="11.3429521"><ele>31.666666666666664</ele><time>2026-04-07T18:07:44.567Z</time></trkpt><trkpt lat="44.5369631" lon="11.3428086"><ele>31.333333333333336</ele><time>2026-04-07T18:07:45.581Z</time></trkpt><trkpt lat="44.5367749" lon="11.3426722"><ele>31.0</ele><time>2026-04-07T18:07:46.584Z</time></trkpt><trkpt lat="44.5365927" lon="11.342554"><ele>31.0</ele><time>2026-04-07T18:07:47.576Z</time></trkpt><trkpt lat="44.5364082" lon="11.3424127"><ele>31.0</ele><time>2026-04-07T18:07:48.578Z</time></trkpt><trkpt lat="44.5362333" lon="11.34227"><ele>31.0</ele><time>2026-04-07T18:07:49.576Z</time></trkpt><trkpt lat="44.5360682" lon="11.3421418"><ele>30.333333333333336</ele><time>2026-04-07T18:07:50.577Z</time></trkpt><trkpt lat="44.5358951" lon="11.3420108"><ele>29.666666666666664</ele><time>2026-04-07T18:07:51.576Z</time></trkpt><trkpt lat="44.5357365" lon="11.3418775"><ele>29.0</ele><time>2026-04-07T18:07:52.579Z</time></trkpt><trkpt lat="44.5355827" lon="11.3417358"><ele>29.0</ele><time>2026-04-07T18:07:53.575Z</time></trkpt><trkpt lat="44.5354198" lon="11.3415824"><ele>29.0</ele><time>2026-04-07T18:07:54.573Z</time></trkpt><trkpt lat="44.5352348" lon="11.3414362"><ele>29.0</ele><time>2026-04-07T18:07:55.578Z</time></trkpt><trkpt lat="44.5350576" lon="11.3412952"><ele>30.333333333333332</ele><time>2026-04-07T18:07:56.569Z</time></trkpt><trkpt lat="44.534903" lon="11.3411686"><ele>31.666666666666664</ele><time>2026-04-07T18:07:57.58Z</time></trkpt><trkpt lat="44.534745" lon="11.3410458"><ele>33.0</ele><time>2026-04-07T18:07:58.581Z</time></trkpt><trkpt lat="44.5345925" lon="11.3408799"><ele>33.0</ele><time>2026-04-07T18:07:59.576Z</time></trkpt><trkpt lat="44.5344538" lon="11.3406969"><ele>33.0</ele><time>2026-04-07T18:08:00.601Z</time></trkpt><trkpt lat="44.534321" lon="11.3404851"><ele>33.0</ele><time>2026-04-07T18:08:01.572Z</time></trkpt><trkpt lat="44.5341811" lon="11.3402853"><ele>32.333333333333336</ele><time>2026-04-07T18:08:02.57Z</time></trkpt><trkpt lat="44.5340539" lon="11.3401026"><ele>31.666666666666668</ele><time>2026-04-07T18:08:03.573Z</time></trkpt><trkpt lat="44.5339306" lon="11.3399495"><ele>31.0</ele><time>2026-04-07T18:08:04.564Z</time></trkpt><trkpt lat="44.5338253" lon="11.3397953"><ele>30.75</ele><time>2026-04-07T18:08:05.573Z</time></trkpt><trkpt lat="44.5337322" lon="11.3396466"><ele>30.5</ele><time>2026-04-07T18:08:06.586Z</time></trkpt><trkpt lat="44.5336449" lon="11.3394962"><ele>30.25</ele><time>2026-04-07T18:08:07.571Z</time></trkpt><trkpt lat="44.5335851" lon="11.3393674"><ele>30.0</ele><time>2026-04-07T18:08:08.572Z</time></trkpt><trkpt lat="44.5335423" lon="11.3392356"><ele>30.0</ele><time>2026-04-07T18:08:09.595Z</time></trkpt><trkpt lat="44.5335084" lon="11.3390588"><ele>30.0</ele><time>2026-04-07T18:08:10.573Z</time></trkpt><trkpt lat="44.5334812" lon="11.3389046"><ele>30.0</ele><time>2026-04-07T18:08:11.566Z</time></trkpt><trkpt lat="44.5334374" lon="11.338762"><ele>30.0</ele><time>2026-04-07T18:08:12.576Z</time></trkpt><trkpt lat="44.5333666" lon="11.3386457"><ele>30.0</ele><time>2026-04-07T18:08:13.58Z</time></trkpt><trkpt lat="44.5332575" lon="11.338571"><ele>30.0</ele><time>2026-04-07T18:08:14.573Z</time></trkpt><trkpt lat="44.5331387" lon="11.3385325"><ele>30.0</ele><time>2026-04-07T18:08:15.574Z</time></trkpt><trkpt lat="44.5330289" lon="11.3384998"><ele>30.0</ele><time>2026-04-07T18:08:16.579Z</time></trkpt><trkpt lat="44.5329456" lon="11.3384191"><ele>30.0</ele><time>2026-04-07T18:08:17.582Z</time></trkpt><trkpt lat="44.5328777" lon="11.3382969"><ele>30.0</ele><time>2026-04-07T18:08:18.573Z</time></trkpt><trkpt lat="44.5328222" lon="11.3381578"><ele>30.0</ele><time>2026-04-07T18:08:19.57Z</time></trkpt><trkpt lat="44.5327729" lon="11.3380134"><ele>30.0</ele><time>2026-04-07T18:08:20.581Z</time></trkpt><trkpt lat="44.5327338" lon="11.3378631"><ele>30.75</ele><time>2026-04-07T18:08:21.578Z</time></trkpt><trkpt lat="44.5327001" lon="11.3376923"><ele>31.5</ele><time>2026-04-07T18:08:22.573Z</time></trkpt><trkpt lat="44.5326644" lon="11.3375139"><ele>32.25</ele><time>2026-04-07T18:08:23.584Z</time></trkpt><trkpt lat="44.5326226" lon="11.3373212"><ele>33.0</ele><time>2026-04-07T18:08:24.584Z</time></trkpt><trkpt lat="44.5325721" lon="11.3370761"><ele>33.0</ele><time>2026-04-07T18:08:25.601Z</time></trkpt><trkpt lat="44.5325304" lon="11.3368417"><ele>33.0</ele><time>2026-04-07T18:08:26.577Z</time></trkpt><trkpt lat="44.5324662" lon="11.3366024"><ele>33.0</ele><time>2026-04-07T18:08:27.566Z</time></trkpt><trkpt lat="44.5323789" lon="11.3363646"><ele>33.0</ele><time>2026-04-07T18:08:28.574Z</time></trkpt><trkpt lat="44.5322602" lon="11.33614"><ele>33.0</ele><time>2026-04-07T18:08:29.581Z</time></trkpt><trkpt lat="44.5321573" lon="11.3359642"><ele>33.0</ele><time>2026-04-07T18:08:30.574Z</time></trkpt><trkpt lat="44.532034" lon="11.3357878"><ele>32.666666666666664</ele><time>2026-04-07T18:08:31.578Z</time></trkpt><trkpt lat="44.5318797" lon="11.3356049"><ele>32.33333333333333</ele><time>2026-04-07T18:08:32.579Z</time></trkpt><trkpt lat="44.5317309" lon="11.3354128"><ele>32.0</ele><time>2026-04-07T18:08:33.582Z</time></trkpt><trkpt lat="44.5315703" lon="11.3351993"><ele>32.0</ele><time>2026-04-07T18:08:34.58Z</time></trkpt><trkpt lat="44.5314619" lon="11.3350154"><ele>32.0</ele><time>2026-04-07T18:08:35.577Z</time></trkpt><trkpt lat="44.531339" lon="11.3348437"><ele>32.0</ele><time>2026-04-07T18:08:36.581Z</time></trkpt><trkpt lat="44.5312007" lon="11.3346591"><ele>32.33333333333333</ele><time>2026-04-07T18:08:37.573Z</time></trkpt><trkpt lat="44.5310528" lon="11.3344995"><ele>32.666666666666664</ele><time>2026-04-07T18:08:38.572Z</time></trkpt><trkpt lat="44.5309073" lon="11.3343491"><ele>33.0</ele><time>2026-04-07T18:08:39.572Z</time></trkpt><trkpt lat="44.530775" lon="11.3342192"><ele>33.0</ele><time>2026-04-07T18:08:40.577Z</time></trkpt><trkpt lat="44.5306426" lon="11.3340951"><ele>33.0</ele><time>2026-04-07T18:08:41.577Z</time></trkpt><trkpt lat="44.5305186" lon="11.3339797"><ele>33.0</ele><time>2026-04-07T18:08:42.576Z</time></trkpt><trkpt lat="44.5304067" lon="11.3338697"><ele>33.0</ele><time>2026-04-07T18:08:43.571Z</time></trkpt><trkpt lat="44.5303081" lon="11.3337747"><ele>33.199999999999996</ele><time>2026-04-07T18:08:44.578Z</time></trkpt><trkpt lat="44.5302178" lon="11.3336754"><ele>33.4</ele><time>2026-04-07T18:08:45.576Z</time></trkpt><trkpt lat="44.5301406" lon="11.3335956"><ele>33.599999999999994</ele><time>2026-04-07T18:08:46.577Z</time></trkpt><trkpt lat="44.5300467" lon="11.3335281"><ele>33.8</ele><time>2026-04-07T18:08:47.583Z</time></trkpt><trkpt lat="44.5299592" lon="11.3334677"><ele>34.0</ele><time>2026-04-07T18:08:48.577Z</time></trkpt><trkpt lat="44.5298651" lon="11.3334072"><ele>34.0</ele><time>2026-04-07T18:08:49.578Z</time></trkpt><trkpt lat="44.5297864" lon="11.3333422"><ele>34.0</ele><time>2026-04-07T18:08:50.568Z</time></trkpt><trkpt lat="44.5296983" lon="11.333291"><ele>34.0</ele><time>2026-04-07T18:08:51.567Z</time></trkpt><trkpt lat="44.5295957" lon="11.3332622"><ele>34.0</ele><time>2026-04-07T18:08:52.567Z</time></trkpt><trkpt lat="44.5294705" lon="11.3332556"><ele>34.0</ele><time>2026-04-07T18:08:53.578Z</time></trkpt><trkpt lat="44.5293349" lon="11.333276"><ele>34.0</ele><time>2026-04-07T18:08:54.576Z</time></trkpt><trkpt lat="44.5292043" lon="11.3333093"><ele>34.0</ele><time>2026-04-07T18:08:55.577Z</time></trkpt><trkpt lat="44.5290515" lon="11.3333483"><ele>34.0</ele><time>2026-04-07T18:08:56.57Z</time></trkpt><trkpt lat="44.5288933" lon="11.3333841"><ele>34.0</ele><time>2026-04-07T18:08:57.57Z</time></trkpt><trkpt lat="44.5287521" lon="11.3334023"><ele>34.0</ele><time>2026-04-07T18:08:58.566Z</time></trkpt><trkpt lat="44.5286052" lon="11.33339"><ele>34.0</ele><time>2026-04-07T18:08:59.577Z</time></trkpt><trkpt lat="44.5284615" lon="11.33332"><ele>34.0</ele><time>2026-04-07T18:09:00.573Z</time></trkpt><trkpt lat="44.5283239" lon="11.3332438"><ele>34.0</ele><time>2026-04-07T18:09:01.577Z</time></trkpt><trkpt lat="44.5282005" lon="11.3331707"><ele>34.0</ele><time>2026-04-07T18:09:02.575Z</time></trkpt><trkpt lat="44.5280809" lon="11.3330991"><ele>34.0</ele><time>2026-04-07T18:09:03.591Z</time></trkpt><trkpt lat="44.5279753" lon="11.3330427"><ele>34.0</ele><time>2026-04-07T18:09:04.579Z</time></trkpt><trkpt lat="44.5278618" lon="11.3329897"><ele>34.0</ele><time>2026-04-07T18:09:05.567Z</time></trkpt><trkpt lat="44.527761" lon="11.3329001"><ele>34.0</ele><time>2026-04-07T18:09:06.563Z</time></trkpt><trkpt lat="44.5276352" lon="11.3327996"><ele>34.0</ele><time>2026-04-07T18:09:07.564Z</time></trkpt><trkpt lat="44.5275108" lon="11.3327064"><ele>34.0</ele><time>2026-04-07T18:09:08.571Z</time></trkpt><trkpt lat="44.5273981" lon="11.3326294"><ele>34.0</ele><time>2026-04-07T18:09:09.576Z</time></trkpt><trkpt lat="44.5272937" lon="11.3325502"><ele>34.0</ele><time>2026-04-07T18:09:10.574Z</time></trkpt><trkpt lat="44.5271876" lon="11.3324795"><ele>34.0</ele><time>2026-04-07T18:09:11.579Z</time></trkpt><trkpt lat="44.5270801" lon="11.3324122"><ele>34.0</ele><time>2026-04-07T18:09:12.571Z</time></trkpt><trkpt lat="44.5269818" lon="11.3323447"><ele>34.0</ele><time>2026-04-07T18:09:13.571Z</time></trkpt><trkpt lat="44.5268994" lon="11.3322741"><ele>34.0</ele><time>2026-04-07T18:09:14.591Z</time></trkpt><trkpt lat="44.5268382" lon="11.3322079"><ele>34.2</ele><time>2026-04-07T18:09:15.58Z</time></trkpt><trkpt lat="44.5267881" lon="11.3321475"><ele>34.4</ele><time>2026-04-07T18:09:16.565Z</time></trkpt><trkpt lat="44.526701" lon="11.3320354"><ele>34.6</ele><time>2026-04-07T18:09:18.6Z</time></trkpt><trkpt lat="44.5266227" lon="11.3319373"><ele>34.8</ele><time>2026-04-07T18:09:20.572Z</time></trkpt><trkpt lat="44.5265717" lon="11.3318297"><ele>35.0</ele><time>2026-04-07T18:09:22.572Z</time></trkpt><trkpt lat="44.5265449" lon="11.331702"><ele>35.0</ele><time>2026-04-07T18:09:24.578Z</time></trkpt><trkpt lat="44.5265407" lon="11.3316136"><ele>35.0</ele><time>2026-04-07T18:09:25.571Z</time></trkpt><trkpt lat="44.5265561" lon="11.3315065"><ele>35.0</ele><time>2026-04-07T18:09:26.573Z</time></trkpt><trkpt lat="44.5265732" lon="11.3314151"><ele>35.0</ele><time>2026-04-07T18:09:27.576Z</time></trkpt><trkpt lat="44.5265721" lon="11.3313251"><ele>35.0</ele><time>2026-04-07T18:09:28.571Z</time></trkpt><trkpt lat="44.5265513" lon="11.3312387"><ele>35.0</ele><time>2026-04-07T18:09:29.571Z</time></trkpt><trkpt lat="44.526501" lon="11.3311649"><ele>35.0</ele><time>2026-04-07T18:09:30.575Z</time></trkpt><trkpt lat="44.5264296" lon="11.3311334"><ele>34.8</ele><time>2026-04-07T18:09:31.568Z</time></trkpt><trkpt lat="44.5263581" lon="11.3311309"><ele>34.6</ele><time>2026-04-07T18:09:32.572Z</time></trkpt><trkpt lat="44.526277" lon="11.3311484"><ele>34.4</ele><time>2026-04-07T18:09:33.569Z</time></trkpt><trkpt lat="44.5261884" lon="11.3311506"><ele>34.2</ele><time>2026-04-07T18:09:34.57Z</time></trkpt><trkpt lat="44.5260874" lon="11.3311105"><ele>34.0</ele><time>2026-04-07T18:09:35.57Z</time></trkpt><trkpt lat="44.5259599" lon="11.3310226"><ele>33.66666666666667</ele><time>2026-04-07T18:09:36.574Z</time></trkpt><trkpt lat="44.5258149" lon="11.3309187"><ele>33.333333333333336</ele><time>2026-04-07T18:09:37.573Z</time></trkpt><trkpt lat="44.5256349" lon="11.3307861"><ele>33.0</ele><time>2026-04-07T18:09:38.578Z</time></trkpt><trkpt lat="44.5254394" lon="11.3306961"><ele>33.0</ele><time>2026-04-07T18:09:39.592Z</time></trkpt><trkpt lat="44.525239" lon="11.3306378"><ele>33.0</ele><time>2026-04-07T18:09:40.598Z</time></trkpt><trkpt lat="44.5250632" lon="11.3305929"><ele>33.0</ele><time>2026-04-07T18:09:41.577Z</time></trkpt><trkpt lat="44.5248696" lon="11.3305452"><ele>32.666666666666664</ele><time>2026-04-07T18:09:42.573Z</time></trkpt><trkpt lat="44.5246824" lon="11.3304898"><ele>32.33333333333333</ele><time>2026-04-07T18:09:43.62Z</time></trkpt><trkpt lat="44.5244583" lon="11.3304238"><ele>32.0</ele><time>2026-04-07T18:09:44.573Z</time></trkpt><trkpt lat="44.5242314" lon="11.3303626"><ele>32.0</ele><time>2026-04-07T18:09:45.569Z</time></trkpt><trkpt lat="44.5240202" lon="11.3302858"><ele>32.0</ele><time>2026-04-07T18:09:46.575Z</time></trkpt><trkpt lat="44.5238295" lon="11.3302204"><ele>32.0</ele><time>2026-04-07T18:09:47.575Z</time></trkpt><trkpt lat="44.5236481" lon="11.3301652"><ele>33.33333333333333</ele><time>2026-04-07T18:09:48.563Z</time></trkpt><trkpt lat="44.523468" lon="11.3301016"><ele>34.666666666666664</ele><time>2026-04-07T18:09:49.569Z</time></trkpt><trkpt lat="44.523301" lon="11.3300438"><ele>36.0</ele><time>2026-04-07T18:09:50.573Z</time></trkpt><trkpt lat="44.5231209" lon="11.3299793"><ele>36.0</ele><time>2026-04-07T18:09:51.581Z</time></trkpt><trkpt lat="44.5229433" lon="11.3299155"><ele>36.0</ele><time>2026-04-07T18:09:52.577Z</time></trkpt><trkpt lat="44.522773" lon="11.3298624"><ele>36.0</ele><time>2026-04-07T18:09:53.6Z</time></trkpt><trkpt lat="44.5226218" lon="11.3298079"><ele>35.75</ele><time>2026-04-07T18:09:54.57Z</time></trkpt><trkpt lat="44.5224821" lon="11.3297765"><ele>35.5</ele><time>2026-04-07T18:09:55.575Z</time></trkpt><trkpt lat="44.5223545" lon="11.3297362"><ele>35.25</ele><time>2026-04-07T18:09:56.569Z</time></trkpt><trkpt lat="44.5222348" lon="11.3297049"><ele>35.0</ele><time>2026-04-07T18:09:57.573Z</time></trkpt><trkpt lat="44.5221305" lon="11.3296922"><ele>35.166666666666664</ele><time>2026-04-07T18:09:58.565Z</time></trkpt><trkpt lat="44.5220455" lon="11.3296744"><ele>35.33333333333333</ele><time>2026-04-07T18:09:59.569Z</time></trkpt><trkpt lat="44.5219663" lon="11.3296445"><ele>35.5</ele><time>2026-04-07T18:10:00.577Z</time></trkpt><trkpt lat="44.5218987" lon="11.3296209"><ele>35.666666666666664</ele><time>2026-04-07T18:10:01.573Z</time></trkpt><trkpt lat="44.521817" lon="11.3295914"><ele>35.833333333333336</ele><time>2026-04-07T18:10:03.579Z</time></trkpt><trkpt lat="44.5217524" lon="11.3295474"><ele>36.0</ele><time>2026-04-07T18:10:27.581Z</time></trkpt><trkpt lat="44.5216847" lon="11.3295233"><ele>36.0</ele><time>2026-04-07T18:10:28.563Z</time></trkpt><trkpt lat="44.5215922" lon="11.3294969"><ele>36.0</ele><time>2026-04-07T18:10:29.57Z</time></trkpt><trkpt lat="44.5214822" lon="11.3294564"><ele>36.0</ele><time>2026-04-07T18:10:30.578Z</time></trkpt><trkpt lat="44.5213478" lon="11.3294202"><ele>36.0</ele><time>2026-04-07T18:10:31.57Z</time></trkpt><trkpt lat="44.5211951" lon="11.3293775"><ele>37.0</ele><time>2026-04-07T18:10:32.564Z</time></trkpt><trkpt lat="44.5209744" lon="11.3293634"><ele>38.0</ele><time>2026-04-07T18:10:33.595Z</time></trkpt><trkpt lat="44.5207514" lon="11.3293238"><ele>39.0</ele><time>2026-04-07T18:10:34.59Z</time></trkpt><trkpt lat="44.5205419" lon="11.3292726"><ele>38.666666666666664</ele><time>2026-04-07T18:10:35.599Z</time></trkpt><trkpt lat="44.5203803" lon="11.3292282"><ele>38.33333333333333</ele><time>2026-04-07T18:10:36.572Z</time></trkpt><trkpt lat="44.5202207" lon="11.3291915"><ele>38.0</ele><time>2026-04-07T18:10:37.572Z</time></trkpt><trkpt lat="44.5200581" lon="11.329153"><ele>38.0</ele><time>2026-04-07T18:10:38.567Z</time></trkpt><trkpt lat="44.5199091" lon="11.3290744"><ele>38.0</ele><time>2026-04-07T18:10:39.565Z</time></trkpt><trkpt lat="44.519761" lon="11.3290048"><ele>38.0</ele><time>2026-04-07T18:10:40.564Z</time></trkpt><trkpt lat="44.5196286" lon="11.3289671"><ele>38.0</ele><time>2026-04-07T18:10:41.563Z</time></trkpt><trkpt lat="44.5195175" lon="11.3289776"><ele>38.0</ele><time>2026-04-07T18:10:42.558Z</time></trkpt><trkpt lat="44.5193972" lon="11.3289558"><ele>38.0</ele><time>2026-04-07T18:10:43.56Z</time></trkpt><trkpt lat="44.5192468" lon="11.3289113"><ele>38.0</ele><time>2026-04-07T18:10:44.576Z</time></trkpt><trkpt lat="44.5191075" lon="11.3288749"><ele>38.33333333333333</ele><time>2026-04-07T18:10:45.571Z</time></trkpt><trkpt lat="44.518955" lon="11.3288523"><ele>38.666666666666664</ele><time>2026-04-07T18:10:46.568Z</time></trkpt><trkpt lat="44.518778" lon="11.3288096"><ele>39.0</ele><time>2026-04-07T18:10:47.572Z</time></trkpt><trkpt lat="44.5186338" lon="11.3287559"><ele>38.5</ele><time>2026-04-07T18:10:48.577Z</time></trkpt><trkpt lat="44.5184905" lon="11.3287037"><ele>38.0</ele><time>2026-04-07T18:10:49.571Z</time></trkpt><trkpt lat="44.5183578" lon="11.3286717"><ele>37.5</ele><time>2026-04-07T18:10:50.565Z</time></trkpt><trkpt lat="44.5182241" lon="11.3286237"><ele>37.0</ele><time>2026-04-07T18:10:51.569Z</time></trkpt><trkpt lat="44.5181128" lon="11.3286112"><ele>37.0</ele><time>2026-04-07T18:10:52.58Z</time></trkpt><trkpt lat="44.5179878" lon="11.32861"><ele>37.0</ele><time>2026-04-07T18:10:53.568Z</time></trkpt><trkpt lat="44.5178928" lon="11.3286069"><ele>37.0</ele><time>2026-04-07T18:10:54.563Z</time></trkpt><trkpt lat="44.5177996" lon="11.3285946"><ele>37.0</ele><time>2026-04-07T18:10:55.566Z</time></trkpt><trkpt lat="44.5177322" lon="11.3285992"><ele>37.0</ele><time>2026-04-07T18:10:56.568Z</time></trkpt><trkpt lat="44.5175955" lon="11.3284858"><ele>37.2</ele><time>2026-04-07T18:10:58.601Z</time></trkpt><trkpt lat="44.5175099" lon="11.3283932"><ele>37.400000000000006</ele><time>2026-04-07T18:10:59.577Z</time></trkpt><trkpt lat="44.51743" lon="11.3283036"><ele>37.599999999999994</ele><time>2026-04-07T18:11:00.596Z</time></trkpt><trkpt lat="44.5173494" lon="11.3282432"><ele>37.8</ele><time>2026-04-07T18:11:01.588Z</time></trkpt><trkpt lat="44.5172625" lon="11.3282132"><ele>38.0</ele><time>2026-04-07T18:11:02.566Z</time></trkpt><trkpt lat="44.5171598" lon="11.3282319"><ele>40.0</ele><time>2026-04-07T18:11:03.575Z</time></trkpt><trkpt lat="44.5170464" lon="11.3282698"><ele>42.0</ele><time>2026-04-07T18:11:04.564Z</time></trkpt><trkpt lat="44.5169232" lon="11.3283028"><ele>44.0</ele><time>2026-04-07T18:11:05.748Z</time></trkpt><trkpt lat="44.5166204" lon="11.3282549"><ele>44.0</ele><time>2026-04-07T18:11:07.567Z</time></trkpt><trkpt lat="44.5164256" lon="11.328244"><ele>44.0</ele><time>2026-04-07T18:11:08.565Z</time></trkpt><trkpt lat="44.5162939" lon="11.3282392"><ele>44.0</ele><time>2026-04-07T18:11:09.56Z</time></trkpt><trkpt lat="44.516169" lon="11.3282335"><ele>43.25</ele><time>2026-04-07T18:11:10.562Z</time></trkpt><trkpt lat="44.5160683" lon="11.3282092"><ele>42.5</ele><time>2026-04-07T18:11:11.564Z</time></trkpt><trkpt lat="44.5159682" lon="11.3281779"><ele>41.75</ele><time>2026-04-07T18:11:12.566Z</time></trkpt><trkpt lat="44.5158553" lon="11.3281764"><ele>41.0</ele><time>2026-04-07T18:11:13.563Z</time></trkpt><trkpt lat="44.5157162" lon="11.3281224"><ele>41.0</ele><time>2026-04-07T18:11:14.565Z</time></trkpt><trkpt lat="44.5155819" lon="11.3280805"><ele>41.0</ele><time>2026-04-07T18:11:15.576Z</time></trkpt><trkpt lat="44.5154673" lon="11.3280702"><ele>41.0</ele><time>2026-04-07T18:11:16.604Z</time></trkpt><trkpt lat="44.5153234" lon="11.3280507"><ele>41.0</ele><time>2026-04-07T18:11:17.58Z</time></trkpt><trkpt lat="44.5151715" lon="11.3280032"><ele>40.0</ele><time>2026-04-07T18:11:18.574Z</time></trkpt><trkpt lat="44.5150432" lon="11.3279532"><ele>39.0</ele><time>2026-04-07T18:11:19.58Z</time></trkpt><trkpt lat="44.5149328" lon="11.3279303"><ele>38.0</ele><time>2026-04-07T18:11:20.571Z</time></trkpt><trkpt lat="44.5147901" lon="11.3279077"><ele>37.0</ele><time>2026-04-07T18:11:21.578Z</time></trkpt><trkpt lat="44.5146304" lon="11.3278304"><ele>37.75</ele><time>2026-04-07T18:11:22.579Z</time></trkpt><trkpt lat="44.5144845" lon="11.3277874"><ele>38.5</ele><time>2026-04-07T18:11:23.59Z</time></trkpt><trkpt lat="44.5143631" lon="11.3277435"><ele>39.25</ele><time>2026-04-07T18:11:24.596Z</time></trkpt><trkpt lat="44.5142314" lon="11.3276977"><ele>40.0</ele><time>2026-04-07T18:11:25.573Z</time></trkpt><trkpt lat="44.5141271" lon="11.3276613"><ele>40.0</ele><time>2026-04-07T18:11:26.565Z</time></trkpt><trkpt lat="44.5140398" lon="11.3276632"><ele>40.0</ele><time>2026-04-07T18:11:27.595Z</time></trkpt><trkpt lat="44.513948" lon="11.3276526"><ele>40.0</ele><time>2026-04-07T18:11:28.578Z</time></trkpt><trkpt lat="44.513868" lon="11.3276089"><ele>40.0</ele><time>2026-04-07T18:11:29.569Z</time></trkpt><trkpt lat="44.5137647" lon="11.3275496"><ele>40.0</ele><time>2026-04-07T18:11:31.569Z</time></trkpt><trkpt lat="44.5136855" lon="11.3275243"><ele>40.0</ele><time>2026-04-07T18:11:33.574Z</time></trkpt><trkpt lat="44.5136234" lon="11.3274906"><ele>40.0</ele><time>2026-04-07T18:11:35.579Z</time></trkpt><trkpt lat="44.5135403" lon="11.327442"><ele>40.0</ele><time>2026-04-07T18:11:39.573Z</time></trkpt><trkpt lat="44.5134706" lon="11.327325"><ele>40.0</ele><time>2026-04-07T18:11:41.579Z</time></trkpt><trkpt lat="44.5134431" lon="11.3272372"><ele>40.0</ele><time>2026-04-07T18:11:42.571Z</time></trkpt><trkpt lat="44.513338" lon="11.3271327"><ele>40.16666666666667</ele><time>2026-04-07T18:11:44.599Z</time></trkpt><trkpt lat="44.5132592" lon="11.3271305"><ele>40.333333333333336</ele><time>2026-04-07T18:11:45.58Z</time></trkpt><trkpt lat="44.5131544" lon="11.3271626"><ele>40.5</ele><time>2026-04-07T18:11:47.583Z</time></trkpt><trkpt lat="44.5130753" lon="11.3271761"><ele>40.666666666666664</ele><time>2026-04-07T18:11:49.571Z</time></trkpt><trkpt lat="44.513005" lon="11.3271972"><ele>40.83333333333333</ele><time>2026-04-07T18:11:51.577Z</time></trkpt><trkpt lat="44.51294" lon="11.32722"><ele>41.0</ele><time>2026-04-07T18:11:54.574Z</time></trkpt><trkpt lat="44.5128729" lon="11.3271989"><ele>41.0</ele><time>2026-04-07T18:11:59.585Z</time></trkpt><trkpt lat="44.5128073" lon="11.3272282"><ele>41.0</ele><time>2026-04-07T18:12:01.566Z</time></trkpt><trkpt lat="44.512681" lon="11.3272916"><ele>41.0</ele><time>2026-04-07T18:12:03.574Z</time></trkpt><trkpt lat="44.5126083" lon="11.3273306"><ele>41.0</ele><time>2026-04-07T18:12:04.591Z</time></trkpt><trkpt lat="44.5125312" lon="11.3273759"><ele>41.0</ele><time>2026-04-07T18:12:05.574Z</time></trkpt><trkpt lat="44.5124387" lon="11.3274241"><ele>41.0</ele><time>2026-04-07T18:12:06.576Z</time></trkpt><trkpt lat="44.5123346" lon="11.3274753"><ele>41.0</ele><time>2026-04-07T18:12:07.57Z</time></trkpt><trkpt lat="44.5122233" lon="11.3275194"><ele>41.0</ele><time>2026-04-07T18:12:08.57Z</time></trkpt><trkpt lat="44.5121105" lon="11.3275606"><ele>41.0</ele><time>2026-04-07T18:12:09.569Z</time></trkpt><trkpt lat="44.5119974" lon="11.3276173"><ele>40.75</ele><time>2026-04-07T18:12:10.572Z</time></trkpt><trkpt lat="44.5118799" lon="11.3276833"><ele>40.5</ele><time>2026-04-07T18:12:11.571Z</time></trkpt><trkpt lat="44.5117683" lon="11.3277597"><ele>40.25</ele><time>2026-04-07T18:12:12.568Z</time></trkpt><trkpt lat="44.5116511" lon="11.327847"><ele>40.0</ele><time>2026-04-07T18:12:13.567Z</time></trkpt><trkpt lat="44.5115312" lon="11.3279493"><ele>40.0</ele><time>2026-04-07T18:12:14.576Z</time></trkpt><trkpt lat="44.5114074" lon="11.3280615"><ele>40.0</ele><time>2026-04-07T18:12:15.57Z</time></trkpt><trkpt lat="44.5112587" lon="11.3282279"><ele>40.0</ele><time>2026-04-07T18:12:16.575Z</time></trkpt><trkpt lat="44.5111218" lon="11.3283775"><ele>40.333333333333336</ele><time>2026-04-07T18:12:17.57Z</time></trkpt><trkpt lat="44.5109874" lon="11.3284712"><ele>40.666666666666664</ele><time>2026-04-07T18:12:18.567Z</time></trkpt><trkpt lat="44.5108535" lon="11.3285579"><ele>41.0</ele><time>2026-04-07T18:12:19.568Z</time></trkpt><trkpt lat="44.5107051" lon="11.3286287"><ele>41.0</ele><time>2026-04-07T18:12:20.564Z</time></trkpt><trkpt lat="44.5105413" lon="11.3286827"><ele>41.0</ele><time>2026-04-07T18:12:21.569Z</time></trkpt><trkpt lat="44.5103771" lon="11.3287097"><ele>41.0</ele><time>2026-04-07T18:12:22.57Z</time></trkpt><trkpt lat="44.5102386" lon="11.3287377"><ele>40.75</ele><time>2026-04-07T18:12:23.575Z</time></trkpt><trkpt lat="44.5101081" lon="11.3287772"><ele>40.5</ele><time>2026-04-07T18:12:24.566Z</time></trkpt><trkpt lat="44.5099899" lon="11.3288344"><ele>40.25</ele><time>2026-04-07T18:12:25.565Z</time></trkpt><trkpt lat="44.509879" lon="11.3288866"><ele>40.0</ele><time>2026-04-07T18:12:26.568Z</time></trkpt><trkpt lat="44.5097655" lon="11.3289321"><ele>40.0</ele><time>2026-04-07T18:12:27.563Z</time></trkpt><trkpt lat="44.5096489" lon="11.328995"><ele>40.0</ele><time>2026-04-07T18:12:28.574Z</time></trkpt><trkpt lat="44.5095418" lon="11.329059"><ele>40.0</ele><time>2026-04-07T18:12:29.574Z</time></trkpt><trkpt lat="44.5094271" lon="11.3290836"><ele>40.0</ele><time>2026-04-07T18:12:30.566Z</time></trkpt><trkpt lat="44.5093316" lon="11.3291248"><ele>40.5</ele><time>2026-04-07T18:12:31.58Z</time></trkpt><trkpt lat="44.5092339" lon="11.3291767"><ele>41.0</ele><time>2026-04-07T18:12:32.57Z</time></trkpt><trkpt lat="44.509122" lon="11.3292402"><ele>41.5</ele><time>2026-04-07T18:12:33.568Z</time></trkpt><trkpt lat="44.5090059" lon="11.3293127"><ele>42.0</ele><time>2026-04-07T18:12:34.569Z</time></trkpt><trkpt lat="44.508881" lon="11.3293912"><ele>42.0</ele><time>2026-04-07T18:12:35.583Z</time></trkpt><trkpt lat="44.5087455" lon="11.3294748"><ele>42.0</ele><time>2026-04-07T18:12:36.594Z</time></trkpt><trkpt lat="44.5085848" lon="11.329573"><ele>42.0</ele><time>2026-04-07T18:12:37.594Z</time></trkpt><trkpt lat="44.5084329" lon="11.3296416"><ele>42.0</ele><time>2026-04-07T18:12:38.571Z</time></trkpt><trkpt lat="44.5083012" lon="11.3297118"><ele>42.0</ele><time>2026-04-07T18:12:39.573Z</time></trkpt><trkpt lat="44.5081897" lon="11.3297788"><ele>42.0</ele><time>2026-04-07T18:12:40.569Z</time></trkpt><trkpt lat="44.5080864" lon="11.329828"><ele>42.0</ele><time>2026-04-07T18:12:41.562Z</time></trkpt><trkpt lat="44.5079815" lon="11.3299079"><ele>41.75</ele><time>2026-04-07T18:12:42.554Z</time></trkpt><trkpt lat="44.5078618" lon="11.3299999"><ele>41.5</ele><time>2026-04-07T18:12:43.547Z</time></trkpt><trkpt lat="44.5077642" lon="11.3300788"><ele>41.25</ele><time>2026-04-07T18:12:44.545Z</time></trkpt><trkpt lat="44.5076871" lon="11.3302387"><ele>41.0</ele><time>2026-04-07T18:12:45.551Z</time></trkpt><trkpt lat="44.507491" lon="11.3302301"><ele>41.0</ele><time>2026-04-07T18:12:46.563Z</time></trkpt><trkpt lat="44.5073153" lon="11.3302864"><ele>41.0</ele><time>2026-04-07T18:12:47.566Z</time></trkpt><trkpt lat="44.5071795" lon="11.3303733"><ele>41.0</ele><time>2026-04-07T18:12:48.565Z</time></trkpt><trkpt lat="44.5070412" lon="11.3304546"><ele>42.0</ele><time>2026-04-07T18:12:49.572Z</time></trkpt><trkpt lat="44.5069116" lon="11.3305399"><ele>43.0</ele><time>2026-04-07T18:12:50.562Z</time></trkpt><trkpt lat="44.5067674" lon="11.3305948"><ele>44.0</ele><time>2026-04-07T18:12:51.592Z</time></trkpt><trkpt lat="44.506697" lon="11.3306332"><ele>45.0</ele><time>2026-04-07T18:12:52.571Z</time></trkpt><trkpt lat="44.5066271" lon="11.3306922"><ele>45.2</ele><time>2026-04-07T18:12:53.578Z</time></trkpt><trkpt lat="44.5065754" lon="11.3307715"><ele>45.4</ele><time>2026-04-07T18:12:54.57Z</time></trkpt><trkpt lat="44.5064428" lon="11.3308504"><ele>45.599999999999994</ele><time>2026-04-07T18:12:56.566Z</time></trkpt><trkpt lat="44.506371" lon="11.3308697"><ele>45.8</ele><time>2026-04-07T18:12:57.569Z</time></trkpt><trkpt lat="44.5062953" lon="11.3308937"><ele>46.0</ele><time>2026-04-07T18:12:58.56Z</time></trkpt><trkpt lat="44.5062126" lon="11.3309"><ele>46.4</ele><time>2026-04-07T18:12:59.57Z</time></trkpt><trkpt lat="44.5061409" lon="11.3309379"><ele>46.8</ele><time>2026-04-07T18:13:00.577Z</time></trkpt><trkpt lat="44.5060665" lon="11.3309809"><ele>47.199999999999996</ele><time>2026-04-07T18:13:01.575Z</time></trkpt><trkpt lat="44.506004" lon="11.3310348"><ele>47.599999999999994</ele><time>2026-04-07T18:13:02.577Z</time></trkpt><trkpt lat="44.505924" lon="11.3311081"><ele>48.0</ele><time>2026-04-07T18:13:03.564Z</time></trkpt><trkpt lat="44.505817" lon="11.3311957"><ele>48.0</ele><time>2026-04-07T18:13:04.563Z</time></trkpt><trkpt lat="44.505704" lon="11.3312705"><ele>48.0</ele><time>2026-04-07T18:13:05.568Z</time></trkpt><trkpt lat="44.5055973" lon="11.3313242"><ele>48.0</ele><time>2026-04-07T18:13:06.574Z</time></trkpt><trkpt lat="44.5054929" lon="11.331382"><ele>48.0</ele><time>2026-04-07T18:13:07.577Z</time></trkpt><trkpt lat="44.5053966" lon="11.3314464"><ele>47.8</ele><time>2026-04-07T18:13:08.565Z</time></trkpt><trkpt lat="44.5052989" lon="11.3315015"><ele>47.599999999999994</ele><time>2026-04-07T18:13:09.569Z</time></trkpt><trkpt lat="44.5052038" lon="11.3315644"><ele>47.400000000000006</ele><time>2026-04-07T18:13:10.572Z</time></trkpt><trkpt lat="44.5051097" lon="11.3316295"><ele>47.2</ele><time>2026-04-07T18:13:11.57Z</time></trkpt><trkpt lat="44.5050166" lon="11.3316905"><ele>47.0</ele><time>2026-04-07T18:13:12.569Z</time></trkpt><trkpt lat="44.5049247" lon="11.3317541"><ele>47.0</ele><time>2026-04-07T18:13:13.571Z</time></trkpt><trkpt lat="44.5048421" lon="11.3318155"><ele>47.0</ele><time>2026-04-07T18:13:14.57Z</time></trkpt><trkpt lat="44.5047695" lon="11.3318668"><ele>47.0</ele><time>2026-04-07T18:13:15.567Z</time></trkpt><trkpt lat="44.504708" lon="11.3319219"><ele>47.0</ele><time>2026-04-07T18:13:16.568Z</time></trkpt><trkpt lat="44.5046463" lon="11.331968"><ele>47.0</ele><time>2026-04-07T18:13:17.569Z</time></trkpt><trkpt lat="44.5045781" lon="11.3320116"><ele>47.0</ele><time>2026-04-07T18:13:18.57Z</time></trkpt><trkpt lat="44.5045187" lon="11.3320521"><ele>47.2</ele><time>2026-04-07T18:13:19.569Z</time></trkpt><trkpt lat="44.5044537" lon="11.3320934"><ele>47.400000000000006</ele><time>2026-04-07T18:13:20.57Z</time></trkpt><trkpt lat="44.504381" lon="11.3321425"><ele>47.599999999999994</ele><time>2026-04-07T18:13:21.567Z</time></trkpt><trkpt lat="44.5043191" lon="11.3321885"><ele>47.8</ele><time>2026-04-07T18:13:22.569Z</time></trkpt><trkpt lat="44.5042274" lon="11.3322851"><ele>48.0</ele><time>2026-04-07T18:13:24.565Z</time></trkpt><trkpt lat="44.5041284" lon="11.33237"><ele>48.0</ele><time>2026-04-07T18:13:26.561Z</time></trkpt><trkpt lat="44.5040352" lon="11.3324433"><ele>48.0</ele><time>2026-04-07T18:13:28.559Z</time></trkpt><trkpt lat="44.5039152" lon="11.3325147"><ele>48.0</ele><time>2026-04-07T18:13:30.563Z</time></trkpt><trkpt lat="44.503851" lon="11.332558"><ele>48.0</ele><time>2026-04-07T18:13:31.565Z</time></trkpt><trkpt lat="44.5037793" lon="11.3326018"><ele>48.0</ele><time>2026-04-07T18:13:32.571Z</time></trkpt><trkpt lat="44.5037031" lon="11.3326429"><ele>48.0</ele><time>2026-04-07T18:13:33.565Z</time></trkpt><trkpt lat="44.5036261" lon="11.3326701"><ele>48.0</ele><time>2026-04-07T18:13:34.564Z</time></trkpt><trkpt lat="44.5035572" lon="11.3327051"><ele>48.0</ele><time>2026-04-07T18:13:35.562Z</time></trkpt><trkpt lat="44.5034888" lon="11.332756"><ele>48.0</ele><time>2026-04-07T18:13:36.561Z</time></trkpt><trkpt lat="44.5034059" lon="11.332809"><ele>48.0</ele><time>2026-04-07T18:13:37.558Z</time></trkpt><trkpt lat="44.5032928" lon="11.3328729"><ele>48.0</ele><time>2026-04-07T18:13:38.566Z</time></trkpt><trkpt lat="44.5031763" lon="11.332947"><ele>48.0</ele><time>2026-04-07T18:13:39.564Z</time></trkpt><trkpt lat="44.5030779" lon="11.3330102"><ele>48.0</ele><time>2026-04-07T18:13:40.556Z</time></trkpt><trkpt lat="44.5029855" lon="11.3330652"><ele>48.0</ele><time>2026-04-07T18:13:41.565Z</time></trkpt><trkpt lat="44.5028867" lon="11.3331241"><ele>48.0</ele><time>2026-04-07T18:13:42.565Z</time></trkpt><trkpt lat="44.5028018" lon="11.3331737"><ele>48.0</ele><time>2026-04-07T18:13:43.562Z</time></trkpt><trkpt lat="44.5027335" lon="11.3332139"><ele>48.333333333333336</ele><time>2026-04-07T18:13:44.563Z</time></trkpt><trkpt lat="44.5026701" lon="11.3332472"><ele>48.66666666666667</ele><time>2026-04-07T18:13:45.571Z</time></trkpt><trkpt lat="44.5025474" lon="11.3332444"><ele>49.0</ele><time>2026-04-07T18:13:47.57Z</time></trkpt><trkpt lat="44.5024826" lon="11.3332051"><ele>49.333333333333336</ele><time>2026-04-07T18:13:48.561Z</time></trkpt><trkpt lat="44.5024182" lon="11.3331619"><ele>49.66666666666667</ele><time>2026-04-07T18:13:49.565Z</time></trkpt><trkpt lat="44.5023391" lon="11.3331301"><ele>50.0</ele><time>2026-04-07T18:13:50.568Z</time></trkpt><trkpt lat="44.5022482" lon="11.3331205"><ele>50.0</ele><time>2026-04-07T18:13:51.562Z</time></trkpt><trkpt lat="44.5021553" lon="11.3331165"><ele>50.0</ele><time>2026-04-07T18:13:52.574Z</time></trkpt><trkpt lat="44.5020667" lon="11.3331114"><ele>50.0</ele><time>2026-04-07T18:13:53.563Z</time></trkpt><trkpt lat="44.5019963" lon="11.3331048"><ele>50.0</ele><time>2026-04-07T18:13:54.568Z</time></trkpt><trkpt lat="44.5019109" lon="11.333088"><ele>50.0</ele><time>2026-04-07T18:13:56.561Z</time></trkpt><trkpt lat="44.5018086" lon="11.3331582"><ele>50.6</ele><time>2026-04-07T18:13:58.566Z</time></trkpt><trkpt lat="44.5017508" lon="11.3331938"><ele>51.2</ele><time>2026-04-07T18:13:59.555Z</time></trkpt><trkpt lat="44.5016568" lon="11.3332063"><ele>51.8</ele><time>2026-04-07T18:14:00.559Z</time></trkpt><trkpt lat="44.5015434" lon="11.3331901"><ele>52.4</ele><time>2026-04-07T18:14:01.569Z</time></trkpt><trkpt lat="44.5014291" lon="11.3331733"><ele>53.0</ele><time>2026-04-07T18:14:02.553Z</time></trkpt><trkpt lat="44.501318" lon="11.3331517"><ele>54.0</ele><time>2026-04-07T18:14:03.556Z</time></trkpt><trkpt lat="44.5012094" lon="11.3331369"><ele>55.0</ele><time>2026-04-07T18:14:04.553Z</time></trkpt><trkpt lat="44.501111" lon="11.3331368"><ele>56.0</ele><time>2026-04-07T18:14:05.56Z</time></trkpt><trkpt lat="44.5010205" lon="11.3331263"><ele>57.0</ele><time>2026-04-07T18:14:06.561Z</time></trkpt><trkpt lat="44.5009232" lon="11.3330952"><ele>58.0</ele><time>2026-04-07T18:14:07.558Z</time></trkpt><trkpt lat="44.5008368" lon="11.3330689"><ele>57.666666666666664</ele><time>2026-04-07T18:14:08.56Z</time></trkpt><trkpt lat="44.5007599" lon="11.3330479"><ele>57.33333333333333</ele><time>2026-04-07T18:14:09.559Z</time></trkpt><trkpt lat="44.5006586" lon="11.333015"><ele>57.0</ele><time>2026-04-07T18:14:11.56Z</time></trkpt><trkpt lat="44.5005948" lon="11.3330246"><ele>56.66666666666667</ele><time>2026-04-07T18:14:14.563Z</time></trkpt><trkpt lat="44.5005319" lon="11.3330388"><ele>56.333333333333336</ele><time>2026-04-07T18:14:16.557Z</time></trkpt><trkpt lat="44.5004303" lon="11.3330068"><ele>56.0</ele><time>2026-04-07T18:14:19.571Z</time></trkpt><trkpt lat="44.5003358" lon="11.3329952"><ele>56.0</ele><time>2026-04-07T18:14:21.565Z</time></trkpt><trkpt lat="44.5002317" lon="11.3330509"><ele>55.99999999999999</ele><time>2026-04-07T18:14:23.576Z</time></trkpt><trkpt lat="44.5001593" lon="11.3330676"><ele>55.99999999999999</ele><time>2026-04-07T18:14:24.563Z</time></trkpt><trkpt lat="44.500073" lon="11.333053"><ele>56.0</ele><time>2026-04-07T18:14:25.564Z</time></trkpt><trkpt lat="44.4999688" lon="11.3330213"><ele>56.0</ele><time>2026-04-07T18:14:26.56Z</time></trkpt><trkpt lat="44.4998605" lon="11.3329836"><ele>56.00000000000001</ele><time>2026-04-07T18:14:27.557Z</time></trkpt><trkpt lat="44.4997643" lon="11.3329711"><ele>56.0</ele><time>2026-04-07T18:14:28.561Z</time></trkpt><trkpt lat="44.4996806" lon="11.332955"><ele>56.0</ele><time>2026-04-07T18:14:29.56Z</time></trkpt><trkpt lat="44.4995934" lon="11.3329485"><ele>56.0</ele><time>2026-04-07T18:14:30.57Z</time></trkpt><trkpt lat="44.4995142" lon="11.332931"><ele>56.00000000000001</ele><time>2026-04-07T18:14:31.568Z</time></trkpt><trkpt lat="44.4994403" lon="11.3329212"><ele>56.0</ele><time>2026-04-07T18:14:32.565Z</time></trkpt><trkpt lat="44.4993691" lon="11.3329129"><ele>56.00000000000001</ele><time>2026-04-07T18:14:33.565Z</time></trkpt><trkpt lat="44.4993052" lon="11.332904"><ele>56.0</ele><time>2026-04-07T18:14:34.561Z</time></trkpt><trkpt lat="44.4992388" lon="11.3328976"><ele>56.0</ele><time>2026-04-07T18:14:35.57Z</time></trkpt><trkpt lat="44.4991696" lon="11.3328825"><ele>56.0</ele><time>2026-04-07T18:14:37.558Z</time></trkpt><trkpt lat="44.4990657" lon="11.3328979"><ele>56.00000000000001</ele><time>2026-04-07T18:14:41.572Z</time></trkpt><trkpt lat="44.4989984" lon="11.3328974"><ele>56.0</ele><time>2026-04-07T18:14:43.568Z</time></trkpt><trkpt lat="44.4989076" lon="11.3329003"><ele>56.0</ele><time>2026-04-07T18:14:46.571Z</time></trkpt><trkpt lat="44.4988272" lon="11.3329126"><ele>55.99999999999999</ele><time>2026-04-07T18:14:49.571Z</time></trkpt><trkpt lat="44.498738" lon="11.3328632"><ele>55.99999999999999</ele><time>2026-04-07T18:14:52.56Z</time></trkpt><trkpt lat="44.4986386" lon="11.332756"><ele>56.0</ele><time>2026-04-07T18:14:54.562Z</time></trkpt><trkpt lat="44.4985631" lon="11.3326769"><ele>56.0</ele><time>2026-04-07T18:14:55.556Z</time></trkpt><trkpt lat="44.4984891" lon="11.3325666"><ele>56.4</ele><time>2026-04-07T18:14:56.56Z</time></trkpt><trkpt lat="44.4984164" lon="11.3324451"><ele>56.8</ele><time>2026-04-07T18:14:57.565Z</time></trkpt><trkpt lat="44.4983443" lon="11.3323375"><ele>57.199999999999996</ele><time>2026-04-07T18:14:58.557Z</time></trkpt><trkpt lat="44.4982904" lon="11.3322074"><ele>57.599999999999994</ele><time>2026-04-07T18:14:59.558Z</time></trkpt><trkpt lat="44.4982378" lon="11.3320963"><ele>58.0</ele><time>2026-04-07T18:15:00.551Z</time></trkpt><trkpt lat="44.4981841" lon="11.3320118"><ele>58.28571428571429</ele><time>2026-04-07T18:15:01.549Z</time></trkpt><trkpt lat="44.4981419" lon="11.3319405"><ele>58.57142857142857</ele><time>2026-04-07T18:15:02.543Z</time></trkpt><trkpt lat="44.4980819" lon="11.3318221"><ele>58.85714285714286</ele><time>2026-04-07T18:15:04.548Z</time></trkpt><trkpt lat="44.4980443" lon="11.3317306"><ele>59.142857142857146</ele><time>2026-04-07T18:15:06.552Z</time></trkpt><trkpt lat="44.4980192" lon="11.3316481"><ele>59.42857142857143</ele><time>2026-04-07T18:15:09.553Z</time></trkpt><trkpt lat="44.4979988" lon="11.3315626"><ele>59.714285714285715</ele><time>2026-04-07T18:15:31.561Z</time></trkpt><trkpt lat="44.4979838" lon="11.331475"><ele>60.0</ele><time>2026-04-07T18:16:22.56Z</time></trkpt><trkpt lat="44.4979439" lon="11.331389"><ele>59.85714285714286</ele><time>2026-04-07T18:17:55.565Z</time></trkpt><trkpt lat="44.4979066" lon="11.3313086"><ele>59.71428571428571</ele><time>2026-04-07T18:18:35.561Z</time></trkpt><trkpt lat="44.4978676" lon="11.3312246"><ele>59.57142857142857</ele><time>2026-04-07T18:18:51.561Z</time></trkpt><trkpt lat="44.4978305" lon="11.3311472"><ele>59.42857142857143</ele><time>2026-04-07T18:19:06.562Z</time></trkpt><trkpt lat="44.4977937" lon="11.3310679"><ele>59.28571428571429</ele><time>2026-04-07T18:19:38.558Z</time></trkpt><trkpt lat="44.4977592" lon="11.3309934"><ele>59.14285714285714</ele><time>2026-04-07T18:20:51.559Z</time></trkpt><trkpt lat="44.4977232" lon="11.3309159"><ele>59.0</ele><time>2026-04-07T18:22:17.572Z</time></trkpt><trkpt lat="44.4976858" lon="11.3308372"><ele>59.0</ele><time>2026-04-07T18:22:55.567Z</time></trkpt><trkpt lat="44.4976447" lon="11.3307484"><ele>59.0</ele><time>2026-04-07T18:23:57.558Z</time></trkpt><trkpt lat="44.4976066" lon="11.3306664"><ele>59.0</ele><time>2026-04-07T18:25:23.556Z</time></trkpt><trkpt lat="44.4975711" lon="11.330593"><ele>59.0</ele><time>2026-04-07T18:27:00.55Z</time></trkpt><trkpt lat="44.4975266" lon="11.3305"><ele>59.0</ele><time>2026-04-07T18:28:15.555Z</time></trkpt><trkpt lat="44.4974874" lon="11.3304249"><ele>59.0</ele><time>2026-04-07T18:28:42.559Z</time></trkpt><trkpt lat="44.4974477" lon="11.3303394"><ele>59.0</ele><time>2026-04-07T18:29:14.555Z</time></trkpt><trkpt lat="44.4974071" lon="11.3302558"><ele>59.00000000000001</ele><time>2026-04-07T18:30:06.555Z</time></trkpt><trkpt lat="44.4973411" lon="11.3302122"><ele>59.0</ele><time>2026-04-07T18:30:12.561Z</time></trkpt><trkpt lat="44.4973474" lon="11.3303213"><ele>59.0</ele><time>2026-04-07T18:30:15.55Z</time></trkpt><trkpt lat="44.4974242" lon="11.3304536"><ele>59.0</ele><time>2026-04-07T18:30:17.554Z</time></trkpt><trkpt lat="44.4974883" lon="11.3305412"><ele>59.00000000000001</ele><time>2026-04-07T18:30:18.555Z</time></trkpt><trkpt lat="44.4975275" lon="11.3306285"><ele>59.0</ele><time>2026-04-07T18:30:19.548Z</time></trkpt><trkpt lat="44.4975954" lon="11.3307213"><ele>59.00000000000001</ele><time>2026-04-07T18:30:20.555Z</time></trkpt><trkpt lat="44.497657" lon="11.3308256"><ele>59.0</ele><time>2026-04-07T18:30:21.551Z</time></trkpt><trkpt lat="44.4977041" lon="11.3309236"><ele>59.0</ele><time>2026-04-07T18:30:22.548Z</time></trkpt><trkpt lat="44.4977577" lon="11.3310223"><ele>59.0</ele><time>2026-04-07T18:30:23.557Z</time></trkpt><trkpt lat="44.497803" lon="11.3311178"><ele>59.00000000000001</ele><time>2026-04-07T18:30:24.55Z</time></trkpt><trkpt lat="44.4978555" lon="11.331208"><ele>59.0</ele><time>2026-04-07T18:30:25.557Z</time></trkpt><trkpt lat="44.4979014" lon="11.3312894"><ele>59.16666666666667</ele><time>2026-04-07T18:30:26.559Z</time></trkpt><trkpt lat="44.4979441" lon="11.3313792"><ele>59.333333333333336</ele><time>2026-04-07T18:30:27.559Z</time></trkpt><trkpt lat="44.4979881" lon="11.3314597"><ele>59.5</ele><time>2026-04-07T18:30:28.558Z</time></trkpt><trkpt lat="44.4980336" lon="11.331543"><ele>59.66666666666667</ele><time>2026-04-07T18:30:29.564Z</time></trkpt><trkpt lat="44.498072" lon="11.331614"><ele>59.833333333333336</ele><time>2026-04-07T18:30:30.562Z</time></trkpt><trkpt lat="44.4981448" lon="11.3317263"><ele>60.0</ele><time>2026-04-07T18:30:32.557Z</time></trkpt><trkpt lat="44.4982241" lon="11.3318452"><ele>60.0</ele><time>2026-04-07T18:30:34.555Z</time></trkpt><trkpt lat="44.4982929" lon="11.3319795"><ele>60.0</ele><time>2026-04-07T18:30:36.556Z</time></trkpt><trkpt lat="44.4983739" lon="11.3320966"><ele>60.0</ele><time>2026-04-07T18:30:38.565Z</time></trkpt><trkpt lat="44.4984756" lon="11.3321491"><ele>60.0</ele><time>2026-04-07T18:30:40.564Z</time></trkpt><trkpt lat="44.498568" lon="11.3321491"><ele>60.0</ele><time>2026-04-07T18:30:42.56Z</time></trkpt><trkpt lat="44.4985886" lon="11.3320628"><ele>60.0</ele><time>2026-04-07T18:30:45.555Z</time></trkpt></trkseg><trkseg><trkpt lat="44.4975562" lon="11.3309951"><ele>59.0</ele><time>2026-04-08T13:26:55.43Z</time></trkpt><trkpt lat="44.4976078" lon="11.3312416"><ele>59.0</ele><time>2026-04-08T13:26:58.409Z</time></trkpt><trkpt lat="44.4975731" lon="11.330993"><ele>59.0</ele><time>2026-04-08T13:27:06.415Z</time></trkpt><trkpt lat="44.4977165" lon="11.3313439"><ele>59.0</ele><time>2026-04-08T13:27:19.414Z</time></trkpt><trkpt lat="44.4978198" lon="11.3313995"><ele>59.00000000000001</ele><time>2026-04-08T13:27:52.424Z</time></trkpt><trkpt lat="44.4978308" lon="11.3312188"><ele>59.00000000000001</ele><time>2026-04-08T13:27:53.421Z</time></trkpt><trkpt lat="44.4978368" lon="11.3311002"><ele>59.0</ele><time>2026-04-08T13:27:54.425Z</time></trkpt><trkpt lat="44.4978475" lon="11.3309679"><ele>59.0</ele><time>2026-04-08T13:27:55.416Z</time></trkpt><trkpt lat="44.4978355" lon="11.330881"><ele>59.0</ele><time>2026-04-08T13:27:56.429Z</time></trkpt><trkpt lat="44.4977431" lon="11.3307998"><ele>59.00000000000001</ele><time>2026-04-08T13:27:57.418Z</time></trkpt><trkpt lat="44.4977243" lon="11.3306326"><ele>59.00000000000001</ele><time>2026-04-08T13:27:59.422Z</time></trkpt><trkpt lat="44.4977421" lon="11.3305403"><ele>59.0</ele><time>2026-04-08T13:28:00.424Z</time></trkpt><trkpt lat="44.4977671" lon="11.3304569"><ele>59.0</ele><time>2026-04-08T13:28:01.409Z</time></trkpt><trkpt lat="44.497798" lon="11.3303211"><ele>59.16666666666667</ele><time>2026-04-08T13:28:03.415Z</time></trkpt><trkpt lat="44.4978314" lon="11.3302159"><ele>59.333333333333336</ele><time>2026-04-08T13:28:05.418Z</time></trkpt><trkpt lat="44.4978543" lon="11.3300869"><ele>59.5</ele><time>2026-04-08T13:28:16.417Z</time></trkpt><trkpt lat="44.4978907" lon="11.3299881"><ele>59.66666666666667</ele><time>2026-04-08T13:28:18.419Z</time></trkpt><trkpt lat="44.4979323" lon="11.3298921"><ele>59.833333333333336</ele><time>2026-04-08T13:28:21.419Z</time></trkpt><trkpt lat="44.4979641" lon="11.3298142"><ele>60.0</ele><time>2026-04-08T13:28:26.412Z</time></trkpt><trkpt lat="44.4979908" lon="11.329733"><ele>60.0</ele><time>2026-04-08T13:28:32.429Z</time></trkpt><trkpt lat="44.4980327" lon="11.3296615"><ele>60.0</ele><time>2026-04-08T13:28:42.411Z</time></trkpt><trkpt lat="44.4979662" lon="11.3299038"><ele>60.0</ele><time>2026-04-08T13:28:55.419Z</time></trkpt><trkpt lat="44.497947" lon="11.3299981"><ele>60.0</ele><time>2026-04-08T13:29:04.413Z</time></trkpt><trkpt lat="44.4979126" lon="11.3300856"><ele>60.0</ele><time>2026-04-08T13:29:07.417Z</time></trkpt><trkpt lat="44.4978753" lon="11.3301681"><ele>60.142857142857146</ele><time>2026-04-08T13:29:09.422Z</time></trkpt><trkpt lat="44.4978298" lon="11.3302709"><ele>60.28571428571428</ele><time>2026-04-08T13:29:11.422Z</time></trkpt><trkpt lat="44.4977887" lon="11.3303601"><ele>60.42857142857142</ele><time>2026-04-08T13:29:15.416Z</time></trkpt><trkpt lat="44.4977394" lon="11.3304193"><ele>60.57142857142857</ele><time>2026-04-08T13:29:33.424Z</time></trkpt><trkpt lat="44.4976943" lon="11.330491"><ele>60.71428571428571</ele><time>2026-04-08T13:29:47.418Z</time></trkpt><trkpt lat="44.4976393" lon="11.3305366"><ele>60.85714285714285</ele><time>2026-04-08T13:30:07.422Z</time></trkpt><trkpt lat="44.4976268" lon="11.33066"><ele>60.99999999999999</ele><time>2026-04-08T13:30:29.435Z</time></trkpt><trkpt lat="44.4976675" lon="11.3307661"><ele>60.99999999999999</ele><time>2026-04-08T13:30:33.433Z</time></trkpt><trkpt lat="44.4977515" lon="11.3307932"><ele>61.0</ele><time>2026-04-08T13:30:36.44Z</time></trkpt><trkpt lat="44.4977701" lon="11.3307032"><ele>61.0</ele><time>2026-04-08T13:30:38.426Z</time></trkpt><trkpt lat="44.4978298" lon="11.3306197"><ele>61.0</ele><time>2026-04-08T13:30:42.438Z</time></trkpt><trkpt lat="44.4978151" lon="11.3304783"><ele>60.99999999999999</ele><time>2026-04-08T13:30:45.432Z</time></trkpt><trkpt lat="44.4977646" lon="11.3303419"><ele>61.0</ele><time>2026-04-08T13:30:47.429Z</time></trkpt><trkpt lat="44.4977135" lon="11.330179"><ele>61.0</ele><time>2026-04-08T13:30:49.415Z</time></trkpt><trkpt lat="44.497671" lon="11.3300571"><ele>60.99999999999999</ele><time>2026-04-08T13:30:51.423Z</time></trkpt><trkpt lat="44.4976281" lon="11.3299734"><ele>60.99999999999999</ele><time>2026-04-08T13:30:53.427Z</time></trkpt><trkpt lat="44.4975848" lon="11.32986"><ele>61.0</ele><time>2026-04-08T13:30:55.417Z</time></trkpt><trkpt lat="44.4975466" lon="11.329728"><ele>61.0</ele><time>2026-04-08T13:30:57.416Z</time></trkpt><trkpt lat="44.4975148" lon="11.329562"><ele>60.99999999999999</ele><time>2026-04-08T13:30:59.437Z</time></trkpt><trkpt lat="44.4974914" lon="11.3294702"><ele>61.0</ele><time>2026-04-08T13:31:00.412Z</time></trkpt><trkpt lat="44.4974752" lon="11.3293788"><ele>60.99999999999999</ele><time>2026-04-08T13:31:01.407Z</time></trkpt><trkpt lat="44.4974641" lon="11.3292844"><ele>60.99999999999999</ele><time>2026-04-08T13:31:02.41Z</time></trkpt><trkpt lat="44.4974563" lon="11.3291887"><ele>61.0</ele><time>2026-04-08T13:31:03.407Z</time></trkpt><trkpt lat="44.4974187" lon="11.3290928"><ele>60.99999999999999</ele><time>2026-04-08T13:31:04.409Z</time></trkpt><trkpt lat="44.4973987" lon="11.3290014"><ele>60.99999999999999</ele><time>2026-04-08T13:31:05.417Z</time></trkpt><trkpt lat="44.4973806" lon="11.3289112"><ele>60.666666666666664</ele><time>2026-04-08T13:31:06.422Z</time></trkpt><trkpt lat="44.4973514" lon="11.3288245"><ele>60.33333333333333</ele><time>2026-04-08T13:31:07.418Z</time></trkpt><trkpt lat="44.497329" lon="11.3287377"><ele>60.0</ele><time>2026-04-08T13:31:08.419Z</time></trkpt><trkpt lat="44.4972989" lon="11.328642"><ele>59.66666666666667</ele><time>2026-04-08T13:31:09.42Z</time></trkpt><trkpt lat="44.4972748" lon="11.3285561"><ele>59.333333333333336</ele><time>2026-04-08T13:31:10.408Z</time></trkpt><trkpt lat="44.4972448" lon="11.3284261"><ele>59.0</ele><time>2026-04-08T13:31:12.647Z</time></trkpt><trkpt lat="44.4973041" lon="11.328315"><ele>59.0</ele><time>2026-04-08T13:31:19.426Z</time></trkpt><trkpt lat="44.4973943" lon="11.3282844"><ele>59.00000000000001</ele><time>2026-04-08T13:31:21.425Z</time></trkpt><trkpt lat="44.4974771" lon="11.3282394"><ele>59.00000000000001</ele><time>2026-04-08T13:31:23.435Z</time></trkpt><trkpt lat="44.49751" lon="11.3281361"><ele>59.0</ele><time>2026-04-08T13:31:25.412Z</time></trkpt><trkpt lat="44.4974816" lon="11.3280221"><ele>59.0</ele><time>2026-04-08T13:31:27.42Z</time></trkpt><trkpt lat="44.4974668" lon="11.3278692"><ele>58.50000000000001</ele><time>2026-04-08T13:31:31.464Z</time></trkpt><trkpt lat="44.4975291" lon="11.327813"><ele>58.0</ele><time>2026-04-08T13:31:32.449Z</time></trkpt><trkpt lat="44.4975908" lon="11.3277838"><ele>57.5</ele><time>2026-04-08T13:31:33.442Z</time></trkpt><trkpt lat="44.4976655" lon="11.3277481"><ele>57.0</ele><time>2026-04-08T13:31:34.415Z</time></trkpt><trkpt lat="44.4977507" lon="11.3277028"><ele>56.50000000000001</ele><time>2026-04-08T13:31:35.45Z</time></trkpt><trkpt lat="44.4978382" lon="11.3276671"><ele>56.0</ele><time>2026-04-08T13:31:36.425Z</time></trkpt><trkpt lat="44.4979173" lon="11.3276421"><ele>56.50000000000001</ele><time>2026-04-08T13:31:37.444Z</time></trkpt><trkpt lat="44.4979914" lon="11.3276118"><ele>57.0</ele><time>2026-04-08T13:31:38.446Z</time></trkpt><trkpt lat="44.4980748" lon="11.3275791"><ele>57.5</ele><time>2026-04-08T13:31:39.437Z</time></trkpt><trkpt lat="44.4981621" lon="11.3275364"><ele>58.0</ele><time>2026-04-08T13:31:40.426Z</time></trkpt><trkpt lat="44.4982486" lon="11.3274939"><ele>58.50000000000001</ele><time>2026-04-08T13:31:41.427Z</time></trkpt><trkpt lat="44.4983413" lon="11.3274548"><ele>59.0</ele><time>2026-04-08T13:31:42.437Z</time></trkpt><trkpt lat="44.4984376" lon="11.3274161"><ele>59.00000000000001</ele><time>2026-04-08T13:31:43.447Z</time></trkpt><trkpt lat="44.4985182" lon="11.3273829"><ele>59.0</ele><time>2026-04-08T13:31:44.436Z</time></trkpt><trkpt lat="44.4985924" lon="11.3273426"><ele>59.0</ele><time>2026-04-08T13:31:45.418Z</time></trkpt><trkpt lat="44.4986679" lon="11.3273104"><ele>59.0</ele><time>2026-04-08T13:31:46.432Z</time></trkpt><trkpt lat="44.498752" lon="11.327271"><ele>59.00000000000001</ele><time>2026-04-08T13:31:47.575Z</time></trkpt><trkpt lat="44.4988425" lon="11.3272243"><ele>59.0</ele><time>2026-04-08T13:31:48.45Z</time></trkpt><trkpt lat="44.4989306" lon="11.3271814"><ele>58.0</ele><time>2026-04-08T13:31:49.466Z</time></trkpt><trkpt lat="44.4990198" lon="11.3271443"><ele>57.0</ele><time>2026-04-08T13:31:50.736Z</time></trkpt><trkpt lat="44.4991934" lon="11.3270576"><ele>56.0</ele><time>2026-04-08T13:31:52.44Z</time></trkpt><trkpt lat="44.4992739" lon="11.3270083"><ele>55.0</ele><time>2026-04-08T13:31:53.439Z</time></trkpt><trkpt lat="44.4993555" lon="11.3269418"><ele>55.0</ele><time>2026-04-08T13:31:54.444Z</time></trkpt><trkpt lat="44.499425" lon="11.3268593"><ele>55.0</ele><time>2026-04-08T13:31:55.415Z</time></trkpt><trkpt lat="44.499481" lon="11.3267591"><ele>55.0</ele><time>2026-04-08T13:31:56.421Z</time></trkpt><trkpt lat="44.4995331" lon="11.3266499"><ele>55.0</ele><time>2026-04-08T13:31:57.416Z</time></trkpt><trkpt lat="44.4995844" lon="11.3265309"><ele>55.0</ele><time>2026-04-08T13:31:58.415Z</time></trkpt><trkpt lat="44.4996372" lon="11.3263936"><ele>55.25</ele><time>2026-04-08T13:31:59.415Z</time></trkpt><trkpt lat="44.499681" lon="11.326243"><ele>55.5</ele><time>2026-04-08T13:32:00.416Z</time></trkpt><trkpt lat="44.4997275" lon="11.3260797"><ele>55.75</ele><time>2026-04-08T13:32:01.42Z</time></trkpt><trkpt lat="44.4997809" lon="11.325899"><ele>56.0</ele><time>2026-04-08T13:32:02.404Z</time></trkpt><trkpt lat="44.4998452" lon="11.3257004"><ele>56.0</ele><time>2026-04-08T13:32:03.418Z</time></trkpt><trkpt lat="44.4998993" lon="11.3254377"><ele>56.0</ele><time>2026-04-08T13:32:04.414Z</time></trkpt><trkpt lat="44.4999458" lon="11.3252286"><ele>56.0</ele><time>2026-04-08T13:32:05.418Z</time></trkpt><trkpt lat="44.5000045" lon="11.325065"><ele>56.0</ele><time>2026-04-08T13:32:06.417Z</time></trkpt><trkpt lat="44.5000517" lon="11.324896"><ele>56.0</ele><time>2026-04-08T13:32:07.414Z</time></trkpt><trkpt lat="44.5001112" lon="11.3247091"><ele>56.0</ele><time>2026-04-08T13:32:08.411Z</time></trkpt><trkpt lat="44.5001618" lon="11.3244941"><ele>56.0</ele><time>2026-04-08T13:32:09.414Z</time></trkpt><trkpt lat="44.5002043" lon="11.3242855"><ele>56.0</ele><time>2026-04-08T13:32:10.408Z</time></trkpt><trkpt lat="44.5002599" lon="11.324131"><ele>56.0</ele><time>2026-04-08T13:32:11.413Z</time></trkpt><trkpt lat="44.5003182" lon="11.3240045"><ele>56.0</ele><time>2026-04-08T13:32:12.422Z</time></trkpt><trkpt lat="44.5003795" lon="11.3238609"><ele>56.0</ele><time>2026-04-08T13:32:13.407Z</time></trkpt><trkpt lat="44.5004284" lon="11.3236904"><ele>56.0</ele><time>2026-04-08T13:32:14.415Z</time></trkpt><trkpt lat="44.5004809" lon="11.3235541"><ele>55.99999999999999</ele><time>2026-04-08T13:32:15.41Z</time></trkpt><trkpt lat="44.5005386" lon="11.3234715"><ele>55.99999999999999</ele><time>2026-04-08T13:32:16.406Z</time></trkpt><trkpt lat="44.500621" lon="11.3234381"><ele>56.0</ele><time>2026-04-08T13:32:17.417Z</time></trkpt><trkpt lat="44.500689" lon="11.3233236"><ele>56.0</ele><time>2026-04-08T13:35:50.405Z</time></trkpt><trkpt lat="44.500717" lon="11.323224"><ele>56.0</ele><time>2026-04-08T13:35:51.418Z</time></trkpt><trkpt lat="44.5007486" lon="11.3231229"><ele>55.99999999999999</ele><time>2026-04-08T13:35:52.404Z</time></trkpt><trkpt lat="44.5007961" lon="11.3230013"><ele>55.99999999999999</ele><time>2026-04-08T13:35:53.406Z</time></trkpt><trkpt lat="44.5008359" lon="11.3228492"><ele>56.0</ele><time>2026-04-08T13:35:54.417Z</time></trkpt><trkpt lat="44.5008951" lon="11.3226954"><ele>56.0</ele><time>2026-04-08T13:35:55.405Z</time></trkpt><trkpt lat="44.5009809" lon="11.322543"><ele>56.0</ele><time>2026-04-08T13:35:56.411Z</time></trkpt><trkpt lat="44.5010567" lon="11.3223692"><ele>56.0</ele><time>2026-04-08T13:35:57.416Z</time></trkpt><trkpt lat="44.5011096" lon="11.3221938"><ele>56.0</ele><time>2026-04-08T13:35:58.413Z</time></trkpt><trkpt lat="44.501166" lon="11.3220266"><ele>56.0</ele><time>2026-04-08T13:35:59.492Z</time></trkpt><trkpt lat="44.5012194" lon="11.3218539"><ele>54.66666666666667</ele><time>2026-04-08T13:36:00.442Z</time></trkpt><trkpt lat="44.5012729" lon="11.3216742"><ele>53.33333333333333</ele><time>2026-04-08T13:36:01.409Z</time></trkpt><trkpt lat="44.5013299" lon="11.3214814"><ele>52.0</ele><time>2026-04-08T13:36:02.414Z</time></trkpt><trkpt lat="44.501375" lon="11.321231"><ele>51.0</ele><time>2026-04-08T13:36:03.416Z</time></trkpt><trkpt lat="44.5014196" lon="11.3210058"><ele>50.0</ele><time>2026-04-08T13:36:04.407Z</time></trkpt><trkpt lat="44.5015009" lon="11.3208189"><ele>49.0</ele><time>2026-04-08T13:36:05.416Z</time></trkpt><trkpt lat="44.5015917" lon="11.3206455"><ele>49.6</ele><time>2026-04-08T13:36:06.415Z</time></trkpt><trkpt lat="44.501695" lon="11.320528"><ele>50.2</ele><time>2026-04-08T13:36:07.413Z</time></trkpt><trkpt lat="44.5017607" lon="11.3204037"><ele>50.800000000000004</ele><time>2026-04-08T13:36:08.424Z</time></trkpt><trkpt lat="44.5017669" lon="11.3202677"><ele>51.400000000000006</ele><time>2026-04-08T13:36:09.409Z</time></trkpt><trkpt lat="44.501801" lon="11.3201408"><ele>52.0</ele><time>2026-04-08T13:36:10.419Z</time></trkpt><trkpt lat="44.5018354" lon="11.319995"><ele>52.0</ele><time>2026-04-08T13:36:11.423Z</time></trkpt><trkpt lat="44.5018769" lon="11.3198415"><ele>52.0</ele><time>2026-04-08T13:36:12.413Z</time></trkpt><trkpt lat="44.5019146" lon="11.319711"><ele>52.0</ele><time>2026-04-08T13:36:13.411Z</time></trkpt><trkpt lat="44.5019448" lon="11.3196176"><ele>52.0</ele><time>2026-04-08T13:36:14.418Z</time></trkpt><trkpt lat="44.5019573" lon="11.3195176"><ele>52.0</ele><time>2026-04-08T13:36:18.416Z</time></trkpt><trkpt lat="44.502" lon="11.3193866"><ele>52.49999999999999</ele><time>2026-04-08T13:36:21.416Z</time></trkpt><trkpt lat="44.5020427" lon="11.3193191"><ele>53.0</ele><time>2026-04-08T13:36:23.421Z</time></trkpt><trkpt lat="44.5020995" lon="11.3192457"><ele>53.5</ele><time>2026-04-08T13:36:26.426Z</time></trkpt><trkpt lat="44.5021422" lon="11.3191802"><ele>54.0</ele><time>2026-04-08T13:36:30.425Z</time></trkpt><trkpt lat="44.5021932" lon="11.3190867"><ele>54.49999999999999</ele><time>2026-04-08T13:37:04.425Z</time></trkpt><trkpt lat="44.5022551" lon="11.318914"><ele>55.0</ele><time>2026-04-08T13:37:06.427Z</time></trkpt><trkpt lat="44.5022966" lon="11.3188066"><ele>52.75</ele><time>2026-04-08T13:37:07.423Z</time></trkpt><trkpt lat="44.5023428" lon="11.3186778"><ele>50.5</ele><time>2026-04-08T13:37:08.424Z</time></trkpt><trkpt lat="44.5023919" lon="11.3185268"><ele>48.25</ele><time>2026-04-08T13:37:09.432Z</time></trkpt><trkpt lat="44.5024567" lon="11.3183383"><ele>46.0</ele><time>2026-04-08T13:37:10.423Z</time></trkpt><trkpt lat="44.5025226" lon="11.3181399"><ele>46.0</ele><time>2026-04-08T13:37:11.427Z</time></trkpt><trkpt lat="44.5025853" lon="11.3179403"><ele>46.0</ele><time>2026-04-08T13:37:12.427Z</time></trkpt><trkpt lat="44.5026503" lon="11.3177381"><ele>46.0</ele><time>2026-04-08T13:37:13.417Z</time></trkpt><trkpt lat="44.502718" lon="11.3175185"><ele>46.0</ele><time>2026-04-08T13:37:14.419Z</time></trkpt><trkpt lat="44.5027956" lon="11.3173259"><ele>46.0</ele><time>2026-04-08T13:37:15.419Z</time></trkpt><trkpt lat="44.5028788" lon="11.3171339"><ele>46.0</ele><time>2026-04-08T13:37:16.422Z</time></trkpt><trkpt lat="44.5029499" lon="11.3169502"><ele>45.75</ele><time>2026-04-08T13:37:17.424Z</time></trkpt><trkpt lat="44.5030197" lon="11.3167745"><ele>45.5</ele><time>2026-04-08T13:37:18.424Z</time></trkpt><trkpt lat="44.50308" lon="11.316605"><ele>45.25</ele><time>2026-04-08T13:37:19.426Z</time></trkpt><trkpt lat="44.5031312" lon="11.3164456"><ele>45.0</ele><time>2026-04-08T13:37:20.424Z</time></trkpt><trkpt lat="44.5031761" lon="11.3162835"><ele>45.0</ele><time>2026-04-08T13:37:21.437Z</time></trkpt><trkpt lat="44.503223" lon="11.316113"><ele>45.0</ele><time>2026-04-08T13:37:22.42Z</time></trkpt><trkpt lat="44.5032862" lon="11.3159383"><ele>45.0</ele><time>2026-04-08T13:37:23.432Z</time></trkpt><trkpt lat="44.5033557" lon="11.3157659"><ele>45.0</ele><time>2026-04-08T13:37:24.43Z</time></trkpt><trkpt lat="44.5034184" lon="11.3155818"><ele>45.666666666666664</ele><time>2026-04-08T13:37:25.424Z</time></trkpt><trkpt lat="44.5034899" lon="11.3153763"><ele>46.33333333333333</ele><time>2026-04-08T13:37:26.431Z</time></trkpt><trkpt lat="44.5035711" lon="11.3151601"><ele>47.0</ele><time>2026-04-08T13:37:27.428Z</time></trkpt><trkpt lat="44.503648" lon="11.3149698"><ele>47.0</ele><time>2026-04-08T13:37:28.431Z</time></trkpt><trkpt lat="44.5037265" lon="11.3147879"><ele>47.0</ele><time>2026-04-08T13:37:29.431Z</time></trkpt><trkpt lat="44.5037903" lon="11.3146215"><ele>47.0</ele><time>2026-04-08T13:37:30.426Z</time></trkpt><trkpt lat="44.5038642" lon="11.3144698"><ele>47.0</ele><time>2026-04-08T13:37:31.418Z</time></trkpt><trkpt lat="44.5038828" lon="11.3143275"><ele>47.0</ele><time>2026-04-08T13:37:32.418Z</time></trkpt><trkpt lat="44.5039368" lon="11.3142034"><ele>47.0</ele><time>2026-04-08T13:37:33.415Z</time></trkpt><trkpt lat="44.5039665" lon="11.3140765"><ele>47.0</ele><time>2026-04-08T13:37:34.411Z</time></trkpt><trkpt lat="44.5039855" lon="11.3139696"><ele>47.0</ele><time>2026-04-08T13:37:35.419Z</time></trkpt><trkpt lat="44.5040145" lon="11.3138674"><ele>47.0</ele><time>2026-04-08T13:37:36.415Z</time></trkpt><trkpt lat="44.5040492" lon="11.3137654"><ele>47.0</ele><time>2026-04-08T13:37:37.415Z</time></trkpt><trkpt lat="44.504081" lon="11.3136681"><ele>47.0</ele><time>2026-04-08T13:37:38.413Z</time></trkpt><trkpt lat="44.5041068" lon="11.313527"><ele>47.0</ele><time>2026-04-08T13:37:40.412Z</time></trkpt><trkpt lat="44.5040789" lon="11.3134047"><ele>47.0</ele><time>2026-04-08T13:37:42.405Z</time></trkpt><trkpt lat="44.5039569" lon="11.3133258"><ele>47.0</ele><time>2026-04-08T13:37:44.413Z</time></trkpt><trkpt lat="44.5038743" lon="11.3132756"><ele>47.0</ele><time>2026-04-08T13:37:45.41Z</time></trkpt><trkpt lat="44.5038091" lon="11.3132374"><ele>47.0</ele><time>2026-04-08T13:37:46.406Z</time></trkpt><trkpt lat="44.5037486" lon="11.3132087"><ele>47.0</ele><time>2026-04-08T13:37:47.416Z</time></trkpt><trkpt lat="44.503693" lon="11.3131655"><ele>47.0</ele><time>2026-04-08T13:37:48.407Z</time></trkpt><trkpt lat="44.5035919" lon="11.3130738"><ele>47.0</ele><time>2026-04-08T13:37:50.417Z</time></trkpt><trkpt lat="44.5035261" lon="11.3130192"><ele>47.0</ele><time>2026-04-08T13:37:51.419Z</time></trkpt><trkpt lat="44.5034445" lon="11.3129621"><ele>47.0</ele><time>2026-04-08T13:37:52.414Z</time></trkpt><trkpt lat="44.5033585" lon="11.3128984"><ele>47.0</ele><time>2026-04-08T13:37:53.421Z</time></trkpt><trkpt lat="44.5032654" lon="11.3128287"><ele>47.0</ele><time>2026-04-08T13:37:54.416Z</time></trkpt><trkpt lat="44.5031664" lon="11.3127556"><ele>47.0</ele><time>2026-04-08T13:37:55.418Z</time></trkpt><trkpt lat="44.503072" lon="11.3126933"><ele>47.0</ele><time>2026-04-08T13:37:56.423Z</time></trkpt><trkpt lat="44.502996" lon="11.3126315"><ele>47.0</ele><time>2026-04-08T13:37:57.416Z</time></trkpt><trkpt lat="44.5029286" lon="11.3125685"><ele>47.2</ele><time>2026-04-08T13:37:58.422Z</time></trkpt><trkpt lat="44.5028528" lon="11.3125241"><ele>47.400000000000006</ele><time>2026-04-08T13:37:59.417Z</time></trkpt><trkpt lat="44.5027831" lon="11.3124883"><ele>47.599999999999994</ele><time>2026-04-08T13:38:00.415Z</time></trkpt><trkpt lat="44.5027098" lon="11.3124326"><ele>47.8</ele><time>2026-04-08T13:38:02.411Z</time></trkpt><trkpt lat="44.5025793" lon="11.3123421"><ele>48.0</ele><time>2026-04-08T13:38:04.416Z</time></trkpt><trkpt lat="44.5024886" lon="11.3122818"><ele>48.0</ele><time>2026-04-08T13:38:05.501Z</time></trkpt><trkpt lat="44.5024094" lon="11.3122169"><ele>48.0</ele><time>2026-04-08T13:38:06.436Z</time></trkpt><trkpt lat="44.5023257" lon="11.3121693"><ele>48.0</ele><time>2026-04-08T13:38:07.439Z</time></trkpt><trkpt lat="44.5022418" lon="11.3121199"><ele>48.0</ele><time>2026-04-08T13:38:08.435Z</time></trkpt><trkpt lat="44.502153" lon="11.3120689"><ele>48.0</ele><time>2026-04-08T13:38:09.441Z</time></trkpt><trkpt lat="44.502056" lon="11.3120154"><ele>48.166666666666664</ele><time>2026-04-08T13:38:10.436Z</time></trkpt><trkpt lat="44.5019641" lon="11.3119596"><ele>48.33333333333333</ele><time>2026-04-08T13:38:11.423Z</time></trkpt><trkpt lat="44.5018837" lon="11.3119084"><ele>48.5</ele><time>2026-04-08T13:38:12.418Z</time></trkpt><trkpt lat="44.5018154" lon="11.3118663"><ele>48.666666666666664</ele><time>2026-04-08T13:38:13.419Z</time></trkpt><trkpt lat="44.5017545" lon="11.3118286"><ele>48.83333333333333</ele><time>2026-04-08T13:38:14.416Z</time></trkpt><trkpt lat="44.5016883" lon="11.3117893"><ele>49.0</ele><time>2026-04-08T13:38:15.422Z</time></trkpt><trkpt lat="44.5016111" lon="11.3117308"><ele>49.0</ele><time>2026-04-08T13:38:16.417Z</time></trkpt><trkpt lat="44.5015378" lon="11.3116717"><ele>49.0</ele><time>2026-04-08T13:38:17.425Z</time></trkpt><trkpt lat="44.5014534" lon="11.3116002"><ele>49.0</ele><time>2026-04-08T13:38:18.422Z</time></trkpt><trkpt lat="44.5013643" lon="11.3115259"><ele>49.0</ele><time>2026-04-08T13:38:19.42Z</time></trkpt><trkpt lat="44.5012724" lon="11.3114574"><ele>49.0</ele><time>2026-04-08T13:38:20.421Z</time></trkpt><trkpt lat="44.5011923" lon="11.3114041"><ele>49.42857142857143</ele><time>2026-04-08T13:38:21.423Z</time></trkpt><trkpt lat="44.5011223" lon="11.3113587"><ele>49.85714285714286</ele><time>2026-04-08T13:38:22.42Z</time></trkpt><trkpt lat="44.5010649" lon="11.3113097"><ele>50.285714285714285</ele><time>2026-04-08T13:38:23.424Z</time></trkpt><trkpt lat="44.5009828" lon="11.3112508"><ele>50.714285714285715</ele><time>2026-04-08T13:38:25.424Z</time></trkpt><trkpt lat="44.5009251" lon="11.3112103"><ele>51.142857142857146</ele><time>2026-04-08T13:38:27.424Z</time></trkpt><trkpt lat="44.5008642" lon="11.3111715"><ele>51.57142857142857</ele><time>2026-04-08T13:38:30.429Z</time></trkpt><trkpt lat="44.5007957" lon="11.3111796"><ele>52.0</ele><time>2026-04-08T13:39:00.419Z</time></trkpt><trkpt lat="44.5007112" lon="11.3111253"><ele>51.99999999999999</ele><time>2026-04-08T13:39:03.417Z</time></trkpt><trkpt lat="44.5006479" lon="11.3110684"><ele>52.0</ele><time>2026-04-08T13:39:04.424Z</time></trkpt><trkpt lat="44.500579" lon="11.3110079"><ele>52.0</ele><time>2026-04-08T13:39:05.419Z</time></trkpt><trkpt lat="44.5005059" lon="11.3109555"><ele>52.0</ele><time>2026-04-08T13:39:06.421Z</time></trkpt><trkpt lat="44.5004392" lon="11.3109046"><ele>51.99999999999999</ele><time>2026-04-08T13:39:07.426Z</time></trkpt><trkpt lat="44.5003741" lon="11.3108472"><ele>52.0</ele><time>2026-04-08T13:39:08.431Z</time></trkpt><trkpt lat="44.5002948" lon="11.3107944"><ele>51.33333333333333</ele><time>2026-04-08T13:39:09.418Z</time></trkpt><trkpt lat="44.5002244" lon="11.3107434"><ele>50.666666666666664</ele><time>2026-04-08T13:39:10.428Z</time></trkpt><trkpt lat="44.5001144" lon="11.3106881"><ele>50.0</ele><time>2026-04-08T13:39:12.428Z</time></trkpt><trkpt lat="44.5000564" lon="11.3106413"><ele>49.33333333333333</ele><time>2026-04-08T13:39:13.43Z</time></trkpt><trkpt lat="44.4999906" lon="11.3105941"><ele>48.666666666666664</ele><time>2026-04-08T13:39:14.424Z</time></trkpt><trkpt lat="44.4999179" lon="11.3105417"><ele>48.0</ele><time>2026-04-08T13:39:15.425Z</time></trkpt><trkpt lat="44.4998377" lon="11.3104846"><ele>48.0</ele><time>2026-04-08T13:39:16.428Z</time></trkpt><trkpt lat="44.4997548" lon="11.3104111"><ele>48.0</ele><time>2026-04-08T13:39:17.431Z</time></trkpt><trkpt lat="44.4996794" lon="11.3103459"><ele>48.0</ele><time>2026-04-08T13:39:18.426Z</time></trkpt><trkpt lat="44.4996117" lon="11.3102896"><ele>48.0</ele><time>2026-04-08T13:39:19.429Z</time></trkpt><trkpt lat="44.4995526" lon="11.3102272"><ele>48.0</ele><time>2026-04-08T13:39:20.431Z</time></trkpt><trkpt lat="44.4994945" lon="11.3101528"><ele>48.0</ele><time>2026-04-08T13:39:21.425Z</time></trkpt><trkpt lat="44.4994503" lon="11.3100689"><ele>47.8</ele><time>2026-04-08T13:39:22.426Z</time></trkpt><trkpt lat="44.4993896" lon="11.3099158"><ele>47.599999999999994</ele><time>2026-04-08T13:39:24.427Z</time></trkpt><trkpt lat="44.4993693" lon="11.3098197"><ele>47.400000000000006</ele><time>2026-04-08T13:39:25.424Z</time></trkpt><trkpt lat="44.4993351" lon="11.3097208"><ele>47.2</ele><time>2026-04-08T13:39:26.423Z</time></trkpt><trkpt lat="44.4992853" lon="11.3096372"><ele>47.0</ele><time>2026-04-08T13:39:27.429Z</time></trkpt><trkpt lat="44.499215" lon="11.3095226"><ele>47.0</ele><time>2026-04-08T13:39:29.432Z</time></trkpt><trkpt lat="44.4991626" lon="11.3094216"><ele>47.0</ele><time>2026-04-08T13:39:31.428Z</time></trkpt><trkpt lat="44.4991281" lon="11.3092871"><ele>47.0</ele><time>2026-04-08T13:39:33.428Z</time></trkpt><trkpt lat="44.4991211" lon="11.3091005"><ele>47.0</ele><time>2026-04-08T13:39:35.431Z</time></trkpt><trkpt lat="44.4991232" lon="11.3089803"><ele>47.0</ele><time>2026-04-08T13:39:36.447Z</time></trkpt><trkpt lat="44.4991431" lon="11.3088284"><ele>46.75</ele><time>2026-04-08T13:39:37.449Z</time></trkpt><trkpt lat="44.4991829" lon="11.3086642"><ele>46.5</ele><time>2026-04-08T13:39:38.423Z</time></trkpt><trkpt lat="44.4992324" lon="11.3084791"><ele>46.25</ele><time>2026-04-08T13:39:39.447Z</time></trkpt><trkpt lat="44.4992782" lon="11.3082902"><ele>46.0</ele><time>2026-04-08T13:39:40.427Z</time></trkpt><trkpt lat="44.4993246" lon="11.3080968"><ele>45.66666666666667</ele><time>2026-04-08T13:39:41.432Z</time></trkpt><trkpt lat="44.4993762" lon="11.3078691"><ele>45.333333333333336</ele><time>2026-04-08T13:39:42.429Z</time></trkpt><trkpt lat="44.499429" lon="11.3076498"><ele>45.0</ele><time>2026-04-08T13:39:43.432Z</time></trkpt><trkpt lat="44.4994815" lon="11.307421"><ele>44.75</ele><time>2026-04-08T13:39:44.437Z</time></trkpt><trkpt lat="44.4995429" lon="11.3072338"><ele>44.5</ele><time>2026-04-08T13:39:45.425Z</time></trkpt><trkpt lat="44.4995956" lon="11.3070649"><ele>44.25</ele><time>2026-04-08T13:39:46.43Z</time></trkpt><trkpt lat="44.4996633" lon="11.3068729"><ele>44.0</ele><time>2026-04-08T13:39:47.431Z</time></trkpt><trkpt lat="44.4997127" lon="11.3067285"><ele>44.5</ele><time>2026-04-08T13:39:48.425Z</time></trkpt><trkpt lat="44.4997907" lon="11.3066028"><ele>45.0</ele><time>2026-04-08T13:39:49.422Z</time></trkpt><trkpt lat="44.4998846" lon="11.3064916"><ele>45.5</ele><time>2026-04-08T13:39:50.426Z</time></trkpt><trkpt lat="44.4999944" lon="11.3063937"><ele>46.0</ele><time>2026-04-08T13:39:51.42Z</time></trkpt><trkpt lat="44.5001214" lon="11.3063293"><ele>46.0</ele><time>2026-04-08T13:39:52.423Z</time></trkpt><trkpt lat="44.5002568" lon="11.3062827"><ele>46.0</ele><time>2026-04-08T13:39:53.426Z</time></trkpt><trkpt lat="44.500401" lon="11.3062544"><ele>46.0</ele><time>2026-04-08T13:39:54.425Z</time></trkpt><trkpt lat="44.500551" lon="11.3062329"><ele>46.0</ele><time>2026-04-08T13:39:55.422Z</time></trkpt><trkpt lat="44.5007329" lon="11.30619"><ele>45.66666666666667</ele><time>2026-04-08T13:39:56.427Z</time></trkpt><trkpt lat="44.5008893" lon="11.3061136"><ele>45.333333333333336</ele><time>2026-04-08T13:39:57.429Z</time></trkpt><trkpt lat="44.5010485" lon="11.305991"><ele>45.0</ele><time>2026-04-08T13:39:58.428Z</time></trkpt><trkpt lat="44.5011712" lon="11.3058437"><ele>45.0</ele><time>2026-04-08T13:39:59.421Z</time></trkpt><trkpt lat="44.5012661" lon="11.3056916"><ele>45.0</ele><time>2026-04-08T13:40:00.43Z</time></trkpt><trkpt lat="44.5013444" lon="11.3055279"><ele>45.0</ele><time>2026-04-08T13:40:01.42Z</time></trkpt><trkpt lat="44.5014214" lon="11.3053414"><ele>45.0</ele><time>2026-04-08T13:40:02.424Z</time></trkpt><trkpt lat="44.5014631" lon="11.3051424"><ele>45.666666666666664</ele><time>2026-04-08T13:40:03.421Z</time></trkpt><trkpt lat="44.5014642" lon="11.3049107"><ele>46.33333333333333</ele><time>2026-04-08T13:40:04.431Z</time></trkpt><trkpt lat="44.5014273" lon="11.3046863"><ele>47.0</ele><time>2026-04-08T13:40:05.428Z</time></trkpt><trkpt lat="44.5013954" lon="11.3044501"><ele>47.0</ele><time>2026-04-08T13:40:06.434Z</time></trkpt><trkpt lat="44.5013585" lon="11.3042068"><ele>47.0</ele><time>2026-04-08T13:40:07.424Z</time></trkpt><trkpt lat="44.5012956" lon="11.3039814"><ele>47.0</ele><time>2026-04-08T13:40:08.421Z</time></trkpt><trkpt lat="44.5012024" lon="11.3038068"><ele>47.0</ele><time>2026-04-08T13:40:09.423Z</time></trkpt><trkpt lat="44.5010971" lon="11.3036347"><ele>47.0</ele><time>2026-04-08T13:40:10.424Z</time></trkpt><trkpt lat="44.5009832" lon="11.3035596"><ele>47.0</ele><time>2026-04-08T13:40:11.426Z</time></trkpt><trkpt lat="44.5008823" lon="11.3035274"><ele>47.0</ele><time>2026-04-08T13:40:12.413Z</time></trkpt><trkpt lat="44.5007791" lon="11.3035071"><ele>47.0</ele><time>2026-04-08T13:40:13.423Z</time></trkpt><trkpt lat="44.500678" lon="11.3034977"><ele>47.0</ele><time>2026-04-08T13:40:14.418Z</time></trkpt><trkpt lat="44.5005713" lon="11.3035029"><ele>47.0</ele><time>2026-04-08T13:40:15.416Z</time></trkpt><trkpt lat="44.5004641" lon="11.3035321"><ele>47.0</ele><time>2026-04-08T13:40:16.421Z</time></trkpt><trkpt lat="44.5003773" lon="11.3035666"><ele>47.0</ele><time>2026-04-08T13:40:17.424Z</time></trkpt><trkpt lat="44.5002828" lon="11.3035614"><ele>46.5</ele><time>2026-04-08T13:40:18.428Z</time></trkpt><trkpt lat="44.5001871" lon="11.3035122"><ele>46.0</ele><time>2026-04-08T13:40:19.419Z</time></trkpt><trkpt lat="44.5000798" lon="11.3034263"><ele>45.5</ele><time>2026-04-08T13:40:20.425Z</time></trkpt><trkpt lat="44.4999761" lon="11.3032934"><ele>45.0</ele><time>2026-04-08T13:40:21.419Z</time></trkpt><trkpt lat="44.4998848" lon="11.3031103"><ele>45.0</ele><time>2026-04-08T13:40:22.424Z</time></trkpt><trkpt lat="44.4997798" lon="11.3028468"><ele>45.0</ele><time>2026-04-08T13:40:23.425Z</time></trkpt><trkpt lat="44.4996694" lon="11.3026019"><ele>45.0</ele><time>2026-04-08T13:40:24.425Z</time></trkpt><trkpt lat="44.4995633" lon="11.302394"><ele>45.333333333333336</ele><time>2026-04-08T13:40:25.431Z</time></trkpt><trkpt lat="44.499438" lon="11.3022115"><ele>45.66666666666667</ele><time>2026-04-08T13:40:26.417Z</time></trkpt><trkpt lat="44.4993031" lon="11.3020574"><ele>46.0</ele><time>2026-04-08T13:40:27.432Z</time></trkpt><trkpt lat="44.4991737" lon="11.3018698"><ele>46.0</ele><time>2026-04-08T13:40:28.421Z</time></trkpt><trkpt lat="44.4990414" lon="11.3016579"><ele>46.0</ele><time>2026-04-08T13:40:29.513Z</time></trkpt><trkpt lat="44.4988995" lon="11.3014276"><ele>46.0</ele><time>2026-04-08T13:40:30.447Z</time></trkpt><trkpt lat="44.4987451" lon="11.3011736"><ele>46.5</ele><time>2026-04-08T13:40:31.472Z</time></trkpt><trkpt lat="44.4985768" lon="11.3009528"><ele>47.0</ele><time>2026-04-08T13:40:32.426Z</time></trkpt><trkpt lat="44.4983962" lon="11.3007275"><ele>47.0</ele><time>2026-04-08T13:40:33.419Z</time></trkpt><trkpt lat="44.4982434" lon="11.3004644"><ele>47.0</ele><time>2026-04-08T13:40:34.423Z</time></trkpt><trkpt lat="44.4981012" lon="11.3001854"><ele>47.0</ele><time>2026-04-08T13:40:35.441Z</time></trkpt><trkpt lat="44.4979573" lon="11.2998898"><ele>47.0</ele><time>2026-04-08T13:40:36.419Z</time></trkpt><trkpt lat="44.4978022" lon="11.299606"><ele>47.5</ele><time>2026-04-08T13:40:37.441Z</time></trkpt><trkpt lat="44.4976354" lon="11.2993257"><ele>48.0</ele><time>2026-04-08T13:40:38.428Z</time></trkpt><trkpt lat="44.4974645" lon="11.2990489"><ele>47.0</ele><time>2026-04-08T13:40:39.432Z</time></trkpt><trkpt lat="44.4972842" lon="11.2987745"><ele>46.0</ele><time>2026-04-08T13:40:40.438Z</time></trkpt><trkpt lat="44.4970926" lon="11.2985049"><ele>46.0</ele><time>2026-04-08T13:40:41.435Z</time></trkpt><trkpt lat="44.496898" lon="11.2982677"><ele>46.0</ele><time>2026-04-08T13:40:42.422Z</time></trkpt><trkpt lat="44.4967182" lon="11.2980407"><ele>48.0</ele><time>2026-04-08T13:40:43.434Z</time></trkpt><trkpt lat="44.496529" lon="11.2978264"><ele>50.0</ele><time>2026-04-08T13:40:44.436Z</time></trkpt><trkpt lat="44.4963353" lon="11.2976141"><ele>49.0</ele><time>2026-04-08T13:40:45.426Z</time></trkpt><trkpt lat="44.4961506" lon="11.2973778"><ele>48.0</ele><time>2026-04-08T13:40:46.441Z</time></trkpt><trkpt lat="44.4959493" lon="11.2971324"><ele>48.0</ele><time>2026-04-08T13:40:47.433Z</time></trkpt><trkpt lat="44.495748" lon="11.2968838"><ele>48.0</ele><time>2026-04-08T13:40:48.43Z</time></trkpt><trkpt lat="44.4955571" lon="11.296665"><ele>48.0</ele><time>2026-04-08T13:40:49.429Z</time></trkpt><trkpt lat="44.495368" lon="11.2964571"><ele>48.0</ele><time>2026-04-08T13:40:50.428Z</time></trkpt><trkpt lat="44.4951966" lon="11.2962676"><ele>48.0</ele><time>2026-04-08T13:40:51.428Z</time></trkpt><trkpt lat="44.4950371" lon="11.2960907"><ele>48.0</ele><time>2026-04-08T13:40:52.432Z</time></trkpt><trkpt lat="44.4948788" lon="11.295899"><ele>48.0</ele><time>2026-04-08T13:40:53.432Z</time></trkpt><trkpt lat="44.4947184" lon="11.2956933"><ele>48.0</ele><time>2026-04-08T13:40:54.428Z</time></trkpt><trkpt lat="44.4945513" lon="11.2954781"><ele>48.0</ele><time>2026-04-08T13:40:55.437Z</time></trkpt><trkpt lat="44.4943785" lon="11.2952679"><ele>48.0</ele><time>2026-04-08T13:40:56.42Z</time></trkpt><trkpt lat="44.4942058" lon="11.2950466"><ele>48.0</ele><time>2026-04-08T13:40:57.443Z</time></trkpt><trkpt lat="44.4940304" lon="11.2948083"><ele>48.0</ele><time>2026-04-08T13:40:58.438Z</time></trkpt><trkpt lat="44.4938672" lon="11.294552"><ele>48.0</ele><time>2026-04-08T13:40:59.437Z</time></trkpt><trkpt lat="44.4937104" lon="11.2942959"><ele>48.0</ele><time>2026-04-08T13:41:00.435Z</time></trkpt><trkpt lat="44.4935501" lon="11.2940321"><ele>48.0</ele><time>2026-04-08T13:41:01.441Z</time></trkpt><trkpt lat="44.4934031" lon="11.2937674"><ele>50.0</ele><time>2026-04-08T13:41:02.441Z</time></trkpt><trkpt lat="44.4932722" lon="11.2934821"><ele>52.0</ele><time>2026-04-08T13:41:03.435Z</time></trkpt><trkpt lat="44.4931554" lon="11.29319"><ele>51.0</ele><time>2026-04-08T13:41:04.439Z</time></trkpt><trkpt lat="44.4930355" lon="11.2928755"><ele>50.0</ele><time>2026-04-08T13:41:05.438Z</time></trkpt><trkpt lat="44.4929146" lon="11.2925492"><ele>50.5</ele><time>2026-04-08T13:41:06.455Z</time></trkpt><trkpt lat="44.4927946" lon="11.2922307"><ele>51.0</ele><time>2026-04-08T13:41:07.458Z</time></trkpt><trkpt lat="44.4926776" lon="11.2919183"><ele>51.0</ele><time>2026-04-08T13:41:08.427Z</time></trkpt><trkpt lat="44.4925775" lon="11.2915861"><ele>51.0</ele><time>2026-04-08T13:41:09.45Z</time></trkpt><trkpt lat="44.4924915" lon="11.2912376"><ele>51.0</ele><time>2026-04-08T13:41:10.428Z</time></trkpt><trkpt lat="44.4923947" lon="11.2908807"><ele>51.0</ele><time>2026-04-08T13:41:11.431Z</time></trkpt><trkpt lat="44.4923097" lon="11.2905415"><ele>51.0</ele><time>2026-04-08T13:41:12.427Z</time></trkpt><trkpt lat="44.4922337" lon="11.2901917"><ele>51.0</ele><time>2026-04-08T13:41:13.432Z</time></trkpt><trkpt lat="44.4921641" lon="11.2898412"><ele>49.0</ele><time>2026-04-08T13:41:14.427Z</time></trkpt><trkpt lat="44.4920511" lon="11.2894969"><ele>47.0</ele><time>2026-04-08T13:41:15.427Z</time></trkpt><trkpt lat="44.4919303" lon="11.2891553"><ele>47.5</ele><time>2026-04-08T13:41:16.433Z</time></trkpt><trkpt lat="44.4918317" lon="11.2888175"><ele>48.0</ele><time>2026-04-08T13:41:17.436Z</time></trkpt><trkpt lat="44.4917369" lon="11.2884822"><ele>48.0</ele><time>2026-04-08T13:41:18.424Z</time></trkpt><trkpt lat="44.4916389" lon="11.2881339"><ele>48.0</ele><time>2026-04-08T13:41:19.439Z</time></trkpt><trkpt lat="44.4915387" lon="11.2877961"><ele>48.5</ele><time>2026-04-08T13:41:20.435Z</time></trkpt><trkpt lat="44.4914444" lon="11.2874502"><ele>49.0</ele><time>2026-04-08T13:41:21.424Z</time></trkpt><trkpt lat="44.4913344" lon="11.2870779"><ele>50.0</ele><time>2026-04-08T13:41:22.438Z</time></trkpt><trkpt lat="44.4912436" lon="11.2867212"><ele>51.0</ele><time>2026-04-08T13:41:23.431Z</time></trkpt><trkpt lat="44.4911459" lon="11.2863889"><ele>51.0</ele><time>2026-04-08T13:41:24.432Z</time></trkpt><trkpt lat="44.4910667" lon="11.2860372"><ele>51.0</ele><time>2026-04-08T13:41:25.428Z</time></trkpt><trkpt lat="44.4909807" lon="11.28569"><ele>50.0</ele><time>2026-04-08T13:41:26.435Z</time></trkpt><trkpt lat="44.4908796" lon="11.2853427"><ele>49.0</ele><time>2026-04-08T13:41:27.43Z</time></trkpt><trkpt lat="44.4907741" lon="11.284982"><ele>49.5</ele><time>2026-04-08T13:41:28.433Z</time></trkpt><trkpt lat="44.4906732" lon="11.2846438"><ele>50.0</ele><time>2026-04-08T13:41:29.434Z</time></trkpt><trkpt lat="44.4905754" lon="11.2843239"><ele>50.0</ele><time>2026-04-08T13:41:30.433Z</time></trkpt><trkpt lat="44.4904905" lon="11.2840129"><ele>50.0</ele><time>2026-04-08T13:41:31.434Z</time></trkpt><trkpt lat="44.4903956" lon="11.2837097"><ele>49.5</ele><time>2026-04-08T13:41:32.428Z</time></trkpt><trkpt lat="44.4902539" lon="11.2834003"><ele>49.0</ele><time>2026-04-08T13:41:33.438Z</time></trkpt><trkpt lat="44.4901127" lon="11.2831075"><ele>48.5</ele><time>2026-04-08T13:41:34.431Z</time></trkpt><trkpt lat="44.4899819" lon="11.2828066"><ele>48.0</ele><time>2026-04-08T13:41:35.439Z</time></trkpt><trkpt lat="44.4898438" lon="11.2824913"><ele>47.0</ele><time>2026-04-08T13:41:36.43Z</time></trkpt><trkpt lat="44.4896682" lon="11.2821814"><ele>46.0</ele><time>2026-04-08T13:41:37.438Z</time></trkpt><trkpt lat="44.489489" lon="11.2818618"><ele>46.0</ele><time>2026-04-08T13:41:38.44Z</time></trkpt><trkpt lat="44.4893189" lon="11.2815431"><ele>46.0</ele><time>2026-04-08T13:41:39.433Z</time></trkpt><trkpt lat="44.4891593" lon="11.2812415"><ele>46.5</ele><time>2026-04-08T13:41:40.435Z</time></trkpt><trkpt lat="44.4890124" lon="11.2809663"><ele>47.0</ele><time>2026-04-08T13:41:41.433Z</time></trkpt><trkpt lat="44.4888788" lon="11.280717"><ele>48.33333333333333</ele><time>2026-04-08T13:41:42.448Z</time></trkpt><trkpt lat="44.4887553" lon="11.2804657"><ele>49.666666666666664</ele><time>2026-04-08T13:41:43.453Z</time></trkpt><trkpt lat="44.4886374" lon="11.2802141"><ele>51.0</ele><time>2026-04-08T13:41:44.46Z</time></trkpt><trkpt lat="44.4885293" lon="11.2799485"><ele>51.66666666666667</ele><time>2026-04-08T13:41:45.448Z</time></trkpt><trkpt lat="44.488442" lon="11.2796868"><ele>52.333333333333336</ele><time>2026-04-08T13:41:46.426Z</time></trkpt><trkpt lat="44.4883537" lon="11.2794051"><ele>53.0</ele><time>2026-04-08T13:41:47.434Z</time></trkpt><trkpt lat="44.4882644" lon="11.2791069"><ele>54.0</ele><time>2026-04-08T13:41:48.431Z</time></trkpt><trkpt lat="44.4881893" lon="11.2787902"><ele>55.0</ele><time>2026-04-08T13:41:49.432Z</time></trkpt><trkpt lat="44.4881099" lon="11.2784825"><ele>55.0</ele><time>2026-04-08T13:41:50.429Z</time></trkpt><trkpt lat="44.4880432" lon="11.2781746"><ele>55.0</ele><time>2026-04-08T13:41:51.422Z</time></trkpt><trkpt lat="44.4880045" lon="11.2778604"><ele>55.0</ele><time>2026-04-08T13:41:52.427Z</time></trkpt><trkpt lat="44.4879778" lon="11.2775232"><ele>55.0</ele><time>2026-04-08T13:41:53.433Z</time></trkpt><trkpt lat="44.4879588" lon="11.2771891"><ele>55.0</ele><time>2026-04-08T13:41:54.419Z</time></trkpt><trkpt lat="44.4879707" lon="11.2768714"><ele>55.0</ele><time>2026-04-08T13:41:55.426Z</time></trkpt><trkpt lat="44.4879771" lon="11.276592"><ele>55.0</ele><time>2026-04-08T13:41:56.432Z</time></trkpt><trkpt lat="44.4880074" lon="11.276313"><ele>55.0</ele><time>2026-04-08T13:41:57.427Z</time></trkpt><trkpt lat="44.4880402" lon="11.2760146"><ele>55.0</ele><time>2026-04-08T13:41:58.438Z</time></trkpt><trkpt lat="44.4880741" lon="11.275733"><ele>55.0</ele><time>2026-04-08T13:41:59.426Z</time></trkpt><trkpt lat="44.4881275" lon="11.2754479"><ele>54.33333333333333</ele><time>2026-04-08T13:42:00.429Z</time></trkpt><trkpt lat="44.4881791" lon="11.2751894"><ele>53.66666666666667</ele><time>2026-04-08T13:42:01.43Z</time></trkpt><trkpt lat="44.4882282" lon="11.2749448"><ele>53.0</ele><time>2026-04-08T13:42:02.428Z</time></trkpt><trkpt lat="44.48831" lon="11.2747274"><ele>52.5</ele><time>2026-04-08T13:42:03.428Z</time></trkpt><trkpt lat="44.4883706" lon="11.2745562"><ele>52.0</ele><time>2026-04-08T13:42:04.426Z</time></trkpt><trkpt lat="44.4884291" lon="11.2743976"><ele>51.5</ele><time>2026-04-08T13:42:05.417Z</time></trkpt><trkpt lat="44.4884989" lon="11.2742884"><ele>51.0</ele><time>2026-04-08T13:42:06.427Z</time></trkpt><trkpt lat="44.4885508" lon="11.2741857"><ele>51.0</ele><time>2026-04-08T13:42:07.428Z</time></trkpt><trkpt lat="44.4885864" lon="11.2740957"><ele>51.0</ele><time>2026-04-08T13:42:08.428Z</time></trkpt><trkpt lat="44.4886236" lon="11.2740135"><ele>51.0</ele><time>2026-04-08T13:42:10.431Z</time></trkpt><trkpt lat="44.4886719" lon="11.2739361"><ele>51.0</ele><time>2026-04-08T13:43:00.585Z</time></trkpt><trkpt lat="44.4886978" lon="11.2738506"><ele>51.0</ele><time>2026-04-08T13:43:35.422Z</time></trkpt><trkpt lat="44.4887315" lon="11.273733"><ele>51.0</ele><time>2026-04-08T13:44:01.423Z</time></trkpt><trkpt lat="44.4887769" lon="11.2735788"><ele>51.0</ele><time>2026-04-08T13:44:03.424Z</time></trkpt><trkpt lat="44.4888108" lon="11.2734533"><ele>51.0</ele><time>2026-04-08T13:44:04.426Z</time></trkpt><trkpt lat="44.4888674" lon="11.2733021"><ele>51.0</ele><time>2026-04-08T13:44:05.432Z</time></trkpt><trkpt lat="44.4889349" lon="11.2731224"><ele>51.0</ele><time>2026-04-08T13:44:06.416Z</time></trkpt><trkpt lat="44.4890026" lon="11.2729277"><ele>51.0</ele><time>2026-04-08T13:44:07.426Z</time></trkpt><trkpt lat="44.4890644" lon="11.2726703"><ele>51.0</ele><time>2026-04-08T13:44:08.425Z</time></trkpt><trkpt lat="44.4891795" lon="11.2724305"><ele>51.0</ele><time>2026-04-08T13:44:09.424Z</time></trkpt><trkpt lat="44.4892533" lon="11.2722149"><ele>51.25</ele><time>2026-04-08T13:44:10.419Z</time></trkpt><trkpt lat="44.4893159" lon="11.2720046"><ele>51.5</ele><time>2026-04-08T13:44:11.424Z</time></trkpt><trkpt lat="44.489369" lon="11.2718316"><ele>51.75</ele><time>2026-04-08T13:44:12.421Z</time></trkpt><trkpt lat="44.4894641" lon="11.2717015"><ele>52.0</ele><time>2026-04-08T13:44:13.418Z</time></trkpt><trkpt lat="44.4895182" lon="11.2715949"><ele>52.0</ele><time>2026-04-08T13:44:14.465Z</time></trkpt><trkpt lat="44.4896115" lon="11.271544"><ele>52.0</ele><time>2026-04-08T13:44:15.436Z</time></trkpt><trkpt lat="44.4897551" lon="11.2715342"><ele>52.0</ele><time>2026-04-08T13:44:16.407Z</time></trkpt><trkpt lat="44.4898813" lon="11.2715478"><ele>52.0</ele><time>2026-04-08T13:44:17.415Z</time></trkpt><trkpt lat="44.4900054" lon="11.2715767"><ele>52.0</ele><time>2026-04-08T13:44:18.432Z</time></trkpt><trkpt lat="44.4901534" lon="11.2716166"><ele>52.0</ele><time>2026-04-08T13:44:19.436Z</time></trkpt><trkpt lat="44.4903204" lon="11.2716317"><ele>52.0</ele><time>2026-04-08T13:44:20.439Z</time></trkpt><trkpt lat="44.4904964" lon="11.2716317"><ele>52.666666666666664</ele><time>2026-04-08T13:44:21.442Z</time></trkpt><trkpt lat="44.4906513" lon="11.2715634"><ele>53.33333333333333</ele><time>2026-04-08T13:44:22.435Z</time></trkpt><trkpt lat="44.49081" lon="11.2714569"><ele>54.0</ele><time>2026-04-08T13:44:23.499Z</time></trkpt><trkpt lat="44.4909426" lon="11.2713797"><ele>54.0</ele><time>2026-04-08T13:44:24.422Z</time></trkpt><trkpt lat="44.4910745" lon="11.2712744"><ele>54.0</ele><time>2026-04-08T13:44:25.576Z</time></trkpt><trkpt lat="44.49116" lon="11.2711341"><ele>54.0</ele><time>2026-04-08T13:44:26.583Z</time></trkpt><trkpt lat="44.4912303" lon="11.2709931"><ele>54.0</ele><time>2026-04-08T13:44:27.736Z</time></trkpt><trkpt lat="44.4914806" lon="11.2707787"><ele>54.0</ele><time>2026-04-08T13:44:29.424Z</time></trkpt><trkpt lat="44.4916199" lon="11.2707311"><ele>54.0</ele><time>2026-04-08T13:44:30.738Z</time></trkpt><trkpt lat="44.491971" lon="11.2707228"><ele>53.5</ele><time>2026-04-08T13:44:32.739Z</time></trkpt><trkpt lat="44.4921649" lon="11.2707657"><ele>53.0</ele><time>2026-04-08T13:44:33.748Z</time></trkpt><trkpt lat="44.4926135" lon="11.2708645"><ele>53.0</ele><time>2026-04-08T13:44:35.444Z</time></trkpt><trkpt lat="44.4928404" lon="11.2709348"><ele>53.0</ele><time>2026-04-08T13:44:36.43Z</time></trkpt><trkpt lat="44.4930672" lon="11.2709937"><ele>53.0</ele><time>2026-04-08T13:44:37.426Z</time></trkpt><trkpt lat="44.4933116" lon="11.2710411"><ele>53.0</ele><time>2026-04-08T13:44:38.425Z</time></trkpt><trkpt lat="44.4935661" lon="11.27108"><ele>53.5</ele><time>2026-04-08T13:44:39.433Z</time></trkpt><trkpt lat="44.49382" lon="11.2711109"><ele>54.0</ele><time>2026-04-08T13:44:40.457Z</time></trkpt><trkpt lat="44.4940602" lon="11.2711619"><ele>54.0</ele><time>2026-04-08T13:44:41.514Z</time></trkpt><trkpt lat="44.4943258" lon="11.2712089"><ele>54.0</ele><time>2026-04-08T13:44:42.437Z</time></trkpt><trkpt lat="44.4945759" lon="11.2712552"><ele>53.0</ele><time>2026-04-08T13:44:43.43Z</time></trkpt><trkpt lat="44.49479" lon="11.2712941"><ele>52.0</ele><time>2026-04-08T13:44:44.432Z</time></trkpt><trkpt lat="44.4950175" lon="11.2713313"><ele>51.0</ele><time>2026-04-08T13:44:45.429Z</time></trkpt><trkpt lat="44.4952723" lon="11.2713591"><ele>51.5</ele><time>2026-04-08T13:44:46.43Z</time></trkpt><trkpt lat="44.4955385" lon="11.2713882"><ele>52.0</ele><time>2026-04-08T13:44:47.432Z</time></trkpt><trkpt lat="44.4958104" lon="11.2714218"><ele>52.0</ele><time>2026-04-08T13:44:48.436Z</time></trkpt><trkpt lat="44.4961089" lon="11.2714612"><ele>52.0</ele><time>2026-04-08T13:44:49.429Z</time></trkpt><trkpt lat="44.4963864" lon="11.2715018"><ele>51.0</ele><time>2026-04-08T13:44:50.433Z</time></trkpt><trkpt lat="44.4966751" lon="11.2715386"><ele>50.0</ele><time>2026-04-08T13:44:51.438Z</time></trkpt><trkpt lat="44.4969583" lon="11.2715894"><ele>51.0</ele><time>2026-04-08T13:44:52.429Z</time></trkpt><trkpt lat="44.497255" lon="11.2716404"><ele>52.0</ele><time>2026-04-08T13:44:53.435Z</time></trkpt><trkpt lat="44.4975545" lon="11.2716782"><ele>52.0</ele><time>2026-04-08T13:44:54.435Z</time></trkpt><trkpt lat="44.497842" lon="11.2717104"><ele>52.0</ele><time>2026-04-08T13:44:55.448Z</time></trkpt><trkpt lat="44.4981037" lon="11.2717486"><ele>52.0</ele><time>2026-04-08T13:44:56.429Z</time></trkpt><trkpt lat="44.4986223" lon="11.2718341"><ele>50.5</ele><time>2026-04-08T13:44:58.432Z</time></trkpt><trkpt lat="44.4988935" lon="11.2718624"><ele>49.0</ele><time>2026-04-08T13:44:59.441Z</time></trkpt><trkpt lat="44.4991719" lon="11.2718994"><ele>49.0</ele><time>2026-04-08T13:45:00.433Z</time></trkpt><trkpt lat="44.4994609" lon="11.2719439"><ele>49.0</ele><time>2026-04-08T13:45:01.432Z</time></trkpt><trkpt lat="44.4997327" lon="11.2719886"><ele>49.0</ele><time>2026-04-08T13:45:02.45Z</time></trkpt><trkpt lat="44.4999745" lon="11.272034"><ele>49.0</ele><time>2026-04-08T13:45:03.439Z</time></trkpt><trkpt lat="44.5002306" lon="11.2720651"><ele>49.0</ele><time>2026-04-08T13:45:04.419Z</time></trkpt><trkpt lat="44.5005012" lon="11.2720877"><ele>49.0</ele><time>2026-04-08T13:45:05.438Z</time></trkpt><trkpt lat="44.5007696" lon="11.2721006"><ele>49.0</ele><time>2026-04-08T13:45:06.431Z</time></trkpt><trkpt lat="44.5010467" lon="11.2721256"><ele>49.0</ele><time>2026-04-08T13:45:07.422Z</time></trkpt><trkpt lat="44.501312" lon="11.2721498"><ele>48.0</ele><time>2026-04-08T13:45:08.432Z</time></trkpt><trkpt lat="44.5015652" lon="11.2721825"><ele>47.0</ele><time>2026-04-08T13:45:09.429Z</time></trkpt><trkpt lat="44.5018287" lon="11.2722226"><ele>48.5</ele><time>2026-04-08T13:45:10.417Z</time></trkpt><trkpt lat="44.5020962" lon="11.2722754"><ele>50.0</ele><time>2026-04-08T13:45:11.424Z</time></trkpt><trkpt lat="44.5023632" lon="11.2723185"><ele>50.0</ele><time>2026-04-08T13:45:12.422Z</time></trkpt><trkpt lat="44.502644" lon="11.2723726"><ele>50.0</ele><time>2026-04-08T13:45:13.424Z</time></trkpt><trkpt lat="44.5029242" lon="11.2724127"><ele>49.5</ele><time>2026-04-08T13:45:14.428Z</time></trkpt><trkpt lat="44.5031917" lon="11.2724571"><ele>49.0</ele><time>2026-04-08T13:45:15.425Z</time></trkpt><trkpt lat="44.5034705" lon="11.272502"><ele>49.0</ele><time>2026-04-08T13:45:16.417Z</time></trkpt><trkpt lat="44.5037323" lon="11.2725457"><ele>49.0</ele><time>2026-04-08T13:45:17.429Z</time></trkpt><trkpt lat="44.5040179" lon="11.2725989"><ele>50.0</ele><time>2026-04-08T13:45:18.427Z</time></trkpt><trkpt lat="44.5042878" lon="11.2726981"><ele>51.0</ele><time>2026-04-08T13:45:19.424Z</time></trkpt><trkpt lat="44.5045665" lon="11.2727948"><ele>49.0</ele><time>2026-04-08T13:45:20.427Z</time></trkpt><trkpt lat="44.5048157" lon="11.2728756"><ele>47.0</ele><time>2026-04-08T13:45:21.428Z</time></trkpt><trkpt lat="44.5050657" lon="11.2729393"><ele>47.0</ele><time>2026-04-08T13:45:22.42Z</time></trkpt><trkpt lat="44.5052795" lon="11.2730287"><ele>47.0</ele><time>2026-04-08T13:45:23.437Z</time></trkpt><trkpt lat="44.505493" lon="11.273111"><ele>47.0</ele><time>2026-04-08T13:45:24.425Z</time></trkpt><trkpt lat="44.5057364" lon="11.2732275"><ele>47.0</ele><time>2026-04-08T13:45:25.426Z</time></trkpt><trkpt lat="44.5059576" lon="11.2733482"><ele>47.0</ele><time>2026-04-08T13:45:26.454Z</time></trkpt><trkpt lat="44.5061626" lon="11.2734414"><ele>46.666666666666664</ele><time>2026-04-08T13:45:27.426Z</time></trkpt><trkpt lat="44.506358" lon="11.2735434"><ele>46.333333333333336</ele><time>2026-04-08T13:45:28.427Z</time></trkpt><trkpt lat="44.5065766" lon="11.2736524"><ele>46.0</ele><time>2026-04-08T13:45:29.421Z</time></trkpt><trkpt lat="44.5067808" lon="11.2737482"><ele>46.0</ele><time>2026-04-08T13:45:30.421Z</time></trkpt><trkpt lat="44.5069776" lon="11.2738244"><ele>46.0</ele><time>2026-04-08T13:45:31.424Z</time></trkpt><trkpt lat="44.5071442" lon="11.2739148"><ele>46.0</ele><time>2026-04-08T13:45:32.427Z</time></trkpt><trkpt lat="44.5072787" lon="11.2740055"><ele>45.333333333333336</ele><time>2026-04-08T13:45:33.433Z</time></trkpt><trkpt lat="44.5074286" lon="11.2741211"><ele>44.666666666666664</ele><time>2026-04-08T13:45:34.431Z</time></trkpt><trkpt lat="44.5075734" lon="11.2742472"><ele>44.0</ele><time>2026-04-08T13:45:35.433Z</time></trkpt><trkpt lat="44.5077413" lon="11.2743927"><ele>44.0</ele><time>2026-04-08T13:45:36.432Z</time></trkpt><trkpt lat="44.5078864" lon="11.2745178"><ele>44.0</ele><time>2026-04-08T13:45:37.438Z</time></trkpt><trkpt lat="44.508027" lon="11.2746489"><ele>44.0</ele><time>2026-04-08T13:45:38.454Z</time></trkpt><trkpt lat="44.5081594" lon="11.2747882"><ele>44.33333333333333</ele><time>2026-04-08T13:45:39.427Z</time></trkpt><trkpt lat="44.5082903" lon="11.274922"><ele>44.666666666666664</ele><time>2026-04-08T13:45:40.433Z</time></trkpt><trkpt lat="44.5084347" lon="11.2750561"><ele>45.0</ele><time>2026-04-08T13:45:41.427Z</time></trkpt><trkpt lat="44.508571" lon="11.2752066"><ele>45.0</ele><time>2026-04-08T13:45:42.427Z</time></trkpt><trkpt lat="44.5087039" lon="11.2753294"><ele>45.0</ele><time>2026-04-08T13:45:43.427Z</time></trkpt><trkpt lat="44.5088622" lon="11.2754517"><ele>45.0</ele><time>2026-04-08T13:45:44.428Z</time></trkpt><trkpt lat="44.5089926" lon="11.2755491"><ele>44.6</ele><time>2026-04-08T13:45:45.429Z</time></trkpt><trkpt lat="44.5091159" lon="11.2756745"><ele>44.2</ele><time>2026-04-08T13:45:46.423Z</time></trkpt><trkpt lat="44.5091918" lon="11.2757996"><ele>43.8</ele><time>2026-04-08T13:45:47.424Z</time></trkpt><trkpt lat="44.5092316" lon="11.2759003"><ele>43.4</ele><time>2026-04-08T13:45:48.42Z</time></trkpt><trkpt lat="44.5092623" lon="11.2760023"><ele>43.0</ele><time>2026-04-08T13:45:49.428Z</time></trkpt><trkpt lat="44.5092671" lon="11.2761151"><ele>43.0</ele><time>2026-04-08T13:45:50.415Z</time></trkpt><trkpt lat="44.5092775" lon="11.2762584"><ele>43.0</ele><time>2026-04-08T13:45:51.417Z</time></trkpt><trkpt lat="44.5092972" lon="11.2764238"><ele>43.0</ele><time>2026-04-08T13:45:52.422Z</time></trkpt><trkpt lat="44.5093414" lon="11.2766068"><ele>43.0</ele><time>2026-04-08T13:45:53.423Z</time></trkpt><trkpt lat="44.5093881" lon="11.2768072"><ele>43.333333333333336</ele><time>2026-04-08T13:45:54.427Z</time></trkpt><trkpt lat="44.5094328" lon="11.2770741"><ele>43.666666666666664</ele><time>2026-04-08T13:45:55.423Z</time></trkpt><trkpt lat="44.5094364" lon="11.2773424"><ele>44.0</ele><time>2026-04-08T13:45:56.416Z</time></trkpt><trkpt lat="44.5094222" lon="11.277601"><ele>44.0</ele><time>2026-04-08T13:45:57.421Z</time></trkpt><trkpt lat="44.5093321" lon="11.2778199"><ele>44.0</ele><time>2026-04-08T13:45:58.412Z</time></trkpt><trkpt lat="44.5091717" lon="11.2783311"><ele>44.33333333333333</ele><time>2026-04-08T13:46:00.409Z</time></trkpt><trkpt lat="44.509081" lon="11.2785379"><ele>44.666666666666664</ele><time>2026-04-08T13:46:01.413Z</time></trkpt><trkpt lat="44.5089461" lon="11.278791"><ele>45.0</ele><time>2026-04-08T13:46:02.411Z</time></trkpt><trkpt lat="44.5088344" lon="11.2790518"><ele>44.666666666666664</ele><time>2026-04-08T13:46:03.421Z</time></trkpt><trkpt lat="44.5086978" lon="11.2792991"><ele>44.33333333333333</ele><time>2026-04-08T13:46:04.411Z</time></trkpt><trkpt lat="44.5085719" lon="11.2795212"><ele>44.0</ele><time>2026-04-08T13:46:05.415Z</time></trkpt><trkpt lat="44.5084568" lon="11.279748"><ele>44.666666666666664</ele><time>2026-04-08T13:46:06.41Z</time></trkpt><trkpt lat="44.5083597" lon="11.2799663"><ele>45.333333333333336</ele><time>2026-04-08T13:46:07.416Z</time></trkpt><trkpt lat="44.5082812" lon="11.2801487"><ele>46.0</ele><time>2026-04-08T13:46:08.412Z</time></trkpt><trkpt lat="44.5082" lon="11.2803455"><ele>46.0</ele><time>2026-04-08T13:46:09.419Z</time></trkpt><trkpt lat="44.508135" lon="11.2805651"><ele>46.0</ele><time>2026-04-08T13:46:10.413Z</time></trkpt><trkpt lat="44.508037" lon="11.2807747"><ele>46.0</ele><time>2026-04-08T13:46:11.42Z</time></trkpt><trkpt lat="44.5079395" lon="11.2809748"><ele>46.66666666666667</ele><time>2026-04-08T13:46:12.412Z</time></trkpt><trkpt lat="44.5078557" lon="11.2811856"><ele>47.333333333333336</ele><time>2026-04-08T13:46:13.415Z</time></trkpt><trkpt lat="44.5077772" lon="11.2813678"><ele>48.0</ele><time>2026-04-08T13:46:14.413Z</time></trkpt><trkpt lat="44.5077093" lon="11.2815404"><ele>48.0</ele><time>2026-04-08T13:46:15.422Z</time></trkpt><trkpt lat="44.507641" lon="11.2817013"><ele>48.0</ele><time>2026-04-08T13:46:16.426Z</time></trkpt><trkpt lat="44.5075767" lon="11.2818652"><ele>48.0</ele><time>2026-04-08T13:46:17.42Z</time></trkpt><trkpt lat="44.5075298" lon="11.2820042"><ele>48.0</ele><time>2026-04-08T13:46:18.416Z</time></trkpt><trkpt lat="44.5074769" lon="11.2821423"><ele>48.4</ele><time>2026-04-08T13:46:19.425Z</time></trkpt><trkpt lat="44.5074137" lon="11.2822648"><ele>48.8</ele><time>2026-04-08T13:46:20.425Z</time></trkpt><trkpt lat="44.5073517" lon="11.282412"><ele>49.2</ele><time>2026-04-08T13:46:21.412Z</time></trkpt><trkpt lat="44.5073082" lon="11.2825501"><ele>49.6</ele><time>2026-04-08T13:46:22.422Z</time></trkpt><trkpt lat="44.5072686" lon="11.2826717"><ele>50.0</ele><time>2026-04-08T13:46:23.418Z</time></trkpt><trkpt lat="44.5072313" lon="11.28277"><ele>50.00000000000001</ele><time>2026-04-08T13:46:24.423Z</time></trkpt><trkpt lat="44.5071999" lon="11.2828618"><ele>50.0</ele><time>2026-04-08T13:46:25.426Z</time></trkpt><trkpt lat="44.507163" lon="11.2829522"><ele>50.0</ele><time>2026-04-08T13:46:26.424Z</time></trkpt><trkpt lat="44.5070943" lon="11.2830391"><ele>50.0</ele><time>2026-04-08T13:46:27.433Z</time></trkpt><trkpt lat="44.50702" lon="11.2831333"><ele>50.00000000000001</ele><time>2026-04-08T13:46:28.433Z</time></trkpt><trkpt lat="44.506965" lon="11.2832327"><ele>50.0</ele><time>2026-04-08T13:46:29.509Z</time></trkpt><trkpt lat="44.5069303" lon="11.283332"><ele>49.833333333333336</ele><time>2026-04-08T13:46:30.419Z</time></trkpt><trkpt lat="44.5069229" lon="11.2834279"><ele>49.66666666666667</ele><time>2026-04-08T13:46:31.415Z</time></trkpt><trkpt lat="44.5069327" lon="11.283518"><ele>49.5</ele><time>2026-04-08T13:46:32.581Z</time></trkpt><trkpt lat="44.5069681" lon="11.2837272"><ele>49.33333333333333</ele><time>2026-04-08T13:46:34.413Z</time></trkpt><trkpt lat="44.5069721" lon="11.2838253"><ele>49.166666666666664</ele><time>2026-04-08T13:46:35.422Z</time></trkpt><trkpt lat="44.5069669" lon="11.2839376"><ele>49.0</ele><time>2026-04-08T13:46:36.423Z</time></trkpt><trkpt lat="44.5069495" lon="11.2840596"><ele>48.6</ele><time>2026-04-08T13:46:37.424Z</time></trkpt><trkpt lat="44.5069177" lon="11.2841739"><ele>48.2</ele><time>2026-04-08T13:46:38.422Z</time></trkpt><trkpt lat="44.5068833" lon="11.2842917"><ele>47.800000000000004</ele><time>2026-04-08T13:46:39.418Z</time></trkpt><trkpt lat="44.5068414" lon="11.2844355"><ele>47.400000000000006</ele><time>2026-04-08T13:46:40.422Z</time></trkpt><trkpt lat="44.5067898" lon="11.2845825"><ele>47.0</ele><time>2026-04-08T13:46:41.424Z</time></trkpt><trkpt lat="44.5067359" lon="11.2847459"><ele>47.0</ele><time>2026-04-08T13:46:42.426Z</time></trkpt><trkpt lat="44.5066751" lon="11.2849206"><ele>47.0</ele><time>2026-04-08T13:46:43.417Z</time></trkpt><trkpt lat="44.5066075" lon="11.2850958"><ele>47.0</ele><time>2026-04-08T13:46:44.431Z</time></trkpt><trkpt lat="44.5065192" lon="11.2852843"><ele>47.0</ele><time>2026-04-08T13:46:45.423Z</time></trkpt><trkpt lat="44.5064576" lon="11.2854326"><ele>47.0</ele><time>2026-04-08T13:46:46.423Z</time></trkpt><trkpt lat="44.5064205" lon="11.2855803"><ele>47.0</ele><time>2026-04-08T13:46:47.433Z</time></trkpt><trkpt lat="44.5063733" lon="11.2857333"><ele>47.0</ele><time>2026-04-08T13:46:48.422Z</time></trkpt><trkpt lat="44.5063333" lon="11.2858811"><ele>47.0</ele><time>2026-04-08T13:46:49.43Z</time></trkpt><trkpt lat="44.506299" lon="11.2860298"><ele>47.5</ele><time>2026-04-08T13:46:50.432Z</time></trkpt><trkpt lat="44.5062493" lon="11.2861774"><ele>48.0</ele><time>2026-04-08T13:46:51.428Z</time></trkpt><trkpt lat="44.5062071" lon="11.2863322"><ele>48.5</ele><time>2026-04-08T13:46:52.428Z</time></trkpt><trkpt lat="44.506168" lon="11.2864906"><ele>49.0</ele><time>2026-04-08T13:46:53.425Z</time></trkpt><trkpt lat="44.5061234" lon="11.2866585"><ele>47.75</ele><time>2026-04-08T13:46:54.424Z</time></trkpt><trkpt lat="44.5060678" lon="11.286814"><ele>46.5</ele><time>2026-04-08T13:46:55.428Z</time></trkpt><trkpt lat="44.5060147" lon="11.2869797"><ele>45.25</ele><time>2026-04-08T13:46:56.433Z</time></trkpt><trkpt lat="44.5059661" lon="11.2871456"><ele>44.0</ele><time>2026-04-08T13:46:57.433Z</time></trkpt><trkpt lat="44.5059197" lon="11.2873137"><ele>43.75</ele><time>2026-04-08T13:46:58.442Z</time></trkpt><trkpt lat="44.5058736" lon="11.2874876"><ele>43.5</ele><time>2026-04-08T13:46:59.421Z</time></trkpt><trkpt lat="44.5058264" lon="11.2876617"><ele>43.25</ele><time>2026-04-08T13:47:00.441Z</time></trkpt><trkpt lat="44.5057795" lon="11.2878268"><ele>43.0</ele><time>2026-04-08T13:47:01.432Z</time></trkpt><trkpt lat="44.5057326" lon="11.28799"><ele>43.25</ele><time>2026-04-08T13:47:02.425Z</time></trkpt><trkpt lat="44.5056851" lon="11.2881371"><ele>43.5</ele><time>2026-04-08T13:47:03.434Z</time></trkpt><trkpt lat="44.5056405" lon="11.2882856"><ele>43.75</ele><time>2026-04-08T13:47:04.433Z</time></trkpt><trkpt lat="44.5055988" lon="11.2884389"><ele>44.0</ele><time>2026-04-08T13:47:05.429Z</time></trkpt><trkpt lat="44.5055576" lon="11.2885918"><ele>44.0</ele><time>2026-04-08T13:47:06.431Z</time></trkpt><trkpt lat="44.5055178" lon="11.288747"><ele>44.0</ele><time>2026-04-08T13:47:07.423Z</time></trkpt><trkpt lat="44.5054755" lon="11.2889106"><ele>44.0</ele><time>2026-04-08T13:47:08.429Z</time></trkpt><trkpt lat="44.5054263" lon="11.2890777"><ele>44.0</ele><time>2026-04-08T13:47:09.426Z</time></trkpt><trkpt lat="44.5053764" lon="11.2892444"><ele>43.5</ele><time>2026-04-08T13:47:10.433Z</time></trkpt><trkpt lat="44.5053234" lon="11.2894116"><ele>43.0</ele><time>2026-04-08T13:47:11.424Z</time></trkpt><trkpt lat="44.5052379" lon="11.2896038"><ele>42.5</ele><time>2026-04-08T13:47:12.43Z</time></trkpt><trkpt lat="44.5051732" lon="11.2897827"><ele>42.0</ele><time>2026-04-08T13:47:13.433Z</time></trkpt><trkpt lat="44.5051246" lon="11.2899499"><ele>41.5</ele><time>2026-04-08T13:47:14.435Z</time></trkpt><trkpt lat="44.5050819" lon="11.2901267"><ele>41.0</ele><time>2026-04-08T13:47:15.435Z</time></trkpt><trkpt lat="44.5050232" lon="11.2902859"><ele>40.5</ele><time>2026-04-08T13:47:16.435Z</time></trkpt><trkpt lat="44.5049588" lon="11.2904533"><ele>40.0</ele><time>2026-04-08T13:47:17.434Z</time></trkpt><trkpt lat="44.5049012" lon="11.2906115"><ele>40.0</ele><time>2026-04-08T13:47:18.44Z</time></trkpt><trkpt lat="44.5048691" lon="11.2907373"><ele>40.0</ele><time>2026-04-08T13:47:19.437Z</time></trkpt><trkpt lat="44.5048408" lon="11.2908413"><ele>40.0</ele><time>2026-04-08T13:47:20.43Z</time></trkpt><trkpt lat="44.5048159" lon="11.2909328"><ele>40.0</ele><time>2026-04-08T13:47:21.431Z</time></trkpt><trkpt lat="44.5047887" lon="11.291087"><ele>40.0</ele><time>2026-04-08T13:47:23.432Z</time></trkpt><trkpt lat="44.5047565" lon="11.291195"><ele>40.0</ele><time>2026-04-08T13:47:25.428Z</time></trkpt><trkpt lat="44.5046994" lon="11.29135"><ele>40.57142857142857</ele><time>2026-04-08T13:47:31.441Z</time></trkpt><trkpt lat="44.5046689" lon="11.2914405"><ele>41.142857142857146</ele><time>2026-04-08T13:47:32.418Z</time></trkpt><trkpt lat="44.5046299" lon="11.29152"><ele>41.714285714285715</ele><time>2026-04-08T13:47:33.42Z</time></trkpt><trkpt lat="44.5046054" lon="11.2916076"><ele>42.285714285714285</ele><time>2026-04-08T13:47:34.421Z</time></trkpt><trkpt lat="44.5045763" lon="11.2916944"><ele>42.857142857142854</ele><time>2026-04-08T13:47:35.42Z</time></trkpt><trkpt lat="44.5045363" lon="11.2917895"><ele>43.42857142857143</ele><time>2026-04-08T13:47:36.419Z</time></trkpt><trkpt lat="44.5045107" lon="11.2918751"><ele>44.0</ele><time>2026-04-08T13:47:37.441Z</time></trkpt><trkpt lat="44.5044617" lon="11.2920407"><ele>44.0</ele><time>2026-04-08T13:47:38.416Z</time></trkpt><trkpt lat="44.5044067" lon="11.2922468"><ele>44.0</ele><time>2026-04-08T13:47:39.429Z</time></trkpt><trkpt lat="44.5043463" lon="11.2924905"><ele>44.0</ele><time>2026-04-08T13:47:40.421Z</time></trkpt><trkpt lat="44.5042591" lon="11.2927309"><ele>45.0</ele><time>2026-04-08T13:47:41.415Z</time></trkpt><trkpt lat="44.5041616" lon="11.2929726"><ele>46.0</ele><time>2026-04-08T13:47:42.417Z</time></trkpt><trkpt lat="44.504106" lon="11.2932682"><ele>47.0</ele><time>2026-04-08T13:47:43.414Z</time></trkpt><trkpt lat="44.5040363" lon="11.2935667"><ele>47.33333333333333</ele><time>2026-04-08T13:47:44.411Z</time></trkpt><trkpt lat="44.5039828" lon="11.2938375"><ele>47.666666666666664</ele><time>2026-04-08T13:47:45.429Z</time></trkpt><trkpt lat="44.5038869" lon="11.2941444"><ele>48.0</ele><time>2026-04-08T13:47:46.415Z</time></trkpt><trkpt lat="44.5038262" lon="11.2944252"><ele>48.0</ele><time>2026-04-08T13:47:47.428Z</time></trkpt><trkpt lat="44.5037337" lon="11.2947093"><ele>48.0</ele><time>2026-04-08T13:47:48.421Z</time></trkpt><trkpt lat="44.5036411" lon="11.2950162"><ele>48.0</ele><time>2026-04-08T13:47:49.429Z</time></trkpt><trkpt lat="44.5035493" lon="11.2953367"><ele>48.0</ele><time>2026-04-08T13:47:50.427Z</time></trkpt><trkpt lat="44.5034341" lon="11.295627"><ele>47.666666666666664</ele><time>2026-04-08T13:47:51.422Z</time></trkpt><trkpt lat="44.503343" lon="11.2959173"><ele>47.33333333333333</ele><time>2026-04-08T13:47:52.433Z</time></trkpt><trkpt lat="44.5032564" lon="11.2961897"><ele>47.0</ele><time>2026-04-08T13:47:53.435Z</time></trkpt><trkpt lat="44.5032017" lon="11.2964085"><ele>47.666666666666664</ele><time>2026-04-08T13:47:54.423Z</time></trkpt><trkpt lat="44.5031531" lon="11.2966363"><ele>48.33333333333333</ele><time>2026-04-08T13:47:55.432Z</time></trkpt><trkpt lat="44.5030851" lon="11.2968754"><ele>49.0</ele><time>2026-04-08T13:47:56.43Z</time></trkpt><trkpt lat="44.5030245" lon="11.2970414"><ele>49.0</ele><time>2026-04-08T13:47:57.426Z</time></trkpt><trkpt lat="44.503002" lon="11.2971985"><ele>49.0</ele><time>2026-04-08T13:47:58.434Z</time></trkpt><trkpt lat="44.5029726" lon="11.2973424"><ele>49.0</ele><time>2026-04-08T13:47:59.425Z</time></trkpt><trkpt lat="44.5029457" lon="11.2974696"><ele>49.0</ele><time>2026-04-08T13:48:00.423Z</time></trkpt><trkpt lat="44.5029001" lon="11.2975768"><ele>49.0</ele><time>2026-04-08T13:48:01.43Z</time></trkpt><trkpt lat="44.502864" lon="11.2976677"><ele>48.400000000000006</ele><time>2026-04-08T13:48:02.433Z</time></trkpt><trkpt lat="44.5028217" lon="11.2977769"><ele>47.8</ele><time>2026-04-08T13:48:04.425Z</time></trkpt><trkpt lat="44.5027552" lon="11.2978104"><ele>47.2</ele><time>2026-04-08T13:48:43.423Z</time></trkpt><trkpt lat="44.5027021" lon="11.2979593"><ele>46.599999999999994</ele><time>2026-04-08T13:48:54.427Z</time></trkpt><trkpt lat="44.5026692" lon="11.298073"><ele>46.0</ele><time>2026-04-08T13:48:55.433Z</time></trkpt><trkpt lat="44.5026344" lon="11.2982191"><ele>46.0</ele><time>2026-04-08T13:48:56.436Z</time></trkpt><trkpt lat="44.5025989" lon="11.298384"><ele>46.0</ele><time>2026-04-08T13:48:57.432Z</time></trkpt><trkpt lat="44.5025508" lon="11.2985627"><ele>46.0</ele><time>2026-04-08T13:48:58.426Z</time></trkpt><trkpt lat="44.502499" lon="11.2987622"><ele>46.0</ele><time>2026-04-08T13:48:59.431Z</time></trkpt><trkpt lat="44.5024466" lon="11.2990294"><ele>46.66666666666667</ele><time>2026-04-08T13:49:00.425Z</time></trkpt><trkpt lat="44.5023999" lon="11.2992697"><ele>47.333333333333336</ele><time>2026-04-08T13:49:01.436Z</time></trkpt><trkpt lat="44.5023514" lon="11.2995136"><ele>48.0</ele><time>2026-04-08T13:49:02.43Z</time></trkpt><trkpt lat="44.5022659" lon="11.299774"><ele>49.0</ele><time>2026-04-08T13:49:03.423Z</time></trkpt><trkpt lat="44.5022216" lon="11.3000246"><ele>50.0</ele><time>2026-04-08T13:49:04.427Z</time></trkpt><trkpt lat="44.502161" lon="11.3002802"><ele>51.0</ele><time>2026-04-08T13:49:05.421Z</time></trkpt><trkpt lat="44.50209" lon="11.3005578"><ele>50.0</ele><time>2026-04-08T13:49:06.424Z</time></trkpt><trkpt lat="44.502017" lon="11.3008417"><ele>49.0</ele><time>2026-04-08T13:49:07.418Z</time></trkpt><trkpt lat="44.5019416" lon="11.3011002"><ele>48.0</ele><time>2026-04-08T13:49:08.431Z</time></trkpt><trkpt lat="44.5018532" lon="11.3013907"><ele>48.0</ele><time>2026-04-08T13:49:09.428Z</time></trkpt><trkpt lat="44.5018139" lon="11.30165"><ele>48.0</ele><time>2026-04-08T13:49:10.427Z</time></trkpt><trkpt lat="44.5017389" lon="11.3019002"><ele>48.0</ele><time>2026-04-08T13:49:11.425Z</time></trkpt><trkpt lat="44.5016531" lon="11.3021547"><ele>48.0</ele><time>2026-04-08T13:49:12.425Z</time></trkpt><trkpt lat="44.5015864" lon="11.3023923"><ele>48.0</ele><time>2026-04-08T13:49:13.417Z</time></trkpt><trkpt lat="44.5015262" lon="11.3026056"><ele>48.0</ele><time>2026-04-08T13:49:14.427Z</time></trkpt><trkpt lat="44.5014722" lon="11.3028165"><ele>48.0</ele><time>2026-04-08T13:49:15.428Z</time></trkpt><trkpt lat="44.5014413" lon="11.3029893"><ele>48.0</ele><time>2026-04-08T13:49:16.423Z</time></trkpt><trkpt lat="44.5013459" lon="11.3031408"><ele>48.0</ele><time>2026-04-08T13:49:17.425Z</time></trkpt><trkpt lat="44.5012557" lon="11.3032603"><ele>48.0</ele><time>2026-04-08T13:49:18.423Z</time></trkpt><trkpt lat="44.5012017" lon="11.3033438"><ele>47.833333333333336</ele><time>2026-04-08T13:49:19.419Z</time></trkpt><trkpt lat="44.5011496" lon="11.3033985"><ele>47.666666666666664</ele><time>2026-04-08T13:49:20.426Z</time></trkpt><trkpt lat="44.5010842" lon="11.3034741"><ele>47.5</ele><time>2026-04-08T13:49:22.448Z</time></trkpt><trkpt lat="44.5010146" lon="11.3035138"><ele>47.33333333333333</ele><time>2026-04-08T13:49:24.454Z</time></trkpt><trkpt lat="44.5009147" lon="11.3035416"><ele>47.166666666666664</ele><time>2026-04-08T13:49:26.435Z</time></trkpt><trkpt lat="44.5008398" lon="11.303575"><ele>47.0</ele><time>2026-04-08T13:49:27.429Z</time></trkpt><trkpt lat="44.5007368" lon="11.303584"><ele>47.0</ele><time>2026-04-08T13:49:28.431Z</time></trkpt><trkpt lat="44.5006126" lon="11.303615"><ele>47.0</ele><time>2026-04-08T13:49:29.417Z</time></trkpt><trkpt lat="44.5004739" lon="11.3036476"><ele>47.0</ele><time>2026-04-08T13:49:30.426Z</time></trkpt><trkpt lat="44.5003331" lon="11.303689"><ele>47.0</ele><time>2026-04-08T13:49:31.424Z</time></trkpt><trkpt lat="44.5002058" lon="11.3037497"><ele>46.666666666666664</ele><time>2026-04-08T13:49:32.434Z</time></trkpt><trkpt lat="44.5000972" lon="11.303868"><ele>46.333333333333336</ele><time>2026-04-08T13:49:33.416Z</time></trkpt><trkpt lat="44.4999492" lon="11.3039834"><ele>46.0</ele><time>2026-04-08T13:49:34.424Z</time></trkpt><trkpt lat="44.4998048" lon="11.3041267"><ele>46.0</ele><time>2026-04-08T13:49:35.413Z</time></trkpt><trkpt lat="44.4996902" lon="11.3042886"><ele>46.0</ele><time>2026-04-08T13:49:36.42Z</time></trkpt><trkpt lat="44.4995901" lon="11.3044494"><ele>46.0</ele><time>2026-04-08T13:49:37.418Z</time></trkpt><trkpt lat="44.4995564" lon="11.304603"><ele>46.0</ele><time>2026-04-08T13:49:38.417Z</time></trkpt><trkpt lat="44.4995623" lon="11.3048068"><ele>46.0</ele><time>2026-04-08T13:49:39.42Z</time></trkpt><trkpt lat="44.4995733" lon="11.3052166"><ele>46.0</ele><time>2026-04-08T13:49:41.414Z</time></trkpt><trkpt lat="44.4996022" lon="11.3054617"><ele>46.0</ele><time>2026-04-08T13:49:42.413Z</time></trkpt><trkpt lat="44.499652" lon="11.3056975"><ele>46.0</ele><time>2026-04-08T13:49:43.405Z</time></trkpt><trkpt lat="44.4996903" lon="11.3059468"><ele>46.0</ele><time>2026-04-08T13:49:44.416Z</time></trkpt><trkpt lat="44.4997317" lon="11.3061975"><ele>46.0</ele><time>2026-04-08T13:49:45.407Z</time></trkpt><trkpt lat="44.4997069" lon="11.3064512"><ele>46.0</ele><time>2026-04-08T13:49:46.418Z</time></trkpt><trkpt lat="44.4996178" lon="11.3067145"><ele>46.0</ele><time>2026-04-08T13:49:47.419Z</time></trkpt><trkpt lat="44.4995059" lon="11.3069703"><ele>45.66666666666667</ele><time>2026-04-08T13:49:48.416Z</time></trkpt><trkpt lat="44.4994415" lon="11.3072059"><ele>45.333333333333336</ele><time>2026-04-08T13:49:49.408Z</time></trkpt><trkpt lat="44.4994149" lon="11.3074493"><ele>45.0</ele><time>2026-04-08T13:49:50.416Z</time></trkpt><trkpt lat="44.4993663" lon="11.3076549"><ele>45.0</ele><time>2026-04-08T13:49:51.42Z</time></trkpt><trkpt lat="44.4993138" lon="11.3078226"><ele>45.0</ele><time>2026-04-08T13:49:52.41Z</time></trkpt><trkpt lat="44.499283" lon="11.3080079"><ele>45.0</ele><time>2026-04-08T13:49:53.422Z</time></trkpt><trkpt lat="44.4992493" lon="11.3081675"><ele>45.0</ele><time>2026-04-08T13:49:54.421Z</time></trkpt><trkpt lat="44.4991993" lon="11.3082863"><ele>45.166666666666664</ele><time>2026-04-08T13:49:55.413Z</time></trkpt><trkpt lat="44.4991748" lon="11.3083936"><ele>45.333333333333336</ele><time>2026-04-08T13:49:56.413Z</time></trkpt><trkpt lat="44.4991352" lon="11.3085003"><ele>45.5</ele><time>2026-04-08T13:49:57.418Z</time></trkpt><trkpt lat="44.4991029" lon="11.3086028"><ele>45.66666666666667</ele><time>2026-04-08T13:49:58.42Z</time></trkpt><trkpt lat="44.4990751" lon="11.3086994"><ele>45.833333333333336</ele><time>2026-04-08T13:49:59.416Z</time></trkpt><trkpt lat="44.4990531" lon="11.3087922"><ele>46.0</ele><time>2026-04-08T13:50:00.425Z</time></trkpt><trkpt lat="44.4990274" lon="11.3089416"><ele>46.199999999999996</ele><time>2026-04-08T13:50:02.422Z</time></trkpt><trkpt lat="44.4990156" lon="11.3090307"><ele>46.4</ele><time>2026-04-08T13:50:04.425Z</time></trkpt><trkpt lat="44.4989949" lon="11.3091159"><ele>46.6</ele><time>2026-04-08T13:50:34.406Z</time></trkpt><trkpt lat="44.4990778" lon="11.3090405"><ele>46.8</ele><time>2026-04-08T13:51:01.42Z</time></trkpt><trkpt lat="44.4990675" lon="11.3092359"><ele>47.0</ele><time>2026-04-08T13:51:11.423Z</time></trkpt><trkpt lat="44.4990242" lon="11.3094051"><ele>47.0</ele><time>2026-04-08T13:51:12.432Z</time></trkpt><trkpt lat="44.4989751" lon="11.3095948"><ele>47.0</ele><time>2026-04-08T13:51:13.43Z</time></trkpt><trkpt lat="44.4989283" lon="11.3097982"><ele>47.0</ele><time>2026-04-08T13:51:14.435Z</time></trkpt><trkpt lat="44.4988645" lon="11.3099899"><ele>47.0</ele><time>2026-04-08T13:51:15.437Z</time></trkpt><trkpt lat="44.4987766" lon="11.310226"><ele>47.0</ele><time>2026-04-08T13:51:16.43Z</time></trkpt><trkpt lat="44.4986973" lon="11.3104522"><ele>47.0</ele><time>2026-04-08T13:51:17.43Z</time></trkpt><trkpt lat="44.4986396" lon="11.3106926"><ele>47.0</ele><time>2026-04-08T13:51:18.435Z</time></trkpt><trkpt lat="44.4985653" lon="11.3109218"><ele>47.0</ele><time>2026-04-08T13:51:19.444Z</time></trkpt><trkpt lat="44.4984941" lon="11.3111257"><ele>47.0</ele><time>2026-04-08T13:51:20.42Z</time></trkpt><trkpt lat="44.4984174" lon="11.311341"><ele>47.0</ele><time>2026-04-08T13:51:21.427Z</time></trkpt><trkpt lat="44.4983736" lon="11.3115629"><ele>46.666666666666664</ele><time>2026-04-08T13:51:22.429Z</time></trkpt><trkpt lat="44.4982948" lon="11.3117696"><ele>46.333333333333336</ele><time>2026-04-08T13:51:23.42Z</time></trkpt><trkpt lat="44.4982209" lon="11.3119613"><ele>46.0</ele><time>2026-04-08T13:51:24.429Z</time></trkpt><trkpt lat="44.4981589" lon="11.3121282"><ele>46.599999999999994</ele><time>2026-04-08T13:51:25.427Z</time></trkpt><trkpt lat="44.4981063" lon="11.3122878"><ele>47.2</ele><time>2026-04-08T13:51:26.426Z</time></trkpt><trkpt lat="44.4980727" lon="11.3124384"><ele>47.8</ele><time>2026-04-08T13:51:27.426Z</time></trkpt><trkpt lat="44.4980328" lon="11.3125669"><ele>48.400000000000006</ele><time>2026-04-08T13:51:28.422Z</time></trkpt><trkpt lat="44.4979846" lon="11.3126753"><ele>49.0</ele><time>2026-04-08T13:51:29.412Z</time></trkpt><trkpt lat="44.4979625" lon="11.3127993"><ele>48.99999999999999</ele><time>2026-04-08T13:51:30.426Z</time></trkpt><trkpt lat="44.4979285" lon="11.3129037"><ele>49.0</ele><time>2026-04-08T13:51:31.419Z</time></trkpt><trkpt lat="44.4979034" lon="11.3130033"><ele>49.0</ele><time>2026-04-08T13:51:32.422Z</time></trkpt><trkpt lat="44.497878" lon="11.3130884"><ele>49.0</ele><time>2026-04-08T13:51:33.42Z</time></trkpt><trkpt lat="44.4978572" lon="11.3132082"><ele>48.99999999999999</ele><time>2026-04-08T13:51:35.421Z</time></trkpt><trkpt lat="44.497819" lon="11.3133819"><ele>49.0</ele><time>2026-04-08T13:51:46.419Z</time></trkpt><trkpt lat="44.4977915" lon="11.3134712"><ele>49.166666666666664</ele><time>2026-04-08T13:51:47.425Z</time></trkpt><trkpt lat="44.4977675" lon="11.3135598"><ele>49.33333333333333</ele><time>2026-04-08T13:51:48.421Z</time></trkpt><trkpt lat="44.4977578" lon="11.3136623"><ele>49.5</ele><time>2026-04-08T13:51:49.429Z</time></trkpt><trkpt lat="44.4977489" lon="11.313779"><ele>49.66666666666667</ele><time>2026-04-08T13:51:50.43Z</time></trkpt><trkpt lat="44.4977311" lon="11.3139024"><ele>49.833333333333336</ele><time>2026-04-08T13:51:51.415Z</time></trkpt><trkpt lat="44.497714" lon="11.314038"><ele>50.0</ele><time>2026-04-08T13:51:52.434Z</time></trkpt><trkpt lat="44.497696" lon="11.3141827"><ele>50.75</ele><time>2026-04-08T13:51:53.418Z</time></trkpt><trkpt lat="44.4976779" lon="11.3143345"><ele>51.5</ele><time>2026-04-08T13:51:54.421Z</time></trkpt><trkpt lat="44.4976615" lon="11.3144934"><ele>52.25</ele><time>2026-04-08T13:51:55.429Z</time></trkpt><trkpt lat="44.4976457" lon="11.3146569"><ele>53.0</ele><time>2026-04-08T13:51:56.421Z</time></trkpt><trkpt lat="44.4976313" lon="11.314814"><ele>53.00000000000001</ele><time>2026-04-08T13:51:57.424Z</time></trkpt><trkpt lat="44.4976228" lon="11.3149671"><ele>53.0</ele><time>2026-04-08T13:51:58.423Z</time></trkpt><trkpt lat="44.4976147" lon="11.3151062"><ele>53.0</ele><time>2026-04-08T13:51:59.425Z</time></trkpt><trkpt lat="44.4976143" lon="11.3152266"><ele>53.0</ele><time>2026-04-08T13:52:00.421Z</time></trkpt><trkpt lat="44.4976149" lon="11.3153288"><ele>53.00000000000001</ele><time>2026-04-08T13:52:01.429Z</time></trkpt><trkpt lat="44.4976152" lon="11.3154224"><ele>53.0</ele><time>2026-04-08T13:52:02.418Z</time></trkpt><trkpt lat="44.4976114" lon="11.3155783"><ele>53.00000000000001</ele><time>2026-04-08T13:52:04.425Z</time></trkpt><trkpt lat="44.4975957" lon="11.3157038"><ele>53.0</ele><time>2026-04-08T13:52:06.424Z</time></trkpt><trkpt lat="44.4975689" lon="11.3157846"><ele>53.0</ele><time>2026-04-08T13:52:08.426Z</time></trkpt><trkpt lat="44.4975525" lon="11.3158826"><ele>53.0</ele><time>2026-04-08T13:52:18.41Z</time></trkpt><trkpt lat="44.497533" lon="11.3160401"><ele>53.00000000000001</ele><time>2026-04-08T13:52:43.422Z</time></trkpt><trkpt lat="44.4975257" lon="11.316183"><ele>53.0</ele><time>2026-04-08T13:52:44.42Z</time></trkpt><trkpt lat="44.497519" lon="11.3163661"><ele>53.0</ele><time>2026-04-08T13:52:45.421Z</time></trkpt><trkpt lat="44.4975155" lon="11.3165782"><ele>53.0</ele><time>2026-04-08T13:52:46.422Z</time></trkpt><trkpt lat="44.4975056" lon="11.316858"><ele>53.0</ele><time>2026-04-08T13:52:47.405Z</time></trkpt><trkpt lat="44.497486" lon="11.3171044"><ele>54.66666666666667</ele><time>2026-04-08T13:52:48.411Z</time></trkpt><trkpt lat="44.4974423" lon="11.3173477"><ele>56.33333333333333</ele><time>2026-04-08T13:52:49.418Z</time></trkpt><trkpt lat="44.4974216" lon="11.317594"><ele>58.0</ele><time>2026-04-08T13:52:50.41Z</time></trkpt><trkpt lat="44.4973613" lon="11.317861"><ele>59.0</ele><time>2026-04-08T13:52:51.409Z</time></trkpt><trkpt lat="44.497278" lon="11.3181321"><ele>60.0</ele><time>2026-04-08T13:52:52.406Z</time></trkpt><trkpt lat="44.4971876" lon="11.3183583"><ele>61.0</ele><time>2026-04-08T13:52:53.413Z</time></trkpt><trkpt lat="44.497108" lon="11.3185519"><ele>61.0</ele><time>2026-04-08T13:52:54.404Z</time></trkpt><trkpt lat="44.4970388" lon="11.3187458"><ele>61.0</ele><time>2026-04-08T13:52:55.412Z</time></trkpt><trkpt lat="44.4969574" lon="11.3189394"><ele>61.0</ele><time>2026-04-08T13:52:56.406Z</time></trkpt><trkpt lat="44.4969357" lon="11.3191083"><ele>61.0</ele><time>2026-04-08T13:52:57.413Z</time></trkpt><trkpt lat="44.4969567" lon="11.3192701"><ele>61.0</ele><time>2026-04-08T13:52:58.414Z</time></trkpt><trkpt lat="44.4970102" lon="11.3194522"><ele>61.0</ele><time>2026-04-08T13:52:59.411Z</time></trkpt><trkpt lat="44.4970543" lon="11.3196853"><ele>61.0</ele><time>2026-04-08T13:53:00.411Z</time></trkpt><trkpt lat="44.4971164" lon="11.3199301"><ele>60.0</ele><time>2026-04-08T13:53:01.405Z</time></trkpt><trkpt lat="44.4971696" lon="11.3201651"><ele>59.0</ele><time>2026-04-08T13:53:02.418Z</time></trkpt><trkpt lat="44.4971983" lon="11.3203718"><ele>58.0</ele><time>2026-04-08T13:53:03.415Z</time></trkpt><trkpt lat="44.4972306" lon="11.320592"><ele>57.5</ele><time>2026-04-08T13:53:04.42Z</time></trkpt><trkpt lat="44.4972563" lon="11.3207878"><ele>57.0</ele><time>2026-04-08T13:53:05.415Z</time></trkpt><trkpt lat="44.4972701" lon="11.3209911"><ele>56.5</ele><time>2026-04-08T13:53:06.419Z</time></trkpt><trkpt lat="44.4972599" lon="11.321216"><ele>56.0</ele><time>2026-04-08T13:53:07.413Z</time></trkpt><trkpt lat="44.497241" lon="11.3214353"><ele>56.0</ele><time>2026-04-08T13:53:08.416Z</time></trkpt><trkpt lat="44.4972129" lon="11.3216697"><ele>56.0</ele><time>2026-04-08T13:53:09.417Z</time></trkpt><trkpt lat="44.4972003" lon="11.3219256"><ele>56.0</ele><time>2026-04-08T13:53:10.412Z</time></trkpt><trkpt lat="44.497182" lon="11.3221783"><ele>56.0</ele><time>2026-04-08T13:53:11.417Z</time></trkpt><trkpt lat="44.4971822" lon="11.3223951"><ele>56.0</ele><time>2026-04-08T13:53:12.42Z</time></trkpt><trkpt lat="44.4971816" lon="11.322599"><ele>56.0</ele><time>2026-04-08T13:53:13.415Z</time></trkpt><trkpt lat="44.4971648" lon="11.3227791"><ele>56.0</ele><time>2026-04-08T13:53:14.424Z</time></trkpt><trkpt lat="44.4971601" lon="11.3229198"><ele>56.00000000000001</ele><time>2026-04-08T13:53:15.417Z</time></trkpt><trkpt lat="44.4971656" lon="11.3230335"><ele>56.0</ele><time>2026-04-08T13:53:16.408Z</time></trkpt><trkpt lat="44.4971748" lon="11.3231307"><ele>56.0</ele><time>2026-04-08T13:53:17.42Z</time></trkpt><trkpt lat="44.4971545" lon="11.3232865"><ele>56.0</ele><time>2026-04-08T13:53:19.417Z</time></trkpt><trkpt lat="44.4971352" lon="11.32338"><ele>56.00000000000001</ele><time>2026-04-08T13:53:21.414Z</time></trkpt><trkpt lat="44.4971166" lon="11.3234892"><ele>56.0</ele><time>2026-04-08T13:53:39.405Z</time></trkpt><trkpt lat="44.4971487" lon="11.3236923"><ele>56.0</ele><time>2026-04-08T13:53:41.402Z</time></trkpt><trkpt lat="44.4971573" lon="11.3238818"><ele>56.0</ele><time>2026-04-08T13:53:42.406Z</time></trkpt><trkpt lat="44.4971479" lon="11.3241251"><ele>56.0</ele><time>2026-04-08T13:53:43.414Z</time></trkpt><trkpt lat="44.4971327" lon="11.3245064"><ele>55.0</ele><time>2026-04-08T13:53:44.404Z</time></trkpt><trkpt lat="44.497123" lon="11.3248336"><ele>54.0</ele><time>2026-04-08T13:53:45.405Z</time></trkpt><trkpt lat="44.4971002" lon="11.3251631"><ele>55.66666666666667</ele><time>2026-04-08T13:53:46.41Z</time></trkpt><trkpt lat="44.4970641" lon="11.3254553"><ele>57.333333333333336</ele><time>2026-04-08T13:53:47.408Z</time></trkpt><trkpt lat="44.497019" lon="11.3257014"><ele>59.0</ele><time>2026-04-08T13:53:48.416Z</time></trkpt><trkpt lat="44.4969694" lon="11.3259299"><ele>59.0</ele><time>2026-04-08T13:53:49.404Z</time></trkpt><trkpt lat="44.496952" lon="11.3261412"><ele>59.0</ele><time>2026-04-08T13:53:50.412Z</time></trkpt><trkpt lat="44.4969315" lon="11.3263408"><ele>59.0</ele><time>2026-04-08T13:53:51.405Z</time></trkpt><trkpt lat="44.4968919" lon="11.3265106"><ele>59.0</ele><time>2026-04-08T13:53:52.413Z</time></trkpt><trkpt lat="44.4969234" lon="11.3266616"><ele>58.800000000000004</ele><time>2026-04-08T13:53:53.405Z</time></trkpt><trkpt lat="44.4969574" lon="11.3267947"><ele>58.60000000000001</ele><time>2026-04-08T13:53:54.41Z</time></trkpt><trkpt lat="44.4969947" lon="11.3269679"><ele>58.4</ele><time>2026-04-08T13:53:55.408Z</time></trkpt><trkpt lat="44.497014" lon="11.3270874"><ele>58.2</ele><time>2026-04-08T13:53:56.405Z</time></trkpt><trkpt lat="44.497019" lon="11.3271845"><ele>58.0</ele><time>2026-04-08T13:53:57.409Z</time></trkpt><trkpt lat="44.497031" lon="11.3273202"><ele>57.599999999999994</ele><time>2026-04-08T13:53:59.406Z</time></trkpt><trkpt lat="44.497042" lon="11.3274142"><ele>57.199999999999996</ele><time>2026-04-08T13:54:00.412Z</time></trkpt><trkpt lat="44.4970209" lon="11.3275101"><ele>56.8</ele><time>2026-04-08T13:54:01.422Z</time></trkpt><trkpt lat="44.4969754" lon="11.3275959"><ele>56.4</ele><time>2026-04-08T13:54:02.401Z</time></trkpt><trkpt lat="44.496893" lon="11.3276596"><ele>56.0</ele><time>2026-04-08T13:54:03.407Z</time></trkpt><trkpt lat="44.4966885" lon="11.3277293"><ele>56.0</ele><time>2026-04-08T13:54:05.405Z</time></trkpt><trkpt lat="44.4965555" lon="11.3277618"><ele>56.0</ele><time>2026-04-08T13:54:06.397Z</time></trkpt><trkpt lat="44.4963977" lon="11.3277789"><ele>56.0</ele><time>2026-04-08T13:54:07.408Z</time></trkpt><trkpt lat="44.4962278" lon="11.3277806"><ele>58.333333333333336</ele><time>2026-04-08T13:54:08.408Z</time></trkpt><trkpt lat="44.4960446" lon="11.3277911"><ele>60.66666666666667</ele><time>2026-04-08T13:54:09.411Z</time></trkpt><trkpt lat="44.4958121" lon="11.3278643"><ele>63.0</ele><time>2026-04-08T13:54:10.404Z</time></trkpt><trkpt lat="44.4955957" lon="11.3280011"><ele>63.0</ele><time>2026-04-08T13:54:11.412Z</time></trkpt><trkpt lat="44.4953992" lon="11.328084"><ele>63.0</ele><time>2026-04-08T13:54:12.405Z</time></trkpt><trkpt lat="44.4952307" lon="11.32823"><ele>63.0</ele><time>2026-04-08T13:54:13.395Z</time></trkpt><trkpt lat="44.4950807" lon="11.3283394"><ele>63.0</ele><time>2026-04-08T13:54:14.399Z</time></trkpt><trkpt lat="44.4949616" lon="11.3283716"><ele>63.0</ele><time>2026-04-08T13:54:15.403Z</time></trkpt><trkpt lat="44.4948296" lon="11.3284316"><ele>63.0</ele><time>2026-04-08T13:54:16.402Z</time></trkpt><trkpt lat="44.4946972" lon="11.3284981"><ele>63.0</ele><time>2026-04-08T13:54:17.406Z</time></trkpt><trkpt lat="44.4945576" lon="11.3285492"><ele>63.33333333333333</ele><time>2026-04-08T13:54:18.406Z</time></trkpt><trkpt lat="44.4944273" lon="11.3286086"><ele>63.666666666666664</ele><time>2026-04-08T13:54:19.411Z</time></trkpt><trkpt lat="44.4942712" lon="11.3286697"><ele>64.0</ele><time>2026-04-08T13:54:20.407Z</time></trkpt><trkpt lat="44.4940881" lon="11.3287129"><ele>64.0</ele><time>2026-04-08T13:54:21.41Z</time></trkpt><trkpt lat="44.4939108" lon="11.3287932"><ele>64.0</ele><time>2026-04-08T13:54:22.401Z</time></trkpt><trkpt lat="44.4937428" lon="11.3288514"><ele>64.0</ele><time>2026-04-08T13:54:23.415Z</time></trkpt><trkpt lat="44.4935582" lon="11.3288888"><ele>63.666666666666664</ele><time>2026-04-08T13:54:24.409Z</time></trkpt><trkpt lat="44.4933604" lon="11.3289143"><ele>63.33333333333333</ele><time>2026-04-08T13:54:25.413Z</time></trkpt><trkpt lat="44.4931968" lon="11.3289669"><ele>63.0</ele><time>2026-04-08T13:54:26.409Z</time></trkpt><trkpt lat="44.4930799" lon="11.3289595"><ele>63.0</ele><time>2026-04-08T13:54:27.414Z</time></trkpt><trkpt lat="44.4929452" lon="11.328972"><ele>63.0</ele><time>2026-04-08T13:54:28.405Z</time></trkpt><trkpt lat="44.4928272" lon="11.3289895"><ele>63.0</ele><time>2026-04-08T13:54:29.409Z</time></trkpt><trkpt lat="44.4926878" lon="11.3290073"><ele>63.0</ele><time>2026-04-08T13:54:30.413Z</time></trkpt><trkpt lat="44.4925486" lon="11.3290655"><ele>64.0</ele><time>2026-04-08T13:54:31.418Z</time></trkpt><trkpt lat="44.4923938" lon="11.3291601"><ele>65.0</ele><time>2026-04-08T13:54:32.405Z</time></trkpt><trkpt lat="44.4922642" lon="11.3292112"><ele>66.0</ele><time>2026-04-08T13:54:33.409Z</time></trkpt><trkpt lat="44.4921573" lon="11.3292225"><ele>67.0</ele><time>2026-04-08T13:54:34.402Z</time></trkpt><trkpt lat="44.4920524" lon="11.3292301"><ele>67.16666666666666</ele><time>2026-04-08T13:54:35.422Z</time></trkpt><trkpt lat="44.4919454" lon="11.3292973"><ele>67.33333333333333</ele><time>2026-04-08T13:54:36.404Z</time></trkpt><trkpt lat="44.491865" lon="11.3293206"><ele>67.5</ele><time>2026-04-08T13:54:37.409Z</time></trkpt><trkpt lat="44.4917939" lon="11.329336"><ele>67.66666666666667</ele><time>2026-04-08T13:54:38.409Z</time></trkpt><trkpt lat="44.4917303" lon="11.3293414"><ele>67.83333333333334</ele><time>2026-04-08T13:54:39.4Z</time></trkpt><trkpt lat="44.4916299" lon="11.3293414"><ele>68.0</ele><time>2026-04-08T13:54:41.411Z</time></trkpt><trkpt lat="44.4915509" lon="11.3293466"><ele>68.0</ele><time>2026-04-08T13:54:43.408Z</time></trkpt><trkpt lat="44.4914876" lon="11.329361"><ele>68.0</ele><time>2026-04-08T13:54:44.41Z</time></trkpt><trkpt lat="44.4914057" lon="11.329393"><ele>68.0</ele><time>2026-04-08T13:54:45.406Z</time></trkpt><trkpt lat="44.491309" lon="11.3294395"><ele>68.0</ele><time>2026-04-08T13:54:46.405Z</time></trkpt><trkpt lat="44.4912265" lon="11.3294958"><ele>68.0</ele><time>2026-04-08T13:54:47.399Z</time></trkpt><trkpt lat="44.4911428" lon="11.3295442"><ele>68.0</ele><time>2026-04-08T13:54:48.406Z</time></trkpt><trkpt lat="44.4910722" lon="11.3295684"><ele>68.5</ele><time>2026-04-08T13:54:49.404Z</time></trkpt><trkpt lat="44.4909923" lon="11.3296093"><ele>69.0</ele><time>2026-04-08T13:54:50.4Z</time></trkpt><trkpt lat="44.4909105" lon="11.3296451"><ele>69.5</ele><time>2026-04-08T13:54:51.404Z</time></trkpt><trkpt lat="44.4908155" lon="11.3296688"><ele>70.0</ele><time>2026-04-08T13:54:52.418Z</time></trkpt><trkpt lat="44.4907288" lon="11.3296805"><ele>70.5</ele><time>2026-04-08T13:54:53.506Z</time></trkpt><trkpt lat="44.4906448" lon="11.3296834"><ele>71.0</ele><time>2026-04-08T13:54:54.417Z</time></trkpt><trkpt lat="44.4905772" lon="11.3296775"><ele>71.0</ele><time>2026-04-08T13:54:55.409Z</time></trkpt><trkpt lat="44.4905105" lon="11.3296706"><ele>71.0</ele><time>2026-04-08T13:54:56.414Z</time></trkpt><trkpt lat="44.4904316" lon="11.3296617"><ele>71.0</ele><time>2026-04-08T13:54:57.41Z</time></trkpt><trkpt lat="44.4903455" lon="11.3296658"><ele>71.0</ele><time>2026-04-08T13:54:58.42Z</time></trkpt><trkpt lat="44.490263" lon="11.3296777"><ele>71.0</ele><time>2026-04-08T13:54:59.408Z</time></trkpt><trkpt lat="44.4901973" lon="11.3297011"><ele>71.0</ele><time>2026-04-08T13:55:00.418Z</time></trkpt><trkpt lat="44.490086" lon="11.3298168"><ele>71.0</ele><time>2026-04-08T13:55:02.419Z</time></trkpt><trkpt lat="44.4900289" lon="11.3299244"><ele>71.0</ele><time>2026-04-08T13:55:03.41Z</time></trkpt><trkpt lat="44.4899672" lon="11.3300502"><ele>71.0</ele><time>2026-04-08T13:55:04.416Z</time></trkpt><trkpt lat="44.4899064" lon="11.3301867"><ele>71.0</ele><time>2026-04-08T13:55:05.417Z</time></trkpt><trkpt lat="44.4898509" lon="11.3303233"><ele>71.0</ele><time>2026-04-08T13:55:06.416Z</time></trkpt><trkpt lat="44.489792" lon="11.3304448"><ele>71.25</ele><time>2026-04-08T13:55:07.412Z</time></trkpt><trkpt lat="44.4897319" lon="11.3305826"><ele>71.5</ele><time>2026-04-08T13:55:08.406Z</time></trkpt><trkpt lat="44.4896677" lon="11.3307386"><ele>71.75</ele><time>2026-04-08T13:55:09.406Z</time></trkpt><trkpt lat="44.4896094" lon="11.3309111"><ele>72.0</ele><time>2026-04-08T13:55:10.402Z</time></trkpt><trkpt lat="44.4895486" lon="11.3310844"><ele>73.33333333333333</ele><time>2026-04-08T13:55:11.408Z</time></trkpt><trkpt lat="44.4894812" lon="11.3312836"><ele>74.66666666666666</ele><time>2026-04-08T13:55:12.407Z</time></trkpt><trkpt lat="44.4894251" lon="11.3315288"><ele>76.0</ele><time>2026-04-08T13:55:13.397Z</time></trkpt><trkpt lat="44.4893846" lon="11.3317803"><ele>76.0</ele><time>2026-04-08T13:55:14.407Z</time></trkpt><trkpt lat="44.4893281" lon="11.3320483"><ele>76.0</ele><time>2026-04-08T13:55:15.414Z</time></trkpt><trkpt lat="44.4892165" lon="11.3322697"><ele>76.0</ele><time>2026-04-08T13:55:16.41Z</time></trkpt><trkpt lat="44.4891039" lon="11.3324732"><ele>76.0</ele><time>2026-04-08T13:55:17.409Z</time></trkpt><trkpt lat="44.489011" lon="11.3327173"><ele>76.0</ele><time>2026-04-08T13:55:18.408Z</time></trkpt><trkpt lat="44.4889208" lon="11.332959"><ele>76.0</ele><time>2026-04-08T13:55:19.413Z</time></trkpt><trkpt lat="44.4888309" lon="11.3331886"><ele>76.75</ele><time>2026-04-08T13:55:20.409Z</time></trkpt><trkpt lat="44.4887356" lon="11.3333567"><ele>77.5</ele><time>2026-04-08T13:55:21.399Z</time></trkpt><trkpt lat="44.488674" lon="11.3335236"><ele>78.25</ele><time>2026-04-08T13:55:22.412Z</time></trkpt><trkpt lat="44.4886174" lon="11.333702"><ele>79.0</ele><time>2026-04-08T13:55:23.404Z</time></trkpt><trkpt lat="44.4885617" lon="11.3338803"><ele>78.5</ele><time>2026-04-08T13:55:24.407Z</time></trkpt><trkpt lat="44.4884951" lon="11.3340499"><ele>78.0</ele><time>2026-04-08T13:55:25.401Z</time></trkpt><trkpt lat="44.4884367" lon="11.3342055"><ele>77.5</ele><time>2026-04-08T13:55:26.406Z</time></trkpt><trkpt lat="44.488397" lon="11.3343581"><ele>77.0</ele><time>2026-04-08T13:55:27.416Z</time></trkpt><trkpt lat="44.4883422" lon="11.3345217"><ele>77.0</ele><time>2026-04-08T13:55:28.408Z</time></trkpt><trkpt lat="44.4882777" lon="11.3346667"><ele>77.0</ele><time>2026-04-08T13:55:29.416Z</time></trkpt><trkpt lat="44.488226" lon="11.3348129"><ele>77.0</ele><time>2026-04-08T13:55:30.405Z</time></trkpt><trkpt lat="44.4881672" lon="11.3349136"><ele>77.0</ele><time>2026-04-08T13:55:31.409Z</time></trkpt><trkpt lat="44.4881184" lon="11.335033"><ele>77.0</ele><time>2026-04-08T13:55:32.407Z</time></trkpt><trkpt lat="44.4880649" lon="11.335165"><ele>77.2</ele><time>2026-04-08T13:55:33.413Z</time></trkpt><trkpt lat="44.4880087" lon="11.3353013"><ele>77.4</ele><time>2026-04-08T13:55:34.407Z</time></trkpt><trkpt lat="44.4879596" lon="11.3354302"><ele>77.6</ele><time>2026-04-08T13:55:35.408Z</time></trkpt><trkpt lat="44.4879129" lon="11.3355451"><ele>77.8</ele><time>2026-04-08T13:55:36.409Z</time></trkpt><trkpt lat="44.4878747" lon="11.3356471"><ele>78.0</ele><time>2026-04-08T13:55:37.409Z</time></trkpt><trkpt lat="44.4878416" lon="11.3357453"><ele>78.6</ele><time>2026-04-08T13:55:38.405Z</time></trkpt><trkpt lat="44.4878044" lon="11.335854"><ele>79.19999999999999</ele><time>2026-04-08T13:55:39.409Z</time></trkpt><trkpt lat="44.4877585" lon="11.3359562"><ele>79.8</ele><time>2026-04-08T13:55:40.405Z</time></trkpt><trkpt lat="44.4877138" lon="11.3360654"><ele>80.39999999999999</ele><time>2026-04-08T13:55:41.412Z</time></trkpt><trkpt lat="44.4876699" lon="11.3361888"><ele>81.0</ele><time>2026-04-08T13:55:42.399Z</time></trkpt><trkpt lat="44.4876196" lon="11.3363327"><ele>81.75</ele><time>2026-04-08T13:55:43.406Z</time></trkpt><trkpt lat="44.4875508" lon="11.3364934"><ele>82.5</ele><time>2026-04-08T13:55:44.408Z</time></trkpt><trkpt lat="44.4874922" lon="11.3366498"><ele>83.25</ele><time>2026-04-08T13:55:45.401Z</time></trkpt><trkpt lat="44.4874406" lon="11.3368068"><ele>84.0</ele><time>2026-04-08T13:55:46.401Z</time></trkpt><trkpt lat="44.4873758" lon="11.3369647"><ele>84.0</ele><time>2026-04-08T13:55:47.487Z</time></trkpt><trkpt lat="44.4873124" lon="11.3371046"><ele>84.0</ele><time>2026-04-08T13:55:48.562Z</time></trkpt><trkpt lat="44.4872517" lon="11.337219"><ele>84.0</ele><time>2026-04-08T13:55:49.57Z</time></trkpt><trkpt lat="44.487188" lon="11.3373125"><ele>84.0</ele><time>2026-04-08T13:55:50.556Z</time></trkpt><trkpt lat="44.4871199" lon="11.3374268"><ele>84.0</ele><time>2026-04-08T13:55:51.566Z</time></trkpt><trkpt lat="44.4870063" lon="11.3377158"><ele>84.33333333333333</ele><time>2026-04-08T13:55:53.403Z</time></trkpt><trkpt lat="44.4869534" lon="11.337887"><ele>84.66666666666666</ele><time>2026-04-08T13:55:54.555Z</time></trkpt><trkpt lat="44.4869121" lon="11.3380675"><ele>85.0</ele><time>2026-04-08T13:55:55.575Z</time></trkpt><trkpt lat="44.4868044" lon="11.3383639"><ele>85.0</ele><time>2026-04-08T13:55:57.422Z</time></trkpt><trkpt lat="44.486757" lon="11.3384483"><ele>85.0</ele><time>2026-04-08T13:55:58.401Z</time></trkpt><trkpt lat="44.4866954" lon="11.3385277"><ele>85.0</ele><time>2026-04-08T13:56:00.392Z</time></trkpt><trkpt lat="44.4866152" lon="11.3386133"><ele>85.0</ele><time>2026-04-08T13:56:07.435Z</time></trkpt><trkpt lat="44.4865829" lon="11.3386937"><ele>85.0</ele><time>2026-04-08T13:56:47.407Z</time></trkpt><trkpt lat="44.4865504" lon="11.3387908"><ele>85.0</ele><time>2026-04-08T13:57:17.413Z</time></trkpt><trkpt lat="44.4865293" lon="11.3388827"><ele>84.4</ele><time>2026-04-08T13:57:19.412Z</time></trkpt><trkpt lat="44.4864865" lon="11.3390287"><ele>83.8</ele><time>2026-04-08T13:57:21.412Z</time></trkpt><trkpt lat="44.4864537" lon="11.3391422"><ele>83.19999999999999</ele><time>2026-04-08T13:57:22.407Z</time></trkpt><trkpt lat="44.4864165" lon="11.3392678"><ele>82.6</ele><time>2026-04-08T13:57:23.414Z</time></trkpt><trkpt lat="44.4863812" lon="11.3394313"><ele>82.0</ele><time>2026-04-08T13:57:24.407Z</time></trkpt><trkpt lat="44.4863461" lon="11.3396102"><ele>81.5</ele><time>2026-04-08T13:57:25.416Z</time></trkpt><trkpt lat="44.4863093" lon="11.3397936"><ele>81.0</ele><time>2026-04-08T13:57:26.413Z</time></trkpt><trkpt lat="44.4862792" lon="11.339976"><ele>80.5</ele><time>2026-04-08T13:57:27.414Z</time></trkpt><trkpt lat="44.486263" lon="11.3401684"><ele>80.0</ele><time>2026-04-08T13:57:28.417Z</time></trkpt><trkpt lat="44.4862406" lon="11.3403685"><ele>80.0</ele><time>2026-04-08T13:57:29.411Z</time></trkpt><trkpt lat="44.48622" lon="11.3406197"><ele>80.0</ele><time>2026-04-08T13:57:30.413Z</time></trkpt><trkpt lat="44.4862142" lon="11.3408781"><ele>80.0</ele><time>2026-04-08T13:57:31.412Z</time></trkpt><trkpt lat="44.4862027" lon="11.3410925"><ele>80.0</ele><time>2026-04-08T13:57:32.408Z</time></trkpt><trkpt lat="44.4861672" lon="11.3412962"><ele>80.0</ele><time>2026-04-08T13:57:33.408Z</time></trkpt><trkpt lat="44.4861369" lon="11.3415036"><ele>80.0</ele><time>2026-04-08T13:57:34.401Z</time></trkpt><trkpt lat="44.4861106" lon="11.3416904"><ele>80.0</ele><time>2026-04-08T13:57:35.412Z</time></trkpt><trkpt lat="44.4860867" lon="11.3418492"><ele>79.5</ele><time>2026-04-08T13:57:36.406Z</time></trkpt><trkpt lat="44.4860661" lon="11.3420428"><ele>79.0</ele><time>2026-04-08T13:57:37.411Z</time></trkpt><trkpt lat="44.4860586" lon="11.3422264"><ele>78.5</ele><time>2026-04-08T13:57:38.434Z</time></trkpt><trkpt lat="44.4860577" lon="11.3423716"><ele>78.0</ele><time>2026-04-08T13:57:39.431Z</time></trkpt><trkpt lat="44.4860482" lon="11.3425389"><ele>77.25</ele><time>2026-04-08T13:57:40.421Z</time></trkpt><trkpt lat="44.4860295" lon="11.3426958"><ele>76.5</ele><time>2026-04-08T13:57:41.416Z</time></trkpt><trkpt lat="44.4860087" lon="11.3428718"><ele>75.75</ele><time>2026-04-08T13:57:42.417Z</time></trkpt><trkpt lat="44.4859904" lon="11.3430425"><ele>75.0</ele><time>2026-04-08T13:57:43.419Z</time></trkpt><trkpt lat="44.4859662" lon="11.3432167"><ele>75.0</ele><time>2026-04-08T13:57:44.417Z</time></trkpt><trkpt lat="44.4859377" lon="11.3433878"><ele>75.0</ele><time>2026-04-08T13:57:45.413Z</time></trkpt><trkpt lat="44.4859107" lon="11.3435355"><ele>75.0</ele><time>2026-04-08T13:57:46.415Z</time></trkpt><trkpt lat="44.4858961" lon="11.3436766"><ele>75.0</ele><time>2026-04-08T13:57:47.444Z</time></trkpt><trkpt lat="44.4858811" lon="11.3438008"><ele>75.0</ele><time>2026-04-08T13:57:48.417Z</time></trkpt><trkpt lat="44.4858614" lon="11.3439053"><ele>74.83333333333333</ele><time>2026-04-08T13:57:49.412Z</time></trkpt><trkpt lat="44.48584" lon="11.3440041"><ele>74.66666666666667</ele><time>2026-04-08T13:57:50.414Z</time></trkpt><trkpt lat="44.4858143" lon="11.3440999"><ele>74.5</ele><time>2026-04-08T13:57:51.419Z</time></trkpt><trkpt lat="44.4857776" lon="11.3442259"><ele>74.33333333333334</ele><time>2026-04-08T13:57:53.416Z</time></trkpt><trkpt lat="44.4857664" lon="11.3443151"><ele>74.16666666666667</ele><time>2026-04-08T13:57:58.42Z</time></trkpt><trkpt lat="44.4857866" lon="11.3444947"><ele>74.0</ele><time>2026-04-08T13:58:30.421Z</time></trkpt><trkpt lat="44.4857733" lon="11.3446386"><ele>74.25</ele><time>2026-04-08T13:58:31.416Z</time></trkpt><trkpt lat="44.485762" lon="11.3448139"><ele>74.5</ele><time>2026-04-08T13:58:32.422Z</time></trkpt><trkpt lat="44.4857513" lon="11.3450022"><ele>74.75</ele><time>2026-04-08T13:58:33.421Z</time></trkpt><trkpt lat="44.4857431" lon="11.3451718"><ele>75.0</ele><time>2026-04-08T13:58:34.415Z</time></trkpt><trkpt lat="44.4857225" lon="11.3453652"><ele>75.0</ele><time>2026-04-08T13:58:35.426Z</time></trkpt><trkpt lat="44.4856983" lon="11.3455354"><ele>75.0</ele><time>2026-04-08T13:58:36.42Z</time></trkpt><trkpt lat="44.4856805" lon="11.3456753"><ele>75.0</ele><time>2026-04-08T13:58:37.42Z</time></trkpt><trkpt lat="44.4856871" lon="11.3457952"><ele>75.0</ele><time>2026-04-08T13:58:38.42Z</time></trkpt><trkpt lat="44.485668" lon="11.345897"><ele>75.0</ele><time>2026-04-08T13:58:39.427Z</time></trkpt><trkpt lat="44.4856511" lon="11.3460402"><ele>75.16666666666667</ele><time>2026-04-08T13:58:41.423Z</time></trkpt><trkpt lat="44.4856101" lon="11.3461481"><ele>75.33333333333333</ele><time>2026-04-08T13:58:44.415Z</time></trkpt><trkpt lat="44.4855611" lon="11.3462607"><ele>75.5</ele><time>2026-04-08T13:58:47.643Z</time></trkpt><trkpt lat="44.4855393" lon="11.3463556"><ele>75.66666666666666</ele><time>2026-04-08T13:58:49.45Z</time></trkpt><trkpt lat="44.4855451" lon="11.3464752"><ele>75.83333333333333</ele><time>2026-04-08T13:58:52.439Z</time></trkpt><trkpt lat="44.4855949" lon="11.3465384"><ele>76.0</ele><time>2026-04-08T13:58:55.427Z</time></trkpt><trkpt lat="44.4855951" lon="11.3466598"><ele>75.66666666666666</ele><time>2026-04-08T13:59:01.427Z</time></trkpt><trkpt lat="44.4855871" lon="11.3467834"><ele>75.33333333333333</ele><time>2026-04-08T13:59:06.429Z</time></trkpt><trkpt lat="44.4855763" lon="11.3468939"><ele>75.0</ele><time>2026-04-08T13:59:09.453Z</time></trkpt><trkpt lat="44.4855724" lon="11.3469829"><ele>74.66666666666667</ele><time>2026-04-08T13:59:11.427Z</time></trkpt><trkpt lat="44.4855536" lon="11.34717"><ele>74.33333333333334</ele><time>2026-04-08T13:59:13.428Z</time></trkpt><trkpt lat="44.4855322" lon="11.3472718"><ele>74.0</ele><time>2026-04-08T13:59:14.429Z</time></trkpt><trkpt lat="44.485521" lon="11.3473836"><ele>74.0</ele><time>2026-04-08T13:59:15.433Z</time></trkpt><trkpt lat="44.4855079" lon="11.3475088"><ele>74.0</ele><time>2026-04-08T13:59:16.433Z</time></trkpt><trkpt lat="44.4854989" lon="11.3476495"><ele>74.0</ele><time>2026-04-08T13:59:17.425Z</time></trkpt><trkpt lat="44.4854817" lon="11.347795"><ele>74.0</ele><time>2026-04-08T13:59:18.43Z</time></trkpt><trkpt lat="44.4854693" lon="11.3479413"><ele>74.0</ele><time>2026-04-08T13:59:19.434Z</time></trkpt><trkpt lat="44.4854584" lon="11.3480805"><ele>74.0</ele><time>2026-04-08T13:59:20.45Z</time></trkpt><trkpt lat="44.4854397" lon="11.3482233"><ele>74.0</ele><time>2026-04-08T13:59:21.431Z</time></trkpt><trkpt lat="44.4854159" lon="11.3483735"><ele>74.0</ele><time>2026-04-08T13:59:22.424Z</time></trkpt><trkpt lat="44.485388" lon="11.3485341"><ele>74.0</ele><time>2026-04-08T13:59:23.593Z</time></trkpt><trkpt lat="44.4853438" lon="11.3488634"><ele>73.5</ele><time>2026-04-08T13:59:25.434Z</time></trkpt><trkpt lat="44.4853259" lon="11.3490414"><ele>73.0</ele><time>2026-04-08T13:59:26.431Z</time></trkpt><trkpt lat="44.4853001" lon="11.3492191"><ele>72.5</ele><time>2026-04-08T13:59:27.433Z</time></trkpt><trkpt lat="44.4852718" lon="11.3493998"><ele>72.0</ele><time>2026-04-08T13:59:28.437Z</time></trkpt><trkpt lat="44.4852443" lon="11.3496031"><ele>72.33333333333333</ele><time>2026-04-08T13:59:29.43Z</time></trkpt><trkpt lat="44.4851996" lon="11.3498604"><ele>72.66666666666666</ele><time>2026-04-08T13:59:30.43Z</time></trkpt><trkpt lat="44.485155" lon="11.3501047"><ele>73.0</ele><time>2026-04-08T13:59:31.429Z</time></trkpt><trkpt lat="44.4851214" lon="11.3503136"><ele>73.0</ele><time>2026-04-08T13:59:32.431Z</time></trkpt><trkpt lat="44.4850998" lon="11.3504806"><ele>73.0</ele><time>2026-04-08T13:59:33.433Z</time></trkpt><trkpt lat="44.4850878" lon="11.3506671"><ele>73.0</ele><time>2026-04-08T13:59:34.427Z</time></trkpt><trkpt lat="44.4850742" lon="11.3508557"><ele>73.0</ele><time>2026-04-08T13:59:35.431Z</time></trkpt><trkpt lat="44.4850681" lon="11.3510627"><ele>73.33333333333333</ele><time>2026-04-08T13:59:36.431Z</time></trkpt><trkpt lat="44.4850311" lon="11.3512897"><ele>73.66666666666667</ele><time>2026-04-08T13:59:37.43Z</time></trkpt><trkpt lat="44.4849998" lon="11.3515497"><ele>74.0</ele><time>2026-04-08T13:59:38.431Z</time></trkpt><trkpt lat="44.4849528" lon="11.3518254"><ele>74.0</ele><time>2026-04-08T13:59:39.426Z</time></trkpt><trkpt lat="44.4849134" lon="11.3520686"><ele>74.0</ele><time>2026-04-08T13:59:40.417Z</time></trkpt><trkpt lat="44.484869" lon="11.3522816"><ele>74.0</ele><time>2026-04-08T13:59:41.426Z</time></trkpt><trkpt lat="44.4848388" lon="11.3524907"><ele>74.0</ele><time>2026-04-08T13:59:42.427Z</time></trkpt><trkpt lat="44.4848213" lon="11.3526927"><ele>74.0</ele><time>2026-04-08T13:59:43.423Z</time></trkpt><trkpt lat="44.4847815" lon="11.3528968"><ele>74.0</ele><time>2026-04-08T13:59:44.432Z</time></trkpt><trkpt lat="44.4847328" lon="11.3531177"><ele>73.75</ele><time>2026-04-08T13:59:45.456Z</time></trkpt><trkpt lat="44.4847163" lon="11.3533058"><ele>73.5</ele><time>2026-04-08T13:59:46.452Z</time></trkpt><trkpt lat="44.4847046" lon="11.3534863"><ele>73.25</ele><time>2026-04-08T13:59:47.456Z</time></trkpt><trkpt lat="44.4846885" lon="11.3536895"><ele>73.0</ele><time>2026-04-08T13:59:48.434Z</time></trkpt><trkpt lat="44.4846831" lon="11.3539086"><ele>72.33333333333333</ele><time>2026-04-08T13:59:49.451Z</time></trkpt><trkpt lat="44.4846846" lon="11.354177"><ele>71.66666666666667</ele><time>2026-04-08T13:59:50.451Z</time></trkpt><trkpt lat="44.4846553" lon="11.3544294"><ele>71.0</ele><time>2026-04-08T13:59:51.431Z</time></trkpt><trkpt lat="44.4846039" lon="11.3546805"><ele>71.0</ele><time>2026-04-08T13:59:52.431Z</time></trkpt><trkpt lat="44.4845574" lon="11.3549105"><ele>71.0</ele><time>2026-04-08T13:59:53.426Z</time></trkpt><trkpt lat="44.4845386" lon="11.3551275"><ele>71.0</ele><time>2026-04-08T13:59:54.435Z</time></trkpt><trkpt lat="44.4844926" lon="11.3553171"><ele>71.0</ele><time>2026-04-08T13:59:55.435Z</time></trkpt><trkpt lat="44.4844859" lon="11.3554897"><ele>71.0</ele><time>2026-04-08T13:59:56.454Z</time></trkpt><trkpt lat="44.4844707" lon="11.3556439"><ele>71.0</ele><time>2026-04-08T13:59:57.415Z</time></trkpt><trkpt lat="44.4844351" lon="11.3557916"><ele>71.0</ele><time>2026-04-08T13:59:58.418Z</time></trkpt><trkpt lat="44.4844088" lon="11.3559407"><ele>70.8</ele><time>2026-04-08T13:59:59.574Z</time></trkpt><trkpt lat="44.4844046" lon="11.3561894"><ele>70.6</ele><time>2026-04-08T14:00:01.471Z</time></trkpt><trkpt lat="44.4844248" lon="11.3562792"><ele>70.4</ele><time>2026-04-08T14:00:02.447Z</time></trkpt><trkpt lat="44.4844613" lon="11.3563711"><ele>70.2</ele><time>2026-04-08T14:00:04.453Z</time></trkpt><trkpt lat="44.4845053" lon="11.3564631"><ele>70.0</ele><time>2026-04-08T14:00:44.433Z</time></trkpt><trkpt lat="44.4846029" lon="11.3566193"><ele>70.0</ele><time>2026-04-08T14:00:46.412Z</time></trkpt><trkpt lat="44.4847074" lon="11.3567155"><ele>70.0</ele><time>2026-04-08T14:00:47.402Z</time></trkpt><trkpt lat="44.4848351" lon="11.3568483"><ele>70.0</ele><time>2026-04-08T14:00:48.402Z</time></trkpt><trkpt lat="44.4849944" lon="11.3570738"><ele>68.5</ele><time>2026-04-08T14:00:49.41Z</time></trkpt><trkpt lat="44.4851503" lon="11.3572802"><ele>67.0</ele><time>2026-04-08T14:00:50.405Z</time></trkpt><trkpt lat="44.4853222" lon="11.35753"><ele>66.75</ele><time>2026-04-08T14:00:51.403Z</time></trkpt><trkpt lat="44.48543" lon="11.3577138"><ele>66.5</ele><time>2026-04-08T14:00:52.4Z</time></trkpt><trkpt lat="44.4855201" lon="11.3578585"><ele>66.25</ele><time>2026-04-08T14:00:53.485Z</time></trkpt><trkpt lat="44.4856057" lon="11.3579707"><ele>66.0</ele><time>2026-04-08T14:00:54.639Z</time></trkpt><trkpt lat="44.4856901" lon="11.3580473"><ele>66.0</ele><time>2026-04-08T14:00:55.565Z</time></trkpt><trkpt lat="44.4858011" lon="11.3580897"><ele>66.0</ele><time>2026-04-08T14:00:56.72Z</time></trkpt><trkpt lat="44.4859369" lon="11.358048"><ele>66.0</ele><time>2026-04-08T14:00:58.643Z</time></trkpt><trkpt lat="44.4859908" lon="11.3579675"><ele>66.0</ele><time>2026-04-08T14:01:10.547Z</time></trkpt><trkpt lat="44.486068" lon="11.3579345"><ele>66.0</ele><time>2026-04-08T14:01:31.562Z</time></trkpt><trkpt lat="44.4862445" lon="11.3579014"><ele>65.66666666666667</ele><time>2026-04-08T14:01:33.555Z</time></trkpt><trkpt lat="44.4863887" lon="11.3578853"><ele>65.33333333333334</ele><time>2026-04-08T14:01:34.553Z</time></trkpt><trkpt lat="44.4865464" lon="11.3578772"><ele>65.0</ele><time>2026-04-08T14:01:35.547Z</time></trkpt><trkpt lat="44.4867081" lon="11.3578602"><ele>65.0</ele><time>2026-04-08T14:01:36.55Z</time></trkpt><trkpt lat="44.4868409" lon="11.3578392"><ele>65.0</ele><time>2026-04-08T14:01:37.55Z</time></trkpt><trkpt lat="44.4869515" lon="11.3578035"><ele>65.0</ele><time>2026-04-08T14:01:38.551Z</time></trkpt><trkpt lat="44.4870302" lon="11.3578189"><ele>65.0</ele><time>2026-04-08T14:01:39.55Z</time></trkpt><trkpt lat="44.4871545" lon="11.3578268"><ele>64.4</ele><time>2026-04-08T14:01:51.556Z</time></trkpt><trkpt lat="44.4872374" lon="11.3578193"><ele>63.8</ele><time>2026-04-08T14:01:53.405Z</time></trkpt><trkpt lat="44.4873294" lon="11.3578638"><ele>63.2</ele><time>2026-04-08T14:01:55.716Z</time></trkpt><trkpt lat="44.4874042" lon="11.3579946"><ele>62.6</ele><time>2026-04-08T14:01:57.718Z</time></trkpt><trkpt lat="44.4874213" lon="11.3581297"><ele>62.0</ele><time>2026-04-08T14:01:58.715Z</time></trkpt><trkpt lat="44.4874306" lon="11.3584777"><ele>62.0</ele><time>2026-04-08T14:02:00.395Z</time></trkpt><trkpt lat="44.4874122" lon="11.3586867"><ele>62.0</ele><time>2026-04-08T14:02:01.393Z</time></trkpt><trkpt lat="44.48741" lon="11.3589234"><ele>62.0</ele><time>2026-04-08T14:02:02.554Z</time></trkpt><trkpt lat="44.4874738" lon="11.3594778"><ele>62.0</ele><time>2026-04-08T14:02:04.398Z</time></trkpt><trkpt lat="44.4874366" lon="11.3596933"><ele>62.0</ele><time>2026-04-08T14:02:05.389Z</time></trkpt><trkpt lat="44.4874984" lon="11.35998"><ele>62.0</ele><time>2026-04-08T14:02:06.396Z</time></trkpt><trkpt lat="44.4876003" lon="11.3602151"><ele>61.66666666666667</ele><time>2026-04-08T14:02:07.556Z</time></trkpt><trkpt lat="44.4876498" lon="11.3604492"><ele>61.33333333333333</ele><time>2026-04-08T14:02:08.549Z</time></trkpt><trkpt lat="44.4876097" lon="11.3606642"><ele>61.0</ele><time>2026-04-08T14:02:09.553Z</time></trkpt><trkpt lat="44.4875492" lon="11.3608118"><ele>60.8</ele><time>2026-04-08T14:02:10.555Z</time></trkpt><trkpt lat="44.4874796" lon="11.3609068"><ele>60.599999999999994</ele><time>2026-04-08T14:02:11.554Z</time></trkpt><trkpt lat="44.4874186" lon="11.360998"><ele>60.4</ele><time>2026-04-08T14:02:12.559Z</time></trkpt><trkpt lat="44.4873763" lon="11.3610812"><ele>60.2</ele><time>2026-04-08T14:02:13.556Z</time></trkpt><trkpt lat="44.4873411" lon="11.3611604"><ele>60.0</ele><time>2026-04-08T14:02:14.559Z</time></trkpt><trkpt lat="44.4872607" lon="11.3613587"><ele>60.8</ele><time>2026-04-08T14:02:17.719Z</time></trkpt><trkpt lat="44.4872306" lon="11.3614384"><ele>61.6</ele><time>2026-04-08T14:02:18.724Z</time></trkpt><trkpt lat="44.4871967" lon="11.3615275"><ele>62.400000000000006</ele><time>2026-04-08T14:02:19.719Z</time></trkpt><trkpt lat="44.4871453" lon="11.3616287"><ele>63.2</ele><time>2026-04-08T14:02:20.721Z</time></trkpt><trkpt lat="44.487086" lon="11.3617577"><ele>64.0</ele><time>2026-04-08T14:02:21.713Z</time></trkpt><trkpt lat="44.4869473" lon="11.3620311"><ele>64.25</ele><time>2026-04-08T14:02:23.517Z</time></trkpt><trkpt lat="44.4868791" lon="11.3621755"><ele>64.5</ele><time>2026-04-08T14:02:24.539Z</time></trkpt><trkpt lat="44.4868145" lon="11.3623444"><ele>64.75</ele><time>2026-04-08T14:02:25.562Z</time></trkpt><trkpt lat="44.4867355" lon="11.3624959"><ele>65.0</ele><time>2026-04-08T14:02:26.559Z</time></trkpt><trkpt lat="44.4866129" lon="11.3626437"><ele>65.0</ele><time>2026-04-08T14:02:27.717Z</time></trkpt><trkpt lat="44.4865012" lon="11.3629169"><ele>65.0</ele><time>2026-04-08T14:02:29.554Z</time></trkpt><trkpt lat="44.4864775" lon="11.3630814"><ele>65.0</ele><time>2026-04-08T14:02:30.561Z</time></trkpt><trkpt lat="44.4864618" lon="11.363187"><ele>65.0</ele><time>2026-04-08T14:02:31.553Z</time></trkpt><trkpt lat="44.4864071" lon="11.3633207"><ele>64.5</ele><time>2026-04-08T14:02:32.561Z</time></trkpt><trkpt lat="44.4863846" lon="11.3634444"><ele>64.0</ele><time>2026-04-08T14:02:33.564Z</time></trkpt><trkpt lat="44.4863654" lon="11.3635473"><ele>63.5</ele><time>2026-04-08T14:02:34.568Z</time></trkpt><trkpt lat="44.4862915" lon="11.3637894"><ele>63.0</ele><time>2026-04-08T14:02:36.564Z</time></trkpt><trkpt lat="44.4862358" lon="11.3639345"><ele>63.0</ele><time>2026-04-08T14:02:37.723Z</time></trkpt><trkpt lat="44.4861617" lon="11.3641134"><ele>63.0</ele><time>2026-04-08T14:02:38.729Z</time></trkpt><trkpt lat="44.486012" lon="11.3644091"><ele>63.0</ele><time>2026-04-08T14:02:40.406Z</time></trkpt><trkpt lat="44.485953" lon="11.3645444"><ele>63.0</ele><time>2026-04-08T14:02:41.566Z</time></trkpt><trkpt lat="44.4859021" lon="11.364678"><ele>63.0</ele><time>2026-04-08T14:02:42.565Z</time></trkpt><trkpt lat="44.48585" lon="11.364804"><ele>63.0</ele><time>2026-04-08T14:02:43.727Z</time></trkpt><trkpt lat="44.4857978" lon="11.3649133"><ele>63.0</ele><time>2026-04-08T14:02:44.724Z</time></trkpt><trkpt lat="44.4857507" lon="11.3650145"><ele>63.0</ele><time>2026-04-08T14:02:45.73Z</time></trkpt><trkpt lat="44.4857053" lon="11.3651099"><ele>63.2</ele><time>2026-04-08T14:02:46.728Z</time></trkpt><trkpt lat="44.4856675" lon="11.3652049"><ele>63.4</ele><time>2026-04-08T14:02:47.723Z</time></trkpt><trkpt lat="44.4855995" lon="11.3653756"><ele>63.60000000000001</ele><time>2026-04-08T14:02:49.709Z</time></trkpt><trkpt lat="44.4855543" lon="11.3654879"><ele>63.800000000000004</ele><time>2026-04-08T14:02:52.418Z</time></trkpt><trkpt lat="44.4855184" lon="11.3656354"><ele>64.0</ele><time>2026-04-08T14:03:05.394Z</time></trkpt><trkpt lat="44.4854738" lon="11.3657393"><ele>63.5</ele><time>2026-04-08T14:03:06.402Z</time></trkpt><trkpt lat="44.4854058" lon="11.3658828"><ele>63.0</ele><time>2026-04-08T14:03:07.404Z</time></trkpt><trkpt lat="44.4853183" lon="11.3660663"><ele>62.5</ele><time>2026-04-08T14:03:08.399Z</time></trkpt><trkpt lat="44.4852404" lon="11.3662593"><ele>62.0</ele><time>2026-04-08T14:03:09.401Z</time></trkpt><trkpt lat="44.4851724" lon="11.3664711"><ele>62.0</ele><time>2026-04-08T14:03:10.399Z</time></trkpt><trkpt lat="44.485113" lon="11.3666268"><ele>62.0</ele><time>2026-04-08T14:03:11.406Z</time></trkpt><trkpt lat="44.4850842" lon="11.3667447"><ele>62.0</ele><time>2026-04-08T14:03:12.404Z</time></trkpt><trkpt lat="44.4850106" lon="11.3669208"><ele>62.0</ele><time>2026-04-08T14:03:13.41Z</time></trkpt><trkpt lat="44.4849281" lon="11.3670936"><ele>62.2</ele><time>2026-04-08T14:03:14.411Z</time></trkpt><trkpt lat="44.4848664" lon="11.3672507"><ele>62.400000000000006</ele><time>2026-04-08T14:03:15.415Z</time></trkpt><trkpt lat="44.4848226" lon="11.3673821"><ele>62.599999999999994</ele><time>2026-04-08T14:03:16.406Z</time></trkpt><trkpt lat="44.4847761" lon="11.3675002"><ele>62.8</ele><time>2026-04-08T14:03:17.491Z</time></trkpt><trkpt lat="44.4847413" lon="11.367615"><ele>63.0</ele><time>2026-04-08T14:03:18.4Z</time></trkpt><trkpt lat="44.484708" lon="11.3677198"><ele>63.0</ele><time>2026-04-08T14:03:19.645Z</time></trkpt><trkpt lat="44.4846676" lon="11.367814"><ele>63.0</ele><time>2026-04-08T14:03:20.731Z</time></trkpt><trkpt lat="44.4846234" lon="11.3679016"><ele>63.0</ele><time>2026-04-08T14:03:21.805Z</time></trkpt><trkpt lat="44.4845816" lon="11.3679873"><ele>63.0</ele><time>2026-04-08T14:03:22.733Z</time></trkpt><trkpt lat="44.4845423" lon="11.3680649"><ele>63.0</ele><time>2026-04-08T14:03:23.732Z</time></trkpt><trkpt lat="44.4844488" lon="11.3682422"><ele>63.2</ele><time>2026-04-08T14:03:26.69Z</time></trkpt><trkpt lat="44.4843905" lon="11.3683472"><ele>63.4</ele><time>2026-04-08T14:03:28.72Z</time></trkpt><trkpt lat="44.4844765" lon="11.3684476"><ele>63.60000000000001</ele><time>2026-04-08T14:03:33.554Z</time></trkpt><trkpt lat="44.4845731" lon="11.3685143"><ele>63.800000000000004</ele><time>2026-04-08T14:03:35.547Z</time></trkpt><trkpt lat="44.4846339" lon="11.3685478"><ele>64.0</ele><time>2026-04-08T14:03:36.554Z</time></trkpt><trkpt lat="44.4847161" lon="11.3685814"><ele>63.5</ele><time>2026-04-08T14:03:37.546Z</time></trkpt><trkpt lat="44.4848007" lon="11.3686175"><ele>63.0</ele><time>2026-04-08T14:03:38.72Z</time></trkpt><trkpt lat="44.4850169" lon="11.3687227"><ele>62.5</ele><time>2026-04-08T14:03:40.715Z</time></trkpt><trkpt lat="44.4851366" lon="11.3687886"><ele>62.0</ele><time>2026-04-08T14:03:41.714Z</time></trkpt><trkpt lat="44.4852488" lon="11.3688539"><ele>61.5</ele><time>2026-04-08T14:03:42.719Z</time></trkpt><trkpt lat="44.4854385" lon="11.3689611"><ele>61.0</ele><time>2026-04-08T14:03:44.559Z</time></trkpt><trkpt lat="44.4855116" lon="11.3690055"><ele>60.5</ele><time>2026-04-08T14:03:46.558Z</time></trkpt><trkpt lat="44.4855762" lon="11.3690252"><ele>60.0</ele><time>2026-04-08T14:03:57.406Z</time></trkpt><trkpt lat="44.4854179" lon="11.3691225"><ele>60.0</ele><time>2026-04-08T14:05:53.411Z</time></trkpt><trkpt lat="44.4856573" lon="11.3691332"><ele>60.0</ele><time>2026-04-08T14:06:16.378Z</time></trkpt><trkpt lat="44.485407" lon="11.3687967"><ele>60.0</ele><time>2026-04-08T14:06:18.379Z</time></trkpt><trkpt lat="44.4853934" lon="11.3688967"><ele>60.0</ele><time>2026-04-08T14:06:20.388Z</time></trkpt><trkpt lat="44.4854338" lon="11.3689774"><ele>60.0</ele><time>2026-04-08T14:06:56.385Z</time></trkpt><trkpt lat="44.4854244" lon="11.3690931"><ele>60.0</ele><time>2026-04-08T14:08:18.416Z</time></trkpt><trkpt lat="44.4852052" lon="11.3690242"><ele>60.0</ele><time>2026-04-08T14:08:21.413Z</time></trkpt><trkpt lat="44.4852522" lon="11.3689596"><ele>60.0</ele><time>2026-04-08T14:08:49.397Z</time></trkpt><trkpt lat="44.485306" lon="11.3688977"><ele>60.0</ele><time>2026-04-08T14:08:59.391Z</time></trkpt><trkpt lat="44.4853731" lon="11.3688547"><ele>60.0</ele><time>2026-04-08T14:09:27.397Z</time></trkpt><trkpt lat="44.4854346" lon="11.3689267"><ele>60.0</ele><time>2026-04-08T14:09:32.385Z</time></trkpt><trkpt lat="44.4856021" lon="11.3689118"><ele>60.0</ele><time>2026-04-08T14:12:38.564Z</time></trkpt><trkpt lat="44.4856108" lon="11.3690471"><ele>60.0</ele><time>2026-04-08T14:12:42.563Z</time></trkpt><trkpt lat="44.4855917" lon="11.3691469"><ele>60.0</ele><time>2026-04-08T14:12:43.56Z</time></trkpt><trkpt lat="44.4855469" lon="11.3692566"><ele>60.0</ele><time>2026-04-08T14:12:44.559Z</time></trkpt><trkpt lat="44.4854591" lon="11.3694879"><ele>60.0</ele><time>2026-04-08T14:12:46.396Z</time></trkpt><trkpt lat="44.4854129" lon="11.3696118"><ele>60.57142857142857</ele><time>2026-04-08T14:12:47.392Z</time></trkpt><trkpt lat="44.4853642" lon="11.3697124"><ele>61.14285714285714</ele><time>2026-04-08T14:12:48.394Z</time></trkpt><trkpt lat="44.4853256" lon="11.3698031"><ele>61.71428571428571</ele><time>2026-04-08T14:12:49.401Z</time></trkpt><trkpt lat="44.4852843" lon="11.3698812"><ele>62.285714285714285</ele><time>2026-04-08T14:12:50.401Z</time></trkpt><trkpt lat="44.4852386" lon="11.3699583"><ele>62.85714285714285</ele><time>2026-04-08T14:12:51.404Z</time></trkpt><trkpt lat="44.4851909" lon="11.3700266"><ele>63.42857142857142</ele><time>2026-04-08T14:12:52.407Z</time></trkpt><trkpt lat="44.4851464" lon="11.3701054"><ele>64.0</ele><time>2026-04-08T14:12:53.406Z</time></trkpt><trkpt lat="44.4850964" lon="11.3701835"><ele>63.99999999999999</ele><time>2026-04-08T14:12:54.398Z</time></trkpt><trkpt lat="44.4850493" lon="11.370277"><ele>64.0</ele><time>2026-04-08T14:12:55.402Z</time></trkpt><trkpt lat="44.4849978" lon="11.3703661"><ele>64.0</ele><time>2026-04-08T14:12:56.4Z</time></trkpt><trkpt lat="44.484944" lon="11.3704625"><ele>64.0</ele><time>2026-04-08T14:12:57.401Z</time></trkpt><trkpt lat="44.4848967" lon="11.370574"><ele>63.99999999999999</ele><time>2026-04-08T14:12:58.565Z</time></trkpt><trkpt lat="44.484842" lon="11.3706888"><ele>64.0</ele><time>2026-04-08T14:12:59.565Z</time></trkpt><trkpt lat="44.484722" lon="11.37091"><ele>64.0</ele><time>2026-04-08T14:13:01.397Z</time></trkpt><trkpt lat="44.4846701" lon="11.3710226"><ele>64.0</ele><time>2026-04-08T14:13:02.559Z</time></trkpt><trkpt lat="44.4845611" lon="11.3712444"><ele>64.0</ele><time>2026-04-08T14:13:04.398Z</time></trkpt><trkpt lat="44.4845126" lon="11.371361"><ele>64.0</ele><time>2026-04-08T14:13:05.399Z</time></trkpt><trkpt lat="44.4844672" lon="11.3714737"><ele>63.800000000000004</ele><time>2026-04-08T14:13:06.556Z</time></trkpt><trkpt lat="44.4843837" lon="11.3716741"><ele>63.60000000000001</ele><time>2026-04-08T14:13:08.395Z</time></trkpt><trkpt lat="44.4843577" lon="11.3717556"><ele>63.4</ele><time>2026-04-08T14:13:09.397Z</time></trkpt><trkpt lat="44.4843313" lon="11.3718826"><ele>63.2</ele><time>2026-04-08T14:13:11.394Z</time></trkpt><trkpt lat="44.4843118" lon="11.3719724"><ele>63.0</ele><time>2026-04-08T14:13:14.402Z</time></trkpt><trkpt lat="44.4842683" lon="11.3721127"><ele>63.0</ele><time>2026-04-08T14:13:21.568Z</time></trkpt><trkpt lat="44.4842546" lon="11.3723079"><ele>63.0</ele><time>2026-04-08T14:13:33.404Z</time></trkpt><trkpt lat="44.4842266" lon="11.3723985"><ele>63.0</ele><time>2026-04-08T14:13:34.403Z</time></trkpt><trkpt lat="44.4841939" lon="11.3725065"><ele>63.0</ele><time>2026-04-08T14:13:35.403Z</time></trkpt><trkpt lat="44.4841545" lon="11.3726228"><ele>63.0</ele><time>2026-04-08T14:13:36.482Z</time></trkpt><trkpt lat="44.4841087" lon="11.372752"><ele>63.0</ele><time>2026-04-08T14:13:37.558Z</time></trkpt><trkpt lat="44.4840416" lon="11.3728985"><ele>63.0</ele><time>2026-04-08T14:13:38.556Z</time></trkpt><trkpt lat="44.4839209" lon="11.3732078"><ele>63.0</ele><time>2026-04-08T14:13:40.402Z</time></trkpt><trkpt lat="44.4838542" lon="11.3733396"><ele>63.33333333333333</ele><time>2026-04-08T14:13:41.561Z</time></trkpt><trkpt lat="44.4837576" lon="11.3736485"><ele>63.666666666666664</ele><time>2026-04-08T14:13:43.402Z</time></trkpt><trkpt lat="44.4837008" lon="11.3737994"><ele>64.0</ele><time>2026-04-08T14:13:44.397Z</time></trkpt><trkpt lat="44.4836482" lon="11.3739471"><ele>64.0</ele><time>2026-04-08T14:13:45.559Z</time></trkpt><trkpt lat="44.4836037" lon="11.3740668"><ele>64.0</ele><time>2026-04-08T14:13:46.393Z</time></trkpt><trkpt lat="44.4835602" lon="11.3741781"><ele>64.0</ele><time>2026-04-08T14:13:47.552Z</time></trkpt><trkpt lat="44.4835339" lon="11.3742689"><ele>64.0</ele><time>2026-04-08T14:13:48.561Z</time></trkpt><trkpt lat="44.4834914" lon="11.3744078"><ele>64.0</ele><time>2026-04-08T14:13:50.558Z</time></trkpt><trkpt lat="44.4834642" lon="11.3745577"><ele>64.0</ele><time>2026-04-08T14:13:52.551Z</time></trkpt><trkpt lat="44.4834494" lon="11.3746481"><ele>64.0</ele><time>2026-04-08T14:13:53.556Z</time></trkpt><trkpt lat="44.483398" lon="11.3748757"><ele>64.0</ele><time>2026-04-08T14:13:55.393Z</time></trkpt><trkpt lat="44.4833452" lon="11.3750094"><ele>64.0</ele><time>2026-04-08T14:13:56.395Z</time></trkpt><trkpt lat="44.4833048" lon="11.3751427"><ele>64.0</ele><time>2026-04-08T14:13:57.403Z</time></trkpt><trkpt lat="44.4832659" lon="11.3752678"><ele>63.2</ele><time>2026-04-08T14:13:58.4Z</time></trkpt><trkpt lat="44.4832308" lon="11.3753939"><ele>62.400000000000006</ele><time>2026-04-08T14:13:59.405Z</time></trkpt><trkpt lat="44.4831912" lon="11.3755194"><ele>61.6</ele><time>2026-04-08T14:14:00.407Z</time></trkpt><trkpt lat="44.4831489" lon="11.375657"><ele>60.8</ele><time>2026-04-08T14:14:01.4Z</time></trkpt><trkpt lat="44.4831024" lon="11.3757956"><ele>60.0</ele><time>2026-04-08T14:14:02.408Z</time></trkpt><trkpt lat="44.4830604" lon="11.3759324"><ele>59.5</ele><time>2026-04-08T14:14:03.567Z</time></trkpt><trkpt lat="44.4830222" lon="11.3760445"><ele>59.0</ele><time>2026-04-08T14:14:04.562Z</time></trkpt><trkpt lat="44.4829405" lon="11.3761999"><ele>58.5</ele><time>2026-04-08T14:14:06.404Z</time></trkpt><trkpt lat="44.4828748" lon="11.3763627"><ele>58.0</ele><time>2026-04-08T14:14:08.41Z</time></trkpt><trkpt lat="44.482822" lon="11.3765143"><ele>58.8</ele><time>2026-04-08T14:14:10.565Z</time></trkpt><trkpt lat="44.482771" lon="11.3765915"><ele>59.599999999999994</ele><time>2026-04-08T14:14:11.567Z</time></trkpt><trkpt lat="44.4827306" lon="11.3766946"><ele>60.400000000000006</ele><time>2026-04-08T14:14:12.403Z</time></trkpt><trkpt lat="44.4826944" lon="11.3768155"><ele>61.2</ele><time>2026-04-08T14:14:13.402Z</time></trkpt><trkpt lat="44.4826546" lon="11.3769431"><ele>62.0</ele><time>2026-04-08T14:14:14.408Z</time></trkpt><trkpt lat="44.4826134" lon="11.3770806"><ele>62.2</ele><time>2026-04-08T14:14:15.406Z</time></trkpt><trkpt lat="44.4825744" lon="11.3772194"><ele>62.400000000000006</ele><time>2026-04-08T14:14:16.407Z</time></trkpt><trkpt lat="44.4825366" lon="11.3773241"><ele>62.599999999999994</ele><time>2026-04-08T14:14:17.408Z</time></trkpt><trkpt lat="44.482497" lon="11.3774286"><ele>62.8</ele><time>2026-04-08T14:14:18.405Z</time></trkpt><trkpt lat="44.482456" lon="11.3775548"><ele>63.0</ele><time>2026-04-08T14:14:19.41Z</time></trkpt><trkpt lat="44.4824124" lon="11.377688"><ele>63.0</ele><time>2026-04-08T14:14:20.402Z</time></trkpt><trkpt lat="44.4823625" lon="11.3778272"><ele>63.0</ele><time>2026-04-08T14:14:21.404Z</time></trkpt><trkpt lat="44.4823057" lon="11.3779571"><ele>63.0</ele><time>2026-04-08T14:14:22.404Z</time></trkpt><trkpt lat="44.4822499" lon="11.3780751"><ele>63.0</ele><time>2026-04-08T14:14:23.406Z</time></trkpt><trkpt lat="44.482196" lon="11.378196"><ele>63.0</ele><time>2026-04-08T14:14:24.563Z</time></trkpt><trkpt lat="44.4821037" lon="11.3784681"><ele>62.8</ele><time>2026-04-08T14:14:26.409Z</time></trkpt><trkpt lat="44.4820643" lon="11.3786019"><ele>62.599999999999994</ele><time>2026-04-08T14:14:27.406Z</time></trkpt><trkpt lat="44.4820226" lon="11.3787219"><ele>62.400000000000006</ele><time>2026-04-08T14:14:28.413Z</time></trkpt><trkpt lat="44.481983" lon="11.3788493"><ele>62.2</ele><time>2026-04-08T14:14:29.408Z</time></trkpt><trkpt lat="44.4819462" lon="11.3789779"><ele>62.0</ele><time>2026-04-08T14:14:30.411Z</time></trkpt><trkpt lat="44.4819157" lon="11.3790972"><ele>62.00000000000001</ele><time>2026-04-08T14:14:31.41Z</time></trkpt><trkpt lat="44.4818817" lon="11.379193"><ele>62.0</ele><time>2026-04-08T14:14:32.407Z</time></trkpt><trkpt lat="44.4818533" lon="11.3792802"><ele>62.0</ele><time>2026-04-08T14:14:33.412Z</time></trkpt><trkpt lat="44.4818207" lon="11.379361"><ele>62.0</ele><time>2026-04-08T14:14:34.468Z</time></trkpt><trkpt lat="44.4817895" lon="11.3794437"><ele>62.00000000000001</ele><time>2026-04-08T14:14:35.404Z</time></trkpt><trkpt lat="44.4817334" lon="11.3795918"><ele>62.0</ele><time>2026-04-08T14:14:37.405Z</time></trkpt><trkpt lat="44.4816931" lon="11.3797379"><ele>61.833333333333336</ele><time>2026-04-08T14:14:39.406Z</time></trkpt><trkpt lat="44.4816753" lon="11.3798389"><ele>61.66666666666667</ele><time>2026-04-08T14:14:40.406Z</time></trkpt><trkpt lat="44.4816458" lon="11.3799549"><ele>61.5</ele><time>2026-04-08T14:14:41.403Z</time></trkpt><trkpt lat="44.4816151" lon="11.3800606"><ele>61.33333333333333</ele><time>2026-04-08T14:14:42.407Z</time></trkpt><trkpt lat="44.4815892" lon="11.3801562"><ele>61.166666666666664</ele><time>2026-04-08T14:14:43.403Z</time></trkpt><trkpt lat="44.4815676" lon="11.3802392"><ele>61.0</ele><time>2026-04-08T14:14:44.406Z</time></trkpt><trkpt lat="44.4815397" lon="11.380339"><ele>61.0</ele><time>2026-04-08T14:14:45.409Z</time></trkpt><trkpt lat="44.4815069" lon="11.38047"><ele>61.0</ele><time>2026-04-08T14:14:46.404Z</time></trkpt><trkpt lat="44.4814546" lon="11.3806245"><ele>61.0</ele><time>2026-04-08T14:14:47.408Z</time></trkpt><trkpt lat="44.4813898" lon="11.3807835"><ele>61.0</ele><time>2026-04-08T14:14:48.407Z</time></trkpt><trkpt lat="44.4813175" lon="11.3809352"><ele>61.0</ele><time>2026-04-08T14:14:49.405Z</time></trkpt><trkpt lat="44.481253" lon="11.3810822"><ele>60.99999999999999</ele><time>2026-04-08T14:14:50.403Z</time></trkpt><trkpt lat="44.4812072" lon="11.3812142"><ele>60.99999999999999</ele><time>2026-04-08T14:14:51.407Z</time></trkpt><trkpt lat="44.4811664" lon="11.3813358"><ele>61.0</ele><time>2026-04-08T14:14:52.403Z</time></trkpt><trkpt lat="44.4811277" lon="11.3814384"><ele>61.0</ele><time>2026-04-08T14:14:53.562Z</time></trkpt><trkpt lat="44.4810975" lon="11.381533"><ele>61.0</ele><time>2026-04-08T14:14:54.489Z</time></trkpt><trkpt lat="44.4810518" lon="11.3816546"><ele>60.99999999999999</ele><time>2026-04-08T14:14:56.429Z</time></trkpt><trkpt lat="44.4810106" lon="11.3817544"><ele>60.99999999999999</ele><time>2026-04-08T14:14:58.428Z</time></trkpt><trkpt lat="44.4809542" lon="11.3818826"><ele>61.0</ele><time>2026-04-08T14:15:00.406Z</time></trkpt><trkpt lat="44.4808912" lon="11.3820076"><ele>61.0</ele><time>2026-04-08T14:15:02.567Z</time></trkpt><trkpt lat="44.4808357" lon="11.38205"><ele>61.0</ele><time>2026-04-08T14:15:08.564Z</time></trkpt><trkpt lat="44.4807805" lon="11.3821209"><ele>60.99999999999999</ele><time>2026-04-08T14:15:10.564Z</time></trkpt><trkpt lat="44.4807278" lon="11.3822121"><ele>60.99999999999999</ele><time>2026-04-08T14:15:11.641Z</time></trkpt><trkpt lat="44.4806587" lon="11.3823417"><ele>61.0</ele><time>2026-04-08T14:15:12.555Z</time></trkpt><trkpt lat="44.4805829" lon="11.3824669"><ele>61.0</ele><time>2026-04-08T14:15:13.555Z</time></trkpt><trkpt lat="44.4804915" lon="11.3826343"><ele>61.0</ele><time>2026-04-08T14:15:14.563Z</time></trkpt><trkpt lat="44.4803127" lon="11.3829786"><ele>61.0</ele><time>2026-04-08T14:15:16.406Z</time></trkpt><trkpt lat="44.480226" lon="11.3831614"><ele>61.666666666666664</ele><time>2026-04-08T14:15:17.403Z</time></trkpt><trkpt lat="44.4801375" lon="11.3834438"><ele>62.33333333333333</ele><time>2026-04-08T14:15:18.407Z</time></trkpt><trkpt lat="44.4800466" lon="11.3837029"><ele>63.0</ele><time>2026-04-08T14:15:19.57Z</time></trkpt><trkpt lat="44.479917" lon="11.3840681"><ele>63.0</ele><time>2026-04-08T14:15:21.405Z</time></trkpt><trkpt lat="44.4798604" lon="11.3842126"><ele>63.0</ele><time>2026-04-08T14:15:22.57Z</time></trkpt><trkpt lat="44.4798094" lon="11.3843666"><ele>63.0</ele><time>2026-04-08T14:15:23.569Z</time></trkpt><trkpt lat="44.4797469" lon="11.3845405"><ele>63.0</ele><time>2026-04-08T14:15:24.564Z</time></trkpt><trkpt lat="44.4796843" lon="11.3847103"><ele>62.75</ele><time>2026-04-08T14:15:25.569Z</time></trkpt><trkpt lat="44.4796228" lon="11.3848655"><ele>62.5</ele><time>2026-04-08T14:15:26.57Z</time></trkpt><trkpt lat="44.4795443" lon="11.3850439"><ele>62.25</ele><time>2026-04-08T14:15:27.566Z</time></trkpt><trkpt lat="44.4794672" lon="11.3852364"><ele>62.0</ele><time>2026-04-08T14:15:28.562Z</time></trkpt><trkpt lat="44.4793834" lon="11.3854173"><ele>62.66666666666667</ele><time>2026-04-08T14:15:29.566Z</time></trkpt><trkpt lat="44.4792955" lon="11.3855997"><ele>63.33333333333333</ele><time>2026-04-08T14:15:30.567Z</time></trkpt><trkpt lat="44.4792235" lon="11.3858075"><ele>64.0</ele><time>2026-04-08T14:15:31.567Z</time></trkpt><trkpt lat="44.4790974" lon="11.3862172"><ele>64.0</ele><time>2026-04-08T14:15:33.406Z</time></trkpt><trkpt lat="44.4790469" lon="11.3863935"><ele>64.0</ele><time>2026-04-08T14:15:34.565Z</time></trkpt><trkpt lat="44.4790108" lon="11.3865253"><ele>64.0</ele><time>2026-04-08T14:15:35.565Z</time></trkpt><trkpt lat="44.4789632" lon="11.3866593"><ele>64.0</ele><time>2026-04-08T14:15:36.563Z</time></trkpt><trkpt lat="44.4788986" lon="11.3868103"><ele>64.0</ele><time>2026-04-08T14:15:37.569Z</time></trkpt><trkpt lat="44.4788339" lon="11.3869949"><ele>64.0</ele><time>2026-04-08T14:15:38.572Z</time></trkpt><trkpt lat="44.478763" lon="11.3871816"><ele>64.0</ele><time>2026-04-08T14:15:39.571Z</time></trkpt><trkpt lat="44.4786288" lon="11.3875116"><ele>64.66666666666666</ele><time>2026-04-08T14:15:41.406Z</time></trkpt><trkpt lat="44.4785706" lon="11.3876933"><ele>65.33333333333333</ele><time>2026-04-08T14:15:42.403Z</time></trkpt><trkpt lat="44.4784864" lon="11.3878824"><ele>66.0</ele><time>2026-04-08T14:15:43.409Z</time></trkpt><trkpt lat="44.4784074" lon="11.3880708"><ele>66.0</ele><time>2026-04-08T14:15:44.405Z</time></trkpt><trkpt lat="44.4783506" lon="11.3882465"><ele>66.0</ele><time>2026-04-08T14:15:45.565Z</time></trkpt><trkpt lat="44.4782983" lon="11.3884163"><ele>66.0</ele><time>2026-04-08T14:15:46.57Z</time></trkpt><trkpt lat="44.4782266" lon="11.3885841"><ele>66.0</ele><time>2026-04-08T14:15:47.566Z</time></trkpt><trkpt lat="44.4781517" lon="11.388752"><ele>65.75</ele><time>2026-04-08T14:15:48.569Z</time></trkpt><trkpt lat="44.478093" lon="11.388928"><ele>65.5</ele><time>2026-04-08T14:15:49.569Z</time></trkpt><trkpt lat="44.4780459" lon="11.3890816"><ele>65.25</ele><time>2026-04-08T14:15:50.57Z</time></trkpt><trkpt lat="44.4779858" lon="11.3892933"><ele>65.0</ele><time>2026-04-08T14:15:52.405Z</time></trkpt><trkpt lat="44.477931" lon="11.389405"><ele>65.66666666666667</ele><time>2026-04-08T14:15:53.575Z</time></trkpt><trkpt lat="44.4778751" lon="11.3895377"><ele>66.33333333333333</ele><time>2026-04-08T14:15:54.559Z</time></trkpt><trkpt lat="44.4777527" lon="11.3898476"><ele>67.0</ele><time>2026-04-08T14:15:56.564Z</time></trkpt><trkpt lat="44.4776831" lon="11.3899971"><ele>67.0</ele><time>2026-04-08T14:15:57.646Z</time></trkpt><trkpt lat="44.477617" lon="11.3901276"><ele>67.0</ele><time>2026-04-08T14:15:58.724Z</time></trkpt><trkpt lat="44.4775646" lon="11.3902463"><ele>67.0</ele><time>2026-04-08T14:15:59.564Z</time></trkpt><trkpt lat="44.4775288" lon="11.3903412"><ele>67.0</ele><time>2026-04-08T14:16:00.569Z</time></trkpt><trkpt lat="44.4774751" lon="11.3904683"><ele>67.0</ele><time>2026-04-08T14:16:02.724Z</time></trkpt><trkpt lat="44.4774425" lon="11.3905599"><ele>67.0</ele><time>2026-04-08T14:17:23.409Z</time></trkpt><trkpt lat="44.4774025" lon="11.3906964"><ele>67.0</ele><time>2026-04-08T14:17:26.411Z</time></trkpt><trkpt lat="44.4773378" lon="11.3908528"><ele>67.0</ele><time>2026-04-08T14:17:28.403Z</time></trkpt><trkpt lat="44.4772909" lon="11.3909611"><ele>67.0</ele><time>2026-04-08T14:17:29.405Z</time></trkpt><trkpt lat="44.477222" lon="11.3910926"><ele>67.0</ele><time>2026-04-08T14:17:30.408Z</time></trkpt><trkpt lat="44.477146" lon="11.3912537"><ele>67.5</ele><time>2026-04-08T14:17:31.41Z</time></trkpt><trkpt lat="44.4770712" lon="11.3914223"><ele>68.0</ele><time>2026-04-08T14:17:32.401Z</time></trkpt><trkpt lat="44.4770028" lon="11.3915912"><ele>68.5</ele><time>2026-04-08T14:17:33.412Z</time></trkpt><trkpt lat="44.4769356" lon="11.3917729"><ele>69.0</ele><time>2026-04-08T14:17:34.42Z</time></trkpt><trkpt lat="44.476848" lon="11.3920056"><ele>67.33333333333333</ele><time>2026-04-08T14:17:35.433Z</time></trkpt><trkpt lat="44.4767569" lon="11.3922238"><ele>65.66666666666666</ele><time>2026-04-08T14:17:36.407Z</time></trkpt><trkpt lat="44.4766767" lon="11.3924313"><ele>64.0</ele><time>2026-04-08T14:17:37.41Z</time></trkpt><trkpt lat="44.4766203" lon="11.3926342"><ele>64.0</ele><time>2026-04-08T14:17:38.406Z</time></trkpt><trkpt lat="44.4765644" lon="11.3928149"><ele>64.0</ele><time>2026-04-08T14:17:39.434Z</time></trkpt><trkpt lat="44.4764892" lon="11.3929721"><ele>64.0</ele><time>2026-04-08T14:17:40.415Z</time></trkpt><trkpt lat="44.4764307" lon="11.3931253"><ele>64.0</ele><time>2026-04-08T14:17:41.407Z</time></trkpt><trkpt lat="44.4763878" lon="11.393278"><ele>63.800000000000004</ele><time>2026-04-08T14:17:42.417Z</time></trkpt><trkpt lat="44.4763413" lon="11.3934105"><ele>63.60000000000001</ele><time>2026-04-08T14:17:43.397Z</time></trkpt><trkpt lat="44.476303" lon="11.3935515"><ele>63.4</ele><time>2026-04-08T14:17:44.405Z</time></trkpt><trkpt lat="44.4762542" lon="11.3936654"><ele>63.2</ele><time>2026-04-08T14:17:45.42Z</time></trkpt><trkpt lat="44.4761957" lon="11.3937902"><ele>63.0</ele><time>2026-04-08T14:17:46.394Z</time></trkpt><trkpt lat="44.4761459" lon="11.393912"><ele>63.599999999999994</ele><time>2026-04-08T14:17:47.407Z</time></trkpt><trkpt lat="44.4760898" lon="11.3940348"><ele>64.19999999999999</ele><time>2026-04-08T14:17:48.399Z</time></trkpt><trkpt lat="44.4760387" lon="11.3941567"><ele>64.8</ele><time>2026-04-08T14:17:49.408Z</time></trkpt><trkpt lat="44.4759899" lon="11.3942881"><ele>65.39999999999999</ele><time>2026-04-08T14:17:50.398Z</time></trkpt><trkpt lat="44.4759379" lon="11.394404"><ele>66.0</ele><time>2026-04-08T14:17:51.397Z</time></trkpt><trkpt lat="44.4758941" lon="11.3945163"><ele>66.0</ele><time>2026-04-08T14:17:52.4Z</time></trkpt><trkpt lat="44.4758569" lon="11.3946174"><ele>66.0</ele><time>2026-04-08T14:17:53.402Z</time></trkpt><trkpt lat="44.4758257" lon="11.3947185"><ele>66.0</ele><time>2026-04-08T14:17:54.422Z</time></trkpt><trkpt lat="44.4757902" lon="11.3948087"><ele>66.0</ele><time>2026-04-08T14:17:55.398Z</time></trkpt><trkpt lat="44.4757522" lon="11.3948871"><ele>66.0</ele><time>2026-04-08T14:17:56.399Z</time></trkpt><trkpt lat="44.4757143" lon="11.3950078"><ele>66.0</ele><time>2026-04-08T14:17:58.402Z</time></trkpt><trkpt lat="44.4757404" lon="11.3951314"><ele>66.25</ele><time>2026-04-08T14:18:19.405Z</time></trkpt><trkpt lat="44.4757178" lon="11.3952949"><ele>66.5</ele><time>2026-04-08T14:18:21.398Z</time></trkpt><trkpt lat="44.4756821" lon="11.3954305"><ele>66.75</ele><time>2026-04-08T14:18:22.403Z</time></trkpt><trkpt lat="44.475646" lon="11.3955937"><ele>67.0</ele><time>2026-04-08T14:18:23.395Z</time></trkpt><trkpt lat="44.4755885" lon="11.3957681"><ele>67.0</ele><time>2026-04-08T14:18:24.398Z</time></trkpt><trkpt lat="44.4755127" lon="11.3959515"><ele>67.0</ele><time>2026-04-08T14:18:25.397Z</time></trkpt><trkpt lat="44.4754452" lon="11.3961754"><ele>67.0</ele><time>2026-04-08T14:18:26.397Z</time></trkpt><trkpt lat="44.4753608" lon="11.3963658"><ele>66.5</ele><time>2026-04-08T14:18:27.405Z</time></trkpt><trkpt lat="44.4752786" lon="11.3965382"><ele>66.0</ele><time>2026-04-08T14:18:28.4Z</time></trkpt><trkpt lat="44.4751898" lon="11.3967194"><ele>65.5</ele><time>2026-04-08T14:18:29.422Z</time></trkpt><trkpt lat="44.4750671" lon="11.3967913"><ele>65.0</ele><time>2026-04-08T14:18:30.393Z</time></trkpt><trkpt lat="44.4749765" lon="11.3968251"><ele>65.0</ele><time>2026-04-08T14:18:31.42Z</time></trkpt><trkpt lat="44.4748784" lon="11.396878"><ele>65.0</ele><time>2026-04-08T14:18:32.427Z</time></trkpt><trkpt lat="44.4747932" lon="11.3969134"><ele>65.0</ele><time>2026-04-08T14:18:33.413Z</time></trkpt><trkpt lat="44.4747272" lon="11.3969522"><ele>65.0</ele><time>2026-04-08T14:18:34.408Z</time></trkpt><trkpt lat="44.4746494" lon="11.3970624"><ele>65.0</ele><time>2026-04-08T14:18:35.428Z</time></trkpt><trkpt lat="44.4745841" lon="11.3972013"><ele>65.5</ele><time>2026-04-08T14:18:36.4Z</time></trkpt><trkpt lat="44.4745394" lon="11.3973696"><ele>66.0</ele><time>2026-04-08T14:18:37.401Z</time></trkpt><trkpt lat="44.4745224" lon="11.3975498"><ele>66.5</ele><time>2026-04-08T14:18:38.402Z</time></trkpt><trkpt lat="44.4745298" lon="11.3977408"><ele>67.0</ele><time>2026-04-08T14:18:39.401Z</time></trkpt><trkpt lat="44.4745335" lon="11.3979119"><ele>67.0</ele><time>2026-04-08T14:18:40.4Z</time></trkpt><trkpt lat="44.4745179" lon="11.3980801"><ele>67.0</ele><time>2026-04-08T14:18:41.401Z</time></trkpt><trkpt lat="44.4744941" lon="11.3982274"><ele>67.0</ele><time>2026-04-08T14:18:42.4Z</time></trkpt><trkpt lat="44.474471" lon="11.3983629"><ele>67.0</ele><time>2026-04-08T14:18:43.4Z</time></trkpt><trkpt lat="44.4744394" lon="11.3984617"><ele>67.0</ele><time>2026-04-08T14:18:44.401Z</time></trkpt><trkpt lat="44.4744088" lon="11.3985616"><ele>67.0</ele><time>2026-04-08T14:18:45.417Z</time></trkpt><trkpt lat="44.4743642" lon="11.3986589"><ele>67.0</ele><time>2026-04-08T14:18:46.398Z</time></trkpt><trkpt lat="44.4743204" lon="11.3987588"><ele>67.0</ele><time>2026-04-08T14:18:47.414Z</time></trkpt><trkpt lat="44.474279" lon="11.3988516"><ele>67.0</ele><time>2026-04-08T14:18:48.403Z</time></trkpt><trkpt lat="44.4742466" lon="11.3989313"><ele>67.0</ele><time>2026-04-08T14:18:49.404Z</time></trkpt><trkpt lat="44.4741839" lon="11.399094"><ele>67.0</ele><time>2026-04-08T14:18:51.4Z</time></trkpt><trkpt lat="44.4741521" lon="11.3991872"><ele>67.0</ele><time>2026-04-08T14:18:52.399Z</time></trkpt><trkpt lat="44.4741165" lon="11.3992956"><ele>67.0</ele><time>2026-04-08T14:18:53.403Z</time></trkpt><trkpt lat="44.4740774" lon="11.3994073"><ele>67.0</ele><time>2026-04-08T14:18:54.406Z</time></trkpt><trkpt lat="44.4740369" lon="11.3995005"><ele>67.0</ele><time>2026-04-08T14:18:55.484Z</time></trkpt><trkpt lat="44.4740011" lon="11.3995812"><ele>67.0</ele><time>2026-04-08T14:18:56.584Z</time></trkpt><trkpt lat="44.4739643" lon="11.3996931"><ele>67.0</ele><time>2026-04-08T14:18:58.406Z</time></trkpt><trkpt lat="44.4739245" lon="11.3998025"><ele>67.14285714285714</ele><time>2026-04-08T14:19:16.399Z</time></trkpt><trkpt lat="44.473891" lon="11.3999008"><ele>67.28571428571428</ele><time>2026-04-08T14:19:18.399Z</time></trkpt><trkpt lat="44.4738605" lon="11.3999842"><ele>67.42857142857142</ele><time>2026-04-08T14:19:19.401Z</time></trkpt><trkpt lat="44.4738211" lon="11.4000725"><ele>67.57142857142857</ele><time>2026-04-08T14:19:20.404Z</time></trkpt><trkpt lat="44.4737797" lon="11.4001507"><ele>67.71428571428571</ele><time>2026-04-08T14:19:21.4Z</time></trkpt><trkpt lat="44.4737375" lon="11.4002403"><ele>67.85714285714285</ele><time>2026-04-08T14:19:22.401Z</time></trkpt><trkpt lat="44.4736976" lon="11.400332"><ele>68.0</ele><time>2026-04-08T14:19:23.408Z</time></trkpt><trkpt lat="44.4736534" lon="11.4004261"><ele>66.83333333333334</ele><time>2026-04-08T14:19:24.419Z</time></trkpt><trkpt lat="44.4736028" lon="11.4005194"><ele>65.66666666666667</ele><time>2026-04-08T14:19:25.403Z</time></trkpt><trkpt lat="44.4735583" lon="11.4006129"><ele>64.5</ele><time>2026-04-08T14:19:26.408Z</time></trkpt><trkpt lat="44.4735244" lon="11.4006876"><ele>63.33333333333333</ele><time>2026-04-08T14:19:27.406Z</time></trkpt><trkpt lat="44.4734549" lon="11.4008317"><ele>62.166666666666664</ele><time>2026-04-08T14:19:29.426Z</time></trkpt><trkpt lat="44.4734241" lon="11.4009175"><ele>61.0</ele><time>2026-04-08T14:19:30.397Z</time></trkpt><trkpt lat="44.4734016" lon="11.4010118"><ele>60.99999999999999</ele><time>2026-04-08T14:19:31.406Z</time></trkpt><trkpt lat="44.4733775" lon="11.4011083"><ele>61.0</ele><time>2026-04-08T14:19:32.396Z</time></trkpt><trkpt lat="44.4733398" lon="11.4012081"><ele>61.0</ele><time>2026-04-08T14:19:33.4Z</time></trkpt><trkpt lat="44.4732977" lon="11.4013231"><ele>61.0</ele><time>2026-04-08T14:19:34.397Z</time></trkpt><trkpt lat="44.4732661" lon="11.4014252"><ele>60.99999999999999</ele><time>2026-04-08T14:19:35.4Z</time></trkpt><trkpt lat="44.4732112" lon="11.4015738"><ele>61.0</ele><time>2026-04-08T14:19:37.403Z</time></trkpt><trkpt lat="44.4731714" lon="11.4017228"><ele>61.199999999999996</ele><time>2026-04-08T14:19:39.445Z</time></trkpt><trkpt lat="44.4731508" lon="11.4018075"><ele>61.39999999999999</ele><time>2026-04-08T14:19:40.4Z</time></trkpt><trkpt lat="44.4731046" lon="11.4019639"><ele>61.6</ele><time>2026-04-08T14:19:42.417Z</time></trkpt><trkpt lat="44.473067" lon="11.4020591"><ele>61.8</ele><time>2026-04-08T14:19:43.402Z</time></trkpt><trkpt lat="44.4730172" lon="11.402163"><ele>62.0</ele><time>2026-04-08T14:19:44.391Z</time></trkpt><trkpt lat="44.4729584" lon="11.4022827"><ele>63.5</ele><time>2026-04-08T14:19:45.398Z</time></trkpt><trkpt lat="44.472905" lon="11.4024258"><ele>65.0</ele><time>2026-04-08T14:19:46.396Z</time></trkpt><trkpt lat="44.4728433" lon="11.4025917"><ele>66.5</ele><time>2026-04-08T14:19:47.399Z</time></trkpt><trkpt lat="44.4727751" lon="11.4027696"><ele>68.0</ele><time>2026-04-08T14:19:48.397Z</time></trkpt><trkpt lat="44.4726853" lon="11.4030011"><ele>68.0</ele><time>2026-04-08T14:19:49.391Z</time></trkpt><trkpt lat="44.4726195" lon="11.4032068"><ele>68.0</ele><time>2026-04-08T14:19:50.387Z</time></trkpt><trkpt lat="44.4725728" lon="11.403423"><ele>68.0</ele><time>2026-04-08T14:19:51.391Z</time></trkpt><trkpt lat="44.4725284" lon="11.4036274"><ele>68.0</ele><time>2026-04-08T14:19:52.393Z</time></trkpt><trkpt lat="44.4724581" lon="11.403799"><ele>68.0</ele><time>2026-04-08T14:19:53.385Z</time></trkpt><trkpt lat="44.4723846" lon="11.4039572"><ele>68.0</ele><time>2026-04-08T14:19:54.387Z</time></trkpt><trkpt lat="44.4723092" lon="11.4041102"><ele>68.0</ele><time>2026-04-08T14:19:55.391Z</time></trkpt><trkpt lat="44.4722132" lon="11.4042123"><ele>67.8</ele><time>2026-04-08T14:19:56.391Z</time></trkpt><trkpt lat="44.4721485" lon="11.404317"><ele>67.6</ele><time>2026-04-08T14:19:57.389Z</time></trkpt><trkpt lat="44.4721122" lon="11.4044695"><ele>67.4</ele><time>2026-04-08T14:19:58.397Z</time></trkpt><trkpt lat="44.4720655" lon="11.4045829"><ele>67.2</ele><time>2026-04-08T14:19:59.4Z</time></trkpt><trkpt lat="44.4720154" lon="11.4047336"><ele>67.0</ele><time>2026-04-08T14:20:00.39Z</time></trkpt><trkpt lat="44.4719556" lon="11.4048879"><ele>66.75</ele><time>2026-04-08T14:20:01.39Z</time></trkpt><trkpt lat="44.471888" lon="11.4050613"><ele>66.5</ele><time>2026-04-08T14:20:02.398Z</time></trkpt><trkpt lat="44.4718219" lon="11.4052416"><ele>66.25</ele><time>2026-04-08T14:20:03.395Z</time></trkpt><trkpt lat="44.4717791" lon="11.4054313"><ele>66.0</ele><time>2026-04-08T14:20:04.406Z</time></trkpt><trkpt lat="44.4717345" lon="11.4056047"><ele>66.0</ele><time>2026-04-08T14:20:05.398Z</time></trkpt><trkpt lat="44.4716766" lon="11.40575"><ele>66.0</ele><time>2026-04-08T14:20:06.396Z</time></trkpt><trkpt lat="44.4716243" lon="11.4059089"><ele>66.0</ele><time>2026-04-08T14:20:07.393Z</time></trkpt><trkpt lat="44.4715582" lon="11.4061094"><ele>66.0</ele><time>2026-04-08T14:20:08.393Z</time></trkpt><trkpt lat="44.4714951" lon="11.4063321"><ele>66.0</ele><time>2026-04-08T14:20:09.419Z</time></trkpt><trkpt lat="44.4714092" lon="11.4065504"><ele>66.0</ele><time>2026-04-08T14:20:10.392Z</time></trkpt><trkpt lat="44.4713077" lon="11.4067605"><ele>66.0</ele><time>2026-04-08T14:20:11.399Z</time></trkpt><trkpt lat="44.4712377" lon="11.4069119"><ele>65.75</ele><time>2026-04-08T14:20:12.397Z</time></trkpt><trkpt lat="44.4711652" lon="11.4070276"><ele>65.5</ele><time>2026-04-08T14:20:13.392Z</time></trkpt><trkpt lat="44.4711051" lon="11.4071771"><ele>65.25</ele><time>2026-04-08T14:20:14.391Z</time></trkpt><trkpt lat="44.4710676" lon="11.4073113"><ele>65.0</ele><time>2026-04-08T14:20:15.387Z</time></trkpt><trkpt lat="44.4709907" lon="11.4074532"><ele>65.2</ele><time>2026-04-08T14:20:16.386Z</time></trkpt><trkpt lat="44.4709383" lon="11.4075882"><ele>65.4</ele><time>2026-04-08T14:20:17.39Z</time></trkpt><trkpt lat="44.4708786" lon="11.4077429"><ele>65.6</ele><time>2026-04-08T14:20:18.388Z</time></trkpt><trkpt lat="44.4708156" lon="11.4078253"><ele>65.8</ele><time>2026-04-08T14:20:19.389Z</time></trkpt><trkpt lat="44.4707796" lon="11.4079446"><ele>66.0</ele><time>2026-04-08T14:20:20.406Z</time></trkpt><trkpt lat="44.4707395" lon="11.408075"><ele>66.0</ele><time>2026-04-08T14:20:22.385Z</time></trkpt><trkpt lat="44.4706962" lon="11.40818"><ele>66.0</ele><time>2026-04-08T14:20:23.382Z</time></trkpt><trkpt lat="44.4706518" lon="11.4082768"><ele>66.0</ele><time>2026-04-08T14:20:24.383Z</time></trkpt><trkpt lat="44.4705985" lon="11.4084049"><ele>66.0</ele><time>2026-04-08T14:20:25.39Z</time></trkpt><trkpt lat="44.4705464" lon="11.4085465"><ele>66.0</ele><time>2026-04-08T14:20:26.392Z</time></trkpt><trkpt lat="44.4705028" lon="11.4087138"><ele>66.0</ele><time>2026-04-08T14:20:27.394Z</time></trkpt><trkpt lat="44.4704595" lon="11.4088798"><ele>66.0</ele><time>2026-04-08T14:20:28.398Z</time></trkpt><trkpt lat="44.4704078" lon="11.4090367"><ele>66.0</ele><time>2026-04-08T14:20:29.39Z</time></trkpt><trkpt lat="44.4703509" lon="11.4091789"><ele>66.0</ele><time>2026-04-08T14:20:30.395Z</time></trkpt><trkpt lat="44.4702911" lon="11.4093376"><ele>66.0</ele><time>2026-04-08T14:20:31.394Z</time></trkpt><trkpt lat="44.4702295" lon="11.4095059"><ele>66.0</ele><time>2026-04-08T14:20:32.39Z</time></trkpt><trkpt lat="44.4701676" lon="11.4096914"><ele>66.0</ele><time>2026-04-08T14:20:33.396Z</time></trkpt><trkpt lat="44.4700975" lon="11.4098714"><ele>66.0</ele><time>2026-04-08T14:20:34.411Z</time></trkpt><trkpt lat="44.4700176" lon="11.410041"><ele>65.5</ele><time>2026-04-08T14:20:35.389Z</time></trkpt><trkpt lat="44.4699476" lon="11.4101892"><ele>65.0</ele><time>2026-04-08T14:20:36.396Z</time></trkpt><trkpt lat="44.4699117" lon="11.4103473"><ele>64.5</ele><time>2026-04-08T14:20:37.416Z</time></trkpt><trkpt lat="44.4698728" lon="11.4104864"><ele>64.0</ele><time>2026-04-08T14:20:38.392Z</time></trkpt><trkpt lat="44.4698079" lon="11.4106162"><ele>63.800000000000004</ele><time>2026-04-08T14:20:39.4Z</time></trkpt><trkpt lat="44.4697557" lon="11.4107773"><ele>63.60000000000001</ele><time>2026-04-08T14:20:40.393Z</time></trkpt><trkpt lat="44.4697124" lon="11.4109104"><ele>63.4</ele><time>2026-04-08T14:20:41.393Z</time></trkpt><trkpt lat="44.4696729" lon="11.4110352"><ele>63.2</ele><time>2026-04-08T14:20:42.387Z</time></trkpt><trkpt lat="44.4696298" lon="11.4111529"><ele>63.0</ele><time>2026-04-08T14:20:43.417Z</time></trkpt><trkpt lat="44.4695906" lon="11.4112469"><ele>63.0</ele><time>2026-04-08T14:20:44.418Z</time></trkpt><trkpt lat="44.4695552" lon="11.4113344"><ele>63.0</ele><time>2026-04-08T14:20:45.391Z</time></trkpt><trkpt lat="44.4695097" lon="11.4114844"><ele>63.0</ele><time>2026-04-08T14:20:47.416Z</time></trkpt><trkpt lat="44.4694803" lon="11.4115867"><ele>63.0</ele><time>2026-04-08T14:20:49.394Z</time></trkpt><trkpt lat="44.4694424" lon="11.4116779"><ele>63.0</ele><time>2026-04-08T14:21:13.385Z</time></trkpt><trkpt lat="44.4694218" lon="11.4117626"><ele>63.0</ele><time>2026-04-08T14:21:15.392Z</time></trkpt><trkpt lat="44.469396" lon="11.4118512"><ele>63.0</ele><time>2026-04-08T14:21:16.389Z</time></trkpt><trkpt lat="44.4693588" lon="11.4119463"><ele>63.0</ele><time>2026-04-08T14:21:17.391Z</time></trkpt><trkpt lat="44.4693075" lon="11.4120487"><ele>63.0</ele><time>2026-04-08T14:21:18.389Z</time></trkpt><trkpt lat="44.4692534" lon="11.4121613"><ele>63.0</ele><time>2026-04-08T14:21:19.389Z</time></trkpt><trkpt lat="44.4691978" lon="11.4122762"><ele>63.0</ele><time>2026-04-08T14:21:20.391Z</time></trkpt><trkpt lat="44.4691447" lon="11.4123709"><ele>63.0</ele><time>2026-04-08T14:21:21.391Z</time></trkpt><trkpt lat="44.4690974" lon="11.4124696"><ele>62.833333333333336</ele><time>2026-04-08T14:21:22.393Z</time></trkpt><trkpt lat="44.4690559" lon="11.4125545"><ele>62.66666666666667</ele><time>2026-04-08T14:21:23.392Z</time></trkpt><trkpt lat="44.4690182" lon="11.412637"><ele>62.5</ele><time>2026-04-08T14:21:24.39Z</time></trkpt><trkpt lat="44.4689829" lon="11.4127201"><ele>62.333333333333336</ele><time>2026-04-08T14:21:25.391Z</time></trkpt><trkpt lat="44.4689158" lon="11.4128592"><ele>62.16666666666667</ele><time>2026-04-08T14:21:27.389Z</time></trkpt><trkpt lat="44.4688826" lon="11.4129706"><ele>62.0</ele><time>2026-04-08T14:21:29.385Z</time></trkpt><trkpt lat="44.4688819" lon="11.4130708"><ele>62.0</ele><time>2026-04-08T14:21:38.392Z</time></trkpt><trkpt lat="44.4688175" lon="11.4132308"><ele>62.0</ele><time>2026-04-08T14:21:40.385Z</time></trkpt><trkpt lat="44.4687698" lon="11.4133202"><ele>62.0</ele><time>2026-04-08T14:21:41.386Z</time></trkpt><trkpt lat="44.4687312" lon="11.4134026"><ele>62.0</ele><time>2026-04-08T14:21:42.39Z</time></trkpt><trkpt lat="44.4686605" lon="11.4135375"><ele>62.0</ele><time>2026-04-08T14:21:44.384Z</time></trkpt><trkpt lat="44.4686274" lon="11.4136147"><ele>62.0</ele><time>2026-04-08T14:21:45.387Z</time></trkpt><trkpt lat="44.4685923" lon="11.4137216"><ele>62.0</ele><time>2026-04-08T14:21:46.389Z</time></trkpt><trkpt lat="44.4685468" lon="11.413874"><ele>62.0</ele><time>2026-04-08T14:21:47.392Z</time></trkpt><trkpt lat="44.4684886" lon="11.414068"><ele>62.0</ele><time>2026-04-08T14:21:48.39Z</time></trkpt><trkpt lat="44.4683983" lon="11.4142759"><ele>62.0</ele><time>2026-04-08T14:21:49.396Z</time></trkpt><trkpt lat="44.4682843" lon="11.4145728"><ele>62.0</ele><time>2026-04-08T14:21:50.393Z</time></trkpt><trkpt lat="44.4681826" lon="11.4148542"><ele>62.0</ele><time>2026-04-08T14:21:51.394Z</time></trkpt><trkpt lat="44.4680859" lon="11.4151214"><ele>62.0</ele><time>2026-04-08T14:21:52.41Z</time></trkpt><trkpt lat="44.467987" lon="11.4153832"><ele>62.0</ele><time>2026-04-08T14:21:53.419Z</time></trkpt><trkpt lat="44.4679051" lon="11.4155983"><ele>62.25</ele><time>2026-04-08T14:21:54.396Z</time></trkpt><trkpt lat="44.4678291" lon="11.4158143"><ele>62.5</ele><time>2026-04-08T14:21:55.4Z</time></trkpt><trkpt lat="44.4677779" lon="11.4160018"><ele>62.75</ele><time>2026-04-08T14:21:56.399Z</time></trkpt><trkpt lat="44.4677181" lon="11.4161457"><ele>63.0</ele><time>2026-04-08T14:21:57.405Z</time></trkpt><trkpt lat="44.4676705" lon="11.4162464"><ele>63.2</ele><time>2026-04-08T14:21:58.426Z</time></trkpt><trkpt lat="44.4675987" lon="11.4163504"><ele>63.4</ele><time>2026-04-08T14:21:59.449Z</time></trkpt><trkpt lat="44.4675191" lon="11.4164309"><ele>63.60000000000001</ele><time>2026-04-08T14:22:00.417Z</time></trkpt><trkpt lat="44.4674406" lon="11.4165344"><ele>63.800000000000004</ele><time>2026-04-08T14:22:01.402Z</time></trkpt><trkpt lat="44.4673995" lon="11.4166756"><ele>64.0</ele><time>2026-04-08T14:22:02.403Z</time></trkpt><trkpt lat="44.4673934" lon="11.4167864"><ele>64.0</ele><time>2026-04-08T14:22:03.448Z</time></trkpt><trkpt lat="44.467397" lon="11.4169123"><ele>64.0</ele><time>2026-04-08T14:22:04.427Z</time></trkpt><trkpt lat="44.4673799" lon="11.4170534"><ele>64.0</ele><time>2026-04-08T14:22:05.415Z</time></trkpt><trkpt lat="44.4673459" lon="11.4172099"><ele>64.0</ele><time>2026-04-08T14:22:06.387Z</time></trkpt><trkpt lat="44.4672867" lon="11.4173691"><ele>64.0</ele><time>2026-04-08T14:22:07.393Z</time></trkpt><trkpt lat="44.4672115" lon="11.4175313"><ele>63.666666666666664</ele><time>2026-04-08T14:22:08.382Z</time></trkpt><trkpt lat="44.4671366" lon="11.4177073"><ele>63.33333333333333</ele><time>2026-04-08T14:22:09.391Z</time></trkpt><trkpt lat="44.4670253" lon="11.4179188"><ele>63.0</ele><time>2026-04-08T14:22:10.391Z</time></trkpt><trkpt lat="44.4669245" lon="11.4181957"><ele>63.0</ele><time>2026-04-08T14:22:11.39Z</time></trkpt><trkpt lat="44.4668087" lon="11.4184428"><ele>63.0</ele><time>2026-04-08T14:22:12.395Z</time></trkpt><trkpt lat="44.4667054" lon="11.4187258"><ele>63.0</ele><time>2026-04-08T14:22:13.397Z</time></trkpt><trkpt lat="44.4666151" lon="11.4189848"><ele>63.0</ele><time>2026-04-08T14:22:14.401Z</time></trkpt><trkpt lat="44.4665149" lon="11.4192589"><ele>63.0</ele><time>2026-04-08T14:22:15.396Z</time></trkpt><trkpt lat="44.4664206" lon="11.4195145"><ele>63.0</ele><time>2026-04-08T14:22:16.392Z</time></trkpt><trkpt lat="44.4663193" lon="11.4197863"><ele>64.0</ele><time>2026-04-08T14:22:17.392Z</time></trkpt><trkpt lat="44.466234" lon="11.4200041"><ele>65.0</ele><time>2026-04-08T14:22:18.389Z</time></trkpt><trkpt lat="44.4661401" lon="11.4201948"><ele>66.0</ele><time>2026-04-08T14:22:19.387Z</time></trkpt><trkpt lat="44.4660807" lon="11.4204423"><ele>65.66666666666667</ele><time>2026-04-08T14:22:20.385Z</time></trkpt><trkpt lat="44.4660101" lon="11.4207379"><ele>65.33333333333334</ele><time>2026-04-08T14:22:21.389Z</time></trkpt><trkpt lat="44.46594" lon="11.4209438"><ele>65.0</ele><time>2026-04-08T14:22:22.392Z</time></trkpt><trkpt lat="44.4658642" lon="11.4211041"><ele>65.0</ele><time>2026-04-08T14:22:23.392Z</time></trkpt><trkpt lat="44.4657956" lon="11.4212719"><ele>65.0</ele><time>2026-04-08T14:22:24.391Z</time></trkpt><trkpt lat="44.4657314" lon="11.421447"><ele>65.0</ele><time>2026-04-08T14:22:25.385Z</time></trkpt><trkpt lat="44.4656699" lon="11.421605"><ele>65.0</ele><time>2026-04-08T14:22:26.386Z</time></trkpt><trkpt lat="44.4656267" lon="11.4217455"><ele>65.16666666666667</ele><time>2026-04-08T14:22:27.39Z</time></trkpt><trkpt lat="44.4655899" lon="11.4218507"><ele>65.33333333333334</ele><time>2026-04-08T14:22:28.398Z</time></trkpt><trkpt lat="44.465565" lon="11.421933"><ele>65.5</ele><time>2026-04-08T14:22:29.392Z</time></trkpt><trkpt lat="44.4654973" lon="11.422089"><ele>65.66666666666667</ele><time>2026-04-08T14:22:31.395Z</time></trkpt><trkpt lat="44.4654638" lon="11.4221692"><ele>65.83333333333333</ele><time>2026-04-08T14:22:32.394Z</time></trkpt><trkpt lat="44.465425" lon="11.4222554"><ele>66.0</ele><time>2026-04-08T14:22:33.418Z</time></trkpt><trkpt lat="44.4654324" lon="11.42243"><ele>65.5</ele><time>2026-04-08T14:22:35.423Z</time></trkpt><trkpt lat="44.4654985" lon="11.4225062"><ele>65.0</ele><time>2026-04-08T14:22:36.417Z</time></trkpt><trkpt lat="44.4655952" lon="11.4225674"><ele>64.5</ele><time>2026-04-08T14:22:37.393Z</time></trkpt><trkpt lat="44.4657122" lon="11.422621"><ele>64.0</ele><time>2026-04-08T14:22:38.401Z</time></trkpt><trkpt lat="44.4658459" lon="11.4226763"><ele>64.0</ele><time>2026-04-08T14:22:39.398Z</time></trkpt><trkpt lat="44.4659868" lon="11.4227265"><ele>64.0</ele><time>2026-04-08T14:22:40.391Z</time></trkpt><trkpt lat="44.4661341" lon="11.422792"><ele>64.0</ele><time>2026-04-08T14:22:41.397Z</time></trkpt><trkpt lat="44.4663172" lon="11.4228364"><ele>63.0</ele><time>2026-04-08T14:22:42.397Z</time></trkpt><trkpt lat="44.4664991" lon="11.4229258"><ele>62.0</ele><time>2026-04-08T14:22:43.397Z</time></trkpt><trkpt lat="44.4666662" lon="11.4230071"><ele>61.0</ele><time>2026-04-08T14:22:44.399Z</time></trkpt><trkpt lat="44.4668313" lon="11.4231204"><ele>60.666666666666664</ele><time>2026-04-08T14:22:45.393Z</time></trkpt><trkpt lat="44.4669928" lon="11.4232422"><ele>60.33333333333333</ele><time>2026-04-08T14:22:46.401Z</time></trkpt><trkpt lat="44.4671802" lon="11.4233607"><ele>60.0</ele><time>2026-04-08T14:22:47.392Z</time></trkpt><trkpt lat="44.4673756" lon="11.4234735"><ele>59.66666666666667</ele><time>2026-04-08T14:22:48.393Z</time></trkpt><trkpt lat="44.4675622" lon="11.4235764"><ele>59.333333333333336</ele><time>2026-04-08T14:22:49.395Z</time></trkpt><trkpt lat="44.4677196" lon="11.4236912"><ele>59.0</ele><time>2026-04-08T14:22:50.391Z</time></trkpt><trkpt lat="44.4678609" lon="11.4238035"><ele>59.333333333333336</ele><time>2026-04-08T14:22:51.398Z</time></trkpt><trkpt lat="44.4680193" lon="11.4239116"><ele>59.66666666666667</ele><time>2026-04-08T14:22:52.39Z</time></trkpt><trkpt lat="44.4681665" lon="11.4240185"><ele>60.0</ele><time>2026-04-08T14:22:53.397Z</time></trkpt><trkpt lat="44.4683008" lon="11.4241181"><ele>60.0</ele><time>2026-04-08T14:22:54.399Z</time></trkpt><trkpt lat="44.4684404" lon="11.4242013"><ele>60.0</ele><time>2026-04-08T14:22:55.42Z</time></trkpt><trkpt lat="44.4685553" lon="11.4242842"><ele>60.0</ele><time>2026-04-08T14:22:56.398Z</time></trkpt><trkpt lat="44.4686655" lon="11.4244143"><ele>60.0</ele><time>2026-04-08T14:22:57.401Z</time></trkpt><trkpt lat="44.468746" lon="11.4245737"><ele>60.25</ele><time>2026-04-08T14:22:58.416Z</time></trkpt><trkpt lat="44.4688115" lon="11.4247427"><ele>60.5</ele><time>2026-04-08T14:22:59.39Z</time></trkpt><trkpt lat="44.4688588" lon="11.4249482"><ele>60.75</ele><time>2026-04-08T14:23:00.396Z</time></trkpt><trkpt lat="44.4688751" lon="11.425152"><ele>61.0</ele><time>2026-04-08T14:23:01.386Z</time></trkpt><trkpt lat="44.4688438" lon="11.4253663"><ele>60.75</ele><time>2026-04-08T14:23:02.395Z</time></trkpt><trkpt lat="44.4687702" lon="11.4255323"><ele>60.5</ele><time>2026-04-08T14:23:03.385Z</time></trkpt><trkpt lat="44.468715" lon="11.4256595"><ele>60.25</ele><time>2026-04-08T14:23:04.4Z</time></trkpt><trkpt lat="44.468645" lon="11.4258031"><ele>60.0</ele><time>2026-04-08T14:23:05.421Z</time></trkpt><trkpt lat="44.4685661" lon="11.4259269"><ele>60.0</ele><time>2026-04-08T14:23:06.422Z</time></trkpt><trkpt lat="44.468497" lon="11.4260608"><ele>60.0</ele><time>2026-04-08T14:23:07.395Z</time></trkpt><trkpt lat="44.4684694" lon="11.4262074"><ele>60.0</ele><time>2026-04-08T14:23:08.419Z</time></trkpt><trkpt lat="44.4684642" lon="11.4263501"><ele>60.0</ele><time>2026-04-08T14:23:09.401Z</time></trkpt><trkpt lat="44.4685042" lon="11.4264476"><ele>60.0</ele><time>2026-04-08T14:23:10.397Z</time></trkpt><trkpt lat="44.4685774" lon="11.4265239"><ele>60.0</ele><time>2026-04-08T14:23:11.427Z</time></trkpt><trkpt lat="44.4686697" lon="11.426569"><ele>60.0</ele><time>2026-04-08T14:23:12.401Z</time></trkpt><trkpt lat="44.4687833" lon="11.4265494"><ele>60.0</ele><time>2026-04-08T14:23:13.399Z</time></trkpt><trkpt lat="44.4688992" lon="11.4265166"><ele>60.0</ele><time>2026-04-08T14:23:14.403Z</time></trkpt><trkpt lat="44.4690494" lon="11.4264684"><ele>59.75</ele><time>2026-04-08T14:23:15.393Z</time></trkpt><trkpt lat="44.4691904" lon="11.4264312"><ele>59.5</ele><time>2026-04-08T14:23:16.394Z</time></trkpt><trkpt lat="44.4693181" lon="11.4264437"><ele>59.25</ele><time>2026-04-08T14:23:17.392Z</time></trkpt><trkpt lat="44.469473" lon="11.4264855"><ele>59.0</ele><time>2026-04-08T14:23:18.388Z</time></trkpt><trkpt lat="44.4696763" lon="11.4266634"><ele>58.333333333333336</ele><time>2026-04-08T14:23:19.392Z</time></trkpt><trkpt lat="44.4698803" lon="11.4268278"><ele>57.66666666666667</ele><time>2026-04-08T14:23:20.39Z</time></trkpt><trkpt lat="44.4700513" lon="11.42697"><ele>57.0</ele><time>2026-04-08T14:23:21.392Z</time></trkpt><trkpt lat="44.4702409" lon="11.4271328"><ele>57.0</ele><time>2026-04-08T14:23:22.405Z</time></trkpt><trkpt lat="44.4704389" lon="11.4272732"><ele>57.0</ele><time>2026-04-08T14:23:23.396Z</time></trkpt><trkpt lat="44.4706653" lon="11.4274635"><ele>56.0</ele><time>2026-04-08T14:23:24.389Z</time></trkpt><trkpt lat="44.4709068" lon="11.4276533"><ele>55.0</ele><time>2026-04-08T14:23:25.389Z</time></trkpt><trkpt lat="44.4711285" lon="11.4278047"><ele>54.33333333333333</ele><time>2026-04-08T14:23:26.393Z</time></trkpt><trkpt lat="44.4713091" lon="11.4279864"><ele>53.66666666666667</ele><time>2026-04-08T14:23:27.402Z</time></trkpt><trkpt lat="44.4714967" lon="11.4281398"><ele>53.0</ele><time>2026-04-08T14:23:28.409Z</time></trkpt><trkpt lat="44.4716994" lon="11.4282916"><ele>53.0</ele><time>2026-04-08T14:23:29.403Z</time></trkpt><trkpt lat="44.4719175" lon="11.4284439"><ele>53.0</ele><time>2026-04-08T14:23:30.395Z</time></trkpt><trkpt lat="44.4721376" lon="11.4286089"><ele>53.0</ele><time>2026-04-08T14:23:31.4Z</time></trkpt><trkpt lat="44.4723523" lon="11.4287636"><ele>53.0</ele><time>2026-04-08T14:23:32.399Z</time></trkpt><trkpt lat="44.4725802" lon="11.4289407"><ele>53.0</ele><time>2026-04-08T14:23:33.426Z</time></trkpt><trkpt lat="44.4727777" lon="11.4291216"><ele>53.0</ele><time>2026-04-08T14:23:34.428Z</time></trkpt><trkpt lat="44.4729755" lon="11.4292929"><ele>53.0</ele><time>2026-04-08T14:23:35.399Z</time></trkpt><trkpt lat="44.4731601" lon="11.4294454"><ele>53.0</ele><time>2026-04-08T14:23:36.418Z</time></trkpt><trkpt lat="44.473333" lon="11.4296057"><ele>53.0</ele><time>2026-04-08T14:23:37.405Z</time></trkpt><trkpt lat="44.4735119" lon="11.4297837"><ele>53.0</ele><time>2026-04-08T14:23:38.395Z</time></trkpt><trkpt lat="44.473688" lon="11.4300219"><ele>53.0</ele><time>2026-04-08T14:23:39.391Z</time></trkpt><trkpt lat="44.4739144" lon="11.4301983"><ele>52.333333333333336</ele><time>2026-04-08T14:23:40.39Z</time></trkpt><trkpt lat="44.4741006" lon="11.4303113"><ele>51.66666666666667</ele><time>2026-04-08T14:23:41.39Z</time></trkpt><trkpt lat="44.4742791" lon="11.430439"><ele>51.0</ele><time>2026-04-08T14:23:42.417Z</time></trkpt><trkpt lat="44.4744779" lon="11.4306003"><ele>52.0</ele><time>2026-04-08T14:23:43.391Z</time></trkpt><trkpt lat="44.4747007" lon="11.4307474"><ele>53.0</ele><time>2026-04-08T14:23:44.4Z</time></trkpt><trkpt lat="44.474913" lon="11.4309054"><ele>53.0</ele><time>2026-04-08T14:23:45.399Z</time></trkpt><trkpt lat="44.4751543" lon="11.4310901"><ele>53.0</ele><time>2026-04-08T14:23:46.4Z</time></trkpt><trkpt lat="44.4753746" lon="11.4312884"><ele>52.5</ele><time>2026-04-08T14:23:47.396Z</time></trkpt><trkpt lat="44.4755919" lon="11.4314721"><ele>52.0</ele><time>2026-04-08T14:23:48.397Z</time></trkpt><trkpt lat="44.4758088" lon="11.4316879"><ele>52.0</ele><time>2026-04-08T14:23:49.402Z</time></trkpt><trkpt lat="44.4760253" lon="11.4318863"><ele>52.0</ele><time>2026-04-08T14:23:50.403Z</time></trkpt><trkpt lat="44.4762505" lon="11.4320824"><ele>50.0</ele><time>2026-04-08T14:23:51.408Z</time></trkpt><trkpt lat="44.4764885" lon="11.4322515"><ele>48.0</ele><time>2026-04-08T14:23:52.425Z</time></trkpt><trkpt lat="44.4767543" lon="11.4324162"><ele>48.0</ele><time>2026-04-08T14:23:53.424Z</time></trkpt><trkpt lat="44.4769932" lon="11.4325757"><ele>48.0</ele><time>2026-04-08T14:23:54.411Z</time></trkpt><trkpt lat="44.4772048" lon="11.4327347"><ele>48.0</ele><time>2026-04-08T14:23:55.422Z</time></trkpt><trkpt lat="44.4774145" lon="11.4328784"><ele>48.0</ele><time>2026-04-08T14:23:56.406Z</time></trkpt><trkpt lat="44.4776361" lon="11.4329942"><ele>48.5</ele><time>2026-04-08T14:23:57.398Z</time></trkpt><trkpt lat="44.477871" lon="11.4331135"><ele>49.0</ele><time>2026-04-08T14:23:58.403Z</time></trkpt><trkpt lat="44.4780794" lon="11.4332506"><ele>49.0</ele><time>2026-04-08T14:23:59.398Z</time></trkpt><trkpt lat="44.4782952" lon="11.4333546"><ele>49.0</ele><time>2026-04-08T14:24:00.4Z</time></trkpt><trkpt lat="44.4784516" lon="11.433481"><ele>49.0</ele><time>2026-04-08T14:24:01.404Z</time></trkpt><trkpt lat="44.4785863" lon="11.4335866"><ele>49.0</ele><time>2026-04-08T14:24:02.423Z</time></trkpt><trkpt lat="44.4786616" lon="11.4337699"><ele>49.0</ele><time>2026-04-08T14:24:03.397Z</time></trkpt><trkpt lat="44.4787152" lon="11.4338907"><ele>49.0</ele><time>2026-04-08T14:24:04.405Z</time></trkpt><trkpt lat="44.4787493" lon="11.4340419"><ele>49.0</ele><time>2026-04-08T14:24:05.402Z</time></trkpt><trkpt lat="44.4787385" lon="11.43424"><ele>49.25</ele><time>2026-04-08T14:24:06.399Z</time></trkpt><trkpt lat="44.4787299" lon="11.434426"><ele>49.5</ele><time>2026-04-08T14:24:07.427Z</time></trkpt><trkpt lat="44.4787094" lon="11.4345984"><ele>49.75</ele><time>2026-04-08T14:24:08.427Z</time></trkpt><trkpt lat="44.4787127" lon="11.434737"><ele>50.0</ele><time>2026-04-08T14:24:09.406Z</time></trkpt><trkpt lat="44.4786861" lon="11.4348758"><ele>50.333333333333336</ele><time>2026-04-08T14:24:10.403Z</time></trkpt><trkpt lat="44.4786586" lon="11.4350003"><ele>50.66666666666667</ele><time>2026-04-08T14:24:11.402Z</time></trkpt><trkpt lat="44.4786488" lon="11.4351058"><ele>51.0</ele><time>2026-04-08T14:24:12.399Z</time></trkpt><trkpt lat="44.4785956" lon="11.4351714"><ele>51.33333333333333</ele><time>2026-04-08T14:24:13.403Z</time></trkpt><trkpt lat="44.4785116" lon="11.4351698"><ele>51.666666666666664</ele><time>2026-04-08T14:24:14.403Z</time></trkpt><trkpt lat="44.4784074" lon="11.4351619"><ele>52.0</ele><time>2026-04-08T14:24:15.387Z</time></trkpt><trkpt lat="44.4783014" lon="11.4351402"><ele>52.0</ele><time>2026-04-08T14:24:16.401Z</time></trkpt><trkpt lat="44.4781877" lon="11.4351206"><ele>52.0</ele><time>2026-04-08T14:24:17.4Z</time></trkpt><trkpt lat="44.4780685" lon="11.4350749"><ele>52.0</ele><time>2026-04-08T14:24:18.393Z</time></trkpt><trkpt lat="44.4779573" lon="11.4350133"><ele>52.0</ele><time>2026-04-08T14:24:19.387Z</time></trkpt><trkpt lat="44.4778346" lon="11.4348902"><ele>52.0</ele><time>2026-04-08T14:24:20.403Z</time></trkpt><trkpt lat="44.4777215" lon="11.4347979"><ele>52.0</ele><time>2026-04-08T14:24:21.401Z</time></trkpt><trkpt lat="44.477633" lon="11.434721"><ele>52.0</ele><time>2026-04-08T14:24:22.396Z</time></trkpt><trkpt lat="44.4775445" lon="11.434665"><ele>52.0</ele><time>2026-04-08T14:24:23.405Z</time></trkpt><trkpt lat="44.4774759" lon="11.4346966"><ele>52.0</ele><time>2026-04-08T14:24:24.394Z</time></trkpt><trkpt lat="44.4773944" lon="11.4347648"><ele>52.0</ele><time>2026-04-08T14:24:25.396Z</time></trkpt><trkpt lat="44.4773174" lon="11.4348736"><ele>52.0</ele><time>2026-04-08T14:24:26.389Z</time></trkpt><trkpt lat="44.4772252" lon="11.4350092"><ele>52.0</ele><time>2026-04-08T14:24:27.388Z</time></trkpt><trkpt lat="44.4771364" lon="11.4351625"><ele>52.0</ele><time>2026-04-08T14:24:28.395Z</time></trkpt><trkpt lat="44.4770431" lon="11.4353015"><ele>51.666666666666664</ele><time>2026-04-08T14:24:29.4Z</time></trkpt><trkpt lat="44.4769499" lon="11.4354522"><ele>51.33333333333333</ele><time>2026-04-08T14:24:30.395Z</time></trkpt><trkpt lat="44.4768407" lon="11.4356206"><ele>51.0</ele><time>2026-04-08T14:24:31.403Z</time></trkpt><trkpt lat="44.476701" lon="11.4358028"><ele>50.66666666666667</ele><time>2026-04-08T14:24:32.408Z</time></trkpt><trkpt lat="44.476571" lon="11.4359939"><ele>50.333333333333336</ele><time>2026-04-08T14:24:33.409Z</time></trkpt><trkpt lat="44.476443" lon="11.4361989"><ele>50.0</ele><time>2026-04-08T14:24:34.407Z</time></trkpt><trkpt lat="44.4763449" lon="11.4363709"><ele>49.5</ele><time>2026-04-08T14:24:35.401Z</time></trkpt><trkpt lat="44.4762696" lon="11.4365223"><ele>49.0</ele><time>2026-04-08T14:24:36.429Z</time></trkpt><trkpt lat="44.4761728" lon="11.4366249"><ele>48.5</ele><time>2026-04-08T14:24:37.408Z</time></trkpt><trkpt lat="44.4760527" lon="11.4366501"><ele>48.0</ele><time>2026-04-08T14:24:38.408Z</time></trkpt><trkpt lat="44.4759012" lon="11.436639"><ele>48.0</ele><time>2026-04-08T14:24:39.402Z</time></trkpt><trkpt lat="44.4757667" lon="11.436628"><ele>48.0</ele><time>2026-04-08T14:24:40.403Z</time></trkpt><trkpt lat="44.4755718" lon="11.4365872"><ele>48.0</ele><time>2026-04-08T14:24:41.399Z</time></trkpt><trkpt lat="44.4753612" lon="11.4365144"><ele>48.66666666666667</ele><time>2026-04-08T14:24:42.396Z</time></trkpt><trkpt lat="44.4751754" lon="11.4364373"><ele>49.333333333333336</ele><time>2026-04-08T14:24:43.394Z</time></trkpt><trkpt lat="44.4749914" lon="11.4363858"><ele>50.0</ele><time>2026-04-08T14:24:44.396Z</time></trkpt><trkpt lat="44.4748432" lon="11.4363773"><ele>50.0</ele><time>2026-04-08T14:24:45.403Z</time></trkpt><trkpt lat="44.4746958" lon="11.4363711"><ele>50.0</ele><time>2026-04-08T14:24:46.405Z</time></trkpt><trkpt lat="44.4745284" lon="11.436342"><ele>50.0</ele><time>2026-04-08T14:24:47.408Z</time></trkpt><trkpt lat="44.4743703" lon="11.4363006"><ele>51.0</ele><time>2026-04-08T14:24:48.408Z</time></trkpt><trkpt lat="44.4742167" lon="11.4362585"><ele>52.0</ele><time>2026-04-08T14:24:49.413Z</time></trkpt><trkpt lat="44.4740587" lon="11.436252"><ele>53.0</ele><time>2026-04-08T14:24:50.406Z</time></trkpt><trkpt lat="44.4739137" lon="11.4362461"><ele>52.75</ele><time>2026-04-08T14:24:51.394Z</time></trkpt><trkpt lat="44.47377" lon="11.4362069"><ele>52.5</ele><time>2026-04-08T14:24:52.392Z</time></trkpt><trkpt lat="44.4736352" lon="11.4361966"><ele>52.25</ele><time>2026-04-08T14:24:53.399Z</time></trkpt><trkpt lat="44.4735077" lon="11.4362573"><ele>52.0</ele><time>2026-04-08T14:24:54.384Z</time></trkpt><trkpt lat="44.4733326" lon="11.4363876"><ele>51.33333333333333</ele><time>2026-04-08T14:24:55.414Z</time></trkpt><trkpt lat="44.4731135" lon="11.4364964"><ele>50.66666666666667</ele><time>2026-04-08T14:24:56.388Z</time></trkpt><trkpt lat="44.472932" lon="11.4365969"><ele>50.0</ele><time>2026-04-08T14:24:57.399Z</time></trkpt><trkpt lat="44.47273" lon="11.4366588"><ele>49.333333333333336</ele><time>2026-04-08T14:24:58.42Z</time></trkpt><trkpt lat="44.4725677" lon="11.4367297"><ele>48.66666666666667</ele><time>2026-04-08T14:24:59.396Z</time></trkpt><trkpt lat="44.4724237" lon="11.4368132"><ele>48.0</ele><time>2026-04-08T14:25:00.419Z</time></trkpt><trkpt lat="44.4722581" lon="11.436886"><ele>48.33333333333333</ele><time>2026-04-08T14:25:01.402Z</time></trkpt><trkpt lat="44.4720839" lon="11.4369526"><ele>48.666666666666664</ele><time>2026-04-08T14:25:02.404Z</time></trkpt><trkpt lat="44.4719" lon="11.4369911"><ele>49.0</ele><time>2026-04-08T14:25:03.41Z</time></trkpt><trkpt lat="44.471743" lon="11.4370369"><ele>49.0</ele><time>2026-04-08T14:25:04.404Z</time></trkpt><trkpt lat="44.4715719" lon="11.4370544"><ele>49.0</ele><time>2026-04-08T14:25:05.405Z</time></trkpt><trkpt lat="44.4713883" lon="11.4370367"><ele>49.0</ele><time>2026-04-08T14:25:06.414Z</time></trkpt><trkpt lat="44.4712282" lon="11.437055"><ele>49.25</ele><time>2026-04-08T14:25:07.403Z</time></trkpt><trkpt lat="44.4710809" lon="11.437053"><ele>49.5</ele><time>2026-04-08T14:25:08.406Z</time></trkpt><trkpt lat="44.4709472" lon="11.4370771"><ele>49.75</ele><time>2026-04-08T14:25:09.401Z</time></trkpt><trkpt lat="44.4708311" lon="11.4370815"><ele>50.0</ele><time>2026-04-08T14:25:10.411Z</time></trkpt><trkpt lat="44.4707087" lon="11.4370281"><ele>50.0</ele><time>2026-04-08T14:25:11.402Z</time></trkpt><trkpt lat="44.470603" lon="11.4369956"><ele>50.0</ele><time>2026-04-08T14:25:12.424Z</time></trkpt><trkpt lat="44.4704725" lon="11.4369719"><ele>50.0</ele><time>2026-04-08T14:25:13.395Z</time></trkpt><trkpt lat="44.4702979" lon="11.4369025"><ele>50.0</ele><time>2026-04-08T14:25:14.413Z</time></trkpt><trkpt lat="44.4701182" lon="11.4368384"><ele>50.333333333333336</ele><time>2026-04-08T14:25:15.424Z</time></trkpt><trkpt lat="44.4699326" lon="11.4367903"><ele>50.66666666666667</ele><time>2026-04-08T14:25:16.424Z</time></trkpt><trkpt lat="44.4697789" lon="11.4367477"><ele>51.0</ele><time>2026-04-08T14:25:17.405Z</time></trkpt><trkpt lat="44.4696199" lon="11.436687"><ele>50.66666666666667</ele><time>2026-04-08T14:25:18.41Z</time></trkpt><trkpt lat="44.4694137" lon="11.4365738"><ele>50.333333333333336</ele><time>2026-04-08T14:25:19.407Z</time></trkpt><trkpt lat="44.4691992" lon="11.4364706"><ele>50.0</ele><time>2026-04-08T14:25:20.409Z</time></trkpt><trkpt lat="44.4689927" lon="11.4363721"><ele>50.0</ele><time>2026-04-08T14:25:21.403Z</time></trkpt><trkpt lat="44.4688015" lon="11.4362848"><ele>50.0</ele><time>2026-04-08T14:25:22.407Z</time></trkpt><trkpt lat="44.4686108" lon="11.4362075"><ele>50.0</ele><time>2026-04-08T14:25:23.418Z</time></trkpt><trkpt lat="44.4684384" lon="11.4361243"><ele>50.66666666666667</ele><time>2026-04-08T14:25:24.4Z</time></trkpt><trkpt lat="44.4682602" lon="11.4360472"><ele>51.33333333333333</ele><time>2026-04-08T14:25:25.403Z</time></trkpt><trkpt lat="44.4681044" lon="11.4359891"><ele>52.0</ele><time>2026-04-08T14:25:26.401Z</time></trkpt><trkpt lat="44.4679655" lon="11.4359632"><ele>53.33333333333333</ele><time>2026-04-08T14:25:27.406Z</time></trkpt><trkpt lat="44.4678558" lon="11.436022"><ele>54.66666666666667</ele><time>2026-04-08T14:25:28.407Z</time></trkpt><trkpt lat="44.4676953" lon="11.436086"><ele>56.0</ele><time>2026-04-08T14:25:29.423Z</time></trkpt><trkpt lat="44.4675303" lon="11.4361435"><ele>56.0</ele><time>2026-04-08T14:25:30.401Z</time></trkpt><trkpt lat="44.467368" lon="11.4361991"><ele>56.0</ele><time>2026-04-08T14:25:31.396Z</time></trkpt><trkpt lat="44.4672069" lon="11.4362754"><ele>56.0</ele><time>2026-04-08T14:25:32.404Z</time></trkpt><trkpt lat="44.4670315" lon="11.4364207"><ele>54.333333333333336</ele><time>2026-04-08T14:25:33.419Z</time></trkpt><trkpt lat="44.4668977" lon="11.4366056"><ele>52.66666666666667</ele><time>2026-04-08T14:25:34.395Z</time></trkpt><trkpt lat="44.4667648" lon="11.4367528"><ele>51.0</ele><time>2026-04-08T14:25:35.403Z</time></trkpt><trkpt lat="44.4666283" lon="11.4368741"><ele>51.0</ele><time>2026-04-08T14:25:36.398Z</time></trkpt><trkpt lat="44.4664825" lon="11.4369447"><ele>51.0</ele><time>2026-04-08T14:25:37.395Z</time></trkpt><trkpt lat="44.4663567" lon="11.4369488"><ele>51.0</ele><time>2026-04-08T14:25:38.405Z</time></trkpt><trkpt lat="44.4662268" lon="11.4369114"><ele>51.0</ele><time>2026-04-08T14:25:39.404Z</time></trkpt><trkpt lat="44.4660938" lon="11.4368146"><ele>52.66666666666667</ele><time>2026-04-08T14:25:40.417Z</time></trkpt><trkpt lat="44.4659558" lon="11.4367047"><ele>54.333333333333336</ele><time>2026-04-08T14:25:41.399Z</time></trkpt><trkpt lat="44.4657902" lon="11.4366052"><ele>56.0</ele><time>2026-04-08T14:25:42.398Z</time></trkpt><trkpt lat="44.4655867" lon="11.4365023"><ele>55.66666666666667</ele><time>2026-04-08T14:25:43.396Z</time></trkpt><trkpt lat="44.4654115" lon="11.4363762"><ele>55.33333333333333</ele><time>2026-04-08T14:25:44.4Z</time></trkpt><trkpt lat="44.4652407" lon="11.4362718"><ele>55.0</ele><time>2026-04-08T14:25:45.408Z</time></trkpt><trkpt lat="44.4650483" lon="11.4361929"><ele>56.33333333333333</ele><time>2026-04-08T14:25:46.411Z</time></trkpt><trkpt lat="44.4648574" lon="11.4361127"><ele>57.66666666666667</ele><time>2026-04-08T14:25:47.407Z</time></trkpt><trkpt lat="44.4646548" lon="11.4360353"><ele>59.0</ele><time>2026-04-08T14:25:48.408Z</time></trkpt><trkpt lat="44.464451" lon="11.4359446"><ele>59.66666666666667</ele><time>2026-04-08T14:25:49.413Z</time></trkpt><trkpt lat="44.4642391" lon="11.4358454"><ele>60.33333333333333</ele><time>2026-04-08T14:25:50.402Z</time></trkpt><trkpt lat="44.4640426" lon="11.4357499"><ele>61.0</ele><time>2026-04-08T14:25:51.409Z</time></trkpt><trkpt lat="44.4638574" lon="11.4356723"><ele>61.25</ele><time>2026-04-08T14:25:52.41Z</time></trkpt><trkpt lat="44.4636865" lon="11.43564"><ele>61.5</ele><time>2026-04-08T14:25:53.407Z</time></trkpt><trkpt lat="44.4635424" lon="11.4356091"><ele>61.75</ele><time>2026-04-08T14:25:54.403Z</time></trkpt><trkpt lat="44.4634287" lon="11.435537"><ele>62.0</ele><time>2026-04-08T14:25:55.406Z</time></trkpt><trkpt lat="44.4633575" lon="11.4354379"><ele>62.0</ele><time>2026-04-08T14:25:56.405Z</time></trkpt><trkpt lat="44.4633316" lon="11.4352827"><ele>62.0</ele><time>2026-04-08T14:25:57.402Z</time></trkpt><trkpt lat="44.4633239" lon="11.4351499"><ele>62.0</ele><time>2026-04-08T14:25:58.405Z</time></trkpt><trkpt lat="44.4633024" lon="11.4350171"><ele>62.0</ele><time>2026-04-08T14:25:59.4Z</time></trkpt><trkpt lat="44.4632646" lon="11.4348965"><ele>62.0</ele><time>2026-04-08T14:26:00.397Z</time></trkpt><trkpt lat="44.4631758" lon="11.434834"><ele>62.0</ele><time>2026-04-08T14:26:01.397Z</time></trkpt><trkpt lat="44.4630538" lon="11.4348061"><ele>62.0</ele><time>2026-04-08T14:26:02.406Z</time></trkpt><trkpt lat="44.4629146" lon="11.4347719"><ele>62.0</ele><time>2026-04-08T14:26:03.408Z</time></trkpt><trkpt lat="44.4627806" lon="11.4347238"><ele>62.0</ele><time>2026-04-08T14:26:04.412Z</time></trkpt><trkpt lat="44.4626351" lon="11.4346819"><ele>62.0</ele><time>2026-04-08T14:26:05.405Z</time></trkpt><trkpt lat="44.4624441" lon="11.434652"><ele>62.0</ele><time>2026-04-08T14:26:06.413Z</time></trkpt><trkpt lat="44.4622856" lon="11.4346487"><ele>62.0</ele><time>2026-04-08T14:26:07.402Z</time></trkpt><trkpt lat="44.4621216" lon="11.4346331"><ele>62.75</ele><time>2026-04-08T14:26:08.399Z</time></trkpt><trkpt lat="44.4619599" lon="11.4346019"><ele>63.5</ele><time>2026-04-08T14:26:09.408Z</time></trkpt><trkpt lat="44.4618243" lon="11.4345749"><ele>64.25</ele><time>2026-04-08T14:26:10.406Z</time></trkpt><trkpt lat="44.4616954" lon="11.4345463"><ele>65.0</ele><time>2026-04-08T14:26:11.399Z</time></trkpt><trkpt lat="44.461577" lon="11.434515"><ele>65.0</ele><time>2026-04-08T14:26:12.402Z</time></trkpt><trkpt lat="44.4614795" lon="11.4344937"><ele>65.0</ele><time>2026-04-08T14:26:13.395Z</time></trkpt><trkpt lat="44.4613816" lon="11.4344563"><ele>65.0</ele><time>2026-04-08T14:26:14.4Z</time></trkpt><trkpt lat="44.46129" lon="11.4344423"><ele>65.0</ele><time>2026-04-08T14:26:15.397Z</time></trkpt><trkpt lat="44.4612116" lon="11.4344048"><ele>65.0</ele><time>2026-04-08T14:26:16.394Z</time></trkpt><trkpt lat="44.4611375" lon="11.4343828"><ele>65.4</ele><time>2026-04-08T14:26:17.396Z</time></trkpt><trkpt lat="44.4610696" lon="11.4343597"><ele>65.8</ele><time>2026-04-08T14:26:18.399Z</time></trkpt><trkpt lat="44.4609639" lon="11.4343077"><ele>66.2</ele><time>2026-04-08T14:26:20.393Z</time></trkpt><trkpt lat="44.4608812" lon="11.4342921"><ele>66.6</ele><time>2026-04-08T14:27:49.437Z</time></trkpt><trkpt lat="44.4608027" lon="11.434253"><ele>67.0</ele><time>2026-04-08T14:27:52.42Z</time></trkpt><trkpt lat="44.4607286" lon="11.4343518"><ele>67.0</ele><time>2026-04-08T14:27:54.506Z</time></trkpt><trkpt lat="44.4606992" lon="11.4344677"><ele>67.0</ele><time>2026-04-08T14:27:55.451Z</time></trkpt><trkpt lat="44.4606729" lon="11.4346029"><ele>67.0</ele><time>2026-04-08T14:27:56.424Z</time></trkpt><trkpt lat="44.4606374" lon="11.4347553"><ele>67.0</ele><time>2026-04-08T14:27:57.432Z</time></trkpt><trkpt lat="44.4605914" lon="11.4349124"><ele>67.0</ele><time>2026-04-08T14:27:58.426Z</time></trkpt><trkpt lat="44.4605304" lon="11.4350981"><ele>66.33333333333333</ele><time>2026-04-08T14:27:59.416Z</time></trkpt><trkpt lat="44.4604697" lon="11.4352934"><ele>65.66666666666667</ele><time>2026-04-08T14:28:00.415Z</time></trkpt><trkpt lat="44.4604454" lon="11.4355772"><ele>65.0</ele><time>2026-04-08T14:28:01.422Z</time></trkpt><trkpt lat="44.4604068" lon="11.4358149"><ele>64.33333333333334</ele><time>2026-04-08T14:28:02.443Z</time></trkpt><trkpt lat="44.4603406" lon="11.4360465"><ele>63.66666666666667</ele><time>2026-04-08T14:28:03.427Z</time></trkpt><trkpt lat="44.460265" lon="11.4362687"><ele>63.0</ele><time>2026-04-08T14:28:04.416Z</time></trkpt><trkpt lat="44.4601731" lon="11.4364848"><ele>63.0</ele><time>2026-04-08T14:28:05.417Z</time></trkpt><trkpt lat="44.4600937" lon="11.4366695"><ele>63.0</ele><time>2026-04-08T14:28:06.443Z</time></trkpt><trkpt lat="44.4599923" lon="11.4367987"><ele>63.0</ele><time>2026-04-08T14:28:07.439Z</time></trkpt><trkpt lat="44.4598868" lon="11.4369478"><ele>63.0</ele><time>2026-04-08T14:28:08.411Z</time></trkpt><trkpt lat="44.459814" lon="11.4370697"><ele>62.5</ele><time>2026-04-08T14:28:09.418Z</time></trkpt><trkpt lat="44.459746" lon="11.437183"><ele>62.0</ele><time>2026-04-08T14:28:10.424Z</time></trkpt><trkpt lat="44.4596869" lon="11.4372787"><ele>61.5</ele><time>2026-04-08T14:28:11.423Z</time></trkpt><trkpt lat="44.4596389" lon="11.4373613"><ele>61.0</ele><time>2026-04-08T14:28:12.418Z</time></trkpt><trkpt lat="44.459588" lon="11.437427"><ele>60.5</ele><time>2026-04-08T14:28:13.436Z</time></trkpt><trkpt lat="44.459542" lon="11.4374937"><ele>60.0</ele><time>2026-04-08T14:28:14.459Z</time></trkpt><trkpt lat="44.4594996" lon="11.4375603"><ele>60.0</ele><time>2026-04-08T14:28:15.447Z</time></trkpt><trkpt lat="44.459448" lon="11.4376374"><ele>60.0</ele><time>2026-04-08T14:28:16.419Z</time></trkpt><trkpt lat="44.4593929" lon="11.4377373"><ele>60.0</ele><time>2026-04-08T14:28:17.42Z</time></trkpt><trkpt lat="44.4593387" lon="11.4378358"><ele>60.0</ele><time>2026-04-08T14:28:18.424Z</time></trkpt><trkpt lat="44.4592886" lon="11.4379256"><ele>60.0</ele><time>2026-04-08T14:28:19.422Z</time></trkpt><trkpt lat="44.4592355" lon="11.4380142"><ele>60.0</ele><time>2026-04-08T14:28:20.447Z</time></trkpt><trkpt lat="44.4591771" lon="11.4381117"><ele>59.833333333333336</ele><time>2026-04-08T14:28:21.446Z</time></trkpt><trkpt lat="44.459122" lon="11.4382052"><ele>59.66666666666667</ele><time>2026-04-08T14:28:22.42Z</time></trkpt><trkpt lat="44.4590746" lon="11.4382932"><ele>59.5</ele><time>2026-04-08T14:28:23.43Z</time></trkpt><trkpt lat="44.4590359" lon="11.4383734"><ele>59.333333333333336</ele><time>2026-04-08T14:28:24.418Z</time></trkpt><trkpt lat="44.4589643" lon="11.4384424"><ele>59.16666666666667</ele><time>2026-04-08T14:28:26.421Z</time></trkpt><trkpt lat="44.458902" lon="11.4384109"><ele>59.0</ele><time>2026-04-08T14:28:27.43Z</time></trkpt><trkpt lat="44.4588366" lon="11.4383313"><ele>59.0</ele><time>2026-04-08T14:28:28.425Z</time></trkpt><trkpt lat="44.4587631" lon="11.4382336"><ele>59.00000000000001</ele><time>2026-04-08T14:28:29.41Z</time></trkpt><trkpt lat="44.4586777" lon="11.4381453"><ele>59.00000000000001</ele><time>2026-04-08T14:28:30.425Z</time></trkpt><trkpt lat="44.4585935" lon="11.4380575"><ele>59.0</ele><time>2026-04-08T14:28:31.427Z</time></trkpt><trkpt lat="44.4584981" lon="11.4379784"><ele>59.0</ele><time>2026-04-08T14:28:32.405Z</time></trkpt><trkpt lat="44.4583961" lon="11.4379239"><ele>59.25</ele><time>2026-04-08T14:28:33.412Z</time></trkpt><trkpt lat="44.4582727" lon="11.437851"><ele>59.5</ele><time>2026-04-08T14:28:34.412Z</time></trkpt><trkpt lat="44.4581574" lon="11.4377875"><ele>59.75</ele><time>2026-04-08T14:28:35.407Z</time></trkpt><trkpt lat="44.4580353" lon="11.4377364"><ele>60.0</ele><time>2026-04-08T14:28:36.42Z</time></trkpt><trkpt lat="44.4579087" lon="11.4376866"><ele>60.33333333333333</ele><time>2026-04-08T14:28:37.42Z</time></trkpt><trkpt lat="44.4577789" lon="11.437634"><ele>60.666666666666664</ele><time>2026-04-08T14:28:38.41Z</time></trkpt><trkpt lat="44.4576339" lon="11.4375658"><ele>61.0</ele><time>2026-04-08T14:28:39.42Z</time></trkpt><trkpt lat="44.4574401" lon="11.4375213"><ele>61.0</ele><time>2026-04-08T14:28:40.429Z</time></trkpt><trkpt lat="44.4572404" lon="11.4374611"><ele>61.0</ele><time>2026-04-08T14:28:41.416Z</time></trkpt><trkpt lat="44.4570409" lon="11.4374233"><ele>61.0</ele><time>2026-04-08T14:28:42.425Z</time></trkpt><trkpt lat="44.4568239" lon="11.4373305"><ele>61.33333333333333</ele><time>2026-04-08T14:28:43.443Z</time></trkpt><trkpt lat="44.4566561" lon="11.4372225"><ele>61.66666666666667</ele><time>2026-04-08T14:28:44.417Z</time></trkpt><trkpt lat="44.4564791" lon="11.4371082"><ele>62.0</ele><time>2026-04-08T14:28:45.415Z</time></trkpt><trkpt lat="44.4563252" lon="11.4369983"><ele>61.75</ele><time>2026-04-08T14:28:46.422Z</time></trkpt><trkpt lat="44.4562055" lon="11.4369155"><ele>61.5</ele><time>2026-04-08T14:28:47.413Z</time></trkpt><trkpt lat="44.4560794" lon="11.4368862"><ele>61.25</ele><time>2026-04-08T14:28:48.438Z</time></trkpt><trkpt lat="44.4559597" lon="11.4368919"><ele>61.0</ele><time>2026-04-08T14:28:49.435Z</time></trkpt><trkpt lat="44.4558226" lon="11.4369308"><ele>61.0</ele><time>2026-04-08T14:28:50.434Z</time></trkpt><trkpt lat="44.4556848" lon="11.437"><ele>61.0</ele><time>2026-04-08T14:28:51.458Z</time></trkpt><trkpt lat="44.4555684" lon="11.4370884"><ele>61.0</ele><time>2026-04-08T14:28:52.429Z</time></trkpt><trkpt lat="44.4554256" lon="11.4371756"><ele>61.0</ele><time>2026-04-08T14:28:53.441Z</time></trkpt><trkpt lat="44.4552263" lon="11.4372431"><ele>60.0</ele><time>2026-04-08T14:28:54.416Z</time></trkpt><trkpt lat="44.4550553" lon="11.4372913"><ele>59.0</ele><time>2026-04-08T14:28:55.415Z</time></trkpt><trkpt lat="44.4548966" lon="11.4373361"><ele>58.0</ele><time>2026-04-08T14:28:56.425Z</time></trkpt><trkpt lat="44.4547232" lon="11.4374199"><ele>59.0</ele><time>2026-04-08T14:28:57.422Z</time></trkpt><trkpt lat="44.4545299" lon="11.4375076"><ele>60.0</ele><time>2026-04-08T14:28:58.416Z</time></trkpt><trkpt lat="44.4543601" lon="11.4376159"><ele>61.0</ele><time>2026-04-08T14:28:59.418Z</time></trkpt><trkpt lat="44.4541806" lon="11.4377648"><ele>61.0</ele><time>2026-04-08T14:29:00.418Z</time></trkpt><trkpt lat="44.4540075" lon="11.437874"><ele>61.0</ele><time>2026-04-08T14:29:01.417Z</time></trkpt><trkpt lat="44.4538563" lon="11.4379715"><ele>61.0</ele><time>2026-04-08T14:29:02.406Z</time></trkpt><trkpt lat="44.4536846" lon="11.4380917"><ele>60.33333333333333</ele><time>2026-04-08T14:29:03.418Z</time></trkpt><trkpt lat="44.4535305" lon="11.4382413"><ele>59.66666666666667</ele><time>2026-04-08T14:29:04.414Z</time></trkpt><trkpt lat="44.4534264" lon="11.4383918"><ele>59.0</ele><time>2026-04-08T14:29:05.425Z</time></trkpt><trkpt lat="44.4533293" lon="11.438517"><ele>59.0</ele><time>2026-04-08T14:29:06.418Z</time></trkpt><trkpt lat="44.4532268" lon="11.4386193"><ele>59.0</ele><time>2026-04-08T14:29:07.411Z</time></trkpt><trkpt lat="44.4531095" lon="11.4386857"><ele>59.0</ele><time>2026-04-08T14:29:08.414Z</time></trkpt><trkpt lat="44.4529819" lon="11.4387471"><ele>59.0</ele><time>2026-04-08T14:29:09.42Z</time></trkpt><trkpt lat="44.4528518" lon="11.4388303"><ele>59.0</ele><time>2026-04-08T14:29:10.422Z</time></trkpt><trkpt lat="44.4527021" lon="11.4389174"><ele>59.0</ele><time>2026-04-08T14:29:11.419Z</time></trkpt><trkpt lat="44.4525336" lon="11.4390213"><ele>59.0</ele><time>2026-04-08T14:29:12.418Z</time></trkpt><trkpt lat="44.4523637" lon="11.4391317"><ele>59.0</ele><time>2026-04-08T14:29:13.417Z</time></trkpt><trkpt lat="44.4521913" lon="11.4392239"><ele>59.0</ele><time>2026-04-08T14:29:14.425Z</time></trkpt><trkpt lat="44.4520183" lon="11.4393306"><ele>59.0</ele><time>2026-04-08T14:29:15.422Z</time></trkpt><trkpt lat="44.451841" lon="11.4394295"><ele>59.66666666666667</ele><time>2026-04-08T14:29:16.421Z</time></trkpt><trkpt lat="44.4516499" lon="11.4395134"><ele>60.33333333333333</ele><time>2026-04-08T14:29:17.422Z</time></trkpt><trkpt lat="44.4514533" lon="11.4396103"><ele>61.0</ele><time>2026-04-08T14:29:18.414Z</time></trkpt><trkpt lat="44.4512354" lon="11.4397299"><ele>61.33333333333333</ele><time>2026-04-08T14:29:19.418Z</time></trkpt><trkpt lat="44.4510597" lon="11.439833"><ele>61.66666666666667</ele><time>2026-04-08T14:29:20.421Z</time></trkpt><trkpt lat="44.450895" lon="11.4399554"><ele>62.0</ele><time>2026-04-08T14:29:21.415Z</time></trkpt><trkpt lat="44.4507373" lon="11.4400618"><ele>62.0</ele><time>2026-04-08T14:29:22.423Z</time></trkpt><trkpt lat="44.4506194" lon="11.4400772"><ele>62.0</ele><time>2026-04-08T14:29:23.407Z</time></trkpt><trkpt lat="44.4505157" lon="11.4400601"><ele>62.0</ele><time>2026-04-08T14:29:24.412Z</time></trkpt><trkpt lat="44.4504105" lon="11.4399969"><ele>62.0</ele><time>2026-04-08T14:29:25.412Z</time></trkpt><trkpt lat="44.4503062" lon="11.439905"><ele>62.0</ele><time>2026-04-08T14:29:26.406Z</time></trkpt><trkpt lat="44.4502059" lon="11.4398305"><ele>62.0</ele><time>2026-04-08T14:29:27.408Z</time></trkpt><trkpt lat="44.4500938" lon="11.4397272"><ele>62.0</ele><time>2026-04-08T14:29:28.426Z</time></trkpt><trkpt lat="44.4499738" lon="11.4396329"><ele>62.0</ele><time>2026-04-08T14:29:29.409Z</time></trkpt><trkpt lat="44.4498664" lon="11.43955"><ele>62.0</ele><time>2026-04-08T14:29:30.405Z</time></trkpt><trkpt lat="44.4497552" lon="11.4394525"><ele>62.0</ele><time>2026-04-08T14:29:31.407Z</time></trkpt><trkpt lat="44.4496524" lon="11.439347"><ele>62.0</ele><time>2026-04-08T14:29:32.402Z</time></trkpt><trkpt lat="44.4495537" lon="11.4392344"><ele>62.0</ele><time>2026-04-08T14:29:33.411Z</time></trkpt><trkpt lat="44.44946" lon="11.439106"><ele>62.333333333333336</ele><time>2026-04-08T14:29:34.41Z</time></trkpt><trkpt lat="44.4493631" lon="11.4389561"><ele>62.66666666666667</ele><time>2026-04-08T14:29:35.412Z</time></trkpt><trkpt lat="44.4492429" lon="11.4388043"><ele>63.0</ele><time>2026-04-08T14:29:36.4Z</time></trkpt><trkpt lat="44.4490944" lon="11.438644"><ele>63.66666666666667</ele><time>2026-04-08T14:29:37.41Z</time></trkpt><trkpt lat="44.4489838" lon="11.438486"><ele>64.33333333333334</ele><time>2026-04-08T14:29:38.403Z</time></trkpt><trkpt lat="44.448893" lon="11.4382828"><ele>65.0</ele><time>2026-04-08T14:29:39.437Z</time></trkpt><trkpt lat="44.4487995" lon="11.4380934"><ele>65.66666666666667</ele><time>2026-04-08T14:29:40.408Z</time></trkpt><trkpt lat="44.4487007" lon="11.4378795"><ele>66.33333333333333</ele><time>2026-04-08T14:29:41.407Z</time></trkpt><trkpt lat="44.4486536" lon="11.4376672"><ele>67.0</ele><time>2026-04-08T14:29:42.417Z</time></trkpt><trkpt lat="44.4486502" lon="11.4374363"><ele>67.0</ele><time>2026-04-08T14:29:43.42Z</time></trkpt><trkpt lat="44.4486067" lon="11.4371965"><ele>67.0</ele><time>2026-04-08T14:29:44.434Z</time></trkpt><trkpt lat="44.4486137" lon="11.4369395"><ele>67.0</ele><time>2026-04-08T14:29:45.399Z</time></trkpt><trkpt lat="44.4486124" lon="11.4367299"><ele>66.5</ele><time>2026-04-08T14:29:46.419Z</time></trkpt><trkpt lat="44.4485954" lon="11.4365326"><ele>66.0</ele><time>2026-04-08T14:29:47.415Z</time></trkpt><trkpt lat="44.4485464" lon="11.4363515"><ele>65.5</ele><time>2026-04-08T14:29:48.413Z</time></trkpt><trkpt lat="44.4484752" lon="11.4362144"><ele>65.0</ele><time>2026-04-08T14:29:49.41Z</time></trkpt><trkpt lat="44.4483906" lon="11.4360889"><ele>65.0</ele><time>2026-04-08T14:29:50.417Z</time></trkpt><trkpt lat="44.4482697" lon="11.4359731"><ele>65.0</ele><time>2026-04-08T14:29:51.411Z</time></trkpt><trkpt lat="44.4481534" lon="11.4358718"><ele>65.0</ele><time>2026-04-08T14:29:52.397Z</time></trkpt><trkpt lat="44.4480417" lon="11.4357999"><ele>65.0</ele><time>2026-04-08T14:29:53.398Z</time></trkpt><trkpt lat="44.4478972" lon="11.4357587"><ele>64.75</ele><time>2026-04-08T14:29:54.411Z</time></trkpt><trkpt lat="44.4477637" lon="11.43573"><ele>64.5</ele><time>2026-04-08T14:29:55.408Z</time></trkpt><trkpt lat="44.4476163" lon="11.4357305"><ele>64.25</ele><time>2026-04-08T14:29:56.404Z</time></trkpt><trkpt lat="44.4474686" lon="11.4357062"><ele>64.0</ele><time>2026-04-08T14:29:57.406Z</time></trkpt><trkpt lat="44.4473216" lon="11.4357272"><ele>64.0</ele><time>2026-04-08T14:29:58.416Z</time></trkpt><trkpt lat="44.4471424" lon="11.4357081"><ele>64.0</ele><time>2026-04-08T14:29:59.411Z</time></trkpt><trkpt lat="44.4469965" lon="11.4356697"><ele>64.0</ele><time>2026-04-08T14:30:00.404Z</time></trkpt><trkpt lat="44.4468648" lon="11.435614"><ele>64.2</ele><time>2026-04-08T14:30:01.412Z</time></trkpt><trkpt lat="44.4467358" lon="11.4355191"><ele>64.4</ele><time>2026-04-08T14:30:02.403Z</time></trkpt><trkpt lat="44.4466323" lon="11.4354676"><ele>64.6</ele><time>2026-04-08T14:30:03.409Z</time></trkpt><trkpt lat="44.4465455" lon="11.4354156"><ele>64.8</ele><time>2026-04-08T14:30:04.449Z</time></trkpt><trkpt lat="44.4464712" lon="11.4353701"><ele>65.0</ele><time>2026-04-08T14:30:05.423Z</time></trkpt><trkpt lat="44.4464152" lon="11.4353241"><ele>65.2</ele><time>2026-04-08T14:30:06.424Z</time></trkpt><trkpt lat="44.4463443" lon="11.4352807"><ele>65.4</ele><time>2026-04-08T14:30:07.399Z</time></trkpt><trkpt lat="44.4462728" lon="11.4352354"><ele>65.6</ele><time>2026-04-08T14:30:09.403Z</time></trkpt><trkpt lat="44.446141" lon="11.435169"><ele>65.8</ele><time>2026-04-08T14:30:11.404Z</time></trkpt><trkpt lat="44.4460458" lon="11.4351136"><ele>66.0</ele><time>2026-04-08T14:30:12.409Z</time></trkpt><trkpt lat="44.4459414" lon="11.4350367"><ele>66.39999999999999</ele><time>2026-04-08T14:30:13.411Z</time></trkpt><trkpt lat="44.4458541" lon="11.4349733"><ele>66.8</ele><time>2026-04-08T14:30:14.409Z</time></trkpt><trkpt lat="44.4457689" lon="11.434935"><ele>67.19999999999999</ele><time>2026-04-08T14:30:15.413Z</time></trkpt><trkpt lat="44.4456827" lon="11.4349293"><ele>67.6</ele><time>2026-04-08T14:30:16.409Z</time></trkpt><trkpt lat="44.4455716" lon="11.4349528"><ele>68.0</ele><time>2026-04-08T14:30:17.404Z</time></trkpt><trkpt lat="44.4454776" lon="11.4349741"><ele>67.6</ele><time>2026-04-08T14:30:18.404Z</time></trkpt><trkpt lat="44.445408" lon="11.4349761"><ele>67.19999999999999</ele><time>2026-04-08T14:30:19.399Z</time></trkpt><trkpt lat="44.4453239" lon="11.4348637"><ele>66.8</ele><time>2026-04-08T14:30:21.409Z</time></trkpt><trkpt lat="44.4453127" lon="11.4347343"><ele>66.39999999999999</ele><time>2026-04-08T14:30:22.401Z</time></trkpt><trkpt lat="44.4453131" lon="11.4345871"><ele>66.0</ele><time>2026-04-08T14:30:23.405Z</time></trkpt><trkpt lat="44.4453012" lon="11.4344361"><ele>66.0</ele><time>2026-04-08T14:30:24.409Z</time></trkpt><trkpt lat="44.4452845" lon="11.4342945"><ele>66.0</ele><time>2026-04-08T14:30:25.398Z</time></trkpt><trkpt lat="44.4452587" lon="11.4341571"><ele>66.0</ele><time>2026-04-08T14:30:26.408Z</time></trkpt><trkpt lat="44.4452346" lon="11.4340219"><ele>66.0</ele><time>2026-04-08T14:30:27.4Z</time></trkpt><trkpt lat="44.4452042" lon="11.4338997"><ele>66.0</ele><time>2026-04-08T14:30:28.407Z</time></trkpt><trkpt lat="44.4451568" lon="11.4338059"><ele>66.75</ele><time>2026-04-08T14:30:29.4Z</time></trkpt><trkpt lat="44.4450781" lon="11.433718"><ele>67.5</ele><time>2026-04-08T14:30:30.405Z</time></trkpt><trkpt lat="44.4449642" lon="11.4336661"><ele>68.25</ele><time>2026-04-08T14:30:31.412Z</time></trkpt><trkpt lat="44.4448353" lon="11.433611"><ele>69.0</ele><time>2026-04-08T14:30:32.407Z</time></trkpt><trkpt lat="44.4447009" lon="11.4335491"><ele>70.75</ele><time>2026-04-08T14:30:33.411Z</time></trkpt><trkpt lat="44.4445751" lon="11.4334901"><ele>72.5</ele><time>2026-04-08T14:30:34.412Z</time></trkpt><trkpt lat="44.4444512" lon="11.433415"><ele>74.25</ele><time>2026-04-08T14:30:35.406Z</time></trkpt><trkpt lat="44.4443254" lon="11.4333457"><ele>76.0</ele><time>2026-04-08T14:30:36.401Z</time></trkpt><trkpt lat="44.4442095" lon="11.433286"><ele>76.0</ele><time>2026-04-08T14:30:37.405Z</time></trkpt><trkpt lat="44.444099" lon="11.4332697"><ele>76.0</ele><time>2026-04-08T14:30:38.406Z</time></trkpt><trkpt lat="44.4439959" lon="11.4333149"><ele>76.0</ele><time>2026-04-08T14:30:39.398Z</time></trkpt><trkpt lat="44.4438924" lon="11.4333692"><ele>76.0</ele><time>2026-04-08T14:30:40.403Z</time></trkpt><trkpt lat="44.4437907" lon="11.4334588"><ele>77.33333333333333</ele><time>2026-04-08T14:30:41.402Z</time></trkpt><trkpt lat="44.443693" lon="11.4335881"><ele>78.66666666666667</ele><time>2026-04-08T14:30:42.404Z</time></trkpt><trkpt lat="44.443593" lon="11.4337783"><ele>80.0</ele><time>2026-04-08T14:30:43.395Z</time></trkpt><trkpt lat="44.4434827" lon="11.4339291"><ele>80.0</ele><time>2026-04-08T14:30:44.397Z</time></trkpt><trkpt lat="44.4433661" lon="11.4340035"><ele>80.0</ele><time>2026-04-08T14:30:45.395Z</time></trkpt><trkpt lat="44.4432802" lon="11.4340809"><ele>80.0</ele><time>2026-04-08T14:30:46.395Z</time></trkpt><trkpt lat="44.4431926" lon="11.4341353"><ele>80.0</ele><time>2026-04-08T14:30:47.393Z</time></trkpt><trkpt lat="44.4431586" lon="11.4342136"><ele>80.0</ele><time>2026-04-08T14:30:48.405Z</time></trkpt><trkpt lat="44.4431561" lon="11.4343706"><ele>80.0</ele><time>2026-04-08T14:30:50.404Z</time></trkpt><trkpt lat="44.4431026" lon="11.4344277"><ele>80.0</ele><time>2026-04-08T14:30:52.398Z</time></trkpt><trkpt lat="44.4430388" lon="11.4344768"><ele>80.0</ele><time>2026-04-08T14:30:54.39Z</time></trkpt><trkpt lat="44.4430368" lon="11.4345695"><ele>80.0</ele><time>2026-04-08T14:30:56.422Z</time></trkpt><trkpt lat="44.4430105" lon="11.4346504"><ele>80.0</ele><time>2026-04-08T14:30:57.395Z</time></trkpt><trkpt lat="44.4429828" lon="11.4347313"><ele>80.0</ele><time>2026-04-08T14:30:58.427Z</time></trkpt><trkpt lat="44.4429221" lon="11.4348418"><ele>80.0</ele><time>2026-04-08T14:31:00.4Z</time></trkpt><trkpt lat="44.4428003" lon="11.434864"><ele>81.0</ele><time>2026-04-08T14:31:02.4Z</time></trkpt><trkpt lat="44.4427277" lon="11.4348377"><ele>82.0</ele><time>2026-04-08T14:31:03.408Z</time></trkpt><trkpt lat="44.442637" lon="11.4347703"><ele>83.0</ele><time>2026-04-08T14:31:04.403Z</time></trkpt><trkpt lat="44.4425174" lon="11.4346836"><ele>84.0</ele><time>2026-04-08T14:31:05.402Z</time></trkpt><trkpt lat="44.4423853" lon="11.4345891"><ele>84.0</ele><time>2026-04-08T14:31:06.399Z</time></trkpt><trkpt lat="44.4422599" lon="11.4344999"><ele>84.0</ele><time>2026-04-08T14:31:07.396Z</time></trkpt><trkpt lat="44.4421311" lon="11.4344159"><ele>84.0</ele><time>2026-04-08T14:31:08.4Z</time></trkpt><trkpt lat="44.4419657" lon="11.434359"><ele>86.0</ele><time>2026-04-08T14:31:09.399Z</time></trkpt><trkpt lat="44.4417712" lon="11.4343032"><ele>88.0</ele><time>2026-04-08T14:31:10.4Z</time></trkpt><trkpt lat="44.44162" lon="11.4342753"><ele>90.0</ele><time>2026-04-08T14:31:11.403Z</time></trkpt><trkpt lat="44.4415174" lon="11.4342391"><ele>90.0</ele><time>2026-04-08T14:31:12.442Z</time></trkpt><trkpt lat="44.4413729" lon="11.4341969"><ele>90.0</ele><time>2026-04-08T14:31:13.565Z</time></trkpt><trkpt lat="44.4411461" lon="11.4339818"><ele>90.0</ele><time>2026-04-08T14:31:15.425Z</time></trkpt><trkpt lat="44.4410126" lon="11.4338271"><ele>91.66666666666667</ele><time>2026-04-08T14:31:16.402Z</time></trkpt><trkpt lat="44.4408834" lon="11.4337044"><ele>93.33333333333334</ele><time>2026-04-08T14:31:17.402Z</time></trkpt><trkpt lat="44.4407342" lon="11.4335649"><ele>95.0</ele><time>2026-04-08T14:31:18.402Z</time></trkpt><trkpt lat="44.4405673" lon="11.4334177"><ele>93.66666666666667</ele><time>2026-04-08T14:31:19.43Z</time></trkpt><trkpt lat="44.4403931" lon="11.4332728"><ele>92.33333333333333</ele><time>2026-04-08T14:31:20.423Z</time></trkpt><trkpt lat="44.4402628" lon="11.4331735"><ele>91.0</ele><time>2026-04-08T14:31:21.424Z</time></trkpt><trkpt lat="44.4401262" lon="11.4330425"><ele>91.75</ele><time>2026-04-08T14:31:22.406Z</time></trkpt><trkpt lat="44.4399823" lon="11.4329695"><ele>92.5</ele><time>2026-04-08T14:31:23.394Z</time></trkpt><trkpt lat="44.4398721" lon="11.4328827"><ele>93.25</ele><time>2026-04-08T14:31:24.394Z</time></trkpt><trkpt lat="44.4397458" lon="11.4327396"><ele>94.0</ele><time>2026-04-08T14:31:25.403Z</time></trkpt><trkpt lat="44.4395949" lon="11.4326048"><ele>94.0</ele><time>2026-04-08T14:31:26.4Z</time></trkpt><trkpt lat="44.4394706" lon="11.4324861"><ele>94.0</ele><time>2026-04-08T14:31:27.407Z</time></trkpt><trkpt lat="44.4393729" lon="11.4323885"><ele>94.0</ele><time>2026-04-08T14:31:28.408Z</time></trkpt><trkpt lat="44.4392739" lon="11.432344"><ele>94.0</ele><time>2026-04-08T14:31:29.491Z</time></trkpt><trkpt lat="44.4391179" lon="11.432246"><ele>94.0</ele><time>2026-04-08T14:31:30.427Z</time></trkpt><trkpt lat="44.4389593" lon="11.4321487"><ele>94.0</ele><time>2026-04-08T14:31:31.404Z</time></trkpt><trkpt lat="44.4388197" lon="11.432081"><ele>94.0</ele><time>2026-04-08T14:31:32.398Z</time></trkpt><trkpt lat="44.4387256" lon="11.4320215"><ele>94.0</ele><time>2026-04-08T14:31:33.411Z</time></trkpt><trkpt lat="44.4386102" lon="11.4319167"><ele>95.2</ele><time>2026-04-08T14:31:34.402Z</time></trkpt><trkpt lat="44.4384859" lon="11.4318188"><ele>96.4</ele><time>2026-04-08T14:31:35.407Z</time></trkpt><trkpt lat="44.4383892" lon="11.4317392"><ele>97.6</ele><time>2026-04-08T14:31:36.406Z</time></trkpt><trkpt lat="44.4383184" lon="11.4316724"><ele>98.8</ele><time>2026-04-08T14:31:37.397Z</time></trkpt><trkpt lat="44.4382369" lon="11.4316654"><ele>100.0</ele><time>2026-04-08T14:31:38.401Z</time></trkpt><trkpt lat="44.4381253" lon="11.4316421"><ele>100.0</ele><time>2026-04-08T14:31:39.401Z</time></trkpt><trkpt lat="44.4380203" lon="11.4316483"><ele>100.0</ele><time>2026-04-08T14:31:40.4Z</time></trkpt><trkpt lat="44.4378733" lon="11.4316411"><ele>100.0</ele><time>2026-04-08T14:31:41.4Z</time></trkpt><trkpt lat="44.4377201" lon="11.4316274"><ele>100.0</ele><time>2026-04-08T14:31:42.395Z</time></trkpt><trkpt lat="44.4375326" lon="11.4316114"><ele>99.0</ele><time>2026-04-08T14:31:43.401Z</time></trkpt><trkpt lat="44.4373784" lon="11.4315782"><ele>98.0</ele><time>2026-04-08T14:31:44.403Z</time></trkpt><trkpt lat="44.4372324" lon="11.4315271"><ele>97.0</ele><time>2026-04-08T14:31:45.405Z</time></trkpt><trkpt lat="44.4370962" lon="11.4314918"><ele>96.0</ele><time>2026-04-08T14:31:46.404Z</time></trkpt><trkpt lat="44.4369766" lon="11.4314712"><ele>95.5</ele><time>2026-04-08T14:31:47.402Z</time></trkpt><trkpt lat="44.4368751" lon="11.4314627"><ele>95.0</ele><time>2026-04-08T14:31:48.404Z</time></trkpt><trkpt lat="44.4367528" lon="11.4314632"><ele>94.5</ele><time>2026-04-08T14:31:49.427Z</time></trkpt><trkpt lat="44.4366099" lon="11.4314506"><ele>94.0</ele><time>2026-04-08T14:31:50.422Z</time></trkpt><trkpt lat="44.4364644" lon="11.4314456"><ele>94.0</ele><time>2026-04-08T14:31:51.426Z</time></trkpt><trkpt lat="44.436351" lon="11.431469"><ele>94.0</ele><time>2026-04-08T14:31:52.411Z</time></trkpt><trkpt lat="44.4362827" lon="11.4315248"><ele>94.0</ele><time>2026-04-08T14:31:53.405Z</time></trkpt><trkpt lat="44.4361556" lon="11.4315516"><ele>94.0</ele><time>2026-04-08T14:31:54.406Z</time></trkpt><trkpt lat="44.4359693" lon="11.4315638"><ele>92.66666666666666</ele><time>2026-04-08T14:31:55.406Z</time></trkpt><trkpt lat="44.4357739" lon="11.4315683"><ele>91.33333333333333</ele><time>2026-04-08T14:31:56.406Z</time></trkpt><trkpt lat="44.4356131" lon="11.431595"><ele>90.0</ele><time>2026-04-08T14:31:57.414Z</time></trkpt><trkpt lat="44.4354657" lon="11.4316357"><ele>89.0</ele><time>2026-04-08T14:31:58.409Z</time></trkpt><trkpt lat="44.4353285" lon="11.4316755"><ele>88.0</ele><time>2026-04-08T14:31:59.409Z</time></trkpt><trkpt lat="44.4351932" lon="11.431721"><ele>87.0</ele><time>2026-04-08T14:32:00.409Z</time></trkpt><trkpt lat="44.4350398" lon="11.4317379"><ele>86.0</ele><time>2026-04-08T14:32:01.413Z</time></trkpt><trkpt lat="44.4348741" lon="11.4317668"><ele>86.0</ele><time>2026-04-08T14:32:02.41Z</time></trkpt><trkpt lat="44.4347132" lon="11.4317618"><ele>86.0</ele><time>2026-04-08T14:32:03.409Z</time></trkpt><trkpt lat="44.4345339" lon="11.4317967"><ele>86.0</ele><time>2026-04-08T14:32:04.421Z</time></trkpt><trkpt lat="44.4343776" lon="11.4318495"><ele>84.0</ele><time>2026-04-08T14:32:05.412Z</time></trkpt><trkpt lat="44.4342387" lon="11.4318748"><ele>82.0</ele><time>2026-04-08T14:32:06.406Z</time></trkpt><trkpt lat="44.4340913" lon="11.4318795"><ele>80.0</ele><time>2026-04-08T14:32:07.408Z</time></trkpt><trkpt lat="44.4339332" lon="11.431932"><ele>78.66666666666667</ele><time>2026-04-08T14:32:08.415Z</time></trkpt><trkpt lat="44.4337685" lon="11.432028"><ele>77.33333333333333</ele><time>2026-04-08T14:32:09.409Z</time></trkpt><trkpt lat="44.4336368" lon="11.4321337"><ele>76.0</ele><time>2026-04-08T14:32:10.399Z</time></trkpt><trkpt lat="44.433524" lon="11.4322506"><ele>76.0</ele><time>2026-04-08T14:32:11.408Z</time></trkpt><trkpt lat="44.4333948" lon="11.4323561"><ele>76.0</ele><time>2026-04-08T14:32:12.429Z</time></trkpt><trkpt lat="44.433264" lon="11.4324698"><ele>76.0</ele><time>2026-04-08T14:32:13.426Z</time></trkpt><trkpt lat="44.4331363" lon="11.4325511"><ele>76.0</ele><time>2026-04-08T14:32:14.398Z</time></trkpt><trkpt lat="44.4330276" lon="11.4326041"><ele>76.0</ele><time>2026-04-08T14:32:15.402Z</time></trkpt><trkpt lat="44.4329201" lon="11.4326131"><ele>76.0</ele><time>2026-04-08T14:32:16.405Z</time></trkpt><trkpt lat="44.4328517" lon="11.4325951"><ele>76.0</ele><time>2026-04-08T14:32:17.409Z</time></trkpt><trkpt lat="44.4327599" lon="11.4325439"><ele>76.0</ele><time>2026-04-08T14:32:18.401Z</time></trkpt><trkpt lat="44.432666" lon="11.4324698"><ele>76.0</ele><time>2026-04-08T14:32:19.406Z</time></trkpt><trkpt lat="44.4325778" lon="11.4324046"><ele>76.0</ele><time>2026-04-08T14:32:20.43Z</time></trkpt><trkpt lat="44.4324887" lon="11.4323325"><ele>76.0</ele><time>2026-04-08T14:32:21.406Z</time></trkpt><trkpt lat="44.4323917" lon="11.4322723"><ele>76.0</ele><time>2026-04-08T14:32:22.413Z</time></trkpt><trkpt lat="44.4322893" lon="11.4322138"><ele>76.0</ele><time>2026-04-08T14:32:23.407Z</time></trkpt><trkpt lat="44.4321782" lon="11.4321666"><ele>76.0</ele><time>2026-04-08T14:32:24.406Z</time></trkpt><trkpt lat="44.4320515" lon="11.4321092"><ele>76.75</ele><time>2026-04-08T14:32:25.408Z</time></trkpt><trkpt lat="44.431926" lon="11.4320451"><ele>77.5</ele><time>2026-04-08T14:32:26.406Z</time></trkpt><trkpt lat="44.4317946" lon="11.431971"><ele>78.25</ele><time>2026-04-08T14:32:27.409Z</time></trkpt><trkpt lat="44.4316655" lon="11.4319063"><ele>79.0</ele><time>2026-04-08T14:32:28.409Z</time></trkpt><trkpt lat="44.4315284" lon="11.4318228"><ele>79.0</ele><time>2026-04-08T14:32:29.402Z</time></trkpt><trkpt lat="44.4313699" lon="11.4317447"><ele>79.0</ele><time>2026-04-08T14:32:30.41Z</time></trkpt><trkpt lat="44.4312069" lon="11.4316701"><ele>79.0</ele><time>2026-04-08T14:32:31.403Z</time></trkpt><trkpt lat="44.4310799" lon="11.4316127"><ele>78.75</ele><time>2026-04-08T14:32:32.397Z</time></trkpt><trkpt lat="44.4309534" lon="11.4315448"><ele>78.5</ele><time>2026-04-08T14:32:33.405Z</time></trkpt><trkpt lat="44.4308322" lon="11.4314723"><ele>78.25</ele><time>2026-04-08T14:32:34.409Z</time></trkpt><trkpt lat="44.4307113" lon="11.4314089"><ele>78.0</ele><time>2026-04-08T14:32:35.409Z</time></trkpt><trkpt lat="44.4305879" lon="11.4313665"><ele>78.0</ele><time>2026-04-08T14:32:36.412Z</time></trkpt><trkpt lat="44.4304548" lon="11.4312978"><ele>78.0</ele><time>2026-04-08T14:32:37.399Z</time></trkpt><trkpt lat="44.430346" lon="11.4312263"><ele>78.0</ele><time>2026-04-08T14:32:38.401Z</time></trkpt><trkpt lat="44.4302152" lon="11.4311307"><ele>78.0</ele><time>2026-04-08T14:32:39.407Z</time></trkpt><trkpt lat="44.4301206" lon="11.4310814"><ele>78.0</ele><time>2026-04-08T14:32:40.406Z</time></trkpt><trkpt lat="44.4300058" lon="11.4310058"><ele>78.0</ele><time>2026-04-08T14:32:41.406Z</time></trkpt><trkpt lat="44.4299113" lon="11.4309522"><ele>78.0</ele><time>2026-04-08T14:32:42.408Z</time></trkpt><trkpt lat="44.4298308" lon="11.4308597"><ele>78.0</ele><time>2026-04-08T14:32:43.406Z</time></trkpt><trkpt lat="44.4297622" lon="11.4307469"><ele>78.0</ele><time>2026-04-08T14:32:44.401Z</time></trkpt><trkpt lat="44.4296789" lon="11.4306345"><ele>77.75</ele><time>2026-04-08T14:32:45.404Z</time></trkpt><trkpt lat="44.4295994" lon="11.4304934"><ele>77.5</ele><time>2026-04-08T14:32:46.425Z</time></trkpt><trkpt lat="44.4295096" lon="11.4303346"><ele>77.25</ele><time>2026-04-08T14:32:47.405Z</time></trkpt><trkpt lat="44.4294178" lon="11.4301755"><ele>77.0</ele><time>2026-04-08T14:32:48.424Z</time></trkpt><trkpt lat="44.4293275" lon="11.4300084"><ele>77.66666666666667</ele><time>2026-04-08T14:32:49.406Z</time></trkpt><trkpt lat="44.4291972" lon="11.4298484"><ele>78.33333333333333</ele><time>2026-04-08T14:32:50.407Z</time></trkpt><trkpt lat="44.4290824" lon="11.4296373"><ele>79.0</ele><time>2026-04-08T14:32:51.397Z</time></trkpt><trkpt lat="44.4289862" lon="11.4294285"><ele>78.75</ele><time>2026-04-08T14:32:52.401Z</time></trkpt><trkpt lat="44.4289287" lon="11.4292848"><ele>78.5</ele><time>2026-04-08T14:32:53.403Z</time></trkpt><trkpt lat="44.4288669" lon="11.4291265"><ele>78.25</ele><time>2026-04-08T14:32:54.423Z</time></trkpt><trkpt lat="44.4287973" lon="11.4289635"><ele>78.0</ele><time>2026-04-08T14:32:55.421Z</time></trkpt><trkpt lat="44.428682" lon="11.4287879"><ele>79.75</ele><time>2026-04-08T14:32:56.4Z</time></trkpt><trkpt lat="44.4285955" lon="11.4286399"><ele>81.5</ele><time>2026-04-08T14:32:57.406Z</time></trkpt><trkpt lat="44.428482" lon="11.4285268"><ele>83.25</ele><time>2026-04-08T14:32:58.409Z</time></trkpt><trkpt lat="44.4283783" lon="11.4283807"><ele>85.0</ele><time>2026-04-08T14:32:59.407Z</time></trkpt><trkpt lat="44.4282626" lon="11.4282526"><ele>85.0</ele><time>2026-04-08T14:33:00.403Z</time></trkpt><trkpt lat="44.4281488" lon="11.4281351"><ele>85.0</ele><time>2026-04-08T14:33:01.402Z</time></trkpt><trkpt lat="44.4280397" lon="11.4280772"><ele>85.0</ele><time>2026-04-08T14:33:02.405Z</time></trkpt><trkpt lat="44.4279007" lon="11.4279954"><ele>85.0</ele><time>2026-04-08T14:33:03.4Z</time></trkpt><trkpt lat="44.4278221" lon="11.4279367"><ele>85.6</ele><time>2026-04-08T14:33:04.403Z</time></trkpt><trkpt lat="44.4277455" lon="11.4278358"><ele>86.2</ele><time>2026-04-08T14:33:05.407Z</time></trkpt><trkpt lat="44.4276561" lon="11.4277367"><ele>86.80000000000001</ele><time>2026-04-08T14:33:06.401Z</time></trkpt><trkpt lat="44.4275957" lon="11.4276359"><ele>87.4</ele><time>2026-04-08T14:33:07.399Z</time></trkpt><trkpt lat="44.4275134" lon="11.4275991"><ele>88.0</ele><time>2026-04-08T14:33:08.43Z</time></trkpt><trkpt lat="44.4274127" lon="11.4275547"><ele>88.0</ele><time>2026-04-08T14:33:10.396Z</time></trkpt><trkpt lat="44.4273396" lon="11.4275347"><ele>88.0</ele><time>2026-04-08T14:33:11.401Z</time></trkpt><trkpt lat="44.4272422" lon="11.4275216"><ele>88.0</ele><time>2026-04-08T14:33:12.394Z</time></trkpt><trkpt lat="44.4271399" lon="11.4274953"><ele>88.0</ele><time>2026-04-08T14:33:13.4Z</time></trkpt><trkpt lat="44.4270231" lon="11.4274439"><ele>88.0</ele><time>2026-04-08T14:33:14.408Z</time></trkpt><trkpt lat="44.4269082" lon="11.427377"><ele>86.33333333333333</ele><time>2026-04-08T14:33:15.421Z</time></trkpt><trkpt lat="44.4267838" lon="11.4272931"><ele>84.66666666666667</ele><time>2026-04-08T14:33:16.425Z</time></trkpt><trkpt lat="44.4266407" lon="11.4271988"><ele>83.0</ele><time>2026-04-08T14:33:17.42Z</time></trkpt><trkpt lat="44.4264484" lon="11.4270883"><ele>83.0</ele><time>2026-04-08T14:33:18.419Z</time></trkpt><trkpt lat="44.426259" lon="11.4269711"><ele>83.0</ele><time>2026-04-08T14:33:19.422Z</time></trkpt><trkpt lat="44.426077" lon="11.4268675"><ele>83.0</ele><time>2026-04-08T14:33:20.403Z</time></trkpt><trkpt lat="44.4259014" lon="11.4267518"><ele>83.0</ele><time>2026-04-08T14:33:21.402Z</time></trkpt><trkpt lat="44.4257453" lon="11.4266604"><ele>83.0</ele><time>2026-04-08T14:33:22.403Z</time></trkpt><trkpt lat="44.4256006" lon="11.4265775"><ele>83.0</ele><time>2026-04-08T14:33:23.4Z</time></trkpt><trkpt lat="44.4254587" lon="11.4265218"><ele>82.83333333333334</ele><time>2026-04-08T14:33:24.402Z</time></trkpt><trkpt lat="44.4253512" lon="11.4264712"><ele>82.66666666666667</ele><time>2026-04-08T14:33:25.393Z</time></trkpt><trkpt lat="44.4252938" lon="11.4264135"><ele>82.5</ele><time>2026-04-08T14:33:26.404Z</time></trkpt><trkpt lat="44.4252237" lon="11.426372"><ele>82.33333333333333</ele><time>2026-04-08T14:33:27.399Z</time></trkpt><trkpt lat="44.4251346" lon="11.4263089"><ele>82.16666666666666</ele><time>2026-04-08T14:33:28.403Z</time></trkpt><trkpt lat="44.4250827" lon="11.4262431"><ele>82.0</ele><time>2026-04-08T14:33:29.402Z</time></trkpt><trkpt lat="44.4249998" lon="11.4261451"><ele>81.83333333333333</ele><time>2026-04-08T14:33:31.411Z</time></trkpt><trkpt lat="44.4249449" lon="11.4260876"><ele>81.66666666666666</ele><time>2026-04-08T14:33:38.412Z</time></trkpt><trkpt lat="44.4249017" lon="11.4260177"><ele>81.5</ele><time>2026-04-08T14:34:37.403Z</time></trkpt><trkpt lat="44.424863" lon="11.4259046"><ele>81.33333333333333</ele><time>2026-04-08T14:34:41.396Z</time></trkpt><trkpt lat="44.4247775" lon="11.425828"><ele>81.16666666666667</ele><time>2026-04-08T14:34:54.391Z</time></trkpt><trkpt lat="44.4247114" lon="11.4258163"><ele>81.0</ele><time>2026-04-08T14:34:55.425Z</time></trkpt><trkpt lat="44.4246306" lon="11.4257899"><ele>81.0</ele><time>2026-04-08T14:35:13.392Z</time></trkpt><trkpt lat="44.4245669" lon="11.4257663"><ele>81.0</ele><time>2026-04-08T14:36:35.409Z</time></trkpt><trkpt lat="44.4244583" lon="11.425729"><ele>81.0</ele><time>2026-04-08T14:38:32.426Z</time></trkpt><trkpt lat="44.4243614" lon="11.4256973"><ele>81.0</ele><time>2026-04-08T14:38:34.42Z</time></trkpt><trkpt lat="44.4242497" lon="11.4256485"><ele>81.0</ele><time>2026-04-08T14:38:36.423Z</time></trkpt><trkpt lat="44.4241414" lon="11.4255808"><ele>81.0</ele><time>2026-04-08T14:38:37.424Z</time></trkpt><trkpt lat="44.4240237" lon="11.4255056"><ele>81.0</ele><time>2026-04-08T14:38:38.414Z</time></trkpt><trkpt lat="44.4239001" lon="11.4254239"><ele>81.0</ele><time>2026-04-08T14:38:39.419Z</time></trkpt><trkpt lat="44.4237949" lon="11.4253638"><ele>81.0</ele><time>2026-04-08T14:38:40.432Z</time></trkpt><trkpt lat="44.423686" lon="11.4253092"><ele>82.33333333333333</ele><time>2026-04-08T14:38:41.434Z</time></trkpt><trkpt lat="44.4235535" lon="11.4252512"><ele>83.66666666666666</ele><time>2026-04-08T14:38:42.427Z</time></trkpt><trkpt lat="44.4233979" lon="11.425183"><ele>85.0</ele><time>2026-04-08T14:38:43.436Z</time></trkpt><trkpt lat="44.4232348" lon="11.4251021"><ele>85.0</ele><time>2026-04-08T14:38:44.429Z</time></trkpt><trkpt lat="44.4230556" lon="11.4249654"><ele>85.0</ele><time>2026-04-08T14:38:45.426Z</time></trkpt><trkpt lat="44.422874" lon="11.4248167"><ele>85.0</ele><time>2026-04-08T14:38:46.421Z</time></trkpt><trkpt lat="44.4226979" lon="11.4247091"><ele>85.25</ele><time>2026-04-08T14:38:47.42Z</time></trkpt><trkpt lat="44.4225575" lon="11.4245918"><ele>85.5</ele><time>2026-04-08T14:38:48.42Z</time></trkpt><trkpt lat="44.4224533" lon="11.4245202"><ele>85.75</ele><time>2026-04-08T14:38:49.419Z</time></trkpt><trkpt lat="44.4223356" lon="11.4244355"><ele>86.0</ele><time>2026-04-08T14:38:50.424Z</time></trkpt><trkpt lat="44.4221986" lon="11.424364"><ele>85.75</ele><time>2026-04-08T14:38:51.419Z</time></trkpt><trkpt lat="44.4220611" lon="11.4243197"><ele>85.5</ele><time>2026-04-08T14:38:52.428Z</time></trkpt><trkpt lat="44.4219272" lon="11.4242602"><ele>85.25</ele><time>2026-04-08T14:38:53.42Z</time></trkpt><trkpt lat="44.4218058" lon="11.4242377"><ele>85.0</ele><time>2026-04-08T14:38:54.422Z</time></trkpt><trkpt lat="44.4216878" lon="11.424188"><ele>85.0</ele><time>2026-04-08T14:38:55.422Z</time></trkpt><trkpt lat="44.4215841" lon="11.4241497"><ele>85.0</ele><time>2026-04-08T14:38:56.423Z</time></trkpt><trkpt lat="44.4214597" lon="11.4240828"><ele>85.0</ele><time>2026-04-08T14:38:57.431Z</time></trkpt><trkpt lat="44.4213201" lon="11.4239994"><ele>85.0</ele><time>2026-04-08T14:38:58.422Z</time></trkpt><trkpt lat="44.4211722" lon="11.4239067"><ele>85.5</ele><time>2026-04-08T14:38:59.503Z</time></trkpt><trkpt lat="44.4210321" lon="11.4238246"><ele>86.0</ele><time>2026-04-08T14:39:00.42Z</time></trkpt><trkpt lat="44.4209077" lon="11.4237677"><ele>86.5</ele><time>2026-04-08T14:39:01.419Z</time></trkpt><trkpt lat="44.4207817" lon="11.4237122"><ele>87.0</ele><time>2026-04-08T14:39:02.417Z</time></trkpt><trkpt lat="44.4206707" lon="11.4236788"><ele>89.0</ele><time>2026-04-08T14:39:03.423Z</time></trkpt><trkpt lat="44.4205762" lon="11.4236654"><ele>91.0</ele><time>2026-04-08T14:39:04.415Z</time></trkpt><trkpt lat="44.4204644" lon="11.423613"><ele>93.0</ele><time>2026-04-08T14:39:05.418Z</time></trkpt><trkpt lat="44.4203231" lon="11.4235247"><ele>95.0</ele><time>2026-04-08T14:39:06.417Z</time></trkpt><trkpt lat="44.4201852" lon="11.4234598"><ele>95.0</ele><time>2026-04-08T14:39:07.417Z</time></trkpt><trkpt lat="44.4200393" lon="11.4233858"><ele>95.0</ele><time>2026-04-08T14:39:08.414Z</time></trkpt><trkpt lat="44.4198494" lon="11.4233555"><ele>95.0</ele><time>2026-04-08T14:39:09.411Z</time></trkpt><trkpt lat="44.4196837" lon="11.4233027"><ele>93.66666666666667</ele><time>2026-04-08T14:39:10.418Z</time></trkpt><trkpt lat="44.4195112" lon="11.4232702"><ele>92.33333333333333</ele><time>2026-04-08T14:39:11.414Z</time></trkpt><trkpt lat="44.4193525" lon="11.4232396"><ele>91.0</ele><time>2026-04-08T14:39:12.408Z</time></trkpt><trkpt lat="44.4191925" lon="11.4232095"><ele>91.0</ele><time>2026-04-08T14:39:13.416Z</time></trkpt><trkpt lat="44.4190559" lon="11.423194"><ele>91.0</ele><time>2026-04-08T14:39:14.422Z</time></trkpt><trkpt lat="44.4189194" lon="11.4231739"><ele>91.0</ele><time>2026-04-08T14:39:15.423Z</time></trkpt><trkpt lat="44.4187623" lon="11.4231545"><ele>91.0</ele><time>2026-04-08T14:39:16.421Z</time></trkpt><trkpt lat="44.4186088" lon="11.4231128"><ele>90.66666666666666</ele><time>2026-04-08T14:39:17.421Z</time></trkpt><trkpt lat="44.4184149" lon="11.4230943"><ele>90.33333333333333</ele><time>2026-04-08T14:39:18.446Z</time></trkpt><trkpt lat="44.4182284" lon="11.4230758"><ele>90.0</ele><time>2026-04-08T14:39:19.413Z</time></trkpt><trkpt lat="44.4180624" lon="11.4230539"><ele>91.0</ele><time>2026-04-08T14:39:20.421Z</time></trkpt><trkpt lat="44.4178835" lon="11.4230459"><ele>92.0</ele><time>2026-04-08T14:39:21.42Z</time></trkpt><trkpt lat="44.4177127" lon="11.4230895"><ele>93.0</ele><time>2026-04-08T14:39:22.422Z</time></trkpt><trkpt lat="44.417544" lon="11.4230747"><ele>93.0</ele><time>2026-04-08T14:39:23.415Z</time></trkpt><trkpt lat="44.4173916" lon="11.4231078"><ele>93.0</ele><time>2026-04-08T14:39:24.449Z</time></trkpt><trkpt lat="44.4172176" lon="11.4231378"><ele>93.0</ele><time>2026-04-08T14:39:25.423Z</time></trkpt><trkpt lat="44.417033" lon="11.4231751"><ele>92.66666666666667</ele><time>2026-04-08T14:39:26.418Z</time></trkpt><trkpt lat="44.4168449" lon="11.4232123"><ele>92.33333333333334</ele><time>2026-04-08T14:39:27.414Z</time></trkpt><trkpt lat="44.4166652" lon="11.4232352"><ele>92.0</ele><time>2026-04-08T14:39:28.42Z</time></trkpt><trkpt lat="44.4164773" lon="11.4232801"><ele>91.66666666666667</ele><time>2026-04-08T14:39:29.449Z</time></trkpt><trkpt lat="44.4162906" lon="11.4233517"><ele>91.33333333333333</ele><time>2026-04-08T14:39:30.423Z</time></trkpt><trkpt lat="44.416139" lon="11.4233866"><ele>91.0</ele><time>2026-04-08T14:39:31.42Z</time></trkpt><trkpt lat="44.415971" lon="11.4234358"><ele>91.0</ele><time>2026-04-08T14:39:32.449Z</time></trkpt><trkpt lat="44.4157614" lon="11.423514"><ele>91.0</ele><time>2026-04-08T14:39:33.427Z</time></trkpt><trkpt lat="44.4155588" lon="11.4235818"><ele>91.0</ele><time>2026-04-08T14:39:34.42Z</time></trkpt><trkpt lat="44.4153958" lon="11.4236271"><ele>91.66666666666666</ele><time>2026-04-08T14:39:35.421Z</time></trkpt><trkpt lat="44.415211" lon="11.4236816"><ele>92.33333333333333</ele><time>2026-04-08T14:39:36.413Z</time></trkpt><trkpt lat="44.4150594" lon="11.4237479"><ele>93.0</ele><time>2026-04-08T14:39:37.417Z</time></trkpt><trkpt lat="44.4149002" lon="11.4238017"><ele>93.33333333333333</ele><time>2026-04-08T14:39:38.423Z</time></trkpt><trkpt lat="44.414756" lon="11.4238421"><ele>93.66666666666666</ele><time>2026-04-08T14:39:39.446Z</time></trkpt><trkpt lat="44.4145928" lon="11.4238758"><ele>94.0</ele><time>2026-04-08T14:39:40.427Z</time></trkpt><trkpt lat="44.414424" lon="11.4239309"><ele>94.0</ele><time>2026-04-08T14:39:41.412Z</time></trkpt><trkpt lat="44.4142352" lon="11.4239637"><ele>94.0</ele><time>2026-04-08T14:39:42.425Z</time></trkpt><trkpt lat="44.4140518" lon="11.4240114"><ele>94.0</ele><time>2026-04-08T14:39:43.417Z</time></trkpt><trkpt lat="44.4138708" lon="11.4240693"><ele>94.33333333333333</ele><time>2026-04-08T14:39:44.418Z</time></trkpt><trkpt lat="44.4137012" lon="11.4241294"><ele>94.66666666666667</ele><time>2026-04-08T14:39:45.422Z</time></trkpt><trkpt lat="44.4135292" lon="11.4241765"><ele>95.0</ele><time>2026-04-08T14:39:46.422Z</time></trkpt><trkpt lat="44.4133377" lon="11.4242341"><ele>95.0</ele><time>2026-04-08T14:39:47.42Z</time></trkpt><trkpt lat="44.4131368" lon="11.4242923"><ele>95.0</ele><time>2026-04-08T14:39:48.423Z</time></trkpt><trkpt lat="44.4129327" lon="11.424342"><ele>95.0</ele><time>2026-04-08T14:39:49.42Z</time></trkpt><trkpt lat="44.4127228" lon="11.4244063"><ele>94.66666666666667</ele><time>2026-04-08T14:39:50.424Z</time></trkpt><trkpt lat="44.4125239" lon="11.4244763"><ele>94.33333333333333</ele><time>2026-04-08T14:39:51.424Z</time></trkpt><trkpt lat="44.4123156" lon="11.4245279"><ele>94.0</ele><time>2026-04-08T14:39:52.417Z</time></trkpt><trkpt lat="44.4121108" lon="11.4245811"><ele>94.0</ele><time>2026-04-08T14:39:53.421Z</time></trkpt><trkpt lat="44.4119167" lon="11.4246373"><ele>94.0</ele><time>2026-04-08T14:39:54.416Z</time></trkpt><trkpt lat="44.4117348" lon="11.4246903"><ele>94.0</ele><time>2026-04-08T14:39:55.423Z</time></trkpt><trkpt lat="44.411571" lon="11.4247665"><ele>94.0</ele><time>2026-04-08T14:39:56.416Z</time></trkpt><trkpt lat="44.4114177" lon="11.4248234"><ele>94.0</ele><time>2026-04-08T14:39:57.417Z</time></trkpt><trkpt lat="44.4112883" lon="11.424865"><ele>94.0</ele><time>2026-04-08T14:39:58.415Z</time></trkpt><trkpt lat="44.4111567" lon="11.4249059"><ele>94.0</ele><time>2026-04-08T14:39:59.426Z</time></trkpt><trkpt lat="44.411033" lon="11.4249519"><ele>94.2</ele><time>2026-04-08T14:40:00.439Z</time></trkpt><trkpt lat="44.4109208" lon="11.4249889"><ele>94.4</ele><time>2026-04-08T14:40:01.418Z</time></trkpt><trkpt lat="44.4108357" lon="11.4250035"><ele>94.6</ele><time>2026-04-08T14:40:02.416Z</time></trkpt><trkpt lat="44.410741" lon="11.425024"><ele>94.8</ele><time>2026-04-08T14:40:03.443Z</time></trkpt><trkpt lat="44.4106539" lon="11.4250444"><ele>95.0</ele><time>2026-04-08T14:40:04.418Z</time></trkpt><trkpt lat="44.4105567" lon="11.4250484"><ele>95.2</ele><time>2026-04-08T14:40:05.45Z</time></trkpt><trkpt lat="44.4104777" lon="11.4250476"><ele>95.4</ele><time>2026-04-08T14:40:06.454Z</time></trkpt><trkpt lat="44.4103838" lon="11.4250447"><ele>95.6</ele><time>2026-04-08T14:40:07.424Z</time></trkpt><trkpt lat="44.4102811" lon="11.4250355"><ele>95.8</ele><time>2026-04-08T14:40:08.418Z</time></trkpt><trkpt lat="44.4101685" lon="11.4250119"><ele>96.0</ele><time>2026-04-08T14:40:09.414Z</time></trkpt><trkpt lat="44.4100563" lon="11.4250001"><ele>96.0</ele><time>2026-04-08T14:40:10.418Z</time></trkpt><trkpt lat="44.4099418" lon="11.4249823"><ele>96.0</ele><time>2026-04-08T14:40:11.414Z</time></trkpt><trkpt lat="44.4098201" lon="11.4249621"><ele>96.0</ele><time>2026-04-08T14:40:12.425Z</time></trkpt><trkpt lat="44.409708" lon="11.4249424"><ele>96.0</ele><time>2026-04-08T14:40:13.422Z</time></trkpt><trkpt lat="44.4095843" lon="11.4249209"><ele>96.25</ele><time>2026-04-08T14:40:14.425Z</time></trkpt><trkpt lat="44.4094527" lon="11.4249056"><ele>96.5</ele><time>2026-04-08T14:40:15.419Z</time></trkpt><trkpt lat="44.4093203" lon="11.424895"><ele>96.75</ele><time>2026-04-08T14:40:16.413Z</time></trkpt><trkpt lat="44.4091805" lon="11.4248921"><ele>97.0</ele><time>2026-04-08T14:40:17.419Z</time></trkpt><trkpt lat="44.4090309" lon="11.4248875"><ele>97.0</ele><time>2026-04-08T14:40:18.42Z</time></trkpt><trkpt lat="44.4088591" lon="11.4248739"><ele>97.0</ele><time>2026-04-08T14:40:19.416Z</time></trkpt><trkpt lat="44.4086822" lon="11.4248518"><ele>97.0</ele><time>2026-04-08T14:40:20.423Z</time></trkpt><trkpt lat="44.4084977" lon="11.4248332"><ele>96.33333333333334</ele><time>2026-04-08T14:40:21.421Z</time></trkpt><trkpt lat="44.4082917" lon="11.424816"><ele>95.66666666666667</ele><time>2026-04-08T14:40:22.424Z</time></trkpt><trkpt lat="44.4081175" lon="11.4247947"><ele>95.0</ele><time>2026-04-08T14:40:23.443Z</time></trkpt><trkpt lat="44.4079276" lon="11.4247746"><ele>95.0</ele><time>2026-04-08T14:40:24.425Z</time></trkpt><trkpt lat="44.4077562" lon="11.4247502"><ele>95.0</ele><time>2026-04-08T14:40:25.426Z</time></trkpt><trkpt lat="44.4075917" lon="11.4247311"><ele>95.0</ele><time>2026-04-08T14:40:26.417Z</time></trkpt><trkpt lat="44.4074594" lon="11.4247338"><ele>95.0</ele><time>2026-04-08T14:40:27.419Z</time></trkpt><trkpt lat="44.4073255" lon="11.4247343"><ele>95.0</ele><time>2026-04-08T14:40:28.443Z</time></trkpt><trkpt lat="44.4071806" lon="11.4247336"><ele>95.0</ele><time>2026-04-08T14:40:29.415Z</time></trkpt><trkpt lat="44.4070391" lon="11.4247202"><ele>95.0</ele><time>2026-04-08T14:40:30.417Z</time></trkpt><trkpt lat="44.4068972" lon="11.4246986"><ele>95.66666666666667</ele><time>2026-04-08T14:40:31.419Z</time></trkpt><trkpt lat="44.4067394" lon="11.4246743"><ele>96.33333333333334</ele><time>2026-04-08T14:40:32.411Z</time></trkpt><trkpt lat="44.4065898" lon="11.424642"><ele>97.0</ele><time>2026-04-08T14:40:33.42Z</time></trkpt><trkpt lat="44.4064338" lon="11.4245999"><ele>98.33333333333334</ele><time>2026-04-08T14:40:34.418Z</time></trkpt><trkpt lat="44.406303" lon="11.4245331"><ele>99.66666666666666</ele><time>2026-04-08T14:40:35.413Z</time></trkpt><trkpt lat="44.4061639" lon="11.4244544"><ele>101.0</ele><time>2026-04-08T14:40:36.443Z</time></trkpt><trkpt lat="44.4060149" lon="11.4243625"><ele>101.0</ele><time>2026-04-08T14:40:37.408Z</time></trkpt><trkpt lat="44.4058393" lon="11.4242472"><ele>101.0</ele><time>2026-04-08T14:40:38.412Z</time></trkpt><trkpt lat="44.4057013" lon="11.4241037"><ele>101.0</ele><time>2026-04-08T14:40:39.415Z</time></trkpt><trkpt lat="44.4055941" lon="11.4239368"><ele>102.8</ele><time>2026-04-08T14:40:40.415Z</time></trkpt><trkpt lat="44.4054972" lon="11.4238058"><ele>104.6</ele><time>2026-04-08T14:40:41.432Z</time></trkpt><trkpt lat="44.4054181" lon="11.4236738"><ele>106.4</ele><time>2026-04-08T14:40:42.437Z</time></trkpt><trkpt lat="44.4053619" lon="11.4235917"><ele>108.2</ele><time>2026-04-08T14:40:43.413Z</time></trkpt><trkpt lat="44.4052993" lon="11.423473"><ele>110.0</ele><time>2026-04-08T14:40:44.408Z</time></trkpt><trkpt lat="44.4052198" lon="11.4233744"><ele>110.0</ele><time>2026-04-08T14:40:45.411Z</time></trkpt><trkpt lat="44.4051279" lon="11.4232674"><ele>110.0</ele><time>2026-04-08T14:40:46.402Z</time></trkpt><trkpt lat="44.4050176" lon="11.4231712"><ele>110.0</ele><time>2026-04-08T14:40:47.403Z</time></trkpt><trkpt lat="44.4048986" lon="11.4231117"><ele>110.0</ele><time>2026-04-08T14:40:48.565Z</time></trkpt><trkpt lat="44.4046564" lon="11.4229397"><ele>112.5</ele><time>2026-04-08T14:40:50.423Z</time></trkpt><trkpt lat="44.4045228" lon="11.4228759"><ele>115.0</ele><time>2026-04-08T14:40:51.403Z</time></trkpt><trkpt lat="44.4043794" lon="11.4228498"><ele>117.5</ele><time>2026-04-08T14:40:52.408Z</time></trkpt><trkpt lat="44.404222" lon="11.4228583"><ele>120.0</ele><time>2026-04-08T14:40:53.433Z</time></trkpt><trkpt lat="44.404066" lon="11.4228672"><ele>120.0</ele><time>2026-04-08T14:40:54.404Z</time></trkpt><trkpt lat="44.4039251" lon="11.4228576"><ele>120.0</ele><time>2026-04-08T14:40:55.405Z</time></trkpt><trkpt lat="44.4037759" lon="11.4228908"><ele>120.0</ele><time>2026-04-08T14:40:56.417Z</time></trkpt><trkpt lat="44.4035788" lon="11.4229312"><ele>115.75</ele><time>2026-04-08T14:40:57.409Z</time></trkpt><trkpt lat="44.4034149" lon="11.4229855"><ele>111.5</ele><time>2026-04-08T14:40:58.409Z</time></trkpt><trkpt lat="44.403272" lon="11.4230514"><ele>107.25</ele><time>2026-04-08T14:40:59.406Z</time></trkpt><trkpt lat="44.4031563" lon="11.4230957"><ele>103.0</ele><time>2026-04-08T14:41:00.408Z</time></trkpt><trkpt lat="44.403043" lon="11.4231726"><ele>103.0</ele><time>2026-04-08T14:41:01.408Z</time></trkpt><trkpt lat="44.4029583" lon="11.4232304"><ele>103.0</ele><time>2026-04-08T14:41:02.403Z</time></trkpt><trkpt lat="44.4028551" lon="11.4232856"><ele>103.0</ele><time>2026-04-08T14:41:03.414Z</time></trkpt><trkpt lat="44.4027569" lon="11.4233989"><ele>103.0</ele><time>2026-04-08T14:41:04.484Z</time></trkpt><trkpt lat="44.4026708" lon="11.4234487"><ele>103.0</ele><time>2026-04-08T14:41:05.446Z</time></trkpt><trkpt lat="44.4026143" lon="11.4235237"><ele>103.0</ele><time>2026-04-08T14:41:06.442Z</time></trkpt><trkpt lat="44.4025141" lon="11.4235614"><ele>103.0</ele><time>2026-04-08T14:41:07.421Z</time></trkpt><trkpt lat="44.4024096" lon="11.4236098"><ele>103.0</ele><time>2026-04-08T14:41:08.419Z</time></trkpt><trkpt lat="44.4023069" lon="11.423655"><ele>103.0</ele><time>2026-04-08T14:41:09.411Z</time></trkpt><trkpt lat="44.402183" lon="11.4237054"><ele>102.66666666666667</ele><time>2026-04-08T14:41:10.413Z</time></trkpt><trkpt lat="44.402052" lon="11.4237604"><ele>102.33333333333334</ele><time>2026-04-08T14:41:11.414Z</time></trkpt><trkpt lat="44.4019096" lon="11.4238301"><ele>102.0</ele><time>2026-04-08T14:41:12.414Z</time></trkpt><trkpt lat="44.4017472" lon="11.4238926"><ele>102.0</ele><time>2026-04-08T14:41:13.412Z</time></trkpt><trkpt lat="44.4016065" lon="11.4239443"><ele>102.0</ele><time>2026-04-08T14:41:14.439Z</time></trkpt><trkpt lat="44.4014087" lon="11.4240292"><ele>102.0</ele><time>2026-04-08T14:41:15.415Z</time></trkpt><trkpt lat="44.4012246" lon="11.4241631"><ele>103.0</ele><time>2026-04-08T14:41:16.411Z</time></trkpt><trkpt lat="44.401058" lon="11.424274"><ele>104.0</ele><time>2026-04-08T14:41:17.417Z</time></trkpt><trkpt lat="44.400916" lon="11.4243828"><ele>105.0</ele><time>2026-04-08T14:41:18.412Z</time></trkpt><trkpt lat="44.4007804" lon="11.4244694"><ele>105.0</ele><time>2026-04-08T14:41:19.419Z</time></trkpt><trkpt lat="44.400637" lon="11.4245499"><ele>105.0</ele><time>2026-04-08T14:41:20.413Z</time></trkpt><trkpt lat="44.4004978" lon="11.4246435"><ele>105.0</ele><time>2026-04-08T14:41:21.412Z</time></trkpt><trkpt lat="44.4003257" lon="11.4247382"><ele>105.25</ele><time>2026-04-08T14:41:22.442Z</time></trkpt><trkpt lat="44.4002042" lon="11.4248072"><ele>105.5</ele><time>2026-04-08T14:41:23.418Z</time></trkpt><trkpt lat="44.4000629" lon="11.4248878"><ele>105.75</ele><time>2026-04-08T14:41:24.416Z</time></trkpt><trkpt lat="44.3999193" lon="11.4249639"><ele>106.0</ele><time>2026-04-08T14:41:25.421Z</time></trkpt><trkpt lat="44.3997579" lon="11.4250416"><ele>107.0</ele><time>2026-04-08T14:41:26.42Z</time></trkpt><trkpt lat="44.3996188" lon="11.4250993"><ele>108.0</ele><time>2026-04-08T14:41:27.419Z</time></trkpt><trkpt lat="44.3994723" lon="11.4251821"><ele>109.0</ele><time>2026-04-08T14:41:28.417Z</time></trkpt><trkpt lat="44.3993299" lon="11.4252628"><ele>109.0</ele><time>2026-04-08T14:41:29.416Z</time></trkpt><trkpt lat="44.3991756" lon="11.4253693"><ele>109.0</ele><time>2026-04-08T14:41:30.416Z</time></trkpt><trkpt lat="44.399018" lon="11.4254441"><ele>109.0</ele><time>2026-04-08T14:41:31.416Z</time></trkpt><trkpt lat="44.3988819" lon="11.4255343"><ele>109.33333333333334</ele><time>2026-04-08T14:41:32.417Z</time></trkpt><trkpt lat="44.3987448" lon="11.4256197"><ele>109.66666666666666</ele><time>2026-04-08T14:41:33.42Z</time></trkpt><trkpt lat="44.398605" lon="11.4256946"><ele>110.0</ele><time>2026-04-08T14:41:34.418Z</time></trkpt><trkpt lat="44.3984508" lon="11.4257802"><ele>110.0</ele><time>2026-04-08T14:41:35.417Z</time></trkpt><trkpt lat="44.3983246" lon="11.4258616"><ele>110.0</ele><time>2026-04-08T14:41:36.415Z</time></trkpt><trkpt lat="44.3981954" lon="11.4259466"><ele>110.0</ele><time>2026-04-08T14:41:37.411Z</time></trkpt><trkpt lat="44.398065" lon="11.4260031"><ele>110.0</ele><time>2026-04-08T14:41:38.413Z</time></trkpt><trkpt lat="44.3979314" lon="11.4260724"><ele>110.0</ele><time>2026-04-08T14:41:39.418Z</time></trkpt><trkpt lat="44.3978006" lon="11.426155"><ele>110.0</ele><time>2026-04-08T14:41:40.424Z</time></trkpt><trkpt lat="44.3976868" lon="11.4262255"><ele>110.0</ele><time>2026-04-08T14:41:41.417Z</time></trkpt><trkpt lat="44.3975616" lon="11.4263098"><ele>110.0</ele><time>2026-04-08T14:41:42.417Z</time></trkpt><trkpt lat="44.3974487" lon="11.4263787"><ele>110.0</ele><time>2026-04-08T14:41:43.418Z</time></trkpt><trkpt lat="44.3973329" lon="11.4264444"><ele>110.0</ele><time>2026-04-08T14:41:44.415Z</time></trkpt><trkpt lat="44.3971998" lon="11.4265277"><ele>110.0</ele><time>2026-04-08T14:41:45.415Z</time></trkpt><trkpt lat="44.3970855" lon="11.4265787"><ele>110.0</ele><time>2026-04-08T14:41:46.419Z</time></trkpt><trkpt lat="44.3969782" lon="11.4265896"><ele>109.5</ele><time>2026-04-08T14:41:47.417Z</time></trkpt><trkpt lat="44.3968722" lon="11.4266277"><ele>109.0</ele><time>2026-04-08T14:41:48.414Z</time></trkpt><trkpt lat="44.3967558" lon="11.4266654"><ele>108.5</ele><time>2026-04-08T14:41:49.438Z</time></trkpt><trkpt lat="44.3966228" lon="11.4266978"><ele>108.0</ele><time>2026-04-08T14:41:50.425Z</time></trkpt><trkpt lat="44.3964926" lon="11.4267064"><ele>109.5</ele><time>2026-04-08T14:41:51.432Z</time></trkpt><trkpt lat="44.3962751" lon="11.4266985"><ele>111.0</ele><time>2026-04-08T14:41:52.436Z</time></trkpt><trkpt lat="44.3960284" lon="11.4267372"><ele>111.0</ele><time>2026-04-08T14:41:53.414Z</time></trkpt><trkpt lat="44.3957861" lon="11.4267859"><ele>111.0</ele><time>2026-04-08T14:41:54.442Z</time></trkpt><trkpt lat="44.3955643" lon="11.4268584"><ele>111.0</ele><time>2026-04-08T14:41:55.416Z</time></trkpt><trkpt lat="44.3953728" lon="11.4269304"><ele>111.0</ele><time>2026-04-08T14:41:56.416Z</time></trkpt><trkpt lat="44.3951836" lon="11.4269685"><ele>111.0</ele><time>2026-04-08T14:41:57.422Z</time></trkpt><trkpt lat="44.3949862" lon="11.4270093"><ele>111.0</ele><time>2026-04-08T14:41:58.461Z</time></trkpt><trkpt lat="44.3948219" lon="11.4270568"><ele>111.0</ele><time>2026-04-08T14:41:59.435Z</time></trkpt><trkpt lat="44.3946665" lon="11.4270496"><ele>111.0</ele><time>2026-04-08T14:42:00.416Z</time></trkpt><trkpt lat="44.3945181" lon="11.4270844"><ele>111.5</ele><time>2026-04-08T14:42:01.416Z</time></trkpt><trkpt lat="44.3943909" lon="11.4270867"><ele>112.0</ele><time>2026-04-08T14:42:02.41Z</time></trkpt><trkpt lat="44.3942673" lon="11.4271121"><ele>112.5</ele><time>2026-04-08T14:42:03.42Z</time></trkpt><trkpt lat="44.3941366" lon="11.4271208"><ele>113.0</ele><time>2026-04-08T14:42:04.406Z</time></trkpt><trkpt lat="44.3939928" lon="11.4271146"><ele>113.0</ele><time>2026-04-08T14:42:05.439Z</time></trkpt><trkpt lat="44.3938094" lon="11.427112"><ele>113.0</ele><time>2026-04-08T14:42:06.412Z</time></trkpt><trkpt lat="44.3936379" lon="11.4271792"><ele>113.0</ele><time>2026-04-08T14:42:07.453Z</time></trkpt><trkpt lat="44.3934438" lon="11.4272462"><ele>112.33333333333333</ele><time>2026-04-08T14:42:08.434Z</time></trkpt><trkpt lat="44.3932422" lon="11.4273176"><ele>111.66666666666666</ele><time>2026-04-08T14:42:09.414Z</time></trkpt><trkpt lat="44.3930357" lon="11.4273646"><ele>111.0</ele><time>2026-04-08T14:42:10.411Z</time></trkpt><trkpt lat="44.3928461" lon="11.4274264"><ele>110.33333333333334</ele><time>2026-04-08T14:42:11.413Z</time></trkpt><trkpt lat="44.3926332" lon="11.4274826"><ele>109.66666666666667</ele><time>2026-04-08T14:42:12.437Z</time></trkpt><trkpt lat="44.3924975" lon="11.4275411"><ele>109.0</ele><time>2026-04-08T14:42:13.438Z</time></trkpt><trkpt lat="44.3923483" lon="11.4275695"><ele>109.0</ele><time>2026-04-08T14:42:14.44Z</time></trkpt><trkpt lat="44.3922216" lon="11.4275989"><ele>109.0</ele><time>2026-04-08T14:42:15.411Z</time></trkpt><trkpt lat="44.3920711" lon="11.4276053"><ele>109.0</ele><time>2026-04-08T14:42:16.418Z</time></trkpt><trkpt lat="44.3919186" lon="11.4276365"><ele>109.0</ele><time>2026-04-08T14:42:17.418Z</time></trkpt><trkpt lat="44.391777" lon="11.4276733"><ele>109.66666666666667</ele><time>2026-04-08T14:42:18.439Z</time></trkpt><trkpt lat="44.3916255" lon="11.4277144"><ele>110.33333333333334</ele><time>2026-04-08T14:42:19.418Z</time></trkpt><trkpt lat="44.3914448" lon="11.4277325"><ele>111.0</ele><time>2026-04-08T14:42:20.44Z</time></trkpt><trkpt lat="44.3912782" lon="11.427778"><ele>111.66666666666666</ele><time>2026-04-08T14:42:21.412Z</time></trkpt><trkpt lat="44.391105" lon="11.4278216"><ele>112.33333333333333</ele><time>2026-04-08T14:42:22.416Z</time></trkpt><trkpt lat="44.3909505" lon="11.4278493"><ele>113.0</ele><time>2026-04-08T14:42:23.442Z</time></trkpt><trkpt lat="44.3907776" lon="11.4278708"><ele>113.0</ele><time>2026-04-08T14:42:24.418Z</time></trkpt><trkpt lat="44.3906037" lon="11.4279066"><ele>113.0</ele><time>2026-04-08T14:42:25.417Z</time></trkpt><trkpt lat="44.3904603" lon="11.4279344"><ele>113.0</ele><time>2026-04-08T14:42:26.415Z</time></trkpt><trkpt lat="44.3902975" lon="11.4279585"><ele>114.33333333333333</ele><time>2026-04-08T14:42:27.418Z</time></trkpt><trkpt lat="44.3901382" lon="11.4279677"><ele>115.66666666666666</ele><time>2026-04-08T14:42:28.412Z</time></trkpt><trkpt lat="44.3899856" lon="11.4280462"><ele>117.0</ele><time>2026-04-08T14:42:29.407Z</time></trkpt><trkpt lat="44.3898331" lon="11.4281375"><ele>116.66666666666666</ele><time>2026-04-08T14:42:30.412Z</time></trkpt><trkpt lat="44.3896728" lon="11.4282762"><ele>116.33333333333333</ele><time>2026-04-08T14:42:31.415Z</time></trkpt><trkpt lat="44.3895551" lon="11.4284625"><ele>116.0</ele><time>2026-04-08T14:42:32.404Z</time></trkpt><trkpt lat="44.3894544" lon="11.4286061"><ele>116.0</ele><time>2026-04-08T14:42:33.412Z</time></trkpt><trkpt lat="44.3893839" lon="11.4287259"><ele>116.0</ele><time>2026-04-08T14:42:34.41Z</time></trkpt><trkpt lat="44.389303" lon="11.428843"><ele>116.0</ele><time>2026-04-08T14:42:35.422Z</time></trkpt><trkpt lat="44.3892128" lon="11.4289579"><ele>116.0</ele><time>2026-04-08T14:42:36.434Z</time></trkpt><trkpt lat="44.3891692" lon="11.4290687"><ele>116.0</ele><time>2026-04-08T14:42:37.437Z</time></trkpt><trkpt lat="44.3891345" lon="11.4292186"><ele>115.99999999999999</ele><time>2026-04-08T14:42:38.427Z</time></trkpt><trkpt lat="44.3891085" lon="11.4293351"><ele>116.0</ele><time>2026-04-08T14:42:39.413Z</time></trkpt><trkpt lat="44.3891075" lon="11.4294529"><ele>116.0</ele><time>2026-04-08T14:42:40.417Z</time></trkpt><trkpt lat="44.3891187" lon="11.4295529"><ele>116.0</ele><time>2026-04-08T14:42:41.417Z</time></trkpt><trkpt lat="44.3891377" lon="11.4296523"><ele>115.99999999999999</ele><time>2026-04-08T14:42:42.413Z</time></trkpt><trkpt lat="44.3891805" lon="11.4297444"><ele>116.0</ele><time>2026-04-08T14:42:43.419Z</time></trkpt><trkpt lat="44.3892399" lon="11.4298361"><ele>116.0</ele><time>2026-04-08T14:42:44.412Z</time></trkpt><trkpt lat="44.3893115" lon="11.4299261"><ele>116.0</ele><time>2026-04-08T14:42:45.435Z</time></trkpt><trkpt lat="44.3893895" lon="11.4300308"><ele>116.0</ele><time>2026-04-08T14:42:46.414Z</time></trkpt><trkpt lat="44.3894795" lon="11.4301489"><ele>116.0</ele><time>2026-04-08T14:42:47.412Z</time></trkpt><trkpt lat="44.3895697" lon="11.4302753"><ele>116.0</ele><time>2026-04-08T14:42:48.415Z</time></trkpt><trkpt lat="44.3896594" lon="11.4303993"><ele>116.0</ele><time>2026-04-08T14:42:49.418Z</time></trkpt><trkpt lat="44.3897454" lon="11.4305189"><ele>116.0</ele><time>2026-04-08T14:42:50.419Z</time></trkpt><trkpt lat="44.3898301" lon="11.4306403"><ele>116.0</ele><time>2026-04-08T14:42:51.415Z</time></trkpt><trkpt lat="44.3899161" lon="11.4307737"><ele>116.6</ele><time>2026-04-08T14:42:52.421Z</time></trkpt><trkpt lat="44.3899965" lon="11.4308936"><ele>117.19999999999999</ele><time>2026-04-08T14:42:53.414Z</time></trkpt><trkpt lat="44.3900655" lon="11.4310021"><ele>117.80000000000001</ele><time>2026-04-08T14:42:54.414Z</time></trkpt><trkpt lat="44.3901267" lon="11.4310896"><ele>118.4</ele><time>2026-04-08T14:42:55.413Z</time></trkpt><trkpt lat="44.3901662" lon="11.4311714"><ele>119.0</ele><time>2026-04-08T14:42:56.407Z</time></trkpt><trkpt lat="44.3902291" lon="11.4312709"><ele>120.16666666666666</ele><time>2026-04-08T14:42:58.411Z</time></trkpt><trkpt lat="44.3902331" lon="11.4314007"><ele>121.33333333333333</ele><time>2026-04-08T14:43:01.431Z</time></trkpt><trkpt lat="44.3901981" lon="11.4314884"><ele>122.5</ele><time>2026-04-08T14:43:02.43Z</time></trkpt><trkpt lat="44.3901435" lon="11.431578"><ele>123.66666666666666</ele><time>2026-04-08T14:43:03.408Z</time></trkpt><trkpt lat="44.3900811" lon="11.4316651"><ele>124.83333333333333</ele><time>2026-04-08T14:43:04.406Z</time></trkpt><trkpt lat="44.3900112" lon="11.431765"><ele>126.0</ele><time>2026-04-08T14:43:05.407Z</time></trkpt><trkpt lat="44.3899141" lon="11.4318771"><ele>126.0</ele><time>2026-04-08T14:43:06.416Z</time></trkpt><trkpt lat="44.3898091" lon="11.4320023"><ele>126.0</ele><time>2026-04-08T14:43:07.413Z</time></trkpt><trkpt lat="44.3897144" lon="11.4321288"><ele>126.0</ele><time>2026-04-08T14:43:08.417Z</time></trkpt><trkpt lat="44.3896192" lon="11.4322475"><ele>126.0</ele><time>2026-04-08T14:43:09.418Z</time></trkpt><trkpt lat="44.3895162" lon="11.4323744"><ele>126.75</ele><time>2026-04-08T14:43:10.414Z</time></trkpt><trkpt lat="44.3894207" lon="11.4324966"><ele>127.5</ele><time>2026-04-08T14:43:11.414Z</time></trkpt><trkpt lat="44.3893119" lon="11.4326009"><ele>128.25</ele><time>2026-04-08T14:43:12.416Z</time></trkpt><trkpt lat="44.3891788" lon="11.4326888"><ele>129.0</ele><time>2026-04-08T14:43:13.413Z</time></trkpt><trkpt lat="44.3890411" lon="11.4327257"><ele>129.0</ele><time>2026-04-08T14:43:14.437Z</time></trkpt><trkpt lat="44.388864" lon="11.432726"><ele>129.0</ele><time>2026-04-08T14:43:15.418Z</time></trkpt><trkpt lat="44.3886881" lon="11.4327406"><ele>129.0</ele><time>2026-04-08T14:43:16.415Z</time></trkpt><trkpt lat="44.3885174" lon="11.432741"><ele>127.33333333333334</ele><time>2026-04-08T14:43:17.417Z</time></trkpt><trkpt lat="44.3883329" lon="11.4327528"><ele>125.66666666666667</ele><time>2026-04-08T14:43:18.418Z</time></trkpt><trkpt lat="44.3881749" lon="11.4327438"><ele>124.0</ele><time>2026-04-08T14:43:19.435Z</time></trkpt><trkpt lat="44.3880477" lon="11.4327554"><ele>124.16666666666667</ele><time>2026-04-08T14:43:20.418Z</time></trkpt><trkpt lat="44.3879737" lon="11.4327338"><ele>124.33333333333334</ele><time>2026-04-08T14:43:21.421Z</time></trkpt><trkpt lat="44.3878799" lon="11.432746"><ele>124.5</ele><time>2026-04-08T14:43:22.443Z</time></trkpt><trkpt lat="44.3877973" lon="11.4327433"><ele>124.66666666666666</ele><time>2026-04-08T14:43:23.449Z</time></trkpt><trkpt lat="44.3877138" lon="11.4327295"><ele>124.83333333333333</ele><time>2026-04-08T14:43:24.443Z</time></trkpt><trkpt lat="44.3876268" lon="11.4327129"><ele>125.0</ele><time>2026-04-08T14:43:25.465Z</time></trkpt><trkpt lat="44.3875422" lon="11.4326963"><ele>124.99999999999999</ele><time>2026-04-08T14:43:26.44Z</time></trkpt><trkpt lat="44.3874525" lon="11.4326874"><ele>125.0</ele><time>2026-04-08T14:43:27.421Z</time></trkpt><trkpt lat="44.387368" lon="11.432689"><ele>125.0</ele><time>2026-04-08T14:43:28.422Z</time></trkpt><trkpt lat="44.3872837" lon="11.4327014"><ele>125.0</ele><time>2026-04-08T14:43:29.421Z</time></trkpt><trkpt lat="44.3871945" lon="11.4327254"><ele>124.99999999999999</ele><time>2026-04-08T14:43:30.445Z</time></trkpt><trkpt lat="44.3870982" lon="11.4327557"><ele>125.0</ele><time>2026-04-08T14:43:31.417Z</time></trkpt><trkpt lat="44.3869965" lon="11.4328042"><ele>124.8</ele><time>2026-04-08T14:43:32.415Z</time></trkpt><trkpt lat="44.386899" lon="11.4328613"><ele>124.6</ele><time>2026-04-08T14:43:33.417Z</time></trkpt><trkpt lat="44.3868156" lon="11.4329114"><ele>124.4</ele><time>2026-04-08T14:43:34.416Z</time></trkpt><trkpt lat="44.386736" lon="11.4329511"><ele>124.2</ele><time>2026-04-08T14:43:35.423Z</time></trkpt><trkpt lat="44.3866495" lon="11.432987"><ele>124.0</ele><time>2026-04-08T14:43:36.422Z</time></trkpt><trkpt lat="44.3865617" lon="11.4330137"><ele>126.33333333333334</ele><time>2026-04-08T14:43:37.458Z</time></trkpt><trkpt lat="44.3864763" lon="11.4330311"><ele>128.66666666666669</ele><time>2026-04-08T14:43:38.458Z</time></trkpt><trkpt lat="44.3863937" lon="11.4330419"><ele>131.0</ele><time>2026-04-08T14:43:39.443Z</time></trkpt><trkpt lat="44.3863089" lon="11.4330421"><ele>133.33333333333334</ele><time>2026-04-08T14:43:40.418Z</time></trkpt><trkpt lat="44.3862303" lon="11.4330408"><ele>135.66666666666666</ele><time>2026-04-08T14:43:41.421Z</time></trkpt><trkpt lat="44.3861474" lon="11.4330422"><ele>138.0</ele><time>2026-04-08T14:43:42.44Z</time></trkpt><trkpt lat="44.3860653" lon="11.4330431"><ele>138.0</ele><time>2026-04-08T14:43:43.416Z</time></trkpt><trkpt lat="44.3859882" lon="11.4330532"><ele>138.0</ele><time>2026-04-08T14:43:44.411Z</time></trkpt><trkpt lat="44.3859229" lon="11.4330745"><ele>138.0</ele><time>2026-04-08T14:43:45.412Z</time></trkpt><trkpt lat="44.385852" lon="11.4331105"><ele>138.0</ele><time>2026-04-08T14:43:46.411Z</time></trkpt><trkpt lat="44.3857796" lon="11.4331587"><ele>138.0</ele><time>2026-04-08T14:43:47.421Z</time></trkpt><trkpt lat="44.3857117" lon="11.4332218"><ele>138.0</ele><time>2026-04-08T14:43:48.416Z</time></trkpt><trkpt lat="44.3856472" lon="11.4332851"><ele>138.0</ele><time>2026-04-08T14:43:49.414Z</time></trkpt><trkpt lat="44.3855859" lon="11.4333368"><ele>138.0</ele><time>2026-04-08T14:43:50.416Z</time></trkpt><trkpt lat="44.3855206" lon="11.4333806"><ele>138.0</ele><time>2026-04-08T14:43:51.413Z</time></trkpt><trkpt lat="44.3854451" lon="11.4334161"><ele>138.0</ele><time>2026-04-08T14:43:52.417Z</time></trkpt><trkpt lat="44.3853723" lon="11.4334494"><ele>138.0</ele><time>2026-04-08T14:43:53.416Z</time></trkpt><trkpt lat="44.3853079" lon="11.4334949"><ele>138.0</ele><time>2026-04-08T14:43:54.414Z</time></trkpt><trkpt lat="44.3852212" lon="11.4335549"><ele>137.0</ele><time>2026-04-08T14:43:56.411Z</time></trkpt><trkpt lat="44.3851447" lon="11.4335617"><ele>136.0</ele><time>2026-04-08T14:43:58.438Z</time></trkpt><trkpt lat="44.3850506" lon="11.4334633"><ele>135.0</ele><time>2026-04-08T14:44:00.435Z</time></trkpt><trkpt lat="44.3849688" lon="11.433317"><ele>134.0</ele><time>2026-04-08T14:44:02.423Z</time></trkpt><trkpt lat="44.384916" lon="11.433241"><ele>133.0</ele><time>2026-04-08T14:44:03.443Z</time></trkpt><trkpt lat="44.3848562" lon="11.4331548"><ele>133.0</ele><time>2026-04-08T14:44:04.449Z</time></trkpt><trkpt lat="44.38479" lon="11.4330652"><ele>133.0</ele><time>2026-04-08T14:44:05.438Z</time></trkpt><trkpt lat="44.384733" lon="11.4329775"><ele>133.0</ele><time>2026-04-08T14:44:06.437Z</time></trkpt><trkpt lat="44.3846731" lon="11.4329005"><ele>133.0</ele><time>2026-04-08T14:44:07.436Z</time></trkpt><trkpt lat="44.384621" lon="11.4328321"><ele>133.0</ele><time>2026-04-08T14:44:08.428Z</time></trkpt><trkpt lat="44.3845244" lon="11.4327378"><ele>133.0</ele><time>2026-04-08T14:44:10.416Z</time></trkpt><trkpt lat="44.3844389" lon="11.4326777"><ele>130.6</ele><time>2026-04-08T14:44:12.415Z</time></trkpt><trkpt lat="44.3843855" lon="11.4326045"><ele>128.20000000000002</ele><time>2026-04-08T14:44:26.416Z</time></trkpt><trkpt lat="44.384314" lon="11.4325187"><ele>125.8</ele><time>2026-04-08T14:44:28.414Z</time></trkpt><trkpt lat="44.3842367" lon="11.4324702"><ele>123.4</ele><time>2026-04-08T14:44:29.425Z</time></trkpt><trkpt lat="44.3841157" lon="11.4324136"><ele>121.0</ele><time>2026-04-08T14:44:30.413Z</time></trkpt><trkpt lat="44.3839849" lon="11.4323466"><ele>121.0</ele><time>2026-04-08T14:44:31.419Z</time></trkpt><trkpt lat="44.3838561" lon="11.4322686"><ele>121.0</ele><time>2026-04-08T14:44:32.417Z</time></trkpt><trkpt lat="44.3837247" lon="11.432169"><ele>121.0</ele><time>2026-04-08T14:44:33.417Z</time></trkpt><trkpt lat="44.3835614" lon="11.4320506"><ele>123.66666666666667</ele><time>2026-04-08T14:44:34.413Z</time></trkpt><trkpt lat="44.3833844" lon="11.4318973"><ele>126.33333333333334</ele><time>2026-04-08T14:44:35.434Z</time></trkpt><trkpt lat="44.383175" lon="11.4317335"><ele>129.0</ele><time>2026-04-08T14:44:36.444Z</time></trkpt><trkpt lat="44.3829967" lon="11.4316009"><ele>129.25</ele><time>2026-04-08T14:44:37.436Z</time></trkpt><trkpt lat="44.3828486" lon="11.4314964"><ele>129.5</ele><time>2026-04-08T14:44:38.418Z</time></trkpt><trkpt lat="44.3827253" lon="11.4313728"><ele>129.75</ele><time>2026-04-08T14:44:39.414Z</time></trkpt><trkpt lat="44.3826182" lon="11.4312719"><ele>130.0</ele><time>2026-04-08T14:44:40.413Z</time></trkpt><trkpt lat="44.382518" lon="11.4311879"><ele>130.0</ele><time>2026-04-08T14:44:41.41Z</time></trkpt><trkpt lat="44.3823838" lon="11.4310568"><ele>130.0</ele><time>2026-04-08T14:44:42.41Z</time></trkpt><trkpt lat="44.3822481" lon="11.4309347"><ele>130.0</ele><time>2026-04-08T14:44:43.43Z</time></trkpt><trkpt lat="44.3820918" lon="11.4308049"><ele>129.66666666666669</ele><time>2026-04-08T14:44:44.414Z</time></trkpt><trkpt lat="44.3819336" lon="11.4306625"><ele>129.33333333333334</ele><time>2026-04-08T14:44:45.418Z</time></trkpt><trkpt lat="44.3817944" lon="11.4305113"><ele>129.0</ele><time>2026-04-08T14:44:46.405Z</time></trkpt><trkpt lat="44.3816511" lon="11.4303437"><ele>129.0</ele><time>2026-04-08T14:44:47.417Z</time></trkpt><trkpt lat="44.3815181" lon="11.4301896"><ele>129.0</ele><time>2026-04-08T14:44:48.414Z</time></trkpt><trkpt lat="44.3813841" lon="11.4300594"><ele>129.0</ele><time>2026-04-08T14:44:49.409Z</time></trkpt><trkpt lat="44.3812471" lon="11.429882"><ele>129.33333333333334</ele><time>2026-04-08T14:44:50.417Z</time></trkpt><trkpt lat="44.3811144" lon="11.4296777"><ele>129.66666666666669</ele><time>2026-04-08T14:44:51.405Z</time></trkpt><trkpt lat="44.3809872" lon="11.4294704"><ele>130.0</ele><time>2026-04-08T14:44:52.411Z</time></trkpt><trkpt lat="44.3808481" lon="11.4292709"><ele>130.0</ele><time>2026-04-08T14:44:53.413Z</time></trkpt><trkpt lat="44.3807321" lon="11.4290767"><ele>130.0</ele><time>2026-04-08T14:44:54.413Z</time></trkpt><trkpt lat="44.3806175" lon="11.4288966"><ele>130.0</ele><time>2026-04-08T14:44:55.412Z</time></trkpt><trkpt lat="44.3804885" lon="11.4286977"><ele>132.0</ele><time>2026-04-08T14:44:56.439Z</time></trkpt><trkpt lat="44.3803964" lon="11.4284509"><ele>134.0</ele><time>2026-04-08T14:44:57.417Z</time></trkpt><trkpt lat="44.3803275" lon="11.4282013"><ele>136.0</ele><time>2026-04-08T14:44:58.415Z</time></trkpt><trkpt lat="44.3802594" lon="11.4280245"><ele>134.33333333333334</ele><time>2026-04-08T14:44:59.414Z</time></trkpt><trkpt lat="44.3801728" lon="11.4278461"><ele>132.66666666666666</ele><time>2026-04-08T14:45:00.398Z</time></trkpt><trkpt lat="44.3800604" lon="11.4276545"><ele>131.0</ele><time>2026-04-08T14:45:01.399Z</time></trkpt><trkpt lat="44.3799352" lon="11.4274757"><ele>131.0</ele><time>2026-04-08T14:45:02.405Z</time></trkpt><trkpt lat="44.3797787" lon="11.427352"><ele>131.0</ele><time>2026-04-08T14:45:03.402Z</time></trkpt><trkpt lat="44.3795827" lon="11.4272615"><ele>131.0</ele><time>2026-04-08T14:45:04.403Z</time></trkpt><trkpt lat="44.3794176" lon="11.4271783"><ele>129.66666666666666</ele><time>2026-04-08T14:45:05.405Z</time></trkpt><trkpt lat="44.3792702" lon="11.4270844"><ele>128.33333333333334</ele><time>2026-04-08T14:45:06.402Z</time></trkpt><trkpt lat="44.379131" lon="11.4269917"><ele>127.0</ele><time>2026-04-08T14:45:07.402Z</time></trkpt><trkpt lat="44.3789725" lon="11.4269461"><ele>128.0</ele><time>2026-04-08T14:45:08.399Z</time></trkpt><trkpt lat="44.3787892" lon="11.4268937"><ele>129.0</ele><time>2026-04-08T14:45:09.395Z</time></trkpt><trkpt lat="44.3786053" lon="11.4268304"><ele>130.0</ele><time>2026-04-08T14:45:10.392Z</time></trkpt><trkpt lat="44.3783985" lon="11.4267503"><ele>130.0</ele><time>2026-04-08T14:45:11.409Z</time></trkpt><trkpt lat="44.3781761" lon="11.4266826"><ele>130.0</ele><time>2026-04-08T14:45:12.4Z</time></trkpt><trkpt lat="44.377958" lon="11.4266112"><ele>130.66666666666669</ele><time>2026-04-08T14:45:13.402Z</time></trkpt><trkpt lat="44.3777534" lon="11.4265289"><ele>131.33333333333334</ele><time>2026-04-08T14:45:14.405Z</time></trkpt><trkpt lat="44.3775785" lon="11.4264636"><ele>132.0</ele><time>2026-04-08T14:45:15.401Z</time></trkpt><trkpt lat="44.3774213" lon="11.4264258"><ele>132.0</ele><time>2026-04-08T14:45:16.403Z</time></trkpt><trkpt lat="44.3772681" lon="11.4264197"><ele>132.0</ele><time>2026-04-08T14:45:17.398Z</time></trkpt><trkpt lat="44.3770843" lon="11.4263807"><ele>132.0</ele><time>2026-04-08T14:45:18.399Z</time></trkpt><trkpt lat="44.3768916" lon="11.4263931"><ele>132.66666666666666</ele><time>2026-04-08T14:45:19.405Z</time></trkpt><trkpt lat="44.3766968" lon="11.4264232"><ele>133.33333333333331</ele><time>2026-04-08T14:45:20.4Z</time></trkpt><trkpt lat="44.3765258" lon="11.4264494"><ele>134.0</ele><time>2026-04-08T14:45:21.419Z</time></trkpt><trkpt lat="44.3763466" lon="11.4264813"><ele>134.0</ele><time>2026-04-08T14:45:22.404Z</time></trkpt><trkpt lat="44.3761705" lon="11.4265095"><ele>134.0</ele><time>2026-04-08T14:45:23.429Z</time></trkpt><trkpt lat="44.3759812" lon="11.4265374"><ele>134.0</ele><time>2026-04-08T14:45:24.425Z</time></trkpt><trkpt lat="44.3757922" lon="11.4265779"><ele>134.0</ele><time>2026-04-08T14:45:25.403Z</time></trkpt><trkpt lat="44.37559" lon="11.4266234"><ele>134.0</ele><time>2026-04-08T14:45:26.401Z</time></trkpt><trkpt lat="44.3754026" lon="11.4266699"><ele>134.0</ele><time>2026-04-08T14:45:27.406Z</time></trkpt><trkpt lat="44.3752309" lon="11.4267283"><ele>134.66666666666666</ele><time>2026-04-08T14:45:28.404Z</time></trkpt><trkpt lat="44.3750574" lon="11.4267759"><ele>135.33333333333334</ele><time>2026-04-08T14:45:29.403Z</time></trkpt><trkpt lat="44.3748737" lon="11.4268223"><ele>136.0</ele><time>2026-04-08T14:45:30.404Z</time></trkpt><trkpt lat="44.3747066" lon="11.4268666"><ele>135.33333333333334</ele><time>2026-04-08T14:45:31.4Z</time></trkpt><trkpt lat="44.3745395" lon="11.4269143"><ele>134.66666666666666</ele><time>2026-04-08T14:45:32.405Z</time></trkpt><trkpt lat="44.3743748" lon="11.4269723"><ele>134.0</ele><time>2026-04-08T14:45:33.407Z</time></trkpt><trkpt lat="44.3742144" lon="11.42704"><ele>134.0</ele><time>2026-04-08T14:45:34.406Z</time></trkpt><trkpt lat="44.3740487" lon="11.4271196"><ele>134.0</ele><time>2026-04-08T14:45:35.403Z</time></trkpt><trkpt lat="44.3738524" lon="11.4272192"><ele>134.0</ele><time>2026-04-08T14:45:36.401Z</time></trkpt><trkpt lat="44.3736912" lon="11.4273238"><ele>135.66666666666666</ele><time>2026-04-08T14:45:37.404Z</time></trkpt><trkpt lat="44.3735222" lon="11.4274209"><ele>137.33333333333334</ele><time>2026-04-08T14:45:38.402Z</time></trkpt><trkpt lat="44.3733358" lon="11.4275165"><ele>139.0</ele><time>2026-04-08T14:45:39.407Z</time></trkpt><trkpt lat="44.3731628" lon="11.427579"><ele>140.0</ele><time>2026-04-08T14:45:40.404Z</time></trkpt><trkpt lat="44.3729625" lon="11.427613"><ele>141.0</ele><time>2026-04-08T14:45:41.402Z</time></trkpt><trkpt lat="44.372752" lon="11.4276043"><ele>142.0</ele><time>2026-04-08T14:45:42.402Z</time></trkpt><trkpt lat="44.372523" lon="11.4275646"><ele>142.0</ele><time>2026-04-08T14:45:43.396Z</time></trkpt><trkpt lat="44.3722804" lon="11.4275087"><ele>142.0</ele><time>2026-04-08T14:45:44.401Z</time></trkpt><trkpt lat="44.3720721" lon="11.4274029"><ele>142.0</ele><time>2026-04-08T14:45:45.403Z</time></trkpt><trkpt lat="44.3718646" lon="11.4272875"><ele>142.0</ele><time>2026-04-08T14:45:46.403Z</time></trkpt><trkpt lat="44.3716728" lon="11.4271821"><ele>142.0</ele><time>2026-04-08T14:45:47.403Z</time></trkpt><trkpt lat="44.3714914" lon="11.4271082"><ele>145.33333333333334</ele><time>2026-04-08T14:45:48.408Z</time></trkpt><trkpt lat="44.3713313" lon="11.4270267"><ele>148.66666666666666</ele><time>2026-04-08T14:45:49.403Z</time></trkpt><trkpt lat="44.3711637" lon="11.4269595"><ele>152.0</ele><time>2026-04-08T14:45:50.4Z</time></trkpt><trkpt lat="44.3709869" lon="11.4268867"><ele>152.0</ele><time>2026-04-08T14:45:51.403Z</time></trkpt><trkpt lat="44.3708251" lon="11.4267958"><ele>152.0</ele><time>2026-04-08T14:45:52.4Z</time></trkpt><trkpt lat="44.3706893" lon="11.4266776"><ele>152.0</ele><time>2026-04-08T14:45:53.406Z</time></trkpt><trkpt lat="44.3705388" lon="11.4265233"><ele>153.0</ele><time>2026-04-08T14:45:54.399Z</time></trkpt><trkpt lat="44.3703528" lon="11.4263879"><ele>154.0</ele><time>2026-04-08T14:45:55.4Z</time></trkpt><trkpt lat="44.3701879" lon="11.4261849"><ele>155.0</ele><time>2026-04-08T14:45:56.397Z</time></trkpt><trkpt lat="44.3700246" lon="11.4259584"><ele>154.66666666666666</ele><time>2026-04-08T14:45:57.397Z</time></trkpt><trkpt lat="44.3698674" lon="11.4257632"><ele>154.33333333333334</ele><time>2026-04-08T14:45:58.395Z</time></trkpt><trkpt lat="44.3697365" lon="11.4255084"><ele>154.0</ele><time>2026-04-08T14:45:59.403Z</time></trkpt><trkpt lat="44.3696099" lon="11.4252709"><ele>154.0</ele><time>2026-04-08T14:46:00.393Z</time></trkpt><trkpt lat="44.369462" lon="11.425046"><ele>154.0</ele><time>2026-04-08T14:46:01.562Z</time></trkpt><trkpt lat="44.3692985" lon="11.4248005"><ele>142.0</ele><time>2026-04-08T14:46:02.566Z</time></trkpt><trkpt lat="44.3690197" lon="11.4242925"><ele>142.0</ele><time>2026-04-08T14:46:04.403Z</time></trkpt><trkpt lat="44.3688653" lon="11.4240997"><ele>142.0</ele><time>2026-04-08T14:46:05.404Z</time></trkpt><trkpt lat="44.3687236" lon="11.4238807"><ele>142.0</ele><time>2026-04-08T14:46:06.403Z</time></trkpt><trkpt lat="44.368599" lon="11.423687"><ele>144.33333333333334</ele><time>2026-04-08T14:46:07.406Z</time></trkpt><trkpt lat="44.3684776" lon="11.4234948"><ele>146.66666666666666</ele><time>2026-04-08T14:46:08.4Z</time></trkpt><trkpt lat="44.3683217" lon="11.4233507"><ele>149.0</ele><time>2026-04-08T14:46:09.401Z</time></trkpt><trkpt lat="44.3682084" lon="11.4232118"><ele>149.0</ele><time>2026-04-08T14:46:10.39Z</time></trkpt><trkpt lat="44.3681384" lon="11.4230398"><ele>149.0</ele><time>2026-04-08T14:46:11.48Z</time></trkpt><trkpt lat="44.3680815" lon="11.4228232"><ele>149.0</ele><time>2026-04-08T14:46:12.56Z</time></trkpt><trkpt lat="44.3679874" lon="11.4223517"><ele>149.66666666666666</ele><time>2026-04-08T14:46:14.401Z</time></trkpt><trkpt lat="44.367979" lon="11.4220919"><ele>150.33333333333334</ele><time>2026-04-08T14:46:15.396Z</time></trkpt><trkpt lat="44.3679732" lon="11.4218078"><ele>151.0</ele><time>2026-04-08T14:46:16.389Z</time></trkpt><trkpt lat="44.3679394" lon="11.4215624"><ele>152.33333333333334</ele><time>2026-04-08T14:46:17.409Z</time></trkpt><trkpt lat="44.3678849" lon="11.4213087"><ele>153.66666666666666</ele><time>2026-04-08T14:46:18.404Z</time></trkpt><trkpt lat="44.3677793" lon="11.4210772"><ele>155.0</ele><time>2026-04-08T14:46:19.403Z</time></trkpt><trkpt lat="44.3676695" lon="11.4208231"><ele>155.0</ele><time>2026-04-08T14:46:20.401Z</time></trkpt><trkpt lat="44.3675318" lon="11.4205499"><ele>155.0</ele><time>2026-04-08T14:46:21.4Z</time></trkpt><trkpt lat="44.3673887" lon="11.4202847"><ele>153.33333333333331</ele><time>2026-04-08T14:46:22.407Z</time></trkpt><trkpt lat="44.3672892" lon="11.420049"><ele>151.66666666666666</ele><time>2026-04-08T14:46:23.397Z</time></trkpt><trkpt lat="44.3671769" lon="11.4198284"><ele>150.0</ele><time>2026-04-08T14:46:24.402Z</time></trkpt><trkpt lat="44.3670477" lon="11.4196574"><ele>152.0</ele><time>2026-04-08T14:46:25.395Z</time></trkpt><trkpt lat="44.3669438" lon="11.4194706"><ele>154.0</ele><time>2026-04-08T14:46:26.394Z</time></trkpt><trkpt lat="44.36689" lon="11.4192448"><ele>156.0</ele><time>2026-04-08T14:46:27.4Z</time></trkpt><trkpt lat="44.366794" lon="11.4190363"><ele>155.33333333333334</ele><time>2026-04-08T14:46:28.402Z</time></trkpt><trkpt lat="44.3667174" lon="11.4188038"><ele>154.66666666666669</ele><time>2026-04-08T14:46:29.402Z</time></trkpt><trkpt lat="44.3666577" lon="11.4185725"><ele>154.0</ele><time>2026-04-08T14:46:30.398Z</time></trkpt><trkpt lat="44.3666161" lon="11.4183978"><ele>154.0</ele><time>2026-04-08T14:46:31.399Z</time></trkpt><trkpt lat="44.3665319" lon="11.4182191"><ele>154.0</ele><time>2026-04-08T14:46:32.399Z</time></trkpt><trkpt lat="44.3664312" lon="11.418051"><ele>154.0</ele><time>2026-04-08T14:46:33.4Z</time></trkpt><trkpt lat="44.366309" lon="11.4179276"><ele>154.0</ele><time>2026-04-08T14:46:34.397Z</time></trkpt><trkpt lat="44.3661575" lon="11.4178315"><ele>154.0</ele><time>2026-04-08T14:46:35.4Z</time></trkpt><trkpt lat="44.365987" lon="11.417772"><ele>154.0</ele><time>2026-04-08T14:46:36.398Z</time></trkpt><trkpt lat="44.3658057" lon="11.4177634"><ele>154.0</ele><time>2026-04-08T14:46:37.407Z</time></trkpt><trkpt lat="44.3656022" lon="11.4177951"><ele>154.0</ele><time>2026-04-08T14:46:38.395Z</time></trkpt><trkpt lat="44.3654335" lon="11.417822"><ele>154.0</ele><time>2026-04-08T14:46:39.395Z</time></trkpt><trkpt lat="44.3652325" lon="11.4178463"><ele>154.33333333333334</ele><time>2026-04-08T14:46:40.401Z</time></trkpt><trkpt lat="44.3650347" lon="11.4178561"><ele>154.66666666666666</ele><time>2026-04-08T14:46:41.404Z</time></trkpt><trkpt lat="44.3648316" lon="11.4178896"><ele>155.0</ele><time>2026-04-08T14:46:42.403Z</time></trkpt><trkpt lat="44.3646322" lon="11.4178939"><ele>155.0</ele><time>2026-04-08T14:46:43.408Z</time></trkpt><trkpt lat="44.3644146" lon="11.4179328"><ele>155.0</ele><time>2026-04-08T14:46:44.402Z</time></trkpt><trkpt lat="44.3641816" lon="11.4179979"><ele>154.5</ele><time>2026-04-08T14:46:45.404Z</time></trkpt><trkpt lat="44.3639665" lon="11.4180443"><ele>154.0</ele><time>2026-04-08T14:46:46.414Z</time></trkpt><trkpt lat="44.3637351" lon="11.4181125"><ele>154.0</ele><time>2026-04-08T14:46:47.404Z</time></trkpt><trkpt lat="44.3635083" lon="11.4181595"><ele>154.0</ele><time>2026-04-08T14:46:48.403Z</time></trkpt><trkpt lat="44.3633029" lon="11.4181976"><ele>154.0</ele><time>2026-04-08T14:46:49.407Z</time></trkpt><trkpt lat="44.3631091" lon="11.4182483"><ele>154.0</ele><time>2026-04-08T14:46:50.408Z</time></trkpt><trkpt lat="44.3629087" lon="11.4183056"><ele>154.0</ele><time>2026-04-08T14:46:51.41Z</time></trkpt><trkpt lat="44.3627085" lon="11.4183553"><ele>154.0</ele><time>2026-04-08T14:46:52.408Z</time></trkpt><trkpt lat="44.3625194" lon="11.4183933"><ele>154.0</ele><time>2026-04-08T14:46:53.405Z</time></trkpt><trkpt lat="44.3623381" lon="11.4184421"><ele>154.0</ele><time>2026-04-08T14:46:54.407Z</time></trkpt><trkpt lat="44.3621537" lon="11.4184741"><ele>154.0</ele><time>2026-04-08T14:46:55.401Z</time></trkpt><trkpt lat="44.3619557" lon="11.4184598"><ele>155.0</ele><time>2026-04-08T14:46:56.397Z</time></trkpt><trkpt lat="44.361764" lon="11.4184039"><ele>156.0</ele><time>2026-04-08T14:46:57.421Z</time></trkpt><trkpt lat="44.3615873" lon="11.4183215"><ele>157.0</ele><time>2026-04-08T14:46:58.398Z</time></trkpt><trkpt lat="44.361408" lon="11.4181905"><ele>157.66666666666669</ele><time>2026-04-08T14:46:59.399Z</time></trkpt><trkpt lat="44.361227" lon="11.4180577"><ele>158.33333333333334</ele><time>2026-04-08T14:47:00.403Z</time></trkpt><trkpt lat="44.3610327" lon="11.4179151"><ele>159.0</ele><time>2026-04-08T14:47:01.399Z</time></trkpt><trkpt lat="44.3608344" lon="11.4177846"><ele>159.0</ele><time>2026-04-08T14:47:02.4Z</time></trkpt><trkpt lat="44.3606446" lon="11.4176342"><ele>159.0</ele><time>2026-04-08T14:47:03.4Z</time></trkpt><trkpt lat="44.3604538" lon="11.4175015"><ele>159.0</ele><time>2026-04-08T14:47:04.396Z</time></trkpt><trkpt lat="44.3602723" lon="11.4173491"><ele>158.66666666666666</ele><time>2026-04-08T14:47:05.4Z</time></trkpt><trkpt lat="44.3601136" lon="11.4171762"><ele>158.33333333333331</ele><time>2026-04-08T14:47:06.422Z</time></trkpt><trkpt lat="44.3599496" lon="11.416957"><ele>158.0</ele><time>2026-04-08T14:47:07.395Z</time></trkpt><trkpt lat="44.3597809" lon="11.4167487"><ele>160.0</ele><time>2026-04-08T14:47:08.4Z</time></trkpt><trkpt lat="44.3596483" lon="11.4165418"><ele>162.0</ele><time>2026-04-08T14:47:09.394Z</time></trkpt><trkpt lat="44.3595344" lon="11.4163565"><ele>164.0</ele><time>2026-04-08T14:47:10.394Z</time></trkpt><trkpt lat="44.3594162" lon="11.4161403"><ele>164.0</ele><time>2026-04-08T14:47:11.401Z</time></trkpt><trkpt lat="44.3593246" lon="11.415923"><ele>164.0</ele><time>2026-04-08T14:47:12.393Z</time></trkpt><trkpt lat="44.3592401" lon="11.4157283"><ele>164.0</ele><time>2026-04-08T14:47:13.397Z</time></trkpt><trkpt lat="44.3591226" lon="11.4155948"><ele>162.66666666666666</ele><time>2026-04-08T14:47:14.396Z</time></trkpt><trkpt lat="44.3589873" lon="11.4154403"><ele>161.33333333333334</ele><time>2026-04-08T14:47:15.403Z</time></trkpt><trkpt lat="44.3588541" lon="11.4153477"><ele>160.0</ele><time>2026-04-08T14:47:16.402Z</time></trkpt><trkpt lat="44.3586892" lon="11.4152378"><ele>163.0</ele><time>2026-04-08T14:47:17.393Z</time></trkpt><trkpt lat="44.3585239" lon="11.4151208"><ele>166.0</ele><time>2026-04-08T14:47:18.402Z</time></trkpt><trkpt lat="44.358356" lon="11.4149682"><ele>169.0</ele><time>2026-04-08T14:47:19.399Z</time></trkpt><trkpt lat="44.3581705" lon="11.4147894"><ele>170.5</ele><time>2026-04-08T14:47:20.404Z</time></trkpt><trkpt lat="44.3579713" lon="11.4146286"><ele>172.0</ele><time>2026-04-08T14:47:21.408Z</time></trkpt><trkpt lat="44.3577727" lon="11.4144574"><ele>172.0</ele><time>2026-04-08T14:47:22.408Z</time></trkpt><trkpt lat="44.357581" lon="11.4142874"><ele>172.0</ele><time>2026-04-08T14:47:23.403Z</time></trkpt><trkpt lat="44.3574109" lon="11.4141239"><ele>172.0</ele><time>2026-04-08T14:47:24.402Z</time></trkpt><trkpt lat="44.3572343" lon="11.4139737"><ele>174.66666666666669</ele><time>2026-04-08T14:47:25.398Z</time></trkpt><trkpt lat="44.3570586" lon="11.4138422"><ele>177.33333333333334</ele><time>2026-04-08T14:47:26.4Z</time></trkpt><trkpt lat="44.3568919" lon="11.4137705"><ele>180.0</ele><time>2026-04-08T14:47:27.397Z</time></trkpt><trkpt lat="44.3567215" lon="11.4137609"><ele>178.0</ele><time>2026-04-08T14:47:28.394Z</time></trkpt><trkpt lat="44.3565625" lon="11.4137864"><ele>176.0</ele><time>2026-04-08T14:47:29.398Z</time></trkpt><trkpt lat="44.3564005" lon="11.4137968"><ele>174.0</ele><time>2026-04-08T14:47:30.398Z</time></trkpt><trkpt lat="44.356251" lon="11.4139233"><ele>174.0</ele><time>2026-04-08T14:47:31.396Z</time></trkpt><trkpt lat="44.3560871" lon="11.4140728"><ele>174.0</ele><time>2026-04-08T14:47:32.397Z</time></trkpt><trkpt lat="44.3559064" lon="11.414192"><ele>174.0</ele><time>2026-04-08T14:47:33.395Z</time></trkpt><trkpt lat="44.3557303" lon="11.4142806"><ele>174.0</ele><time>2026-04-08T14:47:34.396Z</time></trkpt><trkpt lat="44.3555699" lon="11.4143552"><ele>174.0</ele><time>2026-04-08T14:47:35.396Z</time></trkpt><trkpt lat="44.3554397" lon="11.4144286"><ele>174.0</ele><time>2026-04-08T14:47:36.397Z</time></trkpt><trkpt lat="44.3553136" lon="11.414515"><ele>173.0</ele><time>2026-04-08T14:47:37.396Z</time></trkpt><trkpt lat="44.3552092" lon="11.4145774"><ele>172.0</ele><time>2026-04-08T14:47:38.402Z</time></trkpt><trkpt lat="44.3550938" lon="11.4145927"><ele>171.0</ele><time>2026-04-08T14:47:39.406Z</time></trkpt><trkpt lat="44.3549512" lon="11.4146037"><ele>170.0</ele><time>2026-04-08T14:47:40.403Z</time></trkpt><trkpt lat="44.3548017" lon="11.4146128"><ele>170.0</ele><time>2026-04-08T14:47:41.401Z</time></trkpt><trkpt lat="44.3546203" lon="11.4146393"><ele>170.0</ele><time>2026-04-08T14:47:42.405Z</time></trkpt><trkpt lat="44.3544314" lon="11.4146644"><ele>170.0</ele><time>2026-04-08T14:47:43.399Z</time></trkpt><trkpt lat="44.3542585" lon="11.4146524"><ele>170.0</ele><time>2026-04-08T14:47:44.403Z</time></trkpt><trkpt lat="44.3540771" lon="11.4146417"><ele>170.0</ele><time>2026-04-08T14:47:45.402Z</time></trkpt><trkpt lat="44.3538765" lon="11.4146379"><ele>170.0</ele><time>2026-04-08T14:47:46.403Z</time></trkpt><trkpt lat="44.3536802" lon="11.4145898"><ele>172.0</ele><time>2026-04-08T14:47:47.404Z</time></trkpt><trkpt lat="44.3535131" lon="11.4144905"><ele>174.0</ele><time>2026-04-08T14:47:48.403Z</time></trkpt><trkpt lat="44.35338" lon="11.4143597"><ele>176.0</ele><time>2026-04-08T14:47:49.404Z</time></trkpt><trkpt lat="44.3532387" lon="11.4142095"><ele>176.0</ele><time>2026-04-08T14:47:50.406Z</time></trkpt><trkpt lat="44.3530743" lon="11.4140516"><ele>176.0</ele><time>2026-04-08T14:47:51.423Z</time></trkpt><trkpt lat="44.3529459" lon="11.413874"><ele>176.0</ele><time>2026-04-08T14:47:52.398Z</time></trkpt><trkpt lat="44.3528201" lon="11.4137174"><ele>175.66666666666666</ele><time>2026-04-08T14:47:53.406Z</time></trkpt><trkpt lat="44.3527094" lon="11.4135961"><ele>175.33333333333334</ele><time>2026-04-08T14:47:54.398Z</time></trkpt><trkpt lat="44.3525585" lon="11.4134691"><ele>175.0</ele><time>2026-04-08T14:47:55.404Z</time></trkpt><trkpt lat="44.352443" lon="11.4133021"><ele>175.0</ele><time>2026-04-08T14:47:56.4Z</time></trkpt><trkpt lat="44.3523216" lon="11.4130977"><ele>175.0</ele><time>2026-04-08T14:47:57.393Z</time></trkpt><trkpt lat="44.352216" lon="11.4128727"><ele>175.0</ele><time>2026-04-08T14:47:58.427Z</time></trkpt><trkpt lat="44.3521228" lon="11.4126739"><ele>175.66666666666669</ele><time>2026-04-08T14:47:59.398Z</time></trkpt><trkpt lat="44.3520371" lon="11.412498"><ele>176.33333333333334</ele><time>2026-04-08T14:48:00.394Z</time></trkpt><trkpt lat="44.3519254" lon="11.4123004"><ele>177.0</ele><time>2026-04-08T14:48:01.401Z</time></trkpt><trkpt lat="44.3517773" lon="11.4120854"><ele>174.33333333333334</ele><time>2026-04-08T14:48:02.406Z</time></trkpt><trkpt lat="44.3516458" lon="11.4118784"><ele>171.66666666666669</ele><time>2026-04-08T14:48:03.408Z</time></trkpt><trkpt lat="44.3515122" lon="11.4116374"><ele>169.0</ele><time>2026-04-08T14:48:04.404Z</time></trkpt><trkpt lat="44.3513683" lon="11.4114008"><ele>170.66666666666669</ele><time>2026-04-08T14:48:05.425Z</time></trkpt><trkpt lat="44.3512383" lon="11.4111812"><ele>172.33333333333334</ele><time>2026-04-08T14:48:06.398Z</time></trkpt><trkpt lat="44.3511367" lon="11.4109923"><ele>174.0</ele><time>2026-04-08T14:48:07.428Z</time></trkpt><trkpt lat="44.35104" lon="11.4108143"><ele>174.0</ele><time>2026-04-08T14:48:08.422Z</time></trkpt><trkpt lat="44.3509206" lon="11.4106199"><ele>174.0</ele><time>2026-04-08T14:48:09.399Z</time></trkpt><trkpt lat="44.3508019" lon="11.4104185"><ele>174.0</ele><time>2026-04-08T14:48:10.404Z</time></trkpt><trkpt lat="44.3506744" lon="11.410228"><ele>176.33333333333334</ele><time>2026-04-08T14:48:11.399Z</time></trkpt><trkpt lat="44.3505429" lon="11.4100471"><ele>178.66666666666669</ele><time>2026-04-08T14:48:12.403Z</time></trkpt><trkpt lat="44.3504216" lon="11.4098521"><ele>181.0</ele><time>2026-04-08T14:48:13.398Z</time></trkpt><trkpt lat="44.3503198" lon="11.4096771"><ele>180.66666666666669</ele><time>2026-04-08T14:48:14.396Z</time></trkpt><trkpt lat="44.3502035" lon="11.4095227"><ele>180.33333333333334</ele><time>2026-04-08T14:48:15.422Z</time></trkpt><trkpt lat="44.3501365" lon="11.4093341"><ele>180.0</ele><time>2026-04-08T14:48:16.401Z</time></trkpt><trkpt lat="44.3500676" lon="11.4091414"><ele>180.0</ele><time>2026-04-08T14:48:17.416Z</time></trkpt><trkpt lat="44.3500378" lon="11.408933"><ele>180.0</ele><time>2026-04-08T14:48:18.422Z</time></trkpt><trkpt lat="44.3499864" lon="11.4086874"><ele>180.0</ele><time>2026-04-08T14:48:19.399Z</time></trkpt><trkpt lat="44.3499395" lon="11.4084974"><ele>179.75</ele><time>2026-04-08T14:48:20.398Z</time></trkpt><trkpt lat="44.3498745" lon="11.4083133"><ele>179.5</ele><time>2026-04-08T14:48:21.395Z</time></trkpt><trkpt lat="44.3498025" lon="11.4081638"><ele>179.25</ele><time>2026-04-08T14:48:22.4Z</time></trkpt><trkpt lat="44.3497034" lon="11.4080045"><ele>179.0</ele><time>2026-04-08T14:48:23.393Z</time></trkpt><trkpt lat="44.3495937" lon="11.4078366"><ele>180.5</ele><time>2026-04-08T14:48:24.396Z</time></trkpt><trkpt lat="44.3494687" lon="11.4077062"><ele>182.0</ele><time>2026-04-08T14:48:25.391Z</time></trkpt><trkpt lat="44.3493607" lon="11.407625"><ele>183.5</ele><time>2026-04-08T14:48:26.386Z</time></trkpt><trkpt lat="44.3492618" lon="11.4075511"><ele>185.0</ele><time>2026-04-08T14:48:27.396Z</time></trkpt><trkpt lat="44.3491777" lon="11.4075421"><ele>185.0</ele><time>2026-04-08T14:48:28.392Z</time></trkpt><trkpt lat="44.3490946" lon="11.4075107"><ele>185.0</ele><time>2026-04-08T14:48:30.389Z</time></trkpt><trkpt lat="44.3490198" lon="11.4074874"><ele>185.0</ele><time>2026-04-08T14:48:34.391Z</time></trkpt><trkpt lat="44.3489241" lon="11.4074562"><ele>185.0</ele><time>2026-04-08T14:48:35.393Z</time></trkpt><trkpt lat="44.3488293" lon="11.4074177"><ele>185.0</ele><time>2026-04-08T14:48:36.388Z</time></trkpt><trkpt lat="44.3487175" lon="11.4073712"><ele>183.75</ele><time>2026-04-08T14:48:37.387Z</time></trkpt><trkpt lat="44.348587" lon="11.4073214"><ele>182.5</ele><time>2026-04-08T14:48:38.396Z</time></trkpt><trkpt lat="44.3484509" lon="11.407265"><ele>181.25</ele><time>2026-04-08T14:48:39.396Z</time></trkpt><trkpt lat="44.3483101" lon="11.4072129"><ele>180.0</ele><time>2026-04-08T14:48:40.395Z</time></trkpt><trkpt lat="44.3481742" lon="11.4071293"><ele>181.5</ele><time>2026-04-08T14:48:41.394Z</time></trkpt><trkpt lat="44.3480373" lon="11.4070656"><ele>183.0</ele><time>2026-04-08T14:48:42.404Z</time></trkpt><trkpt lat="44.3479124" lon="11.4069938"><ele>184.5</ele><time>2026-04-08T14:48:43.393Z</time></trkpt><trkpt lat="44.3477827" lon="11.4068965"><ele>186.0</ele><time>2026-04-08T14:48:44.421Z</time></trkpt><trkpt lat="44.3476411" lon="11.4068151"><ele>186.0</ele><time>2026-04-08T14:48:45.397Z</time></trkpt><trkpt lat="44.3475254" lon="11.4067534"><ele>186.0</ele><time>2026-04-08T14:48:46.396Z</time></trkpt><trkpt lat="44.3474032" lon="11.4066998"><ele>186.0</ele><time>2026-04-08T14:48:47.399Z</time></trkpt><trkpt lat="44.3472661" lon="11.4066625"><ele>186.0</ele><time>2026-04-08T14:48:48.417Z</time></trkpt><trkpt lat="44.3471284" lon="11.4066299"><ele>186.75</ele><time>2026-04-08T14:48:49.398Z</time></trkpt><trkpt lat="44.3469926" lon="11.4066067"><ele>187.5</ele><time>2026-04-08T14:48:50.4Z</time></trkpt><trkpt lat="44.3468529" lon="11.4065813"><ele>188.25</ele><time>2026-04-08T14:48:51.4Z</time></trkpt><trkpt lat="44.3467242" lon="11.4065678"><ele>189.0</ele><time>2026-04-08T14:48:52.406Z</time></trkpt><trkpt lat="44.3465676" lon="11.4065353"><ele>189.0</ele><time>2026-04-08T14:48:53.4Z</time></trkpt><trkpt lat="44.346392" lon="11.4064909"><ele>189.0</ele><time>2026-04-08T14:48:54.403Z</time></trkpt><trkpt lat="44.3462149" lon="11.4064258"><ele>189.0</ele><time>2026-04-08T14:48:55.399Z</time></trkpt><trkpt lat="44.3460344" lon="11.4063676"><ele>188.66666666666666</ele><time>2026-04-08T14:48:56.396Z</time></trkpt><trkpt lat="44.3458765" lon="11.4063132"><ele>188.33333333333331</ele><time>2026-04-08T14:48:57.406Z</time></trkpt><trkpt lat="44.3457272" lon="11.4062753"><ele>188.0</ele><time>2026-04-08T14:48:58.401Z</time></trkpt><trkpt lat="44.3455698" lon="11.4062403"><ele>186.5</ele><time>2026-04-08T14:48:59.401Z</time></trkpt><trkpt lat="44.3454351" lon="11.4062038"><ele>185.0</ele><time>2026-04-08T14:49:00.401Z</time></trkpt><trkpt lat="44.3452817" lon="11.4061685"><ele>183.5</ele><time>2026-04-08T14:49:01.402Z</time></trkpt><trkpt lat="44.3451382" lon="11.4061404"><ele>182.0</ele><time>2026-04-08T14:49:02.403Z</time></trkpt><trkpt lat="44.344996" lon="11.4061274"><ele>182.0</ele><time>2026-04-08T14:49:03.397Z</time></trkpt><trkpt lat="44.3448735" lon="11.4061431"><ele>182.0</ele><time>2026-04-08T14:49:04.422Z</time></trkpt><trkpt lat="44.3447448" lon="11.4061693"><ele>182.0</ele><time>2026-04-08T14:49:05.419Z</time></trkpt><trkpt lat="44.3446194" lon="11.406209"><ele>182.0</ele><time>2026-04-08T14:49:06.418Z</time></trkpt><trkpt lat="44.3444729" lon="11.4062855"><ele>184.0</ele><time>2026-04-08T14:49:07.399Z</time></trkpt><trkpt lat="44.3443336" lon="11.4063749"><ele>186.0</ele><time>2026-04-08T14:49:08.402Z</time></trkpt><trkpt lat="44.3441925" lon="11.4064731"><ele>188.0</ele><time>2026-04-08T14:49:09.399Z</time></trkpt><trkpt lat="44.3440725" lon="11.4065582"><ele>190.0</ele><time>2026-04-08T14:49:10.402Z</time></trkpt><trkpt lat="44.3439058" lon="11.4066305"><ele>189.33333333333334</ele><time>2026-04-08T14:49:11.397Z</time></trkpt><trkpt lat="44.3437578" lon="11.4067022"><ele>188.66666666666666</ele><time>2026-04-08T14:49:12.403Z</time></trkpt><trkpt lat="44.343596" lon="11.406804"><ele>188.0</ele><time>2026-04-08T14:49:13.421Z</time></trkpt><trkpt lat="44.3434452" lon="11.4068876"><ele>188.0</ele><time>2026-04-08T14:49:14.418Z</time></trkpt><trkpt lat="44.34329" lon="11.4069679"><ele>188.0</ele><time>2026-04-08T14:49:15.416Z</time></trkpt><trkpt lat="44.343152" lon="11.4070418"><ele>188.0</ele><time>2026-04-08T14:49:16.402Z</time></trkpt><trkpt lat="44.3429822" lon="11.407087"><ele>190.33333333333331</ele><time>2026-04-08T14:49:17.4Z</time></trkpt><trkpt lat="44.342811" lon="11.4070987"><ele>192.66666666666666</ele><time>2026-04-08T14:49:18.404Z</time></trkpt><trkpt lat="44.3426447" lon="11.4070872"><ele>195.0</ele><time>2026-04-08T14:49:19.405Z</time></trkpt><trkpt lat="44.3424895" lon="11.4070359"><ele>195.0</ele><time>2026-04-08T14:49:20.396Z</time></trkpt><trkpt lat="44.342299" lon="11.4069477"><ele>195.0</ele><time>2026-04-08T14:49:21.398Z</time></trkpt><trkpt lat="44.3421552" lon="11.4068092"><ele>195.0</ele><time>2026-04-08T14:49:22.4Z</time></trkpt><trkpt lat="44.3420166" lon="11.4066469"><ele>193.0</ele><time>2026-04-08T14:49:23.401Z</time></trkpt><trkpt lat="44.3418762" lon="11.4065001"><ele>191.0</ele><time>2026-04-08T14:49:24.398Z</time></trkpt><trkpt lat="44.341725" lon="11.4063423"><ele>189.0</ele><time>2026-04-08T14:49:25.397Z</time></trkpt><trkpt lat="44.3415657" lon="11.4062269"><ele>189.0</ele><time>2026-04-08T14:49:26.395Z</time></trkpt><trkpt lat="44.3414116" lon="11.4060641"><ele>189.0</ele><time>2026-04-08T14:49:27.41Z</time></trkpt><trkpt lat="44.3412598" lon="11.4060075"><ele>189.0</ele><time>2026-04-08T14:49:28.419Z</time></trkpt><trkpt lat="44.3411155" lon="11.4059609"><ele>189.5</ele><time>2026-04-08T14:49:29.408Z</time></trkpt><trkpt lat="44.3409766" lon="11.4059446"><ele>190.0</ele><time>2026-04-08T14:49:30.411Z</time></trkpt><trkpt lat="44.3408251" lon="11.4059563"><ele>190.5</ele><time>2026-04-08T14:49:31.409Z</time></trkpt><trkpt lat="44.3406909" lon="11.4059857"><ele>191.0</ele><time>2026-04-08T14:49:32.409Z</time></trkpt><trkpt lat="44.3405273" lon="11.4060246"><ele>191.0</ele><time>2026-04-08T14:49:33.407Z</time></trkpt><trkpt lat="44.3403686" lon="11.4061034"><ele>191.0</ele><time>2026-04-08T14:49:34.402Z</time></trkpt><trkpt lat="44.3402235" lon="11.4062287"><ele>191.0</ele><time>2026-04-08T14:49:35.405Z</time></trkpt><trkpt lat="44.3400692" lon="11.4063789"><ele>191.33333333333331</ele><time>2026-04-08T14:49:36.411Z</time></trkpt><trkpt lat="44.3399304" lon="11.4065159"><ele>191.66666666666666</ele><time>2026-04-08T14:49:37.409Z</time></trkpt><trkpt lat="44.3397581" lon="11.4066473"><ele>192.0</ele><time>2026-04-08T14:49:38.412Z</time></trkpt><trkpt lat="44.3395843" lon="11.4067661"><ele>192.0</ele><time>2026-04-08T14:49:39.412Z</time></trkpt><trkpt lat="44.3394349" lon="11.4068756"><ele>192.0</ele><time>2026-04-08T14:49:40.409Z</time></trkpt><trkpt lat="44.3393302" lon="11.4070082"><ele>192.0</ele><time>2026-04-08T14:49:41.409Z</time></trkpt><trkpt lat="44.339197" lon="11.4070925"><ele>192.0</ele><time>2026-04-08T14:49:42.412Z</time></trkpt><trkpt lat="44.3390659" lon="11.4070918"><ele>192.0</ele><time>2026-04-08T14:49:43.406Z</time></trkpt><trkpt lat="44.3389504" lon="11.4070679"><ele>192.0</ele><time>2026-04-08T14:49:44.4Z</time></trkpt><trkpt lat="44.3388393" lon="11.4070032"><ele>192.0</ele><time>2026-04-08T14:49:45.411Z</time></trkpt><trkpt lat="44.3387531" lon="11.4068849"><ele>194.33333333333331</ele><time>2026-04-08T14:49:46.398Z</time></trkpt><trkpt lat="44.3386659" lon="11.4067103"><ele>196.66666666666666</ele><time>2026-04-08T14:49:47.398Z</time></trkpt><trkpt lat="44.3385866" lon="11.4065246"><ele>199.0</ele><time>2026-04-08T14:49:48.408Z</time></trkpt><trkpt lat="44.3384954" lon="11.4063481"><ele>198.0</ele><time>2026-04-08T14:49:49.408Z</time></trkpt><trkpt lat="44.3383841" lon="11.4061334"><ele>197.0</ele><time>2026-04-08T14:49:50.408Z</time></trkpt><trkpt lat="44.3383134" lon="11.405981"><ele>196.0</ele><time>2026-04-08T14:49:51.408Z</time></trkpt><trkpt lat="44.3382603" lon="11.4058496"><ele>195.0</ele><time>2026-04-08T14:49:52.407Z</time></trkpt><trkpt lat="44.3381894" lon="11.40571"><ele>195.0</ele><time>2026-04-08T14:49:53.405Z</time></trkpt><trkpt lat="44.3380975" lon="11.4055755"><ele>195.0</ele><time>2026-04-08T14:49:54.404Z</time></trkpt><trkpt lat="44.3380486" lon="11.4054704"><ele>195.0</ele><time>2026-04-08T14:49:55.402Z</time></trkpt><trkpt lat="44.3380007" lon="11.4054101"><ele>195.0</ele><time>2026-04-08T14:49:56.4Z</time></trkpt><trkpt lat="44.3379438" lon="11.4053345"><ele>195.0</ele><time>2026-04-08T14:49:58.425Z</time></trkpt><trkpt lat="44.3379275" lon="11.4052325"><ele>195.0</ele><time>2026-04-08T14:50:00.399Z</time></trkpt><trkpt lat="44.3378746" lon="11.4050647"><ele>195.0</ele><time>2026-04-08T14:50:02.4Z</time></trkpt><trkpt lat="44.3378412" lon="11.404964"><ele>195.0</ele><time>2026-04-08T14:50:03.405Z</time></trkpt><trkpt lat="44.3378017" lon="11.404892"><ele>195.0</ele><time>2026-04-08T14:50:04.402Z</time></trkpt><trkpt lat="44.3377361" lon="11.4047915"><ele>195.0</ele><time>2026-04-08T14:50:06.408Z</time></trkpt><trkpt lat="44.3376671" lon="11.4047205"><ele>195.0</ele><time>2026-04-08T14:50:09.406Z</time></trkpt><trkpt lat="44.3375505" lon="11.4047212"><ele>195.0</ele><time>2026-04-08T14:50:12.401Z</time></trkpt><trkpt lat="44.3374819" lon="11.4047488"><ele>195.0</ele><time>2026-04-08T14:50:13.423Z</time></trkpt><trkpt lat="44.3374196" lon="11.4048043"><ele>195.0</ele><time>2026-04-08T14:50:14.4Z</time></trkpt><trkpt lat="44.3373621" lon="11.4048933"><ele>195.0</ele><time>2026-04-08T14:50:15.403Z</time></trkpt><trkpt lat="44.3373036" lon="11.4050026"><ele>195.0</ele><time>2026-04-08T14:50:16.404Z</time></trkpt><trkpt lat="44.3372294" lon="11.4051066"><ele>195.0</ele><time>2026-04-08T14:50:17.396Z</time></trkpt><trkpt lat="44.3371493" lon="11.4052277"><ele>195.6</ele><time>2026-04-08T14:50:18.399Z</time></trkpt><trkpt lat="44.3370603" lon="11.4053492"><ele>196.2</ele><time>2026-04-08T14:50:19.403Z</time></trkpt><trkpt lat="44.336988" lon="11.4054559"><ele>196.8</ele><time>2026-04-08T14:50:20.403Z</time></trkpt><trkpt lat="44.336937" lon="11.4055347"><ele>197.4</ele><time>2026-04-08T14:50:21.393Z</time></trkpt><trkpt lat="44.3369159" lon="11.4056781"><ele>198.0</ele><time>2026-04-08T14:50:23.478Z</time></trkpt><trkpt lat="44.3369488" lon="11.4057581"><ele>199.25</ele><time>2026-04-08T14:50:24.438Z</time></trkpt><trkpt lat="44.3370092" lon="11.4058541"><ele>200.5</ele><time>2026-04-08T14:50:25.423Z</time></trkpt><trkpt lat="44.3371071" lon="11.405966"><ele>201.75</ele><time>2026-04-08T14:50:26.396Z</time></trkpt><trkpt lat="44.3372071" lon="11.4060897"><ele>203.0</ele><time>2026-04-08T14:50:27.393Z</time></trkpt><trkpt lat="44.337301" lon="11.40623"><ele>206.5</ele><time>2026-04-08T14:50:28.398Z</time></trkpt><trkpt lat="44.3373767" lon="11.4063854"><ele>210.0</ele><time>2026-04-08T14:50:29.4Z</time></trkpt><trkpt lat="44.3374434" lon="11.4065445"><ele>213.5</ele><time>2026-04-08T14:50:30.4Z</time></trkpt><trkpt lat="44.3375077" lon="11.4066964"><ele>217.0</ele><time>2026-04-08T14:50:31.395Z</time></trkpt><trkpt lat="44.3375674" lon="11.4068242"><ele>217.0</ele><time>2026-04-08T14:50:32.393Z</time></trkpt><trkpt lat="44.3375965" lon="11.4069422"><ele>217.0</ele><time>2026-04-08T14:50:33.396Z</time></trkpt><trkpt lat="44.3375831" lon="11.4070368"><ele>217.0</ele><time>2026-04-08T14:50:34.395Z</time></trkpt><trkpt lat="44.3374774" lon="11.4070963"><ele>217.0</ele><time>2026-04-08T14:50:36.395Z</time></trkpt><trkpt lat="44.3374038" lon="11.4070478"><ele>217.0</ele><time>2026-04-08T14:50:37.401Z</time></trkpt><trkpt lat="44.3373209" lon="11.4069763"><ele>216.99999999999997</ele><time>2026-04-08T14:50:38.393Z</time></trkpt><trkpt lat="44.3372373" lon="11.4069223"><ele>217.0</ele><time>2026-04-08T14:50:39.4Z</time></trkpt><trkpt lat="44.3371728" lon="11.4069077"><ele>217.0</ele><time>2026-04-08T14:50:40.403Z</time></trkpt><trkpt lat="44.3370721" lon="11.4069306"><ele>217.0</ele><time>2026-04-08T14:50:42.399Z</time></trkpt><trkpt lat="44.3371265" lon="11.4070585"><ele>216.99999999999997</ele><time>2026-04-08T14:50:44.385Z</time></trkpt><trkpt lat="44.3371875" lon="11.4071348"><ele>217.0</ele><time>2026-04-08T14:50:45.388Z</time></trkpt><trkpt lat="44.3372245" lon="11.4072224"><ele>219.6</ele><time>2026-04-08T14:50:46.388Z</time></trkpt><trkpt lat="44.3372634" lon="11.4073306"><ele>222.2</ele><time>2026-04-08T14:50:47.396Z</time></trkpt><trkpt lat="44.3372952" lon="11.4074443"><ele>224.8</ele><time>2026-04-08T14:50:48.397Z</time></trkpt><trkpt lat="44.3373183" lon="11.4075888"><ele>227.4</ele><time>2026-04-08T14:50:49.393Z</time></trkpt><trkpt lat="44.3373341" lon="11.4077389"><ele>230.0</ele><time>2026-04-08T14:50:50.393Z</time></trkpt><trkpt lat="44.3373567" lon="11.4079301"><ele>232.75</ele><time>2026-04-08T14:50:51.403Z</time></trkpt><trkpt lat="44.3373796" lon="11.4081366"><ele>235.5</ele><time>2026-04-08T14:50:52.398Z</time></trkpt><trkpt lat="44.3374071" lon="11.4083371"><ele>238.25</ele><time>2026-04-08T14:50:53.399Z</time></trkpt><trkpt lat="44.3374561" lon="11.4085336"><ele>241.0</ele><time>2026-04-08T14:50:54.402Z</time></trkpt><trkpt lat="44.3374922" lon="11.4086866"><ele>244.4</ele><time>2026-04-08T14:50:55.401Z</time></trkpt><trkpt lat="44.3375286" lon="11.4088328"><ele>247.8</ele><time>2026-04-08T14:50:56.396Z</time></trkpt><trkpt lat="44.3375763" lon="11.4089528"><ele>251.20000000000002</ele><time>2026-04-08T14:50:57.398Z</time></trkpt><trkpt lat="44.3376419" lon="11.4090411"><ele>254.60000000000002</ele><time>2026-04-08T14:50:58.398Z</time></trkpt><trkpt lat="44.3377259" lon="11.4091073"><ele>258.0</ele><time>2026-04-08T14:50:59.399Z</time></trkpt><trkpt lat="44.3378109" lon="11.4091384"><ele>258.0</ele><time>2026-04-08T14:51:00.395Z</time></trkpt><trkpt lat="44.3379009" lon="11.4091838"><ele>258.0</ele><time>2026-04-08T14:51:01.392Z</time></trkpt><trkpt lat="44.338029" lon="11.4091814"><ele>258.0</ele><time>2026-04-08T14:51:02.4Z</time></trkpt><trkpt lat="44.3381582" lon="11.4092056"><ele>258.0</ele><time>2026-04-08T14:51:03.399Z</time></trkpt><trkpt lat="44.3383008" lon="11.4092323"><ele>257.0</ele><time>2026-04-08T14:51:04.417Z</time></trkpt><trkpt lat="44.3384325" lon="11.4092499"><ele>256.0</ele><time>2026-04-08T14:51:05.4Z</time></trkpt><trkpt lat="44.3385504" lon="11.4092515"><ele>255.0</ele><time>2026-04-08T14:51:06.424Z</time></trkpt><trkpt lat="44.3386521" lon="11.4092314"><ele>254.0</ele><time>2026-04-08T14:51:07.419Z</time></trkpt><trkpt lat="44.3387343" lon="11.4092253"><ele>253.0</ele><time>2026-04-08T14:51:08.39Z</time></trkpt><trkpt lat="44.3388242" lon="11.409232"><ele>253.0</ele><time>2026-04-08T14:51:09.402Z</time></trkpt><trkpt lat="44.3388675" lon="11.4093124"><ele>253.0</ele><time>2026-04-08T14:51:11.399Z</time></trkpt><trkpt lat="44.3387803" lon="11.4094551"><ele>253.0</ele><time>2026-04-08T14:51:13.401Z</time></trkpt><trkpt lat="44.3387029" lon="11.4095253"><ele>253.0</ele><time>2026-04-08T14:51:14.395Z</time></trkpt><trkpt lat="44.3386346" lon="11.4095818"><ele>253.0</ele><time>2026-04-08T14:51:15.403Z</time></trkpt><trkpt lat="44.3385454" lon="11.4096232"><ele>253.0</ele><time>2026-04-08T14:51:16.396Z</time></trkpt><trkpt lat="44.3384529" lon="11.4096456"><ele>253.0</ele><time>2026-04-08T14:51:17.4Z</time></trkpt><trkpt lat="44.338353" lon="11.4096374"><ele>253.0</ele><time>2026-04-08T14:51:18.419Z</time></trkpt><trkpt lat="44.3382488" lon="11.4096462"><ele>253.0</ele><time>2026-04-08T14:51:19.398Z</time></trkpt><trkpt lat="44.338143" lon="11.4096653"><ele>253.0</ele><time>2026-04-08T14:51:20.395Z</time></trkpt><trkpt lat="44.3380452" lon="11.4097046"><ele>258.8</ele><time>2026-04-08T14:51:21.395Z</time></trkpt><trkpt lat="44.3379502" lon="11.4097653"><ele>264.6</ele><time>2026-04-08T14:51:22.397Z</time></trkpt><trkpt lat="44.3378711" lon="11.4098758"><ele>270.4</ele><time>2026-04-08T14:51:23.402Z</time></trkpt><trkpt lat="44.3377925" lon="11.4100025"><ele>276.2</ele><time>2026-04-08T14:51:24.395Z</time></trkpt><trkpt lat="44.3377098" lon="11.4101025"><ele>282.0</ele><time>2026-04-08T14:51:25.397Z</time></trkpt><trkpt lat="44.3376213" lon="11.4102095"><ele>282.0</ele><time>2026-04-08T14:51:26.393Z</time></trkpt><trkpt lat="44.3375303" lon="11.410301"><ele>282.0</ele><time>2026-04-08T14:51:27.4Z</time></trkpt><trkpt lat="44.3374588" lon="11.4104044"><ele>282.0</ele><time>2026-04-08T14:51:28.395Z</time></trkpt><trkpt lat="44.3373941" lon="11.4105081"><ele>282.0</ele><time>2026-04-08T14:51:29.395Z</time></trkpt><trkpt lat="44.3373114" lon="11.4105831"><ele>282.0</ele><time>2026-04-08T14:51:30.394Z</time></trkpt><trkpt lat="44.3372306" lon="11.4106372"><ele>286.42857142857144</ele><time>2026-04-08T14:51:31.392Z</time></trkpt><trkpt lat="44.3371419" lon="11.4106571"><ele>290.85714285714283</ele><time>2026-04-08T14:51:32.393Z</time></trkpt><trkpt lat="44.3370659" lon="11.4106579"><ele>295.2857142857143</ele><time>2026-04-08T14:51:33.395Z</time></trkpt><trkpt lat="44.3370037" lon="11.4106181"><ele>299.7142857142857</ele><time>2026-04-08T14:51:34.393Z</time></trkpt><trkpt lat="44.3369415" lon="11.4105699"><ele>304.14285714285717</ele><time>2026-04-08T14:51:35.396Z</time></trkpt><trkpt lat="44.3368789" lon="11.4105332"><ele>308.57142857142856</ele><time>2026-04-08T14:51:36.419Z</time></trkpt><trkpt lat="44.3368121" lon="11.4105098"><ele>313.0</ele><time>2026-04-08T14:51:37.42Z</time></trkpt><trkpt lat="44.3367418" lon="11.4105184"><ele>313.0</ele><time>2026-04-08T14:51:38.39Z</time></trkpt><trkpt lat="44.3366756" lon="11.4105329"><ele>313.0</ele><time>2026-04-08T14:51:39.418Z</time></trkpt><trkpt lat="44.3366225" lon="11.4106005"><ele>313.0</ele><time>2026-04-08T14:51:40.42Z</time></trkpt><trkpt lat="44.3365661" lon="11.4107163"><ele>313.0</ele><time>2026-04-08T14:51:41.394Z</time></trkpt><trkpt lat="44.3364932" lon="11.4108694"><ele>313.0</ele><time>2026-04-08T14:51:42.391Z</time></trkpt><trkpt lat="44.3364206" lon="11.4110391"><ele>314.25</ele><time>2026-04-08T14:51:43.397Z</time></trkpt><trkpt lat="44.3363621" lon="11.4112101"><ele>315.5</ele><time>2026-04-08T14:51:44.398Z</time></trkpt><trkpt lat="44.3362954" lon="11.4113499"><ele>316.75</ele><time>2026-04-08T14:51:45.394Z</time></trkpt><trkpt lat="44.3362184" lon="11.4114773"><ele>318.0</ele><time>2026-04-08T14:51:46.397Z</time></trkpt><trkpt lat="44.3361349" lon="11.4115786"><ele>320.8333333333333</ele><time>2026-04-08T14:51:47.395Z</time></trkpt><trkpt lat="44.3360521" lon="11.4116304"><ele>323.6666666666667</ele><time>2026-04-08T14:51:48.386Z</time></trkpt><trkpt lat="44.3359649" lon="11.4116569"><ele>326.5</ele><time>2026-04-08T14:51:49.394Z</time></trkpt><trkpt lat="44.3358894" lon="11.4116607"><ele>329.33333333333337</ele><time>2026-04-08T14:51:50.393Z</time></trkpt><trkpt lat="44.3357993" lon="11.4116278"><ele>332.1666666666667</ele><time>2026-04-08T14:51:51.395Z</time></trkpt><trkpt lat="44.3357336" lon="11.4115619"><ele>335.0</ele><time>2026-04-08T14:51:52.39Z</time></trkpt><trkpt lat="44.3356854" lon="11.4114487"><ele>335.0</ele><time>2026-04-08T14:51:53.399Z</time></trkpt><trkpt lat="44.3356377" lon="11.4113547"><ele>335.0</ele><time>2026-04-08T14:51:54.412Z</time></trkpt><trkpt lat="44.3355901" lon="11.4112968"><ele>335.0</ele><time>2026-04-08T14:51:55.391Z</time></trkpt><trkpt lat="44.3355053" lon="11.4113419"><ele>335.0</ele><time>2026-04-08T14:51:57.4Z</time></trkpt><trkpt lat="44.3354649" lon="11.4114253"><ele>335.0</ele><time>2026-04-08T14:51:58.42Z</time></trkpt><trkpt lat="44.3353947" lon="11.4115497"><ele>335.0</ele><time>2026-04-08T14:51:59.392Z</time></trkpt><trkpt lat="44.3353028" lon="11.4116916"><ele>338.0</ele><time>2026-04-08T14:52:00.397Z</time></trkpt><trkpt lat="44.3351925" lon="11.4118138"><ele>341.0</ele><time>2026-04-08T14:52:01.394Z</time></trkpt><trkpt lat="44.3350798" lon="11.4119004"><ele>344.0</ele><time>2026-04-08T14:52:02.389Z</time></trkpt><trkpt lat="44.33496" lon="11.4119676"><ele>347.0</ele><time>2026-04-08T14:52:03.398Z</time></trkpt><trkpt lat="44.3348149" lon="11.4119857"><ele>346.75</ele><time>2026-04-08T14:52:04.398Z</time></trkpt><trkpt lat="44.3346862" lon="11.4119818"><ele>346.5</ele><time>2026-04-08T14:52:05.39Z</time></trkpt><trkpt lat="44.3345766" lon="11.4119809"><ele>346.25</ele><time>2026-04-08T14:52:06.4Z</time></trkpt><trkpt lat="44.3344686" lon="11.4119554"><ele>346.0</ele><time>2026-04-08T14:52:07.4Z</time></trkpt><trkpt lat="44.3343588" lon="11.4118762"><ele>346.0</ele><time>2026-04-08T14:52:08.391Z</time></trkpt><trkpt lat="44.3342711" lon="11.4118351"><ele>346.0</ele><time>2026-04-08T14:52:09.392Z</time></trkpt><trkpt lat="44.3342034" lon="11.4118222"><ele>346.0</ele><time>2026-04-08T14:52:10.399Z</time></trkpt><trkpt lat="44.3341254" lon="11.4120113"><ele>346.0</ele><time>2026-04-08T14:52:13.412Z</time></trkpt><trkpt lat="44.3341448" lon="11.412124"><ele>346.0</ele><time>2026-04-08T14:52:14.411Z</time></trkpt><trkpt lat="44.3341858" lon="11.4122683"><ele>347.75</ele><time>2026-04-08T14:52:15.414Z</time></trkpt><trkpt lat="44.3342248" lon="11.4124181"><ele>349.5</ele><time>2026-04-08T14:52:16.39Z</time></trkpt><trkpt lat="44.3342438" lon="11.4125994"><ele>351.25</ele><time>2026-04-08T14:52:17.398Z</time></trkpt><trkpt lat="44.3342117" lon="11.4127377"><ele>353.0</ele><time>2026-04-08T14:52:18.398Z</time></trkpt><trkpt lat="44.3341355" lon="11.4128684"><ele>353.0</ele><time>2026-04-08T14:52:19.391Z</time></trkpt><trkpt lat="44.3340572" lon="11.41298"><ele>353.0</ele><time>2026-04-08T14:52:20.415Z</time></trkpt><trkpt lat="44.3339849" lon="11.4130989"><ele>353.0</ele><time>2026-04-08T14:52:21.4Z</time></trkpt><trkpt lat="44.3339305" lon="11.4132043"><ele>353.0</ele><time>2026-04-08T14:52:22.392Z</time></trkpt><trkpt lat="44.3338684" lon="11.413309"><ele>353.0</ele><time>2026-04-08T14:52:23.396Z</time></trkpt><trkpt lat="44.3338074" lon="11.4133996"><ele>353.59999999999997</ele><time>2026-04-08T14:52:24.403Z</time></trkpt><trkpt lat="44.3337879" lon="11.4135266"><ele>354.2</ele><time>2026-04-08T14:52:25.401Z</time></trkpt><trkpt lat="44.3337402" lon="11.4136385"><ele>354.8</ele><time>2026-04-08T14:52:26.399Z</time></trkpt><trkpt lat="44.3336957" lon="11.4137862"><ele>355.4</ele><time>2026-04-08T14:52:27.4Z</time></trkpt><trkpt lat="44.3336344" lon="11.4139155"><ele>356.0</ele><time>2026-04-08T14:52:28.401Z</time></trkpt><trkpt lat="44.3335832" lon="11.4140768"><ele>362.25</ele><time>2026-04-08T14:52:29.475Z</time></trkpt><trkpt lat="44.3335444" lon="11.414228"><ele>368.5</ele><time>2026-04-08T14:52:30.417Z</time></trkpt><trkpt lat="44.3335166" lon="11.4143756"><ele>374.75</ele><time>2026-04-08T14:52:31.387Z</time></trkpt><trkpt lat="44.333471" lon="11.4145136"><ele>381.0</ele><time>2026-04-08T14:52:32.551Z</time></trkpt><trkpt lat="44.3333739" lon="11.4146527"><ele>381.0</ele><time>2026-04-08T14:52:34.409Z</time></trkpt><trkpt lat="44.3333096" lon="11.4146587"><ele>381.0</ele><time>2026-04-08T14:52:35.419Z</time></trkpt><trkpt lat="44.3332467" lon="11.4146626"><ele>381.0</ele><time>2026-04-08T14:52:36.416Z</time></trkpt><trkpt lat="44.3331723" lon="11.4146425"><ele>381.0</ele><time>2026-04-08T14:52:37.418Z</time></trkpt><trkpt lat="44.3331061" lon="11.4146406"><ele>381.0</ele><time>2026-04-08T14:52:38.422Z</time></trkpt><trkpt lat="44.3330294" lon="11.4146842"><ele>381.0</ele><time>2026-04-08T14:52:39.417Z</time></trkpt><trkpt lat="44.3329371" lon="11.4147457"><ele>384.0</ele><time>2026-04-08T14:52:40.392Z</time></trkpt><trkpt lat="44.3328614" lon="11.4148238"><ele>387.0</ele><time>2026-04-08T14:52:41.396Z</time></trkpt><trkpt lat="44.3328002" lon="11.4149109"><ele>390.0</ele><time>2026-04-08T14:52:42.392Z</time></trkpt><trkpt lat="44.3327538" lon="11.4150142"><ele>393.0</ele><time>2026-04-08T14:52:43.394Z</time></trkpt><trkpt lat="44.3327128" lon="11.4151174"><ele>396.0</ele><time>2026-04-08T14:52:44.392Z</time></trkpt><trkpt lat="44.3326781" lon="11.4152056"><ele>399.0</ele><time>2026-04-08T14:52:45.392Z</time></trkpt><trkpt lat="44.3326235" lon="11.4152768"><ele>399.0</ele><time>2026-04-08T14:52:46.393Z</time></trkpt><trkpt lat="44.3325639" lon="11.4153544"><ele>399.0</ele><time>2026-04-08T14:52:47.477Z</time></trkpt><trkpt lat="44.332471" lon="11.4154112"><ele>399.0</ele><time>2026-04-08T14:52:48.39Z</time></trkpt><trkpt lat="44.3323595" lon="11.4154582"><ele>399.0</ele><time>2026-04-08T14:52:49.394Z</time></trkpt><trkpt lat="44.3322593" lon="11.4154692"><ele>399.0</ele><time>2026-04-08T14:52:50.394Z</time></trkpt><trkpt lat="44.3321772" lon="11.4154645"><ele>401.5</ele><time>2026-04-08T14:52:51.391Z</time></trkpt><trkpt lat="44.3321062" lon="11.4154467"><ele>404.0</ele><time>2026-04-08T14:52:52.416Z</time></trkpt><trkpt lat="44.3320168" lon="11.4154396"><ele>406.5</ele><time>2026-04-08T14:52:53.4Z</time></trkpt><trkpt lat="44.3319331" lon="11.4154579"><ele>409.0</ele><time>2026-04-08T14:52:54.397Z</time></trkpt><trkpt lat="44.3318565" lon="11.4155066"><ele>411.5</ele><time>2026-04-08T14:52:55.404Z</time></trkpt><trkpt lat="44.331787" lon="11.4155547"><ele>414.0</ele><time>2026-04-08T14:52:56.396Z</time></trkpt><trkpt lat="44.3317291" lon="11.4155985"><ele>417.6</ele><time>2026-04-08T14:52:57.403Z</time></trkpt><trkpt lat="44.3316877" lon="11.4156766"><ele>421.2</ele><time>2026-04-08T14:52:58.398Z</time></trkpt><trkpt lat="44.3316503" lon="11.4157587"><ele>424.80000000000007</ele><time>2026-04-08T14:52:59.399Z</time></trkpt><trkpt lat="44.3315856" lon="11.415882"><ele>428.40000000000003</ele><time>2026-04-08T14:53:01.399Z</time></trkpt><trkpt lat="44.3314954" lon="11.4159348"><ele>432.0</ele><time>2026-04-08T14:53:03.396Z</time></trkpt><trkpt lat="44.3313912" lon="11.415929"><ele>430.40000000000003</ele><time>2026-04-08T14:53:05.403Z</time></trkpt><trkpt lat="44.3312798" lon="11.4159508"><ele>428.80000000000007</ele><time>2026-04-08T14:53:07.445Z</time></trkpt><trkpt lat="44.3311832" lon="11.4160292"><ele>427.2</ele><time>2026-04-08T14:53:09.42Z</time></trkpt><trkpt lat="44.3311031" lon="11.4161519"><ele>425.6</ele><time>2026-04-08T14:53:11.397Z</time></trkpt><trkpt lat="44.3310734" lon="11.4162341"><ele>424.0</ele><time>2026-04-08T14:53:12.399Z</time></trkpt><trkpt lat="44.3310497" lon="11.4163255"><ele>427.1666666666667</ele><time>2026-04-08T14:53:13.422Z</time></trkpt><trkpt lat="44.3310137" lon="11.4164167"><ele>430.33333333333337</ele><time>2026-04-08T14:53:14.394Z</time></trkpt><trkpt lat="44.3309622" lon="11.4165021"><ele>433.5</ele><time>2026-04-08T14:53:15.399Z</time></trkpt><trkpt lat="44.3309069" lon="11.4165818"><ele>436.66666666666663</ele><time>2026-04-08T14:53:16.4Z</time></trkpt><trkpt lat="44.3308521" lon="11.4166773"><ele>439.8333333333333</ele><time>2026-04-08T14:53:17.403Z</time></trkpt><trkpt lat="44.3307917" lon="11.4167794"><ele>443.0</ele><time>2026-04-08T14:53:18.402Z</time></trkpt><trkpt lat="44.3307316" lon="11.4168822"><ele>442.99999999999994</ele><time>2026-04-08T14:53:19.401Z</time></trkpt><trkpt lat="44.3306706" lon="11.4169823"><ele>443.0</ele><time>2026-04-08T14:53:20.4Z</time></trkpt><trkpt lat="44.3306104" lon="11.4170752"><ele>443.0</ele><time>2026-04-08T14:53:21.403Z</time></trkpt><trkpt lat="44.3305491" lon="11.4171598"><ele>443.0</ele><time>2026-04-08T14:53:22.4Z</time></trkpt><trkpt lat="44.3304828" lon="11.4172381"><ele>442.99999999999994</ele><time>2026-04-08T14:53:23.403Z</time></trkpt><trkpt lat="44.3304098" lon="11.4173063"><ele>443.0</ele><time>2026-04-08T14:53:24.399Z</time></trkpt><trkpt lat="44.3303266" lon="11.4173669"><ele>445.79999999999995</ele><time>2026-04-08T14:53:25.401Z</time></trkpt><trkpt lat="44.3302443" lon="11.4174353"><ele>448.59999999999997</ele><time>2026-04-08T14:53:26.402Z</time></trkpt><trkpt lat="44.330173" lon="11.4175223"><ele>451.40000000000003</ele><time>2026-04-08T14:53:27.423Z</time></trkpt><trkpt lat="44.3301071" lon="11.4176159"><ele>454.20000000000005</ele><time>2026-04-08T14:53:28.396Z</time></trkpt><trkpt lat="44.3300385" lon="11.4176999"><ele>457.0</ele><time>2026-04-08T14:53:29.398Z</time></trkpt><trkpt lat="44.3299619" lon="11.4177813"><ele>457.00000000000006</ele><time>2026-04-08T14:53:30.405Z</time></trkpt><trkpt lat="44.3298836" lon="11.4178615"><ele>457.0</ele><time>2026-04-08T14:53:31.401Z</time></trkpt><trkpt lat="44.3298186" lon="11.4179412"><ele>457.0</ele><time>2026-04-08T14:53:32.399Z</time></trkpt><trkpt lat="44.3297683" lon="11.4180217"><ele>457.0</ele><time>2026-04-08T14:53:33.398Z</time></trkpt><trkpt lat="44.329723" lon="11.418096"><ele>457.00000000000006</ele><time>2026-04-08T14:53:34.398Z</time></trkpt><trkpt lat="44.3296762" lon="11.4181952"><ele>457.0</ele><time>2026-04-08T14:53:35.396Z</time></trkpt><trkpt lat="44.3296441" lon="11.4182903"><ele>458.83333333333337</ele><time>2026-04-08T14:53:36.396Z</time></trkpt><trkpt lat="44.3296273" lon="11.4184087"><ele>460.6666666666667</ele><time>2026-04-08T14:53:37.397Z</time></trkpt><trkpt lat="44.329612" lon="11.4185392"><ele>462.5</ele><time>2026-04-08T14:53:38.417Z</time></trkpt><trkpt lat="44.3295941" lon="11.4186574"><ele>464.33333333333337</ele><time>2026-04-08T14:53:39.422Z</time></trkpt><trkpt lat="44.3295713" lon="11.4187599"><ele>466.1666666666667</ele><time>2026-04-08T14:53:40.398Z</time></trkpt><trkpt lat="44.3295487" lon="11.4188533"><ele>468.0</ele><time>2026-04-08T14:53:41.399Z</time></trkpt><trkpt lat="44.3295211" lon="11.4189368"><ele>469.5</ele><time>2026-04-08T14:53:42.398Z</time></trkpt><trkpt lat="44.3294902" lon="11.4190255"><ele>471.0</ele><time>2026-04-08T14:53:43.382Z</time></trkpt><trkpt lat="44.329465" lon="11.4191085"><ele>472.5</ele><time>2026-04-08T14:53:44.395Z</time></trkpt><trkpt lat="44.3294069" lon="11.4191949"><ele>474.0</ele><time>2026-04-08T14:53:46.398Z</time></trkpt><trkpt lat="44.3293292" lon="11.4192226"><ele>475.5</ele><time>2026-04-08T14:53:48.405Z</time></trkpt><trkpt lat="44.3292062" lon="11.4191756"><ele>477.0</ele><time>2026-04-08T14:53:50.403Z</time></trkpt><trkpt lat="44.3291379" lon="11.419137"><ele>477.0</ele><time>2026-04-08T14:53:51.401Z</time></trkpt><trkpt lat="44.3290553" lon="11.419109"><ele>477.00000000000006</ele><time>2026-04-08T14:53:52.392Z</time></trkpt><trkpt lat="44.3289565" lon="11.4191045"><ele>477.00000000000006</ele><time>2026-04-08T14:53:53.397Z</time></trkpt><trkpt lat="44.3288406" lon="11.4191239"><ele>477.0</ele><time>2026-04-08T14:53:54.399Z</time></trkpt><trkpt lat="44.3287061" lon="11.4191649"><ele>477.0</ele><time>2026-04-08T14:53:55.396Z</time></trkpt><trkpt lat="44.3285618" lon="11.4192174"><ele>481.0</ele><time>2026-04-08T14:53:56.397Z</time></trkpt><trkpt lat="44.3284089" lon="11.4192463"><ele>485.0</ele><time>2026-04-08T14:53:57.39Z</time></trkpt><trkpt lat="44.328222" lon="11.419248"><ele>489.0</ele><time>2026-04-08T14:53:58.399Z</time></trkpt><trkpt lat="44.328061" lon="11.4192298"><ele>492.25</ele><time>2026-04-08T14:53:59.397Z</time></trkpt><trkpt lat="44.3279105" lon="11.4192154"><ele>495.5</ele><time>2026-04-08T14:54:00.396Z</time></trkpt><trkpt lat="44.3278171" lon="11.4191868"><ele>498.75</ele><time>2026-04-08T14:54:01.396Z</time></trkpt><trkpt lat="44.3276908" lon="11.419169"><ele>502.0</ele><time>2026-04-08T14:54:02.398Z</time></trkpt><trkpt lat="44.3275692" lon="11.419172"><ele>502.0</ele><time>2026-04-08T14:54:03.418Z</time></trkpt><trkpt lat="44.3274575" lon="11.419178"><ele>502.0</ele><time>2026-04-08T14:54:04.398Z</time></trkpt><trkpt lat="44.327338" lon="11.4191945"><ele>502.0</ele><time>2026-04-08T14:54:05.401Z</time></trkpt><trkpt lat="44.3272191" lon="11.4192107"><ele>502.0</ele><time>2026-04-08T14:54:06.397Z</time></trkpt><trkpt lat="44.3270964" lon="11.4192242"><ele>504.6</ele><time>2026-04-08T14:54:07.392Z</time></trkpt><trkpt lat="44.326991" lon="11.4192538"><ele>507.20000000000005</ele><time>2026-04-08T14:54:08.396Z</time></trkpt><trkpt lat="44.3269082" lon="11.4192909"><ele>509.8</ele><time>2026-04-08T14:54:09.393Z</time></trkpt><trkpt lat="44.3268469" lon="11.4193309"><ele>512.4</ele><time>2026-04-08T14:54:10.394Z</time></trkpt><trkpt lat="44.3267425" lon="11.4194441"><ele>515.0</ele><time>2026-04-08T14:54:12.401Z</time></trkpt><trkpt lat="44.3266733" lon="11.4195101"><ele>515.0</ele><time>2026-04-08T14:54:13.393Z</time></trkpt><trkpt lat="44.3266047" lon="11.4195676"><ele>515.0</ele><time>2026-04-08T14:54:14.397Z</time></trkpt><trkpt lat="44.3265241" lon="11.4196215"><ele>515.0</ele><time>2026-04-08T14:54:15.398Z</time></trkpt><trkpt lat="44.3264398" lon="11.4196901"><ele>515.0</ele><time>2026-04-08T14:54:16.396Z</time></trkpt><trkpt lat="44.3263677" lon="11.4197539"><ele>515.0</ele><time>2026-04-08T14:54:17.395Z</time></trkpt><trkpt lat="44.3263041" lon="11.4198397"><ele>515.0</ele><time>2026-04-08T14:54:18.404Z</time></trkpt><trkpt lat="44.3262567" lon="11.4199335"><ele>513.8</ele><time>2026-04-08T14:54:19.399Z</time></trkpt><trkpt lat="44.3262106" lon="11.4200354"><ele>512.6</ele><time>2026-04-08T14:54:20.402Z</time></trkpt><trkpt lat="44.3261683" lon="11.420146"><ele>511.4</ele><time>2026-04-08T14:54:21.403Z</time></trkpt><trkpt lat="44.3261287" lon="11.4202645"><ele>510.2</ele><time>2026-04-08T14:54:22.402Z</time></trkpt><trkpt lat="44.3260928" lon="11.4203768"><ele>509.0</ele><time>2026-04-08T14:54:23.401Z</time></trkpt><trkpt lat="44.3260514" lon="11.4204932"><ele>509.0</ele><time>2026-04-08T14:54:24.403Z</time></trkpt><trkpt lat="44.326001" lon="11.4206195"><ele>509.0</ele><time>2026-04-08T14:54:25.402Z</time></trkpt><trkpt lat="44.3259461" lon="11.4207492"><ele>509.0</ele><time>2026-04-08T14:54:26.399Z</time></trkpt><trkpt lat="44.3258775" lon="11.4208687"><ele>509.0</ele><time>2026-04-08T14:54:27.398Z</time></trkpt><trkpt lat="44.3257962" lon="11.4209704"><ele>509.0</ele><time>2026-04-08T14:54:28.401Z</time></trkpt><trkpt lat="44.3257018" lon="11.4210428"><ele>509.0</ele><time>2026-04-08T14:54:29.392Z</time></trkpt><trkpt lat="44.3256092" lon="11.4210866"><ele>509.0</ele><time>2026-04-08T14:54:30.387Z</time></trkpt><trkpt lat="44.3255155" lon="11.4210962"><ele>509.0</ele><time>2026-04-08T14:54:31.394Z</time></trkpt><trkpt lat="44.3254295" lon="11.4210869"><ele>509.0</ele><time>2026-04-08T14:54:32.391Z</time></trkpt><trkpt lat="44.3253416" lon="11.4210442"><ele>509.0</ele><time>2026-04-08T14:54:33.392Z</time></trkpt><trkpt lat="44.3252562" lon="11.4209907"><ele>507.6</ele><time>2026-04-08T14:54:34.396Z</time></trkpt><trkpt lat="44.3251705" lon="11.4209482"><ele>506.2</ele><time>2026-04-08T14:54:35.398Z</time></trkpt><trkpt lat="44.3250854" lon="11.4209139"><ele>504.80000000000007</ele><time>2026-04-08T14:54:36.393Z</time></trkpt><trkpt lat="44.3249905" lon="11.4209002"><ele>503.40000000000003</ele><time>2026-04-08T14:54:37.394Z</time></trkpt><trkpt lat="44.3248909" lon="11.4209015"><ele>502.0</ele><time>2026-04-08T14:54:38.397Z</time></trkpt><trkpt lat="44.3247873" lon="11.4209334"><ele>499.75</ele><time>2026-04-08T14:54:39.393Z</time></trkpt><trkpt lat="44.3246709" lon="11.4209763"><ele>497.5</ele><time>2026-04-08T14:54:40.397Z</time></trkpt><trkpt lat="44.3245545" lon="11.4210238"><ele>495.25</ele><time>2026-04-08T14:54:41.4Z</time></trkpt><trkpt lat="44.3244373" lon="11.4210637"><ele>493.0</ele><time>2026-04-08T14:54:42.401Z</time></trkpt><trkpt lat="44.3243243" lon="11.4210906"><ele>493.0</ele><time>2026-04-08T14:54:43.398Z</time></trkpt><trkpt lat="44.3242174" lon="11.4211291"><ele>493.0</ele><time>2026-04-08T14:54:44.402Z</time></trkpt><trkpt lat="44.3241161" lon="11.4212082"><ele>493.0</ele><time>2026-04-08T14:54:45.396Z</time></trkpt><trkpt lat="44.3240101" lon="11.4213178"><ele>493.0</ele><time>2026-04-08T14:54:46.397Z</time></trkpt><trkpt lat="44.3239034" lon="11.4214421"><ele>493.0</ele><time>2026-04-08T14:54:47.398Z</time></trkpt><trkpt lat="44.3238002" lon="11.4215824"><ele>493.0</ele><time>2026-04-08T14:54:48.403Z</time></trkpt><trkpt lat="44.3237108" lon="11.4217074"><ele>493.0</ele><time>2026-04-08T14:54:49.403Z</time></trkpt><trkpt lat="44.3236416" lon="11.4218212"><ele>493.0</ele><time>2026-04-08T14:54:50.397Z</time></trkpt><trkpt lat="44.3235717" lon="11.4218975"><ele>493.0</ele><time>2026-04-08T14:54:51.397Z</time></trkpt><trkpt lat="44.3235202" lon="11.4220137"><ele>492.99999999999994</ele><time>2026-04-08T14:54:53.4Z</time></trkpt><trkpt lat="44.3234713" lon="11.42209"><ele>492.99999999999994</ele><time>2026-04-08T14:54:55.397Z</time></trkpt><trkpt lat="44.3233926" lon="11.4221959"><ele>493.0</ele><time>2026-04-08T14:54:57.401Z</time></trkpt><trkpt lat="44.3233091" lon="11.4222937"><ele>493.0</ele><time>2026-04-08T14:54:59.397Z</time></trkpt><trkpt lat="44.3232263" lon="11.4223514"><ele>493.33333333333337</ele><time>2026-04-08T14:55:01.401Z</time></trkpt><trkpt lat="44.3231497" lon="11.4224295"><ele>493.6666666666667</ele><time>2026-04-08T14:55:03.401Z</time></trkpt><trkpt lat="44.3230862" lon="11.4224993"><ele>494.0</ele><time>2026-04-08T14:55:05.398Z</time></trkpt><trkpt lat="44.3230441" lon="11.422592"><ele>494.33333333333337</ele><time>2026-04-08T14:55:07.392Z</time></trkpt><trkpt lat="44.3230303" lon="11.4226791"><ele>494.6666666666667</ele><time>2026-04-08T14:55:08.394Z</time></trkpt><trkpt lat="44.323018" lon="11.4227897"><ele>495.0</ele><time>2026-04-08T14:55:09.396Z</time></trkpt><trkpt lat="44.323013" lon="11.4229082"><ele>499.8</ele><time>2026-04-08T14:55:10.392Z</time></trkpt><trkpt lat="44.3230093" lon="11.4230546"><ele>504.6</ele><time>2026-04-08T14:55:11.474Z</time></trkpt><trkpt lat="44.3230055" lon="11.4231991"><ele>509.4</ele><time>2026-04-08T14:55:12.423Z</time></trkpt><trkpt lat="44.3229974" lon="11.4233405"><ele>514.2</ele><time>2026-04-08T14:55:13.395Z</time></trkpt><trkpt lat="44.3229782" lon="11.4234609"><ele>519.0</ele><time>2026-04-08T14:55:14.391Z</time></trkpt><trkpt lat="44.3229225" lon="11.4235748"><ele>519.0</ele><time>2026-04-08T14:55:15.39Z</time></trkpt><trkpt lat="44.3228388" lon="11.4236755"><ele>519.0</ele><time>2026-04-08T14:55:16.386Z</time></trkpt><trkpt lat="44.3227402" lon="11.4237688"><ele>519.0</ele><time>2026-04-08T14:55:17.385Z</time></trkpt><trkpt lat="44.3226496" lon="11.4238799"><ele>519.0</ele><time>2026-04-08T14:55:18.389Z</time></trkpt><trkpt lat="44.3225779" lon="11.4239889"><ele>518.6</ele><time>2026-04-08T14:55:19.39Z</time></trkpt><trkpt lat="44.3225313" lon="11.4241107"><ele>518.2</ele><time>2026-04-08T14:55:20.393Z</time></trkpt><trkpt lat="44.3225131" lon="11.4242416"><ele>517.8000000000001</ele><time>2026-04-08T14:55:21.384Z</time></trkpt><trkpt lat="44.3225011" lon="11.4244057"><ele>517.4</ele><time>2026-04-08T14:55:22.398Z</time></trkpt><trkpt lat="44.3225163" lon="11.4245948"><ele>517.0</ele><time>2026-04-08T14:55:23.396Z</time></trkpt><trkpt lat="44.3225329" lon="11.424769"><ele>518.4</ele><time>2026-04-08T14:55:24.401Z</time></trkpt><trkpt lat="44.3225767" lon="11.4248818"><ele>519.8000000000001</ele><time>2026-04-08T14:55:25.393Z</time></trkpt><trkpt lat="44.322656" lon="11.4249574"><ele>521.2</ele><time>2026-04-08T14:55:26.394Z</time></trkpt><trkpt lat="44.322756" lon="11.4249907"><ele>522.6</ele><time>2026-04-08T14:55:27.4Z</time></trkpt><trkpt lat="44.3228402" lon="11.4250229"><ele>524.0</ele><time>2026-04-08T14:55:28.392Z</time></trkpt><trkpt lat="44.3229073" lon="11.4250796"><ele>524.0</ele><time>2026-04-08T14:55:29.398Z</time></trkpt><trkpt lat="44.3229472" lon="11.4251596"><ele>524.0</ele><time>2026-04-08T14:55:30.393Z</time></trkpt><trkpt lat="44.3229722" lon="11.4252763"><ele>524.0</ele><time>2026-04-08T14:55:31.414Z</time></trkpt><trkpt lat="44.3230059" lon="11.425404"><ele>524.0</ele><time>2026-04-08T14:55:32.4Z</time></trkpt><trkpt lat="44.3230624" lon="11.4255274"><ele>524.0</ele><time>2026-04-08T14:55:33.4Z</time></trkpt><trkpt lat="44.3231331" lon="11.4256445"><ele>523.0</ele><time>2026-04-08T14:55:34.398Z</time></trkpt><trkpt lat="44.3231949" lon="11.4257765"><ele>522.0</ele><time>2026-04-08T14:55:35.399Z</time></trkpt><trkpt lat="44.3232369" lon="11.4259308"><ele>521.0</ele><time>2026-04-08T14:55:36.4Z</time></trkpt><trkpt lat="44.323253" lon="11.4261039"><ele>520.0</ele><time>2026-04-08T14:55:37.394Z</time></trkpt><trkpt lat="44.3232498" lon="11.4262797"><ele>520.6</ele><time>2026-04-08T14:55:38.397Z</time></trkpt><trkpt lat="44.3232243" lon="11.426427"><ele>521.2</ele><time>2026-04-08T14:55:39.397Z</time></trkpt><trkpt lat="44.3231867" lon="11.4265611"><ele>521.8</ele><time>2026-04-08T14:55:40.396Z</time></trkpt><trkpt lat="44.3231257" lon="11.4266893"><ele>522.4</ele><time>2026-04-08T14:55:41.398Z</time></trkpt><trkpt lat="44.3230557" lon="11.4268128"><ele>523.0</ele><time>2026-04-08T14:55:42.394Z</time></trkpt><trkpt lat="44.3229491" lon="11.4269187"><ele>524.3333333333334</ele><time>2026-04-08T14:55:43.394Z</time></trkpt><trkpt lat="44.3228294" lon="11.4270415"><ele>525.6666666666666</ele><time>2026-04-08T14:55:44.397Z</time></trkpt><trkpt lat="44.3226874" lon="11.4271657"><ele>527.0</ele><time>2026-04-08T14:55:45.394Z</time></trkpt><trkpt lat="44.3225539" lon="11.4272741"><ele>523.4</ele><time>2026-04-08T14:55:46.399Z</time></trkpt><trkpt lat="44.3224341" lon="11.427367"><ele>519.8000000000001</ele><time>2026-04-08T14:55:47.391Z</time></trkpt><trkpt lat="44.3223307" lon="11.4274695"><ele>516.2</ele><time>2026-04-08T14:55:48.395Z</time></trkpt><trkpt lat="44.32227" lon="11.4275592"><ele>512.6</ele><time>2026-04-08T14:55:49.392Z</time></trkpt><trkpt lat="44.3222139" lon="11.4276488"><ele>509.0</ele><time>2026-04-08T14:55:50.395Z</time></trkpt><trkpt lat="44.3221554" lon="11.4277452"><ele>507.2</ele><time>2026-04-08T14:55:51.425Z</time></trkpt><trkpt lat="44.3221046" lon="11.4278483"><ele>505.4</ele><time>2026-04-08T14:55:52.399Z</time></trkpt><trkpt lat="44.3220416" lon="11.4279493"><ele>503.6</ele><time>2026-04-08T14:55:53.399Z</time></trkpt><trkpt lat="44.3219581" lon="11.4280674"><ele>501.8</ele><time>2026-04-08T14:55:54.421Z</time></trkpt><trkpt lat="44.3218608" lon="11.4282061"><ele>500.0</ele><time>2026-04-08T14:55:55.399Z</time></trkpt><trkpt lat="44.3217711" lon="11.4283545"><ele>500.0</ele><time>2026-04-08T14:55:56.402Z</time></trkpt><trkpt lat="44.321689" lon="11.4285215"><ele>500.0</ele><time>2026-04-08T14:55:57.398Z</time></trkpt><trkpt lat="44.3216431" lon="11.4287359"><ele>500.0</ele><time>2026-04-08T14:55:58.396Z</time></trkpt><trkpt lat="44.3215895" lon="11.4289813"><ele>506.0</ele><time>2026-04-08T14:55:59.403Z</time></trkpt><trkpt lat="44.3215615" lon="11.4292268"><ele>512.0</ele><time>2026-04-08T14:56:00.397Z</time></trkpt><trkpt lat="44.3215335" lon="11.4294586"><ele>518.0</ele><time>2026-04-08T14:56:01.4Z</time></trkpt><trkpt lat="44.3215332" lon="11.4296523"><ele>521.8</ele><time>2026-04-08T14:56:02.395Z</time></trkpt><trkpt lat="44.3215252" lon="11.4298117"><ele>525.5999999999999</ele><time>2026-04-08T14:56:03.399Z</time></trkpt><trkpt lat="44.321521" lon="11.4299455"><ele>529.4000000000001</ele><time>2026-04-08T14:56:04.4Z</time></trkpt><trkpt lat="44.3215634" lon="11.4300696"><ele>533.2</ele><time>2026-04-08T14:56:05.398Z</time></trkpt><trkpt lat="44.3216222" lon="11.4302097"><ele>537.0</ele><time>2026-04-08T14:56:06.425Z</time></trkpt><trkpt lat="44.3216891" lon="11.4303687"><ele>538.3333333333334</ele><time>2026-04-08T14:56:07.413Z</time></trkpt><trkpt lat="44.321738" lon="11.4305016"><ele>539.6666666666666</ele><time>2026-04-08T14:56:08.423Z</time></trkpt><trkpt lat="44.3217777" lon="11.4306001"><ele>541.0</ele><time>2026-04-08T14:56:09.423Z</time></trkpt><trkpt lat="44.3217997" lon="11.4306998"><ele>542.3333333333333</ele><time>2026-04-08T14:56:10.419Z</time></trkpt><trkpt lat="44.3217925" lon="11.4307987"><ele>543.6666666666666</ele><time>2026-04-08T14:56:11.389Z</time></trkpt><trkpt lat="44.321767" lon="11.4308855"><ele>545.0</ele><time>2026-04-08T14:56:12.396Z</time></trkpt><trkpt lat="44.3217111" lon="11.430937"><ele>545.0</ele><time>2026-04-08T14:56:13.394Z</time></trkpt><trkpt lat="44.3216143" lon="11.430948"><ele>545.0</ele><time>2026-04-08T14:56:14.42Z</time></trkpt><trkpt lat="44.3214882" lon="11.4309368"><ele>545.0</ele><time>2026-04-08T14:56:15.41Z</time></trkpt><trkpt lat="44.3213476" lon="11.4309329"><ele>545.0</ele><time>2026-04-08T14:56:16.394Z</time></trkpt><trkpt lat="44.321201" lon="11.4309593"><ele>544.6666666666666</ele><time>2026-04-08T14:56:17.421Z</time></trkpt><trkpt lat="44.3210718" lon="11.4310275"><ele>544.3333333333334</ele><time>2026-04-08T14:56:18.396Z</time></trkpt><trkpt lat="44.3209436" lon="11.4311278"><ele>544.0</ele><time>2026-04-08T14:56:19.392Z</time></trkpt><trkpt lat="44.3208026" lon="11.4312803"><ele>545.6666666666667</ele><time>2026-04-08T14:56:20.404Z</time></trkpt><trkpt lat="44.3206466" lon="11.4313729"><ele>547.3333333333334</ele><time>2026-04-08T14:56:21.401Z</time></trkpt><trkpt lat="44.3204997" lon="11.4313919"><ele>549.0</ele><time>2026-04-08T14:56:22.399Z</time></trkpt><trkpt lat="44.3203637" lon="11.4314405"><ele>549.0</ele><time>2026-04-08T14:56:23.405Z</time></trkpt><trkpt lat="44.3202326" lon="11.4314797"><ele>549.0</ele><time>2026-04-08T14:56:24.399Z</time></trkpt><trkpt lat="44.3201418" lon="11.4315543"><ele>549.0</ele><time>2026-04-08T14:56:25.401Z</time></trkpt><trkpt lat="44.3200796" lon="11.4316481"><ele>549.0</ele><time>2026-04-08T14:56:26.402Z</time></trkpt><trkpt lat="44.3199947" lon="11.4317503"><ele>549.0</ele><time>2026-04-08T14:56:28.421Z</time></trkpt><trkpt lat="44.3198817" lon="11.431762"><ele>549.0</ele><time>2026-04-08T14:56:30.4Z</time></trkpt><trkpt lat="44.3198178" lon="11.4317711"><ele>549.0</ele><time>2026-04-08T14:56:33.399Z</time></trkpt><trkpt lat="44.3197529" lon="11.4317622"><ele>549.0</ele><time>2026-04-08T14:56:40.411Z</time></trkpt><trkpt lat="44.3196883" lon="11.431741"><ele>549.0</ele><time>2026-04-08T14:56:50.397Z</time></trkpt><trkpt lat="44.3196235" lon="11.4317312"><ele>549.0</ele><time>2026-04-08T14:57:25.415Z</time></trkpt><trkpt lat="44.3195554" lon="11.4317436"><ele>549.0</ele><time>2026-04-08T14:57:28.407Z</time></trkpt><trkpt lat="44.3194898" lon="11.4317332"><ele>549.0</ele><time>2026-04-08T14:57:32.394Z</time></trkpt><trkpt lat="44.3194223" lon="11.4317455"><ele>548.8</ele><time>2026-04-08T14:58:09.391Z</time></trkpt><trkpt lat="44.319353" lon="11.4317561"><ele>548.5999999999999</ele><time>2026-04-08T14:59:00.411Z</time></trkpt><trkpt lat="44.3192421" lon="11.4316886"><ele>548.4</ele><time>2026-04-08T14:59:04.403Z</time></trkpt><trkpt lat="44.3191787" lon="11.4316346"><ele>548.1999999999999</ele><time>2026-04-08T14:59:05.399Z</time></trkpt><trkpt lat="44.3191082" lon="11.4315607"><ele>548.0</ele><time>2026-04-08T14:59:06.409Z</time></trkpt><trkpt lat="44.319017" lon="11.4314686"><ele>548.0</ele><time>2026-04-08T14:59:07.405Z</time></trkpt><trkpt lat="44.3189147" lon="11.4313693"><ele>548.0</ele><time>2026-04-08T14:59:08.407Z</time></trkpt><trkpt lat="44.3188224" lon="11.4312854"><ele>548.0</ele><time>2026-04-08T14:59:09.41Z</time></trkpt><trkpt lat="44.3187447" lon="11.431215"><ele>548.0</ele><time>2026-04-08T14:59:10.411Z</time></trkpt><trkpt lat="44.3186759" lon="11.4311453"><ele>548.0</ele><time>2026-04-08T14:59:11.402Z</time></trkpt><trkpt lat="44.3186331" lon="11.4310663"><ele>548.0</ele><time>2026-04-08T14:59:12.406Z</time></trkpt><trkpt lat="44.3186012" lon="11.4309854"><ele>548.0</ele><time>2026-04-08T14:59:13.401Z</time></trkpt><trkpt lat="44.3185813" lon="11.4308951"><ele>548.0</ele><time>2026-04-08T14:59:14.403Z</time></trkpt><trkpt lat="44.318558" lon="11.430792"><ele>548.0</ele><time>2026-04-08T14:59:15.401Z</time></trkpt><trkpt lat="44.3185442" lon="11.4306756"><ele>548.0</ele><time>2026-04-08T14:59:16.4Z</time></trkpt><trkpt lat="44.3185363" lon="11.4305481"><ele>548.0</ele><time>2026-04-08T14:59:17.402Z</time></trkpt><trkpt lat="44.3185373" lon="11.4304111"><ele>545.25</ele><time>2026-04-08T14:59:18.405Z</time></trkpt><trkpt lat="44.3185509" lon="11.4302445"><ele>542.5</ele><time>2026-04-08T14:59:19.405Z</time></trkpt><trkpt lat="44.3185645" lon="11.4300436"><ele>539.75</ele><time>2026-04-08T14:59:20.411Z</time></trkpt><trkpt lat="44.3185712" lon="11.4298407"><ele>537.0</ele><time>2026-04-08T14:59:21.409Z</time></trkpt><trkpt lat="44.3185851" lon="11.4296188"><ele>537.0</ele><time>2026-04-08T14:59:22.411Z</time></trkpt><trkpt lat="44.3185903" lon="11.429443"><ele>537.0</ele><time>2026-04-08T14:59:23.409Z</time></trkpt><trkpt lat="44.3185647" lon="11.4293033"><ele>537.0</ele><time>2026-04-08T14:59:24.395Z</time></trkpt><trkpt lat="44.3185483" lon="11.4291826"><ele>537.0</ele><time>2026-04-08T14:59:25.407Z</time></trkpt><trkpt lat="44.3184695" lon="11.4291068"><ele>537.0</ele><time>2026-04-08T14:59:26.399Z</time></trkpt><trkpt lat="44.3183764" lon="11.4290447"><ele>537.0</ele><time>2026-04-08T14:59:27.409Z</time></trkpt><trkpt lat="44.3182901" lon="11.4289881"><ele>537.0</ele><time>2026-04-08T14:59:28.41Z</time></trkpt><trkpt lat="44.3182061" lon="11.4289185"><ele>537.0</ele><time>2026-04-08T14:59:29.394Z</time></trkpt><trkpt lat="44.3181338" lon="11.4288341"><ele>537.0</ele><time>2026-04-08T14:59:30.405Z</time></trkpt><trkpt lat="44.3180642" lon="11.428738"><ele>537.0</ele><time>2026-04-08T14:59:31.407Z</time></trkpt><trkpt lat="44.3179907" lon="11.428652"><ele>535.1666666666666</ele><time>2026-04-08T14:59:32.395Z</time></trkpt><trkpt lat="44.3179115" lon="11.4285759"><ele>533.3333333333334</ele><time>2026-04-08T14:59:33.401Z</time></trkpt><trkpt lat="44.3178312" lon="11.4285067"><ele>531.5</ele><time>2026-04-08T14:59:34.399Z</time></trkpt><trkpt lat="44.3177534" lon="11.4284505"><ele>529.6666666666667</ele><time>2026-04-08T14:59:35.397Z</time></trkpt><trkpt lat="44.3176837" lon="11.4284043"><ele>527.8333333333334</ele><time>2026-04-08T14:59:36.403Z</time></trkpt><trkpt lat="44.3176174" lon="11.4283572"><ele>526.0</ele><time>2026-04-08T14:59:37.405Z</time></trkpt><trkpt lat="44.3175496" lon="11.4283203"><ele>526.0</ele><time>2026-04-08T14:59:38.407Z</time></trkpt><trkpt lat="44.3174781" lon="11.428272"><ele>526.0</ele><time>2026-04-08T14:59:39.408Z</time></trkpt><trkpt lat="44.3174087" lon="11.4282184"><ele>526.0</ele><time>2026-04-08T14:59:40.412Z</time></trkpt><trkpt lat="44.3173297" lon="11.4281639"><ele>526.0</ele><time>2026-04-08T14:59:41.415Z</time></trkpt><trkpt lat="44.3172445" lon="11.4281094"><ele>526.0</ele><time>2026-04-08T14:59:42.405Z</time></trkpt><trkpt lat="44.3171601" lon="11.4280391"><ele>526.0</ele><time>2026-04-08T14:59:43.41Z</time></trkpt><trkpt lat="44.3170804" lon="11.4279568"><ele>526.0</ele><time>2026-04-08T14:59:44.412Z</time></trkpt><trkpt lat="44.3170117" lon="11.4278692"><ele>526.0</ele><time>2026-04-08T14:59:45.412Z</time></trkpt><trkpt lat="44.3169487" lon="11.4277711"><ele>526.0</ele><time>2026-04-08T14:59:46.413Z</time></trkpt><trkpt lat="44.3168917" lon="11.4276569"><ele>526.0</ele><time>2026-04-08T14:59:47.411Z</time></trkpt><trkpt lat="44.3168355" lon="11.427549"><ele>526.0</ele><time>2026-04-08T14:59:48.407Z</time></trkpt><trkpt lat="44.3167752" lon="11.4274542"><ele>526.0</ele><time>2026-04-08T14:59:49.405Z</time></trkpt><trkpt lat="44.3167059" lon="11.427373"><ele>526.0</ele><time>2026-04-08T14:59:50.401Z</time></trkpt><trkpt lat="44.3166291" lon="11.4272925"><ele>526.0</ele><time>2026-04-08T14:59:51.407Z</time></trkpt><trkpt lat="44.3165363" lon="11.4272194"><ele>526.0</ele><time>2026-04-08T14:59:52.404Z</time></trkpt><trkpt lat="44.3164437" lon="11.427139"><ele>526.0</ele><time>2026-04-08T14:59:53.407Z</time></trkpt><trkpt lat="44.3163544" lon="11.4270479"><ele>526.4</ele><time>2026-04-08T14:59:54.416Z</time></trkpt><trkpt lat="44.3162762" lon="11.4269592"><ele>526.8</ele><time>2026-04-08T14:59:55.414Z</time></trkpt><trkpt lat="44.3161959" lon="11.4268805"><ele>527.1999999999999</ele><time>2026-04-08T14:59:56.409Z</time></trkpt><trkpt lat="44.3161159" lon="11.4268138"><ele>527.6</ele><time>2026-04-08T14:59:57.425Z</time></trkpt><trkpt lat="44.316042" lon="11.4267416"><ele>528.0</ele><time>2026-04-08T14:59:58.424Z</time></trkpt><trkpt lat="44.3159657" lon="11.4266654"><ele>528.0</ele><time>2026-04-08T14:59:59.414Z</time></trkpt><trkpt lat="44.3158819" lon="11.4265971"><ele>528.0</ele><time>2026-04-08T15:00:00.442Z</time></trkpt><trkpt lat="44.3157929" lon="11.4265485"><ele>528.0</ele><time>2026-04-08T15:00:01.417Z</time></trkpt><trkpt lat="44.3156969" lon="11.4265042"><ele>528.0</ele><time>2026-04-08T15:00:02.415Z</time></trkpt><trkpt lat="44.3156202" lon="11.4264454"><ele>528.0</ele><time>2026-04-08T15:00:03.416Z</time></trkpt><trkpt lat="44.3155729" lon="11.4263859"><ele>528.0</ele><time>2026-04-08T15:00:04.421Z</time></trkpt><trkpt lat="44.3155032" lon="11.4263048"><ele>530.6</ele><time>2026-04-08T15:00:06.409Z</time></trkpt><trkpt lat="44.3154109" lon="11.4262541"><ele>533.1999999999999</ele><time>2026-04-08T15:00:08.434Z</time></trkpt><trkpt lat="44.315305" lon="11.4262422"><ele>535.8</ele><time>2026-04-08T15:00:10.413Z</time></trkpt><trkpt lat="44.3152148" lon="11.4262518"><ele>538.4</ele><time>2026-04-08T15:00:11.425Z</time></trkpt><trkpt lat="44.3151326" lon="11.4262703"><ele>541.0</ele><time>2026-04-08T15:00:12.415Z</time></trkpt><trkpt lat="44.3150578" lon="11.4262866"><ele>541.0</ele><time>2026-04-08T15:00:13.415Z</time></trkpt><trkpt lat="44.3149708" lon="11.4262876"><ele>541.0</ele><time>2026-04-08T15:00:14.415Z</time></trkpt><trkpt lat="44.3148839" lon="11.4262793"><ele>541.0</ele><time>2026-04-08T15:00:15.414Z</time></trkpt><trkpt lat="44.3148024" lon="11.4262674"><ele>541.0</ele><time>2026-04-08T15:00:16.413Z</time></trkpt><trkpt lat="44.3147288" lon="11.4262709"><ele>541.0</ele><time>2026-04-08T15:00:17.407Z</time></trkpt><trkpt lat="44.3146544" lon="11.426282"><ele>541.0</ele><time>2026-04-08T15:00:18.41Z</time></trkpt><trkpt lat="44.3145834" lon="11.4263138"><ele>538.3333333333334</ele><time>2026-04-08T15:00:19.41Z</time></trkpt><trkpt lat="44.3145125" lon="11.4263645"><ele>535.6666666666667</ele><time>2026-04-08T15:00:20.417Z</time></trkpt><trkpt lat="44.3144406" lon="11.4264314"><ele>533.0</ele><time>2026-04-08T15:00:21.404Z</time></trkpt><trkpt lat="44.3143768" lon="11.426494"><ele>530.3333333333334</ele><time>2026-04-08T15:00:22.405Z</time></trkpt><trkpt lat="44.3143087" lon="11.4265571"><ele>527.6666666666666</ele><time>2026-04-08T15:00:23.413Z</time></trkpt><trkpt lat="44.3142278" lon="11.4265966"><ele>525.0</ele><time>2026-04-08T15:00:24.41Z</time></trkpt><trkpt lat="44.3141424" lon="11.4266125"><ele>525.0</ele><time>2026-04-08T15:00:25.401Z</time></trkpt><trkpt lat="44.3140531" lon="11.4266095"><ele>525.0</ele><time>2026-04-08T15:00:26.414Z</time></trkpt><trkpt lat="44.3139696" lon="11.4266182"><ele>525.0</ele><time>2026-04-08T15:00:27.402Z</time></trkpt><trkpt lat="44.3138964" lon="11.426663"><ele>525.0</ele><time>2026-04-08T15:00:28.406Z</time></trkpt><trkpt lat="44.3138363" lon="11.4267193"><ele>525.0</ele><time>2026-04-08T15:00:29.415Z</time></trkpt><trkpt lat="44.3137836" lon="11.4267755"><ele>525.0</ele><time>2026-04-08T15:00:30.401Z</time></trkpt><trkpt lat="44.3137274" lon="11.4268232"><ele>526.1666666666666</ele><time>2026-04-08T15:00:31.401Z</time></trkpt><trkpt lat="44.3136518" lon="11.4268401"><ele>527.3333333333334</ele><time>2026-04-08T15:00:32.41Z</time></trkpt><trkpt lat="44.3135673" lon="11.4268541"><ele>528.5</ele><time>2026-04-08T15:00:33.403Z</time></trkpt><trkpt lat="44.3134948" lon="11.4268904"><ele>529.6666666666667</ele><time>2026-04-08T15:00:34.404Z</time></trkpt><trkpt lat="44.3134357" lon="11.4269305"><ele>530.8333333333334</ele><time>2026-04-08T15:00:35.399Z</time></trkpt><trkpt lat="44.313305" lon="11.4270109"><ele>532.0</ele><time>2026-04-08T15:00:37.404Z</time></trkpt><trkpt lat="44.3132035" lon="11.4270424"><ele>532.0</ele><time>2026-04-08T15:00:38.407Z</time></trkpt><trkpt lat="44.3131001" lon="11.4270467"><ele>532.0</ele><time>2026-04-08T15:00:39.402Z</time></trkpt><trkpt lat="44.3129932" lon="11.4270501"><ele>532.0</ele><time>2026-04-08T15:00:40.412Z</time></trkpt><trkpt lat="44.3128765" lon="11.4270553"><ele>532.0</ele><time>2026-04-08T15:00:41.404Z</time></trkpt><trkpt lat="44.3127559" lon="11.4270835"><ele>532.0</ele><time>2026-04-08T15:00:42.418Z</time></trkpt><trkpt lat="44.3126428" lon="11.4271344"><ele>528.3333333333334</ele><time>2026-04-08T15:00:43.407Z</time></trkpt><trkpt lat="44.3125416" lon="11.4271988"><ele>524.6666666666667</ele><time>2026-04-08T15:00:44.406Z</time></trkpt><trkpt lat="44.3124536" lon="11.4272579"><ele>521.0</ele><time>2026-04-08T15:00:45.409Z</time></trkpt><trkpt lat="44.3123848" lon="11.4273176"><ele>517.3333333333334</ele><time>2026-04-08T15:00:46.406Z</time></trkpt><trkpt lat="44.3123388" lon="11.4273936"><ele>513.6666666666666</ele><time>2026-04-08T15:00:47.401Z</time></trkpt><trkpt lat="44.3123177" lon="11.4274843"><ele>510.0</ele><time>2026-04-08T15:00:48.407Z</time></trkpt><trkpt lat="44.3123002" lon="11.4275704"><ele>510.0</ele><time>2026-04-08T15:00:49.417Z</time></trkpt><trkpt lat="44.3122683" lon="11.4276541"><ele>510.00000000000006</ele><time>2026-04-08T15:00:50.408Z</time></trkpt><trkpt lat="44.3122212" lon="11.4277264"><ele>510.0</ele><time>2026-04-08T15:00:51.413Z</time></trkpt><trkpt lat="44.3121492" lon="11.4277919"><ele>510.0</ele><time>2026-04-08T15:00:53.411Z</time></trkpt><trkpt lat="44.3120873" lon="11.4278461"><ele>510.00000000000006</ele><time>2026-04-08T15:00:57.428Z</time></trkpt><trkpt lat="44.3120233" lon="11.4278563"><ele>510.0</ele><time>2026-04-08T15:01:00.415Z</time></trkpt><trkpt lat="44.3119518" lon="11.4278874"><ele>510.0</ele><time>2026-04-08T15:01:05.435Z</time></trkpt><trkpt lat="44.3120115" lon="11.4278585"><ele>509.3333333333333</ele><time>2026-04-08T15:01:13.426Z</time></trkpt><trkpt lat="44.3120875" lon="11.4278224"><ele>508.66666666666663</ele><time>2026-04-08T15:01:16.423Z</time></trkpt><trkpt lat="44.312167" lon="11.4278227"><ele>508.0</ele><time>2026-04-08T15:01:18.416Z</time></trkpt><trkpt lat="44.3121149" lon="11.4277445"><ele>507.3333333333333</ele><time>2026-04-08T15:01:23.422Z</time></trkpt><trkpt lat="44.312035" lon="11.4277334"><ele>506.66666666666663</ele><time>2026-04-08T15:01:26.418Z</time></trkpt><trkpt lat="44.3119649" lon="11.4277153"><ele>506.0</ele><time>2026-04-08T15:01:28.426Z</time></trkpt><trkpt lat="44.3118776" lon="11.4276931"><ele>506.0</ele><time>2026-04-08T15:01:30.421Z</time></trkpt><trkpt lat="44.3117819" lon="11.4276454"><ele>506.0</ele><time>2026-04-08T15:01:32.425Z</time></trkpt><trkpt lat="44.311666" lon="11.4275865"><ele>506.0</ele><time>2026-04-08T15:01:34.414Z</time></trkpt><trkpt lat="44.311541" lon="11.4275293"><ele>506.0</ele><time>2026-04-08T15:01:36.406Z</time></trkpt><trkpt lat="44.3114787" lon="11.427493"><ele>506.0</ele><time>2026-04-08T15:01:37.444Z</time></trkpt><trkpt lat="44.3114185" lon="11.4274611"><ele>504.66666666666663</ele><time>2026-04-08T15:01:38.417Z</time></trkpt><trkpt lat="44.3113602" lon="11.4274168"><ele>503.3333333333333</ele><time>2026-04-08T15:01:39.448Z</time></trkpt><trkpt lat="44.3112497" lon="11.4273408"><ele>502.0</ele><time>2026-04-08T15:01:41.413Z</time></trkpt><trkpt lat="44.311194" lon="11.4272987"><ele>500.66666666666663</ele><time>2026-04-08T15:01:42.424Z</time></trkpt><trkpt lat="44.3110944" lon="11.4271947"><ele>499.3333333333333</ele><time>2026-04-08T15:01:44.414Z</time></trkpt><trkpt lat="44.3110503" lon="11.4271308"><ele>498.0</ele><time>2026-04-08T15:01:45.414Z</time></trkpt><trkpt lat="44.3110099" lon="11.42705"><ele>498.0</ele><time>2026-04-08T15:01:46.414Z</time></trkpt><trkpt lat="44.3109815" lon="11.4269503"><ele>498.0</ele><time>2026-04-08T15:01:47.424Z</time></trkpt><trkpt lat="44.3109681" lon="11.4268405"><ele>498.0</ele><time>2026-04-08T15:01:48.417Z</time></trkpt><trkpt lat="44.3109588" lon="11.4267292"><ele>498.0</ele><time>2026-04-08T15:01:49.44Z</time></trkpt><trkpt lat="44.3109469" lon="11.4266222"><ele>498.0</ele><time>2026-04-08T15:01:50.424Z</time></trkpt><trkpt lat="44.3109398" lon="11.4265105"><ele>498.0</ele><time>2026-04-08T15:01:51.424Z</time></trkpt><trkpt lat="44.3109384" lon="11.4263886"><ele>500.5</ele><time>2026-04-08T15:01:52.421Z</time></trkpt><trkpt lat="44.3109428" lon="11.426262"><ele>503.0</ele><time>2026-04-08T15:01:53.447Z</time></trkpt><trkpt lat="44.310942" lon="11.4261395"><ele>505.5</ele><time>2026-04-08T15:01:54.423Z</time></trkpt><trkpt lat="44.3109236" lon="11.4260363"><ele>508.0</ele><time>2026-04-08T15:01:55.418Z</time></trkpt><trkpt lat="44.3108859" lon="11.4259325"><ele>510.5</ele><time>2026-04-08T15:01:56.413Z</time></trkpt><trkpt lat="44.3108379" lon="11.4258268"><ele>513.0</ele><time>2026-04-08T15:01:57.409Z</time></trkpt><trkpt lat="44.3107757" lon="11.4257329"><ele>513.0</ele><time>2026-04-08T15:01:58.415Z</time></trkpt><trkpt lat="44.3107076" lon="11.4256418"><ele>513.0</ele><time>2026-04-08T15:01:59.423Z</time></trkpt><trkpt lat="44.3106425" lon="11.4255562"><ele>513.0</ele><time>2026-04-08T15:02:00.421Z</time></trkpt><trkpt lat="44.3105871" lon="11.4254588"><ele>513.0</ele><time>2026-04-08T15:02:01.43Z</time></trkpt><trkpt lat="44.310539" lon="11.4253581"><ele>513.0</ele><time>2026-04-08T15:02:02.419Z</time></trkpt><trkpt lat="44.3104758" lon="11.4252322"><ele>513.4</ele><time>2026-04-08T15:02:03.412Z</time></trkpt><trkpt lat="44.3104071" lon="11.4251278"><ele>513.8</ele><time>2026-04-08T15:02:04.424Z</time></trkpt><trkpt lat="44.3103312" lon="11.4250364"><ele>514.2</ele><time>2026-04-08T15:02:05.42Z</time></trkpt><trkpt lat="44.3102499" lon="11.4249451"><ele>514.6</ele><time>2026-04-08T15:02:06.413Z</time></trkpt><trkpt lat="44.310167" lon="11.4248567"><ele>515.0</ele><time>2026-04-08T15:02:07.422Z</time></trkpt><trkpt lat="44.310079" lon="11.4247722"><ele>515.0</ele><time>2026-04-08T15:02:08.42Z</time></trkpt><trkpt lat="44.3099865" lon="11.4247022"><ele>515.0</ele><time>2026-04-08T15:02:09.412Z</time></trkpt><trkpt lat="44.3098819" lon="11.4246248"><ele>515.0</ele><time>2026-04-08T15:02:10.422Z</time></trkpt><trkpt lat="44.3097843" lon="11.4245439"><ele>515.0</ele><time>2026-04-08T15:02:11.424Z</time></trkpt><trkpt lat="44.3097016" lon="11.424486"><ele>515.0</ele><time>2026-04-08T15:02:12.419Z</time></trkpt><trkpt lat="44.3096418" lon="11.4244392"><ele>515.4</ele><time>2026-04-08T15:02:13.414Z</time></trkpt><trkpt lat="44.3095495" lon="11.4244054"><ele>515.8</ele><time>2026-04-08T15:02:15.414Z</time></trkpt><trkpt lat="44.309465" lon="11.4244715"><ele>516.2</ele><time>2026-04-08T15:02:17.421Z</time></trkpt><trkpt lat="44.3094077" lon="11.4245466"><ele>516.6</ele><time>2026-04-08T15:02:18.423Z</time></trkpt><trkpt lat="44.3093549" lon="11.4246474"><ele>517.0</ele><time>2026-04-08T15:02:19.42Z</time></trkpt><trkpt lat="44.3093021" lon="11.4247622"><ele>514.8000000000001</ele><time>2026-04-08T15:02:20.422Z</time></trkpt><trkpt lat="44.3092348" lon="11.4248912"><ele>512.6</ele><time>2026-04-08T15:02:21.431Z</time></trkpt><trkpt lat="44.3091729" lon="11.42501"><ele>510.40000000000003</ele><time>2026-04-08T15:02:22.425Z</time></trkpt><trkpt lat="44.3091148" lon="11.4251198"><ele>508.20000000000005</ele><time>2026-04-08T15:02:23.427Z</time></trkpt><trkpt lat="44.3090541" lon="11.4252243"><ele>506.0</ele><time>2026-04-08T15:02:24.422Z</time></trkpt><trkpt lat="44.3089896" lon="11.4253357"><ele>506.0</ele><time>2026-04-08T15:02:25.419Z</time></trkpt><trkpt lat="44.3089303" lon="11.4254687"><ele>506.0</ele><time>2026-04-08T15:02:26.427Z</time></trkpt><trkpt lat="44.3088831" lon="11.4256121"><ele>506.0</ele><time>2026-04-08T15:02:27.429Z</time></trkpt><trkpt lat="44.3088381" lon="11.4257434"><ele>506.0</ele><time>2026-04-08T15:02:28.42Z</time></trkpt><trkpt lat="44.30878" lon="11.4258739"><ele>506.0</ele><time>2026-04-08T15:02:29.423Z</time></trkpt><trkpt lat="44.3087083" lon="11.426014"><ele>503.8</ele><time>2026-04-08T15:02:30.428Z</time></trkpt><trkpt lat="44.3086312" lon="11.4261444"><ele>501.6</ele><time>2026-04-08T15:02:31.42Z</time></trkpt><trkpt lat="44.3085606" lon="11.4262605"><ele>499.4</ele><time>2026-04-08T15:02:32.414Z</time></trkpt><trkpt lat="44.3084943" lon="11.4263592"><ele>497.2</ele><time>2026-04-08T15:02:33.413Z</time></trkpt><trkpt lat="44.3084178" lon="11.4264392"><ele>495.0</ele><time>2026-04-08T15:02:34.416Z</time></trkpt><trkpt lat="44.3083286" lon="11.4265228"><ele>495.0</ele><time>2026-04-08T15:02:35.419Z</time></trkpt><trkpt lat="44.3082345" lon="11.4266061"><ele>495.0</ele><time>2026-04-08T15:02:36.412Z</time></trkpt><trkpt lat="44.30814" lon="11.4266851"><ele>495.0</ele><time>2026-04-08T15:02:37.41Z</time></trkpt><trkpt lat="44.3080471" lon="11.4267667"><ele>495.0</ele><time>2026-04-08T15:02:38.414Z</time></trkpt><trkpt lat="44.3079614" lon="11.4268265"><ele>495.0</ele><time>2026-04-08T15:02:39.41Z</time></trkpt><trkpt lat="44.3078681" lon="11.4268857"><ele>494.4</ele><time>2026-04-08T15:02:40.417Z</time></trkpt><trkpt lat="44.3077659" lon="11.4269574"><ele>493.8</ele><time>2026-04-08T15:02:41.406Z</time></trkpt><trkpt lat="44.3076723" lon="11.4270273"><ele>493.20000000000005</ele><time>2026-04-08T15:02:42.418Z</time></trkpt><trkpt lat="44.3075819" lon="11.427089"><ele>492.6</ele><time>2026-04-08T15:02:43.438Z</time></trkpt><trkpt lat="44.3074909" lon="11.4271407"><ele>492.0</ele><time>2026-04-08T15:02:44.415Z</time></trkpt><trkpt lat="44.3074003" lon="11.4271708"><ele>491.6</ele><time>2026-04-08T15:02:45.417Z</time></trkpt><trkpt lat="44.3072953" lon="11.4271872"><ele>491.20000000000005</ele><time>2026-04-08T15:02:46.42Z</time></trkpt><trkpt lat="44.3071864" lon="11.4271847"><ele>490.8</ele><time>2026-04-08T15:02:47.469Z</time></trkpt><trkpt lat="44.3070842" lon="11.4271499"><ele>490.4</ele><time>2026-04-08T15:02:48.421Z</time></trkpt><trkpt lat="44.3069951" lon="11.4271121"><ele>490.0</ele><time>2026-04-08T15:02:49.414Z</time></trkpt><trkpt lat="44.3069078" lon="11.4270933"><ele>490.8571428571429</ele><time>2026-04-08T15:02:50.413Z</time></trkpt><trkpt lat="44.3068276" lon="11.4270963"><ele>491.7142857142857</ele><time>2026-04-08T15:02:51.415Z</time></trkpt><trkpt lat="44.3067529" lon="11.4271108"><ele>492.57142857142856</ele><time>2026-04-08T15:02:52.414Z</time></trkpt><trkpt lat="44.3066825" lon="11.4271268"><ele>493.42857142857144</ele><time>2026-04-08T15:02:53.416Z</time></trkpt><trkpt lat="44.306615" lon="11.4271505"><ele>494.28571428571433</ele><time>2026-04-08T15:02:54.417Z</time></trkpt><trkpt lat="44.3065515" lon="11.4271692"><ele>495.14285714285717</ele><time>2026-04-08T15:02:55.424Z</time></trkpt><trkpt lat="44.3064825" lon="11.4271812"><ele>496.0</ele><time>2026-04-08T15:02:56.426Z</time></trkpt><trkpt lat="44.3064071" lon="11.4271957"><ele>497.6</ele><time>2026-04-08T15:02:57.425Z</time></trkpt><trkpt lat="44.3063164" lon="11.4272078"><ele>499.20000000000005</ele><time>2026-04-08T15:02:58.438Z</time></trkpt><trkpt lat="44.3062181" lon="11.4271882"><ele>500.79999999999995</ele><time>2026-04-08T15:02:59.413Z</time></trkpt><trkpt lat="44.3061268" lon="11.4271415"><ele>502.4</ele><time>2026-04-08T15:03:00.417Z</time></trkpt><trkpt lat="44.3060491" lon="11.4270794"><ele>504.0</ele><time>2026-04-08T15:03:01.413Z</time></trkpt><trkpt lat="44.3059805" lon="11.4269827"><ele>504.2</ele><time>2026-04-08T15:03:02.416Z</time></trkpt><trkpt lat="44.3059117" lon="11.426875"><ele>504.4</ele><time>2026-04-08T15:03:03.41Z</time></trkpt><trkpt lat="44.3058441" lon="11.426783"><ele>504.6</ele><time>2026-04-08T15:03:04.412Z</time></trkpt><trkpt lat="44.3057758" lon="11.4267103"><ele>504.8</ele><time>2026-04-08T15:03:05.42Z</time></trkpt><trkpt lat="44.3056987" lon="11.4266632"><ele>505.0</ele><time>2026-04-08T15:03:06.416Z</time></trkpt><trkpt lat="44.3056151" lon="11.4266365"><ele>506.8</ele><time>2026-04-08T15:03:07.413Z</time></trkpt><trkpt lat="44.3055222" lon="11.426614"><ele>508.6</ele><time>2026-04-08T15:03:08.419Z</time></trkpt><trkpt lat="44.3054153" lon="11.426602"><ele>510.4</ele><time>2026-04-08T15:03:09.421Z</time></trkpt><trkpt lat="44.3053087" lon="11.4265903"><ele>512.2</ele><time>2026-04-08T15:03:10.419Z</time></trkpt><trkpt lat="44.3051982" lon="11.4265773"><ele>514.0</ele><time>2026-04-08T15:03:11.416Z</time></trkpt><trkpt lat="44.3050786" lon="11.4265709"><ele>514.0</ele><time>2026-04-08T15:03:12.409Z</time></trkpt><trkpt lat="44.3049655" lon="11.4265593"><ele>514.0</ele><time>2026-04-08T15:03:13.417Z</time></trkpt><trkpt lat="44.3048519" lon="11.4265408"><ele>514.0</ele><time>2026-04-08T15:03:14.411Z</time></trkpt><trkpt lat="44.3047469" lon="11.426496"><ele>514.0</ele><time>2026-04-08T15:03:15.408Z</time></trkpt><trkpt lat="44.3046617" lon="11.4264279"><ele>514.0</ele><time>2026-04-08T15:03:16.424Z</time></trkpt><trkpt lat="44.3045933" lon="11.4263304"><ele>514.0</ele><time>2026-04-08T15:03:17.422Z</time></trkpt><trkpt lat="44.3045289" lon="11.4262316"><ele>514.0</ele><time>2026-04-08T15:03:18.445Z</time></trkpt><trkpt lat="44.3044641" lon="11.4261572"><ele>514.0</ele><time>2026-04-08T15:03:19.417Z</time></trkpt><trkpt lat="44.304398" lon="11.4261254"><ele>514.0</ele><time>2026-04-08T15:03:20.411Z</time></trkpt><trkpt lat="44.3043332" lon="11.4261161"><ele>514.0</ele><time>2026-04-08T15:03:21.413Z</time></trkpt><trkpt lat="44.3042553" lon="11.426126"><ele>514.0</ele><time>2026-04-08T15:03:22.417Z</time></trkpt><trkpt lat="44.3041656" lon="11.4261239"><ele>514.0</ele><time>2026-04-08T15:03:23.416Z</time></trkpt><trkpt lat="44.3040834" lon="11.4261097"><ele>514.0</ele><time>2026-04-08T15:03:24.415Z</time></trkpt><trkpt lat="44.3040136" lon="11.426085"><ele>514.0</ele><time>2026-04-08T15:03:25.419Z</time></trkpt><trkpt lat="44.3039051" lon="11.4260354"><ele>514.0</ele><time>2026-04-08T15:03:27.436Z</time></trkpt><trkpt lat="44.3038085" lon="11.4260075"><ele>514.0</ele><time>2026-04-08T15:03:29.438Z</time></trkpt><trkpt lat="44.3037147" lon="11.4260053"><ele>512.0</ele><time>2026-04-08T15:03:31.416Z</time></trkpt><trkpt lat="44.3036196" lon="11.4260217"><ele>510.0</ele><time>2026-04-08T15:03:33.409Z</time></trkpt><trkpt lat="44.3035198" lon="11.4260406"><ele>508.0</ele><time>2026-04-08T15:03:35.415Z</time></trkpt><trkpt lat="44.303429" lon="11.4260729"><ele>506.0</ele><time>2026-04-08T15:03:37.457Z</time></trkpt><trkpt lat="44.3033434" lon="11.4260972"><ele>504.0</ele><time>2026-04-08T15:03:39.423Z</time></trkpt><trkpt lat="44.3032643" lon="11.4260828"><ele>504.0</ele><time>2026-04-08T15:03:41.413Z</time></trkpt><trkpt lat="44.3031924" lon="11.4260242"><ele>504.0</ele><time>2026-04-08T15:03:43.422Z</time></trkpt><trkpt lat="44.3031144" lon="11.425942"><ele>504.0</ele><time>2026-04-08T15:03:45.42Z</time></trkpt><trkpt lat="44.3030336" lon="11.4258324"><ele>504.0</ele><time>2026-04-08T15:03:47.419Z</time></trkpt><trkpt lat="44.3029268" lon="11.4257275"><ele>504.0</ele><time>2026-04-08T15:03:49.411Z</time></trkpt><trkpt lat="44.3028638" lon="11.4256859"><ele>501.6666666666667</ele><time>2026-04-08T15:03:50.419Z</time></trkpt><trkpt lat="44.3028053" lon="11.4256366"><ele>499.33333333333337</ele><time>2026-04-08T15:03:51.417Z</time></trkpt><trkpt lat="44.3027558" lon="11.4255803"><ele>497.0</ele><time>2026-04-08T15:03:52.421Z</time></trkpt><trkpt lat="44.3026462" lon="11.425492"><ele>494.6666666666667</ele><time>2026-04-08T15:03:54.441Z</time></trkpt><trkpt lat="44.302576" lon="11.42547"><ele>492.33333333333337</ele><time>2026-04-08T15:03:55.416Z</time></trkpt><trkpt lat="44.3025038" lon="11.4254368"><ele>490.0</ele><time>2026-04-08T15:03:56.413Z</time></trkpt><trkpt lat="44.3024339" lon="11.4253876"><ele>490.00000000000006</ele><time>2026-04-08T15:03:57.416Z</time></trkpt><trkpt lat="44.3023611" lon="11.4253499"><ele>490.0</ele><time>2026-04-08T15:03:58.442Z</time></trkpt><trkpt lat="44.3022841" lon="11.4253273"><ele>490.0</ele><time>2026-04-08T15:03:59.421Z</time></trkpt><trkpt lat="44.3022027" lon="11.4253044"><ele>490.0</ele><time>2026-04-08T15:04:00.414Z</time></trkpt><trkpt lat="44.3021206" lon="11.4252802"><ele>490.00000000000006</ele><time>2026-04-08T15:04:01.413Z</time></trkpt><trkpt lat="44.3020313" lon="11.4252505"><ele>490.0</ele><time>2026-04-08T15:04:02.414Z</time></trkpt><trkpt lat="44.3019462" lon="11.4252238"><ele>489.1666666666667</ele><time>2026-04-08T15:04:03.426Z</time></trkpt><trkpt lat="44.3018682" lon="11.4252014"><ele>488.33333333333337</ele><time>2026-04-08T15:04:04.415Z</time></trkpt><trkpt lat="44.301795" lon="11.4251839"><ele>487.5</ele><time>2026-04-08T15:04:05.42Z</time></trkpt><trkpt lat="44.3017144" lon="11.4251576"><ele>486.66666666666663</ele><time>2026-04-08T15:04:06.42Z</time></trkpt><trkpt lat="44.3016326" lon="11.4251195"><ele>485.8333333333333</ele><time>2026-04-08T15:04:07.421Z</time></trkpt><trkpt lat="44.3015564" lon="11.425092"><ele>485.0</ele><time>2026-04-08T15:04:08.424Z</time></trkpt><trkpt lat="44.3014868" lon="11.4250802"><ele>484.99999999999994</ele><time>2026-04-08T15:04:09.416Z</time></trkpt><trkpt lat="44.3014202" lon="11.4250853"><ele>485.0</ele><time>2026-04-08T15:04:10.413Z</time></trkpt><trkpt lat="44.3013566" lon="11.4251096"><ele>485.0</ele><time>2026-04-08T15:04:11.419Z</time></trkpt><trkpt lat="44.3012573" lon="11.4251764"><ele>485.0</ele><time>2026-04-08T15:04:13.421Z</time></trkpt><trkpt lat="44.3011823" lon="11.4252342"><ele>484.99999999999994</ele><time>2026-04-08T15:04:15.414Z</time></trkpt><trkpt lat="44.3011022" lon="11.4252737"><ele>485.0</ele><time>2026-04-08T15:04:18.422Z</time></trkpt><trkpt lat="44.3010386" lon="11.4252475"><ele>481.8</ele><time>2026-04-08T15:04:20.412Z</time></trkpt><trkpt lat="44.3009653" lon="11.4252287"><ele>478.6</ele><time>2026-04-08T15:04:22.406Z</time></trkpt><trkpt lat="44.3008728" lon="11.4252086"><ele>475.4</ele><time>2026-04-08T15:04:24.417Z</time></trkpt><trkpt lat="44.3007426" lon="11.4251911"><ele>472.2</ele><time>2026-04-08T15:04:26.418Z</time></trkpt><trkpt lat="44.300662" lon="11.4251829"><ele>469.0</ele><time>2026-04-08T15:04:27.414Z</time></trkpt><trkpt lat="44.3005638" lon="11.425172"><ele>466.4</ele><time>2026-04-08T15:04:28.419Z</time></trkpt><trkpt lat="44.3004493" lon="11.4251534"><ele>463.79999999999995</ele><time>2026-04-08T15:04:29.417Z</time></trkpt><trkpt lat="44.3003403" lon="11.4251313"><ele>461.20000000000005</ele><time>2026-04-08T15:04:30.418Z</time></trkpt><trkpt lat="44.3002346" lon="11.4250907"><ele>458.6</ele><time>2026-04-08T15:04:31.451Z</time></trkpt><trkpt lat="44.3001326" lon="11.4250381"><ele>456.0</ele><time>2026-04-08T15:04:32.441Z</time></trkpt><trkpt lat="44.3000258" lon="11.4249933"><ele>456.0</ele><time>2026-04-08T15:04:33.41Z</time></trkpt><trkpt lat="44.2999121" lon="11.4249313"><ele>456.0</ele><time>2026-04-08T15:04:34.423Z</time></trkpt><trkpt lat="44.2998127" lon="11.4248852"><ele>456.0</ele><time>2026-04-08T15:04:35.413Z</time></trkpt><trkpt lat="44.2997241" lon="11.4248354"><ele>456.0</ele><time>2026-04-08T15:04:36.414Z</time></trkpt><trkpt lat="44.2996372" lon="11.424791"><ele>456.0</ele><time>2026-04-08T15:04:37.411Z</time></trkpt><trkpt lat="44.2995355" lon="11.4247629"><ele>457.6</ele><time>2026-04-08T15:04:38.417Z</time></trkpt><trkpt lat="44.2994347" lon="11.4247468"><ele>459.20000000000005</ele><time>2026-04-08T15:04:39.412Z</time></trkpt><trkpt lat="44.2993469" lon="11.4247378"><ele>460.79999999999995</ele><time>2026-04-08T15:04:40.418Z</time></trkpt><trkpt lat="44.2992559" lon="11.4247363"><ele>462.4</ele><time>2026-04-08T15:04:41.415Z</time></trkpt><trkpt lat="44.2991663" lon="11.4247354"><ele>464.0</ele><time>2026-04-08T15:04:42.411Z</time></trkpt><trkpt lat="44.299086" lon="11.4247491"><ele>463.99999999999994</ele><time>2026-04-08T15:04:43.412Z</time></trkpt><trkpt lat="44.2990087" lon="11.4247777"><ele>464.0</ele><time>2026-04-08T15:04:44.402Z</time></trkpt><trkpt lat="44.2989299" lon="11.4247921"><ele>464.0</ele><time>2026-04-08T15:04:45.41Z</time></trkpt><trkpt lat="44.2988429" lon="11.4247917"><ele>464.0</ele><time>2026-04-08T15:04:46.404Z</time></trkpt><trkpt lat="44.2987529" lon="11.4247827"><ele>463.99999999999994</ele><time>2026-04-08T15:04:47.49Z</time></trkpt><trkpt lat="44.2986518" lon="11.4247637"><ele>464.0</ele><time>2026-04-08T15:04:48.432Z</time></trkpt><trkpt lat="44.2985447" lon="11.4247454"><ele>464.0</ele><time>2026-04-08T15:04:49.41Z</time></trkpt><trkpt lat="44.2984409" lon="11.4247269"><ele>464.0</ele><time>2026-04-08T15:04:50.409Z</time></trkpt><trkpt lat="44.2983509" lon="11.4247195"><ele>464.0</ele><time>2026-04-08T15:04:51.41Z</time></trkpt><trkpt lat="44.2982623" lon="11.4247146"><ele>464.0</ele><time>2026-04-08T15:04:52.438Z</time></trkpt><trkpt lat="44.2981692" lon="11.4247107"><ele>464.0</ele><time>2026-04-08T15:04:53.404Z</time></trkpt><trkpt lat="44.2980828" lon="11.4247095"><ele>465.4285714285715</ele><time>2026-04-08T15:04:54.406Z</time></trkpt><trkpt lat="44.2980087" lon="11.4247093"><ele>466.8571428571429</ele><time>2026-04-08T15:04:55.416Z</time></trkpt><trkpt lat="44.2979419" lon="11.4247135"><ele>468.2857142857143</ele><time>2026-04-08T15:04:56.403Z</time></trkpt><trkpt lat="44.2978774" lon="11.4247336"><ele>469.7142857142857</ele><time>2026-04-08T15:04:57.41Z</time></trkpt><trkpt lat="44.297811" lon="11.4247732"><ele>471.1428571428571</ele><time>2026-04-08T15:04:58.43Z</time></trkpt><trkpt lat="44.2977437" lon="11.4248297"><ele>472.5714285714285</ele><time>2026-04-08T15:04:59.452Z</time></trkpt><trkpt lat="44.2976784" lon="11.4248934"><ele>473.99999999999994</ele><time>2026-04-08T15:05:00.427Z</time></trkpt><trkpt lat="44.2976167" lon="11.4249505"><ele>474.0</ele><time>2026-04-08T15:05:01.573Z</time></trkpt><trkpt lat="44.2974928" lon="11.4250326"><ele>474.0</ele><time>2026-04-08T15:05:03.436Z</time></trkpt><trkpt lat="44.2973866" lon="11.4250492"><ele>474.0</ele><time>2026-04-08T15:05:05.45Z</time></trkpt><trkpt lat="44.2972784" lon="11.4249851"><ele>474.0</ele><time>2026-04-08T15:05:07.43Z</time></trkpt><trkpt lat="44.2972015" lon="11.4249709"><ele>474.0</ele><time>2026-04-08T15:05:09.406Z</time></trkpt><trkpt lat="44.2971124" lon="11.4250195"><ele>473.1666666666667</ele><time>2026-04-08T15:05:11.399Z</time></trkpt><trkpt lat="44.2970701" lon="11.4251315"><ele>472.33333333333337</ele><time>2026-04-08T15:05:13.424Z</time></trkpt><trkpt lat="44.2970734" lon="11.4252953"><ele>471.5</ele><time>2026-04-08T15:05:15.413Z</time></trkpt><trkpt lat="44.2970624" lon="11.4253979"><ele>470.6666666666667</ele><time>2026-04-08T15:05:16.407Z</time></trkpt><trkpt lat="44.2970285" lon="11.4254954"><ele>469.83333333333337</ele><time>2026-04-08T15:05:17.41Z</time></trkpt><trkpt lat="44.2969778" lon="11.4255945"><ele>469.0</ele><time>2026-04-08T15:05:18.414Z</time></trkpt><trkpt lat="44.2969207" lon="11.4256821"><ele>470.83333333333337</ele><time>2026-04-08T15:05:19.415Z</time></trkpt><trkpt lat="44.2968705" lon="11.4257449"><ele>472.6666666666667</ele><time>2026-04-08T15:05:20.411Z</time></trkpt><trkpt lat="44.2968152" lon="11.4257972"><ele>474.5</ele><time>2026-04-08T15:05:21.406Z</time></trkpt><trkpt lat="44.2967475" lon="11.4258371"><ele>476.33333333333337</ele><time>2026-04-08T15:05:22.414Z</time></trkpt><trkpt lat="44.296657" lon="11.4258678"><ele>478.1666666666667</ele><time>2026-04-08T15:05:23.408Z</time></trkpt><trkpt lat="44.2965479" lon="11.4259011"><ele>480.0</ele><time>2026-04-08T15:05:24.41Z</time></trkpt><trkpt lat="44.2964365" lon="11.4259356"><ele>481.0</ele><time>2026-04-08T15:05:25.41Z</time></trkpt><trkpt lat="44.2963261" lon="11.4259544"><ele>482.0</ele><time>2026-04-08T15:05:26.414Z</time></trkpt><trkpt lat="44.2962235" lon="11.4259662"><ele>483.0</ele><time>2026-04-08T15:05:27.411Z</time></trkpt><trkpt lat="44.2961367" lon="11.4259691"><ele>484.0</ele><time>2026-04-08T15:05:28.407Z</time></trkpt><trkpt lat="44.2960539" lon="11.4259699"><ele>485.0</ele><time>2026-04-08T15:05:29.409Z</time></trkpt><trkpt lat="44.2959658" lon="11.4259717"><ele>484.99999999999994</ele><time>2026-04-08T15:05:30.408Z</time></trkpt><trkpt lat="44.2958719" lon="11.4259857"><ele>485.0</ele><time>2026-04-08T15:05:31.408Z</time></trkpt><trkpt lat="44.2957773" lon="11.4260083"><ele>485.0</ele><time>2026-04-08T15:05:32.412Z</time></trkpt><trkpt lat="44.2956938" lon="11.4260332"><ele>485.0</ele><time>2026-04-08T15:05:33.406Z</time></trkpt><trkpt lat="44.2956204" lon="11.4260639"><ele>484.99999999999994</ele><time>2026-04-08T15:05:34.406Z</time></trkpt><trkpt lat="44.2955392" lon="11.4260953"><ele>485.0</ele><time>2026-04-08T15:05:35.411Z</time></trkpt><trkpt lat="44.2954502" lon="11.4261341"><ele>486.3333333333333</ele><time>2026-04-08T15:05:36.41Z</time></trkpt><trkpt lat="44.2953676" lon="11.4261604"><ele>487.66666666666663</ele><time>2026-04-08T15:05:37.404Z</time></trkpt><trkpt lat="44.2952914" lon="11.4261751"><ele>489.0</ele><time>2026-04-08T15:05:38.406Z</time></trkpt><trkpt lat="44.2952052" lon="11.4261785"><ele>490.33333333333337</ele><time>2026-04-08T15:05:39.401Z</time></trkpt><trkpt lat="44.295125" lon="11.4261687"><ele>491.6666666666667</ele><time>2026-04-08T15:05:40.414Z</time></trkpt><trkpt lat="44.2950476" lon="11.4261577"><ele>493.0</ele><time>2026-04-08T15:05:41.41Z</time></trkpt><trkpt lat="44.2949726" lon="11.4261532"><ele>493.00000000000006</ele><time>2026-04-08T15:05:42.432Z</time></trkpt><trkpt lat="44.2948936" lon="11.4261694"><ele>493.0</ele><time>2026-04-08T15:05:43.434Z</time></trkpt><trkpt lat="44.294819" lon="11.4261875"><ele>493.0</ele><time>2026-04-08T15:05:44.411Z</time></trkpt><trkpt lat="44.2947404" lon="11.426231"><ele>493.0</ele><time>2026-04-08T15:05:45.409Z</time></trkpt><trkpt lat="44.294664" lon="11.4262499"><ele>493.00000000000006</ele><time>2026-04-08T15:05:46.41Z</time></trkpt><trkpt lat="44.2945917" lon="11.426262"><ele>493.0</ele><time>2026-04-08T15:05:47.411Z</time></trkpt><trkpt lat="44.2945236" lon="11.4262607"><ele>494.4</ele><time>2026-04-08T15:05:48.413Z</time></trkpt><trkpt lat="44.2944295" lon="11.426302"><ele>495.79999999999995</ele><time>2026-04-08T15:05:50.402Z</time></trkpt><trkpt lat="44.2943718" lon="11.426451"><ele>497.2</ele><time>2026-04-08T15:05:52.405Z</time></trkpt><trkpt lat="44.2943522" lon="11.4265624"><ele>498.6</ele><time>2026-04-08T15:05:53.412Z</time></trkpt><trkpt lat="44.2943333" lon="11.4266766"><ele>500.0</ele><time>2026-04-08T15:05:54.408Z</time></trkpt><trkpt lat="44.2943068" lon="11.4267898"><ele>499.99999999999994</ele><time>2026-04-08T15:05:55.402Z</time></trkpt><trkpt lat="44.2942792" lon="11.4269148"><ele>500.0</ele><time>2026-04-08T15:05:56.408Z</time></trkpt><trkpt lat="44.2942408" lon="11.4270418"><ele>500.0</ele><time>2026-04-08T15:05:57.415Z</time></trkpt><trkpt lat="44.2942079" lon="11.4271645"><ele>500.0</ele><time>2026-04-08T15:05:58.408Z</time></trkpt><trkpt lat="44.2941858" lon="11.4272778"><ele>499.99999999999994</ele><time>2026-04-08T15:05:59.408Z</time></trkpt><trkpt lat="44.294165" lon="11.4273784"><ele>500.0</ele><time>2026-04-08T15:06:00.409Z</time></trkpt><trkpt lat="44.294129" lon="11.4274754"><ele>499.66666666666663</ele><time>2026-04-08T15:06:01.432Z</time></trkpt><trkpt lat="44.2940777" lon="11.427561"><ele>499.3333333333333</ele><time>2026-04-08T15:06:02.407Z</time></trkpt><trkpt lat="44.2940151" lon="11.4276073"><ele>499.0</ele><time>2026-04-08T15:06:03.401Z</time></trkpt><trkpt lat="44.2939557" lon="11.427656"><ele>498.66666666666663</ele><time>2026-04-08T15:06:04.414Z</time></trkpt><trkpt lat="44.2938887" lon="11.427709"><ele>498.3333333333333</ele><time>2026-04-08T15:06:05.413Z</time></trkpt><trkpt lat="44.2938127" lon="11.4277621"><ele>498.0</ele><time>2026-04-08T15:06:06.415Z</time></trkpt><trkpt lat="44.2937291" lon="11.4278127"><ele>497.2</ele><time>2026-04-08T15:06:07.408Z</time></trkpt><trkpt lat="44.2936365" lon="11.427859"><ele>496.4</ele><time>2026-04-08T15:06:08.41Z</time></trkpt><trkpt lat="44.2935325" lon="11.4279158"><ele>495.59999999999997</ele><time>2026-04-08T15:06:09.412Z</time></trkpt><trkpt lat="44.2934393" lon="11.4279733"><ele>494.79999999999995</ele><time>2026-04-08T15:06:10.406Z</time></trkpt><trkpt lat="44.2933464" lon="11.4280334"><ele>494.0</ele><time>2026-04-08T15:06:11.41Z</time></trkpt><trkpt lat="44.2932563" lon="11.4280911"><ele>493.99999999999994</ele><time>2026-04-08T15:06:12.434Z</time></trkpt><trkpt lat="44.2931771" lon="11.4281483"><ele>494.0</ele><time>2026-04-08T15:06:13.41Z</time></trkpt><trkpt lat="44.2931053" lon="11.4281869"><ele>494.0</ele><time>2026-04-08T15:06:14.412Z</time></trkpt><trkpt lat="44.2929951" lon="11.4282018"><ele>494.0</ele><time>2026-04-08T15:06:16.409Z</time></trkpt><trkpt lat="44.2929" lon="11.4281943"><ele>493.99999999999994</ele><time>2026-04-08T15:06:18.434Z</time></trkpt><trkpt lat="44.2928343" lon="11.4281847"><ele>494.0</ele><time>2026-04-08T15:06:20.405Z</time></trkpt><trkpt lat="44.2927624" lon="11.4281841"><ele>494.99999999999994</ele><time>2026-04-08T15:06:22.41Z</time></trkpt><trkpt lat="44.2926678" lon="11.4281545"><ele>496.0</ele><time>2026-04-08T15:06:24.41Z</time></trkpt><trkpt lat="44.2925868" lon="11.4281142"><ele>497.0</ele><time>2026-04-08T15:06:26.398Z</time></trkpt><trkpt lat="44.2925243" lon="11.4280614"><ele>498.0</ele><time>2026-04-08T15:06:42.406Z</time></trkpt><trkpt lat="44.2924264" lon="11.4280274"><ele>498.99999999999994</ele><time>2026-04-08T15:06:44.406Z</time></trkpt><trkpt lat="44.292358" lon="11.4280043"><ele>500.0</ele><time>2026-04-08T15:06:45.409Z</time></trkpt><trkpt lat="44.292278" lon="11.4279691"><ele>498.16666666666663</ele><time>2026-04-08T15:06:46.41Z</time></trkpt><trkpt lat="44.2922036" lon="11.4279257"><ele>496.3333333333333</ele><time>2026-04-08T15:06:47.407Z</time></trkpt><trkpt lat="44.29214" lon="11.4278761"><ele>494.5</ele><time>2026-04-08T15:06:48.411Z</time></trkpt><trkpt lat="44.2920824" lon="11.427807"><ele>492.66666666666663</ele><time>2026-04-08T15:06:49.403Z</time></trkpt><trkpt lat="44.292032" lon="11.4277157"><ele>490.8333333333333</ele><time>2026-04-08T15:06:50.4Z</time></trkpt><trkpt lat="44.2919901" lon="11.4276076"><ele>489.0</ele><time>2026-04-08T15:06:51.408Z</time></trkpt><trkpt lat="44.2919424" lon="11.4274998"><ele>489.0</ele><time>2026-04-08T15:06:52.39Z</time></trkpt><trkpt lat="44.291894" lon="11.4273928"><ele>489.0</ele><time>2026-04-08T15:06:53.489Z</time></trkpt><trkpt lat="44.2918346" lon="11.4273344"><ele>489.0</ele><time>2026-04-08T15:06:54.425Z</time></trkpt><trkpt lat="44.2917599" lon="11.4272873"><ele>489.0</ele><time>2026-04-08T15:06:55.403Z</time></trkpt><trkpt lat="44.2916938" lon="11.4272441"><ele>489.0</ele><time>2026-04-08T15:06:56.412Z</time></trkpt><trkpt lat="44.2916279" lon="11.4271995"><ele>489.0</ele><time>2026-04-08T15:06:57.42Z</time></trkpt><trkpt lat="44.2915592" lon="11.4271821"><ele>489.0</ele><time>2026-04-08T15:06:58.4Z</time></trkpt><trkpt lat="44.2914775" lon="11.427184"><ele>489.0</ele><time>2026-04-08T15:06:59.413Z</time></trkpt><trkpt lat="44.2913944" lon="11.4271823"><ele>489.0</ele><time>2026-04-08T15:07:00.404Z</time></trkpt><trkpt lat="44.2913151" lon="11.427186"><ele>489.0</ele><time>2026-04-08T15:07:01.401Z</time></trkpt><trkpt lat="44.2912465" lon="11.4272048"><ele>489.0</ele><time>2026-04-08T15:07:02.407Z</time></trkpt><trkpt lat="44.2911789" lon="11.427253"><ele>489.0</ele><time>2026-04-08T15:07:03.405Z</time></trkpt><trkpt lat="44.2911226" lon="11.4273175"><ele>489.5</ele><time>2026-04-08T15:07:04.401Z</time></trkpt><trkpt lat="44.2910689" lon="11.4273921"><ele>490.0</ele><time>2026-04-08T15:07:05.404Z</time></trkpt><trkpt lat="44.2910171" lon="11.4274733"><ele>490.5</ele><time>2026-04-08T15:07:06.404Z</time></trkpt><trkpt lat="44.2909654" lon="11.4275451"><ele>491.0</ele><time>2026-04-08T15:07:07.407Z</time></trkpt><trkpt lat="44.2909056" lon="11.4276183"><ele>491.5</ele><time>2026-04-08T15:07:08.406Z</time></trkpt><trkpt lat="44.2908424" lon="11.4276757"><ele>492.0</ele><time>2026-04-08T15:07:09.411Z</time></trkpt><trkpt lat="44.290727" lon="11.4277187"><ele>492.0</ele><time>2026-04-08T15:07:11.403Z</time></trkpt><trkpt lat="44.2906222" lon="11.4276636"><ele>492.00000000000006</ele><time>2026-04-08T15:07:13.398Z</time></trkpt><trkpt lat="44.2905174" lon="11.4275931"><ele>492.00000000000006</ele><time>2026-04-08T15:07:15.402Z</time></trkpt><trkpt lat="44.2903975" lon="11.4275174"><ele>492.0</ele><time>2026-04-08T15:07:17.444Z</time></trkpt><trkpt lat="44.2903222" lon="11.4274949"><ele>492.0</ele><time>2026-04-08T15:07:18.4Z</time></trkpt><trkpt lat="44.2902394" lon="11.4274896"><ele>493.3333333333333</ele><time>2026-04-08T15:07:19.395Z</time></trkpt><trkpt lat="44.2901596" lon="11.4275268"><ele>494.66666666666663</ele><time>2026-04-08T15:07:20.399Z</time></trkpt><trkpt lat="44.2901011" lon="11.4275993"><ele>496.0</ele><time>2026-04-08T15:07:21.405Z</time></trkpt><trkpt lat="44.290069" lon="11.4276901"><ele>497.3333333333333</ele><time>2026-04-08T15:07:22.399Z</time></trkpt><trkpt lat="44.2900137" lon="11.4277701"><ele>498.66666666666663</ele><time>2026-04-08T15:07:23.395Z</time></trkpt><trkpt lat="44.289959" lon="11.4278608"><ele>500.0</ele><time>2026-04-08T15:07:24.402Z</time></trkpt><trkpt lat="44.2899016" lon="11.4279261"><ele>499.99999999999994</ele><time>2026-04-08T15:07:25.405Z</time></trkpt><trkpt lat="44.2898369" lon="11.4279748"><ele>500.0</ele><time>2026-04-08T15:07:26.394Z</time></trkpt><trkpt lat="44.2897616" lon="11.428015"><ele>500.0</ele><time>2026-04-08T15:07:27.396Z</time></trkpt><trkpt lat="44.2896897" lon="11.4280256"><ele>500.0</ele><time>2026-04-08T15:07:28.398Z</time></trkpt><trkpt lat="44.2895655" lon="11.4280825"><ele>499.99999999999994</ele><time>2026-04-08T15:07:30.404Z</time></trkpt><trkpt lat="44.2894872" lon="11.4281077"><ele>500.0</ele><time>2026-04-08T15:07:31.399Z</time></trkpt><trkpt lat="44.2894147" lon="11.4281493"><ele>498.8</ele><time>2026-04-08T15:07:32.407Z</time></trkpt><trkpt lat="44.2893037" lon="11.4281646"><ele>497.6</ele><time>2026-04-08T15:07:34.406Z</time></trkpt><trkpt lat="44.2891783" lon="11.4281292"><ele>496.4</ele><time>2026-04-08T15:07:36.404Z</time></trkpt><trkpt lat="44.2891053" lon="11.4280829"><ele>495.2</ele><time>2026-04-08T15:07:37.395Z</time></trkpt><trkpt lat="44.2890351" lon="11.4280403"><ele>494.0</ele><time>2026-04-08T15:07:38.395Z</time></trkpt><trkpt lat="44.2889761" lon="11.428007"><ele>493.79999999999995</ele><time>2026-04-08T15:07:39.406Z</time></trkpt><trkpt lat="44.2888827" lon="11.4279326"><ele>493.59999999999997</ele><time>2026-04-08T15:07:41.408Z</time></trkpt><trkpt lat="44.288802" lon="11.4278994"><ele>493.4</ele><time>2026-04-08T15:07:43.405Z</time></trkpt><trkpt lat="44.2887233" lon="11.4278256"><ele>493.2</ele><time>2026-04-08T15:07:45.407Z</time></trkpt><trkpt lat="44.2886915" lon="11.4276638"><ele>493.0</ele><time>2026-04-08T15:07:47.408Z</time></trkpt><trkpt lat="44.2886708" lon="11.4275017"><ele>493.0</ele><time>2026-04-08T15:07:49.399Z</time></trkpt><trkpt lat="44.2886294" lon="11.4273617"><ele>492.99999999999994</ele><time>2026-04-08T15:07:51.408Z</time></trkpt><trkpt lat="44.2885715" lon="11.4272111"><ele>492.99999999999994</ele><time>2026-04-08T15:07:53.407Z</time></trkpt><trkpt lat="44.2885319" lon="11.4271104"><ele>493.0</ele><time>2026-04-08T15:07:54.405Z</time></trkpt><trkpt lat="44.2884801" lon="11.4270299"><ele>493.0</ele><time>2026-04-08T15:07:55.393Z</time></trkpt><trkpt lat="44.2884319" lon="11.4269694"><ele>494.83333333333337</ele><time>2026-04-08T15:07:56.399Z</time></trkpt><trkpt lat="44.2883688" lon="11.4269224"><ele>496.6666666666667</ele><time>2026-04-08T15:07:57.4Z</time></trkpt><trkpt lat="44.2883041" lon="11.4268541"><ele>498.5</ele><time>2026-04-08T15:07:58.395Z</time></trkpt><trkpt lat="44.2882472" lon="11.4267961"><ele>500.33333333333337</ele><time>2026-04-08T15:07:59.399Z</time></trkpt><trkpt lat="44.288179" lon="11.4267561"><ele>502.1666666666667</ele><time>2026-04-08T15:08:00.395Z</time></trkpt><trkpt lat="44.2880978" lon="11.4267243"><ele>504.0</ele><time>2026-04-08T15:08:01.4Z</time></trkpt><trkpt lat="44.2880097" lon="11.426704"><ele>504.2</ele><time>2026-04-08T15:08:02.392Z</time></trkpt><trkpt lat="44.2879071" lon="11.4267003"><ele>504.4</ele><time>2026-04-08T15:08:03.393Z</time></trkpt><trkpt lat="44.2878083" lon="11.4266803"><ele>504.6</ele><time>2026-04-08T15:08:04.398Z</time></trkpt><trkpt lat="44.2876997" lon="11.4266763"><ele>504.8</ele><time>2026-04-08T15:08:05.395Z</time></trkpt><trkpt lat="44.2875995" lon="11.4266514"><ele>505.0</ele><time>2026-04-08T15:08:06.398Z</time></trkpt><trkpt lat="44.2875058" lon="11.4266542"><ele>505.00000000000006</ele><time>2026-04-08T15:08:07.396Z</time></trkpt><trkpt lat="44.2874196" lon="11.4267032"><ele>505.0</ele><time>2026-04-08T15:08:08.396Z</time></trkpt><trkpt lat="44.2873009" lon="11.4267753"><ele>505.0</ele><time>2026-04-08T15:08:10.395Z</time></trkpt><trkpt lat="44.2872382" lon="11.4267986"><ele>505.0</ele><time>2026-04-08T15:08:11.4Z</time></trkpt><trkpt lat="44.2871651" lon="11.4268059"><ele>505.00000000000006</ele><time>2026-04-08T15:08:12.397Z</time></trkpt><trkpt lat="44.2870855" lon="11.4267919"><ele>505.0</ele><time>2026-04-08T15:08:13.4Z</time></trkpt><trkpt lat="44.2870149" lon="11.4267736"><ele>503.83333333333337</ele><time>2026-04-08T15:08:14.397Z</time></trkpt><trkpt lat="44.2869422" lon="11.4267451"><ele>502.6666666666667</ele><time>2026-04-08T15:08:15.39Z</time></trkpt><trkpt lat="44.2868755" lon="11.4267037"><ele>501.5</ele><time>2026-04-08T15:08:16.402Z</time></trkpt><trkpt lat="44.2868208" lon="11.4266264"><ele>500.33333333333337</ele><time>2026-04-08T15:08:17.401Z</time></trkpt><trkpt lat="44.2867716" lon="11.4265485"><ele>499.1666666666667</ele><time>2026-04-08T15:08:18.405Z</time></trkpt><trkpt lat="44.2867304" lon="11.4264719"><ele>498.0</ele><time>2026-04-08T15:08:19.403Z</time></trkpt><trkpt lat="44.2866803" lon="11.4263759"><ele>500.79999999999995</ele><time>2026-04-08T15:08:20.406Z</time></trkpt><trkpt lat="44.2866219" lon="11.4262719"><ele>503.59999999999997</ele><time>2026-04-08T15:08:21.403Z</time></trkpt><trkpt lat="44.286555" lon="11.4261764"><ele>506.40000000000003</ele><time>2026-04-08T15:08:22.429Z</time></trkpt><trkpt lat="44.2864827" lon="11.4261056"><ele>509.20000000000005</ele><time>2026-04-08T15:08:23.483Z</time></trkpt><trkpt lat="44.2864021" lon="11.4260623"><ele>512.0</ele><time>2026-04-08T15:08:24.443Z</time></trkpt><trkpt lat="44.2863254" lon="11.4260102"><ele>512.0</ele><time>2026-04-08T15:08:25.441Z</time></trkpt><trkpt lat="44.2862355" lon="11.4259732"><ele>512.0</ele><time>2026-04-08T15:08:26.404Z</time></trkpt><trkpt lat="44.2861353" lon="11.4259333"><ele>512.0</ele><time>2026-04-08T15:08:27.401Z</time></trkpt><trkpt lat="44.286048" lon="11.4259764"><ele>512.0</ele><time>2026-04-08T15:08:28.4Z</time></trkpt><trkpt lat="44.2859523" lon="11.4260018"><ele>512.0</ele><time>2026-04-08T15:08:29.406Z</time></trkpt><trkpt lat="44.2858549" lon="11.4260149"><ele>512.0</ele><time>2026-04-08T15:08:30.4Z</time></trkpt><trkpt lat="44.2857578" lon="11.4260124"><ele>512.0</ele><time>2026-04-08T15:08:31.403Z</time></trkpt><trkpt lat="44.2856539" lon="11.4259905"><ele>512.0</ele><time>2026-04-08T15:08:32.425Z</time></trkpt><trkpt lat="44.2855503" lon="11.4259689"><ele>512.0</ele><time>2026-04-08T15:08:33.427Z</time></trkpt><trkpt lat="44.2854667" lon="11.4259475"><ele>512.0</ele><time>2026-04-08T15:08:34.436Z</time></trkpt><trkpt lat="44.2854007" lon="11.4259314"><ele>512.1666666666666</ele><time>2026-04-08T15:08:35.437Z</time></trkpt><trkpt lat="44.2853409" lon="11.425898"><ele>512.3333333333333</ele><time>2026-04-08T15:08:36.413Z</time></trkpt><trkpt lat="44.2852727" lon="11.425862"><ele>512.5</ele><time>2026-04-08T15:08:37.413Z</time></trkpt><trkpt lat="44.2852069" lon="11.4258317"><ele>512.6666666666666</ele><time>2026-04-08T15:08:38.414Z</time></trkpt><trkpt lat="44.2850888" lon="11.4258328"><ele>512.8333333333334</ele><time>2026-04-08T15:08:40.41Z</time></trkpt><trkpt lat="44.2850262" lon="11.4258791"><ele>513.0</ele><time>2026-04-08T15:08:41.404Z</time></trkpt><trkpt lat="44.2849677" lon="11.4259571"><ele>513.0</ele><time>2026-04-08T15:08:42.402Z</time></trkpt><trkpt lat="44.2849112" lon="11.4260573"><ele>513.0</ele><time>2026-04-08T15:08:43.405Z</time></trkpt><trkpt lat="44.2848608" lon="11.4261468"><ele>513.0</ele><time>2026-04-08T15:08:44.402Z</time></trkpt><trkpt lat="44.284804" lon="11.4262163"><ele>513.0</ele><time>2026-04-08T15:08:45.4Z</time></trkpt><trkpt lat="44.2847455" lon="11.4262621"><ele>513.0</ele><time>2026-04-08T15:08:46.424Z</time></trkpt><trkpt lat="44.2846276" lon="11.4262882"><ele>513.0</ele><time>2026-04-08T15:08:48.406Z</time></trkpt><trkpt lat="44.284536" lon="11.4262635"><ele>514.8333333333334</ele><time>2026-04-08T15:08:50.413Z</time></trkpt><trkpt lat="44.2844844" lon="11.4261905"><ele>516.6666666666666</ele><time>2026-04-08T15:08:52.426Z</time></trkpt><trkpt lat="44.2844336" lon="11.4261137"><ele>518.5</ele><time>2026-04-08T15:09:01.407Z</time></trkpt><trkpt lat="44.2844453" lon="11.4259898"><ele>520.3333333333333</ele><time>2026-04-08T15:09:03.41Z</time></trkpt><trkpt lat="44.2845035" lon="11.4258665"><ele>522.1666666666666</ele><time>2026-04-08T15:09:05.406Z</time></trkpt><trkpt lat="44.284543" lon="11.425795"><ele>524.0</ele><time>2026-04-08T15:09:06.413Z</time></trkpt><trkpt lat="44.2845842" lon="11.4257165"><ele>524.0</ele><time>2026-04-08T15:09:07.407Z</time></trkpt><trkpt lat="44.2846308" lon="11.4256198"><ele>524.0</ele><time>2026-04-08T15:09:08.412Z</time></trkpt><trkpt lat="44.2846799" lon="11.4255164"><ele>524.0</ele><time>2026-04-08T15:09:09.408Z</time></trkpt><trkpt lat="44.2847236" lon="11.4254225"><ele>524.0</ele><time>2026-04-08T15:09:10.407Z</time></trkpt><trkpt lat="44.2847688" lon="11.4253252"><ele>524.0</ele><time>2026-04-08T15:09:11.413Z</time></trkpt><trkpt lat="44.2848248" lon="11.4252416"><ele>524.0</ele><time>2026-04-08T15:09:12.407Z</time></trkpt><trkpt lat="44.2848816" lon="11.4251557"><ele>524.1666666666666</ele><time>2026-04-08T15:09:13.406Z</time></trkpt><trkpt lat="44.2849563" lon="11.4250852"><ele>524.3333333333333</ele><time>2026-04-08T15:09:14.406Z</time></trkpt><trkpt lat="44.28504" lon="11.4250326"><ele>524.5</ele><time>2026-04-08T15:09:15.408Z</time></trkpt><trkpt lat="44.2851186" lon="11.4249857"><ele>524.6666666666666</ele><time>2026-04-08T15:09:16.407Z</time></trkpt><trkpt lat="44.2851963" lon="11.4249415"><ele>524.8333333333334</ele><time>2026-04-08T15:09:17.418Z</time></trkpt><trkpt lat="44.2852747" lon="11.4249001"><ele>525.0</ele><time>2026-04-08T15:09:18.416Z</time></trkpt><trkpt lat="44.2853429" lon="11.4248739"><ele>525.0</ele><time>2026-04-08T15:09:19.41Z</time></trkpt><trkpt lat="44.2854095" lon="11.4248518"><ele>525.0</ele><time>2026-04-08T15:09:20.435Z</time></trkpt><trkpt lat="44.2854927" lon="11.4248369"><ele>525.0</ele><time>2026-04-08T15:09:21.424Z</time></trkpt><trkpt lat="44.2855857" lon="11.4248257"><ele>525.0</ele><time>2026-04-08T15:09:22.405Z</time></trkpt><trkpt lat="44.2856789" lon="11.4248232"><ele>525.0</ele><time>2026-04-08T15:09:23.412Z</time></trkpt><trkpt lat="44.2857628" lon="11.4248289"><ele>525.0</ele><time>2026-04-08T15:09:24.412Z</time></trkpt><trkpt lat="44.2858386" lon="11.4248353"><ele>525.3333333333334</ele><time>2026-04-08T15:09:25.412Z</time></trkpt><trkpt lat="44.2859129" lon="11.424826"><ele>525.6666666666666</ele><time>2026-04-08T15:09:26.413Z</time></trkpt><trkpt lat="44.2859746" lon="11.4247949"><ele>526.0</ele><time>2026-04-08T15:09:27.409Z</time></trkpt><trkpt lat="44.2860705" lon="11.4247009"><ele>526.3333333333333</ele><time>2026-04-08T15:09:29.412Z</time></trkpt><trkpt lat="44.2861268" lon="11.4246382"><ele>526.6666666666666</ele><time>2026-04-08T15:09:30.413Z</time></trkpt><trkpt lat="44.2861775" lon="11.4245741"><ele>527.0</ele><time>2026-04-08T15:09:31.411Z</time></trkpt><trkpt lat="44.286259" lon="11.4244598"><ele>527.3333333333333</ele><time>2026-04-08T15:09:33.413Z</time></trkpt><trkpt lat="44.2862983" lon="11.4243707"><ele>527.6666666666666</ele><time>2026-04-08T15:09:35.408Z</time></trkpt><trkpt lat="44.2862433" lon="11.4243233"><ele>528.0</ele><time>2026-04-08T15:09:45.403Z</time></trkpt><trkpt lat="44.286167" lon="11.4243509"><ele>528.3333333333334</ele><time>2026-04-08T15:09:47.413Z</time></trkpt><trkpt lat="44.286073" lon="11.4244062"><ele>528.6666666666667</ele><time>2026-04-08T15:09:53.409Z</time></trkpt><trkpt lat="44.2860082" lon="11.4244507"><ele>529.0</ele><time>2026-04-08T15:09:54.408Z</time></trkpt><trkpt lat="44.2859413" lon="11.4244927"><ele>529.0</ele><time>2026-04-08T15:09:55.411Z</time></trkpt><trkpt lat="44.2858643" lon="11.4245232"><ele>529.0</ele><time>2026-04-08T15:09:56.408Z</time></trkpt><trkpt lat="44.2857708" lon="11.4245433"><ele>529.0</ele><time>2026-04-08T15:09:57.4Z</time></trkpt><trkpt lat="44.2856581" lon="11.4245346"><ele>529.0</ele><time>2026-04-08T15:09:58.411Z</time></trkpt><trkpt lat="44.2855211" lon="11.4245069"><ele>529.0</ele><time>2026-04-08T15:09:59.41Z</time></trkpt><trkpt lat="44.2853824" lon="11.424483"><ele>528.3333333333334</ele><time>2026-04-08T15:10:00.408Z</time></trkpt><trkpt lat="44.2852294" lon="11.4244659"><ele>527.6666666666666</ele><time>2026-04-08T15:10:01.405Z</time></trkpt><trkpt lat="44.2850464" lon="11.4244473"><ele>527.0</ele><time>2026-04-08T15:10:02.4Z</time></trkpt><trkpt lat="44.284871" lon="11.424451"><ele>527.0</ele><time>2026-04-08T15:10:03.408Z</time></trkpt><trkpt lat="44.2847249" lon="11.4244552"><ele>527.0</ele><time>2026-04-08T15:10:04.41Z</time></trkpt><trkpt lat="44.284603" lon="11.4244699"><ele>527.0</ele><time>2026-04-08T15:10:05.409Z</time></trkpt><trkpt lat="44.2845025" lon="11.4244971"><ele>527.0</ele><time>2026-04-08T15:10:06.407Z</time></trkpt><trkpt lat="44.2844093" lon="11.4245331"><ele>527.0</ele><time>2026-04-08T15:10:07.41Z</time></trkpt><trkpt lat="44.2843212" lon="11.4245466"><ele>527.0</ele><time>2026-04-08T15:10:08.409Z</time></trkpt><trkpt lat="44.2842202" lon="11.4245565"><ele>527.0</ele><time>2026-04-08T15:10:09.412Z</time></trkpt><trkpt lat="44.2841056" lon="11.4245869"><ele>527.0</ele><time>2026-04-08T15:10:10.412Z</time></trkpt><trkpt lat="44.283983" lon="11.4246272"><ele>527.0</ele><time>2026-04-08T15:10:11.407Z</time></trkpt><trkpt lat="44.2838524" lon="11.4246746"><ele>533.0</ele><time>2026-04-08T15:10:12.404Z</time></trkpt><trkpt lat="44.2836991" lon="11.4247162"><ele>539.0</ele><time>2026-04-08T15:10:13.411Z</time></trkpt><trkpt lat="44.2835344" lon="11.4247621"><ele>545.0</ele><time>2026-04-08T15:10:14.413Z</time></trkpt><trkpt lat="44.2834079" lon="11.4247927"><ele>545.0</ele><time>2026-04-08T15:10:15.415Z</time></trkpt><trkpt lat="44.2833013" lon="11.4247979"><ele>545.0</ele><time>2026-04-08T15:10:16.406Z</time></trkpt><trkpt lat="44.283195" lon="11.424807"><ele>545.0</ele><time>2026-04-08T15:10:17.408Z</time></trkpt><trkpt lat="44.2830751" lon="11.4248064"><ele>545.0</ele><time>2026-04-08T15:10:18.412Z</time></trkpt><trkpt lat="44.2829757" lon="11.4248089"><ele>545.0</ele><time>2026-04-08T15:10:19.414Z</time></trkpt><trkpt lat="44.2828695" lon="11.4248075"><ele>544.2</ele><time>2026-04-08T15:10:20.418Z</time></trkpt><trkpt lat="44.2827599" lon="11.4248235"><ele>543.4</ele><time>2026-04-08T15:10:21.402Z</time></trkpt><trkpt lat="44.2826609" lon="11.4248299"><ele>542.6</ele><time>2026-04-08T15:10:22.406Z</time></trkpt><trkpt lat="44.282568" lon="11.4247892"><ele>541.8</ele><time>2026-04-08T15:10:23.404Z</time></trkpt><trkpt lat="44.282485" lon="11.424691"><ele>541.0</ele><time>2026-04-08T15:10:24.408Z</time></trkpt><trkpt lat="44.2823995" lon="11.4246094"><ele>541.0</ele><time>2026-04-08T15:10:25.397Z</time></trkpt><trkpt lat="44.2822981" lon="11.4245609"><ele>541.0</ele><time>2026-04-08T15:10:26.397Z</time></trkpt><trkpt lat="44.2821776" lon="11.4245374"><ele>541.0</ele><time>2026-04-08T15:10:27.407Z</time></trkpt><trkpt lat="44.2820416" lon="11.4245409"><ele>541.0</ele><time>2026-04-08T15:10:28.396Z</time></trkpt><trkpt lat="44.2819157" lon="11.4245445"><ele>544.25</ele><time>2026-04-08T15:10:29.488Z</time></trkpt><trkpt lat="44.2817955" lon="11.4244973"><ele>547.5</ele><time>2026-04-08T15:10:30.399Z</time></trkpt><trkpt lat="44.281686" lon="11.4244301"><ele>550.75</ele><time>2026-04-08T15:10:31.397Z</time></trkpt><trkpt lat="44.2816088" lon="11.424297"><ele>554.0</ele><time>2026-04-08T15:10:32.438Z</time></trkpt><trkpt lat="44.2815327" lon="11.4241814"><ele>554.0</ele><time>2026-04-08T15:10:33.411Z</time></trkpt><trkpt lat="44.2814381" lon="11.4240696"><ele>554.0</ele><time>2026-04-08T15:10:34.408Z</time></trkpt><trkpt lat="44.2813429" lon="11.4239719"><ele>554.0</ele><time>2026-04-08T15:10:35.408Z</time></trkpt><trkpt lat="44.2812549" lon="11.4238922"><ele>554.0</ele><time>2026-04-08T15:10:36.429Z</time></trkpt><trkpt lat="44.2811655" lon="11.42384"><ele>554.0</ele><time>2026-04-08T15:10:37.43Z</time></trkpt><trkpt lat="44.2810703" lon="11.4238197"><ele>555.75</ele><time>2026-04-08T15:10:38.426Z</time></trkpt><trkpt lat="44.2809677" lon="11.4238521"><ele>557.5</ele><time>2026-04-08T15:10:39.41Z</time></trkpt><trkpt lat="44.2808577" lon="11.4239257"><ele>559.25</ele><time>2026-04-08T15:10:40.406Z</time></trkpt><trkpt lat="44.2807426" lon="11.4240003"><ele>561.0</ele><time>2026-04-08T15:10:41.4Z</time></trkpt><trkpt lat="44.280629" lon="11.424065"><ele>561.25</ele><time>2026-04-08T15:10:42.407Z</time></trkpt><trkpt lat="44.2804974" lon="11.4240949"><ele>561.5</ele><time>2026-04-08T15:10:43.407Z</time></trkpt><trkpt lat="44.280347" lon="11.4241169"><ele>561.75</ele><time>2026-04-08T15:10:44.404Z</time></trkpt><trkpt lat="44.2801932" lon="11.4241491"><ele>562.0</ele><time>2026-04-08T15:10:45.406Z</time></trkpt><trkpt lat="44.280023" lon="11.4241645"><ele>562.0</ele><time>2026-04-08T15:10:46.402Z</time></trkpt><trkpt lat="44.2799128" lon="11.4242194"><ele>562.0</ele><time>2026-04-08T15:10:47.41Z</time></trkpt><trkpt lat="44.2798208" lon="11.4242656"><ele>562.0</ele><time>2026-04-08T15:10:48.409Z</time></trkpt><trkpt lat="44.2797339" lon="11.4242863"><ele>562.0</ele><time>2026-04-08T15:10:49.403Z</time></trkpt><trkpt lat="44.2796341" lon="11.4242583"><ele>562.0</ele><time>2026-04-08T15:10:50.406Z</time></trkpt><trkpt lat="44.2795441" lon="11.4242399"><ele>563.0</ele><time>2026-04-08T15:10:51.407Z</time></trkpt><trkpt lat="44.27944" lon="11.4241791"><ele>564.0</ele><time>2026-04-08T15:10:52.4Z</time></trkpt><trkpt lat="44.2793439" lon="11.4241409"><ele>565.0</ele><time>2026-04-08T15:10:53.403Z</time></trkpt><trkpt lat="44.2792547" lon="11.424104"><ele>566.0</ele><time>2026-04-08T15:10:54.405Z</time></trkpt><trkpt lat="44.279148" lon="11.4240736"><ele>567.0</ele><time>2026-04-08T15:10:55.403Z</time></trkpt><trkpt lat="44.2790303" lon="11.4240612"><ele>568.25</ele><time>2026-04-08T15:10:56.403Z</time></trkpt><trkpt lat="44.2789109" lon="11.4240624"><ele>569.5</ele><time>2026-04-08T15:10:57.406Z</time></trkpt><trkpt lat="44.2787854" lon="11.424043"><ele>570.75</ele><time>2026-04-08T15:10:58.404Z</time></trkpt><trkpt lat="44.2786745" lon="11.4239721"><ele>572.0</ele><time>2026-04-08T15:10:59.41Z</time></trkpt><trkpt lat="44.27859" lon="11.4238867"><ele>571.6666666666666</ele><time>2026-04-08T15:11:00.413Z</time></trkpt><trkpt lat="44.2785325" lon="11.4237939"><ele>571.3333333333333</ele><time>2026-04-08T15:11:01.404Z</time></trkpt><trkpt lat="44.2784933" lon="11.4237001"><ele>571.0</ele><time>2026-04-08T15:11:02.402Z</time></trkpt><trkpt lat="44.2784612" lon="11.423603"><ele>570.6666666666666</ele><time>2026-04-08T15:11:03.408Z</time></trkpt><trkpt lat="44.2784176" lon="11.4235381"><ele>570.3333333333334</ele><time>2026-04-08T15:11:04.399Z</time></trkpt><trkpt lat="44.2783667" lon="11.4234716"><ele>570.0</ele><time>2026-04-08T15:11:05.412Z</time></trkpt><trkpt lat="44.2782891" lon="11.4233957"><ele>570.0</ele><time>2026-04-08T15:11:06.403Z</time></trkpt><trkpt lat="44.2781766" lon="11.4233284"><ele>570.0</ele><time>2026-04-08T15:11:07.425Z</time></trkpt><trkpt lat="44.2780445" lon="11.4232679"><ele>570.0</ele><time>2026-04-08T15:11:08.401Z</time></trkpt><trkpt lat="44.2779171" lon="11.423227"><ele>570.0</ele><time>2026-04-08T15:11:09.401Z</time></trkpt><trkpt lat="44.277797" lon="11.4231865"><ele>571.25</ele><time>2026-04-08T15:11:10.403Z</time></trkpt><trkpt lat="44.2776735" lon="11.4231525"><ele>572.5</ele><time>2026-04-08T15:11:11.404Z</time></trkpt><trkpt lat="44.2775598" lon="11.4231124"><ele>573.75</ele><time>2026-04-08T15:11:12.404Z</time></trkpt><trkpt lat="44.2774363" lon="11.4230746"><ele>575.0</ele><time>2026-04-08T15:11:13.401Z</time></trkpt><trkpt lat="44.2772816" lon="11.4230422"><ele>574.25</ele><time>2026-04-08T15:11:14.401Z</time></trkpt><trkpt lat="44.2771362" lon="11.4230207"><ele>573.5</ele><time>2026-04-08T15:11:15.404Z</time></trkpt><trkpt lat="44.2769934" lon="11.4230327"><ele>572.75</ele><time>2026-04-08T15:11:16.41Z</time></trkpt><trkpt lat="44.2768892" lon="11.4230197"><ele>572.0</ele><time>2026-04-08T15:11:17.407Z</time></trkpt><trkpt lat="44.2767705" lon="11.4230004"><ele>572.0</ele><time>2026-04-08T15:11:18.4Z</time></trkpt><trkpt lat="44.2766857" lon="11.4229981"><ele>572.0</ele><time>2026-04-08T15:11:19.403Z</time></trkpt><trkpt lat="44.2765773" lon="11.4229408"><ele>572.0</ele><time>2026-04-08T15:11:20.407Z</time></trkpt><trkpt lat="44.2764626" lon="11.4228521"><ele>572.0</ele><time>2026-04-08T15:11:21.407Z</time></trkpt><trkpt lat="44.2763635" lon="11.4227067"><ele>572.5</ele><time>2026-04-08T15:11:22.408Z</time></trkpt><trkpt lat="44.2762428" lon="11.422604"><ele>573.0</ele><time>2026-04-08T15:11:23.409Z</time></trkpt><trkpt lat="44.2761187" lon="11.4224889"><ele>573.5</ele><time>2026-04-08T15:11:24.411Z</time></trkpt><trkpt lat="44.2760078" lon="11.4223794"><ele>574.0</ele><time>2026-04-08T15:11:25.407Z</time></trkpt><trkpt lat="44.2759106" lon="11.4223169"><ele>574.0</ele><time>2026-04-08T15:11:26.407Z</time></trkpt><trkpt lat="44.2758102" lon="11.4222378"><ele>574.0</ele><time>2026-04-08T15:11:27.408Z</time></trkpt><trkpt lat="44.275717" lon="11.4221238"><ele>574.0</ele><time>2026-04-08T15:11:28.409Z</time></trkpt><trkpt lat="44.2756348" lon="11.4219886"><ele>574.0</ele><time>2026-04-08T15:11:29.423Z</time></trkpt><trkpt lat="44.2755899" lon="11.421851"><ele>576.2</ele><time>2026-04-08T15:11:30.431Z</time></trkpt><trkpt lat="44.2755389" lon="11.4217521"><ele>578.4</ele><time>2026-04-08T15:11:31.41Z</time></trkpt><trkpt lat="44.2754633" lon="11.4216519"><ele>580.6</ele><time>2026-04-08T15:11:32.429Z</time></trkpt><trkpt lat="44.2753894" lon="11.4215986"><ele>582.8</ele><time>2026-04-08T15:11:33.401Z</time></trkpt><trkpt lat="44.2753142" lon="11.4215489"><ele>585.0</ele><time>2026-04-08T15:11:34.408Z</time></trkpt><trkpt lat="44.2751941" lon="11.4215556"><ele>585.0</ele><time>2026-04-08T15:11:35.405Z</time></trkpt><trkpt lat="44.2750563" lon="11.4216046"><ele>585.0</ele><time>2026-04-08T15:11:36.406Z</time></trkpt><trkpt lat="44.2749014" lon="11.4216607"><ele>585.0</ele><time>2026-04-08T15:11:37.403Z</time></trkpt><trkpt lat="44.2747489" lon="11.4216837"><ele>585.25</ele><time>2026-04-08T15:11:38.398Z</time></trkpt><trkpt lat="44.2746046" lon="11.4217277"><ele>585.5</ele><time>2026-04-08T15:11:39.408Z</time></trkpt><trkpt lat="44.2744677" lon="11.4217845"><ele>585.75</ele><time>2026-04-08T15:11:40.415Z</time></trkpt><trkpt lat="44.2743285" lon="11.4218829"><ele>586.0</ele><time>2026-04-08T15:11:41.408Z</time></trkpt><trkpt lat="44.2741841" lon="11.4219787"><ele>586.0</ele><time>2026-04-08T15:11:42.396Z</time></trkpt><trkpt lat="44.2740329" lon="11.4221075"><ele>586.0</ele><time>2026-04-08T15:11:43.412Z</time></trkpt><trkpt lat="44.2739145" lon="11.4221841"><ele>586.0</ele><time>2026-04-08T15:11:44.403Z</time></trkpt><trkpt lat="44.2737852" lon="11.4222025"><ele>586.0</ele><time>2026-04-08T15:11:45.399Z</time></trkpt><trkpt lat="44.2736918" lon="11.4221701"><ele>585.25</ele><time>2026-04-08T15:11:46.407Z</time></trkpt><trkpt lat="44.2735603" lon="11.4220724"><ele>584.5</ele><time>2026-04-08T15:11:47.404Z</time></trkpt><trkpt lat="44.2734329" lon="11.4220328"><ele>583.75</ele><time>2026-04-08T15:11:48.397Z</time></trkpt><trkpt lat="44.2732936" lon="11.4220301"><ele>583.0</ele><time>2026-04-08T15:11:49.401Z</time></trkpt><trkpt lat="44.2731409" lon="11.4220407"><ele>583.0</ele><time>2026-04-08T15:11:50.403Z</time></trkpt><trkpt lat="44.2729574" lon="11.4220674"><ele>583.0</ele><time>2026-04-08T15:11:51.406Z</time></trkpt><trkpt lat="44.2727851" lon="11.4220615"><ele>583.0</ele><time>2026-04-08T15:11:52.406Z</time></trkpt><trkpt lat="44.2726221" lon="11.4220528"><ele>583.0</ele><time>2026-04-08T15:11:53.4Z</time></trkpt><trkpt lat="44.2724304" lon="11.4220601"><ele>583.0</ele><time>2026-04-08T15:11:54.403Z</time></trkpt><trkpt lat="44.2722448" lon="11.4220855"><ele>583.0</ele><time>2026-04-08T15:11:55.399Z</time></trkpt><trkpt lat="44.2720693" lon="11.4221202"><ele>586.0</ele><time>2026-04-08T15:11:56.407Z</time></trkpt><trkpt lat="44.2718899" lon="11.4221643"><ele>589.0</ele><time>2026-04-08T15:11:57.398Z</time></trkpt><trkpt lat="44.271731" lon="11.4221993"><ele>592.0</ele><time>2026-04-08T15:11:58.41Z</time></trkpt><trkpt lat="44.2715755" lon="11.4222277"><ele>591.3333333333334</ele><time>2026-04-08T15:11:59.406Z</time></trkpt><trkpt lat="44.2714258" lon="11.4222349"><ele>590.6666666666666</ele><time>2026-04-08T15:12:00.404Z</time></trkpt><trkpt lat="44.271264" lon="11.4222401"><ele>590.0</ele><time>2026-04-08T15:12:01.405Z</time></trkpt><trkpt lat="44.2710934" lon="11.4222294"><ele>590.0</ele><time>2026-04-08T15:12:02.407Z</time></trkpt><trkpt lat="44.2709508" lon="11.4222243"><ele>590.0</ele><time>2026-04-08T15:12:03.408Z</time></trkpt><trkpt lat="44.2708212" lon="11.4222276"><ele>590.0</ele><time>2026-04-08T15:12:04.403Z</time></trkpt><trkpt lat="44.270677" lon="11.422232"><ele>590.0</ele><time>2026-04-08T15:12:05.406Z</time></trkpt><trkpt lat="44.27055" lon="11.4222379"><ele>591.75</ele><time>2026-04-08T15:12:06.404Z</time></trkpt><trkpt lat="44.2704258" lon="11.4222746"><ele>593.5</ele><time>2026-04-08T15:12:07.404Z</time></trkpt><trkpt lat="44.2703054" lon="11.4223116"><ele>595.25</ele><time>2026-04-08T15:12:08.404Z</time></trkpt><trkpt lat="44.2701967" lon="11.4223646"><ele>597.0</ele><time>2026-04-08T15:12:09.401Z</time></trkpt><trkpt lat="44.2700957" lon="11.4224301"><ele>597.0</ele><time>2026-04-08T15:12:10.405Z</time></trkpt><trkpt lat="44.2699959" lon="11.4224984"><ele>597.0</ele><time>2026-04-08T15:12:11.411Z</time></trkpt><trkpt lat="44.2698969" lon="11.4225532"><ele>597.0</ele><time>2026-04-08T15:12:12.405Z</time></trkpt><trkpt lat="44.2698062" lon="11.4225974"><ele>597.0</ele><time>2026-04-08T15:12:13.408Z</time></trkpt><trkpt lat="44.269726" lon="11.4226463"><ele>597.0</ele><time>2026-04-08T15:12:14.411Z</time></trkpt><trkpt lat="44.2696569" lon="11.4227187"><ele>597.6666666666666</ele><time>2026-04-08T15:12:15.401Z</time></trkpt><trkpt lat="44.2696038" lon="11.4228145"><ele>598.3333333333334</ele><time>2026-04-08T15:12:16.411Z</time></trkpt><trkpt lat="44.2695705" lon="11.4229085"><ele>599.0</ele><time>2026-04-08T15:12:17.403Z</time></trkpt><trkpt lat="44.2695057" lon="11.4230635"><ele>599.6666666666667</ele><time>2026-04-08T15:12:19.403Z</time></trkpt><trkpt lat="44.269456" lon="11.4231408"><ele>600.3333333333334</ele><time>2026-04-08T15:12:20.41Z</time></trkpt><trkpt lat="44.2693815" lon="11.4231628"><ele>601.0</ele><time>2026-04-08T15:12:21.404Z</time></trkpt><trkpt lat="44.2692775" lon="11.423154"><ele>599.25</ele><time>2026-04-08T15:12:22.394Z</time></trkpt><trkpt lat="44.2691802" lon="11.4231413"><ele>597.5</ele><time>2026-04-08T15:12:23.394Z</time></trkpt><trkpt lat="44.2690499" lon="11.4231297"><ele>595.75</ele><time>2026-04-08T15:12:24.398Z</time></trkpt><trkpt lat="44.2689016" lon="11.4230732"><ele>594.0</ele><time>2026-04-08T15:12:25.402Z</time></trkpt><trkpt lat="44.2687089" lon="11.4230127"><ele>594.0</ele><time>2026-04-08T15:12:26.4Z</time></trkpt><trkpt lat="44.2685161" lon="11.422985"><ele>594.0</ele><time>2026-04-08T15:12:27.395Z</time></trkpt><trkpt lat="44.2683439" lon="11.422959"><ele>594.0</ele><time>2026-04-08T15:12:28.392Z</time></trkpt><trkpt lat="44.2681872" lon="11.4229567"><ele>595.6666666666666</ele><time>2026-04-08T15:12:29.389Z</time></trkpt><trkpt lat="44.2680368" lon="11.4229739"><ele>597.3333333333333</ele><time>2026-04-08T15:12:30.399Z</time></trkpt><trkpt lat="44.2678886" lon="11.4230094"><ele>599.0</ele><time>2026-04-08T15:12:31.397Z</time></trkpt><trkpt lat="44.2677377" lon="11.4230605"><ele>599.0</ele><time>2026-04-08T15:12:32.401Z</time></trkpt><trkpt lat="44.2675707" lon="11.4230767"><ele>599.0</ele><time>2026-04-08T15:12:33.399Z</time></trkpt><trkpt lat="44.2674256" lon="11.4231022"><ele>599.0</ele><time>2026-04-08T15:12:34.42Z</time></trkpt><trkpt lat="44.2673253" lon="11.4231527"><ele>599.0</ele><time>2026-04-08T15:12:35.416Z</time></trkpt><trkpt lat="44.2671864" lon="11.4232914"><ele>600.0</ele><time>2026-04-08T15:12:36.407Z</time></trkpt><trkpt lat="44.267031" lon="11.4234128"><ele>601.0</ele><time>2026-04-08T15:12:37.416Z</time></trkpt><trkpt lat="44.2669151" lon="11.4235453"><ele>602.0</ele><time>2026-04-08T15:12:38.412Z</time></trkpt><trkpt lat="44.2667787" lon="11.4236445"><ele>602.0</ele><time>2026-04-08T15:12:39.413Z</time></trkpt><trkpt lat="44.2666106" lon="11.4236995"><ele>602.0</ele><time>2026-04-08T15:12:40.408Z</time></trkpt><trkpt lat="44.2664328" lon="11.4237563"><ele>602.0</ele><time>2026-04-08T15:12:41.415Z</time></trkpt><trkpt lat="44.2662732" lon="11.4238047"><ele>606.3333333333333</ele><time>2026-04-08T15:12:42.409Z</time></trkpt><trkpt lat="44.2661063" lon="11.4238515"><ele>610.6666666666666</ele><time>2026-04-08T15:12:43.412Z</time></trkpt><trkpt lat="44.2659264" lon="11.4238437"><ele>615.0</ele><time>2026-04-08T15:12:44.41Z</time></trkpt><trkpt lat="44.2657502" lon="11.4238558"><ele>616.25</ele><time>2026-04-08T15:12:45.413Z</time></trkpt><trkpt lat="44.2655864" lon="11.4238434"><ele>617.5</ele><time>2026-04-08T15:12:46.404Z</time></trkpt><trkpt lat="44.2654583" lon="11.4238541"><ele>618.75</ele><time>2026-04-08T15:12:47.405Z</time></trkpt><trkpt lat="44.2653446" lon="11.42385"><ele>620.0</ele><time>2026-04-08T15:12:48.411Z</time></trkpt><trkpt lat="44.2652501" lon="11.4238568"><ele>620.0</ele><time>2026-04-08T15:12:49.405Z</time></trkpt><trkpt lat="44.2651665" lon="11.4238338"><ele>620.0</ele><time>2026-04-08T15:12:50.416Z</time></trkpt><trkpt lat="44.2650792" lon="11.4238019"><ele>620.0</ele><time>2026-04-08T15:12:52.41Z</time></trkpt><trkpt lat="44.265013" lon="11.4238322"><ele>620.0</ele><time>2026-04-08T15:12:54.421Z</time></trkpt><trkpt lat="44.2649297" lon="11.423819"><ele>620.0</ele><time>2026-04-08T15:12:57.404Z</time></trkpt><trkpt lat="44.2648045" lon="11.4238227"><ele>619.8333333333333</ele><time>2026-04-08T15:12:59.406Z</time></trkpt><trkpt lat="44.264722" lon="11.4238449"><ele>619.6666666666666</ele><time>2026-04-08T15:13:00.404Z</time></trkpt><trkpt lat="44.2646376" lon="11.4238448"><ele>619.5</ele><time>2026-04-08T15:13:01.399Z</time></trkpt><trkpt lat="44.2645632" lon="11.423835"><ele>619.3333333333334</ele><time>2026-04-08T15:13:02.404Z</time></trkpt><trkpt lat="44.2645002" lon="11.4238314"><ele>619.1666666666667</ele><time>2026-04-08T15:13:03.398Z</time></trkpt><trkpt lat="44.2644118" lon="11.423835"><ele>619.0</ele><time>2026-04-08T15:13:05.405Z</time></trkpt><trkpt lat="44.2643468" lon="11.423801"><ele>619.0</ele><time>2026-04-08T15:13:07.399Z</time></trkpt><trkpt lat="44.2642656" lon="11.4237428"><ele>619.0</ele><time>2026-04-08T15:14:15.415Z</time></trkpt><trkpt lat="44.2641976" lon="11.4237072"><ele>619.0</ele><time>2026-04-08T15:14:34.41Z</time></trkpt><trkpt lat="44.2641328" lon="11.4236789"><ele>619.0</ele><time>2026-04-08T15:14:55.406Z</time></trkpt><trkpt lat="44.2640681" lon="11.4236516"><ele>619.0</ele><time>2026-04-08T15:15:18.434Z</time></trkpt><trkpt lat="44.2640065" lon="11.4236232"><ele>619.0</ele><time>2026-04-08T15:15:36.411Z</time></trkpt><trkpt lat="44.2639381" lon="11.4235918"><ele>619.0</ele><time>2026-04-08T15:15:51.419Z</time></trkpt><trkpt lat="44.2638544" lon="11.4235525"><ele>620.0</ele><time>2026-04-08T15:16:15.418Z</time></trkpt><trkpt lat="44.2637928" lon="11.4234916"><ele>621.0</ele><time>2026-04-08T15:16:18.412Z</time></trkpt><trkpt lat="44.2636761" lon="11.4234143"><ele>622.0</ele><time>2026-04-08T15:16:20.399Z</time></trkpt><trkpt lat="44.2636081" lon="11.423355"><ele>623.0</ele><time>2026-04-08T15:16:21.416Z</time></trkpt><trkpt lat="44.2635261" lon="11.4232801"><ele>624.0</ele><time>2026-04-08T15:16:22.419Z</time></trkpt><trkpt lat="44.2634521" lon="11.4232131"><ele>624.0</ele><time>2026-04-08T15:16:23.415Z</time></trkpt><trkpt lat="44.2633755" lon="11.4231347"><ele>624.0</ele><time>2026-04-08T15:16:24.419Z</time></trkpt><trkpt lat="44.263307" lon="11.4230445"><ele>624.0</ele><time>2026-04-08T15:16:25.415Z</time></trkpt><trkpt lat="44.263259" lon="11.4229303"><ele>624.0</ele><time>2026-04-08T15:16:26.414Z</time></trkpt><trkpt lat="44.2632171" lon="11.4228159"><ele>624.0</ele><time>2026-04-08T15:16:27.418Z</time></trkpt><trkpt lat="44.2631793" lon="11.4226895"><ele>624.0</ele><time>2026-04-08T15:16:28.411Z</time></trkpt><trkpt lat="44.2631216" lon="11.4225675"><ele>624.0</ele><time>2026-04-08T15:16:29.418Z</time></trkpt><trkpt lat="44.2630342" lon="11.4224636"><ele>624.0</ele><time>2026-04-08T15:16:30.462Z</time></trkpt><trkpt lat="44.2629371" lon="11.4223689"><ele>624.0</ele><time>2026-04-08T15:16:31.434Z</time></trkpt><trkpt lat="44.2628319" lon="11.4222836"><ele>624.0</ele><time>2026-04-08T15:16:32.417Z</time></trkpt><trkpt lat="44.2627411" lon="11.4222072"><ele>624.0</ele><time>2026-04-08T15:16:33.419Z</time></trkpt><trkpt lat="44.2626562" lon="11.4221282"><ele>624.0</ele><time>2026-04-08T15:16:34.412Z</time></trkpt><trkpt lat="44.2626017" lon="11.4220283"><ele>624.0</ele><time>2026-04-08T15:16:35.414Z</time></trkpt><trkpt lat="44.2625702" lon="11.4218969"><ele>624.0</ele><time>2026-04-08T15:16:36.413Z</time></trkpt><trkpt lat="44.2625578" lon="11.4217501"><ele>622.25</ele><time>2026-04-08T15:16:37.403Z</time></trkpt><trkpt lat="44.2625567" lon="11.4215888"><ele>620.5</ele><time>2026-04-08T15:16:38.415Z</time></trkpt><trkpt lat="44.2625806" lon="11.4214085"><ele>618.75</ele><time>2026-04-08T15:16:39.407Z</time></trkpt><trkpt lat="44.2626078" lon="11.4212342"><ele>617.0</ele><time>2026-04-08T15:16:40.412Z</time></trkpt><trkpt lat="44.2626157" lon="11.4210616"><ele>616.0</ele><time>2026-04-08T15:16:41.411Z</time></trkpt><trkpt lat="44.2625912" lon="11.4208763"><ele>615.0</ele><time>2026-04-08T15:16:42.417Z</time></trkpt><trkpt lat="44.262525" lon="11.4206919"><ele>614.0</ele><time>2026-04-08T15:16:43.413Z</time></trkpt><trkpt lat="44.2624572" lon="11.4205116"><ele>613.0</ele><time>2026-04-08T15:16:44.408Z</time></trkpt><trkpt lat="44.2624367" lon="11.4203619"><ele>612.0</ele><time>2026-04-08T15:16:45.413Z</time></trkpt><trkpt lat="44.2624348" lon="11.4201818"><ele>611.0</ele><time>2026-04-08T15:16:46.405Z</time></trkpt><trkpt lat="44.2624431" lon="11.4200167"><ele>610.0</ele><time>2026-04-08T15:16:47.414Z</time></trkpt><trkpt lat="44.2624727" lon="11.4198087"><ele>609.0</ele><time>2026-04-08T15:16:48.447Z</time></trkpt><trkpt lat="44.2624986" lon="11.41957"><ele>608.3333333333334</ele><time>2026-04-08T15:16:49.454Z</time></trkpt><trkpt lat="44.2625352" lon="11.4193296"><ele>607.6666666666667</ele><time>2026-04-08T15:16:50.435Z</time></trkpt><trkpt lat="44.2625597" lon="11.4191028"><ele>607.0</ele><time>2026-04-08T15:16:51.433Z</time></trkpt><trkpt lat="44.2625831" lon="11.4189052"><ele>607.3333333333334</ele><time>2026-04-08T15:16:52.403Z</time></trkpt><trkpt lat="44.2626108" lon="11.4186981"><ele>607.6666666666666</ele><time>2026-04-08T15:16:53.408Z</time></trkpt><trkpt lat="44.2626594" lon="11.4184779"><ele>608.0</ele><time>2026-04-08T15:16:54.434Z</time></trkpt><trkpt lat="44.2627249" lon="11.4182734"><ele>608.0</ele><time>2026-04-08T15:16:55.399Z</time></trkpt><trkpt lat="44.2627882" lon="11.4180919"><ele>608.0</ele><time>2026-04-08T15:16:56.409Z</time></trkpt><trkpt lat="44.2628934" lon="11.4179559"><ele>608.0</ele><time>2026-04-08T15:16:57.413Z</time></trkpt><trkpt lat="44.2629685" lon="11.4178232"><ele>608.0</ele><time>2026-04-08T15:16:58.397Z</time></trkpt><trkpt lat="44.2630812" lon="11.4176536"><ele>604.0</ele><time>2026-04-08T15:16:59.403Z</time></trkpt><trkpt lat="44.263191" lon="11.4174894"><ele>600.0</ele><time>2026-04-08T15:17:00.412Z</time></trkpt><trkpt lat="44.2633073" lon="11.4173275"><ele>596.0</ele><time>2026-04-08T15:17:01.396Z</time></trkpt><trkpt lat="44.2634049" lon="11.4171405"><ele>596.0</ele><time>2026-04-08T15:17:02.412Z</time></trkpt><trkpt lat="44.2635068" lon="11.4169957"><ele>596.0</ele><time>2026-04-08T15:17:03.405Z</time></trkpt><trkpt lat="44.2636382" lon="11.4168336"><ele>596.0</ele><time>2026-04-08T15:17:04.414Z</time></trkpt><trkpt lat="44.2637142" lon="11.4166838"><ele>596.0</ele><time>2026-04-08T15:17:05.411Z</time></trkpt><trkpt lat="44.2637546" lon="11.4165346"><ele>596.0</ele><time>2026-04-08T15:17:06.408Z</time></trkpt><trkpt lat="44.2637835" lon="11.4163587"><ele>596.0</ele><time>2026-04-08T15:17:07.412Z</time></trkpt><trkpt lat="44.2637946" lon="11.416198"><ele>596.0</ele><time>2026-04-08T15:17:08.408Z</time></trkpt><trkpt lat="44.2638023" lon="11.4160181"><ele>595.5</ele><time>2026-04-08T15:17:09.411Z</time></trkpt><trkpt lat="44.2637862" lon="11.4158255"><ele>595.0</ele><time>2026-04-08T15:17:10.408Z</time></trkpt><trkpt lat="44.2637512" lon="11.4156303"><ele>594.5</ele><time>2026-04-08T15:17:11.41Z</time></trkpt><trkpt lat="44.2637095" lon="11.4154365"><ele>594.0</ele><time>2026-04-08T15:17:12.405Z</time></trkpt><trkpt lat="44.2636618" lon="11.4152435"><ele>593.5</ele><time>2026-04-08T15:17:13.407Z</time></trkpt><trkpt lat="44.2636174" lon="11.4150729"><ele>593.0</ele><time>2026-04-08T15:17:14.4Z</time></trkpt><trkpt lat="44.2636031" lon="11.4148801"><ele>592.5</ele><time>2026-04-08T15:17:15.409Z</time></trkpt><trkpt lat="44.2636091" lon="11.4146667"><ele>592.0</ele><time>2026-04-08T15:17:16.405Z</time></trkpt><trkpt lat="44.2636362" lon="11.4144464"><ele>591.0</ele><time>2026-04-08T15:17:17.407Z</time></trkpt><trkpt lat="44.2636753" lon="11.4141978"><ele>590.0</ele><time>2026-04-08T15:17:18.41Z</time></trkpt><trkpt lat="44.2636944" lon="11.4139646"><ele>589.0</ele><time>2026-04-08T15:17:19.401Z</time></trkpt><trkpt lat="44.2637462" lon="11.4137644"><ele>588.5</ele><time>2026-04-08T15:17:20.416Z</time></trkpt><trkpt lat="44.2637632" lon="11.4135889"><ele>588.0</ele><time>2026-04-08T15:17:21.408Z</time></trkpt><trkpt lat="44.2637767" lon="11.4133705"><ele>587.5</ele><time>2026-04-08T15:17:22.4Z</time></trkpt><trkpt lat="44.263787" lon="11.4131911"><ele>587.0</ele><time>2026-04-08T15:17:23.407Z</time></trkpt><trkpt lat="44.2637938" lon="11.4130028"><ele>585.75</ele><time>2026-04-08T15:17:24.428Z</time></trkpt><trkpt lat="44.2637657" lon="11.412822"><ele>584.5</ele><time>2026-04-08T15:17:25.403Z</time></trkpt><trkpt lat="44.2636812" lon="11.4126909"><ele>583.25</ele><time>2026-04-08T15:17:26.405Z</time></trkpt><trkpt lat="44.2636261" lon="11.4125544"><ele>582.0</ele><time>2026-04-08T15:17:27.41Z</time></trkpt><trkpt lat="44.2635611" lon="11.4123632"><ele>582.0</ele><time>2026-04-08T15:17:28.404Z</time></trkpt><trkpt lat="44.2634949" lon="11.4121847"><ele>582.0</ele><time>2026-04-08T15:17:29.405Z</time></trkpt><trkpt lat="44.263473" lon="11.4120117"><ele>582.0</ele><time>2026-04-08T15:17:30.407Z</time></trkpt><trkpt lat="44.2634807" lon="11.4118255"><ele>582.0</ele><time>2026-04-08T15:17:31.408Z</time></trkpt><trkpt lat="44.2635083" lon="11.411635"><ele>582.6666666666666</ele><time>2026-04-08T15:17:32.4Z</time></trkpt><trkpt lat="44.263572" lon="11.41142"><ele>583.3333333333333</ele><time>2026-04-08T15:17:33.408Z</time></trkpt><trkpt lat="44.2636563" lon="11.4112022"><ele>584.0</ele><time>2026-04-08T15:17:34.407Z</time></trkpt><trkpt lat="44.2637573" lon="11.4110003"><ele>584.0</ele><time>2026-04-08T15:17:35.417Z</time></trkpt><trkpt lat="44.2638213" lon="11.4108027"><ele>584.0</ele><time>2026-04-08T15:17:36.408Z</time></trkpt><trkpt lat="44.2638835" lon="11.4106074"><ele>584.0</ele><time>2026-04-08T15:17:37.404Z</time></trkpt><trkpt lat="44.2639595" lon="11.410416"><ele>580.0</ele><time>2026-04-08T15:17:38.41Z</time></trkpt><trkpt lat="44.2640609" lon="11.4102664"><ele>576.0</ele><time>2026-04-08T15:17:39.41Z</time></trkpt><trkpt lat="44.2641519" lon="11.4101417"><ele>572.0</ele><time>2026-04-08T15:17:40.417Z</time></trkpt><trkpt lat="44.264255" lon="11.4100684"><ele>568.0</ele><time>2026-04-08T15:17:41.415Z</time></trkpt><trkpt lat="44.2643588" lon="11.4100307"><ele>568.0</ele><time>2026-04-08T15:17:42.405Z</time></trkpt><trkpt lat="44.2644593" lon="11.409981"><ele>568.0</ele><time>2026-04-08T15:17:43.412Z</time></trkpt><trkpt lat="44.2645332" lon="11.4099025"><ele>568.0</ele><time>2026-04-08T15:17:44.419Z</time></trkpt><trkpt lat="44.2645687" lon="11.4097907"><ele>568.0</ele><time>2026-04-08T15:17:45.4Z</time></trkpt><trkpt lat="44.2645828" lon="11.4096599"><ele>568.0</ele><time>2026-04-08T15:17:46.405Z</time></trkpt><trkpt lat="44.2645853" lon="11.4095174"><ele>568.25</ele><time>2026-04-08T15:17:47.409Z</time></trkpt><trkpt lat="44.2645809" lon="11.4093604"><ele>568.5</ele><time>2026-04-08T15:17:48.412Z</time></trkpt><trkpt lat="44.2645794" lon="11.4091797"><ele>568.75</ele><time>2026-04-08T15:17:49.413Z</time></trkpt><trkpt lat="44.2645851" lon="11.4089799"><ele>569.0</ele><time>2026-04-08T15:17:50.413Z</time></trkpt><trkpt lat="44.264583" lon="11.408768"><ele>567.6666666666666</ele><time>2026-04-08T15:17:51.413Z</time></trkpt><trkpt lat="44.2645732" lon="11.4085588"><ele>566.3333333333334</ele><time>2026-04-08T15:17:52.413Z</time></trkpt><trkpt lat="44.2645737" lon="11.4083432"><ele>565.0</ele><time>2026-04-08T15:17:53.412Z</time></trkpt><trkpt lat="44.2645547" lon="11.4081359"><ele>563.0</ele><time>2026-04-08T15:17:54.413Z</time></trkpt><trkpt lat="44.2645066" lon="11.407934"><ele>561.0</ele><time>2026-04-08T15:17:55.413Z</time></trkpt><trkpt lat="44.2644468" lon="11.4077423"><ele>559.0</ele><time>2026-04-08T15:17:56.415Z</time></trkpt><trkpt lat="44.2643836" lon="11.4075458"><ele>559.0</ele><time>2026-04-08T15:17:57.413Z</time></trkpt><trkpt lat="44.2643466" lon="11.407346"><ele>559.0</ele><time>2026-04-08T15:17:58.414Z</time></trkpt><trkpt lat="44.264338" lon="11.4071433"><ele>559.0</ele><time>2026-04-08T15:17:59.408Z</time></trkpt><trkpt lat="44.2643457" lon="11.4069385"><ele>559.0</ele><time>2026-04-08T15:18:00.437Z</time></trkpt><trkpt lat="44.2643485" lon="11.4067167"><ele>556.6666666666667</ele><time>2026-04-08T15:18:01.404Z</time></trkpt><trkpt lat="44.2643423" lon="11.4065019"><ele>554.3333333333334</ele><time>2026-04-08T15:18:02.412Z</time></trkpt><trkpt lat="44.2643345" lon="11.4062929"><ele>552.0</ele><time>2026-04-08T15:18:03.414Z</time></trkpt><trkpt lat="44.2643321" lon="11.406072"><ele>551.0</ele><time>2026-04-08T15:18:04.414Z</time></trkpt><trkpt lat="44.2643532" lon="11.4058645"><ele>550.0</ele><time>2026-04-08T15:18:05.4Z</time></trkpt><trkpt lat="44.2643909" lon="11.4056732"><ele>549.0</ele><time>2026-04-08T15:18:06.411Z</time></trkpt><trkpt lat="44.2644323" lon="11.4055055"><ele>548.0</ele><time>2026-04-08T15:18:07.405Z</time></trkpt><trkpt lat="44.2644636" lon="11.4053462"><ele>546.8</ele><time>2026-04-08T15:18:08.413Z</time></trkpt><trkpt lat="44.2644824" lon="11.4051955"><ele>545.5999999999999</ele><time>2026-04-08T15:18:09.405Z</time></trkpt><trkpt lat="44.2644714" lon="11.4050497"><ele>544.4000000000001</ele><time>2026-04-08T15:18:10.409Z</time></trkpt><trkpt lat="44.2644322" lon="11.404926"><ele>543.2</ele><time>2026-04-08T15:18:11.405Z</time></trkpt><trkpt lat="44.2643613" lon="11.4048089"><ele>542.0</ele><time>2026-04-08T15:18:12.411Z</time></trkpt><trkpt lat="44.2642784" lon="11.4046868"><ele>539.75</ele><time>2026-04-08T15:18:13.416Z</time></trkpt><trkpt lat="44.2641883" lon="11.404552"><ele>537.5</ele><time>2026-04-08T15:18:14.404Z</time></trkpt><trkpt lat="44.2641082" lon="11.4043973"><ele>535.25</ele><time>2026-04-08T15:18:15.421Z</time></trkpt><trkpt lat="44.264058" lon="11.4042142"><ele>533.0</ele><time>2026-04-08T15:18:16.412Z</time></trkpt><trkpt lat="44.2640225" lon="11.404005"><ele>532.75</ele><time>2026-04-08T15:18:17.406Z</time></trkpt><trkpt lat="44.2639974" lon="11.4038106"><ele>532.5</ele><time>2026-04-08T15:18:18.456Z</time></trkpt><trkpt lat="44.2639704" lon="11.4036326"><ele>532.25</ele><time>2026-04-08T15:18:19.43Z</time></trkpt><trkpt lat="44.2639402" lon="11.4034481"><ele>532.0</ele><time>2026-04-08T15:18:20.411Z</time></trkpt><trkpt lat="44.263909" lon="11.4032886"><ele>535.0</ele><time>2026-04-08T15:18:21.438Z</time></trkpt><trkpt lat="44.2638864" lon="11.4031248"><ele>538.0</ele><time>2026-04-08T15:18:22.44Z</time></trkpt><trkpt lat="44.2638607" lon="11.4029577"><ele>541.0</ele><time>2026-04-08T15:18:23.435Z</time></trkpt><trkpt lat="44.2638476" lon="11.4027983"><ele>544.0</ele><time>2026-04-08T15:18:24.406Z</time></trkpt><trkpt lat="44.2638501" lon="11.4026421"><ele>544.0</ele><time>2026-04-08T15:18:25.408Z</time></trkpt><trkpt lat="44.2638625" lon="11.4024918"><ele>544.0</ele><time>2026-04-08T15:18:26.415Z</time></trkpt><trkpt lat="44.2639065" lon="11.402343"><ele>544.0</ele><time>2026-04-08T15:18:27.412Z</time></trkpt><trkpt lat="44.2639657" lon="11.402189"><ele>544.0</ele><time>2026-04-08T15:18:28.414Z</time></trkpt><trkpt lat="44.2640507" lon="11.4020345"><ele>540.0</ele><time>2026-04-08T15:18:29.407Z</time></trkpt><trkpt lat="44.2641671" lon="11.4018809"><ele>536.0</ele><time>2026-04-08T15:18:30.414Z</time></trkpt><trkpt lat="44.264283" lon="11.4017314"><ele>532.0</ele><time>2026-04-08T15:18:31.406Z</time></trkpt><trkpt lat="44.2643777" lon="11.4015804"><ele>532.0</ele><time>2026-04-08T15:18:32.403Z</time></trkpt><trkpt lat="44.2644556" lon="11.4014221"><ele>532.0</ele><time>2026-04-08T15:18:33.415Z</time></trkpt><trkpt lat="44.2645279" lon="11.4012999"><ele>532.0</ele><time>2026-04-08T15:18:34.42Z</time></trkpt><trkpt lat="44.2645793" lon="11.4011874"><ele>532.0</ele><time>2026-04-08T15:18:35.405Z</time></trkpt><trkpt lat="44.2645959" lon="11.4010587"><ele>532.0</ele><time>2026-04-08T15:18:36.413Z</time></trkpt><trkpt lat="44.2645693" lon="11.4009295"><ele>529.6</ele><time>2026-04-08T15:18:37.404Z</time></trkpt><trkpt lat="44.2645157" lon="11.4008116"><ele>527.2</ele><time>2026-04-08T15:18:38.407Z</time></trkpt><trkpt lat="44.2644501" lon="11.4007042"><ele>524.8</ele><time>2026-04-08T15:18:39.41Z</time></trkpt><trkpt lat="44.2643711" lon="11.4006019"><ele>522.4</ele><time>2026-04-08T15:18:40.414Z</time></trkpt><trkpt lat="44.2643027" lon="11.4005058"><ele>520.0</ele><time>2026-04-08T15:18:41.412Z</time></trkpt><trkpt lat="44.2642601" lon="11.4004006"><ele>518.0</ele><time>2026-04-08T15:18:42.421Z</time></trkpt><trkpt lat="44.2642738" lon="11.4002998"><ele>516.0</ele><time>2026-04-08T15:18:43.405Z</time></trkpt><trkpt lat="44.2643182" lon="11.4002007"><ele>514.0</ele><time>2026-04-08T15:18:44.414Z</time></trkpt><trkpt lat="44.2644041" lon="11.4001094"><ele>512.0</ele><time>2026-04-08T15:18:45.418Z</time></trkpt><trkpt lat="44.2645199" lon="11.4000288"><ele>510.0</ele><time>2026-04-08T15:18:46.413Z</time></trkpt><trkpt lat="44.2646507" lon="11.3999393"><ele>510.33333333333337</ele><time>2026-04-08T15:18:47.409Z</time></trkpt><trkpt lat="44.2647875" lon="11.3998422"><ele>510.6666666666667</ele><time>2026-04-08T15:18:48.41Z</time></trkpt><trkpt lat="44.264943" lon="11.3997314"><ele>511.0</ele><time>2026-04-08T15:18:49.41Z</time></trkpt><trkpt lat="44.2650834" lon="11.3996048"><ele>508.4</ele><time>2026-04-08T15:18:50.41Z</time></trkpt><trkpt lat="44.2652041" lon="11.3994946"><ele>505.8</ele><time>2026-04-08T15:18:51.407Z</time></trkpt><trkpt lat="44.2653082" lon="11.3994456"><ele>503.19999999999993</ele><time>2026-04-08T15:18:52.423Z</time></trkpt><trkpt lat="44.2653919" lon="11.3994623"><ele>500.59999999999997</ele><time>2026-04-08T15:18:53.409Z</time></trkpt><trkpt lat="44.2654676" lon="11.3995245"><ele>498.0</ele><time>2026-04-08T15:18:54.403Z</time></trkpt><trkpt lat="44.2655581" lon="11.3996406"><ele>498.0</ele><time>2026-04-08T15:18:55.429Z</time></trkpt><trkpt lat="44.2656449" lon="11.3997658"><ele>498.0</ele><time>2026-04-08T15:18:56.409Z</time></trkpt><trkpt lat="44.2657372" lon="11.3998735"><ele>498.0</ele><time>2026-04-08T15:18:57.405Z</time></trkpt><trkpt lat="44.2658401" lon="11.3999825"><ele>498.0</ele><time>2026-04-08T15:18:58.415Z</time></trkpt><trkpt lat="44.2659446" lon="11.400073"><ele>498.0</ele><time>2026-04-08T15:18:59.414Z</time></trkpt><trkpt lat="44.2660521" lon="11.4001391"><ele>498.0</ele><time>2026-04-08T15:19:00.405Z</time></trkpt><trkpt lat="44.2661729" lon="11.4001745"><ele>498.0</ele><time>2026-04-08T15:19:01.416Z</time></trkpt><trkpt lat="44.2662944" lon="11.4001682"><ele>498.0</ele><time>2026-04-08T15:19:02.409Z</time></trkpt><trkpt lat="44.2664221" lon="11.4001452"><ele>495.75</ele><time>2026-04-08T15:19:03.397Z</time></trkpt><trkpt lat="44.2665711" lon="11.4001136"><ele>493.5</ele><time>2026-04-08T15:19:04.405Z</time></trkpt><trkpt lat="44.2667125" lon="11.4000611"><ele>491.25</ele><time>2026-04-08T15:19:05.415Z</time></trkpt><trkpt lat="44.2668358" lon="11.3999717"><ele>489.0</ele><time>2026-04-08T15:19:06.414Z</time></trkpt><trkpt lat="44.2669463" lon="11.3998547"><ele>489.0</ele><time>2026-04-08T15:19:07.417Z</time></trkpt><trkpt lat="44.2670555" lon="11.3997068"><ele>489.0</ele><time>2026-04-08T15:19:08.408Z</time></trkpt><trkpt lat="44.2671609" lon="11.3995408"><ele>489.0</ele><time>2026-04-08T15:19:09.411Z</time></trkpt><trkpt lat="44.2672517" lon="11.3993997"><ele>489.0</ele><time>2026-04-08T15:19:10.415Z</time></trkpt><trkpt lat="44.2673353" lon="11.3992781"><ele>488.79999999999995</ele><time>2026-04-08T15:19:11.42Z</time></trkpt><trkpt lat="44.2674103" lon="11.3991709"><ele>488.59999999999997</ele><time>2026-04-08T15:19:12.406Z</time></trkpt><trkpt lat="44.267494" lon="11.3990875"><ele>488.4</ele><time>2026-04-08T15:19:13.409Z</time></trkpt><trkpt lat="44.2675711" lon="11.3990607"><ele>488.2</ele><time>2026-04-08T15:19:14.412Z</time></trkpt><trkpt lat="44.2676454" lon="11.3991188"><ele>488.0</ele><time>2026-04-08T15:19:15.43Z</time></trkpt><trkpt lat="44.2677068" lon="11.3992124"><ele>488.0</ele><time>2026-04-08T15:19:16.402Z</time></trkpt><trkpt lat="44.2677519" lon="11.39932"><ele>487.99999999999994</ele><time>2026-04-08T15:19:17.398Z</time></trkpt><trkpt lat="44.267768" lon="11.3994476"><ele>487.99999999999994</ele><time>2026-04-08T15:19:18.408Z</time></trkpt><trkpt lat="44.2677548" lon="11.3995736"><ele>488.0</ele><time>2026-04-08T15:19:19.406Z</time></trkpt><trkpt lat="44.2677162" lon="11.3996892"><ele>488.0</ele><time>2026-04-08T15:19:20.409Z</time></trkpt><trkpt lat="44.2676409" lon="11.3997913"><ele>488.25</ele><time>2026-04-08T15:19:21.411Z</time></trkpt><trkpt lat="44.2675407" lon="11.3998871"><ele>488.5</ele><time>2026-04-08T15:19:22.407Z</time></trkpt><trkpt lat="44.2674296" lon="11.39999"><ele>488.75</ele><time>2026-04-08T15:19:23.398Z</time></trkpt><trkpt lat="44.2673241" lon="11.4001133"><ele>489.0</ele><time>2026-04-08T15:19:24.412Z</time></trkpt><trkpt lat="44.2672371" lon="11.4002626"><ele>489.0</ele><time>2026-04-08T15:19:25.412Z</time></trkpt><trkpt lat="44.2671556" lon="11.400416"><ele>489.0</ele><time>2026-04-08T15:19:26.406Z</time></trkpt><trkpt lat="44.2670763" lon="11.4005614"><ele>489.0</ele><time>2026-04-08T15:19:27.416Z</time></trkpt><trkpt lat="44.2670127" lon="11.4007076"><ele>489.0</ele><time>2026-04-08T15:19:28.411Z</time></trkpt><trkpt lat="44.2669777" lon="11.4008584"><ele>487.5</ele><time>2026-04-08T15:19:29.41Z</time></trkpt><trkpt lat="44.2669743" lon="11.4010156"><ele>486.0</ele><time>2026-04-08T15:19:30.433Z</time></trkpt><trkpt lat="44.2670166" lon="11.4011596"><ele>484.5</ele><time>2026-04-08T15:19:31.43Z</time></trkpt><trkpt lat="44.2671031" lon="11.4012919"><ele>483.0</ele><time>2026-04-08T15:19:32.438Z</time></trkpt><trkpt lat="44.2672081" lon="11.4014158"><ele>479.25</ele><time>2026-04-08T15:19:33.42Z</time></trkpt><trkpt lat="44.2672867" lon="11.4015652"><ele>475.5</ele><time>2026-04-08T15:19:34.407Z</time></trkpt><trkpt lat="44.2673404" lon="11.4017357"><ele>471.75</ele><time>2026-04-08T15:19:35.414Z</time></trkpt><trkpt lat="44.2673697" lon="11.4019105"><ele>468.0</ele><time>2026-04-08T15:19:36.414Z</time></trkpt><trkpt lat="44.2673916" lon="11.4020674"><ele>469.59999999999997</ele><time>2026-04-08T15:19:37.411Z</time></trkpt><trkpt lat="44.2674309" lon="11.4021876"><ele>471.19999999999993</ele><time>2026-04-08T15:19:38.415Z</time></trkpt><trkpt lat="44.2675027" lon="11.4022685"><ele>472.8</ele><time>2026-04-08T15:19:39.407Z</time></trkpt><trkpt lat="44.2675945" lon="11.4023299"><ele>474.4</ele><time>2026-04-08T15:19:40.411Z</time></trkpt><trkpt lat="44.2677041" lon="11.4023596"><ele>476.0</ele><time>2026-04-08T15:19:41.407Z</time></trkpt><trkpt lat="44.2678156" lon="11.4023635"><ele>476.0</ele><time>2026-04-08T15:19:42.408Z</time></trkpt><trkpt lat="44.267917" lon="11.4023637"><ele>476.0</ele><time>2026-04-08T15:19:43.404Z</time></trkpt><trkpt lat="44.268012" lon="11.4023772"><ele>476.0</ele><time>2026-04-08T15:19:44.405Z</time></trkpt><trkpt lat="44.2680995" lon="11.4024195"><ele>476.0</ele><time>2026-04-08T15:19:45.419Z</time></trkpt><trkpt lat="44.2681728" lon="11.4024957"><ele>476.0</ele><time>2026-04-08T15:19:46.411Z</time></trkpt><trkpt lat="44.268235" lon="11.40261"><ele>472.75</ele><time>2026-04-08T15:19:47.41Z</time></trkpt><trkpt lat="44.2682948" lon="11.4027703"><ele>469.5</ele><time>2026-04-08T15:19:48.456Z</time></trkpt><trkpt lat="44.2683371" lon="11.4029659"><ele>466.25</ele><time>2026-04-08T15:19:49.413Z</time></trkpt><trkpt lat="44.2683818" lon="11.403165"><ele>463.0</ele><time>2026-04-08T15:19:50.4Z</time></trkpt><trkpt lat="44.2684305" lon="11.4033459"><ele>463.0</ele><time>2026-04-08T15:19:51.4Z</time></trkpt><trkpt lat="44.2684881" lon="11.4034793"><ele>462.99999999999994</ele><time>2026-04-08T15:19:52.41Z</time></trkpt><trkpt lat="44.2685762" lon="11.4035591"><ele>462.99999999999994</ele><time>2026-04-08T15:19:53.404Z</time></trkpt><trkpt lat="44.2686832" lon="11.4036117"><ele>463.0</ele><time>2026-04-08T15:19:54.408Z</time></trkpt><trkpt lat="44.2687984" lon="11.4036293"><ele>463.0</ele><time>2026-04-08T15:19:55.408Z</time></trkpt><trkpt lat="44.268926" lon="11.4036191"><ele>459.25</ele><time>2026-04-08T15:19:56.406Z</time></trkpt><trkpt lat="44.2690529" lon="11.4035954"><ele>455.5</ele><time>2026-04-08T15:19:57.411Z</time></trkpt><trkpt lat="44.269172" lon="11.4035935"><ele>451.75</ele><time>2026-04-08T15:19:58.403Z</time></trkpt><trkpt lat="44.269288" lon="11.4035957"><ele>448.0</ele><time>2026-04-08T15:19:59.405Z</time></trkpt><trkpt lat="44.2694095" lon="11.4036057"><ele>448.0</ele><time>2026-04-08T15:20:00.408Z</time></trkpt><trkpt lat="44.2695418" lon="11.4036156"><ele>447.99999999999994</ele><time>2026-04-08T15:20:01.411Z</time></trkpt><trkpt lat="44.2696613" lon="11.4036354"><ele>447.99999999999994</ele><time>2026-04-08T15:20:02.405Z</time></trkpt><trkpt lat="44.2697442" lon="11.4036813"><ele>448.0</ele><time>2026-04-08T15:20:03.412Z</time></trkpt><trkpt lat="44.2698011" lon="11.4037642"><ele>448.0</ele><time>2026-04-08T15:20:04.404Z</time></trkpt><trkpt lat="44.2698581" lon="11.4038914"><ele>446.2</ele><time>2026-04-08T15:20:05.412Z</time></trkpt><trkpt lat="44.2699276" lon="11.4040221"><ele>444.4</ele><time>2026-04-08T15:20:06.454Z</time></trkpt><trkpt lat="44.2700111" lon="11.4041274"><ele>442.59999999999997</ele><time>2026-04-08T15:20:07.441Z</time></trkpt><trkpt lat="44.2701041" lon="11.4041816"><ele>440.79999999999995</ele><time>2026-04-08T15:20:08.407Z</time></trkpt><trkpt lat="44.2702098" lon="11.404234"><ele>439.0</ele><time>2026-04-08T15:20:09.429Z</time></trkpt><trkpt lat="44.270328" lon="11.4042819"><ele>439.0</ele><time>2026-04-08T15:20:10.4Z</time></trkpt><trkpt lat="44.2704543" lon="11.4043175"><ele>439.0</ele><time>2026-04-08T15:20:11.401Z</time></trkpt><trkpt lat="44.2705701" lon="11.4043578"><ele>439.0</ele><time>2026-04-08T15:20:12.412Z</time></trkpt><trkpt lat="44.2706857" lon="11.4043911"><ele>439.0</ele><time>2026-04-08T15:20:13.403Z</time></trkpt><trkpt lat="44.2708058" lon="11.4044099"><ele>434.5</ele><time>2026-04-08T15:20:14.407Z</time></trkpt><trkpt lat="44.2709336" lon="11.4044116"><ele>430.0</ele><time>2026-04-08T15:20:15.408Z</time></trkpt><trkpt lat="44.2710572" lon="11.4044183"><ele>425.5</ele><time>2026-04-08T15:20:16.412Z</time></trkpt><trkpt lat="44.2711745" lon="11.4044126"><ele>421.0</ele><time>2026-04-08T15:20:17.405Z</time></trkpt><trkpt lat="44.2712805" lon="11.4044036"><ele>421.00000000000006</ele><time>2026-04-08T15:20:18.408Z</time></trkpt><trkpt lat="44.271365" lon="11.4043633"><ele>421.0</ele><time>2026-04-08T15:20:19.404Z</time></trkpt><trkpt lat="44.2714217" lon="11.4042872"><ele>421.0</ele><time>2026-04-08T15:20:20.405Z</time></trkpt><trkpt lat="44.2714352" lon="11.4041865"><ele>421.0</ele><time>2026-04-08T15:20:21.406Z</time></trkpt><trkpt lat="44.2714155" lon="11.4040766"><ele>421.00000000000006</ele><time>2026-04-08T15:20:22.413Z</time></trkpt><trkpt lat="44.2713595" lon="11.4039819"><ele>421.0</ele><time>2026-04-08T15:20:23.406Z</time></trkpt><trkpt lat="44.2712908" lon="11.403937"><ele>421.0</ele><time>2026-04-08T15:20:24.404Z</time></trkpt><trkpt lat="44.2712033" lon="11.4039446"><ele>421.0</ele><time>2026-04-08T15:20:25.406Z</time></trkpt><trkpt lat="44.2711024" lon="11.403974"><ele>421.0</ele><time>2026-04-08T15:20:26.406Z</time></trkpt><trkpt lat="44.2709973" lon="11.4039854"><ele>421.0</ele><time>2026-04-08T15:20:27.401Z</time></trkpt><trkpt lat="44.270906" lon="11.4039575"><ele>421.0</ele><time>2026-04-08T15:20:28.407Z</time></trkpt><trkpt lat="44.2708234" lon="11.4039031"><ele>421.75</ele><time>2026-04-08T15:20:29.404Z</time></trkpt><trkpt lat="44.2707495" lon="11.403829"><ele>422.5</ele><time>2026-04-08T15:20:30.414Z</time></trkpt><trkpt lat="44.2706783" lon="11.4037158"><ele>423.25</ele><time>2026-04-08T15:20:31.406Z</time></trkpt><trkpt lat="44.2706005" lon="11.4035714"><ele>424.0</ele><time>2026-04-08T15:20:32.408Z</time></trkpt><trkpt lat="44.2705084" lon="11.4034062"><ele>424.0</ele><time>2026-04-08T15:20:33.402Z</time></trkpt><trkpt lat="44.2704127" lon="11.4032472"><ele>424.0</ele><time>2026-04-08T15:20:34.406Z</time></trkpt><trkpt lat="44.2703388" lon="11.4030926"><ele>424.0</ele><time>2026-04-08T15:20:35.401Z</time></trkpt><trkpt lat="44.2702989" lon="11.4029291"><ele>424.0</ele><time>2026-04-08T15:20:36.416Z</time></trkpt><trkpt lat="44.2702945" lon="11.4027785"><ele>423.2</ele><time>2026-04-08T15:20:37.409Z</time></trkpt><trkpt lat="44.2703233" lon="11.402645"><ele>422.4</ele><time>2026-04-08T15:20:38.407Z</time></trkpt><trkpt lat="44.2703744" lon="11.4025272"><ele>421.6</ele><time>2026-04-08T15:20:39.416Z</time></trkpt><trkpt lat="44.2704571" lon="11.4024358"><ele>420.8</ele><time>2026-04-08T15:20:40.41Z</time></trkpt><trkpt lat="44.2705672" lon="11.4023633"><ele>420.0</ele><time>2026-04-08T15:20:41.416Z</time></trkpt><trkpt lat="44.2706865" lon="11.4023238"><ele>419.0</ele><time>2026-04-08T15:20:42.414Z</time></trkpt><trkpt lat="44.2708141" lon="11.4023055"><ele>418.0</ele><time>2026-04-08T15:20:43.411Z</time></trkpt><trkpt lat="44.2709499" lon="11.4022865"><ele>417.0</ele><time>2026-04-08T15:20:44.409Z</time></trkpt><trkpt lat="44.271077" lon="11.402239"><ele>416.0</ele><time>2026-04-08T15:20:45.418Z</time></trkpt><trkpt lat="44.2711791" lon="11.4021527"><ele>416.0</ele><time>2026-04-08T15:20:46.407Z</time></trkpt><trkpt lat="44.2712682" lon="11.402003"><ele>416.0</ele><time>2026-04-08T15:20:47.411Z</time></trkpt><trkpt lat="44.2713446" lon="11.4018349"><ele>416.0</ele><time>2026-04-08T15:20:48.413Z</time></trkpt><trkpt lat="44.2714399" lon="11.4016947"><ele>416.0</ele><time>2026-04-08T15:20:49.401Z</time></trkpt><trkpt lat="44.2715798" lon="11.4015883"><ele>409.66666666666663</ele><time>2026-04-08T15:20:50.413Z</time></trkpt><trkpt lat="44.2717473" lon="11.4015089"><ele>403.33333333333337</ele><time>2026-04-08T15:20:51.409Z</time></trkpt><trkpt lat="44.2719109" lon="11.401448"><ele>397.0</ele><time>2026-04-08T15:20:52.42Z</time></trkpt><trkpt lat="44.2720679" lon="11.4013903"><ele>397.0</ele><time>2026-04-08T15:20:53.409Z</time></trkpt><trkpt lat="44.2722121" lon="11.4013332"><ele>397.0</ele><time>2026-04-08T15:20:54.421Z</time></trkpt><trkpt lat="44.2723436" lon="11.4012711"><ele>397.0</ele><time>2026-04-08T15:20:55.407Z</time></trkpt><trkpt lat="44.2724436" lon="11.401196"><ele>397.0</ele><time>2026-04-08T15:20:56.411Z</time></trkpt><trkpt lat="44.2725044" lon="11.4010879"><ele>394.75</ele><time>2026-04-08T15:20:57.422Z</time></trkpt><trkpt lat="44.2725308" lon="11.4009494"><ele>392.5</ele><time>2026-04-08T15:20:58.414Z</time></trkpt><trkpt lat="44.2725332" lon="11.4007796"><ele>390.25</ele><time>2026-04-08T15:20:59.414Z</time></trkpt><trkpt lat="44.272524" lon="11.4006081"><ele>388.0</ele><time>2026-04-08T15:21:00.417Z</time></trkpt><trkpt lat="44.272485" lon="11.4004422"><ele>387.0</ele><time>2026-04-08T15:21:01.415Z</time></trkpt><trkpt lat="44.272416" lon="11.400286"><ele>386.0</ele><time>2026-04-08T15:21:02.415Z</time></trkpt><trkpt lat="44.2723303" lon="11.4001407"><ele>385.0</ele><time>2026-04-08T15:21:03.416Z</time></trkpt><trkpt lat="44.2722613" lon="11.3999965"><ele>384.0</ele><time>2026-04-08T15:21:04.416Z</time></trkpt><trkpt lat="44.2722254" lon="11.3998484"><ele>384.5</ele><time>2026-04-08T15:21:05.417Z</time></trkpt><trkpt lat="44.2722222" lon="11.399696"><ele>385.0</ele><time>2026-04-08T15:21:06.407Z</time></trkpt><trkpt lat="44.2722575" lon="11.399553"><ele>385.5</ele><time>2026-04-08T15:21:07.414Z</time></trkpt><trkpt lat="44.2723331" lon="11.3994124"><ele>386.0</ele><time>2026-04-08T15:21:08.42Z</time></trkpt><trkpt lat="44.2724464" lon="11.399279"><ele>386.0</ele><time>2026-04-08T15:21:09.411Z</time></trkpt><trkpt lat="44.2726103" lon="11.3991372"><ele>386.0</ele><time>2026-04-08T15:21:10.413Z</time></trkpt><trkpt lat="44.272783" lon="11.3989891"><ele>386.0</ele><time>2026-04-08T15:21:11.408Z</time></trkpt><trkpt lat="44.2729295" lon="11.3988405"><ele>388.0</ele><time>2026-04-08T15:21:12.414Z</time></trkpt><trkpt lat="44.273048" lon="11.3987027"><ele>390.0</ele><time>2026-04-08T15:21:13.41Z</time></trkpt><trkpt lat="44.2731559" lon="11.3985644"><ele>392.0</ele><time>2026-04-08T15:21:14.408Z</time></trkpt><trkpt lat="44.2732678" lon="11.3984327"><ele>394.0</ele><time>2026-04-08T15:21:15.42Z</time></trkpt><trkpt lat="44.2733802" lon="11.3983115"><ele>389.75</ele><time>2026-04-08T15:21:16.412Z</time></trkpt><trkpt lat="44.2734819" lon="11.3981895"><ele>385.5</ele><time>2026-04-08T15:21:17.418Z</time></trkpt><trkpt lat="44.2735633" lon="11.3980732"><ele>381.25</ele><time>2026-04-08T15:21:18.441Z</time></trkpt><trkpt lat="44.2736034" lon="11.3979434"><ele>377.0</ele><time>2026-04-08T15:21:19.397Z</time></trkpt><trkpt lat="44.2735918" lon="11.3977784"><ele>377.0</ele><time>2026-04-08T15:21:20.421Z</time></trkpt><trkpt lat="44.2735338" lon="11.3975973"><ele>377.0</ele><time>2026-04-08T15:21:21.411Z</time></trkpt><trkpt lat="44.2734796" lon="11.3974166"><ele>377.0</ele><time>2026-04-08T15:21:22.411Z</time></trkpt><trkpt lat="44.2734238" lon="11.3972406"><ele>377.0</ele><time>2026-04-08T15:21:23.416Z</time></trkpt><trkpt lat="44.2733819" lon="11.397076"><ele>375.75</ele><time>2026-04-08T15:21:24.407Z</time></trkpt><trkpt lat="44.2733565" lon="11.3969141"><ele>374.5</ele><time>2026-04-08T15:21:25.408Z</time></trkpt><trkpt lat="44.2733614" lon="11.3967535"><ele>373.25</ele><time>2026-04-08T15:21:26.414Z</time></trkpt><trkpt lat="44.2734048" lon="11.3965919"><ele>372.0</ele><time>2026-04-08T15:21:27.404Z</time></trkpt><trkpt lat="44.27346" lon="11.3964353"><ele>370.1666666666667</ele><time>2026-04-08T15:21:28.411Z</time></trkpt><trkpt lat="44.2735189" lon="11.3963022"><ele>368.3333333333333</ele><time>2026-04-08T15:21:29.412Z</time></trkpt><trkpt lat="44.2735649" lon="11.3961921"><ele>366.5</ele><time>2026-04-08T15:21:30.413Z</time></trkpt><trkpt lat="44.2735766" lon="11.3960917"><ele>364.66666666666663</ele><time>2026-04-08T15:21:31.411Z</time></trkpt><trkpt lat="44.2735507" lon="11.3960045"><ele>362.8333333333333</ele><time>2026-04-08T15:21:32.415Z</time></trkpt><trkpt lat="44.2734856" lon="11.3959377"><ele>361.0</ele><time>2026-04-08T15:21:33.416Z</time></trkpt><trkpt lat="44.273401" lon="11.3958935"><ele>361.0</ele><time>2026-04-08T15:21:34.418Z</time></trkpt><trkpt lat="44.2732935" lon="11.3958714"><ele>361.0</ele><time>2026-04-08T15:21:35.405Z</time></trkpt><trkpt lat="44.2731822" lon="11.3958574"><ele>361.0</ele><time>2026-04-08T15:21:36.404Z</time></trkpt><trkpt lat="44.2730876" lon="11.3958249"><ele>361.0</ele><time>2026-04-08T15:21:37.41Z</time></trkpt><trkpt lat="44.2730184" lon="11.3957397"><ele>361.0</ele><time>2026-04-08T15:21:38.404Z</time></trkpt><trkpt lat="44.2729972" lon="11.3956128"><ele>362.20000000000005</ele><time>2026-04-08T15:21:39.405Z</time></trkpt><trkpt lat="44.2730173" lon="11.3954672"><ele>363.40000000000003</ele><time>2026-04-08T15:21:40.412Z</time></trkpt><trkpt lat="44.2730523" lon="11.3953186"><ele>364.6</ele><time>2026-04-08T15:21:41.403Z</time></trkpt><trkpt lat="44.2730759" lon="11.3951625"><ele>365.8</ele><time>2026-04-08T15:21:42.407Z</time></trkpt><trkpt lat="44.2730777" lon="11.3950055"><ele>367.0</ele><time>2026-04-08T15:21:43.402Z</time></trkpt><trkpt lat="44.2730622" lon="11.3948379"><ele>367.0</ele><time>2026-04-08T15:21:44.406Z</time></trkpt><trkpt lat="44.2730474" lon="11.3946713"><ele>367.0</ele><time>2026-04-08T15:21:45.414Z</time></trkpt><trkpt lat="44.2730343" lon="11.3945002"><ele>367.0</ele><time>2026-04-08T15:21:46.41Z</time></trkpt><trkpt lat="44.2730229" lon="11.3943346"><ele>367.0</ele><time>2026-04-08T15:21:47.406Z</time></trkpt><trkpt lat="44.2729997" lon="11.3941823"><ele>363.6</ele><time>2026-04-08T15:21:48.407Z</time></trkpt><trkpt lat="44.2729587" lon="11.3940518"><ele>360.20000000000005</ele><time>2026-04-08T15:21:49.411Z</time></trkpt><trkpt lat="44.2728956" lon="11.3939426"><ele>356.8</ele><time>2026-04-08T15:21:50.404Z</time></trkpt><trkpt lat="44.2728193" lon="11.3938362"><ele>353.4</ele><time>2026-04-08T15:21:51.401Z</time></trkpt><trkpt lat="44.2727236" lon="11.3937413"><ele>350.0</ele><time>2026-04-08T15:21:52.419Z</time></trkpt><trkpt lat="44.2726236" lon="11.393668"><ele>346.25</ele><time>2026-04-08T15:21:53.415Z</time></trkpt><trkpt lat="44.2725105" lon="11.3936315"><ele>342.5</ele><time>2026-04-08T15:21:54.407Z</time></trkpt><trkpt lat="44.2723838" lon="11.3936243"><ele>338.75</ele><time>2026-04-08T15:21:55.406Z</time></trkpt><trkpt lat="44.2722551" lon="11.3936437"><ele>335.0</ele><time>2026-04-08T15:21:56.407Z</time></trkpt><trkpt lat="44.272139" lon="11.3936793"><ele>335.0</ele><time>2026-04-08T15:21:57.401Z</time></trkpt><trkpt lat="44.2720269" lon="11.3936946"><ele>335.0</ele><time>2026-04-08T15:21:58.414Z</time></trkpt><trkpt lat="44.2719282" lon="11.39367"><ele>335.0</ele><time>2026-04-08T15:21:59.412Z</time></trkpt><trkpt lat="44.2718465" lon="11.3936103"><ele>335.0</ele><time>2026-04-08T15:22:00.417Z</time></trkpt><trkpt lat="44.271772" lon="11.3935515"><ele>335.0</ele><time>2026-04-08T15:22:01.415Z</time></trkpt><trkpt lat="44.2717023" lon="11.3935242"><ele>335.0</ele><time>2026-04-08T15:22:02.407Z</time></trkpt><trkpt lat="44.2716089" lon="11.3934825"><ele>335.0</ele><time>2026-04-08T15:22:04.408Z</time></trkpt><trkpt lat="44.2716551" lon="11.3933351"><ele>335.0</ele><time>2026-04-08T15:22:06.409Z</time></trkpt><trkpt lat="44.2717421" lon="11.3932986"><ele>335.0</ele><time>2026-04-08T15:22:07.409Z</time></trkpt><trkpt lat="44.2718529" lon="11.3933071"><ele>335.0</ele><time>2026-04-08T15:22:08.41Z</time></trkpt><trkpt lat="44.2719686" lon="11.3933329"><ele>335.0</ele><time>2026-04-08T15:22:09.401Z</time></trkpt><trkpt lat="44.2720842" lon="11.3933532"><ele>335.0</ele><time>2026-04-08T15:22:10.412Z</time></trkpt><trkpt lat="44.2721862" lon="11.3933145"><ele>335.0</ele><time>2026-04-08T15:22:11.401Z</time></trkpt><trkpt lat="44.272274" lon="11.393265"><ele>335.0</ele><time>2026-04-08T15:22:12.408Z</time></trkpt><trkpt lat="44.2723427" lon="11.3932048"><ele>335.0</ele><time>2026-04-08T15:22:13.411Z</time></trkpt><trkpt lat="44.2723475" lon="11.393053"><ele>333.33333333333337</ele><time>2026-04-08T15:22:15.412Z</time></trkpt><trkpt lat="44.2722918" lon="11.3929952"><ele>331.6666666666667</ele><time>2026-04-08T15:22:16.413Z</time></trkpt><trkpt lat="44.2722162" lon="11.3929732"><ele>330.0</ele><time>2026-04-08T15:22:17.407Z</time></trkpt><trkpt lat="44.2721271" lon="11.3929792"><ele>328.3333333333333</ele><time>2026-04-08T15:22:18.41Z</time></trkpt><trkpt lat="44.2720398" lon="11.3929786"><ele>326.66666666666663</ele><time>2026-04-08T15:22:19.417Z</time></trkpt><trkpt lat="44.2719643" lon="11.3929436"><ele>325.0</ele><time>2026-04-08T15:22:20.412Z</time></trkpt><trkpt lat="44.2719076" lon="11.3928661"><ele>325.0</ele><time>2026-04-08T15:22:21.403Z</time></trkpt><trkpt lat="44.2718795" lon="11.3927597"><ele>325.0</ele><time>2026-04-08T15:22:22.414Z</time></trkpt><trkpt lat="44.2719011" lon="11.3926362"><ele>325.0</ele><time>2026-04-08T15:22:23.409Z</time></trkpt><trkpt lat="44.2719522" lon="11.3925193"><ele>325.0</ele><time>2026-04-08T15:22:24.404Z</time></trkpt><trkpt lat="44.2720121" lon="11.3923859"><ele>325.0</ele><time>2026-04-08T15:22:25.405Z</time></trkpt><trkpt lat="44.2720645" lon="11.3922286"><ele>324.5</ele><time>2026-04-08T15:22:26.414Z</time></trkpt><trkpt lat="44.2721106" lon="11.3920532"><ele>324.0</ele><time>2026-04-08T15:22:27.406Z</time></trkpt><trkpt lat="44.2721522" lon="11.3918734"><ele>323.5</ele><time>2026-04-08T15:22:28.411Z</time></trkpt><trkpt lat="44.2721929" lon="11.3917037"><ele>323.0</ele><time>2026-04-08T15:22:29.414Z</time></trkpt><trkpt lat="44.2722296" lon="11.3915465"><ele>323.0</ele><time>2026-04-08T15:22:30.429Z</time></trkpt><trkpt lat="44.2722594" lon="11.3913908"><ele>323.0</ele><time>2026-04-08T15:22:31.411Z</time></trkpt><trkpt lat="44.2722807" lon="11.3912217"><ele>323.0</ele><time>2026-04-08T15:22:32.41Z</time></trkpt><trkpt lat="44.2722941" lon="11.3910488"><ele>323.0</ele><time>2026-04-08T15:22:33.407Z</time></trkpt><trkpt lat="44.272281" lon="11.3908486"><ele>320.6666666666667</ele><time>2026-04-08T15:22:34.406Z</time></trkpt><trkpt lat="44.2722631" lon="11.3906154"><ele>318.3333333333333</ele><time>2026-04-08T15:22:35.408Z</time></trkpt><trkpt lat="44.2722345" lon="11.3903987"><ele>316.0</ele><time>2026-04-08T15:22:36.406Z</time></trkpt><trkpt lat="44.27222" lon="11.3902135"><ele>315.6</ele><time>2026-04-08T15:22:37.411Z</time></trkpt><trkpt lat="44.2722071" lon="11.3900424"><ele>315.20000000000005</ele><time>2026-04-08T15:22:38.41Z</time></trkpt><trkpt lat="44.2721982" lon="11.3898872"><ele>314.79999999999995</ele><time>2026-04-08T15:22:39.4Z</time></trkpt><trkpt lat="44.2721998" lon="11.3897427"><ele>314.4</ele><time>2026-04-08T15:22:40.405Z</time></trkpt><trkpt lat="44.2722092" lon="11.3896002"><ele>314.0</ele><time>2026-04-08T15:22:41.403Z</time></trkpt><trkpt lat="44.2722239" lon="11.3894766"><ele>315.6</ele><time>2026-04-08T15:22:42.402Z</time></trkpt><trkpt lat="44.2722415" lon="11.3893575"><ele>317.2</ele><time>2026-04-08T15:22:43.393Z</time></trkpt><trkpt lat="44.2722825" lon="11.3892394"><ele>318.8</ele><time>2026-04-08T15:22:44.398Z</time></trkpt><trkpt lat="44.2723514" lon="11.3891457"><ele>320.40000000000003</ele><time>2026-04-08T15:22:45.397Z</time></trkpt><trkpt lat="44.2724427" lon="11.3890746"><ele>322.0</ele><time>2026-04-08T15:22:46.403Z</time></trkpt><trkpt lat="44.2725323" lon="11.3890027"><ele>317.66666666666663</ele><time>2026-04-08T15:22:47.404Z</time></trkpt><trkpt lat="44.2726109" lon="11.388939"><ele>313.3333333333333</ele><time>2026-04-08T15:22:48.401Z</time></trkpt><trkpt lat="44.2726684" lon="11.3888592"><ele>309.0</ele><time>2026-04-08T15:22:49.433Z</time></trkpt><trkpt lat="44.2727066" lon="11.3887647"><ele>304.6666666666667</ele><time>2026-04-08T15:22:50.402Z</time></trkpt><trkpt lat="44.2727393" lon="11.3886599"><ele>300.33333333333337</ele><time>2026-04-08T15:22:51.405Z</time></trkpt><trkpt lat="44.2727785" lon="11.3885456"><ele>296.0</ele><time>2026-04-08T15:22:52.402Z</time></trkpt><trkpt lat="44.2728309" lon="11.3884256"><ele>296.0</ele><time>2026-04-08T15:22:53.405Z</time></trkpt><trkpt lat="44.2728945" lon="11.3883143"><ele>296.0</ele><time>2026-04-08T15:22:54.404Z</time></trkpt><trkpt lat="44.2729641" lon="11.3882213"><ele>296.0</ele><time>2026-04-08T15:22:55.396Z</time></trkpt><trkpt lat="44.2730453" lon="11.3881519"><ele>296.0</ele><time>2026-04-08T15:22:56.412Z</time></trkpt><trkpt lat="44.2731457" lon="11.3880982"><ele>296.0</ele><time>2026-04-08T15:22:57.409Z</time></trkpt><trkpt lat="44.2732606" lon="11.3880494"><ele>293.2</ele><time>2026-04-08T15:22:58.415Z</time></trkpt><trkpt lat="44.2733721" lon="11.3880011"><ele>290.40000000000003</ele><time>2026-04-08T15:22:59.406Z</time></trkpt><trkpt lat="44.2734792" lon="11.387951"><ele>287.6</ele><time>2026-04-08T15:23:00.414Z</time></trkpt><trkpt lat="44.2735786" lon="11.3879158"><ele>284.8</ele><time>2026-04-08T15:23:01.415Z</time></trkpt><trkpt lat="44.2736815" lon="11.3879162"><ele>282.0</ele><time>2026-04-08T15:23:02.41Z</time></trkpt><trkpt lat="44.2737973" lon="11.3879625"><ele>281.2</ele><time>2026-04-08T15:23:03.41Z</time></trkpt><trkpt lat="44.2739059" lon="11.388042"><ele>280.4</ele><time>2026-04-08T15:23:04.417Z</time></trkpt><trkpt lat="44.2739906" lon="11.3881501"><ele>279.6</ele><time>2026-04-08T15:23:05.409Z</time></trkpt><trkpt lat="44.2740601" lon="11.3882469"><ele>278.8</ele><time>2026-04-08T15:23:06.412Z</time></trkpt><trkpt lat="44.2741221" lon="11.3883116"><ele>278.0</ele><time>2026-04-08T15:23:07.404Z</time></trkpt><trkpt lat="44.2741873" lon="11.3883471"><ele>277.83333333333337</ele><time>2026-04-08T15:23:08.409Z</time></trkpt><trkpt lat="44.2742994" lon="11.3883449"><ele>277.6666666666667</ele><time>2026-04-08T15:23:10.411Z</time></trkpt><trkpt lat="44.2743693" lon="11.3883297"><ele>277.5</ele><time>2026-04-08T15:23:15.413Z</time></trkpt><trkpt lat="44.2744423" lon="11.3883265"><ele>277.3333333333333</ele><time>2026-04-08T15:23:21.413Z</time></trkpt><trkpt lat="44.274523" lon="11.3884105"><ele>277.16666666666663</ele><time>2026-04-08T15:23:24.412Z</time></trkpt><trkpt lat="44.2745512" lon="11.3884965"><ele>277.0</ele><time>2026-04-08T15:23:25.403Z</time></trkpt><trkpt lat="44.2745757" lon="11.3885979"><ele>277.0</ele><time>2026-04-08T15:23:26.413Z</time></trkpt><trkpt lat="44.2746063" lon="11.388692"><ele>277.0</ele><time>2026-04-08T15:23:27.411Z</time></trkpt><trkpt lat="44.2746552" lon="11.3887737"><ele>277.0</ele><time>2026-04-08T15:23:28.434Z</time></trkpt><trkpt lat="44.2747116" lon="11.3888449"><ele>277.0</ele><time>2026-04-08T15:23:29.422Z</time></trkpt><trkpt lat="44.2747762" lon="11.3889028"><ele>277.0</ele><time>2026-04-08T15:23:30.429Z</time></trkpt><trkpt lat="44.2748659" lon="11.3888963"><ele>277.0</ele><time>2026-04-08T15:23:31.429Z</time></trkpt><trkpt lat="44.2749714" lon="11.3888395"><ele>280.75</ele><time>2026-04-08T15:23:32.413Z</time></trkpt><trkpt lat="44.2750873" lon="11.3887554"><ele>284.5</ele><time>2026-04-08T15:23:33.41Z</time></trkpt><trkpt lat="44.2752026" lon="11.3886615"><ele>288.25</ele><time>2026-04-08T15:23:34.404Z</time></trkpt><trkpt lat="44.2753114" lon="11.3885717"><ele>292.0</ele><time>2026-04-08T15:23:35.416Z</time></trkpt><trkpt lat="44.2754127" lon="11.3884829"><ele>292.0</ele><time>2026-04-08T15:23:36.408Z</time></trkpt><trkpt lat="44.2755232" lon="11.3884054"><ele>292.0</ele><time>2026-04-08T15:23:37.407Z</time></trkpt><trkpt lat="44.2756507" lon="11.3883582"><ele>292.0</ele><time>2026-04-08T15:23:38.402Z</time></trkpt><trkpt lat="44.2757761" lon="11.3883594"><ele>292.0</ele><time>2026-04-08T15:23:39.411Z</time></trkpt><trkpt lat="44.2759021" lon="11.3884264"><ele>293.3333333333333</ele><time>2026-04-08T15:23:40.402Z</time></trkpt><trkpt lat="44.2760295" lon="11.3885343"><ele>294.6666666666667</ele><time>2026-04-08T15:23:41.409Z</time></trkpt><trkpt lat="44.2761562" lon="11.3886832"><ele>296.0</ele><time>2026-04-08T15:23:42.404Z</time></trkpt><trkpt lat="44.2762866" lon="11.3888629"><ele>290.33333333333337</ele><time>2026-04-08T15:23:43.41Z</time></trkpt><trkpt lat="44.2764095" lon="11.3890354"><ele>284.6666666666667</ele><time>2026-04-08T15:23:44.41Z</time></trkpt><trkpt lat="44.2765547" lon="11.3891646"><ele>279.0</ele><time>2026-04-08T15:23:45.408Z</time></trkpt><trkpt lat="44.2767225" lon="11.3892862"><ele>279.0</ele><time>2026-04-08T15:23:46.404Z</time></trkpt><trkpt lat="44.2769107" lon="11.3893911"><ele>279.0</ele><time>2026-04-08T15:23:47.409Z</time></trkpt><trkpt lat="44.2770921" lon="11.389486"><ele>279.0</ele><time>2026-04-08T15:23:48.413Z</time></trkpt><trkpt lat="44.2772789" lon="11.3895914"><ele>274.6666666666667</ele><time>2026-04-08T15:23:49.407Z</time></trkpt><trkpt lat="44.2774759" lon="11.3896969"><ele>270.33333333333337</ele><time>2026-04-08T15:23:50.409Z</time></trkpt><trkpt lat="44.2776621" lon="11.3897939"><ele>266.0</ele><time>2026-04-08T15:23:51.408Z</time></trkpt><trkpt lat="44.2778456" lon="11.3898945"><ele>266.0</ele><time>2026-04-08T15:23:52.414Z</time></trkpt><trkpt lat="44.2780494" lon="11.3899821"><ele>266.0</ele><time>2026-04-08T15:23:53.435Z</time></trkpt><trkpt lat="44.2782482" lon="11.3900714"><ele>266.0</ele><time>2026-04-08T15:23:54.412Z</time></trkpt><trkpt lat="44.2784424" lon="11.3901582"><ele>271.6666666666667</ele><time>2026-04-08T15:23:55.413Z</time></trkpt><trkpt lat="44.2786262" lon="11.390248"><ele>277.3333333333333</ele><time>2026-04-08T15:23:56.404Z</time></trkpt><trkpt lat="44.2788086" lon="11.3903188"><ele>283.0</ele><time>2026-04-08T15:23:57.411Z</time></trkpt><trkpt lat="44.2789829" lon="11.3903865"><ele>285.3333333333333</ele><time>2026-04-08T15:23:58.415Z</time></trkpt><trkpt lat="44.2791556" lon="11.3904338"><ele>287.6666666666667</ele><time>2026-04-08T15:23:59.413Z</time></trkpt><trkpt lat="44.2793166" lon="11.3904426"><ele>290.0</ele><time>2026-04-08T15:24:00.407Z</time></trkpt><trkpt lat="44.279489" lon="11.3904294"><ele>290.0</ele><time>2026-04-08T15:24:01.405Z</time></trkpt><trkpt lat="44.2796714" lon="11.3904167"><ele>290.0</ele><time>2026-04-08T15:24:02.411Z</time></trkpt><trkpt lat="44.279847" lon="11.3903885"><ele>290.0</ele><time>2026-04-08T15:24:03.406Z</time></trkpt><trkpt lat="44.2800279" lon="11.3903863"><ele>287.33333333333337</ele><time>2026-04-08T15:24:04.409Z</time></trkpt><trkpt lat="44.2802061" lon="11.3904148"><ele>284.6666666666667</ele><time>2026-04-08T15:24:05.408Z</time></trkpt><trkpt lat="44.280367" lon="11.3904522"><ele>282.0</ele><time>2026-04-08T15:24:06.406Z</time></trkpt><trkpt lat="44.28051" lon="11.3904852"><ele>278.75</ele><time>2026-04-08T15:24:07.415Z</time></trkpt><trkpt lat="44.2806431" lon="11.3905162"><ele>275.5</ele><time>2026-04-08T15:24:08.413Z</time></trkpt><trkpt lat="44.2807708" lon="11.3905499"><ele>272.25</ele><time>2026-04-08T15:24:09.413Z</time></trkpt><trkpt lat="44.2808979" lon="11.3905839"><ele>269.0</ele><time>2026-04-08T15:24:10.414Z</time></trkpt><trkpt lat="44.2810269" lon="11.390617"><ele>269.0</ele><time>2026-04-08T15:24:11.41Z</time></trkpt><trkpt lat="44.2811493" lon="11.390652"><ele>269.0</ele><time>2026-04-08T15:24:12.406Z</time></trkpt><trkpt lat="44.2812527" lon="11.3906852"><ele>269.0</ele><time>2026-04-08T15:24:13.409Z</time></trkpt><trkpt lat="44.2813463" lon="11.3907446"><ele>269.0</ele><time>2026-04-08T15:24:14.403Z</time></trkpt><trkpt lat="44.2814416" lon="11.390827"><ele>269.0</ele><time>2026-04-08T15:24:15.409Z</time></trkpt><trkpt lat="44.2815307" lon="11.3909046"><ele>269.5</ele><time>2026-04-08T15:24:16.415Z</time></trkpt><trkpt lat="44.2816006" lon="11.3909669"><ele>270.0</ele><time>2026-04-08T15:24:17.412Z</time></trkpt><trkpt lat="44.2816882" lon="11.3910412"><ele>270.5</ele><time>2026-04-08T15:24:19.413Z</time></trkpt><trkpt lat="44.281721" lon="11.3909427"><ele>271.0</ele><time>2026-04-08T15:24:23.419Z</time></trkpt><trkpt lat="44.2816865" lon="11.3908294"><ele>271.5</ele><time>2026-04-08T15:24:25.413Z</time></trkpt><trkpt lat="44.2816071" lon="11.3907728"><ele>272.0</ele><time>2026-04-08T15:24:27.415Z</time></trkpt><trkpt lat="44.2815545" lon="11.3906932"><ele>272.0</ele><time>2026-04-08T15:25:32.423Z</time></trkpt></trkseg></trk></gpx>